<?xml version='1.0' encoding='UTF-8'?><gpx version="1.1" creator="JPX - https://github.com/jenetics/jpx" xmlns="http://www.topografix.com/GPX/1/1"><trk><trkseg><trkpt lat="40.1091765" lon="15.2302144"><ele>194.0</ele><time>2026-04-11T07:20:43.337Z</time></trkpt><trkpt lat="40.1091425" lon="15.2300427"><ele>194.0</ele><time>2026-04-11T07:20:45.311Z</time></trkpt><trkpt lat="40.1091122" lon="15.2299359"><ele>194.0</ele><time>2026-04-11T07:20:46.317Z</time></trkpt><trkpt lat="40.1090763" lon="15.2298295"><ele>194.0</ele><time>2026-04-11T07:20:47.303Z</time></trkpt><trkpt lat="40.1090157" lon="15.2297194"><ele>194.0</ele><time>2026-04-11T07:20:48.327Z</time></trkpt><trkpt lat="40.108926" lon="15.2296207"><ele>189.39999999999998</ele><time>2026-04-11T07:20:49.307Z</time></trkpt><trkpt lat="40.1088376" lon="15.2295319"><ele>184.8</ele><time>2026-04-11T07:20:50.317Z</time></trkpt><trkpt lat="40.108769" lon="15.2294493"><ele>180.2</ele><time>2026-04-11T07:20:51.317Z</time></trkpt><trkpt lat="40.1087225" lon="15.2293729"><ele>175.60000000000002</ele><time>2026-04-11T07:20:52.311Z</time></trkpt><trkpt lat="40.1087228" lon="15.2292285"><ele>171.0</ele><time>2026-04-11T07:20:54.339Z</time></trkpt><trkpt lat="40.1087744" lon="15.2291503"><ele>171.0</ele><time>2026-04-11T07:20:55.33Z</time></trkpt><trkpt lat="40.1088543" lon="15.2290717"><ele>171.0</ele><time>2026-04-11T07:20:56.334Z</time></trkpt><trkpt lat="40.1089694" lon="15.2290043"><ele>171.0</ele><time>2026-04-11T07:20:57.346Z</time></trkpt><trkpt lat="40.1090932" lon="15.2289482"><ele>171.0</ele><time>2026-04-11T07:20:58.347Z</time></trkpt><trkpt lat="40.1092222" lon="15.2288869"><ele>172.25</ele><time>2026-04-11T07:20:59.334Z</time></trkpt><trkpt lat="40.1093531" lon="15.2288163"><ele>173.5</ele><time>2026-04-11T07:21:00.326Z</time></trkpt><trkpt lat="40.1094744" lon="15.2287389"><ele>174.75</ele><time>2026-04-11T07:21:01.327Z</time></trkpt><trkpt lat="40.1095706" lon="15.2286142"><ele>176.0</ele><time>2026-04-11T07:21:02.337Z</time></trkpt><trkpt lat="40.1096358" lon="15.2284521"><ele>176.0</ele><time>2026-04-11T07:21:03.306Z</time></trkpt><trkpt lat="40.1096863" lon="15.228274"><ele>176.0</ele><time>2026-04-11T07:21:04.323Z</time></trkpt><trkpt lat="40.1097373" lon="15.2281325"><ele>176.0</ele><time>2026-04-11T07:21:05.352Z</time></trkpt><trkpt lat="40.1098008" lon="15.2280308"><ele>176.0</ele><time>2026-04-11T07:21:06.334Z</time></trkpt><trkpt lat="40.1098925" lon="15.2279526"><ele>179.0</ele><time>2026-04-11T07:21:07.311Z</time></trkpt><trkpt lat="40.1100147" lon="15.2278816"><ele>182.0</ele><time>2026-04-11T07:21:08.319Z</time></trkpt><trkpt lat="40.110135" lon="15.227785"><ele>185.0</ele><time>2026-04-11T07:21:09.326Z</time></trkpt><trkpt lat="40.1102542" lon="15.2276527"><ele>188.0</ele><time>2026-04-11T07:21:10.338Z</time></trkpt><trkpt lat="40.1103713" lon="15.2275301"><ele>188.0</ele><time>2026-04-11T07:21:11.335Z</time></trkpt><trkpt lat="40.110508" lon="15.2274339"><ele>188.0</ele><time>2026-04-11T07:21:12.331Z</time></trkpt><trkpt lat="40.1106597" lon="15.2273662"><ele>188.0</ele><time>2026-04-11T07:21:13.324Z</time></trkpt><trkpt lat="40.1108223" lon="15.2273089"><ele>183.66666666666666</ele><time>2026-04-11T07:21:14.332Z</time></trkpt><trkpt lat="40.1109803" lon="15.2272493"><ele>179.33333333333334</ele><time>2026-04-11T07:21:15.328Z</time></trkpt><trkpt lat="40.1111407" lon="15.2271747"><ele>175.0</ele><time>2026-04-11T07:21:16.32Z</time></trkpt><trkpt lat="40.1112824" lon="15.2271152"><ele>175.0</ele><time>2026-04-11T07:21:17.319Z</time></trkpt><trkpt lat="40.1113976" lon="15.2270698"><ele>175.0</ele><time>2026-04-11T07:21:18.317Z</time></trkpt><trkpt lat="40.1114967" lon="15.2270195"><ele>175.0</ele><time>2026-04-11T07:21:19.326Z</time></trkpt><trkpt lat="40.1115716" lon="15.2269587"><ele>175.0</ele><time>2026-04-11T07:21:20.321Z</time></trkpt><trkpt lat="40.1116168" lon="15.2268665"><ele>175.0</ele><time>2026-04-11T07:21:21.337Z</time></trkpt><trkpt lat="40.1116381" lon="15.2267359"><ele>169.5</ele><time>2026-04-11T07:21:22.331Z</time></trkpt><trkpt lat="40.1116358" lon="15.2265788"><ele>164.0</ele><time>2026-04-11T07:21:23.323Z</time></trkpt><trkpt lat="40.1116147" lon="15.2264123"><ele>158.5</ele><time>2026-04-11T07:21:24.313Z</time></trkpt><trkpt lat="40.1115833" lon="15.2262474"><ele>153.0</ele><time>2026-04-11T07:21:25.32Z</time></trkpt><trkpt lat="40.1115475" lon="15.2260963"><ele>153.0</ele><time>2026-04-11T07:21:26.339Z</time></trkpt><trkpt lat="40.111509" lon="15.2259651"><ele>153.0</ele><time>2026-04-11T07:21:27.33Z</time></trkpt><trkpt lat="40.1114772" lon="15.2258654"><ele>153.0</ele><time>2026-04-11T07:21:28.344Z</time></trkpt><trkpt lat="40.1114601" lon="15.2257689"><ele>153.0</ele><time>2026-04-11T07:21:29.33Z</time></trkpt><trkpt lat="40.1114694" lon="15.2256869"><ele>153.0</ele><time>2026-04-11T07:21:30.345Z</time></trkpt><trkpt lat="40.1115531" lon="15.2255485"><ele>159.8</ele><time>2026-04-11T07:21:32.331Z</time></trkpt><trkpt lat="40.1116248" lon="15.2255094"><ele>166.60000000000002</ele><time>2026-04-11T07:21:33.339Z</time></trkpt><trkpt lat="40.1117048" lon="15.2255197"><ele>173.39999999999998</ele><time>2026-04-11T07:21:34.335Z</time></trkpt><trkpt lat="40.1117977" lon="15.2255731"><ele>180.2</ele><time>2026-04-11T07:21:35.331Z</time></trkpt><trkpt lat="40.1119" lon="15.2256529"><ele>187.0</ele><time>2026-04-11T07:21:36.329Z</time></trkpt><trkpt lat="40.1120116" lon="15.2257442"><ele>191.0</ele><time>2026-04-11T07:21:37.339Z</time></trkpt><trkpt lat="40.1121374" lon="15.2258545"><ele>195.0</ele><time>2026-04-11T07:21:38.342Z</time></trkpt><trkpt lat="40.1122659" lon="15.2259588"><ele>199.0</ele><time>2026-04-11T07:21:39.337Z</time></trkpt><trkpt lat="40.1124026" lon="15.2260472"><ele>199.66666666666666</ele><time>2026-04-11T07:21:40.322Z</time></trkpt><trkpt lat="40.1125522" lon="15.2261255"><ele>200.33333333333331</ele><time>2026-04-11T07:21:41.327Z</time></trkpt><trkpt lat="40.1127212" lon="15.2261854"><ele>201.0</ele><time>2026-04-11T07:21:42.332Z</time></trkpt><trkpt lat="40.1129068" lon="15.2262398"><ele>201.0</ele><time>2026-04-11T07:21:43.318Z</time></trkpt><trkpt lat="40.1130918" lon="15.2262817"><ele>201.0</ele><time>2026-04-11T07:21:44.333Z</time></trkpt><trkpt lat="40.113263" lon="15.2263043"><ele>201.0</ele><time>2026-04-11T07:21:45.311Z</time></trkpt><trkpt lat="40.1134033" lon="15.2263074"><ele>200.0</ele><time>2026-04-11T07:21:46.317Z</time></trkpt><trkpt lat="40.1135255" lon="15.2263126"><ele>199.0</ele><time>2026-04-11T07:21:47.33Z</time></trkpt><trkpt lat="40.1136273" lon="15.2263038"><ele>198.0</ele><time>2026-04-11T07:21:48.326Z</time></trkpt><trkpt lat="40.1137322" lon="15.2262538"><ele>197.0</ele><time>2026-04-11T07:21:49.33Z</time></trkpt><trkpt lat="40.1138444" lon="15.2261662"><ele>197.0</ele><time>2026-04-11T07:21:50.325Z</time></trkpt><trkpt lat="40.1139664" lon="15.2260728"><ele>197.0</ele><time>2026-04-11T07:21:51.327Z</time></trkpt><trkpt lat="40.1140865" lon="15.2259858"><ele>197.0</ele><time>2026-04-11T07:21:52.337Z</time></trkpt><trkpt lat="40.1141797" lon="15.2259143"><ele>197.0</ele><time>2026-04-11T07:21:53.328Z</time></trkpt><trkpt lat="40.1142756" lon="15.2258745"><ele>199.8</ele><time>2026-04-11T07:21:54.322Z</time></trkpt><trkpt lat="40.1143839" lon="15.2258588"><ele>202.6</ele><time>2026-04-11T07:21:55.318Z</time></trkpt><trkpt lat="40.1144972" lon="15.2258664"><ele>205.4</ele><time>2026-04-11T07:21:56.333Z</time></trkpt><trkpt lat="40.1145984" lon="15.2258577"><ele>208.20000000000002</ele><time>2026-04-11T07:21:57.317Z</time></trkpt><trkpt lat="40.1146788" lon="15.2258146"><ele>211.0</ele><time>2026-04-11T07:21:58.32Z</time></trkpt><trkpt lat="40.1147346" lon="15.2257368"><ele>206.75</ele><time>2026-04-11T07:21:59.318Z</time></trkpt><trkpt lat="40.1147775" lon="15.2256378"><ele>202.5</ele><time>2026-04-11T07:22:00.327Z</time></trkpt><trkpt lat="40.1148088" lon="15.2254876"><ele>198.25</ele><time>2026-04-11T07:22:01.325Z</time></trkpt><trkpt lat="40.1148418" lon="15.225328"><ele>194.0</ele><time>2026-04-11T07:22:02.335Z</time></trkpt><trkpt lat="40.1148914" lon="15.225184"><ele>198.0</ele><time>2026-04-11T07:22:03.335Z</time></trkpt><trkpt lat="40.114969" lon="15.2250425"><ele>202.0</ele><time>2026-04-11T07:22:04.332Z</time></trkpt><trkpt lat="40.1150604" lon="15.2248826"><ele>206.0</ele><time>2026-04-11T07:22:05.333Z</time></trkpt><trkpt lat="40.1151411" lon="15.2247111"><ele>210.0</ele><time>2026-04-11T07:22:06.338Z</time></trkpt><trkpt lat="40.1152092" lon="15.2245383"><ele>210.0</ele><time>2026-04-11T07:22:07.333Z</time></trkpt><trkpt lat="40.1152686" lon="15.2243854"><ele>210.0</ele><time>2026-04-11T07:22:08.34Z</time></trkpt><trkpt lat="40.1153373" lon="15.2242441"><ele>210.0</ele><time>2026-04-11T07:22:09.331Z</time></trkpt><trkpt lat="40.1154114" lon="15.2241024"><ele>210.0</ele><time>2026-04-11T07:22:10.313Z</time></trkpt><trkpt lat="40.115495" lon="15.2239605"><ele>213.33333333333331</ele><time>2026-04-11T07:22:11.336Z</time></trkpt><trkpt lat="40.1156131" lon="15.2238155"><ele>216.66666666666666</ele><time>2026-04-11T07:22:12.323Z</time></trkpt><trkpt lat="40.1157378" lon="15.2236735"><ele>220.0</ele><time>2026-04-11T07:22:13.321Z</time></trkpt><trkpt lat="40.115841" lon="15.2235589"><ele>220.0</ele><time>2026-04-11T07:22:14.335Z</time></trkpt><trkpt lat="40.1159447" lon="15.2234693"><ele>220.0</ele><time>2026-04-11T07:22:15.314Z</time></trkpt><trkpt lat="40.1160485" lon="15.2233993"><ele>220.0</ele><time>2026-04-11T07:22:16.326Z</time></trkpt><trkpt lat="40.1161666" lon="15.2233542"><ele>220.0</ele><time>2026-04-11T07:22:17.319Z</time></trkpt><trkpt lat="40.1162963" lon="15.223329"><ele>220.0</ele><time>2026-04-11T07:22:18.319Z</time></trkpt><trkpt lat="40.1164227" lon="15.2233053"><ele>220.0</ele><time>2026-04-11T07:22:19.326Z</time></trkpt><trkpt lat="40.1165383" lon="15.2232899"><ele>220.0</ele><time>2026-04-11T07:22:20.326Z</time></trkpt><trkpt lat="40.1166573" lon="15.2233051"><ele>220.0</ele><time>2026-04-11T07:22:21.33Z</time></trkpt><trkpt lat="40.1167904" lon="15.2233479"><ele>222.75</ele><time>2026-04-11T07:22:22.316Z</time></trkpt><trkpt lat="40.1169391" lon="15.2233983"><ele>225.5</ele><time>2026-04-11T07:22:23.338Z</time></trkpt><trkpt lat="40.1170844" lon="15.2234333"><ele>228.25</ele><time>2026-04-11T07:22:24.315Z</time></trkpt><trkpt lat="40.1172077" lon="15.223453"><ele>231.0</ele><time>2026-04-11T07:22:25.31Z</time></trkpt><trkpt lat="40.1173209" lon="15.2234653"><ele>232.8</ele><time>2026-04-11T07:22:26.306Z</time></trkpt><trkpt lat="40.117415" lon="15.2234763"><ele>234.60000000000002</ele><time>2026-04-11T07:22:27.313Z</time></trkpt><trkpt lat="40.117489" lon="15.2234482"><ele>236.4</ele><time>2026-04-11T07:22:28.328Z</time></trkpt><trkpt lat="40.1175369" lon="15.2233688"><ele>238.2</ele><time>2026-04-11T07:22:29.298Z</time></trkpt><trkpt lat="40.11757" lon="15.2232463"><ele>240.0</ele><time>2026-04-11T07:22:30.338Z</time></trkpt><trkpt lat="40.1175944" lon="15.2231101"><ele>235.2</ele><time>2026-04-11T07:22:31.331Z</time></trkpt><trkpt lat="40.1176251" lon="15.2229771"><ele>230.4</ele><time>2026-04-11T07:22:32.309Z</time></trkpt><trkpt lat="40.1176577" lon="15.2228609"><ele>225.60000000000002</ele><time>2026-04-11T07:22:33.319Z</time></trkpt><trkpt lat="40.1177019" lon="15.2227778"><ele>220.8</ele><time>2026-04-11T07:22:34.324Z</time></trkpt><trkpt lat="40.1177626" lon="15.2226909"><ele>216.0</ele><time>2026-04-11T07:22:35.319Z</time></trkpt><trkpt lat="40.117851" lon="15.2225934"><ele>216.0</ele><time>2026-04-11T07:22:36.321Z</time></trkpt><trkpt lat="40.1179437" lon="15.2225007"><ele>216.00000000000003</ele><time>2026-04-11T07:22:37.33Z</time></trkpt><trkpt lat="40.1180067" lon="15.222422"><ele>216.00000000000003</ele><time>2026-04-11T07:22:38.337Z</time></trkpt><trkpt lat="40.1180483" lon="15.2223206"><ele>216.0</ele><time>2026-04-11T07:22:39.33Z</time></trkpt><trkpt lat="40.1180858" lon="15.222189"><ele>216.0</ele><time>2026-04-11T07:22:40.335Z</time></trkpt><trkpt lat="40.118115" lon="15.2220377"><ele>212.25</ele><time>2026-04-11T07:22:41.32Z</time></trkpt><trkpt lat="40.1181594" lon="15.2219062"><ele>208.5</ele><time>2026-04-11T07:22:42.333Z</time></trkpt><trkpt lat="40.1182249" lon="15.2217969"><ele>204.75</ele><time>2026-04-11T07:22:43.334Z</time></trkpt><trkpt lat="40.118314" lon="15.2216959"><ele>201.0</ele><time>2026-04-11T07:22:44.349Z</time></trkpt><trkpt lat="40.1184194" lon="15.2216127"><ele>203.0</ele><time>2026-04-11T07:22:45.329Z</time></trkpt><trkpt lat="40.1185415" lon="15.2215197"><ele>205.0</ele><time>2026-04-11T07:22:46.316Z</time></trkpt><trkpt lat="40.1186608" lon="15.221429"><ele>207.0</ele><time>2026-04-11T07:22:47.323Z</time></trkpt><trkpt lat="40.1187473" lon="15.2213575"><ele>209.0</ele><time>2026-04-11T07:22:48.33Z</time></trkpt><trkpt lat="40.1188201" lon="15.2213199"><ele>209.0</ele><time>2026-04-11T07:22:49.336Z</time></trkpt><trkpt lat="40.1189284" lon="15.221304"><ele>209.0</ele><time>2026-04-11T07:22:50.34Z</time></trkpt><trkpt lat="40.1190561" lon="15.2213106"><ele>209.0</ele><time>2026-04-11T07:22:51.323Z</time></trkpt><trkpt lat="40.1191996" lon="15.2213204"><ele>209.0</ele><time>2026-04-11T07:22:52.326Z</time></trkpt><trkpt lat="40.1193606" lon="15.221338"><ele>213.5</ele><time>2026-04-11T07:22:53.317Z</time></trkpt><trkpt lat="40.1195107" lon="15.2213607"><ele>218.0</ele><time>2026-04-11T07:22:54.323Z</time></trkpt><trkpt lat="40.1196456" lon="15.2213807"><ele>222.5</ele><time>2026-04-11T07:22:55.33Z</time></trkpt><trkpt lat="40.1197639" lon="15.2213704"><ele>227.0</ele><time>2026-04-11T07:22:56.333Z</time></trkpt><trkpt lat="40.1198648" lon="15.2213466"><ele>229.39999999999998</ele><time>2026-04-11T07:22:57.334Z</time></trkpt><trkpt lat="40.1199545" lon="15.2213036"><ele>231.79999999999998</ele><time>2026-04-11T07:22:58.328Z</time></trkpt><trkpt lat="40.1200395" lon="15.2212353"><ele>234.2</ele><time>2026-04-11T07:22:59.326Z</time></trkpt><trkpt lat="40.1201326" lon="15.2211298"><ele>236.6</ele><time>2026-04-11T07:23:00.325Z</time></trkpt><trkpt lat="40.1202186" lon="15.2210029"><ele>239.0</ele><time>2026-04-11T07:23:01.316Z</time></trkpt><trkpt lat="40.1203187" lon="15.2208759"><ele>239.0</ele><time>2026-04-11T07:23:02.332Z</time></trkpt><trkpt lat="40.120455" lon="15.2207589"><ele>239.0</ele><time>2026-04-11T07:23:03.313Z</time></trkpt><trkpt lat="40.1205985" lon="15.2206616"><ele>239.0</ele><time>2026-04-11T07:23:04.303Z</time></trkpt><trkpt lat="40.1207372" lon="15.2205443"><ele>240.33333333333334</ele><time>2026-04-11T07:23:05.309Z</time></trkpt><trkpt lat="40.120877" lon="15.2204381"><ele>241.66666666666669</ele><time>2026-04-11T07:23:06.316Z</time></trkpt><trkpt lat="40.1210091" lon="15.2203536"><ele>243.0</ele><time>2026-04-11T07:23:07.309Z</time></trkpt><trkpt lat="40.1211334" lon="15.2202507"><ele>243.0</ele><time>2026-04-11T07:23:08.318Z</time></trkpt><trkpt lat="40.1212543" lon="15.2201295"><ele>243.0</ele><time>2026-04-11T07:23:09.326Z</time></trkpt><trkpt lat="40.1213519" lon="15.2200269"><ele>243.0</ele><time>2026-04-11T07:23:10.315Z</time></trkpt><trkpt lat="40.1214272" lon="15.2199402"><ele>243.0</ele><time>2026-04-11T07:23:11.302Z</time></trkpt><trkpt lat="40.1214806" lon="15.2198382"><ele>241.2</ele><time>2026-04-11T07:23:12.32Z</time></trkpt><trkpt lat="40.1215239" lon="15.2197166"><ele>239.4</ele><time>2026-04-11T07:23:13.318Z</time></trkpt><trkpt lat="40.1215395" lon="15.2195813"><ele>237.59999999999997</ele><time>2026-04-11T07:23:14.305Z</time></trkpt><trkpt lat="40.1215493" lon="15.219451"><ele>235.79999999999998</ele><time>2026-04-11T07:23:15.311Z</time></trkpt><trkpt lat="40.1215692" lon="15.2193316"><ele>234.0</ele><time>2026-04-11T07:23:16.326Z</time></trkpt><trkpt lat="40.1216201" lon="15.2192126"><ele>237.0</ele><time>2026-04-11T07:23:17.322Z</time></trkpt><trkpt lat="40.1216984" lon="15.2190948"><ele>240.0</ele><time>2026-04-11T07:23:18.336Z</time></trkpt><trkpt lat="40.1217938" lon="15.2189809"><ele>243.0</ele><time>2026-04-11T07:23:19.328Z</time></trkpt><trkpt lat="40.1219047" lon="15.218866"><ele>246.0</ele><time>2026-04-11T07:23:20.336Z</time></trkpt><trkpt lat="40.122023" lon="15.2187378"><ele>246.0</ele><time>2026-04-11T07:23:21.327Z</time></trkpt><trkpt lat="40.1221457" lon="15.2185911"><ele>246.0</ele><time>2026-04-11T07:23:22.341Z</time></trkpt><trkpt lat="40.1222532" lon="15.2184473"><ele>246.0</ele><time>2026-04-11T07:23:23.331Z</time></trkpt><trkpt lat="40.1223485" lon="15.2182989"><ele>249.25</ele><time>2026-04-11T07:23:24.347Z</time></trkpt><trkpt lat="40.1224325" lon="15.2181695"><ele>252.5</ele><time>2026-04-11T07:23:25.315Z</time></trkpt><trkpt lat="40.1225115" lon="15.2180595"><ele>255.75</ele><time>2026-04-11T07:23:26.321Z</time></trkpt><trkpt lat="40.1225956" lon="15.2179649"><ele>259.0</ele><time>2026-04-11T07:23:27.321Z</time></trkpt><trkpt lat="40.12271" lon="15.2178753"><ele>259.0</ele><time>2026-04-11T07:23:28.33Z</time></trkpt><trkpt lat="40.1228378" lon="15.217792"><ele>259.0</ele><time>2026-04-11T07:23:29.349Z</time></trkpt><trkpt lat="40.1229494" lon="15.2176962"><ele>259.0</ele><time>2026-04-11T07:23:30.338Z</time></trkpt><trkpt lat="40.1230474" lon="15.217589"><ele>259.0</ele><time>2026-04-11T07:23:31.343Z</time></trkpt><trkpt lat="40.1231471" lon="15.2174504"><ele>262.5</ele><time>2026-04-11T07:23:32.328Z</time></trkpt><trkpt lat="40.1232342" lon="15.2172836"><ele>266.0</ele><time>2026-04-11T07:23:33.333Z</time></trkpt><trkpt lat="40.123315" lon="15.2171171"><ele>269.5</ele><time>2026-04-11T07:23:34.326Z</time></trkpt><trkpt lat="40.1233917" lon="15.2169718"><ele>273.0</ele><time>2026-04-11T07:23:35.325Z</time></trkpt><trkpt lat="40.1234699" lon="15.216846"><ele>273.0</ele><time>2026-04-11T07:23:36.336Z</time></trkpt><trkpt lat="40.1235844" lon="15.2167244"><ele>273.0</ele><time>2026-04-11T07:23:37.328Z</time></trkpt><trkpt lat="40.1237043" lon="15.2166161"><ele>273.0</ele><time>2026-04-11T07:23:38.344Z</time></trkpt><trkpt lat="40.1238023" lon="15.2165105"><ele>273.0</ele><time>2026-04-11T07:23:39.335Z</time></trkpt><trkpt lat="40.1238702" lon="15.2164152"><ele>272.5</ele><time>2026-04-11T07:23:40.331Z</time></trkpt><trkpt lat="40.1239244" lon="15.2163539"><ele>272.0</ele><time>2026-04-11T07:23:41.325Z</time></trkpt><trkpt lat="40.1239899" lon="15.2163458"><ele>271.5</ele><time>2026-04-11T07:23:42.332Z</time></trkpt><trkpt lat="40.1240675" lon="15.216375"><ele>271.0</ele><time>2026-04-11T07:23:43.331Z</time></trkpt><trkpt lat="40.124156" lon="15.2164341"><ele>270.5</ele><time>2026-04-11T07:23:44.33Z</time></trkpt><trkpt lat="40.1242629" lon="15.2165198"><ele>270.0</ele><time>2026-04-11T07:23:45.332Z</time></trkpt><trkpt lat="40.1243992" lon="15.2166315"><ele>277.3333333333333</ele><time>2026-04-11T07:23:46.324Z</time></trkpt><trkpt lat="40.1245318" lon="15.2167401"><ele>284.66666666666663</ele><time>2026-04-11T07:23:47.333Z</time></trkpt><trkpt lat="40.1246607" lon="15.2168476"><ele>292.0</ele><time>2026-04-11T07:23:48.332Z</time></trkpt><trkpt lat="40.1247855" lon="15.2169607"><ele>296.0</ele><time>2026-04-11T07:23:49.331Z</time></trkpt><trkpt lat="40.1249008" lon="15.2170963"><ele>300.0</ele><time>2026-04-11T07:23:50.33Z</time></trkpt><trkpt lat="40.1250065" lon="15.2172491"><ele>304.0</ele><time>2026-04-11T07:23:51.325Z</time></trkpt><trkpt lat="40.125107" lon="15.2174226"><ele>304.0</ele><time>2026-04-11T07:23:52.327Z</time></trkpt><trkpt lat="40.1252077" lon="15.2176021"><ele>304.0</ele><time>2026-04-11T07:23:53.321Z</time></trkpt><trkpt lat="40.1253096" lon="15.2177585"><ele>304.0</ele><time>2026-04-11T07:23:54.324Z</time></trkpt><trkpt lat="40.1254026" lon="15.2178888"><ele>304.0</ele><time>2026-04-11T07:23:55.334Z</time></trkpt><trkpt lat="40.1254794" lon="15.2180273"><ele>304.0</ele><time>2026-04-11T07:23:56.322Z</time></trkpt><trkpt lat="40.1255473" lon="15.2181819"><ele>304.0</ele><time>2026-04-11T07:23:57.327Z</time></trkpt><trkpt lat="40.1256041" lon="15.2183486"><ele>304.0</ele><time>2026-04-11T07:23:58.324Z</time></trkpt><trkpt lat="40.1256542" lon="15.2185336"><ele>305.66666666666663</ele><time>2026-04-11T07:23:59.336Z</time></trkpt><trkpt lat="40.1257118" lon="15.2187326"><ele>307.3333333333333</ele><time>2026-04-11T07:24:00.322Z</time></trkpt><trkpt lat="40.1257831" lon="15.2189239"><ele>309.0</ele><time>2026-04-11T07:24:01.318Z</time></trkpt><trkpt lat="40.1258643" lon="15.2190964"><ele>309.0</ele><time>2026-04-11T07:24:02.327Z</time></trkpt><trkpt lat="40.1259401" lon="15.2192445"><ele>309.0</ele><time>2026-04-11T07:24:03.323Z</time></trkpt><trkpt lat="40.1259977" lon="15.2193695"><ele>309.0</ele><time>2026-04-11T07:24:04.329Z</time></trkpt><trkpt lat="40.1260437" lon="15.2194809"><ele>309.0</ele><time>2026-04-11T07:24:05.322Z</time></trkpt><trkpt lat="40.1260686" lon="15.2195668"><ele>309.0</ele><time>2026-04-11T07:24:06.323Z</time></trkpt><trkpt lat="40.1260207" lon="15.2197139"><ele>309.0</ele><time>2026-04-11T07:24:08.322Z</time></trkpt><trkpt lat="40.1259486" lon="15.219789"><ele>309.0</ele><time>2026-04-11T07:24:09.328Z</time></trkpt><trkpt lat="40.1258549" lon="15.2198601"><ele>309.0</ele><time>2026-04-11T07:24:10.331Z</time></trkpt><trkpt lat="40.1257617" lon="15.2199273"><ele>309.0</ele><time>2026-04-11T07:24:11.328Z</time></trkpt><trkpt lat="40.1256934" lon="15.2199916"><ele>309.0</ele><time>2026-04-11T07:24:12.325Z</time></trkpt><trkpt lat="40.1256563" lon="15.2200697"><ele>317.2</ele><time>2026-04-11T07:24:13.329Z</time></trkpt><trkpt lat="40.1256439" lon="15.2201785"><ele>325.4</ele><time>2026-04-11T07:24:14.328Z</time></trkpt><trkpt lat="40.1256527" lon="15.2202995"><ele>333.6</ele><time>2026-04-11T07:24:15.331Z</time></trkpt><trkpt lat="40.1256739" lon="15.2204294"><ele>341.8</ele><time>2026-04-11T07:24:16.326Z</time></trkpt><trkpt lat="40.1256847" lon="15.2205722"><ele>350.0</ele><time>2026-04-11T07:24:17.322Z</time></trkpt><trkpt lat="40.1256833" lon="15.2207191"><ele>350.0</ele><time>2026-04-11T07:24:18.321Z</time></trkpt><trkpt lat="40.1256689" lon="15.2208359"><ele>350.0</ele><time>2026-04-11T07:24:19.328Z</time></trkpt><trkpt lat="40.125691" lon="15.2209887"><ele>350.0</ele><time>2026-04-11T07:24:21.319Z</time></trkpt><trkpt lat="40.1258025" lon="15.2210924"><ele>350.0</ele><time>2026-04-11T07:24:23.331Z</time></trkpt><trkpt lat="40.1259104" lon="15.2211156"><ele>342.2</ele><time>2026-04-11T07:24:24.325Z</time></trkpt><trkpt lat="40.1260315" lon="15.2211356"><ele>334.4</ele><time>2026-04-11T07:24:25.326Z</time></trkpt><trkpt lat="40.1261423" lon="15.2211686"><ele>326.6</ele><time>2026-04-11T07:24:26.338Z</time></trkpt><trkpt lat="40.1262482" lon="15.2212192"><ele>318.8</ele><time>2026-04-11T07:24:27.319Z</time></trkpt><trkpt lat="40.126333" lon="15.221282"><ele>311.0</ele><time>2026-04-11T07:24:28.33Z</time></trkpt><trkpt lat="40.1263941" lon="15.2213502"><ele>311.0</ele><time>2026-04-11T07:24:29.329Z</time></trkpt><trkpt lat="40.1264377" lon="15.2214259"><ele>311.0</ele><time>2026-04-11T07:24:30.337Z</time></trkpt><trkpt lat="40.126466" lon="15.2215221"><ele>311.0</ele><time>2026-04-11T07:24:31.332Z</time></trkpt><trkpt lat="40.1264855" lon="15.2216296"><ele>311.0</ele><time>2026-04-11T07:24:32.319Z</time></trkpt><trkpt lat="40.1265201" lon="15.2217491"><ele>311.0</ele><time>2026-04-11T07:24:33.321Z</time></trkpt><trkpt lat="40.1265674" lon="15.221862"><ele>311.0</ele><time>2026-04-11T07:24:34.326Z</time></trkpt><trkpt lat="40.1266353" lon="15.2219474"><ele>310.6666666666667</ele><time>2026-04-11T07:24:35.316Z</time></trkpt><trkpt lat="40.1266981" lon="15.2220094"><ele>310.33333333333337</ele><time>2026-04-11T07:24:36.332Z</time></trkpt><trkpt lat="40.126737" lon="15.2220788"><ele>310.0</ele><time>2026-04-11T07:24:37.326Z</time></trkpt><trkpt lat="40.1267454" lon="15.2221632"><ele>309.6666666666667</ele><time>2026-04-11T07:24:38.333Z</time></trkpt><trkpt lat="40.1267305" lon="15.22228"><ele>309.3333333333333</ele><time>2026-04-11T07:24:39.342Z</time></trkpt><trkpt lat="40.1266972" lon="15.2224173"><ele>309.0</ele><time>2026-04-11T07:24:40.335Z</time></trkpt><trkpt lat="40.126675" lon="15.2225694"><ele>310.59999999999997</ele><time>2026-04-11T07:24:41.322Z</time></trkpt><trkpt lat="40.1266587" lon="15.2227099"><ele>312.2</ele><time>2026-04-11T07:24:42.328Z</time></trkpt><trkpt lat="40.1266331" lon="15.2228209"><ele>313.79999999999995</ele><time>2026-04-11T07:24:43.327Z</time></trkpt><trkpt lat="40.1265762" lon="15.2228972"><ele>315.4</ele><time>2026-04-11T07:24:44.33Z</time></trkpt><trkpt lat="40.1264885" lon="15.2229754"><ele>317.0</ele><time>2026-04-11T07:24:45.328Z</time></trkpt><trkpt lat="40.1263846" lon="15.2230649"><ele>319.0</ele><time>2026-04-11T07:24:46.34Z</time></trkpt><trkpt lat="40.1262926" lon="15.22317"><ele>321.0</ele><time>2026-04-11T07:24:47.331Z</time></trkpt><trkpt lat="40.1262111" lon="15.2232884"><ele>323.0</ele><time>2026-04-11T07:24:48.324Z</time></trkpt><trkpt lat="40.1261187" lon="15.2233898"><ele>325.0</ele><time>2026-04-11T07:24:49.331Z</time></trkpt><trkpt lat="40.126" lon="15.2234494"><ele>325.0</ele><time>2026-04-11T07:24:50.338Z</time></trkpt><trkpt lat="40.1258664" lon="15.2234702"><ele>325.0</ele><time>2026-04-11T07:24:51.328Z</time></trkpt><trkpt lat="40.125712" lon="15.2234661"><ele>325.0</ele><time>2026-04-11T07:24:52.325Z</time></trkpt><trkpt lat="40.1255356" lon="15.2234423"><ele>327.25</ele><time>2026-04-11T07:24:53.324Z</time></trkpt><trkpt lat="40.1253765" lon="15.2234267"><ele>329.5</ele><time>2026-04-11T07:24:54.319Z</time></trkpt><trkpt lat="40.1252393" lon="15.223426"><ele>331.75</ele><time>2026-04-11T07:24:55.334Z</time></trkpt><trkpt lat="40.1250958" lon="15.2234321"><ele>334.0</ele><time>2026-04-11T07:24:56.332Z</time></trkpt><trkpt lat="40.124939" lon="15.2234496"><ele>339.5</ele><time>2026-04-11T07:24:57.323Z</time></trkpt><trkpt lat="40.1247974" lon="15.2234701"><ele>345.0</ele><time>2026-04-11T07:24:58.333Z</time></trkpt><trkpt lat="40.1246727" lon="15.2234847"><ele>350.5</ele><time>2026-04-11T07:24:59.324Z</time></trkpt><trkpt lat="40.1245636" lon="15.2235066"><ele>356.0</ele><time>2026-04-11T07:25:00.325Z</time></trkpt><trkpt lat="40.1244645" lon="15.223532"><ele>356.0</ele><time>2026-04-11T07:25:01.334Z</time></trkpt><trkpt lat="40.1243736" lon="15.2235865"><ele>356.0</ele><time>2026-04-11T07:25:02.322Z</time></trkpt><trkpt lat="40.12429" lon="15.2236893"><ele>356.0</ele><time>2026-04-11T07:25:03.327Z</time></trkpt><trkpt lat="40.1242173" lon="15.2238137"><ele>356.0</ele><time>2026-04-11T07:25:04.318Z</time></trkpt><trkpt lat="40.1241497" lon="15.2239483"><ele>357.6</ele><time>2026-04-11T07:25:05.317Z</time></trkpt><trkpt lat="40.1240838" lon="15.2240886"><ele>359.20000000000005</ele><time>2026-04-11T07:25:06.321Z</time></trkpt><trkpt lat="40.1240245" lon="15.2242125"><ele>360.79999999999995</ele><time>2026-04-11T07:25:07.319Z</time></trkpt><trkpt lat="40.1239743" lon="15.2243132"><ele>362.4</ele><time>2026-04-11T07:25:08.33Z</time></trkpt><trkpt lat="40.1239419" lon="15.2244044"><ele>364.0</ele><time>2026-04-11T07:25:09.325Z</time></trkpt><trkpt lat="40.1239287" lon="15.2245075"><ele>364.0</ele><time>2026-04-11T07:25:10.322Z</time></trkpt><trkpt lat="40.1239492" lon="15.2246074"><ele>364.0</ele><time>2026-04-11T07:25:11.329Z</time></trkpt><trkpt lat="40.1239987" lon="15.2247028"><ele>364.0</ele><time>2026-04-11T07:25:12.327Z</time></trkpt><trkpt lat="40.1240752" lon="15.2248046"><ele>364.0</ele><time>2026-04-11T07:25:13.32Z</time></trkpt><trkpt lat="40.1241646" lon="15.2249178"><ele>364.0</ele><time>2026-04-11T07:25:14.325Z</time></trkpt><trkpt lat="40.1242721" lon="15.225051"><ele>358.3333333333333</ele><time>2026-04-11T07:25:15.336Z</time></trkpt><trkpt lat="40.1243958" lon="15.2251857"><ele>352.6666666666667</ele><time>2026-04-11T07:25:16.321Z</time></trkpt><trkpt lat="40.1245264" lon="15.2253154"><ele>347.0</ele><time>2026-04-11T07:25:17.329Z</time></trkpt><trkpt lat="40.1246464" lon="15.2254239"><ele>347.0</ele><time>2026-04-11T07:25:18.318Z</time></trkpt><trkpt lat="40.12475" lon="15.2255387"><ele>347.0</ele><time>2026-04-11T07:25:19.323Z</time></trkpt><trkpt lat="40.1248351" lon="15.2256527"><ele>347.0</ele><time>2026-04-11T07:25:20.331Z</time></trkpt><trkpt lat="40.1248973" lon="15.2257528"><ele>347.0</ele><time>2026-04-11T07:25:21.322Z</time></trkpt><trkpt lat="40.1249452" lon="15.2258312"><ele>347.0</ele><time>2026-04-11T07:25:22.326Z</time></trkpt><trkpt lat="40.1249866" lon="15.2259717"><ele>346.40000000000003</ele><time>2026-04-11T07:25:24.322Z</time></trkpt><trkpt lat="40.1249778" lon="15.2260727"><ele>345.8</ele><time>2026-04-11T07:25:25.323Z</time></trkpt><trkpt lat="40.1249424" lon="15.2261838"><ele>345.2</ele><time>2026-04-11T07:25:26.315Z</time></trkpt><trkpt lat="40.1248783" lon="15.2263238"><ele>344.6</ele><time>2026-04-11T07:25:27.326Z</time></trkpt><trkpt lat="40.1248077" lon="15.2264445"><ele>344.0</ele><time>2026-04-11T07:25:28.316Z</time></trkpt><trkpt lat="40.124732" lon="15.2265135"><ele>344.0</ele><time>2026-04-11T07:25:29.336Z</time></trkpt><trkpt lat="40.1246446" lon="15.2265596"><ele>344.0</ele><time>2026-04-11T07:25:30.327Z</time></trkpt><trkpt lat="40.1245262" lon="15.2265796"><ele>344.0</ele><time>2026-04-11T07:25:31.331Z</time></trkpt><trkpt lat="40.1243858" lon="15.2265951"><ele>344.0</ele><time>2026-04-11T07:25:32.324Z</time></trkpt><trkpt lat="40.1242428" lon="15.2266485"><ele>344.0</ele><time>2026-04-11T07:25:33.34Z</time></trkpt><trkpt lat="40.1241092" lon="15.2267389"><ele>344.0</ele><time>2026-04-11T07:25:34.322Z</time></trkpt><trkpt lat="40.1239797" lon="15.2268284"><ele>344.0</ele><time>2026-04-11T07:25:35.31Z</time></trkpt><trkpt lat="40.1238683" lon="15.2268801"><ele>344.0</ele><time>2026-04-11T07:25:36.319Z</time></trkpt><trkpt lat="40.1237726" lon="15.2269141"><ele>343.2</ele><time>2026-04-11T07:25:37.316Z</time></trkpt><trkpt lat="40.123684" lon="15.2269732"><ele>342.4</ele><time>2026-04-11T07:25:38.322Z</time></trkpt><trkpt lat="40.1236207" lon="15.2270576"><ele>341.6</ele><time>2026-04-11T07:25:39.321Z</time></trkpt><trkpt lat="40.1235603" lon="15.2271803"><ele>340.8</ele><time>2026-04-11T07:25:40.337Z</time></trkpt><trkpt lat="40.1235191" lon="15.2273085"><ele>340.0</ele><time>2026-04-11T07:25:41.324Z</time></trkpt><trkpt lat="40.1234869" lon="15.2274263"><ele>340.0</ele><time>2026-04-11T07:25:42.317Z</time></trkpt><trkpt lat="40.1234382" lon="15.2274968"><ele>340.0</ele><time>2026-04-11T07:25:43.328Z</time></trkpt><trkpt lat="40.1233445" lon="15.227559"><ele>340.0</ele><time>2026-04-11T07:25:44.317Z</time></trkpt><trkpt lat="40.1232349" lon="15.2276105"><ele>340.0</ele><time>2026-04-11T07:25:45.321Z</time></trkpt><trkpt lat="40.1231217" lon="15.2276524"><ele>340.0</ele><time>2026-04-11T07:25:46.324Z</time></trkpt><trkpt lat="40.1230058" lon="15.2276833"><ele>344.16666666666663</ele><time>2026-04-11T07:25:47.333Z</time></trkpt><trkpt lat="40.1229132" lon="15.227703"><ele>348.3333333333333</ele><time>2026-04-11T07:25:48.32Z</time></trkpt><trkpt lat="40.12284" lon="15.2277218"><ele>352.5</ele><time>2026-04-11T07:25:49.333Z</time></trkpt><trkpt lat="40.1227695" lon="15.2278428"><ele>356.6666666666667</ele><time>2026-04-11T07:25:51.328Z</time></trkpt><trkpt lat="40.1227787" lon="15.2279525"><ele>360.83333333333337</ele><time>2026-04-11T07:25:52.335Z</time></trkpt><trkpt lat="40.1228225" lon="15.2280384"><ele>365.0</ele><time>2026-04-11T07:25:53.335Z</time></trkpt><trkpt lat="40.1229061" lon="15.2281088"><ele>365.75</ele><time>2026-04-11T07:25:54.343Z</time></trkpt><trkpt lat="40.1230101" lon="15.2281797"><ele>366.5</ele><time>2026-04-11T07:25:55.324Z</time></trkpt><trkpt lat="40.1231302" lon="15.2282636"><ele>367.25</ele><time>2026-04-11T07:25:56.324Z</time></trkpt><trkpt lat="40.1232574" lon="15.228361"><ele>368.0</ele><time>2026-04-11T07:25:57.328Z</time></trkpt><trkpt lat="40.1233856" lon="15.2284777"><ele>362.25</ele><time>2026-04-11T07:25:58.318Z</time></trkpt><trkpt lat="40.1235115" lon="15.2285855"><ele>356.5</ele><time>2026-04-11T07:25:59.325Z</time></trkpt><trkpt lat="40.1236262" lon="15.2286736"><ele>350.75</ele><time>2026-04-11T07:26:00.316Z</time></trkpt><trkpt lat="40.1237351" lon="15.2287433"><ele>345.0</ele><time>2026-04-11T07:26:01.322Z</time></trkpt><trkpt lat="40.1238313" lon="15.2287759"><ele>345.0</ele><time>2026-04-11T07:26:02.323Z</time></trkpt><trkpt lat="40.1239298" lon="15.2287798"><ele>345.0</ele><time>2026-04-11T07:26:03.319Z</time></trkpt><trkpt lat="40.1240485" lon="15.2287573"><ele>345.0</ele><time>2026-04-11T07:26:04.324Z</time></trkpt><trkpt lat="40.1241732" lon="15.2287501"><ele>345.0</ele><time>2026-04-11T07:26:05.319Z</time></trkpt><trkpt lat="40.1242972" lon="15.2287491"><ele>341.6666666666667</ele><time>2026-04-11T07:26:06.325Z</time></trkpt><trkpt lat="40.1244037" lon="15.2287503"><ele>338.3333333333333</ele><time>2026-04-11T07:26:07.33Z</time></trkpt><trkpt lat="40.124492" lon="15.2287451"><ele>335.0</ele><time>2026-04-11T07:26:08.332Z</time></trkpt><trkpt lat="40.1245707" lon="15.2287562"><ele>331.66666666666663</ele><time>2026-04-11T07:26:09.325Z</time></trkpt><trkpt lat="40.1246442" lon="15.2287889"><ele>328.3333333333333</ele><time>2026-04-11T07:26:10.333Z</time></trkpt><trkpt lat="40.1247143" lon="15.2288423"><ele>325.0</ele><time>2026-04-11T07:26:11.329Z</time></trkpt><trkpt lat="40.1247643" lon="15.2289334"><ele>334.5</ele><time>2026-04-11T07:26:12.331Z</time></trkpt><trkpt lat="40.1248131" lon="15.2290535"><ele>344.0</ele><time>2026-04-11T07:26:13.324Z</time></trkpt><trkpt lat="40.1248448" lon="15.2291866"><ele>353.5</ele><time>2026-04-11T07:26:14.338Z</time></trkpt><trkpt lat="40.1248702" lon="15.2293425"><ele>363.0</ele><time>2026-04-11T07:26:15.327Z</time></trkpt><trkpt lat="40.1248703" lon="15.2295194"><ele>363.0</ele><time>2026-04-11T07:26:16.337Z</time></trkpt><trkpt lat="40.124846" lon="15.2297105"><ele>363.0</ele><time>2026-04-11T07:26:17.322Z</time></trkpt><trkpt lat="40.1248189" lon="15.2298894"><ele>363.0</ele><time>2026-04-11T07:26:18.334Z</time></trkpt><trkpt lat="40.1248128" lon="15.2300503"><ele>363.0</ele><time>2026-04-11T07:26:19.325Z</time></trkpt><trkpt lat="40.1248354" lon="15.2302038"><ele>366.6666666666667</ele><time>2026-04-11T07:26:20.33Z</time></trkpt><trkpt lat="40.124881" lon="15.2303377"><ele>370.33333333333337</ele><time>2026-04-11T07:26:21.321Z</time></trkpt><trkpt lat="40.1249152" lon="15.2304384"><ele>374.0</ele><time>2026-04-11T07:26:22.324Z</time></trkpt><trkpt lat="40.1249271" lon="15.2305261"><ele>377.6666666666667</ele><time>2026-04-11T07:26:23.324Z</time></trkpt><trkpt lat="40.1249098" lon="15.2306145"><ele>381.33333333333337</ele><time>2026-04-11T07:26:24.334Z</time></trkpt><trkpt lat="40.1248534" lon="15.2307233"><ele>385.0</ele><time>2026-04-11T07:26:25.325Z</time></trkpt><trkpt lat="40.1247646" lon="15.2308331"><ele>385.0</ele><time>2026-04-11T07:26:26.333Z</time></trkpt><trkpt lat="40.1246797" lon="15.2309329"><ele>385.0</ele><time>2026-04-11T07:26:27.33Z</time></trkpt><trkpt lat="40.1246226" lon="15.2310376"><ele>385.0</ele><time>2026-04-11T07:26:28.329Z</time></trkpt><trkpt lat="40.1245949" lon="15.2311395"><ele>385.0</ele><time>2026-04-11T07:26:29.33Z</time></trkpt><trkpt lat="40.1245871" lon="15.2312494"><ele>385.0</ele><time>2026-04-11T07:26:30.334Z</time></trkpt><trkpt lat="40.1246019" lon="15.2313693"><ele>383.00000000000006</ele><time>2026-04-11T07:26:31.333Z</time></trkpt><trkpt lat="40.1246372" lon="15.231495"><ele>381.0</ele><time>2026-04-11T07:26:32.326Z</time></trkpt><trkpt lat="40.1246717" lon="15.2316192"><ele>379.0</ele><time>2026-04-11T07:26:33.325Z</time></trkpt><trkpt lat="40.1246972" lon="15.231727"><ele>377.0</ele><time>2026-04-11T07:26:34.338Z</time></trkpt><trkpt lat="40.1246995" lon="15.2318282"><ele>375.0</ele><time>2026-04-11T07:26:35.328Z</time></trkpt><trkpt lat="40.1246825" lon="15.2319201"><ele>373.0</ele><time>2026-04-11T07:26:36.337Z</time></trkpt><trkpt lat="40.1246495" lon="15.2320004"><ele>373.0</ele><time>2026-04-11T07:26:37.315Z</time></trkpt><trkpt lat="40.1245797" lon="15.2320839"><ele>373.0</ele><time>2026-04-11T07:26:38.336Z</time></trkpt><trkpt lat="40.1244782" lon="15.2321656"><ele>373.0</ele><time>2026-04-11T07:26:39.328Z</time></trkpt><trkpt lat="40.1243552" lon="15.2322706"><ele>373.0</ele><time>2026-04-11T07:26:40.331Z</time></trkpt><trkpt lat="40.1242248" lon="15.2323824"><ele>369.59999999999997</ele><time>2026-04-11T07:26:41.318Z</time></trkpt><trkpt lat="40.1240985" lon="15.2324886"><ele>366.2</ele><time>2026-04-11T07:26:42.325Z</time></trkpt><trkpt lat="40.1239979" lon="15.2325812"><ele>362.8</ele><time>2026-04-11T07:26:43.32Z</time></trkpt><trkpt lat="40.1239217" lon="15.2326617"><ele>359.4</ele><time>2026-04-11T07:26:44.328Z</time></trkpt><trkpt lat="40.1238739" lon="15.2327235"><ele>356.0</ele><time>2026-04-11T07:26:45.323Z</time></trkpt><trkpt lat="40.1238447" lon="15.2327979"><ele>356.33333333333337</ele><time>2026-04-11T07:26:46.321Z</time></trkpt><trkpt lat="40.1238351" lon="15.2328805"><ele>356.6666666666667</ele><time>2026-04-11T07:26:47.325Z</time></trkpt><trkpt lat="40.1238556" lon="15.2329738"><ele>357.0</ele><time>2026-04-11T07:26:48.32Z</time></trkpt><trkpt lat="40.1239098" lon="15.233058"><ele>357.3333333333333</ele><time>2026-04-11T07:26:49.324Z</time></trkpt><trkpt lat="40.1239936" lon="15.2331328"><ele>357.66666666666663</ele><time>2026-04-11T07:26:50.325Z</time></trkpt><trkpt lat="40.1240961" lon="15.2331983"><ele>358.0</ele><time>2026-04-11T07:26:51.331Z</time></trkpt><trkpt lat="40.1242097" lon="15.2332541"><ele>358.0</ele><time>2026-04-11T07:26:52.319Z</time></trkpt><trkpt lat="40.1243186" lon="15.2333132"><ele>358.0</ele><time>2026-04-11T07:26:53.329Z</time></trkpt><trkpt lat="40.1244009" lon="15.2333871"><ele>358.0</ele><time>2026-04-11T07:26:54.321Z</time></trkpt><trkpt lat="40.1244781" lon="15.2334738"><ele>358.0</ele><time>2026-04-11T07:26:55.335Z</time></trkpt><trkpt lat="40.1245396" lon="15.2335596"><ele>358.0</ele><time>2026-04-11T07:26:56.322Z</time></trkpt><trkpt lat="40.1245799" lon="15.2336448"><ele>358.0</ele><time>2026-04-11T07:26:57.327Z</time></trkpt><trkpt lat="40.1245923" lon="15.2337287"><ele>358.0</ele><time>2026-04-11T07:26:58.326Z</time></trkpt><trkpt lat="40.1245795" lon="15.2338241"><ele>358.0</ele><time>2026-04-11T07:26:59.322Z</time></trkpt><trkpt lat="40.1245272" lon="15.2339426"><ele>358.0</ele><time>2026-04-11T07:27:00.331Z</time></trkpt><trkpt lat="40.1244567" lon="15.2340559"><ele>358.0</ele><time>2026-04-11T07:27:01.336Z</time></trkpt><trkpt lat="40.1243682" lon="15.2341435"><ele>358.66666666666663</ele><time>2026-04-11T07:27:02.329Z</time></trkpt><trkpt lat="40.1242681" lon="15.2342011"><ele>359.3333333333333</ele><time>2026-04-11T07:27:03.337Z</time></trkpt><trkpt lat="40.1242011" lon="15.2342504"><ele>360.0</ele><time>2026-04-11T07:27:04.326Z</time></trkpt><trkpt lat="40.124149" lon="15.2343186"><ele>360.6666666666667</ele><time>2026-04-11T07:27:05.316Z</time></trkpt><trkpt lat="40.1241156" lon="15.2344198"><ele>361.33333333333337</ele><time>2026-04-11T07:27:06.326Z</time></trkpt><trkpt lat="40.1241161" lon="15.234548"><ele>362.0</ele><time>2026-04-11T07:27:07.32Z</time></trkpt><trkpt lat="40.1241568" lon="15.2347001"><ele>360.8</ele><time>2026-04-11T07:27:08.318Z</time></trkpt><trkpt lat="40.1242115" lon="15.2348482"><ele>359.6</ele><time>2026-04-11T07:27:09.322Z</time></trkpt><trkpt lat="40.1242673" lon="15.2349733"><ele>358.40000000000003</ele><time>2026-04-11T07:27:10.318Z</time></trkpt><trkpt lat="40.1243014" lon="15.2350635"><ele>357.20000000000005</ele><time>2026-04-11T07:27:11.315Z</time></trkpt><trkpt lat="40.1243066" lon="15.2351516"><ele>356.0</ele><time>2026-04-11T07:27:12.325Z</time></trkpt><trkpt lat="40.1243025" lon="15.2352419"><ele>356.0</ele><time>2026-04-11T07:27:13.332Z</time></trkpt><trkpt lat="40.1242541" lon="15.2353388"><ele>356.0</ele><time>2026-04-11T07:27:14.325Z</time></trkpt><trkpt lat="40.1241697" lon="15.2354299"><ele>356.0</ele><time>2026-04-11T07:27:15.315Z</time></trkpt><trkpt lat="40.1240681" lon="15.2355244"><ele>356.0</ele><time>2026-04-11T07:27:16.335Z</time></trkpt><trkpt lat="40.1239369" lon="15.2356161"><ele>360.33333333333337</ele><time>2026-04-11T07:27:17.339Z</time></trkpt><trkpt lat="40.1237966" lon="15.2357288"><ele>364.6666666666667</ele><time>2026-04-11T07:27:18.324Z</time></trkpt><trkpt lat="40.1236675" lon="15.235839"><ele>369.0</ele><time>2026-04-11T07:27:19.322Z</time></trkpt><trkpt lat="40.123555" lon="15.2359444"><ele>369.0</ele><time>2026-04-11T07:27:20.323Z</time></trkpt><trkpt lat="40.1234535" lon="15.2360405"><ele>369.0</ele><time>2026-04-11T07:27:21.315Z</time></trkpt><trkpt lat="40.1233701" lon="15.2361451"><ele>369.0</ele><time>2026-04-11T07:27:22.298Z</time></trkpt><trkpt lat="40.1232949" lon="15.236242"><ele>369.0</ele><time>2026-04-11T07:27:23.333Z</time></trkpt><trkpt lat="40.1232204" lon="15.2363186"><ele>369.0</ele><time>2026-04-11T07:27:24.322Z</time></trkpt><trkpt lat="40.1231566" lon="15.2363722"><ele>372.4</ele><time>2026-04-11T07:27:25.305Z</time></trkpt><trkpt lat="40.1230806" lon="15.2364078"><ele>375.79999999999995</ele><time>2026-04-11T07:27:26.338Z</time></trkpt><trkpt lat="40.1229855" lon="15.2364334"><ele>379.20000000000005</ele><time>2026-04-11T07:27:27.326Z</time></trkpt><trkpt lat="40.1228995" lon="15.2364518"><ele>382.6</ele><time>2026-04-11T07:27:28.331Z</time></trkpt><trkpt lat="40.1228305" lon="15.2364845"><ele>386.0</ele><time>2026-04-11T07:27:29.336Z</time></trkpt><trkpt lat="40.1227858" lon="15.2366282"><ele>386.0</ele><time>2026-04-11T07:27:31.323Z</time></trkpt><trkpt lat="40.1228111" lon="15.2367616"><ele>386.0</ele><time>2026-04-11T07:27:32.321Z</time></trkpt><trkpt lat="40.1228413" lon="15.2368699"><ele>386.0</ele><time>2026-04-11T07:27:33.329Z</time></trkpt><trkpt lat="40.1228616" lon="15.236992"><ele>386.0</ele><time>2026-04-11T07:27:34.339Z</time></trkpt><trkpt lat="40.122871" lon="15.2371147"><ele>386.0</ele><time>2026-04-11T07:27:35.325Z</time></trkpt><trkpt lat="40.1228682" lon="15.2372266"><ele>387.8</ele><time>2026-04-11T07:27:36.328Z</time></trkpt><trkpt lat="40.1228774" lon="15.2373688"><ele>389.6</ele><time>2026-04-11T07:27:38.323Z</time></trkpt><trkpt lat="40.1229726" lon="15.2374611"><ele>391.4</ele><time>2026-04-11T07:27:40.318Z</time></trkpt><trkpt lat="40.1230499" lon="15.2374816"><ele>393.2</ele><time>2026-04-11T07:27:41.326Z</time></trkpt><trkpt lat="40.1231507" lon="15.237481"><ele>395.0</ele><time>2026-04-11T07:27:42.327Z</time></trkpt><trkpt lat="40.1232714" lon="15.2374837"><ele>386.0</ele><time>2026-04-11T07:27:43.324Z</time></trkpt><trkpt lat="40.1233936" lon="15.2374884"><ele>377.0</ele><time>2026-04-11T07:27:44.317Z</time></trkpt><trkpt lat="40.1235029" lon="15.2374993"><ele>368.0</ele><time>2026-04-11T07:27:45.315Z</time></trkpt><trkpt lat="40.1236079" lon="15.2375236"><ele>359.0</ele><time>2026-04-11T07:27:46.326Z</time></trkpt><trkpt lat="40.1237127" lon="15.2375747"><ele>359.0</ele><time>2026-04-11T07:27:47.335Z</time></trkpt><trkpt lat="40.1238351" lon="15.2376694"><ele>359.0</ele><time>2026-04-11T07:27:48.317Z</time></trkpt><trkpt lat="40.123966" lon="15.2377662"><ele>359.0</ele><time>2026-04-11T07:27:49.319Z</time></trkpt><trkpt lat="40.1241141" lon="15.2378547"><ele>353.33333333333337</ele><time>2026-04-11T07:27:50.324Z</time></trkpt><trkpt lat="40.1242717" lon="15.2379307"><ele>347.6666666666667</ele><time>2026-04-11T07:27:51.327Z</time></trkpt><trkpt lat="40.1244229" lon="15.2379923"><ele>342.0</ele><time>2026-04-11T07:27:52.326Z</time></trkpt><trkpt lat="40.1245506" lon="15.238059"><ele>342.0</ele><time>2026-04-11T07:27:53.313Z</time></trkpt><trkpt lat="40.1246688" lon="15.2381098"><ele>342.0</ele><time>2026-04-11T07:27:54.323Z</time></trkpt><trkpt lat="40.1247724" lon="15.2381648"><ele>342.0</ele><time>2026-04-11T07:27:55.328Z</time></trkpt><trkpt lat="40.1248684" lon="15.2382337"><ele>342.0</ele><time>2026-04-11T07:27:56.324Z</time></trkpt><trkpt lat="40.1249592" lon="15.2383495"><ele>346.5</ele><time>2026-04-11T07:27:57.331Z</time></trkpt><trkpt lat="40.1250554" lon="15.238482"><ele>351.0</ele><time>2026-04-11T07:27:58.326Z</time></trkpt><trkpt lat="40.1251468" lon="15.2386053"><ele>355.5</ele><time>2026-04-11T07:27:59.321Z</time></trkpt><trkpt lat="40.1252139" lon="15.238727"><ele>360.0</ele><time>2026-04-11T07:28:00.326Z</time></trkpt><trkpt lat="40.1252536" lon="15.2388561"><ele>366.5</ele><time>2026-04-11T07:28:01.328Z</time></trkpt><trkpt lat="40.1252755" lon="15.2389968"><ele>373.0</ele><time>2026-04-11T07:28:02.327Z</time></trkpt><trkpt lat="40.1252818" lon="15.239163"><ele>379.5</ele><time>2026-04-11T07:28:03.324Z</time></trkpt><trkpt lat="40.1252805" lon="15.2393532"><ele>386.0</ele><time>2026-04-11T07:28:04.324Z</time></trkpt><trkpt lat="40.1252743" lon="15.2395419"><ele>386.0</ele><time>2026-04-11T07:28:05.327Z</time></trkpt><trkpt lat="40.1252715" lon="15.2397194"><ele>386.0</ele><time>2026-04-11T07:28:06.321Z</time></trkpt><trkpt lat="40.1252793" lon="15.2398867"><ele>386.0</ele><time>2026-04-11T07:28:07.321Z</time></trkpt><trkpt lat="40.1253095" lon="15.2400436"><ele>386.0</ele><time>2026-04-11T07:28:08.321Z</time></trkpt><trkpt lat="40.1253481" lon="15.240182"><ele>386.16666666666663</ele><time>2026-04-11T07:28:09.316Z</time></trkpt><trkpt lat="40.1253829" lon="15.2402995"><ele>386.3333333333333</ele><time>2026-04-11T07:28:10.326Z</time></trkpt><trkpt lat="40.1254048" lon="15.2404077"><ele>386.5</ele><time>2026-04-11T07:28:11.335Z</time></trkpt><trkpt lat="40.1254191" lon="15.2405204"><ele>386.66666666666663</ele><time>2026-04-11T07:28:12.335Z</time></trkpt><trkpt lat="40.1254272" lon="15.240632"><ele>386.8333333333333</ele><time>2026-04-11T07:28:13.328Z</time></trkpt><trkpt lat="40.1253941" lon="15.24073"><ele>387.0</ele><time>2026-04-11T07:28:14.328Z</time></trkpt><trkpt lat="40.1253139" lon="15.2408253"><ele>384.75</ele><time>2026-04-11T07:28:15.321Z</time></trkpt><trkpt lat="40.1252194" lon="15.2409206"><ele>382.5</ele><time>2026-04-11T07:28:16.312Z</time></trkpt><trkpt lat="40.1251243" lon="15.2410399"><ele>380.25</ele><time>2026-04-11T07:28:17.321Z</time></trkpt><trkpt lat="40.1250202" lon="15.2411716"><ele>378.0</ele><time>2026-04-11T07:28:18.332Z</time></trkpt><trkpt lat="40.124935" lon="15.2413136"><ele>388.25</ele><time>2026-04-11T07:28:19.315Z</time></trkpt><trkpt lat="40.1248728" lon="15.2414533"><ele>398.5</ele><time>2026-04-11T07:28:20.328Z</time></trkpt><trkpt lat="40.124822" lon="15.2416041"><ele>408.75</ele><time>2026-04-11T07:28:21.318Z</time></trkpt><trkpt lat="40.1247933" lon="15.2417668"><ele>419.0</ele><time>2026-04-11T07:28:22.324Z</time></trkpt><trkpt lat="40.1247616" lon="15.2419198"><ele>418.99999999999994</ele><time>2026-04-11T07:28:23.327Z</time></trkpt><trkpt lat="40.1247244" lon="15.2420453"><ele>419.0</ele><time>2026-04-11T07:28:24.323Z</time></trkpt><trkpt lat="40.124669" lon="15.2421359"><ele>419.0</ele><time>2026-04-11T07:28:25.324Z</time></trkpt><trkpt lat="40.124601" lon="15.2422209"><ele>419.0</ele><time>2026-04-11T07:28:26.324Z</time></trkpt><trkpt lat="40.1245322" lon="15.2422918"><ele>418.99999999999994</ele><time>2026-04-11T07:28:27.321Z</time></trkpt><trkpt lat="40.1244856" lon="15.242361"><ele>419.0</ele><time>2026-04-11T07:28:28.338Z</time></trkpt><trkpt lat="40.1244612" lon="15.2424428"><ele>416.4</ele><time>2026-04-11T07:28:29.334Z</time></trkpt><trkpt lat="40.1244515" lon="15.2425355"><ele>413.79999999999995</ele><time>2026-04-11T07:28:30.308Z</time></trkpt><trkpt lat="40.1244802" lon="15.2426446"><ele>411.20000000000005</ele><time>2026-04-11T07:28:31.312Z</time></trkpt><trkpt lat="40.1245347" lon="15.2427635"><ele>408.6</ele><time>2026-04-11T07:28:32.319Z</time></trkpt><trkpt lat="40.1246023" lon="15.2428961"><ele>406.0</ele><time>2026-04-11T07:28:33.321Z</time></trkpt><trkpt lat="40.1246695" lon="15.2430293"><ele>408.25</ele><time>2026-04-11T07:28:34.327Z</time></trkpt><trkpt lat="40.1247337" lon="15.2431612"><ele>410.5</ele><time>2026-04-11T07:28:35.324Z</time></trkpt><trkpt lat="40.1247961" lon="15.2432873"><ele>412.75</ele><time>2026-04-11T07:28:36.326Z</time></trkpt><trkpt lat="40.1248562" lon="15.2434235"><ele>415.0</ele><time>2026-04-11T07:28:37.318Z</time></trkpt><trkpt lat="40.1249046" lon="15.243553"><ele>414.50000000000006</ele><time>2026-04-11T07:28:38.324Z</time></trkpt><trkpt lat="40.1249369" lon="15.2436708"><ele>414.0</ele><time>2026-04-11T07:28:39.327Z</time></trkpt><trkpt lat="40.1249516" lon="15.2437784"><ele>413.5</ele><time>2026-04-11T07:28:40.321Z</time></trkpt><trkpt lat="40.1249449" lon="15.2438868"><ele>413.0</ele><time>2026-04-11T07:28:41.326Z</time></trkpt><trkpt lat="40.124926" lon="15.2440005"><ele>412.50000000000006</ele><time>2026-04-11T07:28:42.327Z</time></trkpt><trkpt lat="40.1248847" lon="15.2441102"><ele>412.0</ele><time>2026-04-11T07:28:43.326Z</time></trkpt><trkpt lat="40.1248281" lon="15.2442303"><ele>412.0</ele><time>2026-04-11T07:28:44.32Z</time></trkpt><trkpt lat="40.1247702" lon="15.2443722"><ele>412.0</ele><time>2026-04-11T07:28:45.326Z</time></trkpt><trkpt lat="40.1247352" lon="15.2445414"><ele>412.0</ele><time>2026-04-11T07:28:46.327Z</time></trkpt><trkpt lat="40.1247336" lon="15.2447353"><ele>412.0</ele><time>2026-04-11T07:28:47.319Z</time></trkpt><trkpt lat="40.1247348" lon="15.2448932"><ele>409.33333333333337</ele><time>2026-04-11T07:28:48.335Z</time></trkpt><trkpt lat="40.1247336" lon="15.2450279"><ele>406.6666666666667</ele><time>2026-04-11T07:28:49.334Z</time></trkpt><trkpt lat="40.1247127" lon="15.2451483"><ele>404.0</ele><time>2026-04-11T07:28:50.332Z</time></trkpt><trkpt lat="40.1246703" lon="15.2452478"><ele>401.33333333333337</ele><time>2026-04-11T07:28:51.338Z</time></trkpt><trkpt lat="40.1246467" lon="15.2453353"><ele>398.6666666666667</ele><time>2026-04-11T07:28:52.347Z</time></trkpt><trkpt lat="40.1246654" lon="15.2454417"><ele>396.0</ele><time>2026-04-11T07:28:53.319Z</time></trkpt><trkpt lat="40.1246981" lon="15.2455352"><ele>396.0</ele><time>2026-04-11T07:28:54.33Z</time></trkpt><trkpt lat="40.124778" lon="15.2456162"><ele>396.0</ele><time>2026-04-11T07:28:55.321Z</time></trkpt><trkpt lat="40.1248958" lon="15.24568"><ele>396.0</ele><time>2026-04-11T07:28:56.333Z</time></trkpt><trkpt lat="40.125035" lon="15.2457323"><ele>396.0</ele><time>2026-04-11T07:28:57.328Z</time></trkpt><trkpt lat="40.1251587" lon="15.245744"><ele>391.20000000000005</ele><time>2026-04-11T07:28:58.332Z</time></trkpt><trkpt lat="40.125273" lon="15.2457242"><ele>386.40000000000003</ele><time>2026-04-11T07:28:59.323Z</time></trkpt><trkpt lat="40.1253738" lon="15.2457123"><ele>381.6</ele><time>2026-04-11T07:29:00.321Z</time></trkpt><trkpt lat="40.1254656" lon="15.2457414"><ele>376.8</ele><time>2026-04-11T07:29:01.319Z</time></trkpt><trkpt lat="40.1255615" lon="15.2458026"><ele>372.0</ele><time>2026-04-11T07:29:02.316Z</time></trkpt><trkpt lat="40.1256359" lon="15.2458715"><ele>372.0</ele><time>2026-04-11T07:29:03.335Z</time></trkpt><trkpt lat="40.1257002" lon="15.245935"><ele>372.0</ele><time>2026-04-11T07:29:04.306Z</time></trkpt><trkpt lat="40.1257492" lon="15.2460125"><ele>372.0</ele><time>2026-04-11T07:29:05.338Z</time></trkpt><trkpt lat="40.1257664" lon="15.2461028"><ele>372.0</ele><time>2026-04-11T07:29:06.332Z</time></trkpt><trkpt lat="40.1257581" lon="15.2462361"><ele>372.0</ele><time>2026-04-11T07:29:07.324Z</time></trkpt><trkpt lat="40.1257277" lon="15.2463855"><ele>372.0</ele><time>2026-04-11T07:29:08.331Z</time></trkpt><trkpt lat="40.1256946" lon="15.2465683"><ele>369.20000000000005</ele><time>2026-04-11T07:29:09.324Z</time></trkpt><trkpt lat="40.125672" lon="15.2467486"><ele>366.4</ele><time>2026-04-11T07:29:10.319Z</time></trkpt><trkpt lat="40.1256831" lon="15.2468853"><ele>363.6</ele><time>2026-04-11T07:29:11.332Z</time></trkpt><trkpt lat="40.1256989" lon="15.2470103"><ele>360.79999999999995</ele><time>2026-04-11T07:29:12.318Z</time></trkpt><trkpt lat="40.1257343" lon="15.2470989"><ele>358.0</ele><time>2026-04-11T07:29:13.33Z</time></trkpt><trkpt lat="40.1257917" lon="15.247157"><ele>358.0</ele><time>2026-04-11T07:29:14.317Z</time></trkpt><trkpt lat="40.1258591" lon="15.2471912"><ele>358.0</ele><time>2026-04-11T07:29:15.315Z</time></trkpt><trkpt lat="40.1259296" lon="15.2471922"><ele>358.0</ele><time>2026-04-11T07:29:16.328Z</time></trkpt><trkpt lat="40.1259999" lon="15.2471689"><ele>358.0</ele><time>2026-04-11T07:29:17.322Z</time></trkpt><trkpt lat="40.1260559" lon="15.2471104"><ele>358.0</ele><time>2026-04-11T07:29:18.332Z</time></trkpt><trkpt lat="40.1261032" lon="15.2470022"><ele>358.0</ele><time>2026-04-11T07:29:19.322Z</time></trkpt><trkpt lat="40.1261393" lon="15.2468522"><ele>358.0</ele><time>2026-04-11T07:29:20.302Z</time></trkpt><trkpt lat="40.1261792" lon="15.2466783"><ele>358.0</ele><time>2026-04-11T07:29:21.32Z</time></trkpt><trkpt lat="40.1262356" lon="15.2464901"><ele>358.0</ele><time>2026-04-11T07:29:22.331Z</time></trkpt><trkpt lat="40.1262953" lon="15.2463021"><ele>358.0</ele><time>2026-04-11T07:29:23.321Z</time></trkpt><trkpt lat="40.1263546" lon="15.2461411"><ele>356.66666666666663</ele><time>2026-04-11T07:29:24.343Z</time></trkpt><trkpt lat="40.126403" lon="15.2460151"><ele>355.3333333333333</ele><time>2026-04-11T07:29:25.321Z</time></trkpt><trkpt lat="40.1264492" lon="15.2459086"><ele>354.0</ele><time>2026-04-11T07:29:26.32Z</time></trkpt><trkpt lat="40.1265022" lon="15.2458068"><ele>352.6666666666667</ele><time>2026-04-11T07:29:27.326Z</time></trkpt><trkpt lat="40.1265563" lon="15.245722"><ele>351.33333333333337</ele><time>2026-04-11T07:29:28.323Z</time></trkpt><trkpt lat="40.1265955" lon="15.2456472"><ele>350.0</ele><time>2026-04-11T07:29:29.327Z</time></trkpt><trkpt lat="40.1266048" lon="15.2455616"><ele>349.0</ele><time>2026-04-11T07:29:30.325Z</time></trkpt><trkpt lat="40.1265881" lon="15.2454579"><ele>348.0</ele><time>2026-04-11T07:29:31.322Z</time></trkpt><trkpt lat="40.1265408" lon="15.2453573"><ele>347.0</ele><time>2026-04-11T07:29:32.32Z</time></trkpt><trkpt lat="40.1264748" lon="15.2452662"><ele>346.0</ele><time>2026-04-11T07:29:33.33Z</time></trkpt><trkpt lat="40.1263942" lon="15.2451686"><ele>345.0</ele><time>2026-04-11T07:29:34.338Z</time></trkpt><trkpt lat="40.1263201" lon="15.2450658"><ele>345.0</ele><time>2026-04-11T07:29:35.332Z</time></trkpt><trkpt lat="40.1262543" lon="15.2449653"><ele>345.0</ele><time>2026-04-11T07:29:36.34Z</time></trkpt><trkpt lat="40.1262209" lon="15.2448794"><ele>345.0</ele><time>2026-04-11T07:29:37.341Z</time></trkpt><trkpt lat="40.126232" lon="15.2447497"><ele>345.0</ele><time>2026-04-11T07:29:39.337Z</time></trkpt><trkpt lat="40.1262918" lon="15.2446053"><ele>345.0</ele><time>2026-04-11T07:29:41.335Z</time></trkpt><trkpt lat="40.1263454" lon="15.2445256"><ele>341.75</ele><time>2026-04-11T07:29:42.331Z</time></trkpt><trkpt lat="40.1264221" lon="15.2444357"><ele>338.5</ele><time>2026-04-11T07:29:43.326Z</time></trkpt><trkpt lat="40.1264956" lon="15.244328"><ele>335.25</ele><time>2026-04-11T07:29:44.336Z</time></trkpt><trkpt lat="40.1265555" lon="15.2441986"><ele>332.0</ele><time>2026-04-11T07:29:45.323Z</time></trkpt><trkpt lat="40.1265945" lon="15.2440401"><ele>336.40000000000003</ele><time>2026-04-11T07:29:46.316Z</time></trkpt><trkpt lat="40.1266348" lon="15.2438826"><ele>340.8</ele><time>2026-04-11T07:29:47.344Z</time></trkpt><trkpt lat="40.1266846" lon="15.2437521"><ele>345.2</ele><time>2026-04-11T07:29:48.331Z</time></trkpt><trkpt lat="40.1267492" lon="15.2436516"><ele>349.6</ele><time>2026-04-11T07:29:49.323Z</time></trkpt><trkpt lat="40.1268308" lon="15.2435795"><ele>354.0</ele><time>2026-04-11T07:29:50.323Z</time></trkpt><trkpt lat="40.1269186" lon="15.243508"><ele>354.0</ele><time>2026-04-11T07:29:51.32Z</time></trkpt><trkpt lat="40.1269788" lon="15.2434467"><ele>354.0</ele><time>2026-04-11T07:29:52.323Z</time></trkpt><trkpt lat="40.1269865" lon="15.2432614"><ele>354.0</ele><time>2026-04-11T07:29:54.323Z</time></trkpt><trkpt lat="40.1269536" lon="15.2431375"><ele>354.0</ele><time>2026-04-11T07:29:55.323Z</time></trkpt><trkpt lat="40.1269066" lon="15.2429913"><ele>354.0</ele><time>2026-04-11T07:29:56.329Z</time></trkpt><trkpt lat="40.1268617" lon="15.242857"><ele>352.5</ele><time>2026-04-11T07:29:57.33Z</time></trkpt><trkpt lat="40.1268296" lon="15.2427431"><ele>351.0</ele><time>2026-04-11T07:29:58.325Z</time></trkpt><trkpt lat="40.1268177" lon="15.242655"><ele>349.5</ele><time>2026-04-11T07:29:59.313Z</time></trkpt><trkpt lat="40.1268362" lon="15.2425664"><ele>348.0</ele><time>2026-04-11T07:30:00.327Z</time></trkpt><trkpt lat="40.1269026" lon="15.2425073"><ele>346.5</ele><time>2026-04-11T07:30:01.325Z</time></trkpt><trkpt lat="40.1269865" lon="15.2424684"><ele>345.0</ele><time>2026-04-11T07:30:02.337Z</time></trkpt><trkpt lat="40.1271054" lon="15.242427"><ele>345.0</ele><time>2026-04-11T07:30:03.324Z</time></trkpt><trkpt lat="40.1272274" lon="15.2423647"><ele>345.0</ele><time>2026-04-11T07:30:04.305Z</time></trkpt><trkpt lat="40.1273222" lon="15.2422901"><ele>345.0</ele><time>2026-04-11T07:30:05.329Z</time></trkpt><trkpt lat="40.1273991" lon="15.2421896"><ele>345.0</ele><time>2026-04-11T07:30:06.32Z</time></trkpt><trkpt lat="40.1274538" lon="15.242067"><ele>349.8</ele><time>2026-04-11T07:30:07.329Z</time></trkpt><trkpt lat="40.1274787" lon="15.2419168"><ele>354.6</ele><time>2026-04-11T07:30:08.325Z</time></trkpt><trkpt lat="40.1274973" lon="15.2417686"><ele>359.4</ele><time>2026-04-11T07:30:09.323Z</time></trkpt><trkpt lat="40.1275304" lon="15.2416493"><ele>364.2</ele><time>2026-04-11T07:30:10.326Z</time></trkpt><trkpt lat="40.1275813" lon="15.2415614"><ele>369.0</ele><time>2026-04-11T07:30:11.325Z</time></trkpt><trkpt lat="40.1276253" lon="15.2414874"><ele>366.2</ele><time>2026-04-11T07:30:12.32Z</time></trkpt><trkpt lat="40.1277089" lon="15.2414183"><ele>363.4</ele><time>2026-04-11T07:30:14.327Z</time></trkpt><trkpt lat="40.1278147" lon="15.2414138"><ele>360.6</ele><time>2026-04-11T07:30:16.329Z</time></trkpt><trkpt lat="40.1278963" lon="15.2414186"><ele>357.8</ele><time>2026-04-11T07:30:17.314Z</time></trkpt><trkpt lat="40.127987" lon="15.2414077"><ele>355.0</ele><time>2026-04-11T07:30:18.329Z</time></trkpt><trkpt lat="40.128087" lon="15.2413842"><ele>355.0</ele><time>2026-04-11T07:30:19.31Z</time></trkpt><trkpt lat="40.1281953" lon="15.2413421"><ele>355.0</ele><time>2026-04-11T07:30:20.324Z</time></trkpt><trkpt lat="40.1283024" lon="15.2412762"><ele>355.0</ele><time>2026-04-11T07:30:21.328Z</time></trkpt><trkpt lat="40.12838" lon="15.2412432"><ele>355.0</ele><time>2026-04-11T07:30:22.33Z</time></trkpt><trkpt lat="40.1284439" lon="15.2412268"><ele>355.0</ele><time>2026-04-11T07:30:23.327Z</time></trkpt><trkpt lat="40.1285226" lon="15.2412242"><ele>358.25</ele><time>2026-04-11T07:30:24.324Z</time></trkpt><trkpt lat="40.1286294" lon="15.2412487"><ele>361.5</ele><time>2026-04-11T07:30:25.331Z</time></trkpt><trkpt lat="40.1287501" lon="15.2412861"><ele>364.75</ele><time>2026-04-11T07:30:26.323Z</time></trkpt><trkpt lat="40.1288698" lon="15.2413327"><ele>368.0</ele><time>2026-04-11T07:30:27.326Z</time></trkpt><trkpt lat="40.1289913" lon="15.2413905"><ele>367.75</ele><time>2026-04-11T07:30:28.328Z</time></trkpt><trkpt lat="40.1290981" lon="15.2414548"><ele>367.5</ele><time>2026-04-11T07:30:29.32Z</time></trkpt><trkpt lat="40.1291959" lon="15.2415244"><ele>367.25</ele><time>2026-04-11T07:30:30.328Z</time></trkpt><trkpt lat="40.1292838" lon="15.2416101"><ele>367.0</ele><time>2026-04-11T07:30:31.331Z</time></trkpt><trkpt lat="40.1293753" lon="15.241701"><ele>373.8</ele><time>2026-04-11T07:30:32.317Z</time></trkpt><trkpt lat="40.12946" lon="15.24179"><ele>380.6</ele><time>2026-04-11T07:30:33.321Z</time></trkpt><trkpt lat="40.1295436" lon="15.2418584"><ele>387.40000000000003</ele><time>2026-04-11T07:30:34.326Z</time></trkpt><trkpt lat="40.1296406" lon="15.2418959"><ele>394.20000000000005</ele><time>2026-04-11T07:30:35.319Z</time></trkpt><trkpt lat="40.1297537" lon="15.2419038"><ele>401.0</ele><time>2026-04-11T07:30:36.336Z</time></trkpt><trkpt lat="40.1298579" lon="15.2419121"><ele>398.8333333333333</ele><time>2026-04-11T07:30:37.312Z</time></trkpt><trkpt lat="40.1299369" lon="15.2419208"><ele>396.66666666666663</ele><time>2026-04-11T07:30:38.331Z</time></trkpt><trkpt lat="40.1300101" lon="15.2419641"><ele>394.5</ele><time>2026-04-11T07:30:39.325Z</time></trkpt><trkpt lat="40.1300863" lon="15.2420194"><ele>392.33333333333337</ele><time>2026-04-11T07:30:40.331Z</time></trkpt><trkpt lat="40.1301537" lon="15.2421061"><ele>390.1666666666667</ele><time>2026-04-11T07:30:41.32Z</time></trkpt><trkpt lat="40.1302115" lon="15.24221"><ele>388.0</ele><time>2026-04-11T07:30:42.319Z</time></trkpt><trkpt lat="40.1302612" lon="15.242338"><ele>396.25</ele><time>2026-04-11T07:30:43.325Z</time></trkpt><trkpt lat="40.1303067" lon="15.2424846"><ele>404.5</ele><time>2026-04-11T07:30:44.323Z</time></trkpt><trkpt lat="40.1303607" lon="15.2426432"><ele>412.75</ele><time>2026-04-11T07:30:45.317Z</time></trkpt><trkpt lat="40.1304292" lon="15.242798"><ele>421.0</ele><time>2026-04-11T07:30:46.331Z</time></trkpt><trkpt lat="40.1305136" lon="15.2429524"><ele>421.0</ele><time>2026-04-11T07:30:47.341Z</time></trkpt><trkpt lat="40.1305906" lon="15.2430859"><ele>421.0</ele><time>2026-04-11T07:30:48.329Z</time></trkpt><trkpt lat="40.1306532" lon="15.2431892"><ele>421.0</ele><time>2026-04-11T07:30:49.332Z</time></trkpt><trkpt lat="40.1307088" lon="15.2432646"><ele>421.0</ele><time>2026-04-11T07:30:50.322Z</time></trkpt><trkpt lat="40.1307748" lon="15.243349"><ele>421.0</ele><time>2026-04-11T07:30:52.313Z</time></trkpt><trkpt lat="40.1308241" lon="15.243248"><ele>419.8</ele><time>2026-04-11T07:30:54.327Z</time></trkpt><trkpt lat="40.1308342" lon="15.2431522"><ele>418.6</ele><time>2026-04-11T07:30:55.32Z</time></trkpt><trkpt lat="40.1308426" lon="15.2430309"><ele>417.4</ele><time>2026-04-11T07:30:56.327Z</time></trkpt><trkpt lat="40.1308551" lon="15.2428751"><ele>416.2</ele><time>2026-04-11T07:30:57.327Z</time></trkpt><trkpt lat="40.1308742" lon="15.2426926"><ele>415.0</ele><time>2026-04-11T07:30:58.33Z</time></trkpt><trkpt lat="40.1309" lon="15.2425306"><ele>415.0</ele><time>2026-04-11T07:30:59.326Z</time></trkpt><trkpt lat="40.1309569" lon="15.2423891"><ele>415.0</ele><time>2026-04-11T07:31:00.328Z</time></trkpt><trkpt lat="40.1310216" lon="15.2422507"><ele>415.0</ele><time>2026-04-11T07:31:01.332Z</time></trkpt><trkpt lat="40.1310886" lon="15.2421144"><ele>415.0</ele><time>2026-04-11T07:31:02.337Z</time></trkpt><trkpt lat="40.1311534" lon="15.2419578"><ele>411.8</ele><time>2026-04-11T07:31:03.316Z</time></trkpt><trkpt lat="40.131207" lon="15.2418037"><ele>408.6</ele><time>2026-04-11T07:31:04.332Z</time></trkpt><trkpt lat="40.1312474" lon="15.2416728"><ele>405.4</ele><time>2026-04-11T07:31:05.323Z</time></trkpt><trkpt lat="40.1312811" lon="15.2415678"><ele>402.2</ele><time>2026-04-11T07:31:06.321Z</time></trkpt><trkpt lat="40.1313103" lon="15.2414844"><ele>399.0</ele><time>2026-04-11T07:31:07.334Z</time></trkpt><trkpt lat="40.1314038" lon="15.2413592"><ele>399.5</ele><time>2026-04-11T07:31:09.339Z</time></trkpt><trkpt lat="40.131484" lon="15.2413074"><ele>400.0</ele><time>2026-04-11T07:31:10.325Z</time></trkpt><trkpt lat="40.1315907" lon="15.2412702"><ele>400.5</ele><time>2026-04-11T07:31:11.329Z</time></trkpt><trkpt lat="40.1317051" lon="15.2412292"><ele>401.0</ele><time>2026-04-11T07:31:12.31Z</time></trkpt><trkpt lat="40.1318408" lon="15.2412131"><ele>401.0</ele><time>2026-04-11T07:31:13.328Z</time></trkpt><trkpt lat="40.1319831" lon="15.2412141"><ele>401.0</ele><time>2026-04-11T07:31:14.315Z</time></trkpt><trkpt lat="40.1320988" lon="15.2412075"><ele>401.0</ele><time>2026-04-11T07:31:15.32Z</time></trkpt><trkpt lat="40.1321835" lon="15.2412067"><ele>401.0</ele><time>2026-04-11T07:31:16.33Z</time></trkpt><trkpt lat="40.1322561" lon="15.2412022"><ele>401.0</ele><time>2026-04-11T07:31:17.325Z</time></trkpt><trkpt lat="40.132343" lon="15.2411919"><ele>403.5</ele><time>2026-04-11T07:31:18.324Z</time></trkpt><trkpt lat="40.1324503" lon="15.2411822"><ele>406.0</ele><time>2026-04-11T07:31:19.324Z</time></trkpt><trkpt lat="40.1325671" lon="15.2411725"><ele>408.5</ele><time>2026-04-11T07:31:20.315Z</time></trkpt><trkpt lat="40.1326968" lon="15.2411648"><ele>411.0</ele><time>2026-04-11T07:31:21.313Z</time></trkpt><trkpt lat="40.132833" lon="15.2411675"><ele>411.0</ele><time>2026-04-11T07:31:22.326Z</time></trkpt><trkpt lat="40.1329672" lon="15.2411793"><ele>411.0</ele><time>2026-04-11T07:31:23.321Z</time></trkpt><trkpt lat="40.1330829" lon="15.2411974"><ele>411.0</ele><time>2026-04-11T07:31:24.318Z</time></trkpt><trkpt lat="40.1332066" lon="15.2412266"><ele>411.0</ele><time>2026-04-11T07:31:25.325Z</time></trkpt><trkpt lat="40.1333405" lon="15.2412678"><ele>412.33333333333337</ele><time>2026-04-11T07:31:26.342Z</time></trkpt><trkpt lat="40.1334823" lon="15.2413205"><ele>413.6666666666667</ele><time>2026-04-11T07:31:27.322Z</time></trkpt><trkpt lat="40.1336419" lon="15.24139"><ele>415.0</ele><time>2026-04-11T07:31:28.342Z</time></trkpt><trkpt lat="40.133805" lon="15.2414649"><ele>419.2</ele><time>2026-04-11T07:31:29.32Z</time></trkpt><trkpt lat="40.1339465" lon="15.2415341"><ele>423.4</ele><time>2026-04-11T07:31:30.334Z</time></trkpt><trkpt lat="40.1340449" lon="15.2415882"><ele>427.6</ele><time>2026-04-11T07:31:31.322Z</time></trkpt><trkpt lat="40.1341239" lon="15.241645"><ele>431.8</ele><time>2026-04-11T07:31:32.331Z</time></trkpt><trkpt lat="40.1341873" lon="15.2417185"><ele>436.0</ele><time>2026-04-11T07:31:33.323Z</time></trkpt><trkpt lat="40.1342402" lon="15.2417966"><ele>436.00000000000006</ele><time>2026-04-11T07:31:34.32Z</time></trkpt><trkpt lat="40.1342915" lon="15.2418464"><ele>436.0</ele><time>2026-04-11T07:31:35.327Z</time></trkpt><trkpt lat="40.1343525" lon="15.2418825"><ele>436.0</ele><time>2026-04-11T07:31:36.319Z</time></trkpt><trkpt lat="40.1344411" lon="15.2418728"><ele>436.0</ele><time>2026-04-11T07:31:37.312Z</time></trkpt><trkpt lat="40.1345396" lon="15.2418413"><ele>436.00000000000006</ele><time>2026-04-11T07:31:38.324Z</time></trkpt><trkpt lat="40.1346101" lon="15.2418187"><ele>436.0</ele><time>2026-04-11T07:31:39.324Z</time></trkpt><trkpt lat="40.134677" lon="15.2418346"><ele>436.0</ele><time>2026-04-11T07:31:40.336Z</time></trkpt><trkpt lat="40.1347466" lon="15.2418681"><ele>436.0</ele><time>2026-04-11T07:31:41.325Z</time></trkpt><trkpt lat="40.134841" lon="15.2419133"><ele>436.0</ele><time>2026-04-11T07:31:42.333Z</time></trkpt><trkpt lat="40.134951" lon="15.2419773"><ele>436.0</ele><time>2026-04-11T07:31:43.301Z</time></trkpt><trkpt lat="40.1350607" lon="15.2420473"><ele>436.0</ele><time>2026-04-11T07:31:44.322Z</time></trkpt><trkpt lat="40.1351708" lon="15.2420991"><ele>434.6666666666667</ele><time>2026-04-11T07:31:45.301Z</time></trkpt><trkpt lat="40.1352437" lon="15.2421505"><ele>433.33333333333337</ele><time>2026-04-11T07:31:46.319Z</time></trkpt><trkpt lat="40.1352992" lon="15.2422038"><ele>432.0</ele><time>2026-04-11T07:31:47.315Z</time></trkpt><trkpt lat="40.1353462" lon="15.2422713"><ele>430.66666666666663</ele><time>2026-04-11T07:31:48.313Z</time></trkpt><trkpt lat="40.1353986" lon="15.2423646"><ele>429.3333333333333</ele><time>2026-04-11T07:31:49.3Z</time></trkpt><trkpt lat="40.135459" lon="15.2424906"><ele>428.0</ele><time>2026-04-11T07:31:50.332Z</time></trkpt><trkpt lat="40.1355151" lon="15.2426253"><ele>432.79999999999995</ele><time>2026-04-11T07:31:51.301Z</time></trkpt><trkpt lat="40.1355669" lon="15.242729"><ele>437.59999999999997</ele><time>2026-04-11T07:31:52.298Z</time></trkpt><trkpt lat="40.1356576" lon="15.2428128"><ele>442.40000000000003</ele><time>2026-04-11T07:31:54.302Z</time></trkpt><trkpt lat="40.1357652" lon="15.2427975"><ele>447.20000000000005</ele><time>2026-04-11T07:31:56.309Z</time></trkpt><trkpt lat="40.1358214" lon="15.2427405"><ele>452.0</ele><time>2026-04-11T07:31:57.309Z</time></trkpt><trkpt lat="40.1358985" lon="15.2426492"><ele>452.0</ele><time>2026-04-11T07:31:58.316Z</time></trkpt><trkpt lat="40.1359813" lon="15.2425678"><ele>452.00000000000006</ele><time>2026-04-11T07:31:59.299Z</time></trkpt><trkpt lat="40.136054" lon="15.2425198"><ele>452.00000000000006</ele><time>2026-04-11T07:32:00.309Z</time></trkpt><trkpt lat="40.1361789" lon="15.2424698"><ele>452.0</ele><time>2026-04-11T07:32:02.311Z</time></trkpt><trkpt lat="40.1362542" lon="15.2424459"><ele>452.0</ele><time>2026-04-11T07:32:03.311Z</time></trkpt><trkpt lat="40.1363414" lon="15.2424378"><ele>452.0</ele><time>2026-04-11T07:32:04.318Z</time></trkpt><trkpt lat="40.136441" lon="15.2424177"><ele>452.00000000000006</ele><time>2026-04-11T07:32:05.311Z</time></trkpt><trkpt lat="40.1365516" lon="15.2424084"><ele>452.00000000000006</ele><time>2026-04-11T07:32:06.305Z</time></trkpt><trkpt lat="40.1366634" lon="15.2424052"><ele>452.0</ele><time>2026-04-11T07:32:07.311Z</time></trkpt><trkpt lat="40.1367666" lon="15.2424157"><ele>452.0</ele><time>2026-04-11T07:32:08.328Z</time></trkpt><trkpt lat="40.1368647" lon="15.242437"><ele>454.0</ele><time>2026-04-11T07:32:09.312Z</time></trkpt><trkpt lat="40.1369568" lon="15.2424656"><ele>456.00000000000006</ele><time>2026-04-11T07:32:10.307Z</time></trkpt><trkpt lat="40.1370541" lon="15.2425235"><ele>458.00000000000006</ele><time>2026-04-11T07:32:11.312Z</time></trkpt><trkpt lat="40.1371603" lon="15.2425902"><ele>460.0</ele><time>2026-04-11T07:32:12.319Z</time></trkpt><trkpt lat="40.1372518" lon="15.2426762"><ele>462.0</ele><time>2026-04-11T07:32:13.303Z</time></trkpt><trkpt lat="40.1373384" lon="15.2427606"><ele>462.25</ele><time>2026-04-11T07:32:14.311Z</time></trkpt><trkpt lat="40.1374268" lon="15.2428544"><ele>462.5</ele><time>2026-04-11T07:32:15.321Z</time></trkpt><trkpt lat="40.1375128" lon="15.2429613"><ele>462.75</ele><time>2026-04-11T07:32:16.331Z</time></trkpt><trkpt lat="40.1376033" lon="15.2430721"><ele>463.0</ele><time>2026-04-11T07:32:17.313Z</time></trkpt><trkpt lat="40.1376977" lon="15.2431881"><ele>468.4</ele><time>2026-04-11T07:32:18.3Z</time></trkpt><trkpt lat="40.1377826" lon="15.2432941"><ele>473.79999999999995</ele><time>2026-04-11T07:32:19.307Z</time></trkpt><trkpt lat="40.1378573" lon="15.2433725"><ele>479.2</ele><time>2026-04-11T07:32:20.314Z</time></trkpt><trkpt lat="40.1379204" lon="15.2434294"><ele>484.6</ele><time>2026-04-11T07:32:21.309Z</time></trkpt><trkpt lat="40.1380289" lon="15.2434732"><ele>490.0</ele><time>2026-04-11T07:32:23.319Z</time></trkpt><trkpt lat="40.1381323" lon="15.2434243"><ele>490.0</ele><time>2026-04-11T07:32:25.305Z</time></trkpt><trkpt lat="40.1381474" lon="15.2432363"><ele>490.0</ele><time>2026-04-11T07:32:27.321Z</time></trkpt><trkpt lat="40.138124" lon="15.2430981"><ele>490.0</ele><time>2026-04-11T07:32:28.317Z</time></trkpt><trkpt lat="40.1380878" lon="15.2429414"><ele>490.0</ele><time>2026-04-11T07:32:29.324Z</time></trkpt><trkpt lat="40.1380512" lon="15.2427588"><ele>483.75</ele><time>2026-04-11T07:32:30.319Z</time></trkpt><trkpt lat="40.1380115" lon="15.2425788"><ele>477.5</ele><time>2026-04-11T07:32:31.323Z</time></trkpt><trkpt lat="40.137974" lon="15.2424018"><ele>471.25</ele><time>2026-04-11T07:32:32.315Z</time></trkpt><trkpt lat="40.1379304" lon="15.2422591"><ele>465.0</ele><time>2026-04-11T07:32:33.333Z</time></trkpt><trkpt lat="40.1378756" lon="15.2421399"><ele>465.0</ele><time>2026-04-11T07:32:34.328Z</time></trkpt><trkpt lat="40.137835" lon="15.2420425"><ele>465.0</ele><time>2026-04-11T07:32:35.323Z</time></trkpt><trkpt lat="40.1378043" lon="15.2419613"><ele>465.0</ele><time>2026-04-11T07:32:36.323Z</time></trkpt><trkpt lat="40.1378248" lon="15.2418608"><ele>465.0</ele><time>2026-04-11T07:32:38.329Z</time></trkpt><trkpt lat="40.1378971" lon="15.2418695"><ele>465.0</ele><time>2026-04-11T07:32:41.316Z</time></trkpt><trkpt lat="40.1379588" lon="15.2419841"><ele>465.0</ele><time>2026-04-11T07:32:43.317Z</time></trkpt><trkpt lat="40.1380109" lon="15.2420791"><ele>465.0</ele><time>2026-04-11T07:32:44.312Z</time></trkpt><trkpt lat="40.138067" lon="15.2421918"><ele>465.0</ele><time>2026-04-11T07:32:45.323Z</time></trkpt><trkpt lat="40.1381213" lon="15.2423301"><ele>465.0</ele><time>2026-04-11T07:32:46.329Z</time></trkpt><trkpt lat="40.1381705" lon="15.242462"><ele>465.0</ele><time>2026-04-11T07:32:47.333Z</time></trkpt><trkpt lat="40.138221" lon="15.2425773"><ele>465.0</ele><time>2026-04-11T07:32:48.338Z</time></trkpt><trkpt lat="40.1382891" lon="15.2426684"><ele>469.8</ele><time>2026-04-11T07:32:49.339Z</time></trkpt><trkpt lat="40.1383718" lon="15.2427596"><ele>474.6</ele><time>2026-04-11T07:32:50.335Z</time></trkpt><trkpt lat="40.1384599" lon="15.2428633"><ele>479.4</ele><time>2026-04-11T07:32:51.324Z</time></trkpt><trkpt lat="40.1385273" lon="15.2429678"><ele>484.2</ele><time>2026-04-11T07:32:52.319Z</time></trkpt><trkpt lat="40.1385556" lon="15.2430854"><ele>489.0</ele><time>2026-04-11T07:32:53.331Z</time></trkpt><trkpt lat="40.1385707" lon="15.2432108"><ele>489.0</ele><time>2026-04-11T07:32:54.314Z</time></trkpt><trkpt lat="40.138627" lon="15.2433299"><ele>489.0</ele><time>2026-04-11T07:32:55.32Z</time></trkpt><trkpt lat="40.1387225" lon="15.2434403"><ele>489.0</ele><time>2026-04-11T07:32:56.327Z</time></trkpt><trkpt lat="40.1388293" lon="15.2435593"><ele>489.0</ele><time>2026-04-11T07:32:57.324Z</time></trkpt><trkpt lat="40.1389317" lon="15.2436693"><ele>489.0</ele><time>2026-04-11T07:32:58.325Z</time></trkpt><trkpt lat="40.1390379" lon="15.2437779"><ele>489.0</ele><time>2026-04-11T07:32:59.315Z</time></trkpt><trkpt lat="40.1391503" lon="15.2438756"><ele>489.0</ele><time>2026-04-11T07:33:00.337Z</time></trkpt><trkpt lat="40.1392559" lon="15.2439635"><ele>489.0</ele><time>2026-04-11T07:33:01.333Z</time></trkpt><trkpt lat="40.1393469" lon="15.2440357"><ele>492.0</ele><time>2026-04-11T07:33:02.318Z</time></trkpt><trkpt lat="40.1394224" lon="15.2441022"><ele>495.0</ele><time>2026-04-11T07:33:03.327Z</time></trkpt><trkpt lat="40.1394888" lon="15.2441888"><ele>498.0</ele><time>2026-04-11T07:33:04.336Z</time></trkpt><trkpt lat="40.1395571" lon="15.2443082"><ele>501.0</ele><time>2026-04-11T07:33:05.323Z</time></trkpt><trkpt lat="40.1396231" lon="15.2444205"><ele>504.0</ele><time>2026-04-11T07:33:06.334Z</time></trkpt><trkpt lat="40.1397026" lon="15.2445129"><ele>504.0</ele><time>2026-04-11T07:33:07.328Z</time></trkpt><trkpt lat="40.1397868" lon="15.2445904"><ele>504.0</ele><time>2026-04-11T07:33:08.332Z</time></trkpt><trkpt lat="40.1398428" lon="15.244658"><ele>504.0</ele><time>2026-04-11T07:33:09.333Z</time></trkpt><trkpt lat="40.1398744" lon="15.2448081"><ele>504.0</ele><time>2026-04-11T07:33:11.315Z</time></trkpt><trkpt lat="40.1398597" lon="15.2448955"><ele>504.0</ele><time>2026-04-11T07:33:12.33Z</time></trkpt><trkpt lat="40.1397752" lon="15.2449771"><ele>506.4</ele><time>2026-04-11T07:33:14.328Z</time></trkpt><trkpt lat="40.1396962" lon="15.2450084"><ele>508.79999999999995</ele><time>2026-04-11T07:33:15.32Z</time></trkpt><trkpt lat="40.1396065" lon="15.2450426"><ele>511.20000000000005</ele><time>2026-04-11T07:33:16.315Z</time></trkpt><trkpt lat="40.1395043" lon="15.2450642"><ele>513.6</ele><time>2026-04-11T07:33:17.314Z</time></trkpt><trkpt lat="40.1394031" lon="15.2450992"><ele>516.0</ele><time>2026-04-11T07:33:18.327Z</time></trkpt><trkpt lat="40.1393304" lon="15.2451549"><ele>516.0</ele><time>2026-04-11T07:33:19.319Z</time></trkpt><trkpt lat="40.1392581" lon="15.2452346"><ele>516.0</ele><time>2026-04-11T07:33:20.326Z</time></trkpt><trkpt lat="40.1391902" lon="15.2453442"><ele>516.0</ele><time>2026-04-11T07:33:21.33Z</time></trkpt><trkpt lat="40.1391204" lon="15.2454674"><ele>516.0</ele><time>2026-04-11T07:33:22.338Z</time></trkpt><trkpt lat="40.1390715" lon="15.2455471"><ele>516.0</ele><time>2026-04-11T07:33:23.306Z</time></trkpt><trkpt lat="40.1390611" lon="15.2456476"><ele>516.0</ele><time>2026-04-11T07:33:25.329Z</time></trkpt><trkpt lat="40.1391417" lon="15.2456863"><ele>516.0</ele><time>2026-04-11T07:33:27.319Z</time></trkpt><trkpt lat="40.1392469" lon="15.2456097"><ele>516.0</ele><time>2026-04-11T07:33:29.318Z</time></trkpt><trkpt lat="40.1392949" lon="15.2455248"><ele>516.0</ele><time>2026-04-11T07:33:30.335Z</time></trkpt><trkpt lat="40.1393638" lon="15.2454394"><ele>516.0</ele><time>2026-04-11T07:33:31.323Z</time></trkpt><trkpt lat="40.1394362" lon="15.2453813"><ele>516.0</ele><time>2026-04-11T07:33:32.323Z</time></trkpt><trkpt lat="40.1395233" lon="15.2453581"><ele>516.0</ele><time>2026-04-11T07:33:33.316Z</time></trkpt><trkpt lat="40.1396257" lon="15.2453643"><ele>516.0</ele><time>2026-04-11T07:33:34.315Z</time></trkpt><trkpt lat="40.1397483" lon="15.2453889"><ele>516.0</ele><time>2026-04-11T07:33:35.322Z</time></trkpt><trkpt lat="40.1398751" lon="15.2454376"><ele>516.0</ele><time>2026-04-11T07:33:36.321Z</time></trkpt><trkpt lat="40.1400022" lon="15.2454945"><ele>519.25</ele><time>2026-04-11T07:33:37.315Z</time></trkpt><trkpt lat="40.1401432" lon="15.2455532"><ele>522.5</ele><time>2026-04-11T07:33:38.33Z</time></trkpt><trkpt lat="40.1402673" lon="15.2455986"><ele>525.75</ele><time>2026-04-11T07:33:39.316Z</time></trkpt><trkpt lat="40.1403599" lon="15.2456444"><ele>529.0</ele><time>2026-04-11T07:33:40.313Z</time></trkpt><trkpt lat="40.1404319" lon="15.2457127"><ele>536.0</ele><time>2026-04-11T07:33:41.329Z</time></trkpt><trkpt lat="40.140488" lon="15.245792"><ele>543.0</ele><time>2026-04-11T07:33:42.321Z</time></trkpt><trkpt lat="40.1405408" lon="15.2458801"><ele>550.0</ele><time>2026-04-11T07:33:43.314Z</time></trkpt><trkpt lat="40.1405878" lon="15.2459897"><ele>557.0</ele><time>2026-04-11T07:33:44.33Z</time></trkpt><trkpt lat="40.1406237" lon="15.2461218"><ele>564.0</ele><time>2026-04-11T07:33:45.328Z</time></trkpt><trkpt lat="40.1406608" lon="15.2462941"><ele>565.5</ele><time>2026-04-11T07:33:46.323Z</time></trkpt><trkpt lat="40.1407032" lon="15.2464686"><ele>567.0</ele><time>2026-04-11T07:33:47.316Z</time></trkpt><trkpt lat="40.140746" lon="15.2466372"><ele>568.5</ele><time>2026-04-11T07:33:48.32Z</time></trkpt><trkpt lat="40.1407964" lon="15.246765"><ele>570.0</ele><time>2026-04-11T07:33:49.321Z</time></trkpt><trkpt lat="40.1408544" lon="15.2468646"><ele>570.0</ele><time>2026-04-11T07:33:50.338Z</time></trkpt><trkpt lat="40.1409063" lon="15.2469275"><ele>570.0</ele><time>2026-04-11T07:33:51.317Z</time></trkpt><trkpt lat="40.1410149" lon="15.2469487"><ele>570.0</ele><time>2026-04-11T07:33:53.331Z</time></trkpt><trkpt lat="40.1410679" lon="15.2468998"><ele>570.0</ele><time>2026-04-11T07:33:54.315Z</time></trkpt><trkpt lat="40.1411097" lon="15.2468112"><ele>570.0</ele><time>2026-04-11T07:33:55.321Z</time></trkpt><trkpt lat="40.1411443" lon="15.2466983"><ele>570.0</ele><time>2026-04-11T07:33:56.314Z</time></trkpt><trkpt lat="40.141187" lon="15.2465692"><ele>566.4</ele><time>2026-04-11T07:33:57.314Z</time></trkpt><trkpt lat="40.1412433" lon="15.2464048"><ele>562.8</ele><time>2026-04-11T07:33:58.326Z</time></trkpt><trkpt lat="40.1413083" lon="15.2462682"><ele>559.2</ele><time>2026-04-11T07:33:59.321Z</time></trkpt><trkpt lat="40.1413669" lon="15.246158"><ele>555.6</ele><time>2026-04-11T07:34:00.332Z</time></trkpt><trkpt lat="40.1414272" lon="15.2460895"><ele>552.0</ele><time>2026-04-11T07:34:01.322Z</time></trkpt><trkpt lat="40.1414982" lon="15.2460437"><ele>557.5</ele><time>2026-04-11T07:34:02.319Z</time></trkpt><trkpt lat="40.1415791" lon="15.2460039"><ele>563.0</ele><time>2026-04-11T07:34:03.32Z</time></trkpt><trkpt lat="40.1416853" lon="15.2459699"><ele>568.5</ele><time>2026-04-11T07:34:04.326Z</time></trkpt><trkpt lat="40.1418185" lon="15.2459041"><ele>574.0</ele><time>2026-04-11T07:34:05.343Z</time></trkpt><trkpt lat="40.1419614" lon="15.2458372"><ele>574.0</ele><time>2026-04-11T07:34:06.323Z</time></trkpt><trkpt lat="40.1420832" lon="15.2457768"><ele>574.0</ele><time>2026-04-11T07:34:07.317Z</time></trkpt><trkpt lat="40.1421689" lon="15.2457181"><ele>574.0</ele><time>2026-04-11T07:34:08.315Z</time></trkpt><trkpt lat="40.1422401" lon="15.2456928"><ele>574.0</ele><time>2026-04-11T07:34:09.32Z</time></trkpt><trkpt lat="40.1423022" lon="15.2456728"><ele>574.0</ele><time>2026-04-11T07:34:10.333Z</time></trkpt><trkpt lat="40.14239" lon="15.2456814"><ele>576.4</ele><time>2026-04-11T07:34:12.337Z</time></trkpt><trkpt lat="40.1424621" lon="15.2457946"><ele>578.8</ele><time>2026-04-11T07:34:14.345Z</time></trkpt><trkpt lat="40.1424901" lon="15.2458756"><ele>581.2</ele><time>2026-04-11T07:34:15.332Z</time></trkpt><trkpt lat="40.142495" lon="15.245989"><ele>583.6</ele><time>2026-04-11T07:34:16.331Z</time></trkpt><trkpt lat="40.1424779" lon="15.2461132"><ele>586.0</ele><time>2026-04-11T07:34:17.326Z</time></trkpt><trkpt lat="40.1424493" lon="15.2462502"><ele>586.0</ele><time>2026-04-11T07:34:18.33Z</time></trkpt><trkpt lat="40.1424203" lon="15.2463781"><ele>586.0</ele><time>2026-04-11T07:34:19.329Z</time></trkpt><trkpt lat="40.1424069" lon="15.2465057"><ele>586.0</ele><time>2026-04-11T07:34:20.329Z</time></trkpt><trkpt lat="40.1424349" lon="15.2466412"><ele>586.0</ele><time>2026-04-11T07:34:21.324Z</time></trkpt><trkpt lat="40.1424832" lon="15.2467651"><ele>586.0</ele><time>2026-04-11T07:34:22.312Z</time></trkpt><trkpt lat="40.1425518" lon="15.246893"><ele>587.6</ele><time>2026-04-11T07:34:23.315Z</time></trkpt><trkpt lat="40.1426462" lon="15.2470277"><ele>589.2</ele><time>2026-04-11T07:34:24.323Z</time></trkpt><trkpt lat="40.1427232" lon="15.2471499"><ele>590.8</ele><time>2026-04-11T07:34:25.337Z</time></trkpt><trkpt lat="40.142778" lon="15.2472533"><ele>592.4</ele><time>2026-04-11T07:34:26.32Z</time></trkpt><trkpt lat="40.1428095" lon="15.2473362"><ele>594.0</ele><time>2026-04-11T07:34:27.321Z</time></trkpt><trkpt lat="40.1428001" lon="15.2474879"><ele>595.6</ele><time>2026-04-11T07:34:29.33Z</time></trkpt><trkpt lat="40.1427578" lon="15.2475722"><ele>597.2</ele><time>2026-04-11T07:34:30.336Z</time></trkpt><trkpt lat="40.1427024" lon="15.2476615"><ele>598.8000000000001</ele><time>2026-04-11T07:34:31.329Z</time></trkpt><trkpt lat="40.1426442" lon="15.247772"><ele>600.4</ele><time>2026-04-11T07:34:32.336Z</time></trkpt><trkpt lat="40.1426127" lon="15.2479083"><ele>602.0</ele><time>2026-04-11T07:34:33.314Z</time></trkpt><trkpt lat="40.1425925" lon="15.2480529"><ele>600.6</ele><time>2026-04-11T07:34:34.332Z</time></trkpt><trkpt lat="40.1425705" lon="15.2481868"><ele>599.2</ele><time>2026-04-11T07:34:35.324Z</time></trkpt><trkpt lat="40.1425272" lon="15.2483158"><ele>597.8</ele><time>2026-04-11T07:34:36.334Z</time></trkpt><trkpt lat="40.1424812" lon="15.2484261"><ele>596.4</ele><time>2026-04-11T07:34:37.322Z</time></trkpt><trkpt lat="40.1424439" lon="15.2485421"><ele>595.0</ele><time>2026-04-11T07:34:38.313Z</time></trkpt><trkpt lat="40.1424333" lon="15.2486784"><ele>595.0</ele><time>2026-04-11T07:34:39.324Z</time></trkpt><trkpt lat="40.1424393" lon="15.2488313"><ele>595.0</ele><time>2026-04-11T07:34:40.327Z</time></trkpt><trkpt lat="40.1424911" lon="15.2489897"><ele>595.0</ele><time>2026-04-11T07:34:41.328Z</time></trkpt><trkpt lat="40.1425517" lon="15.2491557"><ele>595.0</ele><time>2026-04-11T07:34:42.33Z</time></trkpt><trkpt lat="40.1426329" lon="15.2493049"><ele>595.4</ele><time>2026-04-11T07:34:43.322Z</time></trkpt><trkpt lat="40.1427132" lon="15.24943"><ele>595.8</ele><time>2026-04-11T07:34:44.321Z</time></trkpt><trkpt lat="40.1427826" lon="15.2495311"><ele>596.2</ele><time>2026-04-11T07:34:45.32Z</time></trkpt><trkpt lat="40.1428534" lon="15.2496197"><ele>596.6</ele><time>2026-04-11T07:34:46.325Z</time></trkpt><trkpt lat="40.1429074" lon="15.2497103"><ele>597.0</ele><time>2026-04-11T07:34:47.318Z</time></trkpt><trkpt lat="40.1429482" lon="15.2498023"><ele>599.8000000000001</ele><time>2026-04-11T07:34:48.326Z</time></trkpt><trkpt lat="40.1429704" lon="15.2499125"><ele>602.6</ele><time>2026-04-11T07:34:49.327Z</time></trkpt><trkpt lat="40.1429676" lon="15.2500376"><ele>605.4000000000001</ele><time>2026-04-11T07:34:50.334Z</time></trkpt><trkpt lat="40.1429505" lon="15.2501703"><ele>608.2</ele><time>2026-04-11T07:34:51.32Z</time></trkpt><trkpt lat="40.1429195" lon="15.2503174"><ele>611.0</ele><time>2026-04-11T07:34:52.33Z</time></trkpt><trkpt lat="40.1428846" lon="15.2504712"><ele>609.5</ele><time>2026-04-11T07:34:53.315Z</time></trkpt><trkpt lat="40.1428509" lon="15.250625"><ele>608.0</ele><time>2026-04-11T07:34:54.318Z</time></trkpt><trkpt lat="40.1428451" lon="15.2507888"><ele>606.5</ele><time>2026-04-11T07:34:55.321Z</time></trkpt><trkpt lat="40.1428464" lon="15.2509508"><ele>605.0</ele><time>2026-04-11T07:34:56.317Z</time></trkpt><trkpt lat="40.1428405" lon="15.2510944"><ele>605.0</ele><time>2026-04-11T07:34:57.317Z</time></trkpt><trkpt lat="40.1428235" lon="15.2512226"><ele>605.0</ele><time>2026-04-11T07:34:58.322Z</time></trkpt><trkpt lat="40.1428031" lon="15.2513501"><ele>605.0</ele><time>2026-04-11T07:34:59.312Z</time></trkpt><trkpt lat="40.1427554" lon="15.251495"><ele>605.0</ele><time>2026-04-11T07:35:00.32Z</time></trkpt><trkpt lat="40.1427046" lon="15.2516357"><ele>605.0</ele><time>2026-04-11T07:35:01.31Z</time></trkpt><trkpt lat="40.1426651" lon="15.2517472"><ele>602.8</ele><time>2026-04-11T07:35:02.32Z</time></trkpt><trkpt lat="40.1426577" lon="15.251834"><ele>600.6</ele><time>2026-04-11T07:35:03.323Z</time></trkpt><trkpt lat="40.1426959" lon="15.2519988"><ele>598.4</ele><time>2026-04-11T07:35:05.319Z</time></trkpt><trkpt lat="40.1427376" lon="15.2520836"><ele>596.2</ele><time>2026-04-11T07:35:06.31Z</time></trkpt><trkpt lat="40.1428377" lon="15.2521775"><ele>594.0</ele><time>2026-04-11T07:35:08.319Z</time></trkpt><trkpt lat="40.1429628" lon="15.2521558"><ele>594.0</ele><time>2026-04-11T07:35:10.327Z</time></trkpt><trkpt lat="40.1430567" lon="15.2520862"><ele>594.0</ele><time>2026-04-11T07:35:11.333Z</time></trkpt><trkpt lat="40.1431863" lon="15.2519743"><ele>594.0</ele><time>2026-04-11T07:35:12.323Z</time></trkpt><trkpt lat="40.1433236" lon="15.2518596"><ele>594.0</ele><time>2026-04-11T07:35:13.313Z</time></trkpt><trkpt lat="40.1434501" lon="15.2517412"><ele>590.5</ele><time>2026-04-11T07:35:14.322Z</time></trkpt><trkpt lat="40.1435579" lon="15.2516188"><ele>587.0</ele><time>2026-04-11T07:35:15.319Z</time></trkpt><trkpt lat="40.1436722" lon="15.2515062"><ele>583.5</ele><time>2026-04-11T07:35:16.328Z</time></trkpt><trkpt lat="40.1437763" lon="15.2514124"><ele>580.0</ele><time>2026-04-11T07:35:17.319Z</time></trkpt><trkpt lat="40.143868" lon="15.2513321"><ele>575.2</ele><time>2026-04-11T07:35:18.323Z</time></trkpt><trkpt lat="40.1439411" lon="15.2512602"><ele>570.4</ele><time>2026-04-11T07:35:19.296Z</time></trkpt><trkpt lat="40.1440115" lon="15.25122"><ele>565.6</ele><time>2026-04-11T07:35:20.318Z</time></trkpt><trkpt lat="40.1441086" lon="15.2512121"><ele>560.8</ele><time>2026-04-11T07:35:21.325Z</time></trkpt><trkpt lat="40.1442315" lon="15.2512316"><ele>556.0</ele><time>2026-04-11T07:35:22.319Z</time></trkpt><trkpt lat="40.1443616" lon="15.2512564"><ele>556.0</ele><time>2026-04-11T07:35:23.326Z</time></trkpt><trkpt lat="40.1444669" lon="15.2512583"><ele>556.0</ele><time>2026-04-11T07:35:24.327Z</time></trkpt><trkpt lat="40.1445521" lon="15.2512347"><ele>556.0</ele><time>2026-04-11T07:35:25.315Z</time></trkpt><trkpt lat="40.1446358" lon="15.2511641"><ele>556.0</ele><time>2026-04-11T07:35:26.339Z</time></trkpt><trkpt lat="40.1447207" lon="15.2510649"><ele>556.0</ele><time>2026-04-11T07:35:27.318Z</time></trkpt><trkpt lat="40.1447748" lon="15.2509425"><ele>556.0</ele><time>2026-04-11T07:35:28.327Z</time></trkpt><trkpt lat="40.1448183" lon="15.2508038"><ele>556.0</ele><time>2026-04-11T07:35:29.311Z</time></trkpt><trkpt lat="40.1448426" lon="15.2506425"><ele>556.0</ele><time>2026-04-11T07:35:30.33Z</time></trkpt><trkpt lat="40.1448496" lon="15.2505067"><ele>556.0</ele><time>2026-04-11T07:35:31.318Z</time></trkpt><trkpt lat="40.1448961" lon="15.2503927"><ele>556.0</ele><time>2026-04-11T07:35:32.321Z</time></trkpt><trkpt lat="40.1449812" lon="15.2503015"><ele>556.0</ele><time>2026-04-11T07:35:33.327Z</time></trkpt><trkpt lat="40.1450511" lon="15.2502277"><ele>556.0</ele><time>2026-04-11T07:35:34.329Z</time></trkpt><trkpt lat="40.1451222" lon="15.2501768"><ele>556.0</ele><time>2026-04-11T07:35:35.322Z</time></trkpt><trkpt lat="40.145252" lon="15.2501871"><ele>556.0</ele><time>2026-04-11T07:35:37.324Z</time></trkpt><trkpt lat="40.1453259" lon="15.2502419"><ele>556.0</ele><time>2026-04-11T07:35:38.331Z</time></trkpt><trkpt lat="40.1454163" lon="15.2502873"><ele>556.0</ele><time>2026-04-11T07:35:39.322Z</time></trkpt><trkpt lat="40.1455286" lon="15.2503013"><ele>556.0</ele><time>2026-04-11T07:35:40.33Z</time></trkpt><trkpt lat="40.1456525" lon="15.2502749"><ele>556.0</ele><time>2026-04-11T07:35:41.328Z</time></trkpt><trkpt lat="40.1457763" lon="15.2502344"><ele>556.0</ele><time>2026-04-11T07:35:42.323Z</time></trkpt><trkpt lat="40.1458822" lon="15.2502029"><ele>555.8333333333334</ele><time>2026-04-11T07:35:43.338Z</time></trkpt><trkpt lat="40.1459758" lon="15.2501887"><ele>555.6666666666667</ele><time>2026-04-11T07:35:44.326Z</time></trkpt><trkpt lat="40.1460594" lon="15.2502024"><ele>555.5</ele><time>2026-04-11T07:35:45.322Z</time></trkpt><trkpt lat="40.1461249" lon="15.2502412"><ele>555.3333333333334</ele><time>2026-04-11T07:35:46.329Z</time></trkpt><trkpt lat="40.1461718" lon="15.2503105"><ele>555.1666666666666</ele><time>2026-04-11T07:35:47.331Z</time></trkpt><trkpt lat="40.1461931" lon="15.2503956"><ele>555.0</ele><time>2026-04-11T07:35:48.334Z</time></trkpt><trkpt lat="40.1461815" lon="15.2504903"><ele>555.0</ele><time>2026-04-11T07:35:49.333Z</time></trkpt><trkpt lat="40.1461283" lon="15.2505784"><ele>555.0</ele><time>2026-04-11T07:35:50.341Z</time></trkpt><trkpt lat="40.1460571" lon="15.2506621"><ele>555.0</ele><time>2026-04-11T07:35:51.336Z</time></trkpt><trkpt lat="40.145988" lon="15.2507634"><ele>555.0</ele><time>2026-04-11T07:35:52.345Z</time></trkpt><trkpt lat="40.1459422" lon="15.2508883"><ele>555.0</ele><time>2026-04-11T07:35:53.346Z</time></trkpt><trkpt lat="40.1459255" lon="15.2510325"><ele>559.75</ele><time>2026-04-11T07:35:54.329Z</time></trkpt><trkpt lat="40.145928" lon="15.2511911"><ele>564.5</ele><time>2026-04-11T07:35:55.319Z</time></trkpt><trkpt lat="40.1459429" lon="15.251361"><ele>569.25</ele><time>2026-04-11T07:35:56.323Z</time></trkpt><trkpt lat="40.1459462" lon="15.2515427"><ele>574.0</ele><time>2026-04-11T07:35:57.316Z</time></trkpt><trkpt lat="40.1459348" lon="15.251741"><ele>574.6666666666667</ele><time>2026-04-11T07:35:58.322Z</time></trkpt><trkpt lat="40.1459195" lon="15.2519478"><ele>575.3333333333334</ele><time>2026-04-11T07:35:59.322Z</time></trkpt><trkpt lat="40.145917" lon="15.2521599"><ele>576.0</ele><time>2026-04-11T07:36:00.335Z</time></trkpt><trkpt lat="40.1459281" lon="15.2523723"><ele>575.0</ele><time>2026-04-11T07:36:01.318Z</time></trkpt><trkpt lat="40.145932" lon="15.2525674"><ele>574.0</ele><time>2026-04-11T07:36:02.322Z</time></trkpt><trkpt lat="40.1459259" lon="15.2527436"><ele>573.0</ele><time>2026-04-11T07:36:03.324Z</time></trkpt><trkpt lat="40.1459164" lon="15.2529081"><ele>572.0</ele><time>2026-04-11T07:36:04.316Z</time></trkpt><trkpt lat="40.1459077" lon="15.2530539"><ele>572.0</ele><time>2026-04-11T07:36:05.309Z</time></trkpt><trkpt lat="40.1459164" lon="15.2531851"><ele>572.0</ele><time>2026-04-11T07:36:06.323Z</time></trkpt><trkpt lat="40.1459464" lon="15.2533134"><ele>572.0</ele><time>2026-04-11T07:36:07.327Z</time></trkpt><trkpt lat="40.1460036" lon="15.2534506"><ele>572.0</ele><time>2026-04-11T07:36:08.323Z</time></trkpt><trkpt lat="40.1460812" lon="15.2535896"><ele>572.0</ele><time>2026-04-11T07:36:09.313Z</time></trkpt><trkpt lat="40.1461648" lon="15.2537301"><ele>572.0</ele><time>2026-04-11T07:36:10.331Z</time></trkpt><trkpt lat="40.1462413" lon="15.2538787"><ele>572.0</ele><time>2026-04-11T07:36:11.332Z</time></trkpt><trkpt lat="40.146299" lon="15.2540251"><ele>572.0</ele><time>2026-04-11T07:36:12.318Z</time></trkpt><trkpt lat="40.1463463" lon="15.2541448"><ele>575.5</ele><time>2026-04-11T07:36:13.327Z</time></trkpt><trkpt lat="40.1463808" lon="15.2542566"><ele>579.0</ele><time>2026-04-11T07:36:14.332Z</time></trkpt><trkpt lat="40.1464161" lon="15.2543565"><ele>582.5</ele><time>2026-04-11T07:36:15.319Z</time></trkpt><trkpt lat="40.1464321" lon="15.2544531"><ele>586.0</ele><time>2026-04-11T07:36:16.322Z</time></trkpt><trkpt lat="40.1464218" lon="15.2545643"><ele>589.5</ele><time>2026-04-11T07:36:17.316Z</time></trkpt><trkpt lat="40.1464032" lon="15.254697"><ele>593.0</ele><time>2026-04-11T07:36:18.309Z</time></trkpt><trkpt lat="40.1463709" lon="15.2548628"><ele>596.25</ele><time>2026-04-11T07:36:19.316Z</time></trkpt><trkpt lat="40.1463327" lon="15.2550306"><ele>599.5</ele><time>2026-04-11T07:36:20.327Z</time></trkpt><trkpt lat="40.1463098" lon="15.255179"><ele>602.75</ele><time>2026-04-11T07:36:21.335Z</time></trkpt><trkpt lat="40.1463032" lon="15.2553103"><ele>606.0</ele><time>2026-04-11T07:36:22.348Z</time></trkpt><trkpt lat="40.1463166" lon="15.2554533"><ele>606.0</ele><time>2026-04-11T07:36:23.321Z</time></trkpt><trkpt lat="40.1463392" lon="15.2555876"><ele>606.0</ele><time>2026-04-11T07:36:24.328Z</time></trkpt><trkpt lat="40.1463623" lon="15.255693"><ele>606.0</ele><time>2026-04-11T07:36:25.331Z</time></trkpt><trkpt lat="40.1463942" lon="15.2557703"><ele>606.0</ele><time>2026-04-11T07:36:26.323Z</time></trkpt><trkpt lat="40.1464551" lon="15.2558104"><ele>606.0</ele><time>2026-04-11T07:36:27.328Z</time></trkpt><trkpt lat="40.1465235" lon="15.2558362"><ele>606.0</ele><time>2026-04-11T07:36:28.327Z</time></trkpt><trkpt lat="40.146619" lon="15.2557949"><ele>598.0</ele><time>2026-04-11T07:36:30.323Z</time></trkpt><trkpt lat="40.1466734" lon="15.2557363"><ele>590.0</ele><time>2026-04-11T07:36:31.34Z</time></trkpt><trkpt lat="40.1467228" lon="15.2556534"><ele>582.0</ele><time>2026-04-11T07:36:32.324Z</time></trkpt><trkpt lat="40.1467789" lon="15.2555552"><ele>574.0</ele><time>2026-04-11T07:36:33.318Z</time></trkpt><trkpt lat="40.1468507" lon="15.2554322"><ele>566.0</ele><time>2026-04-11T07:36:34.33Z</time></trkpt><trkpt lat="40.1469192" lon="15.2553101"><ele>563.4</ele><time>2026-04-11T07:36:35.318Z</time></trkpt><trkpt lat="40.146989" lon="15.255225"><ele>560.8</ele><time>2026-04-11T07:36:36.316Z</time></trkpt><trkpt lat="40.1470617" lon="15.255156"><ele>558.1999999999999</ele><time>2026-04-11T07:36:37.324Z</time></trkpt><trkpt lat="40.1471281" lon="15.2550563"><ele>555.6</ele><time>2026-04-11T07:36:38.322Z</time></trkpt><trkpt lat="40.147176" lon="15.2549216"><ele>553.0</ele><time>2026-04-11T07:36:39.333Z</time></trkpt><trkpt lat="40.1472227" lon="15.2547613"><ele>553.0</ele><time>2026-04-11T07:36:40.328Z</time></trkpt><trkpt lat="40.1472862" lon="15.2545869"><ele>553.0</ele><time>2026-04-11T07:36:41.331Z</time></trkpt><trkpt lat="40.147347" lon="15.2544301"><ele>553.0</ele><time>2026-04-11T07:36:42.32Z</time></trkpt><trkpt lat="40.1474073" lon="15.2542976"><ele>553.0</ele><time>2026-04-11T07:36:43.332Z</time></trkpt><trkpt lat="40.1474778" lon="15.2541666"><ele>553.0</ele><time>2026-04-11T07:36:44.332Z</time></trkpt><trkpt lat="40.1475346" lon="15.2540289"><ele>553.0</ele><time>2026-04-11T07:36:45.316Z</time></trkpt><trkpt lat="40.1475673" lon="15.2538604"><ele>553.0</ele><time>2026-04-11T07:36:46.327Z</time></trkpt><trkpt lat="40.1475908" lon="15.2536801"><ele>553.0</ele><time>2026-04-11T07:36:47.335Z</time></trkpt><trkpt lat="40.1476102" lon="15.2535139"><ele>550.8</ele><time>2026-04-11T07:36:48.342Z</time></trkpt><trkpt lat="40.1476313" lon="15.2533652"><ele>548.5999999999999</ele><time>2026-04-11T07:36:49.327Z</time></trkpt><trkpt lat="40.1476656" lon="15.2532546"><ele>546.4000000000001</ele><time>2026-04-11T07:36:50.321Z</time></trkpt><trkpt lat="40.1477073" lon="15.253149"><ele>544.2</ele><time>2026-04-11T07:36:51.334Z</time></trkpt><trkpt lat="40.1477633" lon="15.2530469"><ele>542.0</ele><time>2026-04-11T07:36:52.329Z</time></trkpt><trkpt lat="40.147817" lon="15.25293"><ele>539.0</ele><time>2026-04-11T07:36:53.326Z</time></trkpt><trkpt lat="40.1478549" lon="15.2528148"><ele>536.0</ele><time>2026-04-11T07:36:54.32Z</time></trkpt><trkpt lat="40.1478795" lon="15.2527111"><ele>533.0</ele><time>2026-04-11T07:36:55.335Z</time></trkpt><trkpt lat="40.1479075" lon="15.2526121"><ele>530.0</ele><time>2026-04-11T07:36:56.322Z</time></trkpt><trkpt lat="40.1479493" lon="15.2525129"><ele>527.0</ele><time>2026-04-11T07:36:57.332Z</time></trkpt><trkpt lat="40.1480022" lon="15.2523998"><ele>524.0</ele><time>2026-04-11T07:36:58.327Z</time></trkpt><trkpt lat="40.14807" lon="15.2522961"><ele>526.2</ele><time>2026-04-11T07:36:59.315Z</time></trkpt><trkpt lat="40.1481343" lon="15.2522026"><ele>528.4</ele><time>2026-04-11T07:37:00.332Z</time></trkpt><trkpt lat="40.148202" lon="15.2521014"><ele>530.6</ele><time>2026-04-11T07:37:01.325Z</time></trkpt><trkpt lat="40.1482648" lon="15.252006"><ele>532.8</ele><time>2026-04-11T07:37:02.345Z</time></trkpt><trkpt lat="40.148319" lon="15.2519216"><ele>535.0</ele><time>2026-04-11T07:37:03.331Z</time></trkpt><trkpt lat="40.1483723" lon="15.2518432"><ele>535.0</ele><time>2026-04-11T07:37:04.327Z</time></trkpt><trkpt lat="40.1484223" lon="15.2517646"><ele>535.0</ele><time>2026-04-11T07:37:05.32Z</time></trkpt><trkpt lat="40.1484623" lon="15.2516986"><ele>535.0</ele><time>2026-04-11T07:37:06.334Z</time></trkpt><trkpt lat="40.1485034" lon="15.251632"><ele>535.0</ele><time>2026-04-11T07:37:07.33Z</time></trkpt><trkpt lat="40.1485482" lon="15.2515645"><ele>535.0</ele><time>2026-04-11T07:37:08.326Z</time></trkpt><trkpt lat="40.1485971" lon="15.2514981"><ele>535.0</ele><time>2026-04-11T07:37:09.329Z</time></trkpt><trkpt lat="40.1486467" lon="15.2514355"><ele>535.0</ele><time>2026-04-11T07:37:10.335Z</time></trkpt><trkpt lat="40.1486984" lon="15.2513731"><ele>530.6666666666667</ele><time>2026-04-11T07:37:11.334Z</time></trkpt><trkpt lat="40.1487509" lon="15.2513176"><ele>526.3333333333334</ele><time>2026-04-11T07:37:12.332Z</time></trkpt><trkpt lat="40.1488099" lon="15.2512513"><ele>522.0</ele><time>2026-04-11T07:37:13.328Z</time></trkpt><trkpt lat="40.1488676" lon="15.2511607"><ele>517.6666666666666</ele><time>2026-04-11T07:37:14.327Z</time></trkpt><trkpt lat="40.1489147" lon="15.2510446"><ele>513.3333333333333</ele><time>2026-04-11T07:37:15.323Z</time></trkpt><trkpt lat="40.1489348" lon="15.2509166"><ele>509.0</ele><time>2026-04-11T07:37:16.338Z</time></trkpt><trkpt lat="40.1489448" lon="15.2507803"><ele>509.0</ele><time>2026-04-11T07:37:17.33Z</time></trkpt><trkpt lat="40.1489493" lon="15.2506712"><ele>509.0</ele><time>2026-04-11T07:37:18.341Z</time></trkpt><trkpt lat="40.1489573" lon="15.2505793"><ele>509.0</ele><time>2026-04-11T07:37:19.335Z</time></trkpt><trkpt lat="40.1489919" lon="15.2504404"><ele>509.0</ele><time>2026-04-11T07:37:21.329Z</time></trkpt><trkpt lat="40.1490607" lon="15.2503358"><ele>509.0</ele><time>2026-04-11T07:37:23.342Z</time></trkpt><trkpt lat="40.1491563" lon="15.2502755"><ele>512.2</ele><time>2026-04-11T07:37:25.336Z</time></trkpt><trkpt lat="40.1492633" lon="15.2502892"><ele>515.4</ele><time>2026-04-11T07:37:27.331Z</time></trkpt><trkpt lat="40.1493434" lon="15.2503643"><ele>518.6</ele><time>2026-04-11T07:37:29.314Z</time></trkpt><trkpt lat="40.1493851" lon="15.25049"><ele>521.8</ele><time>2026-04-11T07:37:31.335Z</time></trkpt><trkpt lat="40.1493787" lon="15.2505909"><ele>525.0</ele><time>2026-04-11T07:37:32.335Z</time></trkpt><trkpt lat="40.1493436" lon="15.2506896"><ele>527.2</ele><time>2026-04-11T07:37:33.323Z</time></trkpt><trkpt lat="40.1492988" lon="15.2507825"><ele>529.4</ele><time>2026-04-11T07:37:34.336Z</time></trkpt><trkpt lat="40.1492605" lon="15.2508995"><ele>531.6</ele><time>2026-04-11T07:37:35.334Z</time></trkpt><trkpt lat="40.149233" lon="15.2510228"><ele>533.8</ele><time>2026-04-11T07:37:36.334Z</time></trkpt><trkpt lat="40.1492285" lon="15.2511545"><ele>536.0</ele><time>2026-04-11T07:37:37.332Z</time></trkpt><trkpt lat="40.1492395" lon="15.2513004"><ele>538.0</ele><time>2026-04-11T07:37:38.337Z</time></trkpt><trkpt lat="40.149261" lon="15.2514582"><ele>540.0</ele><time>2026-04-11T07:37:39.325Z</time></trkpt><trkpt lat="40.1492794" lon="15.2516268"><ele>542.0</ele><time>2026-04-11T07:37:40.326Z</time></trkpt><trkpt lat="40.1493007" lon="15.2517966"><ele>544.0</ele><time>2026-04-11T07:37:41.324Z</time></trkpt><trkpt lat="40.1493175" lon="15.2519569"><ele>544.0</ele><time>2026-04-11T07:37:42.326Z</time></trkpt><trkpt lat="40.1493221" lon="15.2521127"><ele>544.0</ele><time>2026-04-11T07:37:43.345Z</time></trkpt><trkpt lat="40.1493331" lon="15.2522766"><ele>544.0</ele><time>2026-04-11T07:37:44.322Z</time></trkpt><trkpt lat="40.1493452" lon="15.2524371"><ele>544.0</ele><time>2026-04-11T07:37:45.321Z</time></trkpt><trkpt lat="40.1493676" lon="15.2525973"><ele>546.25</ele><time>2026-04-11T07:37:46.337Z</time></trkpt><trkpt lat="40.1493924" lon="15.2527598"><ele>548.5</ele><time>2026-04-11T07:37:47.329Z</time></trkpt><trkpt lat="40.149421" lon="15.2529092"><ele>550.75</ele><time>2026-04-11T07:37:48.345Z</time></trkpt><trkpt lat="40.1494405" lon="15.2530513"><ele>553.0</ele><time>2026-04-11T07:37:49.32Z</time></trkpt><trkpt lat="40.1494598" lon="15.2531846"><ele>554.8333333333334</ele><time>2026-04-11T07:37:50.316Z</time></trkpt><trkpt lat="40.1494776" lon="15.2533058"><ele>556.6666666666667</ele><time>2026-04-11T07:37:51.321Z</time></trkpt><trkpt lat="40.149506" lon="15.2534049"><ele>558.5</ele><time>2026-04-11T07:37:52.319Z</time></trkpt><trkpt lat="40.1495493" lon="15.2534744"><ele>560.3333333333334</ele><time>2026-04-11T07:37:53.323Z</time></trkpt><trkpt lat="40.1496681" lon="15.2534752"><ele>562.1666666666666</ele><time>2026-04-11T07:37:55.329Z</time></trkpt><trkpt lat="40.1497351" lon="15.2534073"><ele>564.0</ele><time>2026-04-11T07:37:56.319Z</time></trkpt><trkpt lat="40.1498056" lon="15.2533058"><ele>564.0</ele><time>2026-04-11T07:37:57.322Z</time></trkpt><trkpt lat="40.1498707" lon="15.2531948"><ele>564.0</ele><time>2026-04-11T07:37:58.298Z</time></trkpt><trkpt lat="40.1499318" lon="15.2530794"><ele>564.0</ele><time>2026-04-11T07:37:59.326Z</time></trkpt><trkpt lat="40.1499852" lon="15.2529729"><ele>564.0</ele><time>2026-04-11T07:38:00.313Z</time></trkpt><trkpt lat="40.1500318" lon="15.252895"><ele>564.0</ele><time>2026-04-11T07:38:01.329Z</time></trkpt><trkpt lat="40.1500909" lon="15.2528507"><ele>556.1666666666666</ele><time>2026-04-11T07:38:02.326Z</time></trkpt><trkpt lat="40.1501608" lon="15.252846"><ele>548.3333333333334</ele><time>2026-04-11T07:38:03.318Z</time></trkpt><trkpt lat="40.1502413" lon="15.2528684"><ele>540.5</ele><time>2026-04-11T07:38:04.326Z</time></trkpt><trkpt lat="40.1503268" lon="15.2529003"><ele>532.6666666666667</ele><time>2026-04-11T07:38:05.323Z</time></trkpt><trkpt lat="40.1504195" lon="15.2529075"><ele>524.8333333333334</ele><time>2026-04-11T07:38:06.324Z</time></trkpt><trkpt lat="40.1505019" lon="15.2528591"><ele>517.0</ele><time>2026-04-11T07:38:07.319Z</time></trkpt><trkpt lat="40.1505897" lon="15.2527988"><ele>517.0</ele><time>2026-04-11T07:38:08.327Z</time></trkpt><trkpt lat="40.1506459" lon="15.2527404"><ele>517.0</ele><time>2026-04-11T07:38:09.328Z</time></trkpt><trkpt lat="40.1506592" lon="15.2526263"><ele>517.0</ele><time>2026-04-11T07:38:10.321Z</time></trkpt><trkpt lat="40.1506623" lon="15.2525054"><ele>517.0</ele><time>2026-04-11T07:38:11.327Z</time></trkpt><trkpt lat="40.1506764" lon="15.252398"><ele>517.0</ele><time>2026-04-11T07:38:12.318Z</time></trkpt><trkpt lat="40.1507124" lon="15.2523153"><ele>517.0</ele><time>2026-04-11T07:38:13.321Z</time></trkpt><trkpt lat="40.1507664" lon="15.2522581"><ele>515.3333333333334</ele><time>2026-04-11T07:38:14.322Z</time></trkpt><trkpt lat="40.1508294" lon="15.2522248"><ele>513.6666666666667</ele><time>2026-04-11T07:38:15.325Z</time></trkpt><trkpt lat="40.150902" lon="15.252221"><ele>512.0</ele><time>2026-04-11T07:38:16.325Z</time></trkpt><trkpt lat="40.1509736" lon="15.2522306"><ele>510.33333333333337</ele><time>2026-04-11T07:38:17.321Z</time></trkpt><trkpt lat="40.151053" lon="15.2522338"><ele>508.6666666666667</ele><time>2026-04-11T07:38:18.327Z</time></trkpt><trkpt lat="40.1511375" lon="15.2522405"><ele>507.0</ele><time>2026-04-11T07:38:19.32Z</time></trkpt><trkpt lat="40.1512121" lon="15.2522088"><ele>507.0</ele><time>2026-04-11T07:38:20.323Z</time></trkpt><trkpt lat="40.1512578" lon="15.252146"><ele>507.0</ele><time>2026-04-11T07:38:21.329Z</time></trkpt><trkpt lat="40.1512692" lon="15.2520501"><ele>507.0</ele><time>2026-04-11T07:38:22.338Z</time></trkpt><trkpt lat="40.1512542" lon="15.2519401"><ele>507.0</ele><time>2026-04-11T07:38:23.329Z</time></trkpt><trkpt lat="40.1512676" lon="15.2518199"><ele>507.0</ele><time>2026-04-11T07:38:24.314Z</time></trkpt><trkpt lat="40.1512927" lon="15.2517238"><ele>507.0</ele><time>2026-04-11T07:38:25.32Z</time></trkpt><trkpt lat="40.1513311" lon="15.2516348"><ele>507.0</ele><time>2026-04-11T07:38:26.331Z</time></trkpt><trkpt lat="40.151385" lon="15.2515421"><ele>507.0</ele><time>2026-04-11T07:38:27.34Z</time></trkpt><trkpt lat="40.1514477" lon="15.2514492"><ele>507.0</ele><time>2026-04-11T07:38:28.337Z</time></trkpt><trkpt lat="40.1515043" lon="15.2513568"><ele>507.0</ele><time>2026-04-11T07:38:29.319Z</time></trkpt><trkpt lat="40.1515542" lon="15.2512684"><ele>507.0</ele><time>2026-04-11T07:38:30.323Z</time></trkpt><trkpt lat="40.1516007" lon="15.2511959"><ele>507.0</ele><time>2026-04-11T07:38:31.329Z</time></trkpt><trkpt lat="40.1516562" lon="15.2511525"><ele>505.6666666666667</ele><time>2026-04-11T07:38:32.329Z</time></trkpt><trkpt lat="40.1517226" lon="15.2511127"><ele>504.33333333333337</ele><time>2026-04-11T07:38:33.322Z</time></trkpt><trkpt lat="40.1517888" lon="15.2510744"><ele>503.0</ele><time>2026-04-11T07:38:34.322Z</time></trkpt><trkpt lat="40.1518661" lon="15.2510294"><ele>501.6666666666667</ele><time>2026-04-11T07:38:35.329Z</time></trkpt><trkpt lat="40.1519507" lon="15.2509892"><ele>500.33333333333337</ele><time>2026-04-11T07:38:36.319Z</time></trkpt><trkpt lat="40.1520458" lon="15.25095"><ele>499.0</ele><time>2026-04-11T07:38:37.319Z</time></trkpt><trkpt lat="40.1521565" lon="15.2509168"><ele>499.0</ele><time>2026-04-11T07:38:38.311Z</time></trkpt><trkpt lat="40.1522723" lon="15.2508872"><ele>499.0</ele><time>2026-04-11T07:38:39.323Z</time></trkpt><trkpt lat="40.1523861" lon="15.2508679"><ele>499.0</ele><time>2026-04-11T07:38:40.317Z</time></trkpt><trkpt lat="40.1525045" lon="15.2508565"><ele>499.0</ele><time>2026-04-11T07:38:41.333Z</time></trkpt><trkpt lat="40.1526091" lon="15.2508452"><ele>501.4</ele><time>2026-04-11T07:38:42.341Z</time></trkpt><trkpt lat="40.1527063" lon="15.2508298"><ele>503.79999999999995</ele><time>2026-04-11T07:38:43.329Z</time></trkpt><trkpt lat="40.1528071" lon="15.2508084"><ele>506.20000000000005</ele><time>2026-04-11T07:38:44.331Z</time></trkpt><trkpt lat="40.1529043" lon="15.2507666"><ele>508.6</ele><time>2026-04-11T07:38:45.326Z</time></trkpt><trkpt lat="40.1529927" lon="15.2507152"><ele>511.0</ele><time>2026-04-11T07:38:46.334Z</time></trkpt><trkpt lat="40.1530748" lon="15.2506748"><ele>511.00000000000006</ele><time>2026-04-11T07:38:47.325Z</time></trkpt><trkpt lat="40.1531424" lon="15.2506323"><ele>511.0</ele><time>2026-04-11T07:38:48.311Z</time></trkpt><trkpt lat="40.1531991" lon="15.2505822"><ele>511.0</ele><time>2026-04-11T07:38:49.322Z</time></trkpt><trkpt lat="40.1532507" lon="15.2505308"><ele>511.0</ele><time>2026-04-11T07:38:50.327Z</time></trkpt><trkpt lat="40.1532972" lon="15.2504719"><ele>511.00000000000006</ele><time>2026-04-11T07:38:51.331Z</time></trkpt><trkpt lat="40.1533847" lon="15.2503624"><ele>511.0</ele><time>2026-04-11T07:38:53.332Z</time></trkpt><trkpt lat="40.1534231" lon="15.2502842"><ele>508.6</ele><time>2026-04-11T07:38:54.322Z</time></trkpt><trkpt lat="40.1534671" lon="15.2501386"><ele>506.20000000000005</ele><time>2026-04-11T07:38:56.322Z</time></trkpt><trkpt lat="40.1535325" lon="15.2500684"><ele>503.79999999999995</ele><time>2026-04-11T07:38:58.329Z</time></trkpt><trkpt lat="40.1536138" lon="15.2501029"><ele>501.4</ele><time>2026-04-11T07:39:00.324Z</time></trkpt><trkpt lat="40.1536906" lon="15.2502051"><ele>499.0</ele><time>2026-04-11T07:39:02.319Z</time></trkpt><trkpt lat="40.1537194" lon="15.250295"><ele>499.0</ele><time>2026-04-11T07:39:03.326Z</time></trkpt><trkpt lat="40.1537236" lon="15.2503991"><ele>499.0</ele><time>2026-04-11T07:39:04.317Z</time></trkpt><trkpt lat="40.1537219" lon="15.2504966"><ele>499.0</ele><time>2026-04-11T07:39:05.319Z</time></trkpt><trkpt lat="40.1537042" lon="15.250609"><ele>499.0</ele><time>2026-04-11T07:39:06.331Z</time></trkpt><trkpt lat="40.1536672" lon="15.2507511"><ele>499.0</ele><time>2026-04-11T07:39:07.328Z</time></trkpt><trkpt lat="40.1536288" lon="15.2509088"><ele>502.5</ele><time>2026-04-11T07:39:08.345Z</time></trkpt><trkpt lat="40.1535968" lon="15.2510648"><ele>506.0</ele><time>2026-04-11T07:39:09.334Z</time></trkpt><trkpt lat="40.1535622" lon="15.2512019"><ele>509.5</ele><time>2026-04-11T07:39:10.335Z</time></trkpt><trkpt lat="40.1535128" lon="15.2513257"><ele>513.0</ele><time>2026-04-11T07:39:11.33Z</time></trkpt><trkpt lat="40.1534351" lon="15.2514456"><ele>512.4</ele><time>2026-04-11T07:39:12.325Z</time></trkpt><trkpt lat="40.1533557" lon="15.2515639"><ele>511.79999999999995</ele><time>2026-04-11T07:39:13.33Z</time></trkpt><trkpt lat="40.1532658" lon="15.2516688"><ele>511.2</ele><time>2026-04-11T07:39:14.328Z</time></trkpt><trkpt lat="40.1531824" lon="15.2517629"><ele>510.6</ele><time>2026-04-11T07:39:15.333Z</time></trkpt><trkpt lat="40.1531162" lon="15.2518558"><ele>510.0</ele><time>2026-04-11T07:39:16.318Z</time></trkpt><trkpt lat="40.1530755" lon="15.2519572"><ele>515.8</ele><time>2026-04-11T07:39:17.318Z</time></trkpt><trkpt lat="40.1530484" lon="15.2520725"><ele>521.6</ele><time>2026-04-11T07:39:18.322Z</time></trkpt><trkpt lat="40.1530493" lon="15.252192"><ele>527.4</ele><time>2026-04-11T07:39:19.322Z</time></trkpt><trkpt lat="40.1530696" lon="15.2523071"><ele>533.2</ele><time>2026-04-11T07:39:20.323Z</time></trkpt><trkpt lat="40.1531015" lon="15.2524158"><ele>539.0</ele><time>2026-04-11T07:39:21.308Z</time></trkpt><trkpt lat="40.1531669" lon="15.2525033"><ele>533.25</ele><time>2026-04-11T07:39:22.325Z</time></trkpt><trkpt lat="40.1532442" lon="15.252566"><ele>527.5</ele><time>2026-04-11T07:39:23.322Z</time></trkpt><trkpt lat="40.1533413" lon="15.2526036"><ele>521.75</ele><time>2026-04-11T07:39:24.322Z</time></trkpt><trkpt lat="40.1534681" lon="15.2526134"><ele>516.0</ele><time>2026-04-11T07:39:25.32Z</time></trkpt><trkpt lat="40.1535982" lon="15.2526271"><ele>516.0</ele><time>2026-04-11T07:39:26.314Z</time></trkpt><trkpt lat="40.1537161" lon="15.2526496"><ele>516.0</ele><time>2026-04-11T07:39:27.328Z</time></trkpt><trkpt lat="40.1538114" lon="15.2526669"><ele>516.0</ele><time>2026-04-11T07:39:28.321Z</time></trkpt><trkpt lat="40.1538957" lon="15.2526846"><ele>516.0</ele><time>2026-04-11T07:39:29.327Z</time></trkpt><trkpt lat="40.1539818" lon="15.2527577"><ele>516.0</ele><time>2026-04-11T07:39:30.318Z</time></trkpt><trkpt lat="40.1540684" lon="15.2528317"><ele>513.2</ele><time>2026-04-11T07:39:31.343Z</time></trkpt><trkpt lat="40.1541441" lon="15.2528862"><ele>510.40000000000003</ele><time>2026-04-11T07:39:32.337Z</time></trkpt><trkpt lat="40.1542337" lon="15.2529033"><ele>507.6</ele><time>2026-04-11T07:39:33.328Z</time></trkpt><trkpt lat="40.1543271" lon="15.2528499"><ele>504.8</ele><time>2026-04-11T07:39:34.342Z</time></trkpt><trkpt lat="40.1544256" lon="15.2527594"><ele>502.0</ele><time>2026-04-11T07:39:35.329Z</time></trkpt><trkpt lat="40.1545145" lon="15.2526614"><ele>502.00000000000006</ele><time>2026-04-11T07:39:36.325Z</time></trkpt><trkpt lat="40.1545935" lon="15.2525885"><ele>502.0</ele><time>2026-04-11T07:39:37.323Z</time></trkpt><trkpt lat="40.154663" lon="15.2525553"><ele>502.0</ele><time>2026-04-11T07:39:38.324Z</time></trkpt><trkpt lat="40.1547344" lon="15.2525683"><ele>502.0</ele><time>2026-04-11T07:39:39.319Z</time></trkpt><trkpt lat="40.1548063" lon="15.2526189"><ele>502.00000000000006</ele><time>2026-04-11T07:39:40.326Z</time></trkpt><trkpt lat="40.1548881" lon="15.2527171"><ele>502.0</ele><time>2026-04-11T07:39:41.33Z</time></trkpt><trkpt lat="40.1549628" lon="15.2528439"><ele>498.75</ele><time>2026-04-11T07:39:42.318Z</time></trkpt><trkpt lat="40.1550384" lon="15.2529527"><ele>495.5</ele><time>2026-04-11T07:39:43.324Z</time></trkpt><trkpt lat="40.1551346" lon="15.2530266"><ele>492.25</ele><time>2026-04-11T07:39:44.318Z</time></trkpt><trkpt lat="40.1552561" lon="15.2530813"><ele>489.0</ele><time>2026-04-11T07:39:45.334Z</time></trkpt><trkpt lat="40.1553898" lon="15.2531005"><ele>489.0</ele><time>2026-04-11T07:39:46.324Z</time></trkpt><trkpt lat="40.155511" lon="15.2531138"><ele>489.0</ele><time>2026-04-11T07:39:47.323Z</time></trkpt><trkpt lat="40.1556077" lon="15.2531303"><ele>489.0</ele><time>2026-04-11T07:39:48.33Z</time></trkpt><trkpt lat="40.1556806" lon="15.25317"><ele>489.0</ele><time>2026-04-11T07:39:49.327Z</time></trkpt><trkpt lat="40.1557458" lon="15.2532695"><ele>489.0</ele><time>2026-04-11T07:39:50.332Z</time></trkpt><trkpt lat="40.1558009" lon="15.2534021"><ele>489.25</ele><time>2026-04-11T07:39:51.325Z</time></trkpt><trkpt lat="40.15584" lon="15.2535377"><ele>489.5</ele><time>2026-04-11T07:39:52.321Z</time></trkpt><trkpt lat="40.1558631" lon="15.2536697"><ele>489.75</ele><time>2026-04-11T07:39:53.325Z</time></trkpt><trkpt lat="40.1558713" lon="15.2538149"><ele>490.0</ele><time>2026-04-11T07:39:54.33Z</time></trkpt><trkpt lat="40.1558532" lon="15.2539885"><ele>491.75</ele><time>2026-04-11T07:39:55.33Z</time></trkpt><trkpt lat="40.1558325" lon="15.2541872"><ele>493.5</ele><time>2026-04-11T07:39:56.323Z</time></trkpt><trkpt lat="40.1558154" lon="15.2543754"><ele>495.25</ele><time>2026-04-11T07:39:57.333Z</time></trkpt><trkpt lat="40.1558026" lon="15.2545598"><ele>497.0</ele><time>2026-04-11T07:39:58.322Z</time></trkpt><trkpt lat="40.1557981" lon="15.2547407"><ele>496.0</ele><time>2026-04-11T07:39:59.321Z</time></trkpt><trkpt lat="40.1558042" lon="15.254911"><ele>495.0</ele><time>2026-04-11T07:40:00.336Z</time></trkpt><trkpt lat="40.1558079" lon="15.2550691"><ele>494.0</ele><time>2026-04-11T07:40:01.321Z</time></trkpt><trkpt lat="40.1558175" lon="15.2552125"><ele>493.0</ele><time>2026-04-11T07:40:02.304Z</time></trkpt><trkpt lat="40.1558208" lon="15.2553619"><ele>493.0</ele><time>2026-04-11T07:40:03.323Z</time></trkpt><trkpt lat="40.1558058" lon="15.2555223"><ele>492.99999999999994</ele><time>2026-04-11T07:40:04.329Z</time></trkpt><trkpt lat="40.1557931" lon="15.2556741"><ele>492.99999999999994</ele><time>2026-04-11T07:40:05.328Z</time></trkpt><trkpt lat="40.1557712" lon="15.2558001"><ele>493.0</ele><time>2026-04-11T07:40:06.323Z</time></trkpt><trkpt lat="40.1557495" lon="15.2559057"><ele>493.0</ele><time>2026-04-11T07:40:07.319Z</time></trkpt><trkpt lat="40.1557512" lon="15.2559956"><ele>494.0</ele><time>2026-04-11T07:40:08.33Z</time></trkpt><trkpt lat="40.1557738" lon="15.2560795"><ele>494.99999999999994</ele><time>2026-04-11T07:40:09.321Z</time></trkpt><trkpt lat="40.1558989" lon="15.2561457"><ele>495.99999999999994</ele><time>2026-04-11T07:40:11.322Z</time></trkpt><trkpt lat="40.1559791" lon="15.2561216"><ele>497.0</ele><time>2026-04-11T07:40:12.322Z</time></trkpt><trkpt lat="40.1560653" lon="15.2560661"><ele>498.0</ele><time>2026-04-11T07:40:13.316Z</time></trkpt><trkpt lat="40.1561652" lon="15.2560061"><ele>498.0</ele><time>2026-04-11T07:40:14.321Z</time></trkpt><trkpt lat="40.1562972" lon="15.255951"><ele>498.0</ele><time>2026-04-11T07:40:15.325Z</time></trkpt><trkpt lat="40.1564239" lon="15.2558979"><ele>498.0</ele><time>2026-04-11T07:40:16.312Z</time></trkpt><trkpt lat="40.1565398" lon="15.2558298"><ele>498.0</ele><time>2026-04-11T07:40:17.337Z</time></trkpt><trkpt lat="40.1566372" lon="15.2557316"><ele>489.5</ele><time>2026-04-11T07:40:18.331Z</time></trkpt><trkpt lat="40.1567339" lon="15.2556105"><ele>481.0</ele><time>2026-04-11T07:40:19.319Z</time></trkpt><trkpt lat="40.1568138" lon="15.2554717"><ele>472.5</ele><time>2026-04-11T07:40:20.317Z</time></trkpt><trkpt lat="40.1568918" lon="15.2553352"><ele>464.0</ele><time>2026-04-11T07:40:21.318Z</time></trkpt><trkpt lat="40.156985" lon="15.2552075"><ele>464.0</ele><time>2026-04-11T07:40:22.321Z</time></trkpt><trkpt lat="40.1571084" lon="15.2550862"><ele>464.0</ele><time>2026-04-11T07:40:23.323Z</time></trkpt><trkpt lat="40.1572335" lon="15.254951"><ele>464.0</ele><time>2026-04-11T07:40:24.328Z</time></trkpt><trkpt lat="40.1573533" lon="15.2548152"><ele>461.4</ele><time>2026-04-11T07:40:25.325Z</time></trkpt><trkpt lat="40.1574647" lon="15.2547003"><ele>458.79999999999995</ele><time>2026-04-11T07:40:26.324Z</time></trkpt><trkpt lat="40.1575576" lon="15.2546086"><ele>456.20000000000005</ele><time>2026-04-11T07:40:27.328Z</time></trkpt><trkpt lat="40.1576293" lon="15.2545393"><ele>453.6</ele><time>2026-04-11T07:40:28.337Z</time></trkpt><trkpt lat="40.1576994" lon="15.2545012"><ele>451.0</ele><time>2026-04-11T07:40:29.337Z</time></trkpt><trkpt lat="40.1577686" lon="15.2544883"><ele>451.0</ele><time>2026-04-11T07:40:30.314Z</time></trkpt><trkpt lat="40.1578355" lon="15.2545196"><ele>451.0</ele><time>2026-04-11T07:40:31.33Z</time></trkpt><trkpt lat="40.157893" lon="15.2545874"><ele>451.0</ele><time>2026-04-11T07:40:32.328Z</time></trkpt><trkpt lat="40.1579582" lon="15.2546997"><ele>451.0</ele><time>2026-04-11T07:40:33.323Z</time></trkpt><trkpt lat="40.1580407" lon="15.254816"><ele>451.0</ele><time>2026-04-11T07:40:34.319Z</time></trkpt><trkpt lat="40.1581466" lon="15.2549287"><ele>460.6</ele><time>2026-04-11T07:40:35.325Z</time></trkpt><trkpt lat="40.1582491" lon="15.2550204"><ele>470.20000000000005</ele><time>2026-04-11T07:40:36.325Z</time></trkpt><trkpt lat="40.1583347" lon="15.2550933"><ele>479.79999999999995</ele><time>2026-04-11T07:40:37.319Z</time></trkpt><trkpt lat="40.1584168" lon="15.2551503"><ele>489.4</ele><time>2026-04-11T07:40:38.316Z</time></trkpt><trkpt lat="40.158495" lon="15.2551474"><ele>499.0</ele><time>2026-04-11T07:40:39.324Z</time></trkpt><trkpt lat="40.1585693" lon="15.2551067"><ele>499.00000000000006</ele><time>2026-04-11T07:40:40.315Z</time></trkpt><trkpt lat="40.1586203" lon="15.2550468"><ele>499.0</ele><time>2026-04-11T07:40:41.327Z</time></trkpt><trkpt lat="40.1586485" lon="15.2549648"><ele>499.0</ele><time>2026-04-11T07:40:42.333Z</time></trkpt><trkpt lat="40.1586468" lon="15.2548582"><ele>499.0</ele><time>2026-04-11T07:40:43.321Z</time></trkpt><trkpt lat="40.1586175" lon="15.2547423"><ele>499.00000000000006</ele><time>2026-04-11T07:40:44.33Z</time></trkpt><trkpt lat="40.1585509" lon="15.2546205"><ele>499.0</ele><time>2026-04-11T07:40:45.32Z</time></trkpt><trkpt lat="40.158489" lon="15.2545051"><ele>491.25</ele><time>2026-04-11T07:40:46.335Z</time></trkpt><trkpt lat="40.1584555" lon="15.254391"><ele>483.5</ele><time>2026-04-11T07:40:47.313Z</time></trkpt><trkpt lat="40.1584495" lon="15.2542369"><ele>475.75</ele><time>2026-04-11T07:40:48.308Z</time></trkpt><trkpt lat="40.1584672" lon="15.2540595"><ele>468.0</ele><time>2026-04-11T07:40:49.315Z</time></trkpt><trkpt lat="40.1584919" lon="15.2538931"><ele>461.59999999999997</ele><time>2026-04-11T07:40:50.324Z</time></trkpt><trkpt lat="40.1585175" lon="15.2537578"><ele>455.19999999999993</ele><time>2026-04-11T07:40:51.334Z</time></trkpt><trkpt lat="40.1585665" lon="15.2536686"><ele>448.8</ele><time>2026-04-11T07:40:52.329Z</time></trkpt><trkpt lat="40.1586517" lon="15.253601"><ele>442.4</ele><time>2026-04-11T07:40:53.33Z</time></trkpt><trkpt lat="40.1587524" lon="15.2535228"><ele>436.0</ele><time>2026-04-11T07:40:54.327Z</time></trkpt><trkpt lat="40.1588203" lon="15.2534336"><ele>436.0</ele><time>2026-04-11T07:40:55.331Z</time></trkpt><trkpt lat="40.1588711" lon="15.253316"><ele>436.0</ele><time>2026-04-11T07:40:56.326Z</time></trkpt><trkpt lat="40.1588985" lon="15.2531952"><ele>436.0</ele><time>2026-04-11T07:40:57.31Z</time></trkpt><trkpt lat="40.1589438" lon="15.2530969"><ele>436.0</ele><time>2026-04-11T07:40:58.314Z</time></trkpt><trkpt lat="40.1590147" lon="15.2530275"><ele>436.0</ele><time>2026-04-11T07:40:59.326Z</time></trkpt><trkpt lat="40.1591062" lon="15.2529739"><ele>436.5</ele><time>2026-04-11T07:41:00.32Z</time></trkpt><trkpt lat="40.1592133" lon="15.2529214"><ele>437.0</ele><time>2026-04-11T07:41:01.329Z</time></trkpt><trkpt lat="40.1593245" lon="15.252839"><ele>437.5</ele><time>2026-04-11T07:41:02.325Z</time></trkpt><trkpt lat="40.1594299" lon="15.2527558"><ele>438.0</ele><time>2026-04-11T07:41:03.327Z</time></trkpt><trkpt lat="40.1595274" lon="15.2527185"><ele>438.0</ele><time>2026-04-11T07:41:04.327Z</time></trkpt><trkpt lat="40.1596193" lon="15.2527304"><ele>437.99999999999994</ele><time>2026-04-11T07:41:05.314Z</time></trkpt><trkpt lat="40.1597092" lon="15.2527411"><ele>437.99999999999994</ele><time>2026-04-11T07:41:06.329Z</time></trkpt><trkpt lat="40.1597936" lon="15.2526864"><ele>438.0</ele><time>2026-04-11T07:41:07.319Z</time></trkpt><trkpt lat="40.1598738" lon="15.2525614"><ele>438.0</ele><time>2026-04-11T07:41:08.333Z</time></trkpt><trkpt lat="40.1599543" lon="15.2524184"><ele>436.0</ele><time>2026-04-11T07:41:09.337Z</time></trkpt><trkpt lat="40.1600516" lon="15.2522764"><ele>434.0</ele><time>2026-04-11T07:41:10.334Z</time></trkpt><trkpt lat="40.1601769" lon="15.2521512"><ele>432.0</ele><time>2026-04-11T07:41:11.323Z</time></trkpt><trkpt lat="40.1602879" lon="15.2520452"><ele>430.0</ele><time>2026-04-11T07:41:12.333Z</time></trkpt><trkpt lat="40.1603916" lon="15.2519611"><ele>430.0</ele><time>2026-04-11T07:41:13.333Z</time></trkpt><trkpt lat="40.1604948" lon="15.251896"><ele>430.0</ele><time>2026-04-11T07:41:14.329Z</time></trkpt><trkpt lat="40.1605932" lon="15.2518272"><ele>430.0</ele><time>2026-04-11T07:41:15.33Z</time></trkpt><trkpt lat="40.1606772" lon="15.2517253"><ele>430.0</ele><time>2026-04-11T07:41:16.32Z</time></trkpt><trkpt lat="40.1607475" lon="15.2515889"><ele>430.5</ele><time>2026-04-11T07:41:17.315Z</time></trkpt><trkpt lat="40.1608071" lon="15.2514268"><ele>431.0</ele><time>2026-04-11T07:41:18.33Z</time></trkpt><trkpt lat="40.1608496" lon="15.2512838"><ele>431.5</ele><time>2026-04-11T07:41:19.313Z</time></trkpt><trkpt lat="40.1608927" lon="15.2511704"><ele>432.0</ele><time>2026-04-11T07:41:20.328Z</time></trkpt><trkpt lat="40.1609571" lon="15.2510721"><ele>432.0</ele><time>2026-04-11T07:41:21.328Z</time></trkpt><trkpt lat="40.1610308" lon="15.2510071"><ele>432.00000000000006</ele><time>2026-04-11T07:41:22.324Z</time></trkpt><trkpt lat="40.1611117" lon="15.2509763"><ele>432.00000000000006</ele><time>2026-04-11T07:41:23.321Z</time></trkpt><trkpt lat="40.1611956" lon="15.2509789"><ele>432.0</ele><time>2026-04-11T07:41:24.33Z</time></trkpt><trkpt lat="40.1612957" lon="15.2510043"><ele>432.0</ele><time>2026-04-11T07:41:25.324Z</time></trkpt><trkpt lat="40.1614005" lon="15.251026"><ele>432.0</ele><time>2026-04-11T07:41:26.322Z</time></trkpt><trkpt lat="40.161513" lon="15.2510348"><ele>432.0</ele><time>2026-04-11T07:41:27.327Z</time></trkpt><trkpt lat="40.1616344" lon="15.2510474"><ele>432.0</ele><time>2026-04-11T07:41:28.339Z</time></trkpt><trkpt lat="40.1617662" lon="15.2510504"><ele>432.0</ele><time>2026-04-11T07:41:29.32Z</time></trkpt><trkpt lat="40.1618836" lon="15.2510271"><ele>431.0</ele><time>2026-04-11T07:41:30.328Z</time></trkpt><trkpt lat="40.1620041" lon="15.2510112"><ele>430.0</ele><time>2026-04-11T07:41:31.321Z</time></trkpt><trkpt lat="40.162146" lon="15.2510048"><ele>429.0</ele><time>2026-04-11T07:41:32.316Z</time></trkpt><trkpt lat="40.1622975" lon="15.2510202"><ele>428.0</ele><time>2026-04-11T07:41:33.319Z</time></trkpt><trkpt lat="40.16246" lon="15.2510202"><ele>428.0</ele><time>2026-04-11T07:41:34.332Z</time></trkpt><trkpt lat="40.1626077" lon="15.2510142"><ele>427.99999999999994</ele><time>2026-04-11T07:41:35.326Z</time></trkpt><trkpt lat="40.1627296" lon="15.2510225"><ele>427.99999999999994</ele><time>2026-04-11T07:41:36.327Z</time></trkpt><trkpt lat="40.1628286" lon="15.2510305"><ele>428.0</ele><time>2026-04-11T07:41:37.329Z</time></trkpt><trkpt lat="40.1628991" lon="15.2510429"><ele>428.0</ele><time>2026-04-11T07:41:38.333Z</time></trkpt><trkpt lat="40.1629617" lon="15.251085"><ele>427.99999999999994</ele><time>2026-04-11T07:41:39.32Z</time></trkpt><trkpt lat="40.1630195" lon="15.2511571"><ele>428.0</ele><time>2026-04-11T07:41:40.325Z</time></trkpt><trkpt lat="40.1630775" lon="15.2512587"><ele>428.0</ele><time>2026-04-11T07:41:41.326Z</time></trkpt><trkpt lat="40.1631272" lon="15.2513633"><ele>428.0</ele><time>2026-04-11T07:41:42.329Z</time></trkpt><trkpt lat="40.1631726" lon="15.2514758"><ele>427.99999999999994</ele><time>2026-04-11T07:41:43.349Z</time></trkpt><trkpt lat="40.16322" lon="15.2515528"><ele>428.0</ele><time>2026-04-11T07:41:44.337Z</time></trkpt><trkpt lat="40.1632673" lon="15.2516154"><ele>429.3333333333333</ele><time>2026-04-11T07:41:45.335Z</time></trkpt><trkpt lat="40.1633364" lon="15.2516571"><ele>430.66666666666663</ele><time>2026-04-11T07:41:46.331Z</time></trkpt><trkpt lat="40.1634104" lon="15.2516709"><ele>432.0</ele><time>2026-04-11T07:41:47.327Z</time></trkpt><trkpt lat="40.1634742" lon="15.2516366"><ele>433.33333333333337</ele><time>2026-04-11T07:41:48.331Z</time></trkpt><trkpt lat="40.1635182" lon="15.2515588"><ele>434.6666666666667</ele><time>2026-04-11T07:41:49.349Z</time></trkpt><trkpt lat="40.1635401" lon="15.2514332"><ele>436.0</ele><time>2026-04-11T07:41:50.326Z</time></trkpt><trkpt lat="40.1635676" lon="15.2512863"><ele>432.20000000000005</ele><time>2026-04-11T07:41:51.329Z</time></trkpt><trkpt lat="40.1635768" lon="15.2511644"><ele>428.40000000000003</ele><time>2026-04-11T07:41:52.33Z</time></trkpt><trkpt lat="40.1636136" lon="15.2510503"><ele>424.6</ele><time>2026-04-11T07:41:53.325Z</time></trkpt><trkpt lat="40.1636859" lon="15.2509233"><ele>420.8</ele><time>2026-04-11T07:41:54.345Z</time></trkpt><trkpt lat="40.1637767" lon="15.2507837"><ele>417.0</ele><time>2026-04-11T07:41:55.334Z</time></trkpt><trkpt lat="40.1638595" lon="15.2506416"><ele>414.8</ele><time>2026-04-11T07:41:56.338Z</time></trkpt><trkpt lat="40.1639212" lon="15.2505043"><ele>412.6</ele><time>2026-04-11T07:41:57.327Z</time></trkpt><trkpt lat="40.1639764" lon="15.2503925"><ele>410.40000000000003</ele><time>2026-04-11T07:41:58.33Z</time></trkpt><trkpt lat="40.1640476" lon="15.2503302"><ele>408.20000000000005</ele><time>2026-04-11T07:41:59.335Z</time></trkpt><trkpt lat="40.1641296" lon="15.2502873"><ele>406.0</ele><time>2026-04-11T07:42:00.336Z</time></trkpt><trkpt lat="40.1642366" lon="15.2502577"><ele>406.0</ele><time>2026-04-11T07:42:01.333Z</time></trkpt><trkpt lat="40.1643677" lon="15.2502372"><ele>406.0</ele><time>2026-04-11T07:42:02.322Z</time></trkpt><trkpt lat="40.164502" lon="15.2502078"><ele>406.0</ele><time>2026-04-11T07:42:03.33Z</time></trkpt><trkpt lat="40.1646226" lon="15.2501731"><ele>406.0</ele><time>2026-04-11T07:42:04.335Z</time></trkpt><trkpt lat="40.1647225" lon="15.2501136"><ele>406.0</ele><time>2026-04-11T07:42:05.324Z</time></trkpt><trkpt lat="40.1648143" lon="15.2500396"><ele>406.0</ele><time>2026-04-11T07:42:06.334Z</time></trkpt><trkpt lat="40.1649029" lon="15.2499435"><ele>406.0</ele><time>2026-04-11T07:42:07.326Z</time></trkpt><trkpt lat="40.1649839" lon="15.2498159"><ele>406.0</ele><time>2026-04-11T07:42:08.313Z</time></trkpt><trkpt lat="40.1650456" lon="15.2496918"><ele>405.8</ele><time>2026-04-11T07:42:09.328Z</time></trkpt><trkpt lat="40.1650921" lon="15.2495952"><ele>405.6</ele><time>2026-04-11T07:42:10.339Z</time></trkpt><trkpt lat="40.1651785" lon="15.2495225"><ele>405.4</ele><time>2026-04-11T07:42:12.337Z</time></trkpt><trkpt lat="40.1652885" lon="15.2496352"><ele>405.2</ele><time>2026-04-11T07:42:14.339Z</time></trkpt><trkpt lat="40.165348" lon="15.2497537"><ele>405.0</ele><time>2026-04-11T07:42:15.337Z</time></trkpt><trkpt lat="40.1654019" lon="15.249902"><ele>405.75</ele><time>2026-04-11T07:42:16.328Z</time></trkpt><trkpt lat="40.165456" lon="15.2500304"><ele>406.5</ele><time>2026-04-11T07:42:17.326Z</time></trkpt><trkpt lat="40.1655171" lon="15.2501291"><ele>407.25</ele><time>2026-04-11T07:42:18.315Z</time></trkpt><trkpt lat="40.1656131" lon="15.2502098"><ele>408.0</ele><time>2026-04-11T07:42:19.328Z</time></trkpt><trkpt lat="40.1657487" lon="15.2502582"><ele>408.0</ele><time>2026-04-11T07:42:20.324Z</time></trkpt><trkpt lat="40.1658918" lon="15.2503309"><ele>408.0</ele><time>2026-04-11T07:42:21.321Z</time></trkpt><trkpt lat="40.1659999" lon="15.2503931"><ele>408.0</ele><time>2026-04-11T07:42:22.325Z</time></trkpt><trkpt lat="40.1661" lon="15.2504261"><ele>408.0</ele><time>2026-04-11T07:42:23.327Z</time></trkpt><trkpt lat="40.1662222" lon="15.2504151"><ele>408.0</ele><time>2026-04-11T07:42:24.317Z</time></trkpt><trkpt lat="40.1663427" lon="15.2503685"><ele>408.0</ele><time>2026-04-11T07:42:25.33Z</time></trkpt><trkpt lat="40.1664356" lon="15.2503114"><ele>408.0</ele><time>2026-04-11T07:42:26.332Z</time></trkpt><trkpt lat="40.1665072" lon="15.250293"><ele>408.0</ele><time>2026-04-11T07:42:27.325Z</time></trkpt><trkpt lat="40.166591" lon="15.2503025"><ele>408.0</ele><time>2026-04-11T07:42:28.339Z</time></trkpt><trkpt lat="40.1666829" lon="15.2503659"><ele>408.5</ele><time>2026-04-11T07:42:29.332Z</time></trkpt><trkpt lat="40.1667836" lon="15.2504572"><ele>409.0</ele><time>2026-04-11T07:42:30.332Z</time></trkpt><trkpt lat="40.1668904" lon="15.2505448"><ele>409.5</ele><time>2026-04-11T07:42:31.336Z</time></trkpt><trkpt lat="40.1670027" lon="15.2506084"><ele>410.0</ele><time>2026-04-11T07:42:32.323Z</time></trkpt><trkpt lat="40.1671152" lon="15.2506634"><ele>410.0</ele><time>2026-04-11T07:42:33.33Z</time></trkpt><trkpt lat="40.1672256" lon="15.2507497"><ele>410.0</ele><time>2026-04-11T07:42:34.334Z</time></trkpt><trkpt lat="40.1673268" lon="15.2508798"><ele>410.0</ele><time>2026-04-11T07:42:35.323Z</time></trkpt><trkpt lat="40.1674218" lon="15.2509867"><ele>410.0</ele><time>2026-04-11T07:42:36.335Z</time></trkpt><trkpt lat="40.1674951" lon="15.2510593"><ele>407.6</ele><time>2026-04-11T07:42:37.324Z</time></trkpt><trkpt lat="40.1675548" lon="15.2510996"><ele>405.2</ele><time>2026-04-11T07:42:38.334Z</time></trkpt><trkpt lat="40.1676205" lon="15.2511097"><ele>402.79999999999995</ele><time>2026-04-11T07:42:39.328Z</time></trkpt><trkpt lat="40.1677149" lon="15.2509827"><ele>400.4</ele><time>2026-04-11T07:42:41.33Z</time></trkpt><trkpt lat="40.1677568" lon="15.2508601"><ele>398.0</ele><time>2026-04-11T07:42:42.329Z</time></trkpt><trkpt lat="40.1677825" lon="15.2507235"><ele>395.49999999999994</ele><time>2026-04-11T07:42:43.34Z</time></trkpt><trkpt lat="40.1678143" lon="15.250622"><ele>393.0</ele><time>2026-04-11T07:42:44.345Z</time></trkpt><trkpt lat="40.1678636" lon="15.2505431"><ele>390.5</ele><time>2026-04-11T07:42:45.333Z</time></trkpt><trkpt lat="40.1679319" lon="15.2505037"><ele>388.0</ele><time>2026-04-11T07:42:46.34Z</time></trkpt><trkpt lat="40.1680089" lon="15.2505162"><ele>385.5</ele><time>2026-04-11T07:42:47.34Z</time></trkpt><trkpt lat="40.1680966" lon="15.2505355"><ele>383.0</ele><time>2026-04-11T07:42:48.333Z</time></trkpt><trkpt lat="40.1682049" lon="15.2505164"><ele>381.2</ele><time>2026-04-11T07:42:49.326Z</time></trkpt><trkpt lat="40.168313" lon="15.2504544"><ele>379.4</ele><time>2026-04-11T07:42:50.337Z</time></trkpt><trkpt lat="40.1684113" lon="15.2503755"><ele>377.59999999999997</ele><time>2026-04-11T07:42:51.332Z</time></trkpt><trkpt lat="40.1684834" lon="15.2503308"><ele>375.79999999999995</ele><time>2026-04-11T07:42:52.338Z</time></trkpt><trkpt lat="40.1685672" lon="15.2503327"><ele>374.0</ele><time>2026-04-11T07:42:53.335Z</time></trkpt><trkpt lat="40.1686652" lon="15.2503629"><ele>374.0</ele><time>2026-04-11T07:42:54.337Z</time></trkpt><trkpt lat="40.1687876" lon="15.2504047"><ele>374.0</ele><time>2026-04-11T07:42:55.327Z</time></trkpt><trkpt lat="40.1689168" lon="15.2504729"><ele>374.0</ele><time>2026-04-11T07:42:56.332Z</time></trkpt><trkpt lat="40.169048" lon="15.2505451"><ele>374.0</ele><time>2026-04-11T07:42:57.322Z</time></trkpt><trkpt lat="40.1691732" lon="15.2506037"><ele>371.75</ele><time>2026-04-11T07:42:58.34Z</time></trkpt><trkpt lat="40.169285" lon="15.2506488"><ele>369.5</ele><time>2026-04-11T07:42:59.328Z</time></trkpt><trkpt lat="40.1693927" lon="15.2506683"><ele>367.25</ele><time>2026-04-11T07:43:00.321Z</time></trkpt><trkpt lat="40.1695055" lon="15.2506674"><ele>365.0</ele><time>2026-04-11T07:43:01.336Z</time></trkpt><trkpt lat="40.1696136" lon="15.2506142"><ele>365.0</ele><time>2026-04-11T07:43:02.324Z</time></trkpt><trkpt lat="40.1697092" lon="15.250523"><ele>365.0</ele><time>2026-04-11T07:43:03.331Z</time></trkpt><trkpt lat="40.1698022" lon="15.2504193"><ele>365.0</ele><time>2026-04-11T07:43:04.317Z</time></trkpt><trkpt lat="40.169896" lon="15.2503285"><ele>365.0</ele><time>2026-04-11T07:43:05.336Z</time></trkpt><trkpt lat="40.1699881" lon="15.2502705"><ele>364.8</ele><time>2026-04-11T07:43:06.333Z</time></trkpt><trkpt lat="40.1700883" lon="15.2502446"><ele>364.6</ele><time>2026-04-11T07:43:07.335Z</time></trkpt><trkpt lat="40.1701925" lon="15.2502316"><ele>364.4</ele><time>2026-04-11T07:43:08.313Z</time></trkpt><trkpt lat="40.170304" lon="15.2502231"><ele>364.2</ele><time>2026-04-11T07:43:09.324Z</time></trkpt><trkpt lat="40.1704122" lon="15.2501927"><ele>364.0</ele><time>2026-04-11T07:43:10.321Z</time></trkpt><trkpt lat="40.1705012" lon="15.250142"><ele>364.0</ele><time>2026-04-11T07:43:11.307Z</time></trkpt><trkpt lat="40.1705664" lon="15.2500977"><ele>364.0</ele><time>2026-04-11T07:43:12.319Z</time></trkpt><trkpt lat="40.1706899" lon="15.2501173"><ele>364.0</ele><time>2026-04-11T07:43:14.324Z</time></trkpt><trkpt lat="40.1707533" lon="15.2501848"><ele>364.0</ele><time>2026-04-11T07:43:15.321Z</time></trkpt><trkpt lat="40.170819" lon="15.2502864"><ele>364.0</ele><time>2026-04-11T07:43:16.321Z</time></trkpt><trkpt lat="40.1708902" lon="15.2503956"><ele>364.79999999999995</ele><time>2026-04-11T07:43:17.32Z</time></trkpt><trkpt lat="40.1709676" lon="15.2504988"><ele>365.59999999999997</ele><time>2026-04-11T07:43:18.334Z</time></trkpt><trkpt lat="40.1710338" lon="15.2506186"><ele>366.4</ele><time>2026-04-11T07:43:19.317Z</time></trkpt><trkpt lat="40.1710856" lon="15.2507354"><ele>367.2</ele><time>2026-04-11T07:43:20.339Z</time></trkpt><trkpt lat="40.1711353" lon="15.2508214"><ele>368.0</ele><time>2026-04-11T07:43:21.326Z</time></trkpt><trkpt lat="40.1712114" lon="15.2508644"><ele>367.79999999999995</ele><time>2026-04-11T07:43:22.334Z</time></trkpt><trkpt lat="40.17131" lon="15.2508936"><ele>367.6</ele><time>2026-04-11T07:43:23.326Z</time></trkpt><trkpt lat="40.1714245" lon="15.2509122"><ele>367.4</ele><time>2026-04-11T07:43:24.335Z</time></trkpt><trkpt lat="40.1715447" lon="15.2509421"><ele>367.20000000000005</ele><time>2026-04-11T07:43:25.332Z</time></trkpt><trkpt lat="40.1716312" lon="15.2509684"><ele>367.0</ele><time>2026-04-11T07:43:26.326Z</time></trkpt><trkpt lat="40.1716934" lon="15.2510019"><ele>367.0</ele><time>2026-04-11T07:43:27.336Z</time></trkpt><trkpt lat="40.1718043" lon="15.2510987"><ele>367.0</ele><time>2026-04-11T07:43:29.325Z</time></trkpt><trkpt lat="40.1718606" lon="15.2511837"><ele>367.0</ele><time>2026-04-11T07:43:30.338Z</time></trkpt><trkpt lat="40.1719208" lon="15.251284"><ele>367.0</ele><time>2026-04-11T07:43:31.32Z</time></trkpt><trkpt lat="40.1719769" lon="15.2513886"><ele>367.0</ele><time>2026-04-11T07:43:32.338Z</time></trkpt><trkpt lat="40.1720438" lon="15.2514839"><ele>367.25</ele><time>2026-04-11T07:43:33.331Z</time></trkpt><trkpt lat="40.1721388" lon="15.2515577"><ele>367.5</ele><time>2026-04-11T07:43:34.331Z</time></trkpt><trkpt lat="40.1722539" lon="15.2516163"><ele>367.75</ele><time>2026-04-11T07:43:35.341Z</time></trkpt><trkpt lat="40.1723664" lon="15.251673"><ele>368.0</ele><time>2026-04-11T07:43:36.323Z</time></trkpt><trkpt lat="40.1724672" lon="15.2517297"><ele>368.0</ele><time>2026-04-11T07:43:37.333Z</time></trkpt><trkpt lat="40.1725454" lon="15.2517971"><ele>368.0</ele><time>2026-04-11T07:43:38.325Z</time></trkpt><trkpt lat="40.1726048" lon="15.2518931"><ele>368.0</ele><time>2026-04-11T07:43:39.332Z</time></trkpt><trkpt lat="40.1726447" lon="15.2520105"><ele>368.0</ele><time>2026-04-11T07:43:40.317Z</time></trkpt><trkpt lat="40.1726736" lon="15.2521294"><ele>368.0</ele><time>2026-04-11T07:43:41.327Z</time></trkpt><trkpt lat="40.1727139" lon="15.2522119"><ele>368.0</ele><time>2026-04-11T07:43:42.328Z</time></trkpt><trkpt lat="40.1727737" lon="15.2522664"><ele>368.0</ele><time>2026-04-11T07:43:43.327Z</time></trkpt><trkpt lat="40.1728509" lon="15.252297"><ele>368.0</ele><time>2026-04-11T07:43:44.325Z</time></trkpt><trkpt lat="40.1729497" lon="15.2522857"><ele>368.0</ele><time>2026-04-11T07:43:45.327Z</time></trkpt><trkpt lat="40.1730768" lon="15.2522568"><ele>368.0</ele><time>2026-04-11T07:43:46.314Z</time></trkpt><trkpt lat="40.1732156" lon="15.2522574"><ele>368.25</ele><time>2026-04-11T07:43:47.326Z</time></trkpt><trkpt lat="40.1733528" lon="15.2523024"><ele>368.5</ele><time>2026-04-11T07:43:48.322Z</time></trkpt><trkpt lat="40.1734777" lon="15.2523506"><ele>368.75</ele><time>2026-04-11T07:43:49.325Z</time></trkpt><trkpt lat="40.1735857" lon="15.2524146"><ele>369.0</ele><time>2026-04-11T07:43:50.318Z</time></trkpt><trkpt lat="40.1736871" lon="15.2524948"><ele>369.0</ele><time>2026-04-11T07:43:51.326Z</time></trkpt><trkpt lat="40.1737617" lon="15.2525739"><ele>369.0</ele><time>2026-04-11T07:43:52.328Z</time></trkpt><trkpt lat="40.173816" lon="15.2526553"><ele>369.0</ele><time>2026-04-11T07:43:53.327Z</time></trkpt><trkpt lat="40.1738535" lon="15.2527535"><ele>369.0</ele><time>2026-04-11T07:43:54.33Z</time></trkpt><trkpt lat="40.1738683" lon="15.2528759"><ele>369.0</ele><time>2026-04-11T07:43:55.331Z</time></trkpt><trkpt lat="40.173878" lon="15.2530054"><ele>369.0</ele><time>2026-04-11T07:43:56.314Z</time></trkpt><trkpt lat="40.1739131" lon="15.2530939"><ele>369.0</ele><time>2026-04-11T07:43:57.323Z</time></trkpt><trkpt lat="40.1739786" lon="15.2531419"><ele>369.0</ele><time>2026-04-11T07:43:58.321Z</time></trkpt><trkpt lat="40.1740705" lon="15.2531576"><ele>369.0</ele><time>2026-04-11T07:43:59.336Z</time></trkpt><trkpt lat="40.1741547" lon="15.2531909"><ele>369.0</ele><time>2026-04-11T07:44:00.329Z</time></trkpt><trkpt lat="40.1742168" lon="15.2532589"><ele>369.0</ele><time>2026-04-11T07:44:01.323Z</time></trkpt><trkpt lat="40.1742548" lon="15.2533436"><ele>369.5</ele><time>2026-04-11T07:44:02.33Z</time></trkpt><trkpt lat="40.1742863" lon="15.2534938"><ele>370.0</ele><time>2026-04-11T07:44:03.32Z</time></trkpt><trkpt lat="40.1743292" lon="15.2536609"><ele>370.5</ele><time>2026-04-11T07:44:04.323Z</time></trkpt><trkpt lat="40.1743742" lon="15.2538625"><ele>371.0</ele><time>2026-04-11T07:44:05.326Z</time></trkpt><trkpt lat="40.1744186" lon="15.2540765"><ele>371.0</ele><time>2026-04-11T07:44:06.333Z</time></trkpt><trkpt lat="40.1744695" lon="15.2542915"><ele>371.0</ele><time>2026-04-11T07:44:07.32Z</time></trkpt><trkpt lat="40.1745311" lon="15.2544928"><ele>371.0</ele><time>2026-04-11T07:44:08.331Z</time></trkpt><trkpt lat="40.1746032" lon="15.2546866"><ele>373.25</ele><time>2026-04-11T07:44:09.333Z</time></trkpt><trkpt lat="40.1746712" lon="15.2548639"><ele>375.5</ele><time>2026-04-11T07:44:10.336Z</time></trkpt><trkpt lat="40.1747436" lon="15.2550283"><ele>377.75</ele><time>2026-04-11T07:44:11.328Z</time></trkpt><trkpt lat="40.1748178" lon="15.2551878"><ele>380.0</ele><time>2026-04-11T07:44:12.335Z</time></trkpt><trkpt lat="40.1748909" lon="15.2553444"><ele>372.5</ele><time>2026-04-11T07:44:13.315Z</time></trkpt><trkpt lat="40.1749555" lon="15.2555063"><ele>365.0</ele><time>2026-04-11T07:44:14.314Z</time></trkpt><trkpt lat="40.1750305" lon="15.2556556"><ele>357.5</ele><time>2026-04-11T07:44:15.318Z</time></trkpt><trkpt lat="40.1751102" lon="15.2557901"><ele>350.0</ele><time>2026-04-11T07:44:16.328Z</time></trkpt><trkpt lat="40.1751895" lon="15.2559154"><ele>350.0</ele><time>2026-04-11T07:44:17.321Z</time></trkpt><trkpt lat="40.1752488" lon="15.256022"><ele>350.0</ele><time>2026-04-11T07:44:18.335Z</time></trkpt><trkpt lat="40.1752937" lon="15.2561246"><ele>350.0</ele><time>2026-04-11T07:44:19.323Z</time></trkpt><trkpt lat="40.1753227" lon="15.2562392"><ele>350.0</ele><time>2026-04-11T07:44:20.337Z</time></trkpt><trkpt lat="40.1753451" lon="15.2563734"><ele>350.0</ele><time>2026-04-11T07:44:21.334Z</time></trkpt><trkpt lat="40.1753499" lon="15.2565318"><ele>352.25</ele><time>2026-04-11T07:44:22.329Z</time></trkpt><trkpt lat="40.175351" lon="15.2566982"><ele>354.5</ele><time>2026-04-11T07:44:23.336Z</time></trkpt><trkpt lat="40.175343" lon="15.2568673"><ele>356.75</ele><time>2026-04-11T07:44:24.329Z</time></trkpt><trkpt lat="40.1753289" lon="15.2570487"><ele>359.0</ele><time>2026-04-11T07:44:25.314Z</time></trkpt><trkpt lat="40.1753083" lon="15.2572365"><ele>358.0</ele><time>2026-04-11T07:44:26.325Z</time></trkpt><trkpt lat="40.1752915" lon="15.2574338"><ele>357.0</ele><time>2026-04-11T07:44:27.334Z</time></trkpt><trkpt lat="40.1752859" lon="15.2576204"><ele>356.0</ele><time>2026-04-11T07:44:28.366Z</time></trkpt><trkpt lat="40.1752758" lon="15.2578059"><ele>355.0</ele><time>2026-04-11T07:44:29.323Z</time></trkpt><trkpt lat="40.175242" lon="15.2579934"><ele>351.0</ele><time>2026-04-11T07:44:30.329Z</time></trkpt><trkpt lat="40.1752024" lon="15.2581753"><ele>347.0</ele><time>2026-04-11T07:44:31.33Z</time></trkpt><trkpt lat="40.175175" lon="15.2583495"><ele>343.0</ele><time>2026-04-11T07:44:32.338Z</time></trkpt><trkpt lat="40.1751596" lon="15.2584981"><ele>339.0</ele><time>2026-04-11T07:44:33.329Z</time></trkpt><trkpt lat="40.1751499" lon="15.2586326"><ele>339.0</ele><time>2026-04-11T07:44:34.339Z</time></trkpt><trkpt lat="40.1751307" lon="15.2587452"><ele>339.0</ele><time>2026-04-11T07:44:35.326Z</time></trkpt><trkpt lat="40.1750979" lon="15.2588366"><ele>339.0</ele><time>2026-04-11T07:44:36.34Z</time></trkpt><trkpt lat="40.1750442" lon="15.2589013"><ele>339.0</ele><time>2026-04-11T07:44:37.329Z</time></trkpt><trkpt lat="40.1749633" lon="15.2589392"><ele>339.0</ele><time>2026-04-11T07:44:38.328Z</time></trkpt><trkpt lat="40.1748753" lon="15.2589347"><ele>339.0</ele><time>2026-04-11T07:44:39.321Z</time></trkpt><trkpt lat="40.1747925" lon="15.258907"><ele>340.79999999999995</ele><time>2026-04-11T07:44:40.329Z</time></trkpt><trkpt lat="40.1747171" lon="15.2588539"><ele>342.59999999999997</ele><time>2026-04-11T07:44:41.313Z</time></trkpt><trkpt lat="40.1746463" lon="15.2587721"><ele>344.4</ele><time>2026-04-11T07:44:42.326Z</time></trkpt><trkpt lat="40.1745701" lon="15.2587038"><ele>346.2</ele><time>2026-04-11T07:44:43.327Z</time></trkpt><trkpt lat="40.1745057" lon="15.2586544"><ele>348.0</ele><time>2026-04-11T07:44:44.333Z</time></trkpt><trkpt lat="40.1744038" lon="15.2586769"><ele>348.0</ele><time>2026-04-11T07:44:46.345Z</time></trkpt><trkpt lat="40.1743579" lon="15.2587532"><ele>348.0</ele><time>2026-04-11T07:44:47.317Z</time></trkpt><trkpt lat="40.1743351" lon="15.2588498"><ele>348.0</ele><time>2026-04-11T07:44:48.314Z</time></trkpt><trkpt lat="40.1743375" lon="15.2589735"><ele>348.0</ele><time>2026-04-11T07:44:49.331Z</time></trkpt><trkpt lat="40.1743869" lon="15.2591292"><ele>348.0</ele><time>2026-04-11T07:44:50.331Z</time></trkpt><trkpt lat="40.1744457" lon="15.2592973"><ele>346.0</ele><time>2026-04-11T07:44:51.321Z</time></trkpt><trkpt lat="40.174502" lon="15.2594686"><ele>344.0</ele><time>2026-04-11T07:44:52.321Z</time></trkpt><trkpt lat="40.1745518" lon="15.2596203"><ele>342.0</ele><time>2026-04-11T07:44:53.336Z</time></trkpt><trkpt lat="40.1745946" lon="15.2597508"><ele>340.0</ele><time>2026-04-11T07:44:54.326Z</time></trkpt><trkpt lat="40.1746268" lon="15.2598625"><ele>338.66666666666663</ele><time>2026-04-11T07:44:55.323Z</time></trkpt><trkpt lat="40.1746473" lon="15.2599545"><ele>337.3333333333333</ele><time>2026-04-11T07:44:56.326Z</time></trkpt><trkpt lat="40.1746472" lon="15.2600497"><ele>336.0</ele><time>2026-04-11T07:44:57.327Z</time></trkpt><trkpt lat="40.1746162" lon="15.2601492"><ele>334.6666666666667</ele><time>2026-04-11T07:44:58.33Z</time></trkpt><trkpt lat="40.1745663" lon="15.2602403"><ele>333.33333333333337</ele><time>2026-04-11T07:44:59.33Z</time></trkpt><trkpt lat="40.174546" lon="15.2603391"><ele>332.0</ele><time>2026-04-11T07:45:00.33Z</time></trkpt><trkpt lat="40.1745728" lon="15.260443"><ele>332.0</ele><time>2026-04-11T07:45:01.318Z</time></trkpt><trkpt lat="40.1746409" lon="15.2605419"><ele>332.0</ele><time>2026-04-11T07:45:02.333Z</time></trkpt><trkpt lat="40.1747265" lon="15.2606274"><ele>332.0</ele><time>2026-04-11T07:45:03.319Z</time></trkpt><trkpt lat="40.1748318" lon="15.2607016"><ele>332.0</ele><time>2026-04-11T07:45:04.322Z</time></trkpt><trkpt lat="40.1749468" lon="15.2607481"><ele>332.0</ele><time>2026-04-11T07:45:05.325Z</time></trkpt><trkpt lat="40.175046" lon="15.2607519"><ele>328.0</ele><time>2026-04-11T07:45:06.326Z</time></trkpt><trkpt lat="40.1751203" lon="15.2607319"><ele>324.0</ele><time>2026-04-11T07:45:07.326Z</time></trkpt><trkpt lat="40.1752041" lon="15.2607925"><ele>320.0</ele><time>2026-04-11T07:45:09.335Z</time></trkpt><trkpt lat="40.1751559" lon="15.2609569"><ele>316.0</ele><time>2026-04-11T07:45:11.329Z</time></trkpt><trkpt lat="40.1750862" lon="15.2610613"><ele>312.0</ele><time>2026-04-11T07:45:12.335Z</time></trkpt><trkpt lat="40.1750201" lon="15.2611697"><ele>312.0</ele><time>2026-04-11T07:45:13.333Z</time></trkpt><trkpt lat="40.1749736" lon="15.2612835"><ele>312.0</ele><time>2026-04-11T07:45:14.331Z</time></trkpt><trkpt lat="40.1749622" lon="15.261409"><ele>312.0</ele><time>2026-04-11T07:45:15.329Z</time></trkpt><trkpt lat="40.17497" lon="15.2615463"><ele>312.0</ele><time>2026-04-11T07:45:16.329Z</time></trkpt><trkpt lat="40.1749895" lon="15.2616635"><ele>312.0</ele><time>2026-04-11T07:45:17.336Z</time></trkpt><trkpt lat="40.175017" lon="15.2617548"><ele>311.2</ele><time>2026-04-11T07:45:18.324Z</time></trkpt><trkpt lat="40.1750646" lon="15.2618383"><ele>310.4</ele><time>2026-04-11T07:45:19.319Z</time></trkpt><trkpt lat="40.1751367" lon="15.2619266"><ele>309.6</ele><time>2026-04-11T07:45:20.316Z</time></trkpt><trkpt lat="40.1752192" lon="15.2620124"><ele>308.8</ele><time>2026-04-11T07:45:21.334Z</time></trkpt><trkpt lat="40.1753062" lon="15.2620708"><ele>308.0</ele><time>2026-04-11T07:45:22.341Z</time></trkpt><trkpt lat="40.1753911" lon="15.2620885"><ele>308.0</ele><time>2026-04-11T07:45:23.339Z</time></trkpt><trkpt lat="40.1754593" lon="15.2620618"><ele>308.0</ele><time>2026-04-11T07:45:24.337Z</time></trkpt><trkpt lat="40.1755286" lon="15.2620045"><ele>308.0</ele><time>2026-04-11T07:45:25.333Z</time></trkpt><trkpt lat="40.1756109" lon="15.2619211"><ele>308.0</ele><time>2026-04-11T07:45:26.335Z</time></trkpt><trkpt lat="40.1757155" lon="15.2618266"><ele>308.0</ele><time>2026-04-11T07:45:27.318Z</time></trkpt><trkpt lat="40.175824" lon="15.2617236"><ele>306.75</ele><time>2026-04-11T07:45:28.337Z</time></trkpt><trkpt lat="40.1759212" lon="15.2616327"><ele>305.5</ele><time>2026-04-11T07:45:29.332Z</time></trkpt><trkpt lat="40.1760114" lon="15.2615482"><ele>304.25</ele><time>2026-04-11T07:45:30.321Z</time></trkpt><trkpt lat="40.1761059" lon="15.2614644"><ele>303.0</ele><time>2026-04-11T07:45:31.347Z</time></trkpt><trkpt lat="40.1762108" lon="15.2613877"><ele>301.0</ele><time>2026-04-11T07:45:32.322Z</time></trkpt><trkpt lat="40.1763169" lon="15.2613121"><ele>299.0</ele><time>2026-04-11T07:45:33.319Z</time></trkpt><trkpt lat="40.176421" lon="15.2612189"><ele>297.0</ele><time>2026-04-11T07:45:34.309Z</time></trkpt><trkpt lat="40.1765152" lon="15.2610989"><ele>295.0</ele><time>2026-04-11T07:45:35.326Z</time></trkpt><trkpt lat="40.176607" lon="15.2609741"><ele>295.0</ele><time>2026-04-11T07:45:36.32Z</time></trkpt><trkpt lat="40.1767005" lon="15.2608874"><ele>295.0</ele><time>2026-04-11T07:45:37.334Z</time></trkpt><trkpt lat="40.1767984" lon="15.2608247"><ele>295.0</ele><time>2026-04-11T07:45:38.333Z</time></trkpt><trkpt lat="40.1768939" lon="15.2607488"><ele>295.0</ele><time>2026-04-11T07:45:39.323Z</time></trkpt><trkpt lat="40.1769758" lon="15.2606795"><ele>295.0</ele><time>2026-04-11T07:45:40.33Z</time></trkpt><trkpt lat="40.1770419" lon="15.2606117"><ele>293.16666666666663</ele><time>2026-04-11T07:45:41.318Z</time></trkpt><trkpt lat="40.1770969" lon="15.2605426"><ele>291.3333333333333</ele><time>2026-04-11T07:45:42.331Z</time></trkpt><trkpt lat="40.1771302" lon="15.2604588"><ele>289.5</ele><time>2026-04-11T07:45:43.324Z</time></trkpt><trkpt lat="40.1771226" lon="15.2603025"><ele>287.6666666666667</ele><time>2026-04-11T07:45:45.332Z</time></trkpt><trkpt lat="40.1770933" lon="15.2602154"><ele>285.83333333333337</ele><time>2026-04-11T07:45:46.333Z</time></trkpt><trkpt lat="40.1770876" lon="15.260124"><ele>284.0</ele><time>2026-04-11T07:45:47.325Z</time></trkpt><trkpt lat="40.1771092" lon="15.2600386"><ele>284.0</ele><time>2026-04-11T07:45:48.328Z</time></trkpt><trkpt lat="40.1771535" lon="15.2599779"><ele>284.0</ele><time>2026-04-11T07:45:49.33Z</time></trkpt><trkpt lat="40.1772142" lon="15.2599442"><ele>284.0</ele><time>2026-04-11T07:45:50.331Z</time></trkpt><trkpt lat="40.1772925" lon="15.2599275"><ele>284.0</ele><time>2026-04-11T07:45:51.32Z</time></trkpt><trkpt lat="40.1773697" lon="15.2598912"><ele>284.0</ele><time>2026-04-11T07:45:52.332Z</time></trkpt><trkpt lat="40.1774486" lon="15.2598187"><ele>284.0</ele><time>2026-04-11T07:45:53.338Z</time></trkpt><trkpt lat="40.1775014" lon="15.2596977"><ele>285.0</ele><time>2026-04-11T07:45:54.327Z</time></trkpt><trkpt lat="40.1775459" lon="15.2595601"><ele>286.0</ele><time>2026-04-11T07:45:55.327Z</time></trkpt><trkpt lat="40.1775805" lon="15.2594"><ele>287.0</ele><time>2026-04-11T07:45:56.329Z</time></trkpt><trkpt lat="40.1776169" lon="15.2592318"><ele>288.0</ele><time>2026-04-11T07:45:57.338Z</time></trkpt><trkpt lat="40.1776458" lon="15.2590706"><ele>286.8</ele><time>2026-04-11T07:45:58.322Z</time></trkpt><trkpt lat="40.1776606" lon="15.2589139"><ele>285.6</ele><time>2026-04-11T07:45:59.334Z</time></trkpt><trkpt lat="40.1776834" lon="15.2587692"><ele>284.4</ele><time>2026-04-11T07:46:00.325Z</time></trkpt><trkpt lat="40.177707" lon="15.2586324"><ele>283.2</ele><time>2026-04-11T07:46:01.335Z</time></trkpt><trkpt lat="40.1777282" lon="15.2585056"><ele>282.0</ele><time>2026-04-11T07:46:02.336Z</time></trkpt><trkpt lat="40.1777596" lon="15.2584004"><ele>282.0</ele><time>2026-04-11T07:46:03.325Z</time></trkpt><trkpt lat="40.177802" lon="15.258323"><ele>282.0</ele><time>2026-04-11T07:46:04.342Z</time></trkpt><trkpt lat="40.1778619" lon="15.2582719"><ele>282.0</ele><time>2026-04-11T07:46:05.322Z</time></trkpt><trkpt lat="40.177938" lon="15.2582346"><ele>282.0</ele><time>2026-04-11T07:46:06.327Z</time></trkpt><trkpt lat="40.178037" lon="15.2581987"><ele>282.0</ele><time>2026-04-11T07:46:07.333Z</time></trkpt><trkpt lat="40.178151" lon="15.2581662"><ele>282.0</ele><time>2026-04-11T07:46:08.334Z</time></trkpt><trkpt lat="40.1782679" lon="15.2581357"><ele>281.2</ele><time>2026-04-11T07:46:09.327Z</time></trkpt><trkpt lat="40.1783746" lon="15.2581108"><ele>280.4</ele><time>2026-04-11T07:46:10.328Z</time></trkpt><trkpt lat="40.1784684" lon="15.2580854"><ele>279.6</ele><time>2026-04-11T07:46:11.338Z</time></trkpt><trkpt lat="40.1785576" lon="15.2580631"><ele>278.8</ele><time>2026-04-11T07:46:12.33Z</time></trkpt><trkpt lat="40.1786438" lon="15.2580481"><ele>278.0</ele><time>2026-04-11T07:46:13.337Z</time></trkpt><trkpt lat="40.1787223" lon="15.2580406"><ele>278.0</ele><time>2026-04-11T07:46:14.325Z</time></trkpt><trkpt lat="40.1788059" lon="15.2580673"><ele>278.0</ele><time>2026-04-11T07:46:15.315Z</time></trkpt><trkpt lat="40.178887" lon="15.2581246"><ele>278.0</ele><time>2026-04-11T07:46:16.327Z</time></trkpt><trkpt lat="40.1789735" lon="15.2582045"><ele>278.0</ele><time>2026-04-11T07:46:17.33Z</time></trkpt><trkpt lat="40.1790619" lon="15.2582725"><ele>278.0</ele><time>2026-04-11T07:46:18.327Z</time></trkpt><trkpt lat="40.1791537" lon="15.2583253"><ele>280.2</ele><time>2026-04-11T07:46:19.345Z</time></trkpt><trkpt lat="40.1792361" lon="15.2583514"><ele>282.4</ele><time>2026-04-11T07:46:20.329Z</time></trkpt><trkpt lat="40.1793199" lon="15.2583448"><ele>284.59999999999997</ele><time>2026-04-11T07:46:21.331Z</time></trkpt><trkpt lat="40.1794088" lon="15.258322"><ele>286.8</ele><time>2026-04-11T07:46:22.326Z</time></trkpt><trkpt lat="40.1795016" lon="15.2582982"><ele>289.0</ele><time>2026-04-11T07:46:23.332Z</time></trkpt><trkpt lat="40.1795983" lon="15.2582693"><ele>289.0</ele><time>2026-04-11T07:46:24.329Z</time></trkpt><trkpt lat="40.1796955" lon="15.2582434"><ele>289.0</ele><time>2026-04-11T07:46:25.331Z</time></trkpt><trkpt lat="40.1797795" lon="15.258216"><ele>289.0</ele><time>2026-04-11T07:46:26.328Z</time></trkpt><trkpt lat="40.1798589" lon="15.2581819"><ele>289.0</ele><time>2026-04-11T07:46:27.342Z</time></trkpt><trkpt lat="40.1799334" lon="15.2581584"><ele>289.0</ele><time>2026-04-11T07:46:28.337Z</time></trkpt><trkpt lat="40.1799942" lon="15.2581358"><ele>289.0</ele><time>2026-04-11T07:46:29.322Z</time></trkpt><trkpt lat="40.1800945" lon="15.2581698"><ele>288.5</ele><time>2026-04-11T07:46:31.338Z</time></trkpt><trkpt lat="40.1801411" lon="15.2582402"><ele>288.0</ele><time>2026-04-11T07:46:32.331Z</time></trkpt><trkpt lat="40.1801913" lon="15.258336"><ele>287.5</ele><time>2026-04-11T07:46:33.32Z</time></trkpt><trkpt lat="40.1802496" lon="15.2584436"><ele>287.0</ele><time>2026-04-11T07:46:34.317Z</time></trkpt><trkpt lat="40.1803093" lon="15.2585387"><ele>286.5</ele><time>2026-04-11T07:46:35.32Z</time></trkpt><trkpt lat="40.1803527" lon="15.2586112"><ele>286.0</ele><time>2026-04-11T07:46:36.326Z</time></trkpt><trkpt lat="40.1804145" lon="15.2587219"><ele>286.0</ele><time>2026-04-11T07:46:38.328Z</time></trkpt><trkpt lat="40.1804955" lon="15.2588422"><ele>286.0</ele><time>2026-04-11T07:46:40.333Z</time></trkpt><trkpt lat="40.180552" lon="15.2589355"><ele>286.0</ele><time>2026-04-11T07:46:41.321Z</time></trkpt><trkpt lat="40.1806093" lon="15.2590424"><ele>286.0</ele><time>2026-04-11T07:46:42.319Z</time></trkpt><trkpt lat="40.1806592" lon="15.2591655"><ele>286.0</ele><time>2026-04-11T07:46:43.335Z</time></trkpt><trkpt lat="40.1807289" lon="15.2592816"><ele>286.2</ele><time>2026-04-11T07:46:44.322Z</time></trkpt><trkpt lat="40.1808121" lon="15.2593869"><ele>286.40000000000003</ele><time>2026-04-11T07:46:45.322Z</time></trkpt><trkpt lat="40.1808949" lon="15.2594628"><ele>286.6</ele><time>2026-04-11T07:46:46.321Z</time></trkpt><trkpt lat="40.1809654" lon="15.2595221"><ele>286.8</ele><time>2026-04-11T07:46:47.324Z</time></trkpt><trkpt lat="40.1810296" lon="15.2595579"><ele>287.0</ele><time>2026-04-11T07:46:48.319Z</time></trkpt><trkpt lat="40.1811523" lon="15.2595427"><ele>287.0</ele><time>2026-04-11T07:46:50.32Z</time></trkpt><trkpt lat="40.1812164" lon="15.2594926"><ele>287.0</ele><time>2026-04-11T07:46:51.341Z</time></trkpt><trkpt lat="40.181258" lon="15.2594147"><ele>287.0</ele><time>2026-04-11T07:46:52.32Z</time></trkpt><trkpt lat="40.1812704" lon="15.2593137"><ele>287.0</ele><time>2026-04-11T07:46:53.341Z</time></trkpt><trkpt lat="40.1812569" lon="15.2591823"><ele>287.0</ele><time>2026-04-11T07:46:54.336Z</time></trkpt><trkpt lat="40.1812201" lon="15.2590256"><ele>286.0</ele><time>2026-04-11T07:46:55.334Z</time></trkpt><trkpt lat="40.1811902" lon="15.2588438"><ele>285.0</ele><time>2026-04-11T07:46:56.33Z</time></trkpt><trkpt lat="40.1811691" lon="15.2586479"><ele>284.0</ele><time>2026-04-11T07:46:57.336Z</time></trkpt><trkpt lat="40.1811619" lon="15.2584726"><ele>283.0</ele><time>2026-04-11T07:46:58.328Z</time></trkpt><trkpt lat="40.1811649" lon="15.2583038"><ele>283.0</ele><time>2026-04-11T07:46:59.33Z</time></trkpt><trkpt lat="40.1811739" lon="15.2581604"><ele>283.0</ele><time>2026-04-11T07:47:00.33Z</time></trkpt><trkpt lat="40.1811823" lon="15.2580445"><ele>283.0</ele><time>2026-04-11T07:47:01.336Z</time></trkpt><trkpt lat="40.1811967" lon="15.2579549"><ele>283.0</ele><time>2026-04-11T07:47:02.331Z</time></trkpt><trkpt lat="40.1812369" lon="15.2578794"><ele>283.0</ele><time>2026-04-11T07:47:03.336Z</time></trkpt><trkpt lat="40.181302" lon="15.257827"><ele>283.0</ele><time>2026-04-11T07:47:04.335Z</time></trkpt><trkpt lat="40.1813844" lon="15.2577945"><ele>281.75</ele><time>2026-04-11T07:47:05.319Z</time></trkpt><trkpt lat="40.1814962" lon="15.2577818"><ele>280.5</ele><time>2026-04-11T07:47:06.335Z</time></trkpt><trkpt lat="40.181629" lon="15.2577767"><ele>279.25</ele><time>2026-04-11T07:47:07.329Z</time></trkpt><trkpt lat="40.1817781" lon="15.2577618"><ele>278.0</ele><time>2026-04-11T07:47:08.362Z</time></trkpt><trkpt lat="40.1819264" lon="15.2577479"><ele>280.4</ele><time>2026-04-11T07:47:09.335Z</time></trkpt><trkpt lat="40.182051" lon="15.2577358"><ele>282.8</ele><time>2026-04-11T07:47:10.344Z</time></trkpt><trkpt lat="40.1821519" lon="15.2577391"><ele>285.2</ele><time>2026-04-11T07:47:11.34Z</time></trkpt><trkpt lat="40.1822471" lon="15.25777"><ele>287.6</ele><time>2026-04-11T07:47:12.325Z</time></trkpt><trkpt lat="40.1823524" lon="15.2578347"><ele>290.0</ele><time>2026-04-11T07:47:13.352Z</time></trkpt><trkpt lat="40.1824822" lon="15.2579276"><ele>291.0</ele><time>2026-04-11T07:47:14.314Z</time></trkpt><trkpt lat="40.1826343" lon="15.2580313"><ele>292.0</ele><time>2026-04-11T07:47:15.335Z</time></trkpt><trkpt lat="40.1827918" lon="15.2581657"><ele>293.0</ele><time>2026-04-11T07:47:16.337Z</time></trkpt><trkpt lat="40.1829641" lon="15.2583107"><ele>296.6666666666667</ele><time>2026-04-11T07:47:17.336Z</time></trkpt><trkpt lat="40.1831276" lon="15.2584457"><ele>300.3333333333333</ele><time>2026-04-11T07:47:18.338Z</time></trkpt><trkpt lat="40.1832601" lon="15.2585584"><ele>304.0</ele><time>2026-04-11T07:47:19.333Z</time></trkpt><trkpt lat="40.18337" lon="15.2586498"><ele>304.3333333333333</ele><time>2026-04-11T07:47:20.344Z</time></trkpt><trkpt lat="40.1834573" lon="15.2586989"><ele>304.66666666666663</ele><time>2026-04-11T07:47:21.325Z</time></trkpt><trkpt lat="40.1835349" lon="15.2587176"><ele>305.0</ele><time>2026-04-11T07:47:22.346Z</time></trkpt><trkpt lat="40.1835976" lon="15.258677"><ele>305.3333333333333</ele><time>2026-04-11T07:47:23.332Z</time></trkpt><trkpt lat="40.1836448" lon="15.2586085"><ele>305.6666666666667</ele><time>2026-04-11T07:47:24.343Z</time></trkpt><trkpt lat="40.1836771" lon="15.2585051"><ele>306.0</ele><time>2026-04-11T07:47:25.327Z</time></trkpt><trkpt lat="40.1837062" lon="15.2583922"><ele>306.0</ele><time>2026-04-11T07:47:26.324Z</time></trkpt><trkpt lat="40.1837437" lon="15.2582355"><ele>306.0</ele><time>2026-04-11T07:47:27.334Z</time></trkpt><trkpt lat="40.1837894" lon="15.2580523"><ele>306.0</ele><time>2026-04-11T07:47:28.333Z</time></trkpt><trkpt lat="40.1838402" lon="15.2578835"><ele>306.0</ele><time>2026-04-11T07:47:29.329Z</time></trkpt><trkpt lat="40.1838869" lon="15.2577538"><ele>305.5</ele><time>2026-04-11T07:47:30.339Z</time></trkpt><trkpt lat="40.1839239" lon="15.2576731"><ele>305.0</ele><time>2026-04-11T07:47:31.328Z</time></trkpt><trkpt lat="40.1840342" lon="15.2576334"><ele>304.5</ele><time>2026-04-11T07:47:33.333Z</time></trkpt><trkpt lat="40.1840906" lon="15.257678"><ele>304.0</ele><time>2026-04-11T07:47:34.329Z</time></trkpt><trkpt lat="40.184151" lon="15.2577346"><ele>303.5</ele><time>2026-04-11T07:47:35.345Z</time></trkpt><trkpt lat="40.1842276" lon="15.2577912"><ele>303.0</ele><time>2026-04-11T07:47:36.335Z</time></trkpt><trkpt lat="40.1843283" lon="15.2578264"><ele>305.0</ele><time>2026-04-11T07:47:37.327Z</time></trkpt><trkpt lat="40.1844477" lon="15.2578349"><ele>307.0</ele><time>2026-04-11T07:47:38.324Z</time></trkpt><trkpt lat="40.1845742" lon="15.2578135"><ele>309.0</ele><time>2026-04-11T07:47:39.321Z</time></trkpt><trkpt lat="40.1847047" lon="15.2577858"><ele>311.0</ele><time>2026-04-11T07:47:40.332Z</time></trkpt><trkpt lat="40.1848485" lon="15.2577652"><ele>312.0</ele><time>2026-04-11T07:47:41.336Z</time></trkpt><trkpt lat="40.1849923" lon="15.257748"><ele>313.0</ele><time>2026-04-11T07:47:42.328Z</time></trkpt><trkpt lat="40.1851416" lon="15.2577403"><ele>314.0</ele><time>2026-04-11T07:47:43.336Z</time></trkpt><trkpt lat="40.1852855" lon="15.2577412"><ele>315.0</ele><time>2026-04-11T07:47:44.32Z</time></trkpt><trkpt lat="40.1854419" lon="15.2577603"><ele>315.0</ele><time>2026-04-11T07:47:45.329Z</time></trkpt><trkpt lat="40.1856078" lon="15.2577866"><ele>315.0</ele><time>2026-04-11T07:47:46.332Z</time></trkpt><trkpt lat="40.1857768" lon="15.2578128"><ele>315.0</ele><time>2026-04-11T07:47:47.318Z</time></trkpt><trkpt lat="40.1859476" lon="15.2578522"><ele>316.3333333333333</ele><time>2026-04-11T07:47:48.356Z</time></trkpt><trkpt lat="40.1861259" lon="15.2579051"><ele>317.66666666666663</ele><time>2026-04-11T07:47:49.336Z</time></trkpt><trkpt lat="40.1863119" lon="15.2579482"><ele>319.0</ele><time>2026-04-11T07:47:50.328Z</time></trkpt><trkpt lat="40.1865031" lon="15.2579676"><ele>319.25</ele><time>2026-04-11T07:47:51.334Z</time></trkpt><trkpt lat="40.1866773" lon="15.2579835"><ele>319.5</ele><time>2026-04-11T07:47:52.334Z</time></trkpt><trkpt lat="40.1868268" lon="15.2580028"><ele>319.75</ele><time>2026-04-11T07:47:53.335Z</time></trkpt><trkpt lat="40.1869467" lon="15.2580267"><ele>320.0</ele><time>2026-04-11T07:47:54.325Z</time></trkpt><trkpt lat="40.1870492" lon="15.2580437"><ele>320.0</ele><time>2026-04-11T07:47:55.33Z</time></trkpt><trkpt lat="40.1871467" lon="15.2580453"><ele>320.0</ele><time>2026-04-11T07:47:56.332Z</time></trkpt><trkpt lat="40.1872479" lon="15.2580181"><ele>320.0</ele><time>2026-04-11T07:47:57.343Z</time></trkpt><trkpt lat="40.1873467" lon="15.257959"><ele>320.0</ele><time>2026-04-11T07:47:58.334Z</time></trkpt><trkpt lat="40.1874324" lon="15.2579162"><ele>320.0</ele><time>2026-04-11T07:47:59.334Z</time></trkpt><trkpt lat="40.1875274" lon="15.2579113"><ele>320.0</ele><time>2026-04-11T07:48:00.348Z</time></trkpt><trkpt lat="40.1876347" lon="15.2579409"><ele>320.0</ele><time>2026-04-11T07:48:01.33Z</time></trkpt><trkpt lat="40.1877497" lon="15.2580065"><ele>320.0</ele><time>2026-04-11T07:48:02.326Z</time></trkpt><trkpt lat="40.1878802" lon="15.2580979"><ele>320.0</ele><time>2026-04-11T07:48:03.336Z</time></trkpt><trkpt lat="40.1880039" lon="15.2581837"><ele>323.0</ele><time>2026-04-11T07:48:04.34Z</time></trkpt><trkpt lat="40.1881235" lon="15.2582823"><ele>326.0</ele><time>2026-04-11T07:48:05.317Z</time></trkpt><trkpt lat="40.1882458" lon="15.2583823"><ele>329.0</ele><time>2026-04-11T07:48:06.324Z</time></trkpt><trkpt lat="40.188365" lon="15.2584879"><ele>332.0</ele><time>2026-04-11T07:48:07.336Z</time></trkpt><trkpt lat="40.1884761" lon="15.2586076"><ele>332.25</ele><time>2026-04-11T07:48:08.32Z</time></trkpt><trkpt lat="40.1886021" lon="15.2587269"><ele>332.5</ele><time>2026-04-11T07:48:09.326Z</time></trkpt><trkpt lat="40.1887209" lon="15.2588311"><ele>332.75</ele><time>2026-04-11T07:48:10.345Z</time></trkpt><trkpt lat="40.1888217" lon="15.2589076"><ele>333.0</ele><time>2026-04-11T07:48:11.328Z</time></trkpt><trkpt lat="40.1889044" lon="15.2589662"><ele>334.79999999999995</ele><time>2026-04-11T07:48:12.347Z</time></trkpt><trkpt lat="40.188982" lon="15.2590271"><ele>336.6</ele><time>2026-04-11T07:48:13.335Z</time></trkpt><trkpt lat="40.1890416" lon="15.2591323"><ele>338.4</ele><time>2026-04-11T07:48:14.342Z</time></trkpt><trkpt lat="40.1890954" lon="15.2592567"><ele>340.20000000000005</ele><time>2026-04-11T07:48:15.335Z</time></trkpt><trkpt lat="40.1891279" lon="15.2594015"><ele>342.0</ele><time>2026-04-11T07:48:16.332Z</time></trkpt><trkpt lat="40.1891618" lon="15.2595162"><ele>342.0</ele><time>2026-04-11T07:48:17.331Z</time></trkpt><trkpt lat="40.189219" lon="15.2595688"><ele>342.0</ele><time>2026-04-11T07:48:18.327Z</time></trkpt><trkpt lat="40.1892886" lon="15.2595604"><ele>342.0</ele><time>2026-04-11T07:48:19.33Z</time></trkpt><trkpt lat="40.1893622" lon="15.2595353"><ele>342.0</ele><time>2026-04-11T07:48:20.336Z</time></trkpt><trkpt lat="40.189432" lon="15.2594715"><ele>342.0</ele><time>2026-04-11T07:48:21.331Z</time></trkpt><trkpt lat="40.1895067" lon="15.2594016"><ele>342.0</ele><time>2026-04-11T07:48:22.335Z</time></trkpt><trkpt lat="40.1896023" lon="15.2593649"><ele>342.0</ele><time>2026-04-11T07:48:23.335Z</time></trkpt><trkpt lat="40.1897149" lon="15.2593582"><ele>342.0</ele><time>2026-04-11T07:48:24.337Z</time></trkpt><trkpt lat="40.1898191" lon="15.2593661"><ele>342.0</ele><time>2026-04-11T07:48:25.335Z</time></trkpt><trkpt lat="40.1899078" lon="15.2593793"><ele>342.0</ele><time>2026-04-11T07:48:26.335Z</time></trkpt><trkpt lat="40.1899783" lon="15.259347"><ele>342.0</ele><time>2026-04-11T07:48:27.33Z</time></trkpt><trkpt lat="40.1900258" lon="15.2592686"><ele>343.40000000000003</ele><time>2026-04-11T07:48:28.339Z</time></trkpt><trkpt lat="40.1900618" lon="15.2591717"><ele>344.8</ele><time>2026-04-11T07:48:29.327Z</time></trkpt><trkpt lat="40.1900771" lon="15.2590459"><ele>346.2</ele><time>2026-04-11T07:48:30.327Z</time></trkpt><trkpt lat="40.1900834" lon="15.2589124"><ele>347.6</ele><time>2026-04-11T07:48:31.328Z</time></trkpt><trkpt lat="40.1901006" lon="15.2587674"><ele>349.0</ele><time>2026-04-11T07:48:32.326Z</time></trkpt><trkpt lat="40.1901493" lon="15.2586225"><ele>349.0</ele><time>2026-04-11T07:48:33.328Z</time></trkpt><trkpt lat="40.1902203" lon="15.2584802"><ele>349.0</ele><time>2026-04-11T07:48:34.33Z</time></trkpt><trkpt lat="40.1902894" lon="15.2583278"><ele>349.0</ele><time>2026-04-11T07:48:35.334Z</time></trkpt><trkpt lat="40.1903365" lon="15.258192"><ele>349.0</ele><time>2026-04-11T07:48:36.353Z</time></trkpt><trkpt lat="40.1903564" lon="15.2580741"><ele>349.3333333333333</ele><time>2026-04-11T07:48:37.333Z</time></trkpt><trkpt lat="40.1903712" lon="15.257958"><ele>349.66666666666663</ele><time>2026-04-11T07:48:39.339Z</time></trkpt><trkpt lat="40.1904261" lon="15.2578761"><ele>350.0</ele><time>2026-04-11T07:48:48.325Z</time></trkpt><trkpt lat="40.190536" lon="15.2578203"><ele>350.3333333333333</ele><time>2026-04-11T07:48:50.338Z</time></trkpt><trkpt lat="40.1906087" lon="15.2578319"><ele>350.6666666666667</ele><time>2026-04-11T07:48:51.328Z</time></trkpt><trkpt lat="40.1906721" lon="15.2578687"><ele>351.0</ele><time>2026-04-11T07:48:52.357Z</time></trkpt><trkpt lat="40.1907313" lon="15.2579172"><ele>351.0</ele><time>2026-04-11T07:48:53.322Z</time></trkpt><trkpt lat="40.190775" lon="15.2580242"><ele>351.0</ele><time>2026-04-11T07:48:55.337Z</time></trkpt><trkpt lat="40.1908327" lon="15.2580859"><ele>351.0</ele><time>2026-04-11T07:48:58.33Z</time></trkpt><trkpt lat="40.1908193" lon="15.2579756"><ele>351.0</ele><time>2026-04-11T07:49:03.332Z</time></trkpt><trkpt lat="40.1907199" lon="15.2578872"><ele>351.0</ele><time>2026-04-11T07:49:05.337Z</time></trkpt><trkpt lat="40.1906578" lon="15.2578294"><ele>351.0</ele><time>2026-04-11T07:49:06.33Z</time></trkpt><trkpt lat="40.1905956" lon="15.2577924"><ele>351.4</ele><time>2026-04-11T07:49:07.331Z</time></trkpt><trkpt lat="40.1904951" lon="15.2577808"><ele>351.8</ele><time>2026-04-11T07:49:09.352Z</time></trkpt><trkpt lat="40.1903781" lon="15.257784"><ele>352.2</ele><time>2026-04-11T07:49:11.33Z</time></trkpt><trkpt lat="40.1902625" lon="15.2577581"><ele>352.59999999999997</ele><time>2026-04-11T07:49:13.342Z</time></trkpt><trkpt lat="40.190196" lon="15.257721"><ele>353.0</ele><time>2026-04-11T07:49:14.332Z</time></trkpt><trkpt lat="40.1901242" lon="15.2576358"><ele>353.0</ele><time>2026-04-11T07:49:15.347Z</time></trkpt><trkpt lat="40.19005" lon="15.2575241"><ele>353.0</ele><time>2026-04-11T07:49:16.336Z</time></trkpt><trkpt lat="40.1899768" lon="15.2573882"><ele>353.0</ele><time>2026-04-11T07:49:17.341Z</time></trkpt><trkpt lat="40.1899015" lon="15.2572383"><ele>353.0</ele><time>2026-04-11T07:49:18.342Z</time></trkpt><trkpt lat="40.1898209" lon="15.2570822"><ele>352.0</ele><time>2026-04-11T07:49:19.337Z</time></trkpt><trkpt lat="40.1897376" lon="15.2569247"><ele>351.0</ele><time>2026-04-11T07:49:20.335Z</time></trkpt><trkpt lat="40.1896567" lon="15.2567667"><ele>350.0</ele><time>2026-04-11T07:49:21.346Z</time></trkpt><trkpt lat="40.1895777" lon="15.2566167"><ele>349.0</ele><time>2026-04-11T07:49:22.341Z</time></trkpt><trkpt lat="40.189502" lon="15.2564771"><ele>350.6</ele><time>2026-04-11T07:49:23.344Z</time></trkpt><trkpt lat="40.189443" lon="15.2563594"><ele>352.2</ele><time>2026-04-11T07:49:24.342Z</time></trkpt><trkpt lat="40.1893972" lon="15.2562413"><ele>353.8</ele><time>2026-04-11T07:49:25.336Z</time></trkpt><trkpt lat="40.1893725" lon="15.2561135"><ele>355.40000000000003</ele><time>2026-04-11T07:49:26.342Z</time></trkpt><trkpt lat="40.1893647" lon="15.255983"><ele>357.0</ele><time>2026-04-11T07:49:27.345Z</time></trkpt><trkpt lat="40.1893695" lon="15.2558388"><ele>357.0</ele><time>2026-04-11T07:49:28.351Z</time></trkpt><trkpt lat="40.1893827" lon="15.2556829"><ele>357.0</ele><time>2026-04-11T07:49:29.326Z</time></trkpt><trkpt lat="40.1894004" lon="15.2555527"><ele>357.0</ele><time>2026-04-11T07:49:30.358Z</time></trkpt><trkpt lat="40.1894049" lon="15.2554545"><ele>357.0</ele><time>2026-04-11T07:49:31.337Z</time></trkpt><trkpt lat="40.1893984" lon="15.255354"><ele>357.0</ele><time>2026-04-11T07:49:32.331Z</time></trkpt><trkpt lat="40.1893771" lon="15.2552469"><ele>357.20000000000005</ele><time>2026-04-11T07:49:33.345Z</time></trkpt><trkpt lat="40.1893359" lon="15.2551314"><ele>357.4</ele><time>2026-04-11T07:49:34.339Z</time></trkpt><trkpt lat="40.1892742" lon="15.2550175"><ele>357.6</ele><time>2026-04-11T07:49:35.349Z</time></trkpt><trkpt lat="40.1892004" lon="15.25491"><ele>357.79999999999995</ele><time>2026-04-11T07:49:36.325Z</time></trkpt><trkpt lat="40.1891322" lon="15.2548032"><ele>358.0</ele><time>2026-04-11T07:49:37.34Z</time></trkpt><trkpt lat="40.1890706" lon="15.2546834"><ele>358.0</ele><time>2026-04-11T07:49:38.348Z</time></trkpt><trkpt lat="40.1890171" lon="15.2545729"><ele>358.0</ele><time>2026-04-11T07:49:39.337Z</time></trkpt><trkpt lat="40.1889766" lon="15.2544419"><ele>358.0</ele><time>2026-04-11T07:49:40.339Z</time></trkpt><trkpt lat="40.1889319" lon="15.2543129"><ele>358.0</ele><time>2026-04-11T07:49:41.33Z</time></trkpt><trkpt lat="40.1888783" lon="15.2541866"><ele>358.0</ele><time>2026-04-11T07:49:42.331Z</time></trkpt><trkpt lat="40.1888128" lon="15.2540687"><ele>355.59999999999997</ele><time>2026-04-11T07:49:43.329Z</time></trkpt><trkpt lat="40.1887479" lon="15.2539566"><ele>353.2</ele><time>2026-04-11T07:49:44.341Z</time></trkpt><trkpt lat="40.1886816" lon="15.2538505"><ele>350.8</ele><time>2026-04-11T07:49:45.325Z</time></trkpt><trkpt lat="40.1886073" lon="15.2537541"><ele>348.4</ele><time>2026-04-11T07:49:46.318Z</time></trkpt><trkpt lat="40.1885302" lon="15.2536782"><ele>346.0</ele><time>2026-04-11T07:49:47.339Z</time></trkpt><trkpt lat="40.1884529" lon="15.2536154"><ele>346.0</ele><time>2026-04-11T07:49:48.338Z</time></trkpt><trkpt lat="40.1883846" lon="15.253551"><ele>346.0</ele><time>2026-04-11T07:49:49.337Z</time></trkpt><trkpt lat="40.1883216" lon="15.2534757"><ele>346.0</ele><time>2026-04-11T07:49:50.339Z</time></trkpt><trkpt lat="40.188261" lon="15.2534017"><ele>346.0</ele><time>2026-04-11T07:49:51.34Z</time></trkpt><trkpt lat="40.1881997" lon="15.2533176"><ele>346.0</ele><time>2026-04-11T07:49:52.332Z</time></trkpt><trkpt lat="40.1881471" lon="15.2532175"><ele>346.0</ele><time>2026-04-11T07:49:53.342Z</time></trkpt><trkpt lat="40.1880896" lon="15.2531067"><ele>344.0</ele><time>2026-04-11T07:49:54.342Z</time></trkpt><trkpt lat="40.1880271" lon="15.2529866"><ele>342.0</ele><time>2026-04-11T07:49:55.353Z</time></trkpt><trkpt lat="40.1879587" lon="15.2528759"><ele>340.0</ele><time>2026-04-11T07:49:56.337Z</time></trkpt><trkpt lat="40.1878972" lon="15.2527728"><ele>338.0</ele><time>2026-04-11T07:49:57.331Z</time></trkpt><trkpt lat="40.1878489" lon="15.2526719"><ele>336.0</ele><time>2026-04-11T07:49:58.344Z</time></trkpt><trkpt lat="40.1878081" lon="15.2525749"><ele>336.0</ele><time>2026-04-11T07:49:59.346Z</time></trkpt><trkpt lat="40.1877652" lon="15.2524844"><ele>336.0</ele><time>2026-04-11T07:50:00.33Z</time></trkpt><trkpt lat="40.1877227" lon="15.2524012"><ele>336.0</ele><time>2026-04-11T07:50:01.324Z</time></trkpt><trkpt lat="40.1876703" lon="15.2523133"><ele>336.0</ele><time>2026-04-11T07:50:02.328Z</time></trkpt><trkpt lat="40.1875969" lon="15.2521982"><ele>336.0</ele><time>2026-04-11T07:50:03.328Z</time></trkpt><trkpt lat="40.187508" lon="15.2520615"><ele>335.4</ele><time>2026-04-11T07:50:04.335Z</time></trkpt><trkpt lat="40.1874293" lon="15.2519563"><ele>334.8</ele><time>2026-04-11T07:50:05.336Z</time></trkpt><trkpt lat="40.1873725" lon="15.2518606"><ele>334.2</ele><time>2026-04-11T07:50:06.338Z</time></trkpt><trkpt lat="40.1873173" lon="15.2517727"><ele>333.59999999999997</ele><time>2026-04-11T07:50:07.326Z</time></trkpt><trkpt lat="40.1872672" lon="15.2516941"><ele>333.0</ele><time>2026-04-11T07:50:08.322Z</time></trkpt><trkpt lat="40.1872205" lon="15.2516092"><ele>331.0</ele><time>2026-04-11T07:50:09.336Z</time></trkpt><trkpt lat="40.1871776" lon="15.2515053"><ele>329.0</ele><time>2026-04-11T07:50:10.343Z</time></trkpt><trkpt lat="40.1871391" lon="15.2513693"><ele>327.0</ele><time>2026-04-11T07:50:11.335Z</time></trkpt><trkpt lat="40.1870928" lon="15.2511938"><ele>325.0</ele><time>2026-04-11T07:50:12.358Z</time></trkpt><trkpt lat="40.1870465" lon="15.2510201"><ele>325.0</ele><time>2026-04-11T07:50:13.331Z</time></trkpt><trkpt lat="40.1870074" lon="15.2508701"><ele>325.0</ele><time>2026-04-11T07:50:14.334Z</time></trkpt><trkpt lat="40.1869694" lon="15.2507536"><ele>325.0</ele><time>2026-04-11T07:50:15.324Z</time></trkpt><trkpt lat="40.1869266" lon="15.2506406"><ele>325.0</ele><time>2026-04-11T07:50:16.332Z</time></trkpt><trkpt lat="40.1868655" lon="15.2505183"><ele>325.0</ele><time>2026-04-11T07:50:17.331Z</time></trkpt><trkpt lat="40.1867851" lon="15.2503911"><ele>325.2</ele><time>2026-04-11T07:50:18.331Z</time></trkpt><trkpt lat="40.1867064" lon="15.2502609"><ele>325.4</ele><time>2026-04-11T07:50:19.33Z</time></trkpt><trkpt lat="40.1866359" lon="15.2501389"><ele>325.6</ele><time>2026-04-11T07:50:20.354Z</time></trkpt><trkpt lat="40.186583" lon="15.2500197"><ele>325.8</ele><time>2026-04-11T07:50:21.332Z</time></trkpt><trkpt lat="40.1865475" lon="15.24991"><ele>326.0</ele><time>2026-04-11T07:50:22.332Z</time></trkpt><trkpt lat="40.1865191" lon="15.2497957"><ele>323.2</ele><time>2026-04-11T07:50:23.341Z</time></trkpt><trkpt lat="40.1865019" lon="15.2496663"><ele>320.40000000000003</ele><time>2026-04-11T07:50:24.34Z</time></trkpt><trkpt lat="40.1864873" lon="15.2495259"><ele>317.6</ele><time>2026-04-11T07:50:25.345Z</time></trkpt><trkpt lat="40.1864797" lon="15.2493876"><ele>314.8</ele><time>2026-04-11T07:50:26.334Z</time></trkpt><trkpt lat="40.1864707" lon="15.249243"><ele>312.0</ele><time>2026-04-11T07:50:27.341Z</time></trkpt><trkpt lat="40.1864578" lon="15.2490794"><ele>311.75</ele><time>2026-04-11T07:50:28.322Z</time></trkpt><trkpt lat="40.1864467" lon="15.2489139"><ele>311.5</ele><time>2026-04-11T07:50:29.332Z</time></trkpt><trkpt lat="40.186423" lon="15.2487665"><ele>311.25</ele><time>2026-04-11T07:50:30.339Z</time></trkpt><trkpt lat="40.1863827" lon="15.2486325"><ele>311.0</ele><time>2026-04-11T07:50:31.333Z</time></trkpt><trkpt lat="40.1863278" lon="15.2484955"><ele>311.0</ele><time>2026-04-11T07:50:32.327Z</time></trkpt><trkpt lat="40.1862815" lon="15.2483743"><ele>311.0</ele><time>2026-04-11T07:50:33.332Z</time></trkpt><trkpt lat="40.1862425" lon="15.248265"><ele>311.0</ele><time>2026-04-11T07:50:34.329Z</time></trkpt><trkpt lat="40.1862066" lon="15.248155"><ele>311.0</ele><time>2026-04-11T07:50:35.344Z</time></trkpt><trkpt lat="40.1861799" lon="15.2480399"><ele>311.0</ele><time>2026-04-11T07:50:36.322Z</time></trkpt><trkpt lat="40.1861531" lon="15.2479108"><ele>309.0</ele><time>2026-04-11T07:50:37.327Z</time></trkpt><trkpt lat="40.1861253" lon="15.2477739"><ele>307.0</ele><time>2026-04-11T07:50:38.337Z</time></trkpt><trkpt lat="40.1860971" lon="15.2476296"><ele>305.0</ele><time>2026-04-11T07:50:39.344Z</time></trkpt><trkpt lat="40.1860722" lon="15.2474882"><ele>303.0</ele><time>2026-04-11T07:50:40.346Z</time></trkpt><trkpt lat="40.1860474" lon="15.2473543"><ele>301.0</ele><time>2026-04-11T07:50:41.329Z</time></trkpt><trkpt lat="40.1860203" lon="15.2472236"><ele>300.2</ele><time>2026-04-11T07:50:42.341Z</time></trkpt><trkpt lat="40.1859834" lon="15.2471045"><ele>299.40000000000003</ele><time>2026-04-11T07:50:43.332Z</time></trkpt><trkpt lat="40.1859322" lon="15.2469912"><ele>298.6</ele><time>2026-04-11T07:50:44.342Z</time></trkpt><trkpt lat="40.1858636" lon="15.246876"><ele>297.8</ele><time>2026-04-11T07:50:45.347Z</time></trkpt><trkpt lat="40.1857761" lon="15.2467537"><ele>297.0</ele><time>2026-04-11T07:50:46.333Z</time></trkpt><trkpt lat="40.1856794" lon="15.246623"><ele>295.4</ele><time>2026-04-11T07:50:47.344Z</time></trkpt><trkpt lat="40.1855828" lon="15.2465102"><ele>293.79999999999995</ele><time>2026-04-11T07:50:48.334Z</time></trkpt><trkpt lat="40.1854972" lon="15.24641"><ele>292.2</ele><time>2026-04-11T07:50:49.345Z</time></trkpt><trkpt lat="40.1854219" lon="15.2463166"><ele>290.59999999999997</ele><time>2026-04-11T07:50:50.333Z</time></trkpt><trkpt lat="40.1853547" lon="15.2462185"><ele>289.0</ele><time>2026-04-11T07:50:51.34Z</time></trkpt><trkpt lat="40.1852897" lon="15.2461254"><ele>289.0</ele><time>2026-04-11T07:50:52.341Z</time></trkpt><trkpt lat="40.1852238" lon="15.2460363"><ele>289.0</ele><time>2026-04-11T07:50:53.334Z</time></trkpt><trkpt lat="40.1851571" lon="15.2459438"><ele>289.0</ele><time>2026-04-11T07:50:54.338Z</time></trkpt><trkpt lat="40.1851006" lon="15.2458488"><ele>289.0</ele><time>2026-04-11T07:50:55.334Z</time></trkpt><trkpt lat="40.1850355" lon="15.2457609"><ele>289.0</ele><time>2026-04-11T07:50:56.328Z</time></trkpt><trkpt lat="40.1849766" lon="15.2456751"><ele>287.66666666666663</ele><time>2026-04-11T07:50:57.325Z</time></trkpt><trkpt lat="40.1849192" lon="15.2455875"><ele>286.3333333333333</ele><time>2026-04-11T07:50:58.339Z</time></trkpt><trkpt lat="40.1848616" lon="15.2454977"><ele>285.0</ele><time>2026-04-11T07:50:59.349Z</time></trkpt><trkpt lat="40.184811" lon="15.2454009"><ele>283.6666666666667</ele><time>2026-04-11T07:51:00.336Z</time></trkpt><trkpt lat="40.1847627" lon="15.2452976"><ele>282.33333333333337</ele><time>2026-04-11T07:51:01.323Z</time></trkpt><trkpt lat="40.1847154" lon="15.245203"><ele>281.0</ele><time>2026-04-11T07:51:02.341Z</time></trkpt><trkpt lat="40.1846804" lon="15.2451239"><ele>280.8</ele><time>2026-04-11T07:51:03.33Z</time></trkpt><trkpt lat="40.184646" lon="15.2450242"><ele>280.6</ele><time>2026-04-11T07:51:05.333Z</time></trkpt><trkpt lat="40.1846458" lon="15.2449114"><ele>280.4</ele><time>2026-04-11T07:51:08.342Z</time></trkpt><trkpt lat="40.1846188" lon="15.2447816"><ele>280.2</ele><time>2026-04-11T07:51:11.333Z</time></trkpt><trkpt lat="40.1845535" lon="15.2446498"><ele>280.0</ele><time>2026-04-11T07:51:13.324Z</time></trkpt><trkpt lat="40.1845168" lon="15.2445667"><ele>280.0</ele><time>2026-04-11T07:51:14.343Z</time></trkpt><trkpt lat="40.184478" lon="15.2444602"><ele>280.0</ele><time>2026-04-11T07:51:15.33Z</time></trkpt><trkpt lat="40.1844416" lon="15.2443239"><ele>280.0</ele><time>2026-04-11T07:51:16.338Z</time></trkpt><trkpt lat="40.1844046" lon="15.2441624"><ele>280.0</ele><time>2026-04-11T07:51:17.334Z</time></trkpt><trkpt lat="40.1843595" lon="15.2439892"><ele>279.0</ele><time>2026-04-11T07:51:18.336Z</time></trkpt><trkpt lat="40.184311" lon="15.2437988"><ele>278.0</ele><time>2026-04-11T07:51:19.347Z</time></trkpt><trkpt lat="40.1842774" lon="15.24362"><ele>277.0</ele><time>2026-04-11T07:51:20.326Z</time></trkpt><trkpt lat="40.1842619" lon="15.2434636"><ele>276.0</ele><time>2026-04-11T07:51:21.327Z</time></trkpt><trkpt lat="40.1842682" lon="15.2433223"><ele>276.0</ele><time>2026-04-11T07:51:22.345Z</time></trkpt><trkpt lat="40.1842991" lon="15.243169"><ele>276.0</ele><time>2026-04-11T07:51:23.335Z</time></trkpt><trkpt lat="40.1843429" lon="15.2430079"><ele>276.0</ele><time>2026-04-11T07:51:24.339Z</time></trkpt><trkpt lat="40.1843919" lon="15.2428369"><ele>276.0</ele><time>2026-04-11T07:51:25.33Z</time></trkpt><trkpt lat="40.1844478" lon="15.2426546"><ele>277.3333333333333</ele><time>2026-04-11T07:51:26.332Z</time></trkpt><trkpt lat="40.1845073" lon="15.2424644"><ele>278.66666666666663</ele><time>2026-04-11T07:51:27.333Z</time></trkpt><trkpt lat="40.184577" lon="15.2422887"><ele>280.0</ele><time>2026-04-11T07:51:28.352Z</time></trkpt><trkpt lat="40.1846687" lon="15.242117"><ele>281.25</ele><time>2026-04-11T07:51:29.338Z</time></trkpt><trkpt lat="40.1847727" lon="15.2419605"><ele>282.5</ele><time>2026-04-11T07:51:30.358Z</time></trkpt><trkpt lat="40.1848718" lon="15.2418256"><ele>283.75</ele><time>2026-04-11T07:51:31.337Z</time></trkpt><trkpt lat="40.1849564" lon="15.2417126"><ele>285.0</ele><time>2026-04-11T07:51:32.351Z</time></trkpt><trkpt lat="40.1850439" lon="15.2416403"><ele>284.4</ele><time>2026-04-11T07:51:33.336Z</time></trkpt><trkpt lat="40.185129" lon="15.2415831"><ele>283.8</ele><time>2026-04-11T07:51:34.341Z</time></trkpt><trkpt lat="40.1851868" lon="15.2414831"><ele>283.2</ele><time>2026-04-11T07:51:35.329Z</time></trkpt><trkpt lat="40.1852282" lon="15.2413377"><ele>282.6</ele><time>2026-04-11T07:51:36.341Z</time></trkpt><trkpt lat="40.1852539" lon="15.2411957"><ele>282.0</ele><time>2026-04-11T07:51:37.351Z</time></trkpt><trkpt lat="40.1852906" lon="15.2410913"><ele>282.0</ele><time>2026-04-11T07:51:38.337Z</time></trkpt><trkpt lat="40.1853449" lon="15.241028"><ele>282.0</ele><time>2026-04-11T07:51:39.347Z</time></trkpt><trkpt lat="40.1854129" lon="15.2410005"><ele>282.0</ele><time>2026-04-11T07:51:40.339Z</time></trkpt><trkpt lat="40.1854873" lon="15.240972"><ele>282.0</ele><time>2026-04-11T07:51:41.335Z</time></trkpt><trkpt lat="40.1855601" lon="15.2409093"><ele>282.0</ele><time>2026-04-11T07:51:42.337Z</time></trkpt><trkpt lat="40.1856264" lon="15.2408056"><ele>282.0</ele><time>2026-04-11T07:51:43.33Z</time></trkpt><trkpt lat="40.1856771" lon="15.240686"><ele>278.5</ele><time>2026-04-11T07:51:44.328Z</time></trkpt><trkpt lat="40.185727" lon="15.2405462"><ele>275.0</ele><time>2026-04-11T07:51:45.347Z</time></trkpt><trkpt lat="40.185779" lon="15.2404062"><ele>271.5</ele><time>2026-04-11T07:51:46.338Z</time></trkpt><trkpt lat="40.1858191" lon="15.2402597"><ele>268.0</ele><time>2026-04-11T07:51:47.318Z</time></trkpt><trkpt lat="40.1858417" lon="15.2401152"><ele>268.0</ele><time>2026-04-11T07:51:48.338Z</time></trkpt><trkpt lat="40.1858478" lon="15.2399783"><ele>268.0</ele><time>2026-04-11T07:51:49.325Z</time></trkpt><trkpt lat="40.1858595" lon="15.239856"><ele>268.0</ele><time>2026-04-11T07:51:50.342Z</time></trkpt><trkpt lat="40.1858652" lon="15.2397574"><ele>268.0</ele><time>2026-04-11T07:51:51.33Z</time></trkpt><trkpt lat="40.1858683" lon="15.2396702"><ele>268.0</ele><time>2026-04-11T07:51:52.321Z</time></trkpt><trkpt lat="40.1858842" lon="15.2395317"><ele>268.0</ele><time>2026-04-11T07:51:54.319Z</time></trkpt><trkpt lat="40.1859232" lon="15.2394508"><ele>268.0</ele><time>2026-04-11T07:51:56.317Z</time></trkpt><trkpt lat="40.1859947" lon="15.2394911"><ele>268.0</ele><time>2026-04-11T07:51:58.342Z</time></trkpt><trkpt lat="40.1860483" lon="15.2395745"><ele>268.0</ele><time>2026-04-11T07:51:59.326Z</time></trkpt><trkpt lat="40.186136" lon="15.2396609"><ele>268.0</ele><time>2026-04-11T07:52:00.323Z</time></trkpt><trkpt lat="40.1862239" lon="15.239754"><ele>268.0</ele><time>2026-04-11T07:52:01.338Z</time></trkpt><trkpt lat="40.1862966" lon="15.2398515"><ele>268.0</ele><time>2026-04-11T07:52:02.343Z</time></trkpt><trkpt lat="40.1863564" lon="15.2399627"><ele>268.0</ele><time>2026-04-11T07:52:03.334Z</time></trkpt><trkpt lat="40.1864166" lon="15.2401085"><ele>268.0</ele><time>2026-04-11T07:52:04.327Z</time></trkpt><trkpt lat="40.1864771" lon="15.2402859"><ele>268.0</ele><time>2026-04-11T07:52:05.32Z</time></trkpt><trkpt lat="40.1865349" lon="15.2404548"><ele>265.6</ele><time>2026-04-11T07:52:06.325Z</time></trkpt><trkpt lat="40.1865797" lon="15.2406033"><ele>263.20000000000005</ele><time>2026-04-11T07:52:07.331Z</time></trkpt><trkpt lat="40.1866218" lon="15.2407331"><ele>260.8</ele><time>2026-04-11T07:52:08.331Z</time></trkpt><trkpt lat="40.1866688" lon="15.2408423"><ele>258.40000000000003</ele><time>2026-04-11T07:52:09.332Z</time></trkpt><trkpt lat="40.1867431" lon="15.2409345"><ele>256.0</ele><time>2026-04-11T07:52:10.328Z</time></trkpt><trkpt lat="40.1868307" lon="15.2410113"><ele>256.0</ele><time>2026-04-11T07:52:11.323Z</time></trkpt><trkpt lat="40.1869296" lon="15.2410799"><ele>256.0</ele><time>2026-04-11T07:52:12.334Z</time></trkpt><trkpt lat="40.1870233" lon="15.241145"><ele>256.0</ele><time>2026-04-11T07:52:13.335Z</time></trkpt><trkpt lat="40.1871163" lon="15.2412112"><ele>256.0</ele><time>2026-04-11T07:52:14.324Z</time></trkpt><trkpt lat="40.1872026" lon="15.241274"><ele>256.0</ele><time>2026-04-11T07:52:15.326Z</time></trkpt><trkpt lat="40.1872667" lon="15.241319"><ele>255.4</ele><time>2026-04-11T07:52:16.333Z</time></trkpt><trkpt lat="40.1873559" lon="15.2413735"><ele>254.8</ele><time>2026-04-11T07:52:18.334Z</time></trkpt><trkpt lat="40.1874719" lon="15.2414402"><ele>254.20000000000002</ele><time>2026-04-11T07:52:20.331Z</time></trkpt><trkpt lat="40.1875459" lon="15.2414791"><ele>253.60000000000002</ele><time>2026-04-11T07:52:21.335Z</time></trkpt><trkpt lat="40.1876286" lon="15.2415346"><ele>253.0</ele><time>2026-04-11T07:52:22.336Z</time></trkpt><trkpt lat="40.1877186" lon="15.2415973"><ele>254.60000000000002</ele><time>2026-04-11T07:52:23.322Z</time></trkpt><trkpt lat="40.1878116" lon="15.2416671"><ele>256.20000000000005</ele><time>2026-04-11T07:52:24.321Z</time></trkpt><trkpt lat="40.1879043" lon="15.2417397"><ele>257.8</ele><time>2026-04-11T07:52:25.318Z</time></trkpt><trkpt lat="40.1879923" lon="15.2418018"><ele>259.40000000000003</ele><time>2026-04-11T07:52:26.325Z</time></trkpt><trkpt lat="40.1880783" lon="15.2418527"><ele>261.0</ele><time>2026-04-11T07:52:27.331Z</time></trkpt><trkpt lat="40.1881477" lon="15.2418884"><ele>259.6</ele><time>2026-04-11T07:52:28.328Z</time></trkpt><trkpt lat="40.1882096" lon="15.241914"><ele>258.20000000000005</ele><time>2026-04-11T07:52:29.338Z</time></trkpt><trkpt lat="40.1883078" lon="15.2419177"><ele>256.79999999999995</ele><time>2026-04-11T07:52:31.343Z</time></trkpt><trkpt lat="40.1884153" lon="15.2418133"><ele>255.39999999999998</ele><time>2026-04-11T07:52:33.332Z</time></trkpt><trkpt lat="40.188485" lon="15.2417132"><ele>254.0</ele><time>2026-04-11T07:52:34.33Z</time></trkpt><trkpt lat="40.188557" lon="15.2416072"><ele>254.0</ele><time>2026-04-11T07:52:35.327Z</time></trkpt><trkpt lat="40.1886318" lon="15.241507"><ele>253.99999999999997</ele><time>2026-04-11T07:52:36.334Z</time></trkpt><trkpt lat="40.1886973" lon="15.2414193"><ele>253.99999999999997</ele><time>2026-04-11T07:52:37.331Z</time></trkpt><trkpt lat="40.1887654" lon="15.2413289"><ele>254.0</ele><time>2026-04-11T07:52:38.334Z</time></trkpt><trkpt lat="40.1888287" lon="15.2412241"><ele>254.0</ele><time>2026-04-11T07:52:39.338Z</time></trkpt><trkpt lat="40.1888716" lon="15.2410875"><ele>253.25</ele><time>2026-04-11T07:52:40.34Z</time></trkpt><trkpt lat="40.1889065" lon="15.24092"><ele>252.5</ele><time>2026-04-11T07:52:41.328Z</time></trkpt><trkpt lat="40.1889358" lon="15.2407473"><ele>251.75</ele><time>2026-04-11T07:52:42.331Z</time></trkpt><trkpt lat="40.188958" lon="15.2405815"><ele>251.0</ele><time>2026-04-11T07:52:43.335Z</time></trkpt><trkpt lat="40.1889758" lon="15.2404288"><ele>251.0</ele><time>2026-04-11T07:52:44.323Z</time></trkpt><trkpt lat="40.1889973" lon="15.2403089"><ele>251.00000000000003</ele><time>2026-04-11T07:52:45.332Z</time></trkpt><trkpt lat="40.1890296" lon="15.2402037"><ele>251.00000000000003</ele><time>2026-04-11T07:52:46.334Z</time></trkpt><trkpt lat="40.1890825" lon="15.2400872"><ele>251.0</ele><time>2026-04-11T07:52:47.331Z</time></trkpt><trkpt lat="40.1891418" lon="15.2399576"><ele>251.0</ele><time>2026-04-11T07:52:48.324Z</time></trkpt><trkpt lat="40.1892148" lon="15.2398115"><ele>249.75</ele><time>2026-04-11T07:52:49.328Z</time></trkpt><trkpt lat="40.189296" lon="15.2396565"><ele>248.5</ele><time>2026-04-11T07:52:50.332Z</time></trkpt><trkpt lat="40.1893801" lon="15.2395133"><ele>247.25</ele><time>2026-04-11T07:52:51.331Z</time></trkpt><trkpt lat="40.1894539" lon="15.2393847"><ele>246.0</ele><time>2026-04-11T07:52:52.328Z</time></trkpt><trkpt lat="40.1895075" lon="15.23926"><ele>246.0</ele><time>2026-04-11T07:52:53.329Z</time></trkpt><trkpt lat="40.1895484" lon="15.2391243"><ele>246.0</ele><time>2026-04-11T07:52:54.332Z</time></trkpt><trkpt lat="40.1895693" lon="15.2389823"><ele>246.0</ele><time>2026-04-11T07:52:55.328Z</time></trkpt><trkpt lat="40.1895707" lon="15.2388286"><ele>246.0</ele><time>2026-04-11T07:52:56.339Z</time></trkpt><trkpt lat="40.189569" lon="15.2386766"><ele>244.75</ele><time>2026-04-11T07:52:57.334Z</time></trkpt><trkpt lat="40.1895737" lon="15.2385259"><ele>243.5</ele><time>2026-04-11T07:52:58.333Z</time></trkpt><trkpt lat="40.1895846" lon="15.2383757"><ele>242.25</ele><time>2026-04-11T07:52:59.33Z</time></trkpt><trkpt lat="40.1895963" lon="15.2382224"><ele>241.0</ele><time>2026-04-11T07:53:00.349Z</time></trkpt><trkpt lat="40.1896042" lon="15.2380572"><ele>240.5</ele><time>2026-04-11T07:53:01.32Z</time></trkpt><trkpt lat="40.1896105" lon="15.237887"><ele>240.0</ele><time>2026-04-11T07:53:02.337Z</time></trkpt><trkpt lat="40.1896194" lon="15.2377206"><ele>239.5</ele><time>2026-04-11T07:53:03.334Z</time></trkpt><trkpt lat="40.1896297" lon="15.2375781"><ele>239.0</ele><time>2026-04-11T07:53:04.355Z</time></trkpt><trkpt lat="40.1896393" lon="15.2374426"><ele>239.0</ele><time>2026-04-11T07:53:05.328Z</time></trkpt><trkpt lat="40.189655" lon="15.2373044"><ele>239.0</ele><time>2026-04-11T07:53:06.341Z</time></trkpt><trkpt lat="40.1896766" lon="15.237155"><ele>239.0</ele><time>2026-04-11T07:53:07.34Z</time></trkpt><trkpt lat="40.1896981" lon="15.2369897"><ele>239.0</ele><time>2026-04-11T07:53:08.331Z</time></trkpt><trkpt lat="40.1897119" lon="15.236806"><ele>237.79999999999998</ele><time>2026-04-11T07:53:09.317Z</time></trkpt><trkpt lat="40.189714" lon="15.2366359"><ele>236.59999999999997</ele><time>2026-04-11T07:53:10.335Z</time></trkpt><trkpt lat="40.1897135" lon="15.2364987"><ele>235.4</ele><time>2026-04-11T07:53:11.325Z</time></trkpt><trkpt lat="40.1897044" lon="15.2363865"><ele>234.2</ele><time>2026-04-11T07:53:12.343Z</time></trkpt><trkpt lat="40.1896971" lon="15.2362862"><ele>233.0</ele><time>2026-04-11T07:53:13.334Z</time></trkpt><trkpt lat="40.1896857" lon="15.2361886"><ele>232.0</ele><time>2026-04-11T07:53:14.322Z</time></trkpt><trkpt lat="40.189658" lon="15.2360815"><ele>231.0</ele><time>2026-04-11T07:53:15.337Z</time></trkpt><trkpt lat="40.1896097" lon="15.2359592"><ele>230.0</ele><time>2026-04-11T07:53:16.339Z</time></trkpt><trkpt lat="40.1895488" lon="15.2358328"><ele>229.0</ele><time>2026-04-11T07:53:17.34Z</time></trkpt><trkpt lat="40.189474" lon="15.2357001"><ele>228.0</ele><time>2026-04-11T07:53:18.336Z</time></trkpt><trkpt lat="40.1894067" lon="15.235551"><ele>227.5</ele><time>2026-04-11T07:53:19.344Z</time></trkpt><trkpt lat="40.1893573" lon="15.2353985"><ele>227.0</ele><time>2026-04-11T07:53:20.333Z</time></trkpt><trkpt lat="40.1893249" lon="15.2352351"><ele>226.5</ele><time>2026-04-11T07:53:21.342Z</time></trkpt><trkpt lat="40.1893056" lon="15.2350908"><ele>226.0</ele><time>2026-04-11T07:53:22.333Z</time></trkpt><trkpt lat="40.189304" lon="15.234954"><ele>226.0</ele><time>2026-04-11T07:53:23.333Z</time></trkpt><trkpt lat="40.1892922" lon="15.2348156"><ele>226.0</ele><time>2026-04-11T07:53:24.332Z</time></trkpt><trkpt lat="40.1892677" lon="15.2346665"><ele>226.0</ele><time>2026-04-11T07:53:25.334Z</time></trkpt><trkpt lat="40.189252" lon="15.2345148"><ele>226.0</ele><time>2026-04-11T07:53:26.322Z</time></trkpt><trkpt lat="40.1892514" lon="15.234361"><ele>225.25</ele><time>2026-04-11T07:53:27.32Z</time></trkpt><trkpt lat="40.1892557" lon="15.2342057"><ele>224.5</ele><time>2026-04-11T07:53:28.334Z</time></trkpt><trkpt lat="40.1892765" lon="15.2340563"><ele>223.75</ele><time>2026-04-11T07:53:29.325Z</time></trkpt><trkpt lat="40.1892979" lon="15.2338995"><ele>223.0</ele><time>2026-04-11T07:53:30.347Z</time></trkpt><trkpt lat="40.189308" lon="15.2337391"><ele>221.75</ele><time>2026-04-11T07:53:31.342Z</time></trkpt><trkpt lat="40.1892945" lon="15.2335697"><ele>220.5</ele><time>2026-04-11T07:53:32.33Z</time></trkpt><trkpt lat="40.1892693" lon="15.233401"><ele>219.25</ele><time>2026-04-11T07:53:33.329Z</time></trkpt><trkpt lat="40.1892466" lon="15.2332479"><ele>218.0</ele><time>2026-04-11T07:53:34.33Z</time></trkpt><trkpt lat="40.1892283" lon="15.2330994"><ele>217.2</ele><time>2026-04-11T07:53:35.334Z</time></trkpt><trkpt lat="40.1892203" lon="15.2329524"><ele>216.4</ele><time>2026-04-11T07:53:36.334Z</time></trkpt><trkpt lat="40.1892357" lon="15.2328035"><ele>215.59999999999997</ele><time>2026-04-11T07:53:37.338Z</time></trkpt><trkpt lat="40.1892667" lon="15.2326755"><ele>214.79999999999998</ele><time>2026-04-11T07:53:38.345Z</time></trkpt><trkpt lat="40.1893138" lon="15.2325363"><ele>214.0</ele><time>2026-04-11T07:53:39.328Z</time></trkpt><trkpt lat="40.1893753" lon="15.2323951"><ele>213.25</ele><time>2026-04-11T07:53:40.359Z</time></trkpt><trkpt lat="40.1894495" lon="15.2322529"><ele>212.5</ele><time>2026-04-11T07:53:41.33Z</time></trkpt><trkpt lat="40.1895111" lon="15.2321051"><ele>211.75</ele><time>2026-04-11T07:53:42.331Z</time></trkpt><trkpt lat="40.1895609" lon="15.2319507"><ele>211.0</ele><time>2026-04-11T07:53:43.344Z</time></trkpt><trkpt lat="40.1895989" lon="15.2318042"><ele>211.0</ele><time>2026-04-11T07:53:44.331Z</time></trkpt><trkpt lat="40.189617" lon="15.2316507"><ele>211.0</ele><time>2026-04-11T07:53:45.328Z</time></trkpt><trkpt lat="40.1896201" lon="15.2314687"><ele>211.0</ele><time>2026-04-11T07:53:46.322Z</time></trkpt><trkpt lat="40.1896263" lon="15.2312758"><ele>211.0</ele><time>2026-04-11T07:53:47.329Z</time></trkpt><trkpt lat="40.1896297" lon="15.2311042"><ele>209.75</ele><time>2026-04-11T07:53:48.338Z</time></trkpt><trkpt lat="40.1896442" lon="15.2309481"><ele>208.5</ele><time>2026-04-11T07:53:49.327Z</time></trkpt><trkpt lat="40.1896617" lon="15.2308041"><ele>207.25</ele><time>2026-04-11T07:53:50.34Z</time></trkpt><trkpt lat="40.1896928" lon="15.2306537"><ele>206.0</ele><time>2026-04-11T07:53:51.338Z</time></trkpt><trkpt lat="40.1897325" lon="15.2304992"><ele>205.25</ele><time>2026-04-11T07:53:52.338Z</time></trkpt><trkpt lat="40.1897525" lon="15.2303455"><ele>204.5</ele><time>2026-04-11T07:53:53.33Z</time></trkpt><trkpt lat="40.1897617" lon="15.2301784"><ele>203.75</ele><time>2026-04-11T07:53:54.343Z</time></trkpt><trkpt lat="40.1897814" lon="15.2300113"><ele>203.0</ele><time>2026-04-11T07:53:55.331Z</time></trkpt><trkpt lat="40.1898124" lon="15.229857"><ele>202.2</ele><time>2026-04-11T07:53:56.331Z</time></trkpt><trkpt lat="40.1898415" lon="15.2297146"><ele>201.4</ele><time>2026-04-11T07:53:57.324Z</time></trkpt><trkpt lat="40.1898621" lon="15.2295846"><ele>200.6</ele><time>2026-04-11T07:53:58.341Z</time></trkpt><trkpt lat="40.189871" lon="15.2294485"><ele>199.79999999999998</ele><time>2026-04-11T07:53:59.325Z</time></trkpt><trkpt lat="40.1898653" lon="15.2292924"><ele>199.0</ele><time>2026-04-11T07:54:00.323Z</time></trkpt><trkpt lat="40.1898624" lon="15.2291554"><ele>198.79999999999998</ele><time>2026-04-11T07:54:01.33Z</time></trkpt><trkpt lat="40.1898675" lon="15.2290243"><ele>198.6</ele><time>2026-04-11T07:54:02.319Z</time></trkpt><trkpt lat="40.1898924" lon="15.2289075"><ele>198.4</ele><time>2026-04-11T07:54:03.32Z</time></trkpt><trkpt lat="40.1899302" lon="15.2287938"><ele>198.2</ele><time>2026-04-11T07:54:04.325Z</time></trkpt><trkpt lat="40.1899991" lon="15.2286911"><ele>198.0</ele><time>2026-04-11T07:54:05.327Z</time></trkpt><trkpt lat="40.1900739" lon="15.2285726"><ele>197.5</ele><time>2026-04-11T07:54:06.339Z</time></trkpt><trkpt lat="40.1901447" lon="15.2284287"><ele>197.0</ele><time>2026-04-11T07:54:07.335Z</time></trkpt><trkpt lat="40.1901971" lon="15.2282515"><ele>196.5</ele><time>2026-04-11T07:54:08.36Z</time></trkpt><trkpt lat="40.1902484" lon="15.2280622"><ele>196.0</ele><time>2026-04-11T07:54:09.334Z</time></trkpt><trkpt lat="40.1902921" lon="15.2278721"><ele>195.5</ele><time>2026-04-11T07:54:10.335Z</time></trkpt><trkpt lat="40.1903288" lon="15.2276956"><ele>195.0</ele><time>2026-04-11T07:54:11.33Z</time></trkpt><trkpt lat="40.1903497" lon="15.227532"><ele>194.5</ele><time>2026-04-11T07:54:12.348Z</time></trkpt><trkpt lat="40.1903539" lon="15.2273763"><ele>194.0</ele><time>2026-04-11T07:54:13.33Z</time></trkpt><trkpt lat="40.190345" lon="15.227245"><ele>192.75</ele><time>2026-04-11T07:54:14.36Z</time></trkpt><trkpt lat="40.1903356" lon="15.227108"><ele>191.5</ele><time>2026-04-11T07:54:15.332Z</time></trkpt><trkpt lat="40.1903374" lon="15.2269543"><ele>190.25</ele><time>2026-04-11T07:54:16.334Z</time></trkpt><trkpt lat="40.1903651" lon="15.2267851"><ele>189.0</ele><time>2026-04-11T07:54:17.329Z</time></trkpt><trkpt lat="40.1904021" lon="15.2266068"><ele>187.5</ele><time>2026-04-11T07:54:18.338Z</time></trkpt><trkpt lat="40.1904469" lon="15.2264344"><ele>186.0</ele><time>2026-04-11T07:54:19.316Z</time></trkpt><trkpt lat="40.1904852" lon="15.2262766"><ele>184.5</ele><time>2026-04-11T07:54:20.339Z</time></trkpt><trkpt lat="40.1905156" lon="15.2261237"><ele>183.0</ele><time>2026-04-11T07:54:21.336Z</time></trkpt><trkpt lat="40.1905486" lon="15.2259617"><ele>183.0</ele><time>2026-04-11T07:54:22.344Z</time></trkpt><trkpt lat="40.1905903" lon="15.2258005"><ele>183.0</ele><time>2026-04-11T07:54:23.32Z</time></trkpt><trkpt lat="40.190637" lon="15.2256261"><ele>183.0</ele><time>2026-04-11T07:54:24.328Z</time></trkpt><trkpt lat="40.1906749" lon="15.2254581"><ele>183.0</ele><time>2026-04-11T07:54:25.33Z</time></trkpt><trkpt lat="40.1907031" lon="15.2252903"><ele>183.0</ele><time>2026-04-11T07:54:26.323Z</time></trkpt><trkpt lat="40.1907341" lon="15.225121"><ele>183.0</ele><time>2026-04-11T07:54:27.335Z</time></trkpt><trkpt lat="40.1907768" lon="15.2249623"><ele>183.0</ele><time>2026-04-11T07:54:28.329Z</time></trkpt><trkpt lat="40.1908266" lon="15.2248209"><ele>183.0</ele><time>2026-04-11T07:54:29.337Z</time></trkpt><trkpt lat="40.1908822" lon="15.2246809"><ele>181.75</ele><time>2026-04-11T07:54:30.324Z</time></trkpt><trkpt lat="40.1909489" lon="15.224544"><ele>180.5</ele><time>2026-04-11T07:54:31.316Z</time></trkpt><trkpt lat="40.1910137" lon="15.2244013"><ele>179.25</ele><time>2026-04-11T07:54:32.338Z</time></trkpt><trkpt lat="40.1910664" lon="15.2242452"><ele>178.0</ele><time>2026-04-11T07:54:33.334Z</time></trkpt><trkpt lat="40.1911193" lon="15.2240854"><ele>177.25</ele><time>2026-04-11T07:54:34.334Z</time></trkpt><trkpt lat="40.1911812" lon="15.2239374"><ele>176.5</ele><time>2026-04-11T07:54:35.342Z</time></trkpt><trkpt lat="40.1912387" lon="15.2238061"><ele>175.75</ele><time>2026-04-11T07:54:36.336Z</time></trkpt><trkpt lat="40.1912844" lon="15.2236567"><ele>175.0</ele><time>2026-04-11T07:54:37.327Z</time></trkpt><trkpt lat="40.1913092" lon="15.223485"><ele>175.0</ele><time>2026-04-11T07:54:38.341Z</time></trkpt><trkpt lat="40.1913329" lon="15.2232933"><ele>175.0</ele><time>2026-04-11T07:54:39.333Z</time></trkpt><trkpt lat="40.1913553" lon="15.2230883"><ele>175.0</ele><time>2026-04-11T07:54:40.356Z</time></trkpt><trkpt lat="40.1913807" lon="15.2228706"><ele>174.0</ele><time>2026-04-11T07:54:41.333Z</time></trkpt><trkpt lat="40.1914093" lon="15.222659"><ele>173.0</ele><time>2026-04-11T07:54:42.338Z</time></trkpt><trkpt lat="40.1914368" lon="15.2224577"><ele>172.0</ele><time>2026-04-11T07:54:43.339Z</time></trkpt><trkpt lat="40.1914605" lon="15.2222702"><ele>171.5</ele><time>2026-04-11T07:54:44.346Z</time></trkpt><trkpt lat="40.1914808" lon="15.222089"><ele>171.0</ele><time>2026-04-11T07:54:45.332Z</time></trkpt><trkpt lat="40.1915009" lon="15.22192"><ele>170.5</ele><time>2026-04-11T07:54:46.337Z</time></trkpt><trkpt lat="40.1915296" lon="15.2217605"><ele>170.0</ele><time>2026-04-11T07:54:47.345Z</time></trkpt><trkpt lat="40.1915652" lon="15.2216071"><ele>169.0</ele><time>2026-04-11T07:54:48.334Z</time></trkpt><trkpt lat="40.1916033" lon="15.221462"><ele>168.0</ele><time>2026-04-11T07:54:49.336Z</time></trkpt><trkpt lat="40.19165" lon="15.2213256"><ele>167.0</ele><time>2026-04-11T07:54:50.325Z</time></trkpt><trkpt lat="40.1917034" lon="15.2211977"><ele>166.0</ele><time>2026-04-11T07:54:51.327Z</time></trkpt><trkpt lat="40.1917615" lon="15.2210602"><ele>166.0</ele><time>2026-04-11T07:54:52.337Z</time></trkpt><trkpt lat="40.19182" lon="15.2209154"><ele>166.0</ele><time>2026-04-11T07:54:53.322Z</time></trkpt><trkpt lat="40.1918714" lon="15.2207663"><ele>166.0</ele><time>2026-04-11T07:54:54.333Z</time></trkpt><trkpt lat="40.1919181" lon="15.2206214"><ele>166.0</ele><time>2026-04-11T07:54:55.317Z</time></trkpt><trkpt lat="40.1919655" lon="15.2204897"><ele>165.20000000000002</ele><time>2026-04-11T07:54:56.322Z</time></trkpt><trkpt lat="40.1920152" lon="15.22038"><ele>164.4</ele><time>2026-04-11T07:54:57.329Z</time></trkpt><trkpt lat="40.1920715" lon="15.2202857"><ele>163.6</ele><time>2026-04-11T07:54:58.339Z</time></trkpt><trkpt lat="40.1921389" lon="15.2201985"><ele>162.8</ele><time>2026-04-11T07:54:59.34Z</time></trkpt><trkpt lat="40.1922338" lon="15.2201233"><ele>162.0</ele><time>2026-04-11T07:55:00.35Z</time></trkpt><trkpt lat="40.1923307" lon="15.2200737"><ele>162.16666666666666</ele><time>2026-04-11T07:55:01.343Z</time></trkpt><trkpt lat="40.1924146" lon="15.2200315"><ele>162.33333333333334</ele><time>2026-04-11T07:55:02.33Z</time></trkpt><trkpt lat="40.1924829" lon="15.2199862"><ele>162.5</ele><time>2026-04-11T07:55:03.353Z</time></trkpt><trkpt lat="40.1925456" lon="15.2199428"><ele>162.66666666666669</ele><time>2026-04-11T07:55:04.343Z</time></trkpt><trkpt lat="40.1926123" lon="15.2199152"><ele>162.83333333333334</ele><time>2026-04-11T07:55:05.324Z</time></trkpt><trkpt lat="40.1926824" lon="15.2198947"><ele>163.0</ele><time>2026-04-11T07:55:06.319Z</time></trkpt><trkpt lat="40.1927749" lon="15.2199037"><ele>163.0</ele><time>2026-04-11T07:55:07.331Z</time></trkpt><trkpt lat="40.1928755" lon="15.2199279"><ele>163.0</ele><time>2026-04-11T07:55:08.336Z</time></trkpt><trkpt lat="40.1929569" lon="15.2199469"><ele>163.0</ele><time>2026-04-11T07:55:09.336Z</time></trkpt><trkpt lat="40.1930295" lon="15.219975"><ele>163.0</ele><time>2026-04-11T07:55:10.322Z</time></trkpt><trkpt lat="40.1930923" lon="15.2199853"><ele>163.0</ele><time>2026-04-11T07:55:11.322Z</time></trkpt><trkpt lat="40.1931933" lon="15.219908"><ele>163.0</ele><time>2026-04-11T07:55:13.323Z</time></trkpt><trkpt lat="40.1932434" lon="15.2198434"><ele>161.8</ele><time>2026-04-11T07:55:14.339Z</time></trkpt><trkpt lat="40.1933014" lon="15.2197521"><ele>160.60000000000002</ele><time>2026-04-11T07:55:15.331Z</time></trkpt><trkpt lat="40.1933582" lon="15.219652"><ele>159.39999999999998</ele><time>2026-04-11T07:55:16.345Z</time></trkpt><trkpt lat="40.1934028" lon="15.2195357"><ele>158.2</ele><time>2026-04-11T07:55:17.345Z</time></trkpt><trkpt lat="40.1934257" lon="15.2194114"><ele>157.0</ele><time>2026-04-11T07:55:18.333Z</time></trkpt><trkpt lat="40.1934363" lon="15.219312"><ele>157.0</ele><time>2026-04-11T07:55:19.336Z</time></trkpt><trkpt lat="40.1934514" lon="15.2192316"><ele>157.0</ele><time>2026-04-11T07:55:20.327Z</time></trkpt><trkpt lat="40.1935582" lon="15.2191546"><ele>157.0</ele><time>2026-04-11T07:55:22.335Z</time></trkpt><trkpt lat="40.1936378" lon="15.2191411"><ele>157.0</ele><time>2026-04-11T07:55:23.332Z</time></trkpt><trkpt lat="40.1937376" lon="15.2191405"><ele>157.0</ele><time>2026-04-11T07:55:24.339Z</time></trkpt><trkpt lat="40.193835" lon="15.2191498"><ele>157.0</ele><time>2026-04-11T07:55:25.341Z</time></trkpt><trkpt lat="40.1939349" lon="15.219143"><ele>157.0</ele><time>2026-04-11T07:55:26.333Z</time></trkpt><trkpt lat="40.1940194" lon="15.2191164"><ele>157.0</ele><time>2026-04-11T07:55:27.323Z</time></trkpt><trkpt lat="40.1941236" lon="15.2190896"><ele>157.0</ele><time>2026-04-11T07:55:29.334Z</time></trkpt><trkpt lat="40.1941737" lon="15.2190069"><ele>157.0</ele><time>2026-04-11T07:55:42.343Z</time></trkpt><trkpt lat="40.1942289" lon="15.2189123"><ele>156.2</ele><time>2026-04-11T07:55:44.346Z</time></trkpt><trkpt lat="40.1943241" lon="15.2188069"><ele>155.39999999999998</ele><time>2026-04-11T07:55:46.343Z</time></trkpt><trkpt lat="40.1944315" lon="15.2187616"><ele>154.60000000000002</ele><time>2026-04-11T07:55:48.332Z</time></trkpt><trkpt lat="40.1944992" lon="15.2187887"><ele>153.8</ele><time>2026-04-11T07:55:49.322Z</time></trkpt><trkpt lat="40.194583" lon="15.2188379"><ele>153.0</ele><time>2026-04-11T07:55:50.338Z</time></trkpt><trkpt lat="40.1946657" lon="15.2188897"><ele>153.0</ele><time>2026-04-11T07:55:51.335Z</time></trkpt><trkpt lat="40.194737" lon="15.2189372"><ele>153.0</ele><time>2026-04-11T07:55:52.337Z</time></trkpt><trkpt lat="40.1948016" lon="15.2189523"><ele>153.0</ele><time>2026-04-11T07:55:53.326Z</time></trkpt><trkpt lat="40.194872" lon="15.2189451"><ele>153.0</ele><time>2026-04-11T07:55:54.33Z</time></trkpt><trkpt lat="40.1949565" lon="15.2189137"><ele>153.0</ele><time>2026-04-11T07:55:55.328Z</time></trkpt><trkpt lat="40.1950628" lon="15.2188667"><ele>153.0</ele><time>2026-04-11T07:55:56.321Z</time></trkpt><trkpt lat="40.1951617" lon="15.2188164"><ele>152.83333333333334</ele><time>2026-04-11T07:55:57.323Z</time></trkpt><trkpt lat="40.1952319" lon="15.2187724"><ele>152.66666666666666</ele><time>2026-04-11T07:55:58.332Z</time></trkpt><trkpt lat="40.1952916" lon="15.2187255"><ele>152.5</ele><time>2026-04-11T07:55:59.327Z</time></trkpt><trkpt lat="40.1953558" lon="15.218677"><ele>152.33333333333331</ele><time>2026-04-11T07:56:00.33Z</time></trkpt><trkpt lat="40.1954472" lon="15.2186467"><ele>152.16666666666666</ele><time>2026-04-11T07:56:01.323Z</time></trkpt><trkpt lat="40.195539" lon="15.2186256"><ele>152.0</ele><time>2026-04-11T07:56:02.32Z</time></trkpt><trkpt lat="40.195639" lon="15.2186374"><ele>151.5</ele><time>2026-04-11T07:56:03.326Z</time></trkpt><trkpt lat="40.1957195" lon="15.2186438"><ele>151.0</ele><time>2026-04-11T07:56:04.333Z</time></trkpt><trkpt lat="40.1957925" lon="15.2186349"><ele>150.5</ele><time>2026-04-11T07:56:05.332Z</time></trkpt><trkpt lat="40.1958675" lon="15.2186096"><ele>150.0</ele><time>2026-04-11T07:56:06.324Z</time></trkpt><trkpt lat="40.1959427" lon="15.2185369"><ele>149.5</ele><time>2026-04-11T07:56:07.325Z</time></trkpt><trkpt lat="40.1960096" lon="15.2184411"><ele>149.0</ele><time>2026-04-11T07:56:08.336Z</time></trkpt><trkpt lat="40.1960583" lon="15.218351"><ele>149.0</ele><time>2026-04-11T07:56:09.339Z</time></trkpt><trkpt lat="40.1960925" lon="15.2182503"><ele>149.0</ele><time>2026-04-11T07:56:10.33Z</time></trkpt><trkpt lat="40.1961152" lon="15.2181412"><ele>149.0</ele><time>2026-04-11T07:56:11.328Z</time></trkpt><trkpt lat="40.1961207" lon="15.2180233"><ele>149.0</ele><time>2026-04-11T07:56:12.336Z</time></trkpt><trkpt lat="40.1961254" lon="15.2178995"><ele>149.0</ele><time>2026-04-11T07:56:13.336Z</time></trkpt><trkpt lat="40.1961339" lon="15.2177565"><ele>148.4</ele><time>2026-04-11T07:56:14.324Z</time></trkpt><trkpt lat="40.1961587" lon="15.2176004"><ele>147.8</ele><time>2026-04-11T07:56:15.334Z</time></trkpt><trkpt lat="40.196184" lon="15.2174502"><ele>147.2</ele><time>2026-04-11T07:56:16.335Z</time></trkpt><trkpt lat="40.1962085" lon="15.2173204"><ele>146.6</ele><time>2026-04-11T07:56:17.341Z</time></trkpt><trkpt lat="40.1962062" lon="15.2172216"><ele>146.0</ele><time>2026-04-11T07:56:18.323Z</time></trkpt><trkpt lat="40.1961865" lon="15.2171424"><ele>146.0</ele><time>2026-04-11T07:56:19.335Z</time></trkpt><trkpt lat="40.1961675" lon="15.2170576"><ele>146.0</ele><time>2026-04-11T07:56:20.335Z</time></trkpt><trkpt lat="40.1961356" lon="15.2169515"><ele>146.0</ele><time>2026-04-11T07:56:21.33Z</time></trkpt><trkpt lat="40.1961113" lon="15.2168233"><ele>146.0</ele><time>2026-04-11T07:56:22.327Z</time></trkpt><trkpt lat="40.1960847" lon="15.2166805"><ele>146.0</ele><time>2026-04-11T07:56:23.34Z</time></trkpt><trkpt lat="40.1960574" lon="15.216541"><ele>145.83333333333331</ele><time>2026-04-11T07:56:24.333Z</time></trkpt><trkpt lat="40.1960294" lon="15.2164325"><ele>145.66666666666666</ele><time>2026-04-11T07:56:25.327Z</time></trkpt><trkpt lat="40.1960011" lon="15.2163411"><ele>145.5</ele><time>2026-04-11T07:56:26.343Z</time></trkpt><trkpt lat="40.1959821" lon="15.2162489"><ele>145.33333333333334</ele><time>2026-04-11T07:56:27.326Z</time></trkpt><trkpt lat="40.1959707" lon="15.2161603"><ele>145.16666666666669</ele><time>2026-04-11T07:56:28.355Z</time></trkpt><trkpt lat="40.1959606" lon="15.2160685"><ele>145.0</ele><time>2026-04-11T07:56:29.33Z</time></trkpt><trkpt lat="40.1959501" lon="15.2159624"><ele>145.0</ele><time>2026-04-11T07:56:30.337Z</time></trkpt><trkpt lat="40.1959368" lon="15.2158376"><ele>145.0</ele><time>2026-04-11T07:56:31.337Z</time></trkpt><trkpt lat="40.1959271" lon="15.2156966"><ele>145.0</ele><time>2026-04-11T07:56:32.331Z</time></trkpt><trkpt lat="40.1959183" lon="15.2155416"><ele>145.0</ele><time>2026-04-11T07:56:33.329Z</time></trkpt><trkpt lat="40.1959116" lon="15.215399"><ele>145.0</ele><time>2026-04-11T07:56:34.305Z</time></trkpt><trkpt lat="40.1958972" lon="15.2152682"><ele>144.6</ele><time>2026-04-11T07:56:35.338Z</time></trkpt><trkpt lat="40.1958816" lon="15.2151381"><ele>144.2</ele><time>2026-04-11T07:56:36.329Z</time></trkpt><trkpt lat="40.1958674" lon="15.2150168"><ele>143.8</ele><time>2026-04-11T07:56:37.345Z</time></trkpt><trkpt lat="40.1958524" lon="15.2148962"><ele>143.4</ele><time>2026-04-11T07:56:38.33Z</time></trkpt><trkpt lat="40.1958381" lon="15.2147844"><ele>143.0</ele><time>2026-04-11T07:56:39.332Z</time></trkpt><trkpt lat="40.1958189" lon="15.2146806"><ele>142.6</ele><time>2026-04-11T07:56:40.335Z</time></trkpt><trkpt lat="40.1958064" lon="15.2145511"><ele>142.20000000000002</ele><time>2026-04-11T07:56:41.325Z</time></trkpt><trkpt lat="40.1957961" lon="15.2144172"><ele>141.8</ele><time>2026-04-11T07:56:42.336Z</time></trkpt><trkpt lat="40.1957832" lon="15.2142866"><ele>141.4</ele><time>2026-04-11T07:56:43.329Z</time></trkpt><trkpt lat="40.1957755" lon="15.2141597"><ele>141.0</ele><time>2026-04-11T07:56:44.371Z</time></trkpt><trkpt lat="40.1957686" lon="15.2140422"><ele>140.2</ele><time>2026-04-11T07:56:45.329Z</time></trkpt><trkpt lat="40.1957664" lon="15.2139138"><ele>139.39999999999998</ele><time>2026-04-11T07:56:46.329Z</time></trkpt><trkpt lat="40.1957724" lon="15.21378"><ele>138.6</ele><time>2026-04-11T07:56:47.326Z</time></trkpt><trkpt lat="40.1957883" lon="15.2136456"><ele>137.79999999999998</ele><time>2026-04-11T07:56:48.333Z</time></trkpt><trkpt lat="40.1958155" lon="15.2135108"><ele>137.0</ele><time>2026-04-11T07:56:49.324Z</time></trkpt><trkpt lat="40.1958442" lon="15.213391"><ele>137.0</ele><time>2026-04-11T07:56:50.338Z</time></trkpt><trkpt lat="40.1958712" lon="15.213262"><ele>137.0</ele><time>2026-04-11T07:56:51.335Z</time></trkpt><trkpt lat="40.1958754" lon="15.2131244"><ele>137.0</ele><time>2026-04-11T07:56:52.328Z</time></trkpt><trkpt lat="40.1958771" lon="15.2129779"><ele>137.0</ele><time>2026-04-11T07:56:53.34Z</time></trkpt><trkpt lat="40.1958734" lon="15.2128386"><ele>137.0</ele><time>2026-04-11T07:56:54.329Z</time></trkpt><trkpt lat="40.1958716" lon="15.2127133"><ele>136.66666666666666</ele><time>2026-04-11T07:56:55.322Z</time></trkpt><trkpt lat="40.1958702" lon="15.2126019"><ele>136.33333333333331</ele><time>2026-04-11T07:56:56.328Z</time></trkpt><trkpt lat="40.1958809" lon="15.212514"><ele>136.0</ele><time>2026-04-11T07:56:57.333Z</time></trkpt><trkpt lat="40.1958997" lon="15.2123621"><ele>135.66666666666666</ele><time>2026-04-11T07:56:59.326Z</time></trkpt><trkpt lat="40.1959075" lon="15.2122783"><ele>135.33333333333334</ele><time>2026-04-11T07:57:01.328Z</time></trkpt><trkpt lat="40.1959487" lon="15.2122095"><ele>135.0</ele><time>2026-04-11T07:59:15.32Z</time></trkpt><trkpt lat="40.1959163" lon="15.2121129"><ele>135.0</ele><time>2026-04-11T07:59:18.324Z</time></trkpt><trkpt lat="40.195879" lon="15.2119575"><ele>135.0</ele><time>2026-04-11T07:59:20.307Z</time></trkpt><trkpt lat="40.1958409" lon="15.2118372"><ele>135.0</ele><time>2026-04-11T07:59:21.305Z</time></trkpt><trkpt lat="40.1958109" lon="15.2117153"><ele>135.0</ele><time>2026-04-11T07:59:22.324Z</time></trkpt><trkpt lat="40.1957809" lon="15.2115945"><ele>135.0</ele><time>2026-04-11T07:59:23.329Z</time></trkpt><trkpt lat="40.1957489" lon="15.2114657"><ele>135.4</ele><time>2026-04-11T07:59:24.312Z</time></trkpt><trkpt lat="40.1957184" lon="15.2113234"><ele>135.8</ele><time>2026-04-11T07:59:25.311Z</time></trkpt><trkpt lat="40.1956951" lon="15.2111882"><ele>136.2</ele><time>2026-04-11T07:59:26.32Z</time></trkpt><trkpt lat="40.1956701" lon="15.211061"><ele>136.6</ele><time>2026-04-11T07:59:27.299Z</time></trkpt><trkpt lat="40.1956408" lon="15.210945"><ele>137.0</ele><time>2026-04-11T07:59:28.371Z</time></trkpt><trkpt lat="40.1955991" lon="15.210832"><ele>134.6</ele><time>2026-04-11T07:59:29.315Z</time></trkpt><trkpt lat="40.1955506" lon="15.2107111"><ele>132.2</ele><time>2026-04-11T07:59:30.306Z</time></trkpt><trkpt lat="40.1955048" lon="15.2105888"><ele>129.8</ele><time>2026-04-11T07:59:31.323Z</time></trkpt><trkpt lat="40.1954571" lon="15.2104709"><ele>127.4</ele><time>2026-04-11T07:59:32.302Z</time></trkpt><trkpt lat="40.1954024" lon="15.2103605"><ele>125.0</ele><time>2026-04-11T07:59:33.3Z</time></trkpt><trkpt lat="40.1953511" lon="15.2102563"><ele>125.0</ele><time>2026-04-11T07:59:34.302Z</time></trkpt><trkpt lat="40.1953138" lon="15.210169"><ele>125.0</ele><time>2026-04-11T07:59:35.306Z</time></trkpt><trkpt lat="40.1952784" lon="15.2100916"><ele>125.0</ele><time>2026-04-11T07:59:36.308Z</time></trkpt><trkpt lat="40.1952514" lon="15.2100121"><ele>125.0</ele><time>2026-04-11T07:59:37.318Z</time></trkpt><trkpt lat="40.1952527" lon="15.2098839"><ele>125.0</ele><time>2026-04-11T07:59:39.321Z</time></trkpt><trkpt lat="40.1952798" lon="15.2098086"><ele>125.0</ele><time>2026-04-11T07:59:41.308Z</time></trkpt><trkpt lat="40.1953436" lon="15.209808"><ele>125.0</ele><time>2026-04-11T08:00:22.311Z</time></trkpt><trkpt lat="40.1953949" lon="15.2098805"><ele>124.8</ele><time>2026-04-11T08:00:44.31Z</time></trkpt><trkpt lat="40.1954618" lon="15.2099474"><ele>124.6</ele><time>2026-04-11T08:00:46.319Z</time></trkpt><trkpt lat="40.1955296" lon="15.2100266"><ele>124.4</ele><time>2026-04-11T08:00:48.33Z</time></trkpt><trkpt lat="40.1955895" lon="15.2100877"><ele>124.2</ele><time>2026-04-11T08:01:02.34Z</time></trkpt><trkpt lat="40.1956566" lon="15.2101673"><ele>124.0</ele><time>2026-04-11T08:01:04.345Z</time></trkpt><trkpt lat="40.1957414" lon="15.2102777"><ele>125.83333333333334</ele><time>2026-04-11T08:01:06.334Z</time></trkpt><trkpt lat="40.195786" lon="15.2103367"><ele>127.66666666666667</ele><time>2026-04-11T08:01:07.328Z</time></trkpt><trkpt lat="40.1958334" lon="15.2103987"><ele>129.5</ele><time>2026-04-11T08:01:08.33Z</time></trkpt><trkpt lat="40.1958837" lon="15.2104563"><ele>131.33333333333334</ele><time>2026-04-11T08:01:09.343Z</time></trkpt><trkpt lat="40.1959299" lon="15.2105177"><ele>133.16666666666666</ele><time>2026-04-11T08:01:10.324Z</time></trkpt><trkpt lat="40.1960172" lon="15.21063"><ele>135.0</ele><time>2026-04-11T08:01:12.334Z</time></trkpt><trkpt lat="40.1960619" lon="15.2106906"><ele>135.4</ele><time>2026-04-11T08:01:13.343Z</time></trkpt><trkpt lat="40.1961058" lon="15.2107553"><ele>135.8</ele><time>2026-04-11T08:01:14.357Z</time></trkpt><trkpt lat="40.1961501" lon="15.210814"><ele>136.2</ele><time>2026-04-11T08:01:15.335Z</time></trkpt><trkpt lat="40.1962357" lon="15.2109283"><ele>136.6</ele><time>2026-04-11T08:01:17.331Z</time></trkpt><trkpt lat="40.1963204" lon="15.2110559"><ele>137.0</ele><time>2026-04-11T08:01:19.337Z</time></trkpt><trkpt lat="40.1963667" lon="15.2111273"><ele>137.00000000000003</ele><time>2026-04-11T08:01:20.334Z</time></trkpt><trkpt lat="40.1964163" lon="15.2111973"><ele>137.0</ele><time>2026-04-11T08:01:21.33Z</time></trkpt><trkpt lat="40.1964684" lon="15.2112599"><ele>137.0</ele><time>2026-04-11T08:01:22.329Z</time></trkpt><trkpt lat="40.1965235" lon="15.2113268"><ele>137.0</ele><time>2026-04-11T08:01:23.339Z</time></trkpt><trkpt lat="40.1965731" lon="15.2113903"><ele>137.0</ele><time>2026-04-11T08:01:24.331Z</time></trkpt><trkpt lat="40.1966218" lon="15.2114519"><ele>137.00000000000003</ele><time>2026-04-11T08:01:25.333Z</time></trkpt><trkpt lat="40.1966806" lon="15.2115107"><ele>137.0</ele><time>2026-04-11T08:01:26.33Z</time></trkpt><trkpt lat="40.1967422" lon="15.2115699"><ele>140.5</ele><time>2026-04-11T08:01:27.333Z</time></trkpt><trkpt lat="40.1968066" lon="15.2116213"><ele>144.0</ele><time>2026-04-11T08:01:28.326Z</time></trkpt><trkpt lat="40.1968674" lon="15.2116624"><ele>147.5</ele><time>2026-04-11T08:01:29.313Z</time></trkpt><trkpt lat="40.1969876" lon="15.2117249"><ele>151.0</ele><time>2026-04-11T08:01:31.331Z</time></trkpt><trkpt lat="40.1970607" lon="15.2117506"><ele>154.5</ele><time>2026-04-11T08:01:32.331Z</time></trkpt><trkpt lat="40.197135" lon="15.2117801"><ele>158.0</ele><time>2026-04-11T08:01:33.331Z</time></trkpt><trkpt lat="40.1972137" lon="15.2118032"><ele>158.0</ele><time>2026-04-11T08:01:34.322Z</time></trkpt><trkpt lat="40.1972875" lon="15.2118124"><ele>158.0</ele><time>2026-04-11T08:01:35.327Z</time></trkpt><trkpt lat="40.197365" lon="15.2118201"><ele>158.0</ele><time>2026-04-11T08:01:36.329Z</time></trkpt><trkpt lat="40.1974439" lon="15.2118266"><ele>158.0</ele><time>2026-04-11T08:01:37.325Z</time></trkpt><trkpt lat="40.1975165" lon="15.211822"><ele>158.0</ele><time>2026-04-11T08:01:38.325Z</time></trkpt><trkpt lat="40.1975873" lon="15.2118157"><ele>158.0</ele><time>2026-04-11T08:01:39.344Z</time></trkpt><trkpt lat="40.1977124" lon="15.2118037"><ele>160.5</ele><time>2026-04-11T08:01:41.336Z</time></trkpt><trkpt lat="40.1977854" lon="15.2118044"><ele>163.0</ele><time>2026-04-11T08:01:42.326Z</time></trkpt><trkpt lat="40.1978591" lon="15.2118085"><ele>165.5</ele><time>2026-04-11T08:01:43.336Z</time></trkpt><trkpt lat="40.1979269" lon="15.2118222"><ele>168.0</ele><time>2026-04-11T08:01:44.331Z</time></trkpt><trkpt lat="40.198022" lon="15.2118637"><ele>170.5</ele><time>2026-04-11T08:01:46.341Z</time></trkpt><trkpt lat="40.198094" lon="15.2119088"><ele>173.0</ele><time>2026-04-11T08:01:59.324Z</time></trkpt><trkpt lat="40.1981846" lon="15.2119473"><ele>175.83333333333331</ele><time>2026-04-11T08:02:01.341Z</time></trkpt><trkpt lat="40.1982999" lon="15.2120056"><ele>178.66666666666666</ele><time>2026-04-11T08:02:03.338Z</time></trkpt><trkpt lat="40.1983638" lon="15.2120421"><ele>181.5</ele><time>2026-04-11T08:02:04.343Z</time></trkpt><trkpt lat="40.1984362" lon="15.2120771"><ele>184.33333333333334</ele><time>2026-04-11T08:02:05.33Z</time></trkpt><trkpt lat="40.1985134" lon="15.212116"><ele>187.16666666666669</ele><time>2026-04-11T08:02:06.325Z</time></trkpt><trkpt lat="40.1985834" lon="15.2121516"><ele>190.0</ele><time>2026-04-11T08:02:07.335Z</time></trkpt><trkpt lat="40.1986526" lon="15.2121846"><ele>190.0</ele><time>2026-04-11T08:02:08.326Z</time></trkpt><trkpt lat="40.1987208" lon="15.2122227"><ele>190.0</ele><time>2026-04-11T08:02:09.336Z</time></trkpt><trkpt lat="40.1987792" lon="15.2122586"><ele>190.0</ele><time>2026-04-11T08:02:10.33Z</time></trkpt><trkpt lat="40.1988747" lon="15.2123402"><ele>190.0</ele><time>2026-04-11T08:02:12.339Z</time></trkpt><trkpt lat="40.1989253" lon="15.2123998"><ele>190.0</ele><time>2026-04-11T08:02:13.33Z</time></trkpt><trkpt lat="40.198984" lon="15.2124683"><ele>190.0</ele><time>2026-04-11T08:02:14.338Z</time></trkpt><trkpt lat="40.1990539" lon="15.2125467"><ele>192.5</ele><time>2026-04-11T08:02:15.329Z</time></trkpt><trkpt lat="40.1991243" lon="15.2126275"><ele>195.0</ele><time>2026-04-11T08:02:16.316Z</time></trkpt><trkpt lat="40.1991908" lon="15.2127016"><ele>197.5</ele><time>2026-04-11T08:02:17.333Z</time></trkpt><trkpt lat="40.1992558" lon="15.2127694"><ele>200.0</ele><time>2026-04-11T08:02:18.324Z</time></trkpt><trkpt lat="40.1993269" lon="15.2128347"><ele>202.49999999999997</ele><time>2026-04-11T08:02:19.33Z</time></trkpt><trkpt lat="40.1993984" lon="15.212906"><ele>205.0</ele><time>2026-04-11T08:02:20.329Z</time></trkpt><trkpt lat="40.1994703" lon="15.2129742"><ele>205.0</ele><time>2026-04-11T08:02:21.354Z</time></trkpt><trkpt lat="40.1995405" lon="15.2130243"><ele>205.0</ele><time>2026-04-11T08:02:22.322Z</time></trkpt><trkpt lat="40.1995945" lon="15.2130745"><ele>205.0</ele><time>2026-04-11T08:02:23.322Z</time></trkpt><trkpt lat="40.199688" lon="15.2131722"><ele>205.0</ele><time>2026-04-11T08:02:25.331Z</time></trkpt><trkpt lat="40.1997541" lon="15.2132757"><ele>205.0</ele><time>2026-04-11T08:02:27.314Z</time></trkpt><trkpt lat="40.1997803" lon="15.2133962"><ele>203.99999999999997</ele><time>2026-04-11T08:02:29.318Z</time></trkpt><trkpt lat="40.1997884" lon="15.2135402"><ele>203.0</ele><time>2026-04-11T08:02:31.323Z</time></trkpt><trkpt lat="40.1997952" lon="15.2136241"><ele>202.0</ele><time>2026-04-11T08:02:32.337Z</time></trkpt><trkpt lat="40.1998105" lon="15.213712"><ele>201.0</ele><time>2026-04-11T08:02:33.341Z</time></trkpt><trkpt lat="40.1998292" lon="15.2137923"><ele>199.99999999999997</ele><time>2026-04-11T08:02:34.332Z</time></trkpt><trkpt lat="40.1998805" lon="15.2139062"><ele>199.0</ele><time>2026-04-11T08:02:36.333Z</time></trkpt><trkpt lat="40.1999827" lon="15.2140277"><ele>203.6</ele><time>2026-04-11T08:02:38.339Z</time></trkpt><trkpt lat="40.2000534" lon="15.2141024"><ele>208.2</ele><time>2026-04-11T08:02:39.33Z</time></trkpt><trkpt lat="40.2001324" lon="15.2141838"><ele>212.79999999999998</ele><time>2026-04-11T08:02:40.332Z</time></trkpt><trkpt lat="40.2002064" lon="15.2142608"><ele>217.39999999999998</ele><time>2026-04-11T08:02:41.331Z</time></trkpt><trkpt lat="40.200273" lon="15.2143342"><ele>222.0</ele><time>2026-04-11T08:02:42.335Z</time></trkpt><trkpt lat="40.2003484" lon="15.2144053"><ele>222.0</ele><time>2026-04-11T08:02:43.324Z</time></trkpt><trkpt lat="40.20043" lon="15.2144753"><ele>222.0</ele><time>2026-04-11T08:02:44.342Z</time></trkpt><trkpt lat="40.2005171" lon="15.214534"><ele>222.0</ele><time>2026-04-11T08:02:45.318Z</time></trkpt><trkpt lat="40.2005973" lon="15.2145813"><ele>222.0</ele><time>2026-04-11T08:02:46.318Z</time></trkpt><trkpt lat="40.2006621" lon="15.2146135"><ele>222.0</ele><time>2026-04-11T08:02:47.324Z</time></trkpt><trkpt lat="40.2007338" lon="15.2146389"><ele>222.0</ele><time>2026-04-11T08:02:48.331Z</time></trkpt><trkpt lat="40.2008237" lon="15.2146458"><ele>225.0</ele><time>2026-04-11T08:02:49.341Z</time></trkpt><trkpt lat="40.2009286" lon="15.2146443"><ele>228.0</ele><time>2026-04-11T08:02:50.331Z</time></trkpt><trkpt lat="40.2010375" lon="15.214642"><ele>231.0</ele><time>2026-04-11T08:02:51.384Z</time></trkpt><trkpt lat="40.2011427" lon="15.2146311"><ele>234.0</ele><time>2026-04-11T08:02:52.328Z</time></trkpt><trkpt lat="40.2012523" lon="15.2146179"><ele>237.0</ele><time>2026-04-11T08:02:53.33Z</time></trkpt><trkpt lat="40.2013604" lon="15.214599"><ele>237.0</ele><time>2026-04-11T08:02:54.33Z</time></trkpt><trkpt lat="40.201453" lon="15.2145832"><ele>237.0</ele><time>2026-04-11T08:02:55.339Z</time></trkpt><trkpt lat="40.2015381" lon="15.2145642"><ele>237.0</ele><time>2026-04-11T08:02:56.341Z</time></trkpt><trkpt lat="40.2016256" lon="15.214542"><ele>237.0</ele><time>2026-04-11T08:02:57.352Z</time></trkpt><trkpt lat="40.2017164" lon="15.2145124"><ele>237.0</ele><time>2026-04-11T08:02:58.333Z</time></trkpt><trkpt lat="40.2018099" lon="15.214487"><ele>239.0</ele><time>2026-04-11T08:02:59.34Z</time></trkpt><trkpt lat="40.2019048" lon="15.2144698"><ele>241.0</ele><time>2026-04-11T08:03:00.345Z</time></trkpt><trkpt lat="40.2019969" lon="15.2144491"><ele>243.0</ele><time>2026-04-11T08:03:01.33Z</time></trkpt><trkpt lat="40.2020937" lon="15.2144278"><ele>245.0</ele><time>2026-04-11T08:03:02.336Z</time></trkpt><trkpt lat="40.2021906" lon="15.2144011"><ele>247.0</ele><time>2026-04-11T08:03:03.349Z</time></trkpt><trkpt lat="40.2022817" lon="15.2143799"><ele>247.99999999999997</ele><time>2026-04-11T08:03:04.333Z</time></trkpt><trkpt lat="40.2023547" lon="15.2143592"><ele>249.0</ele><time>2026-04-11T08:03:05.344Z</time></trkpt><trkpt lat="40.2024471" lon="15.2143234"><ele>250.0</ele><time>2026-04-11T08:03:07.329Z</time></trkpt><trkpt lat="40.202507" lon="15.2142925"><ele>251.0</ele><time>2026-04-11T08:03:17.329Z</time></trkpt><trkpt lat="40.2025732" lon="15.2142806"><ele>251.99999999999997</ele><time>2026-04-11T08:04:48.304Z</time></trkpt><trkpt lat="40.202646" lon="15.2142196"><ele>253.0</ele><time>2026-04-11T08:04:51.301Z</time></trkpt><trkpt lat="40.2027021" lon="15.2141644"><ele>252.99999999999997</ele><time>2026-04-11T08:04:53.308Z</time></trkpt><trkpt lat="40.2027598" lon="15.2140724"><ele>253.0</ele><time>2026-04-11T08:04:55.308Z</time></trkpt><trkpt lat="40.2028131" lon="15.2140094"><ele>253.0</ele><time>2026-04-11T08:05:17.308Z</time></trkpt><trkpt lat="40.2028825" lon="15.213965"><ele>253.0</ele><time>2026-04-11T08:05:20.322Z</time></trkpt><trkpt lat="40.2029552" lon="15.2139246"><ele>252.99999999999997</ele><time>2026-04-11T08:05:22.321Z</time></trkpt><trkpt lat="40.2030432" lon="15.213836"><ele>253.0</ele><time>2026-04-11T08:05:24.326Z</time></trkpt><trkpt lat="40.2031287" lon="15.2137322"><ele>252.33333333333331</ele><time>2026-04-11T08:05:26.325Z</time></trkpt><trkpt lat="40.2032057" lon="15.2136398"><ele>251.66666666666666</ele><time>2026-04-11T08:05:28.321Z</time></trkpt><trkpt lat="40.2032723" lon="15.213511"><ele>251.0</ele><time>2026-04-11T08:05:30.351Z</time></trkpt><trkpt lat="40.2032968" lon="15.2134324"><ele>250.33333333333331</ele><time>2026-04-11T08:05:31.321Z</time></trkpt><trkpt lat="40.2033144" lon="15.213339"><ele>249.66666666666666</ele><time>2026-04-11T08:05:32.314Z</time></trkpt><trkpt lat="40.2033418" lon="15.2132407"><ele>249.0</ele><time>2026-04-11T08:05:33.325Z</time></trkpt><trkpt lat="40.2033586" lon="15.2131444"><ele>249.0</ele><time>2026-04-11T08:05:34.309Z</time></trkpt><trkpt lat="40.2033765" lon="15.213049"><ele>249.0</ele><time>2026-04-11T08:05:35.322Z</time></trkpt><trkpt lat="40.2033967" lon="15.2129671"><ele>249.0</ele><time>2026-04-11T08:05:36.302Z</time></trkpt><trkpt lat="40.203414" lon="15.2128727"><ele>249.0</ele><time>2026-04-11T08:05:37.313Z</time></trkpt><trkpt lat="40.2034358" lon="15.2127725"><ele>249.0</ele><time>2026-04-11T08:05:38.333Z</time></trkpt><trkpt lat="40.2034613" lon="15.2126743"><ele>249.0</ele><time>2026-04-11T08:05:39.309Z</time></trkpt><trkpt lat="40.2034909" lon="15.2125758"><ele>249.0</ele><time>2026-04-11T08:05:40.317Z</time></trkpt><trkpt lat="40.2035188" lon="15.2124866"><ele>249.0</ele><time>2026-04-11T08:05:41.332Z</time></trkpt><trkpt lat="40.2035462" lon="15.2124046"><ele>249.0</ele><time>2026-04-11T08:05:42.301Z</time></trkpt><trkpt lat="40.203572" lon="15.2123275"><ele>249.0</ele><time>2026-04-11T08:05:43.326Z</time></trkpt><trkpt lat="40.2036178" lon="15.2121979"><ele>249.0</ele><time>2026-04-11T08:05:45.302Z</time></trkpt><trkpt lat="40.203663" lon="15.2120785"><ele>249.0</ele><time>2026-04-11T08:05:47.315Z</time></trkpt><trkpt lat="40.2037118" lon="15.2119361"><ele>249.28571428571428</ele><time>2026-04-11T08:05:49.314Z</time></trkpt><trkpt lat="40.2037421" lon="15.2118602"><ele>249.57142857142856</ele><time>2026-04-11T08:05:50.302Z</time></trkpt><trkpt lat="40.203782" lon="15.2117818"><ele>249.85714285714283</ele><time>2026-04-11T08:05:51.308Z</time></trkpt><trkpt lat="40.2038298" lon="15.2117033"><ele>250.1428571428571</ele><time>2026-04-11T08:05:52.312Z</time></trkpt><trkpt lat="40.203877" lon="15.2116343"><ele>250.42857142857142</ele><time>2026-04-11T08:05:53.303Z</time></trkpt><trkpt lat="40.2039205" lon="15.2115707"><ele>250.71428571428567</ele><time>2026-04-11T08:05:54.322Z</time></trkpt><trkpt lat="40.2039559" lon="15.2115014"><ele>250.99999999999997</ele><time>2026-04-11T08:05:55.321Z</time></trkpt><trkpt lat="40.2039956" lon="15.2113848"><ele>251.25</ele><time>2026-04-11T08:05:57.339Z</time></trkpt><trkpt lat="40.2039247" lon="15.2112777"><ele>251.5</ele><time>2026-04-11T08:08:32.305Z</time></trkpt><trkpt lat="40.2038257" lon="15.2112947"><ele>251.75</ele><time>2026-04-11T08:08:35.315Z</time></trkpt><trkpt lat="40.2037217" lon="15.2113387"><ele>252.0</ele><time>2026-04-11T08:08:37.32Z</time></trkpt><trkpt lat="40.2035663" lon="15.2113968"><ele>252.0</ele><time>2026-04-11T08:08:40.303Z</time></trkpt><trkpt lat="40.2034632" lon="15.2114432"><ele>252.0</ele><time>2026-04-11T08:08:42.307Z</time></trkpt><trkpt lat="40.2033928" lon="15.2114749"><ele>252.0</ele><time>2026-04-11T08:08:44.347Z</time></trkpt><trkpt lat="40.2033742" lon="15.2115622"><ele>252.0</ele><time>2026-04-11T08:09:20.322Z</time></trkpt><trkpt lat="40.2034608" lon="15.2115169"><ele>252.0</ele><time>2026-04-11T08:09:31.33Z</time></trkpt><trkpt lat="40.2035453" lon="15.2114438"><ele>252.0</ele><time>2026-04-11T08:09:34.338Z</time></trkpt><trkpt lat="40.2036285" lon="15.2113946"><ele>252.0</ele><time>2026-04-11T08:09:36.337Z</time></trkpt><trkpt lat="40.2036889" lon="15.2113672"><ele>252.0</ele><time>2026-04-11T08:09:37.334Z</time></trkpt><trkpt lat="40.2037913" lon="15.2113302"><ele>252.0</ele><time>2026-04-11T08:09:39.336Z</time></trkpt><trkpt lat="40.2038837" lon="15.2113071"><ele>252.0</ele><time>2026-04-11T08:09:41.337Z</time></trkpt><trkpt lat="40.2039574" lon="15.2113079"><ele>252.0</ele><time>2026-04-11T08:09:43.335Z</time></trkpt><trkpt lat="40.2040075" lon="15.2113643"><ele>252.0</ele><time>2026-04-11T08:09:45.336Z</time></trkpt><trkpt lat="40.203996" lon="15.2114698"><ele>251.8</ele><time>2026-04-11T08:09:48.345Z</time></trkpt><trkpt lat="40.2039448" lon="15.2115698"><ele>251.6</ele><time>2026-04-11T08:09:50.351Z</time></trkpt><trkpt lat="40.2038852" lon="15.2116603"><ele>251.40000000000003</ele><time>2026-04-11T08:09:52.344Z</time></trkpt><trkpt lat="40.2038325" lon="15.2117507"><ele>251.20000000000002</ele><time>2026-04-11T08:09:54.346Z</time></trkpt><trkpt lat="40.2037866" lon="15.2118534"><ele>251.0</ele><time>2026-04-11T08:09:56.338Z</time></trkpt><trkpt lat="40.2037494" lon="15.211968"><ele>251.00000000000003</ele><time>2026-04-11T08:09:58.328Z</time></trkpt><trkpt lat="40.2037293" lon="15.2120504"><ele>251.0</ele><time>2026-04-11T08:10:00.322Z</time></trkpt><trkpt lat="40.2037508" lon="15.2121752"><ele>251.0</ele><time>2026-04-11T08:10:03.337Z</time></trkpt><trkpt lat="40.2037883" lon="15.2122713"><ele>251.0</ele><time>2026-04-11T08:10:05.346Z</time></trkpt><trkpt lat="40.2038284" lon="15.2123659"><ele>251.00000000000003</ele><time>2026-04-11T08:10:07.34Z</time></trkpt><trkpt lat="40.203871" lon="15.212441"><ele>251.0</ele><time>2026-04-11T08:10:09.345Z</time></trkpt><trkpt lat="40.2039105" lon="15.2125321"><ele>250.66666666666669</ele><time>2026-04-11T08:10:11.326Z</time></trkpt><trkpt lat="40.2039461" lon="15.2126114"><ele>250.33333333333334</ele><time>2026-04-11T08:10:13.347Z</time></trkpt><trkpt lat="40.203974" lon="15.2127304"><ele>250.0</ele><time>2026-04-11T08:10:16.332Z</time></trkpt><trkpt lat="40.2039905" lon="15.2128252"><ele>249.66666666666669</ele><time>2026-04-11T08:10:18.341Z</time></trkpt><trkpt lat="40.2039918" lon="15.212935"><ele>249.33333333333334</ele><time>2026-04-11T08:10:20.33Z</time></trkpt><trkpt lat="40.2039874" lon="15.2130275"><ele>249.0</ele><time>2026-04-11T08:10:22.329Z</time></trkpt><trkpt lat="40.2039774" lon="15.2131261"><ele>248.83333333333334</ele><time>2026-04-11T08:10:24.351Z</time></trkpt><trkpt lat="40.2039629" lon="15.2132414"><ele>248.66666666666669</ele><time>2026-04-11T08:10:26.307Z</time></trkpt><trkpt lat="40.2039524" lon="15.2133439"><ele>248.5</ele><time>2026-04-11T08:10:28.334Z</time></trkpt><trkpt lat="40.2039449" lon="15.2134302"><ele>248.33333333333334</ele><time>2026-04-11T08:10:30.363Z</time></trkpt><trkpt lat="40.2039401" lon="15.2135157"><ele>248.16666666666669</ele><time>2026-04-11T08:10:32.339Z</time></trkpt><trkpt lat="40.2039287" lon="15.2135993"><ele>248.0</ele><time>2026-04-11T08:10:34.347Z</time></trkpt><trkpt lat="40.2039527" lon="15.213714"><ele>248.0</ele><time>2026-04-11T08:10:37.33Z</time></trkpt><trkpt lat="40.2039875" lon="15.2137944"><ele>248.00000000000003</ele><time>2026-04-11T08:10:39.335Z</time></trkpt><trkpt lat="40.2040422" lon="15.2138407"><ele>248.0</ele><time>2026-04-11T08:10:41.325Z</time></trkpt><trkpt lat="40.204101" lon="15.2138806"><ele>248.0</ele><time>2026-04-11T08:10:43.331Z</time></trkpt><trkpt lat="40.2041672" lon="15.213951"><ele>248.00000000000003</ele><time>2026-04-11T08:10:46.347Z</time></trkpt><trkpt lat="40.2042369" lon="15.2140247"><ele>248.0</ele><time>2026-04-11T08:10:49.351Z</time></trkpt><trkpt lat="40.20429" lon="15.2140877"><ele>248.0</ele><time>2026-04-11T08:10:51.331Z</time></trkpt><trkpt lat="40.204337" lon="15.2141473"><ele>244.00000000000003</ele><time>2026-04-11T08:10:53.35Z</time></trkpt><trkpt lat="40.2043763" lon="15.2142152"><ele>240.0</ele><time>2026-04-11T08:10:55.343Z</time></trkpt><trkpt lat="40.2044041" lon="15.214321"><ele>236.0</ele><time>2026-04-11T08:10:58.323Z</time></trkpt><trkpt lat="40.2044122" lon="15.2144366"><ele>232.0</ele><time>2026-04-11T08:11:01.339Z</time></trkpt><trkpt lat="40.2044093" lon="15.2145198"><ele>228.00000000000003</ele><time>2026-04-11T08:11:03.343Z</time></trkpt><trkpt lat="40.204398" lon="15.2146151"><ele>224.0</ele><time>2026-04-11T08:11:05.346Z</time></trkpt><trkpt lat="40.2043855" lon="15.214732"><ele>223.16666666666669</ele><time>2026-04-11T08:11:07.339Z</time></trkpt><trkpt lat="40.2043932" lon="15.214828"><ele>222.33333333333334</ele><time>2026-04-11T08:11:09.351Z</time></trkpt><trkpt lat="40.2044026" lon="15.2149189"><ele>221.5</ele><time>2026-04-11T08:11:11.322Z</time></trkpt><trkpt lat="40.204397" lon="15.2150054"><ele>220.66666666666669</ele><time>2026-04-11T08:11:14.323Z</time></trkpt><trkpt lat="40.204386" lon="15.2151207"><ele>219.83333333333334</ele><time>2026-04-11T08:11:17.336Z</time></trkpt><trkpt lat="40.2043832" lon="15.2152406"><ele>219.0</ele><time>2026-04-11T08:11:20.333Z</time></trkpt><trkpt lat="40.2043771" lon="15.2153333"><ele>219.0</ele><time>2026-04-11T08:11:22.336Z</time></trkpt><trkpt lat="40.2043661" lon="15.2154445"><ele>218.99999999999997</ele><time>2026-04-11T08:11:24.326Z</time></trkpt><trkpt lat="40.2043508" lon="15.2156094"><ele>218.99999999999997</ele><time>2026-04-11T08:11:26.333Z</time></trkpt><trkpt lat="40.2043439" lon="15.2156977"><ele>219.0</ele><time>2026-04-11T08:11:27.336Z</time></trkpt><trkpt lat="40.2043314" lon="15.215857"><ele>219.0</ele><time>2026-04-11T08:11:29.352Z</time></trkpt><trkpt lat="40.2043223" lon="15.2159592"><ele>219.16666666666666</ele><time>2026-04-11T08:11:30.311Z</time></trkpt><trkpt lat="40.2043157" lon="15.2160688"><ele>219.33333333333331</ele><time>2026-04-11T08:11:31.326Z</time></trkpt><trkpt lat="40.2043094" lon="15.2161738"><ele>219.5</ele><time>2026-04-11T08:11:32.316Z</time></trkpt><trkpt lat="40.204302" lon="15.2162692"><ele>219.66666666666666</ele><time>2026-04-11T08:11:33.333Z</time></trkpt><trkpt lat="40.2042987" lon="15.2163687"><ele>219.83333333333331</ele><time>2026-04-11T08:11:34.353Z</time></trkpt><trkpt lat="40.2042813" lon="15.2164701"><ele>220.0</ele><time>2026-04-11T08:11:35.342Z</time></trkpt><trkpt lat="40.2042644" lon="15.2165686"><ele>219.99999999999997</ele><time>2026-04-11T08:11:36.326Z</time></trkpt><trkpt lat="40.2042509" lon="15.2166638"><ele>220.0</ele><time>2026-04-11T08:11:37.338Z</time></trkpt><trkpt lat="40.2042366" lon="15.2167503"><ele>220.0</ele><time>2026-04-11T08:11:38.338Z</time></trkpt><trkpt lat="40.2042238" lon="15.2168392"><ele>220.0</ele><time>2026-04-11T08:11:39.331Z</time></trkpt><trkpt lat="40.2042123" lon="15.2169225"><ele>219.99999999999997</ele><time>2026-04-11T08:11:40.337Z</time></trkpt><trkpt lat="40.2042113" lon="15.2170818"><ele>220.0</ele><time>2026-04-11T08:11:42.323Z</time></trkpt><trkpt lat="40.2042484" lon="15.2172443"><ele>220.33333333333331</ele><time>2026-04-11T08:11:44.326Z</time></trkpt><trkpt lat="40.2042764" lon="15.2173341"><ele>220.66666666666666</ele><time>2026-04-11T08:11:45.336Z</time></trkpt><trkpt lat="40.2043087" lon="15.2174258"><ele>221.0</ele><time>2026-04-11T08:11:46.332Z</time></trkpt><trkpt lat="40.2043402" lon="15.2175159"><ele>221.33333333333331</ele><time>2026-04-11T08:11:47.338Z</time></trkpt><trkpt lat="40.2043702" lon="15.2176108"><ele>221.66666666666666</ele><time>2026-04-11T08:11:48.328Z</time></trkpt><trkpt lat="40.2043991" lon="15.2176983"><ele>222.0</ele><time>2026-04-11T08:11:49.346Z</time></trkpt><trkpt lat="40.2044508" lon="15.2178303"><ele>222.0</ele><time>2026-04-11T08:11:51.337Z</time></trkpt><trkpt lat="40.2045117" lon="15.2179766"><ele>222.0</ele><time>2026-04-11T08:11:53.321Z</time></trkpt><trkpt lat="40.2045597" lon="15.2180889"><ele>222.0</ele><time>2026-04-11T08:11:55.333Z</time></trkpt><trkpt lat="40.2045909" lon="15.218198"><ele>222.0</ele><time>2026-04-11T08:11:57.337Z</time></trkpt><trkpt lat="40.2046145" lon="15.2182791"><ele>222.0</ele><time>2026-04-11T08:11:59.341Z</time></trkpt><trkpt lat="40.2046399" lon="15.2183878"><ele>222.71428571428572</ele><time>2026-04-11T08:12:02.323Z</time></trkpt><trkpt lat="40.2046747" lon="15.2184877"><ele>223.42857142857144</ele><time>2026-04-11T08:12:05.345Z</time></trkpt><trkpt lat="40.2047173" lon="15.2185582"><ele>224.14285714285717</ele><time>2026-04-11T08:12:24.322Z</time></trkpt><trkpt lat="40.2047628" lon="15.2186261"><ele>224.85714285714286</ele><time>2026-04-11T08:12:32.329Z</time></trkpt><trkpt lat="40.2048116" lon="15.2186859"><ele>225.5714285714286</ele><time>2026-04-11T08:12:43.333Z</time></trkpt><trkpt lat="40.204878" lon="15.2187406"><ele>226.2857142857143</ele><time>2026-04-11T08:12:48.33Z</time></trkpt><trkpt lat="40.2049515" lon="15.2187758"><ele>227.0</ele><time>2026-04-11T08:12:52.336Z</time></trkpt><trkpt lat="40.205011" lon="15.218808"><ele>225.0</ele><time>2026-04-11T08:12:55.32Z</time></trkpt><trkpt lat="40.2050747" lon="15.2188316"><ele>223.00000000000003</ele><time>2026-04-11T08:12:58.333Z</time></trkpt><trkpt lat="40.2051449" lon="15.2188586"><ele>221.0</ele><time>2026-04-11T08:13:01.326Z</time></trkpt><trkpt lat="40.205212" lon="15.2188902"><ele>219.0</ele><time>2026-04-11T08:13:04.333Z</time></trkpt><trkpt lat="40.205268" lon="15.2189312"><ele>217.0</ele><time>2026-04-11T08:13:06.317Z</time></trkpt><trkpt lat="40.2053235" lon="15.2189726"><ele>215.0</ele><time>2026-04-11T08:13:08.331Z</time></trkpt><trkpt lat="40.2053832" lon="15.2190084"><ele>213.0</ele><time>2026-04-11T08:13:10.322Z</time></trkpt><trkpt lat="40.2054583" lon="15.2190274"><ele>212.99999999999997</ele><time>2026-04-11T08:13:13.348Z</time></trkpt><trkpt lat="40.205539" lon="15.2189879"><ele>213.0</ele><time>2026-04-11T08:13:16.328Z</time></trkpt><trkpt lat="40.2055827" lon="15.2189277"><ele>213.0</ele><time>2026-04-11T08:13:18.335Z</time></trkpt><trkpt lat="40.2056071" lon="15.2188508"><ele>213.0</ele><time>2026-04-11T08:13:28.341Z</time></trkpt><trkpt lat="40.2056408" lon="15.2187809"><ele>213.0</ele><time>2026-04-11T08:13:31.349Z</time></trkpt><trkpt lat="40.2056881" lon="15.2187106"><ele>212.99999999999997</ele><time>2026-04-11T08:13:34.317Z</time></trkpt><trkpt lat="40.2057298" lon="15.2186455"><ele>213.0</ele><time>2026-04-11T08:13:37.336Z</time></trkpt><trkpt lat="40.2057825" lon="15.2185788"><ele>209.28571428571428</ele><time>2026-04-11T08:18:16.326Z</time></trkpt><trkpt lat="40.2058248" lon="15.2185111"><ele>205.57142857142856</ele><time>2026-04-11T08:18:24.339Z</time></trkpt><trkpt lat="40.205864" lon="15.2184455"><ele>201.85714285714283</ele><time>2026-04-11T08:18:26.332Z</time></trkpt><trkpt lat="40.205909" lon="15.2183758"><ele>198.14285714285714</ele><time>2026-04-11T08:18:28.333Z</time></trkpt><trkpt lat="40.2059476" lon="15.2183015"><ele>194.42857142857144</ele><time>2026-04-11T08:18:30.335Z</time></trkpt><trkpt lat="40.2059957" lon="15.2182272"><ele>190.7142857142857</ele><time>2026-04-11T08:18:32.338Z</time></trkpt><trkpt lat="40.2060482" lon="15.2181536"><ele>187.0</ele><time>2026-04-11T08:18:34.338Z</time></trkpt><trkpt lat="40.2061058" lon="15.2180817"><ele>186.8</ele><time>2026-04-11T08:18:36.342Z</time></trkpt><trkpt lat="40.2061611" lon="15.2180045"><ele>186.6</ele><time>2026-04-11T08:18:38.322Z</time></trkpt><trkpt lat="40.2062144" lon="15.2179183"><ele>186.4</ele><time>2026-04-11T08:18:40.333Z</time></trkpt><trkpt lat="40.2062716" lon="15.2178044"><ele>186.20000000000002</ele><time>2026-04-11T08:18:42.338Z</time></trkpt><trkpt lat="40.2063248" lon="15.2177004"><ele>186.0</ele><time>2026-04-11T08:18:44.31Z</time></trkpt><trkpt lat="40.2063743" lon="15.2175949"><ele>186.0</ele><time>2026-04-11T08:18:46.328Z</time></trkpt><trkpt lat="40.2064274" lon="15.2174915"><ele>186.0</ele><time>2026-04-11T08:18:48.329Z</time></trkpt><trkpt lat="40.2064731" lon="15.2173964"><ele>186.0</ele><time>2026-04-11T08:18:50.325Z</time></trkpt><trkpt lat="40.2064943" lon="15.217315"><ele>186.0</ele><time>2026-04-11T08:18:52.332Z</time></trkpt><trkpt lat="40.2065257" lon="15.2172356"><ele>186.0</ele><time>2026-04-11T08:18:55.326Z</time></trkpt><trkpt lat="40.2065955" lon="15.2172272"><ele>186.0</ele><time>2026-04-11T08:18:59.333Z</time></trkpt><trkpt lat="40.2066684" lon="15.2173138"><ele>183.20000000000002</ele><time>2026-04-11T08:19:02.338Z</time></trkpt><trkpt lat="40.2067231" lon="15.2174067"><ele>180.4</ele><time>2026-04-11T08:19:04.346Z</time></trkpt><trkpt lat="40.2067804" lon="15.2174937"><ele>177.6</ele><time>2026-04-11T08:19:06.33Z</time></trkpt><trkpt lat="40.2068456" lon="15.2175895"><ele>174.8</ele><time>2026-04-11T08:19:08.34Z</time></trkpt><trkpt lat="40.2069107" lon="15.2177036"><ele>172.0</ele><time>2026-04-11T08:19:10.345Z</time></trkpt><trkpt lat="40.2069624" lon="15.2178179"><ele>172.0</ele><time>2026-04-11T08:19:12.323Z</time></trkpt><trkpt lat="40.2070013" lon="15.2178982"><ele>172.0</ele><time>2026-04-11T08:19:14.326Z</time></trkpt><trkpt lat="40.2070556" lon="15.2179762"><ele>172.0</ele><time>2026-04-11T08:19:16.332Z</time></trkpt><trkpt lat="40.2071138" lon="15.2180573"><ele>172.0</ele><time>2026-04-11T08:19:18.325Z</time></trkpt><trkpt lat="40.2071707" lon="15.2181151"><ele>172.0</ele><time>2026-04-11T08:19:29.337Z</time></trkpt><trkpt lat="40.2072137" lon="15.2181793"><ele>172.0</ele><time>2026-04-11T08:19:33.334Z</time></trkpt><trkpt lat="40.2072646" lon="15.2182531"><ele>171.66666666666669</ele><time>2026-04-11T08:19:36.334Z</time></trkpt><trkpt lat="40.2073232" lon="15.2183108"><ele>171.33333333333334</ele><time>2026-04-11T08:19:38.337Z</time></trkpt><trkpt lat="40.2073957" lon="15.2183781"><ele>171.0</ele><time>2026-04-11T08:19:40.335Z</time></trkpt><trkpt lat="40.2074726" lon="15.2184582"><ele>170.66666666666666</ele><time>2026-04-11T08:19:42.342Z</time></trkpt><trkpt lat="40.2075415" lon="15.2185037"><ele>170.33333333333331</ele><time>2026-04-11T08:19:44.333Z</time></trkpt><trkpt lat="40.2076373" lon="15.2185527"><ele>170.0</ele><time>2026-04-11T08:19:46.331Z</time></trkpt><trkpt lat="40.2077501" lon="15.2186022"><ele>168.0</ele><time>2026-04-11T08:19:48.329Z</time></trkpt><trkpt lat="40.2078514" lon="15.2186577"><ele>166.0</ele><time>2026-04-11T08:19:50.354Z</time></trkpt><trkpt lat="40.2079505" lon="15.2187288"><ele>164.0</ele><time>2026-04-11T08:19:52.314Z</time></trkpt><trkpt lat="40.208037" lon="15.2188011"><ele>162.0</ele><time>2026-04-11T08:19:54.331Z</time></trkpt><trkpt lat="40.2081323" lon="15.2188678"><ele>160.0</ele><time>2026-04-11T08:19:56.329Z</time></trkpt><trkpt lat="40.2082255" lon="15.2189408"><ele>158.6</ele><time>2026-04-11T08:19:58.318Z</time></trkpt><trkpt lat="40.2083068" lon="15.219016"><ele>157.2</ele><time>2026-04-11T08:20:00.334Z</time></trkpt><trkpt lat="40.2083929" lon="15.219085"><ele>155.8</ele><time>2026-04-11T08:20:02.336Z</time></trkpt><trkpt lat="40.2085024" lon="15.2191501"><ele>154.4</ele><time>2026-04-11T08:20:04.342Z</time></trkpt><trkpt lat="40.2086012" lon="15.2192093"><ele>153.0</ele><time>2026-04-11T08:20:06.332Z</time></trkpt><trkpt lat="40.2086758" lon="15.2192726"><ele>153.0</ele><time>2026-04-11T08:20:08.314Z</time></trkpt><trkpt lat="40.2087621" lon="15.2193392"><ele>153.0</ele><time>2026-04-11T08:20:10.326Z</time></trkpt><trkpt lat="40.2088363" lon="15.219391"><ele>153.0</ele><time>2026-04-11T08:20:12.336Z</time></trkpt><trkpt lat="40.2089015" lon="15.2194186"><ele>153.0</ele><time>2026-04-11T08:20:15.331Z</time></trkpt></trkseg><trkseg><trkpt lat="40.2089327" lon="15.2194338"><ele>153.0</ele><time>2026-04-11T08:36:05.319Z</time></trkpt><trkpt lat="40.2088456" lon="15.2193888"><ele>153.0</ele><time>2026-04-11T08:36:52.328Z</time></trkpt><trkpt lat="40.2087736" lon="15.2193714"><ele>153.0</ele><time>2026-04-11T08:36:54.324Z</time></trkpt><trkpt lat="40.2086975" lon="15.2193171"><ele>153.0</ele><time>2026-04-11T08:36:56.301Z</time></trkpt><trkpt lat="40.2086158" lon="15.2192543"><ele>153.0</ele><time>2026-04-11T08:36:58.327Z</time></trkpt><trkpt lat="40.2085229" lon="15.2191844"><ele>153.0</ele><time>2026-04-11T08:37:00.324Z</time></trkpt><trkpt lat="40.2084075" lon="15.2191208"><ele>153.0</ele><time>2026-04-11T08:37:02.319Z</time></trkpt><trkpt lat="40.2083481" lon="15.2190911"><ele>153.0</ele><time>2026-04-11T08:37:03.323Z</time></trkpt><trkpt lat="40.2082496" lon="15.2190149"><ele>153.0</ele><time>2026-04-11T08:37:05.325Z</time></trkpt><trkpt lat="40.2081939" lon="15.218969"><ele>153.0</ele><time>2026-04-11T08:37:06.314Z</time></trkpt><trkpt lat="40.208132" lon="15.2189207"><ele>153.0</ele><time>2026-04-11T08:37:07.33Z</time></trkpt><trkpt lat="40.208071" lon="15.2188735"><ele>154.16666666666666</ele><time>2026-04-11T08:37:08.323Z</time></trkpt><trkpt lat="40.2080157" lon="15.2188222"><ele>155.33333333333334</ele><time>2026-04-11T08:37:09.315Z</time></trkpt><trkpt lat="40.2079623" lon="15.2187758"><ele>156.5</ele><time>2026-04-11T08:37:10.322Z</time></trkpt><trkpt lat="40.2078544" lon="15.2186836"><ele>157.66666666666669</ele><time>2026-04-11T08:37:12.325Z</time></trkpt><trkpt lat="40.2077964" lon="15.2186438"><ele>158.83333333333334</ele><time>2026-04-11T08:37:13.337Z</time></trkpt><trkpt lat="40.2077329" lon="15.2186152"><ele>160.0</ele><time>2026-04-11T08:37:14.328Z</time></trkpt><trkpt lat="40.2076656" lon="15.2185856"><ele>160.0</ele><time>2026-04-11T08:37:15.323Z</time></trkpt><trkpt lat="40.2076016" lon="15.2185572"><ele>160.0</ele><time>2026-04-11T08:37:16.327Z</time></trkpt><trkpt lat="40.2075098" lon="15.2185152"><ele>160.0</ele><time>2026-04-11T08:37:18.32Z</time></trkpt><trkpt lat="40.2074244" lon="15.2184458"><ele>160.0</ele><time>2026-04-11T08:37:20.328Z</time></trkpt><trkpt lat="40.2073719" lon="15.2183942"><ele>160.0</ele><time>2026-04-11T08:37:21.329Z</time></trkpt><trkpt lat="40.2073107" lon="15.2183326"><ele>160.0</ele><time>2026-04-11T08:37:22.319Z</time></trkpt><trkpt lat="40.2072503" lon="15.218263"><ele>161.66666666666669</ele><time>2026-04-11T08:37:23.324Z</time></trkpt><trkpt lat="40.2071959" lon="15.2182005"><ele>163.33333333333334</ele><time>2026-04-11T08:37:24.326Z</time></trkpt><trkpt lat="40.2071059" lon="15.2180837"><ele>165.0</ele><time>2026-04-11T08:37:26.332Z</time></trkpt><trkpt lat="40.2070603" lon="15.2180174"><ele>166.66666666666666</ele><time>2026-04-11T08:37:27.308Z</time></trkpt><trkpt lat="40.2070098" lon="15.2179442"><ele>168.33333333333331</ele><time>2026-04-11T08:37:28.334Z</time></trkpt><trkpt lat="40.2069615" lon="15.2178625"><ele>170.0</ele><time>2026-04-11T08:37:29.339Z</time></trkpt><trkpt lat="40.2069076" lon="15.2177753"><ele>170.33333333333331</ele><time>2026-04-11T08:37:30.317Z</time></trkpt><trkpt lat="40.2068528" lon="15.2176861"><ele>170.66666666666666</ele><time>2026-04-11T08:37:31.341Z</time></trkpt><trkpt lat="40.2067987" lon="15.2175963"><ele>171.0</ele><time>2026-04-11T08:37:32.331Z</time></trkpt><trkpt lat="40.2067456" lon="15.2175159"><ele>171.33333333333334</ele><time>2026-04-11T08:37:33.343Z</time></trkpt><trkpt lat="40.2066939" lon="15.2174385"><ele>171.66666666666669</ele><time>2026-04-11T08:37:34.323Z</time></trkpt><trkpt lat="40.2066475" lon="15.2173673"><ele>172.0</ele><time>2026-04-11T08:37:35.333Z</time></trkpt><trkpt lat="40.2066014" lon="15.2172959"><ele>171.33333333333334</ele><time>2026-04-11T08:37:36.329Z</time></trkpt><trkpt lat="40.2065533" lon="15.2172276"><ele>170.66666666666669</ele><time>2026-04-11T08:37:37.312Z</time></trkpt><trkpt lat="40.206512" lon="15.2171647"><ele>170.0</ele><time>2026-04-11T08:37:38.32Z</time></trkpt><trkpt lat="40.2064291" lon="15.2170241"><ele>169.33333333333334</ele><time>2026-04-11T08:37:40.343Z</time></trkpt><trkpt lat="40.2063932" lon="15.2169478"><ele>168.66666666666666</ele><time>2026-04-11T08:37:41.33Z</time></trkpt><trkpt lat="40.2063581" lon="15.2168767"><ele>168.0</ele><time>2026-04-11T08:37:42.337Z</time></trkpt><trkpt lat="40.2062897" lon="15.2167585"><ele>170.5</ele><time>2026-04-11T08:37:44.331Z</time></trkpt><trkpt lat="40.206248" lon="15.2166409"><ele>173.0</ele><time>2026-04-11T08:37:46.326Z</time></trkpt><trkpt lat="40.206227" lon="15.2164799"><ele>175.5</ele><time>2026-04-11T08:37:48.341Z</time></trkpt><trkpt lat="40.206224" lon="15.216397"><ele>178.0</ele><time>2026-04-11T08:37:49.314Z</time></trkpt><trkpt lat="40.2062285" lon="15.2163082"><ele>180.5</ele><time>2026-04-11T08:37:50.318Z</time></trkpt><trkpt lat="40.206251" lon="15.2162297"><ele>183.0</ele><time>2026-04-11T08:37:51.323Z</time></trkpt><trkpt lat="40.2063038" lon="15.2160764"><ele>183.2</ele><time>2026-04-11T08:37:53.319Z</time></trkpt><trkpt lat="40.2063332" lon="15.2159888"><ele>183.4</ele><time>2026-04-11T08:37:54.341Z</time></trkpt><trkpt lat="40.2063624" lon="15.2159075"><ele>183.6</ele><time>2026-04-11T08:37:55.328Z</time></trkpt><trkpt lat="40.2064213" lon="15.2157725"><ele>183.79999999999998</ele><time>2026-04-11T08:37:57.322Z</time></trkpt><trkpt lat="40.2065117" lon="15.2156498"><ele>184.0</ele><time>2026-04-11T08:37:59.33Z</time></trkpt><trkpt lat="40.2065648" lon="15.2155906"><ele>183.33333333333334</ele><time>2026-04-11T08:38:00.328Z</time></trkpt><trkpt lat="40.2066287" lon="15.2155365"><ele>182.66666666666669</ele><time>2026-04-11T08:38:01.33Z</time></trkpt><trkpt lat="40.2066985" lon="15.2154894"><ele>182.0</ele><time>2026-04-11T08:38:02.322Z</time></trkpt><trkpt lat="40.2067767" lon="15.2154394"><ele>181.33333333333334</ele><time>2026-04-11T08:38:03.335Z</time></trkpt><trkpt lat="40.2068517" lon="15.2153966"><ele>180.66666666666666</ele><time>2026-04-11T08:38:04.321Z</time></trkpt><trkpt lat="40.2069184" lon="15.2153573"><ele>180.0</ele><time>2026-04-11T08:38:05.32Z</time></trkpt><trkpt lat="40.2069817" lon="15.2153219"><ele>180.0</ele><time>2026-04-11T08:38:06.326Z</time></trkpt><trkpt lat="40.2070434" lon="15.2152838"><ele>180.0</ele><time>2026-04-11T08:38:07.338Z</time></trkpt><trkpt lat="40.2071046" lon="15.2152398"><ele>180.0</ele><time>2026-04-11T08:38:08.335Z</time></trkpt><trkpt lat="40.2071704" lon="15.21518"><ele>180.0</ele><time>2026-04-11T08:38:09.336Z</time></trkpt><trkpt lat="40.2072386" lon="15.2151163"><ele>180.0</ele><time>2026-04-11T08:38:10.328Z</time></trkpt><trkpt lat="40.2072946" lon="15.2150506"><ele>180.0</ele><time>2026-04-11T08:38:11.325Z</time></trkpt><trkpt lat="40.2073487" lon="15.2149816"><ele>177.6</ele><time>2026-04-11T08:38:12.32Z</time></trkpt><trkpt lat="40.2074023" lon="15.2149039"><ele>175.2</ele><time>2026-04-11T08:38:13.327Z</time></trkpt><trkpt lat="40.207448" lon="15.2148249"><ele>172.8</ele><time>2026-04-11T08:38:14.326Z</time></trkpt><trkpt lat="40.2074854" lon="15.2147497"><ele>170.4</ele><time>2026-04-11T08:38:15.328Z</time></trkpt><trkpt lat="40.2075322" lon="15.2146043"><ele>168.0</ele><time>2026-04-11T08:38:17.327Z</time></trkpt><trkpt lat="40.2075291" lon="15.2144393"><ele>168.0</ele><time>2026-04-11T08:38:19.333Z</time></trkpt><trkpt lat="40.207511" lon="15.2143555"><ele>168.0</ele><time>2026-04-11T08:38:20.337Z</time></trkpt><trkpt lat="40.2074879" lon="15.2142698"><ele>168.0</ele><time>2026-04-11T08:38:21.327Z</time></trkpt><trkpt lat="40.2074718" lon="15.2141822"><ele>168.0</ele><time>2026-04-11T08:38:22.335Z</time></trkpt><trkpt lat="40.2074547" lon="15.214094"><ele>168.0</ele><time>2026-04-11T08:38:23.327Z</time></trkpt><trkpt lat="40.2074238" lon="15.2139602"><ele>168.0</ele><time>2026-04-11T08:38:25.332Z</time></trkpt><trkpt lat="40.2074187" lon="15.2138464"><ele>168.60000000000002</ele><time>2026-04-11T08:38:27.32Z</time></trkpt><trkpt lat="40.2074331" lon="15.2137465"><ele>169.20000000000002</ele><time>2026-04-11T08:38:29.326Z</time></trkpt><trkpt lat="40.2074754" lon="15.2136244"><ele>169.8</ele><time>2026-04-11T08:38:31.342Z</time></trkpt><trkpt lat="40.2075377" lon="15.2135179"><ele>170.4</ele><time>2026-04-11T08:38:33.332Z</time></trkpt><trkpt lat="40.2076341" lon="15.2134041"><ele>171.0</ele><time>2026-04-11T08:38:35.324Z</time></trkpt><trkpt lat="40.2076874" lon="15.2133374"><ele>171.0</ele><time>2026-04-11T08:38:36.328Z</time></trkpt><trkpt lat="40.2077328" lon="15.2132745"><ele>171.0</ele><time>2026-04-11T08:38:37.323Z</time></trkpt><trkpt lat="40.2077996" lon="15.2131408"><ele>171.0</ele><time>2026-04-11T08:38:39.332Z</time></trkpt><trkpt lat="40.2078424" lon="15.2129999"><ele>171.0</ele><time>2026-04-11T08:38:41.31Z</time></trkpt><trkpt lat="40.2078764" lon="15.2128375"><ele>171.0</ele><time>2026-04-11T08:38:43.33Z</time></trkpt><trkpt lat="40.2078906" lon="15.2127394"><ele>171.83333333333334</ele><time>2026-04-11T08:38:44.334Z</time></trkpt><trkpt lat="40.2079072" lon="15.2126311"><ele>172.66666666666666</ele><time>2026-04-11T08:38:45.319Z</time></trkpt><trkpt lat="40.2079252" lon="15.2125235"><ele>173.5</ele><time>2026-04-11T08:38:46.326Z</time></trkpt><trkpt lat="40.2079378" lon="15.2124246"><ele>174.33333333333331</ele><time>2026-04-11T08:38:47.334Z</time></trkpt><trkpt lat="40.2079351" lon="15.2123374"><ele>175.16666666666666</ele><time>2026-04-11T08:38:48.332Z</time></trkpt><trkpt lat="40.2079314" lon="15.2121839"><ele>176.0</ele><time>2026-04-11T08:38:50.33Z</time></trkpt><trkpt lat="40.2079686" lon="15.2120376"><ele>177.16666666666666</ele><time>2026-04-11T08:38:52.32Z</time></trkpt><trkpt lat="40.2080139" lon="15.211965"><ele>178.33333333333331</ele><time>2026-04-11T08:38:53.32Z</time></trkpt><trkpt lat="40.2080626" lon="15.2118906"><ele>179.5</ele><time>2026-04-11T08:38:54.33Z</time></trkpt><trkpt lat="40.2081139" lon="15.2118126"><ele>180.66666666666666</ele><time>2026-04-11T08:38:55.326Z</time></trkpt><trkpt lat="40.2081647" lon="15.2117387"><ele>181.83333333333334</ele><time>2026-04-11T08:38:56.322Z</time></trkpt><trkpt lat="40.2082084" lon="15.2116593"><ele>183.0</ele><time>2026-04-11T08:38:57.31Z</time></trkpt><trkpt lat="40.208249" lon="15.211573"><ele>179.5</ele><time>2026-04-11T08:38:58.326Z</time></trkpt><trkpt lat="40.2082768" lon="15.211488"><ele>176.0</ele><time>2026-04-11T08:38:59.329Z</time></trkpt><trkpt lat="40.2083004" lon="15.2114012"><ele>172.5</ele><time>2026-04-11T08:39:00.32Z</time></trkpt><trkpt lat="40.2083218" lon="15.2113014"><ele>169.0</ele><time>2026-04-11T08:39:01.319Z</time></trkpt><trkpt lat="40.2083481" lon="15.2111953"><ele>165.5</ele><time>2026-04-11T08:39:02.326Z</time></trkpt><trkpt lat="40.2083692" lon="15.2110891"><ele>162.0</ele><time>2026-04-11T08:39:03.32Z</time></trkpt><trkpt lat="40.208396" lon="15.2109846"><ele>162.0</ele><time>2026-04-11T08:39:04.332Z</time></trkpt><trkpt lat="40.2084219" lon="15.2108829"><ele>162.0</ele><time>2026-04-11T08:39:05.321Z</time></trkpt><trkpt lat="40.2084492" lon="15.2107864"><ele>162.0</ele><time>2026-04-11T08:39:06.308Z</time></trkpt><trkpt lat="40.2084688" lon="15.2106906"><ele>162.0</ele><time>2026-04-11T08:39:07.324Z</time></trkpt><trkpt lat="40.2084708" lon="15.2105534"><ele>162.0</ele><time>2026-04-11T08:39:09.318Z</time></trkpt><trkpt lat="40.2084432" lon="15.21046"><ele>162.0</ele><time>2026-04-11T08:39:11.324Z</time></trkpt><trkpt lat="40.2084014" lon="15.2103829"><ele>162.16666666666666</ele><time>2026-04-11T08:39:13.326Z</time></trkpt><trkpt lat="40.2083442" lon="15.2102961"><ele>162.33333333333334</ele><time>2026-04-11T08:39:15.324Z</time></trkpt><trkpt lat="40.2082711" lon="15.2102185"><ele>162.5</ele><time>2026-04-11T08:39:17.316Z</time></trkpt><trkpt lat="40.2081768" lon="15.2101376"><ele>162.66666666666669</ele><time>2026-04-11T08:39:19.319Z</time></trkpt><trkpt lat="40.2081243" lon="15.2100919"><ele>162.83333333333334</ele><time>2026-04-11T08:39:20.331Z</time></trkpt><trkpt lat="40.208073" lon="15.2100436"><ele>163.0</ele><time>2026-04-11T08:39:21.332Z</time></trkpt><trkpt lat="40.2079838" lon="15.2099564"><ele>163.0</ele><time>2026-04-11T08:39:23.327Z</time></trkpt><trkpt lat="40.2079085" lon="15.2098729"><ele>163.0</ele><time>2026-04-11T08:39:25.318Z</time></trkpt><trkpt lat="40.2078339" lon="15.209784"><ele>163.0</ele><time>2026-04-11T08:39:27.31Z</time></trkpt><trkpt lat="40.207751" lon="15.2096872"><ele>163.0</ele><time>2026-04-11T08:39:29.317Z</time></trkpt><trkpt lat="40.2076823" lon="15.2095954"><ele>163.0</ele><time>2026-04-11T08:39:31.32Z</time></trkpt><trkpt lat="40.207635" lon="15.2095212"><ele>162.83333333333334</ele><time>2026-04-11T08:39:33.324Z</time></trkpt><trkpt lat="40.2075806" lon="15.2094548"><ele>162.66666666666669</ele><time>2026-04-11T08:39:46.326Z</time></trkpt><trkpt lat="40.2075433" lon="15.209388"><ele>162.5</ele><time>2026-04-11T08:39:54.31Z</time></trkpt><trkpt lat="40.2074928" lon="15.2093227"><ele>162.33333333333334</ele><time>2026-04-11T08:40:00.321Z</time></trkpt><trkpt lat="40.2074335" lon="15.2092589"><ele>162.16666666666666</ele><time>2026-04-11T08:43:04.319Z</time></trkpt><trkpt lat="40.2073735" lon="15.2091796"><ele>162.0</ele><time>2026-04-11T08:43:07.321Z</time></trkpt><trkpt lat="40.2073136" lon="15.2091104"><ele>162.0</ele><time>2026-04-11T08:43:10.322Z</time></trkpt><trkpt lat="40.2072252" lon="15.2090424"><ele>162.0</ele><time>2026-04-11T08:43:12.315Z</time></trkpt><trkpt lat="40.2071567" lon="15.2089962"><ele>162.0</ele><time>2026-04-11T08:43:13.328Z</time></trkpt><trkpt lat="40.2070732" lon="15.2089447"><ele>162.0</ele><time>2026-04-11T08:43:14.318Z</time></trkpt><trkpt lat="40.2069795" lon="15.2088763"><ele>162.0</ele><time>2026-04-11T08:43:15.337Z</time></trkpt><trkpt lat="40.2068886" lon="15.208816"><ele>160.79999999999998</ele><time>2026-04-11T08:43:16.308Z</time></trkpt><trkpt lat="40.2068083" lon="15.2087593"><ele>159.6</ele><time>2026-04-11T08:43:17.312Z</time></trkpt><trkpt lat="40.2067365" lon="15.2087038"><ele>158.39999999999998</ele><time>2026-04-11T08:43:18.314Z</time></trkpt><trkpt lat="40.2066508" lon="15.2086416"><ele>157.2</ele><time>2026-04-11T08:43:19.312Z</time></trkpt><trkpt lat="40.2065727" lon="15.2085781"><ele>156.0</ele><time>2026-04-11T08:43:20.318Z</time></trkpt><trkpt lat="40.2064936" lon="15.2085203"><ele>156.0</ele><time>2026-04-11T08:43:21.3Z</time></trkpt><trkpt lat="40.2064193" lon="15.2084628"><ele>156.0</ele><time>2026-04-11T08:43:22.306Z</time></trkpt><trkpt lat="40.2063531" lon="15.2084125"><ele>156.0</ele><time>2026-04-11T08:43:23.322Z</time></trkpt><trkpt lat="40.2062899" lon="15.2083675"><ele>156.0</ele><time>2026-04-11T08:43:24.316Z</time></trkpt><trkpt lat="40.2062254" lon="15.2083281"><ele>156.0</ele><time>2026-04-11T08:43:25.326Z</time></trkpt><trkpt lat="40.206165" lon="15.2083039"><ele>156.0</ele><time>2026-04-11T08:43:26.321Z</time></trkpt><trkpt lat="40.2060349" lon="15.2083062"><ele>156.0</ele><time>2026-04-11T08:43:28.315Z</time></trkpt><trkpt lat="40.205966" lon="15.2083146"><ele>156.0</ele><time>2026-04-11T08:43:29.314Z</time></trkpt><trkpt lat="40.2058973" lon="15.2083132"><ele>156.0</ele><time>2026-04-11T08:43:30.319Z</time></trkpt><trkpt lat="40.2058289" lon="15.2083025"><ele>156.0</ele><time>2026-04-11T08:43:32.316Z</time></trkpt><trkpt lat="40.2057079" lon="15.2083362"><ele>156.0</ele><time>2026-04-11T08:44:38.326Z</time></trkpt><trkpt lat="40.2056305" lon="15.2083419"><ele>156.0</ele><time>2026-04-11T08:44:39.343Z</time></trkpt><trkpt lat="40.2055459" lon="15.2083414"><ele>157.8</ele><time>2026-04-11T08:44:40.31Z</time></trkpt><trkpt lat="40.2054572" lon="15.2083423"><ele>159.6</ele><time>2026-04-11T08:44:41.315Z</time></trkpt><trkpt lat="40.2053527" lon="15.2083449"><ele>161.4</ele><time>2026-04-11T08:44:42.331Z</time></trkpt><trkpt lat="40.205246" lon="15.2083497"><ele>163.2</ele><time>2026-04-11T08:44:43.327Z</time></trkpt><trkpt lat="40.2051448" lon="15.2083485"><ele>165.0</ele><time>2026-04-11T08:44:44.32Z</time></trkpt><trkpt lat="40.2050458" lon="15.2083333"><ele>165.0</ele><time>2026-04-11T08:44:45.329Z</time></trkpt><trkpt lat="40.2049484" lon="15.2082927"><ele>165.0</ele><time>2026-04-11T08:44:46.326Z</time></trkpt><trkpt lat="40.2048537" lon="15.2082346"><ele>165.0</ele><time>2026-04-11T08:44:47.314Z</time></trkpt><trkpt lat="40.2047655" lon="15.2081511"><ele>165.0</ele><time>2026-04-11T08:44:48.331Z</time></trkpt><trkpt lat="40.2046893" lon="15.2080437"><ele>165.0</ele><time>2026-04-11T08:44:49.338Z</time></trkpt><trkpt lat="40.2046142" lon="15.2079108"><ele>163.5</ele><time>2026-04-11T08:44:50.371Z</time></trkpt><trkpt lat="40.204537" lon="15.2077764"><ele>162.0</ele><time>2026-04-11T08:44:51.332Z</time></trkpt><trkpt lat="40.2044645" lon="15.207668"><ele>160.5</ele><time>2026-04-11T08:44:52.307Z</time></trkpt><trkpt lat="40.2043792" lon="15.2075877"><ele>159.0</ele><time>2026-04-11T08:44:53.303Z</time></trkpt><trkpt lat="40.202549" lon="15.2071256"><ele>158.2</ele><time>2026-04-11T08:45:07.037Z</time></trkpt><trkpt lat="40.2024512" lon="15.2071336"><ele>157.4</ele><time>2026-04-11T08:45:08.305Z</time></trkpt><trkpt lat="40.2023536" lon="15.2071195"><ele>156.6</ele><time>2026-04-11T08:45:09.302Z</time></trkpt><trkpt lat="40.2022299" lon="15.2070963"><ele>155.8</ele><time>2026-04-11T08:45:11.353Z</time></trkpt><trkpt lat="40.202139" lon="15.2070983"><ele>155.0</ele><time>2026-04-11T08:45:12.325Z</time></trkpt><trkpt lat="40.2020369" lon="15.2070956"><ele>155.0</ele><time>2026-04-11T08:45:13.338Z</time></trkpt><trkpt lat="40.2019308" lon="15.2070802"><ele>155.0</ele><time>2026-04-11T08:45:14.328Z</time></trkpt><trkpt lat="40.2018244" lon="15.2070443"><ele>155.0</ele><time>2026-04-11T08:45:15.316Z</time></trkpt><trkpt lat="40.2017202" lon="15.2069961"><ele>155.0</ele><time>2026-04-11T08:45:16.326Z</time></trkpt><trkpt lat="40.2016432" lon="15.2069508"><ele>155.0</ele><time>2026-04-11T08:45:17.302Z</time></trkpt><trkpt lat="40.2015134" lon="15.2068608"><ele>155.0</ele><time>2026-04-11T08:45:34.807Z</time></trkpt><trkpt lat="40.2016008" lon="15.2068501"><ele>155.0</ele><time>2026-04-11T08:47:08.314Z</time></trkpt><trkpt lat="40.2017171" lon="15.2069415"><ele>155.0</ele><time>2026-04-11T08:47:10.298Z</time></trkpt><trkpt lat="40.2017972" lon="15.2069905"><ele>155.0</ele><time>2026-04-11T08:47:11.334Z</time></trkpt><trkpt lat="40.2018895" lon="15.2070283"><ele>155.0</ele><time>2026-04-11T08:47:12.322Z</time></trkpt><trkpt lat="40.2020078" lon="15.2070507"><ele>155.0</ele><time>2026-04-11T08:47:13.326Z</time></trkpt><trkpt lat="40.2021294" lon="15.2070678"><ele>155.0</ele><time>2026-04-11T08:47:14.315Z</time></trkpt><trkpt lat="40.2022529" lon="15.2070782"><ele>155.0</ele><time>2026-04-11T08:47:15.317Z</time></trkpt><trkpt lat="40.2023865" lon="15.2070895"><ele>155.0</ele><time>2026-04-11T08:47:16.325Z</time></trkpt><trkpt lat="40.2025246" lon="15.2071068"><ele>154.5</ele><time>2026-04-11T08:47:17.316Z</time></trkpt><trkpt lat="40.2026596" lon="15.2071262"><ele>154.0</ele><time>2026-04-11T08:47:18.313Z</time></trkpt><trkpt lat="40.2028011" lon="15.2071568"><ele>153.5</ele><time>2026-04-11T08:47:19.312Z</time></trkpt><trkpt lat="40.2029386" lon="15.2071837"><ele>153.0</ele><time>2026-04-11T08:47:20.324Z</time></trkpt><trkpt lat="40.2030842" lon="15.2072211"><ele>153.0</ele><time>2026-04-11T08:47:21.319Z</time></trkpt><trkpt lat="40.2032317" lon="15.2072697"><ele>153.0</ele><time>2026-04-11T08:47:22.315Z</time></trkpt><trkpt lat="40.2033736" lon="15.2073167"><ele>153.0</ele><time>2026-04-11T08:47:23.332Z</time></trkpt><trkpt lat="40.2035113" lon="15.2073595"><ele>153.0</ele><time>2026-04-11T08:47:24.327Z</time></trkpt><trkpt lat="40.2036619" lon="15.2073883"><ele>154.5</ele><time>2026-04-11T08:47:25.317Z</time></trkpt><trkpt lat="40.2038199" lon="15.2074127"><ele>156.0</ele><time>2026-04-11T08:47:26.299Z</time></trkpt><trkpt lat="40.2039726" lon="15.2074318"><ele>157.5</ele><time>2026-04-11T08:47:27.33Z</time></trkpt><trkpt lat="40.2041022" lon="15.2074526"><ele>159.0</ele><time>2026-04-11T08:47:28.323Z</time></trkpt><trkpt lat="40.2042092" lon="15.2074754"><ele>159.0</ele><time>2026-04-11T08:47:29.331Z</time></trkpt><trkpt lat="40.204297" lon="15.207516"><ele>159.0</ele><time>2026-04-11T08:47:30.323Z</time></trkpt><trkpt lat="40.2043779" lon="15.2075635"><ele>159.0</ele><time>2026-04-11T08:47:31.312Z</time></trkpt><trkpt lat="40.2044557" lon="15.2076427"><ele>159.0</ele><time>2026-04-11T08:47:32.331Z</time></trkpt><trkpt lat="40.2045308" lon="15.207756"><ele>159.0</ele><time>2026-04-11T08:47:33.315Z</time></trkpt><trkpt lat="40.2046057" lon="15.2078915"><ele>159.0</ele><time>2026-04-11T08:47:34.342Z</time></trkpt><trkpt lat="40.2046739" lon="15.2080107"><ele>159.0</ele><time>2026-04-11T08:47:35.324Z</time></trkpt><trkpt lat="40.2047379" lon="15.2081092"><ele>159.0</ele><time>2026-04-11T08:47:36.32Z</time></trkpt><trkpt lat="40.204819" lon="15.2081976"><ele>159.0</ele><time>2026-04-11T08:47:37.321Z</time></trkpt><trkpt lat="40.2049222" lon="15.2082672"><ele>159.0</ele><time>2026-04-11T08:47:38.328Z</time></trkpt><trkpt lat="40.2050303" lon="15.2083106"><ele>160.5</ele><time>2026-04-11T08:47:39.322Z</time></trkpt><trkpt lat="40.205137" lon="15.2083302"><ele>162.0</ele><time>2026-04-11T08:47:40.327Z</time></trkpt><trkpt lat="40.2052533" lon="15.2083325"><ele>163.5</ele><time>2026-04-11T08:47:41.311Z</time></trkpt><trkpt lat="40.205392" lon="15.2083219"><ele>165.0</ele><time>2026-04-11T08:47:42.316Z</time></trkpt><trkpt lat="40.2055518" lon="15.2083093"><ele>162.75</ele><time>2026-04-11T08:47:43.326Z</time></trkpt><trkpt lat="40.2057125" lon="15.2083083"><ele>160.5</ele><time>2026-04-11T08:47:44.313Z</time></trkpt><trkpt lat="40.2058539" lon="15.2083046"><ele>158.25</ele><time>2026-04-11T08:47:45.325Z</time></trkpt><trkpt lat="40.2059712" lon="15.2083021"><ele>156.0</ele><time>2026-04-11T08:47:46.326Z</time></trkpt><trkpt lat="40.2060711" lon="15.2083019"><ele>156.0</ele><time>2026-04-11T08:47:47.329Z</time></trkpt><trkpt lat="40.2061595" lon="15.2083073"><ele>156.0</ele><time>2026-04-11T08:47:48.313Z</time></trkpt><trkpt lat="40.2062506" lon="15.208331"><ele>156.0</ele><time>2026-04-11T08:47:49.308Z</time></trkpt><trkpt lat="40.2063475" lon="15.2083733"><ele>156.0</ele><time>2026-04-11T08:47:50.312Z</time></trkpt><trkpt lat="40.2064594" lon="15.2084505"><ele>156.0</ele><time>2026-04-11T08:47:51.327Z</time></trkpt><trkpt lat="40.2065752" lon="15.2085411"><ele>152.25</ele><time>2026-04-11T08:47:52.328Z</time></trkpt><trkpt lat="40.2067004" lon="15.2086471"><ele>148.5</ele><time>2026-04-11T08:47:53.334Z</time></trkpt><trkpt lat="40.2068185" lon="15.2087344"><ele>144.75</ele><time>2026-04-11T08:47:54.316Z</time></trkpt><trkpt lat="40.2069304" lon="15.2088147"><ele>141.0</ele><time>2026-04-11T08:47:55.33Z</time></trkpt><trkpt lat="40.2070478" lon="15.2088956"><ele>141.0</ele><time>2026-04-11T08:47:56.323Z</time></trkpt><trkpt lat="40.2071741" lon="15.2089801"><ele>141.0</ele><time>2026-04-11T08:47:57.334Z</time></trkpt><trkpt lat="40.2072991" lon="15.2090534"><ele>141.0</ele><time>2026-04-11T08:47:58.321Z</time></trkpt><trkpt lat="40.2074238" lon="15.2091243"><ele>141.0</ele><time>2026-04-11T08:47:59.321Z</time></trkpt><trkpt lat="40.2075328" lon="15.2091753"><ele>140.8</ele><time>2026-04-11T08:48:00.329Z</time></trkpt><trkpt lat="40.2076204" lon="15.209221"><ele>140.6</ele><time>2026-04-11T08:48:01.342Z</time></trkpt><trkpt lat="40.2077013" lon="15.2092513"><ele>140.4</ele><time>2026-04-11T08:48:02.327Z</time></trkpt><trkpt lat="40.2077975" lon="15.2092965"><ele>140.2</ele><time>2026-04-11T08:48:03.326Z</time></trkpt><trkpt lat="40.2079001" lon="15.2093696"><ele>140.0</ele><time>2026-04-11T08:48:04.333Z</time></trkpt><trkpt lat="40.2080191" lon="15.2094696"><ele>140.0</ele><time>2026-04-11T08:48:05.31Z</time></trkpt><trkpt lat="40.2081482" lon="15.2095834"><ele>140.0</ele><time>2026-04-11T08:48:06.316Z</time></trkpt><trkpt lat="40.2082845" lon="15.2097022"><ele>140.0</ele><time>2026-04-11T08:48:07.327Z</time></trkpt><trkpt lat="40.2084214" lon="15.2098121"><ele>142.0</ele><time>2026-04-11T08:48:08.308Z</time></trkpt><trkpt lat="40.2085508" lon="15.2099303"><ele>144.0</ele><time>2026-04-11T08:48:09.318Z</time></trkpt><trkpt lat="40.2086557" lon="15.2100401"><ele>146.0</ele><time>2026-04-11T08:48:10.318Z</time></trkpt><trkpt lat="40.2087432" lon="15.2101405"><ele>148.0</ele><time>2026-04-11T08:48:11.32Z</time></trkpt><trkpt lat="40.2088326" lon="15.2102369"><ele>148.0</ele><time>2026-04-11T08:48:12.321Z</time></trkpt><trkpt lat="40.2089059" lon="15.2103376"><ele>148.0</ele><time>2026-04-11T08:48:13.326Z</time></trkpt><trkpt lat="40.208957" lon="15.2104572"><ele>148.0</ele><time>2026-04-11T08:48:14.326Z</time></trkpt><trkpt lat="40.2089971" lon="15.2105932"><ele>148.0</ele><time>2026-04-11T08:48:15.351Z</time></trkpt><trkpt lat="40.2090303" lon="15.2107362"><ele>148.0</ele><time>2026-04-11T08:48:16.308Z</time></trkpt><trkpt lat="40.20905" lon="15.2108892"><ele>145.4</ele><time>2026-04-11T08:48:17.326Z</time></trkpt><trkpt lat="40.2090681" lon="15.2110434"><ele>142.8</ele><time>2026-04-11T08:48:18.319Z</time></trkpt><trkpt lat="40.209083" lon="15.2111815"><ele>140.2</ele><time>2026-04-11T08:48:19.328Z</time></trkpt><trkpt lat="40.2091071" lon="15.211305"><ele>137.6</ele><time>2026-04-11T08:48:20.31Z</time></trkpt><trkpt lat="40.2091483" lon="15.2114257"><ele>135.0</ele><time>2026-04-11T08:48:21.319Z</time></trkpt><trkpt lat="40.2091981" lon="15.2115485"><ele>135.0</ele><time>2026-04-11T08:48:22.321Z</time></trkpt><trkpt lat="40.2092525" lon="15.211671"><ele>135.0</ele><time>2026-04-11T08:48:23.321Z</time></trkpt><trkpt lat="40.2093159" lon="15.2117966"><ele>135.0</ele><time>2026-04-11T08:48:24.314Z</time></trkpt><trkpt lat="40.2093794" lon="15.2119272"><ele>135.0</ele><time>2026-04-11T08:48:25.323Z</time></trkpt><trkpt lat="40.2094383" lon="15.2120589"><ele>135.0</ele><time>2026-04-11T08:48:26.316Z</time></trkpt><trkpt lat="40.2094958" lon="15.2121877"><ele>135.0</ele><time>2026-04-11T08:48:27.324Z</time></trkpt><trkpt lat="40.2095481" lon="15.2123094"><ele>135.0</ele><time>2026-04-11T08:48:28.316Z</time></trkpt><trkpt lat="40.2096009" lon="15.2124266"><ele>135.0</ele><time>2026-04-11T08:48:29.31Z</time></trkpt><trkpt lat="40.2096561" lon="15.2125434"><ele>135.0</ele><time>2026-04-11T08:48:30.321Z</time></trkpt><trkpt lat="40.2097103" lon="15.2126545"><ele>135.2</ele><time>2026-04-11T08:48:31.322Z</time></trkpt><trkpt lat="40.2097631" lon="15.2127588"><ele>135.4</ele><time>2026-04-11T08:48:32.314Z</time></trkpt><trkpt lat="40.2098144" lon="15.2128688"><ele>135.6</ele><time>2026-04-11T08:48:33.324Z</time></trkpt><trkpt lat="40.209872" lon="15.2129709"><ele>135.8</ele><time>2026-04-11T08:48:34.315Z</time></trkpt><trkpt lat="40.2099352" lon="15.2130496"><ele>136.0</ele><time>2026-04-11T08:48:35.318Z</time></trkpt><trkpt lat="40.2100096" lon="15.2130863"><ele>134.2</ele><time>2026-04-11T08:48:36.308Z</time></trkpt><trkpt lat="40.2100922" lon="15.2130852"><ele>132.39999999999998</ele><time>2026-04-11T08:48:37.309Z</time></trkpt><trkpt lat="40.2101902" lon="15.2130577"><ele>130.6</ele><time>2026-04-11T08:48:38.326Z</time></trkpt><trkpt lat="40.2103038" lon="15.2130154"><ele>128.79999999999998</ele><time>2026-04-11T08:48:39.326Z</time></trkpt><trkpt lat="40.2104202" lon="15.2129654"><ele>127.0</ele><time>2026-04-11T08:48:40.315Z</time></trkpt><trkpt lat="40.2105383" lon="15.2129185"><ele>127.0</ele><time>2026-04-11T08:48:41.324Z</time></trkpt><trkpt lat="40.2106439" lon="15.212888"><ele>126.99999999999999</ele><time>2026-04-11T08:48:42.31Z</time></trkpt><trkpt lat="40.2107387" lon="15.2128749"><ele>126.99999999999999</ele><time>2026-04-11T08:48:43.316Z</time></trkpt><trkpt lat="40.2108412" lon="15.2128777"><ele>127.0</ele><time>2026-04-11T08:48:44.312Z</time></trkpt><trkpt lat="40.2109533" lon="15.2128923"><ele>127.0</ele><time>2026-04-11T08:48:45.319Z</time></trkpt><trkpt lat="40.2110712" lon="15.2129161"><ele>126.8</ele><time>2026-04-11T08:48:46.314Z</time></trkpt><trkpt lat="40.211174" lon="15.2129595"><ele>126.6</ele><time>2026-04-11T08:48:47.322Z</time></trkpt><trkpt lat="40.2112525" lon="15.2130184"><ele>126.39999999999999</ele><time>2026-04-11T08:48:48.289Z</time></trkpt><trkpt lat="40.2113257" lon="15.2130981"><ele>126.19999999999999</ele><time>2026-04-11T08:48:49.307Z</time></trkpt><trkpt lat="40.211382" lon="15.2132038"><ele>126.0</ele><time>2026-04-11T08:48:50.311Z</time></trkpt><trkpt lat="40.2114384" lon="15.2133432"><ele>127.0</ele><time>2026-04-11T08:48:51.304Z</time></trkpt><trkpt lat="40.2114842" lon="15.2135122"><ele>128.0</ele><time>2026-04-11T08:48:52.318Z</time></trkpt><trkpt lat="40.2115394" lon="15.2136977"><ele>129.0</ele><time>2026-04-11T08:48:53.319Z</time></trkpt><trkpt lat="40.2115964" lon="15.2139015"><ele>123.0</ele><time>2026-04-11T08:48:54.328Z</time></trkpt><trkpt lat="40.2116592" lon="15.2141113"><ele>117.0</ele><time>2026-04-11T08:48:55.322Z</time></trkpt><trkpt lat="40.2117208" lon="15.2143097"><ele>111.0</ele><time>2026-04-11T08:48:56.318Z</time></trkpt><trkpt lat="40.2117752" lon="15.2144955"><ele>111.0</ele><time>2026-04-11T08:48:57.314Z</time></trkpt><trkpt lat="40.211825" lon="15.2146809"><ele>111.0</ele><time>2026-04-11T08:48:58.317Z</time></trkpt><trkpt lat="40.2118672" lon="15.2148581"><ele>111.0</ele><time>2026-04-11T08:48:59.317Z</time></trkpt><trkpt lat="40.2118979" lon="15.2150457"><ele>111.0</ele><time>2026-04-11T08:49:00.319Z</time></trkpt><trkpt lat="40.211925" lon="15.2152347"><ele>111.25</ele><time>2026-04-11T08:49:01.319Z</time></trkpt><trkpt lat="40.2119556" lon="15.2154208"><ele>111.5</ele><time>2026-04-11T08:49:02.311Z</time></trkpt><trkpt lat="40.2119946" lon="15.2155932"><ele>111.75</ele><time>2026-04-11T08:49:03.324Z</time></trkpt><trkpt lat="40.2120503" lon="15.2157538"><ele>112.0</ele><time>2026-04-11T08:49:04.321Z</time></trkpt><trkpt lat="40.2121206" lon="15.2158877"><ele>112.25</ele><time>2026-04-11T08:49:05.328Z</time></trkpt><trkpt lat="40.2121941" lon="15.2160254"><ele>112.5</ele><time>2026-04-11T08:49:06.324Z</time></trkpt><trkpt lat="40.2122725" lon="15.2161783"><ele>112.75</ele><time>2026-04-11T08:49:07.331Z</time></trkpt><trkpt lat="40.2123518" lon="15.2163505"><ele>113.0</ele><time>2026-04-11T08:49:08.296Z</time></trkpt><trkpt lat="40.2124281" lon="15.2165162"><ele>110.25</ele><time>2026-04-11T08:49:09.31Z</time></trkpt><trkpt lat="40.2125024" lon="15.2166704"><ele>107.5</ele><time>2026-04-11T08:49:10.324Z</time></trkpt><trkpt lat="40.2125838" lon="15.2168218"><ele>104.75</ele><time>2026-04-11T08:49:11.322Z</time></trkpt><trkpt lat="40.2126869" lon="15.2169893"><ele>102.0</ele><time>2026-04-11T08:49:12.316Z</time></trkpt><trkpt lat="40.2128006" lon="15.2171598"><ele>101.75</ele><time>2026-04-11T08:49:13.338Z</time></trkpt><trkpt lat="40.2129081" lon="15.2173206"><ele>101.5</ele><time>2026-04-11T08:49:14.311Z</time></trkpt><trkpt lat="40.2130038" lon="15.2174639"><ele>101.25</ele><time>2026-04-11T08:49:15.312Z</time></trkpt><trkpt lat="40.2130863" lon="15.2175981"><ele>101.0</ele><time>2026-04-11T08:49:16.311Z</time></trkpt><trkpt lat="40.2131594" lon="15.2177205"><ele>99.19999999999999</ele><time>2026-04-11T08:49:17.326Z</time></trkpt><trkpt lat="40.2132316" lon="15.2178317"><ele>97.39999999999999</ele><time>2026-04-11T08:49:18.299Z</time></trkpt><trkpt lat="40.2133021" lon="15.2179306"><ele>95.6</ele><time>2026-04-11T08:49:19.308Z</time></trkpt><trkpt lat="40.2133654" lon="15.2180173"><ele>93.8</ele><time>2026-04-11T08:49:20.322Z</time></trkpt><trkpt lat="40.2134235" lon="15.2180892"><ele>92.0</ele><time>2026-04-11T08:49:21.317Z</time></trkpt><trkpt lat="40.2135078" lon="15.2181587"><ele>92.0</ele><time>2026-04-11T08:49:23.331Z</time></trkpt><trkpt lat="40.2135833" lon="15.218145"><ele>92.0</ele><time>2026-04-11T08:49:25.314Z</time></trkpt><trkpt lat="40.2136385" lon="15.2180168"><ele>92.0</ele><time>2026-04-11T08:49:27.326Z</time></trkpt><trkpt lat="40.2136485" lon="15.2179143"><ele>92.0</ele><time>2026-04-11T08:49:28.324Z</time></trkpt><trkpt lat="40.2136542" lon="15.2177951"><ele>92.0</ele><time>2026-04-11T08:49:29.32Z</time></trkpt><trkpt lat="40.2136616" lon="15.2176416"><ele>92.0</ele><time>2026-04-11T08:49:30.312Z</time></trkpt><trkpt lat="40.2136714" lon="15.2174656"><ele>92.0</ele><time>2026-04-11T08:49:31.324Z</time></trkpt><trkpt lat="40.2136851" lon="15.2172731"><ele>92.0</ele><time>2026-04-11T08:49:32.32Z</time></trkpt><trkpt lat="40.2136908" lon="15.2170621"><ele>92.0</ele><time>2026-04-11T08:49:33.318Z</time></trkpt><trkpt lat="40.2136929" lon="15.2168381"><ele>91.66666666666667</ele><time>2026-04-11T08:49:34.324Z</time></trkpt><trkpt lat="40.2136956" lon="15.2165929"><ele>91.33333333333333</ele><time>2026-04-11T08:49:35.321Z</time></trkpt><trkpt lat="40.2136996" lon="15.2163411"><ele>91.0</ele><time>2026-04-11T08:49:36.329Z</time></trkpt><trkpt lat="40.2137015" lon="15.216086"><ele>90.33333333333333</ele><time>2026-04-11T08:49:37.327Z</time></trkpt><trkpt lat="40.2137078" lon="15.215841"><ele>89.66666666666667</ele><time>2026-04-11T08:49:38.327Z</time></trkpt><trkpt lat="40.2137109" lon="15.2156034"><ele>89.0</ele><time>2026-04-11T08:49:39.324Z</time></trkpt><trkpt lat="40.2137139" lon="15.2153708"><ele>87.66666666666667</ele><time>2026-04-11T08:49:40.323Z</time></trkpt><trkpt lat="40.2137098" lon="15.2151325"><ele>86.33333333333333</ele><time>2026-04-11T08:49:41.328Z</time></trkpt><trkpt lat="40.2137071" lon="15.2149068"><ele>85.0</ele><time>2026-04-11T08:49:42.328Z</time></trkpt><trkpt lat="40.2137069" lon="15.2146925"><ele>85.0</ele><time>2026-04-11T08:49:43.326Z</time></trkpt><trkpt lat="40.2137111" lon="15.2144859"><ele>85.0</ele><time>2026-04-11T08:49:44.336Z</time></trkpt><trkpt lat="40.2137169" lon="15.2142919"><ele>85.0</ele><time>2026-04-11T08:49:45.32Z</time></trkpt><trkpt lat="40.2137234" lon="15.2141131"><ele>85.0</ele><time>2026-04-11T08:49:46.337Z</time></trkpt><trkpt lat="40.2137295" lon="15.2139331"><ele>84.75</ele><time>2026-04-11T08:49:47.327Z</time></trkpt><trkpt lat="40.2137351" lon="15.2137515"><ele>84.5</ele><time>2026-04-11T08:49:48.319Z</time></trkpt><trkpt lat="40.2137467" lon="15.2135544"><ele>84.25</ele><time>2026-04-11T08:49:49.324Z</time></trkpt><trkpt lat="40.2137592" lon="15.213354"><ele>84.0</ele><time>2026-04-11T08:49:50.31Z</time></trkpt><trkpt lat="40.2137655" lon="15.2131457"><ele>83.33333333333333</ele><time>2026-04-11T08:49:51.332Z</time></trkpt><trkpt lat="40.2137529" lon="15.2129221"><ele>82.66666666666666</ele><time>2026-04-11T08:49:52.346Z</time></trkpt><trkpt lat="40.2137211" lon="15.2126834"><ele>82.0</ele><time>2026-04-11T08:49:53.332Z</time></trkpt><trkpt lat="40.2136813" lon="15.2124373"><ele>81.33333333333333</ele><time>2026-04-11T08:49:54.329Z</time></trkpt><trkpt lat="40.2136413" lon="15.2121773"><ele>80.66666666666667</ele><time>2026-04-11T08:49:55.326Z</time></trkpt><trkpt lat="40.2136048" lon="15.2119063"><ele>80.0</ele><time>2026-04-11T08:49:56.323Z</time></trkpt><trkpt lat="40.2135672" lon="15.2116313"><ele>79.0</ele><time>2026-04-11T08:49:57.32Z</time></trkpt><trkpt lat="40.2135254" lon="15.2113584"><ele>78.0</ele><time>2026-04-11T08:49:58.312Z</time></trkpt><trkpt lat="40.2134797" lon="15.2110793"><ele>77.0</ele><time>2026-04-11T08:49:59.333Z</time></trkpt><trkpt lat="40.2134389" lon="15.2108077"><ele>76.0</ele><time>2026-04-11T08:50:00.312Z</time></trkpt><trkpt lat="40.2134026" lon="15.2105427"><ele>75.0</ele><time>2026-04-11T08:50:01.327Z</time></trkpt><trkpt lat="40.2133716" lon="15.2103004"><ele>74.0</ele><time>2026-04-11T08:50:02.318Z</time></trkpt><trkpt lat="40.2133346" lon="15.2100575"><ele>73.33333333333334</ele><time>2026-04-11T08:50:03.336Z</time></trkpt><trkpt lat="40.213293" lon="15.2098163"><ele>72.66666666666667</ele><time>2026-04-11T08:50:04.326Z</time></trkpt><trkpt lat="40.21325" lon="15.209589"><ele>72.0</ele><time>2026-04-11T08:50:05.317Z</time></trkpt><trkpt lat="40.2131917" lon="15.2093786"><ele>72.0</ele><time>2026-04-11T08:50:06.321Z</time></trkpt><trkpt lat="40.2131096" lon="15.2091704"><ele>72.0</ele><time>2026-04-11T08:50:07.325Z</time></trkpt><trkpt lat="40.2130128" lon="15.2089691"><ele>72.0</ele><time>2026-04-11T08:50:08.322Z</time></trkpt><trkpt lat="40.2129025" lon="15.2087636"><ele>72.0</ele><time>2026-04-11T08:50:09.327Z</time></trkpt><trkpt lat="40.2127847" lon="15.2085528"><ele>72.0</ele><time>2026-04-11T08:50:10.333Z</time></trkpt><trkpt lat="40.2126605" lon="15.2083457"><ele>72.0</ele><time>2026-04-11T08:50:11.328Z</time></trkpt><trkpt lat="40.2125346" lon="15.2081352"><ele>71.0</ele><time>2026-04-11T08:50:12.315Z</time></trkpt><trkpt lat="40.2124096" lon="15.2079188"><ele>70.0</ele><time>2026-04-11T08:50:13.315Z</time></trkpt><trkpt lat="40.2122913" lon="15.2077001"><ele>69.0</ele><time>2026-04-11T08:50:14.316Z</time></trkpt><trkpt lat="40.2121787" lon="15.207493"><ele>69.0</ele><time>2026-04-11T08:50:15.324Z</time></trkpt><trkpt lat="40.2120729" lon="15.2072964"><ele>69.0</ele><time>2026-04-11T08:50:16.315Z</time></trkpt><trkpt lat="40.2119814" lon="15.2071104"><ele>69.0</ele><time>2026-04-11T08:50:17.333Z</time></trkpt><trkpt lat="40.2119096" lon="15.206928"><ele>69.0</ele><time>2026-04-11T08:50:18.324Z</time></trkpt><trkpt lat="40.2118514" lon="15.2067422"><ele>69.0</ele><time>2026-04-11T08:50:19.317Z</time></trkpt><trkpt lat="40.2118161" lon="15.2065411"><ele>69.0</ele><time>2026-04-11T08:50:20.319Z</time></trkpt><trkpt lat="40.2117814" lon="15.2063282"><ele>67.0</ele><time>2026-04-11T08:50:21.308Z</time></trkpt><trkpt lat="40.2117442" lon="15.2061016"><ele>65.0</ele><time>2026-04-11T08:50:22.322Z</time></trkpt><trkpt lat="40.2117045" lon="15.2058667"><ele>63.0</ele><time>2026-04-11T08:50:23.324Z</time></trkpt><trkpt lat="40.2116604" lon="15.2056115"><ele>61.66666666666667</ele><time>2026-04-11T08:50:24.322Z</time></trkpt><trkpt lat="40.2116168" lon="15.2053508"><ele>60.333333333333336</ele><time>2026-04-11T08:50:25.327Z</time></trkpt><trkpt lat="40.2115788" lon="15.205101"><ele>59.0</ele><time>2026-04-11T08:50:26.317Z</time></trkpt><trkpt lat="40.2115455" lon="15.2048549"><ele>58.66666666666667</ele><time>2026-04-11T08:50:27.316Z</time></trkpt><trkpt lat="40.2115222" lon="15.2046051"><ele>58.33333333333333</ele><time>2026-04-11T08:50:28.309Z</time></trkpt><trkpt lat="40.2115092" lon="15.2043573"><ele>58.0</ele><time>2026-04-11T08:50:29.332Z</time></trkpt><trkpt lat="40.2115002" lon="15.2041076"><ele>57.666666666666664</ele><time>2026-04-11T08:50:30.325Z</time></trkpt><trkpt lat="40.2114969" lon="15.2038497"><ele>57.33333333333333</ele><time>2026-04-11T08:50:31.319Z</time></trkpt><trkpt lat="40.2114933" lon="15.2035925"><ele>57.0</ele><time>2026-04-11T08:50:32.324Z</time></trkpt><trkpt lat="40.2114888" lon="15.2033281"><ele>57.33333333333333</ele><time>2026-04-11T08:50:33.317Z</time></trkpt><trkpt lat="40.2114887" lon="15.203058"><ele>57.666666666666664</ele><time>2026-04-11T08:50:34.324Z</time></trkpt><trkpt lat="40.2114936" lon="15.2027908"><ele>58.0</ele><time>2026-04-11T08:50:35.341Z</time></trkpt><trkpt lat="40.2114965" lon="15.2025249"><ele>58.0</ele><time>2026-04-11T08:50:36.312Z</time></trkpt><trkpt lat="40.2114954" lon="15.2022601"><ele>58.0</ele><time>2026-04-11T08:50:37.317Z</time></trkpt><trkpt lat="40.2114919" lon="15.2020092"><ele>58.0</ele><time>2026-04-11T08:50:38.312Z</time></trkpt><trkpt lat="40.2114828" lon="15.2017793"><ele>57.0</ele><time>2026-04-11T08:50:39.318Z</time></trkpt><trkpt lat="40.2114806" lon="15.2015658"><ele>56.0</ele><time>2026-04-11T08:50:40.319Z</time></trkpt><trkpt lat="40.2114959" lon="15.2013609"><ele>55.0</ele><time>2026-04-11T08:50:41.329Z</time></trkpt><trkpt lat="40.2115275" lon="15.2011445"><ele>55.0</ele><time>2026-04-11T08:50:42.319Z</time></trkpt><trkpt lat="40.2115747" lon="15.2009426"><ele>55.0</ele><time>2026-04-11T08:50:43.309Z</time></trkpt><trkpt lat="40.2116423" lon="15.2007552"><ele>55.0</ele><time>2026-04-11T08:50:44.319Z</time></trkpt><trkpt lat="40.211729" lon="15.2005611"><ele>53.666666666666664</ele><time>2026-04-11T08:50:45.331Z</time></trkpt><trkpt lat="40.2118224" lon="15.2003578"><ele>52.33333333333333</ele><time>2026-04-11T08:50:46.321Z</time></trkpt><trkpt lat="40.2119169" lon="15.2001451"><ele>51.0</ele><time>2026-04-11T08:50:47.324Z</time></trkpt><trkpt lat="40.2120115" lon="15.1999215"><ele>50.66666666666667</ele><time>2026-04-11T08:50:48.32Z</time></trkpt><trkpt lat="40.2121096" lon="15.1997011"><ele>50.333333333333336</ele><time>2026-04-11T08:50:49.328Z</time></trkpt><trkpt lat="40.2122133" lon="15.1994836"><ele>50.0</ele><time>2026-04-11T08:50:50.326Z</time></trkpt><trkpt lat="40.2123214" lon="15.1992702"><ele>50.333333333333336</ele><time>2026-04-11T08:50:51.317Z</time></trkpt><trkpt lat="40.2124247" lon="15.1990466"><ele>50.66666666666667</ele><time>2026-04-11T08:50:52.327Z</time></trkpt><trkpt lat="40.2125239" lon="15.1988365"><ele>51.0</ele><time>2026-04-11T08:50:53.325Z</time></trkpt><trkpt lat="40.2126258" lon="15.1986378"><ele>51.0</ele><time>2026-04-11T08:50:54.312Z</time></trkpt><trkpt lat="40.2127235" lon="15.1984471"><ele>51.0</ele><time>2026-04-11T08:50:55.333Z</time></trkpt><trkpt lat="40.2128056" lon="15.1982671"><ele>51.0</ele><time>2026-04-11T08:50:56.321Z</time></trkpt><trkpt lat="40.212879" lon="15.198099"><ele>52.5</ele><time>2026-04-11T08:50:57.327Z</time></trkpt><trkpt lat="40.2129275" lon="15.1979346"><ele>54.0</ele><time>2026-04-11T08:50:58.313Z</time></trkpt><trkpt lat="40.2129544" lon="15.1977527"><ele>55.5</ele><time>2026-04-11T08:50:59.338Z</time></trkpt><trkpt lat="40.2129673" lon="15.1975545"><ele>57.0</ele><time>2026-04-11T08:51:00.337Z</time></trkpt><trkpt lat="40.2129721" lon="15.1973523"><ele>59.33333333333333</ele><time>2026-04-11T08:51:01.322Z</time></trkpt><trkpt lat="40.2129651" lon="15.1971424"><ele>61.666666666666664</ele><time>2026-04-11T08:51:02.327Z</time></trkpt><trkpt lat="40.2129453" lon="15.1969444"><ele>64.0</ele><time>2026-04-11T08:51:03.33Z</time></trkpt><trkpt lat="40.2128948" lon="15.1967606"><ele>64.0</ele><time>2026-04-11T08:51:04.313Z</time></trkpt><trkpt lat="40.212818" lon="15.1965814"><ele>64.0</ele><time>2026-04-11T08:51:05.332Z</time></trkpt><trkpt lat="40.2127209" lon="15.1964029"><ele>64.0</ele><time>2026-04-11T08:51:06.33Z</time></trkpt><trkpt lat="40.2126064" lon="15.1962307"><ele>64.66666666666666</ele><time>2026-04-11T08:51:07.332Z</time></trkpt><trkpt lat="40.2124901" lon="15.1960501"><ele>65.33333333333333</ele><time>2026-04-11T08:51:08.311Z</time></trkpt><trkpt lat="40.2123752" lon="15.1958476"><ele>66.0</ele><time>2026-04-11T08:51:09.328Z</time></trkpt><trkpt lat="40.2122525" lon="15.1956334"><ele>62.33333333333333</ele><time>2026-04-11T08:51:10.324Z</time></trkpt><trkpt lat="40.2121163" lon="15.1954076"><ele>58.666666666666664</ele><time>2026-04-11T08:51:11.312Z</time></trkpt><trkpt lat="40.2119824" lon="15.1951773"><ele>55.0</ele><time>2026-04-11T08:51:12.32Z</time></trkpt><trkpt lat="40.2118511" lon="15.1949332"><ele>54.5</ele><time>2026-04-11T08:51:13.318Z</time></trkpt><trkpt lat="40.2117205" lon="15.1946859"><ele>54.0</ele><time>2026-04-11T08:51:14.315Z</time></trkpt><trkpt lat="40.2115952" lon="15.1944338"><ele>52.0</ele><time>2026-04-11T08:51:15.331Z</time></trkpt><trkpt lat="40.2114717" lon="15.1941767"><ele>50.0</ele><time>2026-04-11T08:51:16.33Z</time></trkpt><trkpt lat="40.2113455" lon="15.1939164"><ele>49.5</ele><time>2026-04-11T08:51:17.33Z</time></trkpt><trkpt lat="40.2112182" lon="15.1936595"><ele>49.0</ele><time>2026-04-11T08:51:18.352Z</time></trkpt><trkpt lat="40.2111016" lon="15.1934166"><ele>49.0</ele><time>2026-04-11T08:51:19.332Z</time></trkpt><trkpt lat="40.2109925" lon="15.1931855"><ele>49.0</ele><time>2026-04-11T08:51:20.335Z</time></trkpt><trkpt lat="40.2108845" lon="15.192953"><ele>49.0</ele><time>2026-04-11T08:51:21.315Z</time></trkpt><trkpt lat="40.2107775" lon="15.192708"><ele>48.666666666666664</ele><time>2026-04-11T08:51:22.324Z</time></trkpt><trkpt lat="40.210673" lon="15.1924657"><ele>48.33333333333333</ele><time>2026-04-11T08:51:23.329Z</time></trkpt><trkpt lat="40.2105679" lon="15.1922292"><ele>48.0</ele><time>2026-04-11T08:51:24.325Z</time></trkpt><trkpt lat="40.2104602" lon="15.1919905"><ele>46.333333333333336</ele><time>2026-04-11T08:51:25.335Z</time></trkpt><trkpt lat="40.2103481" lon="15.1917572"><ele>44.66666666666667</ele><time>2026-04-11T08:51:26.322Z</time></trkpt><trkpt lat="40.2102396" lon="15.1915327"><ele>43.0</ele><time>2026-04-11T08:51:27.328Z</time></trkpt><trkpt lat="40.2101346" lon="15.191301"><ele>43.0</ele><time>2026-04-11T08:51:28.326Z</time></trkpt><trkpt lat="40.2100311" lon="15.1910757"><ele>43.0</ele><time>2026-04-11T08:51:29.322Z</time></trkpt><trkpt lat="40.2099274" lon="15.1908554"><ele>43.0</ele><time>2026-04-11T08:51:30.321Z</time></trkpt><trkpt lat="40.2098257" lon="15.190632"><ele>44.333333333333336</ele><time>2026-04-11T08:51:31.32Z</time></trkpt><trkpt lat="40.2097278" lon="15.1904212"><ele>45.666666666666664</ele><time>2026-04-11T08:51:32.325Z</time></trkpt><trkpt lat="40.209622" lon="15.1902139"><ele>47.0</ele><time>2026-04-11T08:51:33.341Z</time></trkpt><trkpt lat="40.2095148" lon="15.1900092"><ele>46.666666666666664</ele><time>2026-04-11T08:51:34.328Z</time></trkpt><trkpt lat="40.2094151" lon="15.1898076"><ele>46.333333333333336</ele><time>2026-04-11T08:51:35.315Z</time></trkpt><trkpt lat="40.2093124" lon="15.1896196"><ele>46.0</ele><time>2026-04-11T08:51:36.322Z</time></trkpt><trkpt lat="40.2092048" lon="15.189427"><ele>46.0</ele><time>2026-04-11T08:51:37.326Z</time></trkpt><trkpt lat="40.2090894" lon="15.1892233"><ele>46.0</ele><time>2026-04-11T08:51:38.315Z</time></trkpt><trkpt lat="40.2089717" lon="15.1890113"><ele>46.0</ele><time>2026-04-11T08:51:39.322Z</time></trkpt><trkpt lat="40.2088487" lon="15.1887889"><ele>45.0</ele><time>2026-04-11T08:51:40.319Z</time></trkpt><trkpt lat="40.2087193" lon="15.1885654"><ele>44.0</ele><time>2026-04-11T08:51:41.32Z</time></trkpt><trkpt lat="40.2085863" lon="15.1883399"><ele>43.0</ele><time>2026-04-11T08:51:42.316Z</time></trkpt><trkpt lat="40.2084641" lon="15.1881115"><ele>42.66666666666667</ele><time>2026-04-11T08:51:43.324Z</time></trkpt><trkpt lat="40.2083494" lon="15.1878944"><ele>42.333333333333336</ele><time>2026-04-11T08:51:44.325Z</time></trkpt><trkpt lat="40.2082356" lon="15.1876817"><ele>42.0</ele><time>2026-04-11T08:51:45.325Z</time></trkpt><trkpt lat="40.2081142" lon="15.1874654"><ele>40.333333333333336</ele><time>2026-04-11T08:51:46.344Z</time></trkpt><trkpt lat="40.2079901" lon="15.1872473"><ele>38.66666666666667</ele><time>2026-04-11T08:51:47.327Z</time></trkpt><trkpt lat="40.2078676" lon="15.1870332"><ele>37.0</ele><time>2026-04-11T08:51:48.31Z</time></trkpt><trkpt lat="40.2077408" lon="15.1868225"><ele>37.0</ele><time>2026-04-11T08:51:49.325Z</time></trkpt><trkpt lat="40.2076055" lon="15.1866187"><ele>37.0</ele><time>2026-04-11T08:51:50.317Z</time></trkpt><trkpt lat="40.2074621" lon="15.1864162"><ele>37.0</ele><time>2026-04-11T08:51:51.319Z</time></trkpt><trkpt lat="40.2073031" lon="15.1862182"><ele>36.5</ele><time>2026-04-11T08:51:52.332Z</time></trkpt><trkpt lat="40.2071402" lon="15.1860172"><ele>36.0</ele><time>2026-04-11T08:51:53.339Z</time></trkpt><trkpt lat="40.2069744" lon="15.1858121"><ele>37.0</ele><time>2026-04-11T08:51:54.346Z</time></trkpt><trkpt lat="40.206806" lon="15.1856076"><ele>38.0</ele><time>2026-04-11T08:51:55.335Z</time></trkpt><trkpt lat="40.2066395" lon="15.1854004"><ele>36.0</ele><time>2026-04-11T08:51:56.33Z</time></trkpt><trkpt lat="40.2064728" lon="15.1851928"><ele>34.0</ele><time>2026-04-11T08:51:57.326Z</time></trkpt><trkpt lat="40.2063073" lon="15.1849875"><ele>34.66666666666667</ele><time>2026-04-11T08:51:58.33Z</time></trkpt><trkpt lat="40.2061447" lon="15.1847914"><ele>35.333333333333336</ele><time>2026-04-11T08:51:59.329Z</time></trkpt><trkpt lat="40.2059844" lon="15.1846"><ele>36.0</ele><time>2026-04-11T08:52:00.317Z</time></trkpt><trkpt lat="40.2058425" lon="15.1844246"><ele>36.0</ele><time>2026-04-11T08:52:01.325Z</time></trkpt><trkpt lat="40.2057183" lon="15.1842704"><ele>36.0</ele><time>2026-04-11T08:52:02.315Z</time></trkpt><trkpt lat="40.205615" lon="15.1841205"><ele>36.0</ele><time>2026-04-11T08:52:03.337Z</time></trkpt><trkpt lat="40.2055242" lon="15.1839611"><ele>36.333333333333336</ele><time>2026-04-11T08:52:04.315Z</time></trkpt><trkpt lat="40.2054467" lon="15.1837808"><ele>36.66666666666667</ele><time>2026-04-11T08:52:05.334Z</time></trkpt><trkpt lat="40.2053883" lon="15.183581"><ele>37.0</ele><time>2026-04-11T08:52:06.318Z</time></trkpt><trkpt lat="40.2053394" lon="15.1833688"><ele>37.333333333333336</ele><time>2026-04-11T08:52:07.341Z</time></trkpt><trkpt lat="40.2053001" lon="15.1831356"><ele>37.666666666666664</ele><time>2026-04-11T08:52:08.338Z</time></trkpt><trkpt lat="40.2052569" lon="15.1828989"><ele>38.0</ele><time>2026-04-11T08:52:09.344Z</time></trkpt><trkpt lat="40.2052058" lon="15.182657"><ele>38.0</ele><time>2026-04-11T08:52:10.324Z</time></trkpt><trkpt lat="40.2051259" lon="15.1824193"><ele>38.0</ele><time>2026-04-11T08:52:11.314Z</time></trkpt><trkpt lat="40.205045" lon="15.1821802"><ele>38.0</ele><time>2026-04-11T08:52:12.33Z</time></trkpt><trkpt lat="40.2049673" lon="15.1819656"><ele>38.25</ele><time>2026-04-11T08:52:13.33Z</time></trkpt><trkpt lat="40.2049094" lon="15.1817755"><ele>38.5</ele><time>2026-04-11T08:52:14.328Z</time></trkpt><trkpt lat="40.204862" lon="15.181613"><ele>38.75</ele><time>2026-04-11T08:52:15.322Z</time></trkpt><trkpt lat="40.2048193" lon="15.1814619"><ele>39.0</ele><time>2026-04-11T08:52:16.331Z</time></trkpt><trkpt lat="40.2047932" lon="15.181312"><ele>38.25</ele><time>2026-04-11T08:52:17.328Z</time></trkpt><trkpt lat="40.2047799" lon="15.1811471"><ele>37.5</ele><time>2026-04-11T08:52:18.303Z</time></trkpt><trkpt lat="40.2047728" lon="15.1809669"><ele>36.75</ele><time>2026-04-11T08:52:19.326Z</time></trkpt><trkpt lat="40.2047808" lon="15.18078"><ele>36.0</ele><time>2026-04-11T08:52:20.322Z</time></trkpt><trkpt lat="40.2047888" lon="15.1805815"><ele>35.5</ele><time>2026-04-11T08:52:21.328Z</time></trkpt><trkpt lat="40.2047925" lon="15.1803945"><ele>35.0</ele><time>2026-04-11T08:52:22.331Z</time></trkpt><trkpt lat="40.2047856" lon="15.1802244"><ele>34.5</ele><time>2026-04-11T08:52:23.321Z</time></trkpt><trkpt lat="40.2047614" lon="15.1800649"><ele>34.0</ele><time>2026-04-11T08:52:24.324Z</time></trkpt><trkpt lat="40.2047136" lon="15.1799102"><ele>35.75</ele><time>2026-04-11T08:52:25.32Z</time></trkpt><trkpt lat="40.204653" lon="15.1797485"><ele>37.5</ele><time>2026-04-11T08:52:26.326Z</time></trkpt><trkpt lat="40.2045817" lon="15.1795993"><ele>39.25</ele><time>2026-04-11T08:52:27.328Z</time></trkpt><trkpt lat="40.2044896" lon="15.179464"><ele>41.0</ele><time>2026-04-11T08:52:28.332Z</time></trkpt><trkpt lat="40.2043837" lon="15.1793429"><ele>41.0</ele><time>2026-04-11T08:52:29.331Z</time></trkpt><trkpt lat="40.2042744" lon="15.1792255"><ele>41.0</ele><time>2026-04-11T08:52:30.321Z</time></trkpt><trkpt lat="40.2041641" lon="15.1791076"><ele>41.0</ele><time>2026-04-11T08:52:31.326Z</time></trkpt><trkpt lat="40.204054" lon="15.1789826"><ele>41.0</ele><time>2026-04-11T08:52:32.319Z</time></trkpt><trkpt lat="40.2039398" lon="15.1788628"><ele>40.5</ele><time>2026-04-11T08:52:33.318Z</time></trkpt><trkpt lat="40.2038289" lon="15.1787362"><ele>40.0</ele><time>2026-04-11T08:52:34.333Z</time></trkpt><trkpt lat="40.2037177" lon="15.1786077"><ele>39.5</ele><time>2026-04-11T08:52:35.325Z</time></trkpt><trkpt lat="40.2035965" lon="15.1784911"><ele>39.0</ele><time>2026-04-11T08:52:36.329Z</time></trkpt><trkpt lat="40.2034663" lon="15.1783876"><ele>39.0</ele><time>2026-04-11T08:52:37.318Z</time></trkpt><trkpt lat="40.2033396" lon="15.1782953"><ele>39.0</ele><time>2026-04-11T08:52:38.317Z</time></trkpt><trkpt lat="40.2032177" lon="15.1782129"><ele>39.0</ele><time>2026-04-11T08:52:39.327Z</time></trkpt><trkpt lat="40.2031106" lon="15.1781381"><ele>39.0</ele><time>2026-04-11T08:52:40.323Z</time></trkpt><trkpt lat="40.2030115" lon="15.1780685"><ele>38.75</ele><time>2026-04-11T08:52:41.326Z</time></trkpt><trkpt lat="40.2029167" lon="15.1779888"><ele>38.5</ele><time>2026-04-11T08:52:42.328Z</time></trkpt><trkpt lat="40.2028278" lon="15.1778985"><ele>38.25</ele><time>2026-04-11T08:52:43.329Z</time></trkpt><trkpt lat="40.2027441" lon="15.1778034"><ele>38.0</ele><time>2026-04-11T08:52:44.318Z</time></trkpt><trkpt lat="40.2026664" lon="15.1776912"><ele>38.0</ele><time>2026-04-11T08:52:45.324Z</time></trkpt><trkpt lat="40.2025886" lon="15.1775622"><ele>38.0</ele><time>2026-04-11T08:52:46.328Z</time></trkpt><trkpt lat="40.2025199" lon="15.1774198"><ele>38.0</ele><time>2026-04-11T08:52:47.331Z</time></trkpt><trkpt lat="40.2024487" lon="15.1772709"><ele>38.0</ele><time>2026-04-11T08:52:48.317Z</time></trkpt><trkpt lat="40.2023608" lon="15.1771338"><ele>37.25</ele><time>2026-04-11T08:52:49.323Z</time></trkpt><trkpt lat="40.2022629" lon="15.1769955"><ele>36.5</ele><time>2026-04-11T08:52:50.323Z</time></trkpt><trkpt lat="40.202152" lon="15.1768687"><ele>35.75</ele><time>2026-04-11T08:52:51.314Z</time></trkpt><trkpt lat="40.2020298" lon="15.1767525"><ele>35.0</ele><time>2026-04-11T08:52:52.318Z</time></trkpt><trkpt lat="40.2019004" lon="15.1766468"><ele>35.0</ele><time>2026-04-11T08:52:53.325Z</time></trkpt><trkpt lat="40.2017714" lon="15.1765523"><ele>35.0</ele><time>2026-04-11T08:52:54.318Z</time></trkpt><trkpt lat="40.2016364" lon="15.1764545"><ele>35.0</ele><time>2026-04-11T08:52:55.313Z</time></trkpt><trkpt lat="40.2015082" lon="15.1763669"><ele>35.0</ele><time>2026-04-11T08:52:56.316Z</time></trkpt><trkpt lat="40.2013977" lon="15.176291"><ele>35.25</ele><time>2026-04-11T08:52:57.31Z</time></trkpt><trkpt lat="40.201295" lon="15.1762121"><ele>35.5</ele><time>2026-04-11T08:52:58.322Z</time></trkpt><trkpt lat="40.2011951" lon="15.1761207"><ele>35.75</ele><time>2026-04-11T08:52:59.33Z</time></trkpt><trkpt lat="40.2011002" lon="15.1760093"><ele>36.0</ele><time>2026-04-11T08:53:00.319Z</time></trkpt><trkpt lat="40.2010141" lon="15.1758843"><ele>36.0</ele><time>2026-04-11T08:53:01.332Z</time></trkpt><trkpt lat="40.2009524" lon="15.175758"><ele>36.0</ele><time>2026-04-11T08:53:02.318Z</time></trkpt><trkpt lat="40.2009043" lon="15.1756235"><ele>36.0</ele><time>2026-04-11T08:53:03.317Z</time></trkpt><trkpt lat="40.2008646" lon="15.1754872"><ele>36.0</ele><time>2026-04-11T08:53:04.314Z</time></trkpt><trkpt lat="40.2008297" lon="15.1753671"><ele>36.0</ele><time>2026-04-11T08:53:05.322Z</time></trkpt><trkpt lat="40.2008079" lon="15.1752627"><ele>35.666666666666664</ele><time>2026-04-11T08:53:06.31Z</time></trkpt><trkpt lat="40.2007993" lon="15.1751671"><ele>35.333333333333336</ele><time>2026-04-11T08:53:07.314Z</time></trkpt><trkpt lat="40.2008238" lon="15.1750112"><ele>35.0</ele><time>2026-04-11T08:53:09.322Z</time></trkpt><trkpt lat="40.2008698" lon="15.1749421"><ele>34.66666666666667</ele><time>2026-04-11T08:53:10.318Z</time></trkpt><trkpt lat="40.200934" lon="15.174887"><ele>34.333333333333336</ele><time>2026-04-11T08:53:11.324Z</time></trkpt><trkpt lat="40.2010203" lon="15.1748494"><ele>34.0</ele><time>2026-04-11T08:53:12.294Z</time></trkpt><trkpt lat="40.2011049" lon="15.1748277"><ele>35.2</ele><time>2026-04-11T08:53:13.334Z</time></trkpt><trkpt lat="40.2011913" lon="15.1748165"><ele>36.4</ele><time>2026-04-11T08:53:14.316Z</time></trkpt><trkpt lat="40.2012964" lon="15.1747931"><ele>37.6</ele><time>2026-04-11T08:53:15.322Z</time></trkpt><trkpt lat="40.2014129" lon="15.1747631"><ele>38.8</ele><time>2026-04-11T08:53:16.313Z</time></trkpt><trkpt lat="40.2015378" lon="15.1747231"><ele>40.0</ele><time>2026-04-11T08:53:17.326Z</time></trkpt><trkpt lat="40.2016672" lon="15.1746712"><ele>40.66666666666667</ele><time>2026-04-11T08:53:18.32Z</time></trkpt><trkpt lat="40.2018094" lon="15.1746012"><ele>41.333333333333336</ele><time>2026-04-11T08:53:19.313Z</time></trkpt><trkpt lat="40.2019575" lon="15.1745268"><ele>42.0</ele><time>2026-04-11T08:53:20.316Z</time></trkpt><trkpt lat="40.2021068" lon="15.1744527"><ele>42.0</ele><time>2026-04-11T08:53:21.322Z</time></trkpt><trkpt lat="40.2022534" lon="15.1743787"><ele>42.0</ele><time>2026-04-11T08:53:22.32Z</time></trkpt><trkpt lat="40.2023958" lon="15.1743074"><ele>42.0</ele><time>2026-04-11T08:53:23.326Z</time></trkpt><trkpt lat="40.2025241" lon="15.1742467"><ele>42.0</ele><time>2026-04-11T08:53:24.326Z</time></trkpt><trkpt lat="40.2026284" lon="15.1742033"><ele>43.6</ele><time>2026-04-11T08:53:25.312Z</time></trkpt><trkpt lat="40.2027219" lon="15.17414"><ele>45.2</ele><time>2026-04-11T08:53:26.323Z</time></trkpt><trkpt lat="40.2028119" lon="15.1740694"><ele>46.8</ele><time>2026-04-11T08:53:27.329Z</time></trkpt><trkpt lat="40.2028921" lon="15.1739855"><ele>48.4</ele><time>2026-04-11T08:53:28.317Z</time></trkpt><trkpt lat="40.202951" lon="15.1738886"><ele>50.0</ele><time>2026-04-11T08:53:29.331Z</time></trkpt><trkpt lat="40.2029901" lon="15.1737731"><ele>50.0</ele><time>2026-04-11T08:53:30.307Z</time></trkpt><trkpt lat="40.2030198" lon="15.1736275"><ele>50.0</ele><time>2026-04-11T08:53:31.322Z</time></trkpt><trkpt lat="40.2030416" lon="15.1734758"><ele>50.0</ele><time>2026-04-11T08:53:32.325Z</time></trkpt><trkpt lat="40.2030737" lon="15.1733119"><ele>50.0</ele><time>2026-04-11T08:53:33.33Z</time></trkpt><trkpt lat="40.2031116" lon="15.1731577"><ele>50.75</ele><time>2026-04-11T08:53:34.336Z</time></trkpt><trkpt lat="40.2031617" lon="15.1730058"><ele>51.5</ele><time>2026-04-11T08:53:35.32Z</time></trkpt><trkpt lat="40.2032231" lon="15.1728459"><ele>52.25</ele><time>2026-04-11T08:53:36.334Z</time></trkpt><trkpt lat="40.2032916" lon="15.1726703"><ele>53.0</ele><time>2026-04-11T08:53:37.332Z</time></trkpt><trkpt lat="40.2033679" lon="15.1724923"><ele>55.66666666666667</ele><time>2026-04-11T08:53:38.313Z</time></trkpt><trkpt lat="40.2034391" lon="15.1723094"><ele>58.33333333333333</ele><time>2026-04-11T08:53:39.33Z</time></trkpt><trkpt lat="40.2034974" lon="15.172124"><ele>61.0</ele><time>2026-04-11T08:53:40.32Z</time></trkpt><trkpt lat="40.2035595" lon="15.1719401"><ele>61.0</ele><time>2026-04-11T08:53:41.326Z</time></trkpt><trkpt lat="40.2036378" lon="15.1717714"><ele>61.0</ele><time>2026-04-11T08:53:42.315Z</time></trkpt><trkpt lat="40.2037187" lon="15.1716165"><ele>61.0</ele><time>2026-04-11T08:53:43.325Z</time></trkpt><trkpt lat="40.2037924" lon="15.171451"><ele>61.0</ele><time>2026-04-11T08:53:44.31Z</time></trkpt><trkpt lat="40.2038621" lon="15.171265"><ele>61.0</ele><time>2026-04-11T08:53:45.313Z</time></trkpt><trkpt lat="40.2039313" lon="15.1710759"><ele>61.0</ele><time>2026-04-11T08:53:46.322Z</time></trkpt><trkpt lat="40.2040055" lon="15.1708945"><ele>61.0</ele><time>2026-04-11T08:53:47.315Z</time></trkpt><trkpt lat="40.2040664" lon="15.1707023"><ele>65.0</ele><time>2026-04-11T08:53:48.332Z</time></trkpt><trkpt lat="40.204103" lon="15.1704993"><ele>69.0</ele><time>2026-04-11T08:53:49.32Z</time></trkpt><trkpt lat="40.204127" lon="15.1702875"><ele>73.0</ele><time>2026-04-11T08:53:50.332Z</time></trkpt><trkpt lat="40.2041419" lon="15.170086"><ele>73.0</ele><time>2026-04-11T08:53:51.322Z</time></trkpt><trkpt lat="40.2041537" lon="15.169921"><ele>73.0</ele><time>2026-04-11T08:53:52.31Z</time></trkpt><trkpt lat="40.2041606" lon="15.1697897"><ele>73.0</ele><time>2026-04-11T08:53:53.326Z</time></trkpt><trkpt lat="40.204179" lon="15.16969"><ele>73.0</ele><time>2026-04-11T08:53:54.32Z</time></trkpt><trkpt lat="40.204238" lon="15.1696026"><ele>73.0</ele><time>2026-04-11T08:53:56.321Z</time></trkpt><trkpt lat="40.2042885" lon="15.1695321"><ele>73.6</ele><time>2026-04-11T08:54:05.334Z</time></trkpt><trkpt lat="40.2042669" lon="15.1693979"><ele>74.19999999999999</ele><time>2026-04-11T08:54:08.316Z</time></trkpt><trkpt lat="40.2042781" lon="15.1693045"><ele>74.8</ele><time>2026-04-11T08:54:09.328Z</time></trkpt><trkpt lat="40.2043086" lon="15.1691917"><ele>75.39999999999999</ele><time>2026-04-11T08:54:10.329Z</time></trkpt><trkpt lat="40.2043275" lon="15.16905"><ele>76.0</ele><time>2026-04-11T08:54:11.334Z</time></trkpt><trkpt lat="40.2043291" lon="15.1688895"><ele>74.0</ele><time>2026-04-11T08:54:12.323Z</time></trkpt><trkpt lat="40.2043275" lon="15.1687322"><ele>72.0</ele><time>2026-04-11T08:54:13.308Z</time></trkpt><trkpt lat="40.2043212" lon="15.1685878"><ele>70.0</ele><time>2026-04-11T08:54:14.314Z</time></trkpt><trkpt lat="40.2043201" lon="15.1684476"><ele>68.0</ele><time>2026-04-11T08:54:15.327Z</time></trkpt><trkpt lat="40.2043202" lon="15.1683163"><ele>66.0</ele><time>2026-04-11T08:54:16.317Z</time></trkpt><trkpt lat="40.2043194" lon="15.1682004"><ele>63.833333333333336</ele><time>2026-04-11T08:54:17.324Z</time></trkpt><trkpt lat="40.2043138" lon="15.1680979"><ele>61.66666666666667</ele><time>2026-04-11T08:54:18.322Z</time></trkpt><trkpt lat="40.204293" lon="15.1680132"><ele>59.5</ele><time>2026-04-11T08:54:19.339Z</time></trkpt><trkpt lat="40.2042444" lon="15.1679426"><ele>57.333333333333336</ele><time>2026-04-11T08:54:20.315Z</time></trkpt><trkpt lat="40.2041788" lon="15.1678689"><ele>55.16666666666667</ele><time>2026-04-11T08:54:21.328Z</time></trkpt><trkpt lat="40.2040909" lon="15.1677861"><ele>53.0</ele><time>2026-04-11T08:54:22.316Z</time></trkpt><trkpt lat="40.2040063" lon="15.1676782"><ele>52.66666666666667</ele><time>2026-04-11T08:54:23.325Z</time></trkpt><trkpt lat="40.2039289" lon="15.1675722"><ele>52.333333333333336</ele><time>2026-04-11T08:54:24.307Z</time></trkpt><trkpt lat="40.2038631" lon="15.1674783"><ele>52.0</ele><time>2026-04-11T08:54:25.315Z</time></trkpt><trkpt lat="40.2038085" lon="15.1674017"><ele>51.66666666666667</ele><time>2026-04-11T08:54:26.317Z</time></trkpt><trkpt lat="40.2037597" lon="15.1673297"><ele>51.333333333333336</ele><time>2026-04-11T08:54:27.305Z</time></trkpt><trkpt lat="40.203722" lon="15.1672522"><ele>51.0</ele><time>2026-04-11T08:54:28.315Z</time></trkpt><trkpt lat="40.2037081" lon="15.1671663"><ele>49.166666666666664</ele><time>2026-04-11T08:54:29.326Z</time></trkpt><trkpt lat="40.2037212" lon="15.1670713"><ele>47.333333333333336</ele><time>2026-04-11T08:54:30.318Z</time></trkpt><trkpt lat="40.2037498" lon="15.1669669"><ele>45.5</ele><time>2026-04-11T08:54:31.321Z</time></trkpt><trkpt lat="40.2038163" lon="15.1668924"><ele>43.66666666666667</ele><time>2026-04-11T08:54:32.308Z</time></trkpt><trkpt lat="40.2039038" lon="15.1668446"><ele>41.833333333333336</ele><time>2026-04-11T08:54:33.334Z</time></trkpt><trkpt lat="40.2040049" lon="15.1668216"><ele>40.0</ele><time>2026-04-11T08:54:34.315Z</time></trkpt><trkpt lat="40.204096" lon="15.1668146"><ele>40.0</ele><time>2026-04-11T08:54:35.322Z</time></trkpt><trkpt lat="40.2041719" lon="15.1668085"><ele>40.0</ele><time>2026-04-11T08:54:36.321Z</time></trkpt><trkpt lat="40.2042387" lon="15.1667986"><ele>40.0</ele><time>2026-04-11T08:54:37.33Z</time></trkpt><trkpt lat="40.2043273" lon="15.1666529"><ele>40.0</ele><time>2026-04-11T08:54:39.34Z</time></trkpt><trkpt lat="40.2043592" lon="15.1665237"><ele>40.0</ele><time>2026-04-11T08:54:40.308Z</time></trkpt><trkpt lat="40.2043881" lon="15.1663824"><ele>37.0</ele><time>2026-04-11T08:54:41.33Z</time></trkpt><trkpt lat="40.204421" lon="15.1662461"><ele>34.0</ele><time>2026-04-11T08:54:42.331Z</time></trkpt><trkpt lat="40.2044591" lon="15.1661123"><ele>31.0</ele><time>2026-04-11T08:54:43.31Z</time></trkpt><trkpt lat="40.2045128" lon="15.1659817"><ele>28.0</ele><time>2026-04-11T08:54:44.308Z</time></trkpt><trkpt lat="40.2045879" lon="15.1658582"><ele>28.0</ele><time>2026-04-11T08:54:45.309Z</time></trkpt><trkpt lat="40.2046716" lon="15.1657487"><ele>28.0</ele><time>2026-04-11T08:54:46.323Z</time></trkpt><trkpt lat="40.2047445" lon="15.1656244"><ele>28.0</ele><time>2026-04-11T08:54:47.319Z</time></trkpt><trkpt lat="40.2047871" lon="15.1654723"><ele>28.0</ele><time>2026-04-11T08:54:48.308Z</time></trkpt><trkpt lat="40.2048069" lon="15.1653086"><ele>26.5</ele><time>2026-04-11T08:54:49.325Z</time></trkpt><trkpt lat="40.2048029" lon="15.1651374"><ele>25.0</ele><time>2026-04-11T08:54:50.314Z</time></trkpt><trkpt lat="40.2047929" lon="15.1649472"><ele>23.5</ele><time>2026-04-11T08:54:51.315Z</time></trkpt><trkpt lat="40.2047864" lon="15.1647521"><ele>22.0</ele><time>2026-04-11T08:54:52.314Z</time></trkpt><trkpt lat="40.2047801" lon="15.164551"><ele>21.25</ele><time>2026-04-11T08:54:53.336Z</time></trkpt><trkpt lat="40.2047653" lon="15.1643561"><ele>20.5</ele><time>2026-04-11T08:54:54.318Z</time></trkpt><trkpt lat="40.2047416" lon="15.1641715"><ele>19.75</ele><time>2026-04-11T08:54:55.321Z</time></trkpt><trkpt lat="40.2047206" lon="15.1640031"><ele>19.0</ele><time>2026-04-11T08:54:56.309Z</time></trkpt><trkpt lat="40.2046964" lon="15.1638485"><ele>18.599999999999998</ele><time>2026-04-11T08:54:57.316Z</time></trkpt><trkpt lat="40.2046717" lon="15.1636998"><ele>18.2</ele><time>2026-04-11T08:54:58.317Z</time></trkpt><trkpt lat="40.2046547" lon="15.1635708"><ele>17.799999999999997</ele><time>2026-04-11T08:54:59.325Z</time></trkpt><trkpt lat="40.2046376" lon="15.1634665"><ele>17.4</ele><time>2026-04-11T08:55:00.329Z</time></trkpt><trkpt lat="40.2046191" lon="15.163378"><ele>17.0</ele><time>2026-04-11T08:55:01.319Z</time></trkpt><trkpt lat="40.2045831" lon="15.1632818"><ele>17.0</ele><time>2026-04-11T08:55:03.317Z</time></trkpt><trkpt lat="40.2045373" lon="15.1632146"><ele>17.0</ele><time>2026-04-11T08:55:05.311Z</time></trkpt><trkpt lat="40.2044187" lon="15.1631497"><ele>17.0</ele><time>2026-04-11T08:55:07.327Z</time></trkpt><trkpt lat="40.204325" lon="15.1630938"><ele>17.0</ele><time>2026-04-11T08:55:08.316Z</time></trkpt><trkpt lat="40.2042436" lon="15.1630384"><ele>17.0</ele><time>2026-04-11T08:55:09.33Z</time></trkpt><trkpt lat="40.2041731" lon="15.1630145"><ele>17.0</ele><time>2026-04-11T08:55:10.324Z</time></trkpt><trkpt lat="40.2040915" lon="15.1629958"><ele>17.0</ele><time>2026-04-11T08:55:11.328Z</time></trkpt><trkpt lat="40.2039864" lon="15.1629583"><ele>17.0</ele><time>2026-04-11T08:55:12.324Z</time></trkpt><trkpt lat="40.2038656" lon="15.1629101"><ele>17.0</ele><time>2026-04-11T08:55:13.331Z</time></trkpt><trkpt lat="40.2037432" lon="15.16286"><ele>17.0</ele><time>2026-04-11T08:55:14.323Z</time></trkpt><trkpt lat="40.2036337" lon="15.162813"><ele>16.75</ele><time>2026-04-11T08:55:15.325Z</time></trkpt><trkpt lat="40.2035402" lon="15.1627654"><ele>16.5</ele><time>2026-04-11T08:55:16.313Z</time></trkpt><trkpt lat="40.2034431" lon="15.1626971"><ele>16.25</ele><time>2026-04-11T08:55:17.327Z</time></trkpt><trkpt lat="40.2033441" lon="15.1626141"><ele>16.0</ele><time>2026-04-11T08:55:18.324Z</time></trkpt><trkpt lat="40.2032459" lon="15.1625043"><ele>16.0</ele><time>2026-04-11T08:55:19.319Z</time></trkpt><trkpt lat="40.2031483" lon="15.1623815"><ele>16.0</ele><time>2026-04-11T08:55:20.316Z</time></trkpt><trkpt lat="40.2030436" lon="15.1622471"><ele>16.0</ele><time>2026-04-11T08:55:21.337Z</time></trkpt><trkpt lat="40.2029407" lon="15.1621101"><ele>16.0</ele><time>2026-04-11T08:55:22.3Z</time></trkpt><trkpt lat="40.2028449" lon="15.1619826"><ele>16.0</ele><time>2026-04-11T08:55:23.317Z</time></trkpt><trkpt lat="40.2027478" lon="15.1618568"><ele>16.0</ele><time>2026-04-11T08:55:24.31Z</time></trkpt><trkpt lat="40.2026606" lon="15.161718"><ele>16.0</ele><time>2026-04-11T08:55:25.334Z</time></trkpt><trkpt lat="40.2025899" lon="15.1615754"><ele>16.0</ele><time>2026-04-11T08:55:26.329Z</time></trkpt><trkpt lat="40.202541" lon="15.1614276"><ele>15.600000000000001</ele><time>2026-04-11T08:55:27.327Z</time></trkpt><trkpt lat="40.2025123" lon="15.1612924"><ele>15.200000000000001</ele><time>2026-04-11T08:55:28.323Z</time></trkpt><trkpt lat="40.2024957" lon="15.1611684"><ele>14.799999999999999</ele><time>2026-04-11T08:55:29.327Z</time></trkpt><trkpt lat="40.2024872" lon="15.1610454"><ele>14.399999999999999</ele><time>2026-04-11T08:55:30.317Z</time></trkpt><trkpt lat="40.2024851" lon="15.1609086"><ele>14.0</ele><time>2026-04-11T08:55:31.328Z</time></trkpt><trkpt lat="40.2024871" lon="15.1607762"><ele>14.0</ele><time>2026-04-11T08:55:32.314Z</time></trkpt><trkpt lat="40.2024954" lon="15.1606638"><ele>13.999999999999998</ele><time>2026-04-11T08:55:33.317Z</time></trkpt><trkpt lat="40.2025129" lon="15.1605502"><ele>13.999999999999998</ele><time>2026-04-11T08:55:34.309Z</time></trkpt><trkpt lat="40.20252" lon="15.1604245"><ele>14.0</ele><time>2026-04-11T08:55:35.332Z</time></trkpt><trkpt lat="40.2025215" lon="15.1602862"><ele>14.0</ele><time>2026-04-11T08:55:36.319Z</time></trkpt><trkpt lat="40.2025246" lon="15.1601448"><ele>14.0</ele><time>2026-04-11T08:55:37.308Z</time></trkpt><trkpt lat="40.2025191" lon="15.160012"><ele>13.999999999999998</ele><time>2026-04-11T08:55:38.328Z</time></trkpt><trkpt lat="40.202507" lon="15.1598875"><ele>13.999999999999998</ele><time>2026-04-11T08:55:39.313Z</time></trkpt><trkpt lat="40.2024878" lon="15.1597609"><ele>14.0</ele><time>2026-04-11T08:55:40.316Z</time></trkpt><trkpt lat="40.2024605" lon="15.1596516"><ele>14.0</ele><time>2026-04-11T08:55:41.318Z</time></trkpt><trkpt lat="40.2024276" lon="15.1595534"><ele>13.833333333333334</ele><time>2026-04-11T08:55:42.322Z</time></trkpt><trkpt lat="40.202392" lon="15.1594512"><ele>13.666666666666668</ele><time>2026-04-11T08:55:43.326Z</time></trkpt><trkpt lat="40.2023584" lon="15.1593653"><ele>13.5</ele><time>2026-04-11T08:55:44.297Z</time></trkpt><trkpt lat="40.2023238" lon="15.1592962"><ele>13.333333333333332</ele><time>2026-04-11T08:55:45.329Z</time></trkpt><trkpt lat="40.2022889" lon="15.1592232"><ele>13.166666666666666</ele><time>2026-04-11T08:55:46.319Z</time></trkpt><trkpt lat="40.20225" lon="15.1591568"><ele>13.0</ele><time>2026-04-11T08:55:47.317Z</time></trkpt><trkpt lat="40.2022041" lon="15.1590211"><ele>12.666666666666666</ele><time>2026-04-11T08:55:49.32Z</time></trkpt><trkpt lat="40.2021909" lon="15.1588918"><ele>12.333333333333332</ele><time>2026-04-11T08:55:51.326Z</time></trkpt><trkpt lat="40.2021708" lon="15.1587884"><ele>12.0</ele><time>2026-04-11T08:55:53.313Z</time></trkpt><trkpt lat="40.2021002" lon="15.1587182"><ele>11.666666666666666</ele><time>2026-04-11T08:55:56.32Z</time></trkpt><trkpt lat="40.2020093" lon="15.1587135"><ele>11.333333333333332</ele><time>2026-04-11T08:55:58.313Z</time></trkpt><trkpt lat="40.2019416" lon="15.1587131"><ele>11.0</ele><time>2026-04-11T08:55:59.329Z</time></trkpt><trkpt lat="40.2018651" lon="15.1587223"><ele>11.0</ele><time>2026-04-11T08:56:00.315Z</time></trkpt><trkpt lat="40.2017934" lon="15.1587403"><ele>11.0</ele><time>2026-04-11T08:56:01.318Z</time></trkpt><trkpt lat="40.2017308" lon="15.1587534"><ele>11.0</ele><time>2026-04-11T08:56:02.307Z</time></trkpt><trkpt lat="40.2016362" lon="15.158774"><ele>11.0</ele><time>2026-04-11T08:56:04.305Z</time></trkpt><trkpt lat="40.2015621" lon="15.1587986"><ele>11.0</ele><time>2026-04-11T08:56:06.31Z</time></trkpt><trkpt lat="40.2016376" lon="15.1588357"><ele>11.0</ele><time>2026-04-11T08:56:18.315Z</time></trkpt><trkpt lat="40.2017561" lon="15.1587852"><ele>11.0</ele><time>2026-04-11T08:56:20.317Z</time></trkpt><trkpt lat="40.2018281" lon="15.1587603"><ele>11.0</ele><time>2026-04-11T08:56:21.323Z</time></trkpt><trkpt lat="40.2019038" lon="15.1587431"><ele>11.0</ele><time>2026-04-11T08:56:22.311Z</time></trkpt><trkpt lat="40.2019787" lon="15.1587212"><ele>11.0</ele><time>2026-04-11T08:56:23.314Z</time></trkpt><trkpt lat="40.2020555" lon="15.158697"><ele>11.0</ele><time>2026-04-11T08:56:24.314Z</time></trkpt><trkpt lat="40.20214" lon="15.1586689"><ele>11.0</ele><time>2026-04-11T08:56:25.312Z</time></trkpt><trkpt lat="40.2022497" lon="15.1586425"><ele>11.25</ele><time>2026-04-11T08:56:26.329Z</time></trkpt><trkpt lat="40.2023733" lon="15.158614"><ele>11.5</ele><time>2026-04-11T08:56:27.319Z</time></trkpt><trkpt lat="40.2025083" lon="15.1585825"><ele>11.75</ele><time>2026-04-11T08:56:28.314Z</time></trkpt><trkpt lat="40.2026507" lon="15.158547"><ele>12.0</ele><time>2026-04-11T08:56:29.3Z</time></trkpt><trkpt lat="40.2027857" lon="15.1585119"><ele>12.0</ele><time>2026-04-11T08:56:30.324Z</time></trkpt><trkpt lat="40.2029072" lon="15.1584882"><ele>12.0</ele><time>2026-04-11T08:56:31.322Z</time></trkpt><trkpt lat="40.203022" lon="15.1584573"><ele>12.0</ele><time>2026-04-11T08:56:32.323Z</time></trkpt><trkpt lat="40.2031291" lon="15.1584304"><ele>12.0</ele><time>2026-04-11T08:56:33.314Z</time></trkpt><trkpt lat="40.203238" lon="15.1584056"><ele>12.399999999999999</ele><time>2026-04-11T08:56:34.333Z</time></trkpt><trkpt lat="40.2033498" lon="15.1583714"><ele>12.799999999999999</ele><time>2026-04-11T08:56:35.322Z</time></trkpt><trkpt lat="40.2034578" lon="15.1583492"><ele>13.2</ele><time>2026-04-11T08:56:36.309Z</time></trkpt><trkpt lat="40.2035544" lon="15.1583308"><ele>13.6</ele><time>2026-04-11T08:56:37.314Z</time></trkpt><trkpt lat="40.2036438" lon="15.1583188"><ele>14.0</ele><time>2026-04-11T08:56:38.329Z</time></trkpt><trkpt lat="40.2037362" lon="15.1583124"><ele>14.0</ele><time>2026-04-11T08:56:39.321Z</time></trkpt><trkpt lat="40.2038153" lon="15.1583142"><ele>13.999999999999998</ele><time>2026-04-11T08:56:40.316Z</time></trkpt><trkpt lat="40.2039019" lon="15.1583071"><ele>13.999999999999998</ele><time>2026-04-11T08:56:43.32Z</time></trkpt><trkpt lat="40.2040144" lon="15.1583272"><ele>14.0</ele><time>2026-04-11T08:56:45.327Z</time></trkpt><trkpt lat="40.2041198" lon="15.1583568"><ele>14.0</ele><time>2026-04-11T08:56:47.318Z</time></trkpt><trkpt lat="40.204191" lon="15.1583772"><ele>14.399999999999999</ele><time>2026-04-11T08:56:48.313Z</time></trkpt><trkpt lat="40.2042767" lon="15.1583949"><ele>14.799999999999999</ele><time>2026-04-11T08:56:49.319Z</time></trkpt><trkpt lat="40.2043769" lon="15.1584132"><ele>15.200000000000001</ele><time>2026-04-11T08:56:50.321Z</time></trkpt><trkpt lat="40.2044848" lon="15.1584389"><ele>15.600000000000001</ele><time>2026-04-11T08:56:51.323Z</time></trkpt><trkpt lat="40.2045886" lon="15.1584668"><ele>16.0</ele><time>2026-04-11T08:56:52.327Z</time></trkpt><trkpt lat="40.204686" lon="15.1584915"><ele>16.0</ele><time>2026-04-11T08:56:53.321Z</time></trkpt><trkpt lat="40.2047881" lon="15.1585168"><ele>16.0</ele><time>2026-04-11T08:56:54.322Z</time></trkpt><trkpt lat="40.2049047" lon="15.1585441"><ele>16.0</ele><time>2026-04-11T08:56:55.313Z</time></trkpt><trkpt lat="40.2050311" lon="15.1585799"><ele>16.0</ele><time>2026-04-11T08:56:56.323Z</time></trkpt><trkpt lat="40.2051748" lon="15.1586229"><ele>15.666666666666666</ele><time>2026-04-11T08:56:57.322Z</time></trkpt><trkpt lat="40.2053234" lon="15.1586741"><ele>15.333333333333332</ele><time>2026-04-11T08:56:58.32Z</time></trkpt><trkpt lat="40.2054748" lon="15.1587351"><ele>15.0</ele><time>2026-04-11T08:56:59.31Z</time></trkpt><trkpt lat="40.2056205" lon="15.1587895"><ele>14.666666666666668</ele><time>2026-04-11T08:57:00.317Z</time></trkpt><trkpt lat="40.205772" lon="15.158842"><ele>14.333333333333334</ele><time>2026-04-11T08:57:01.338Z</time></trkpt><trkpt lat="40.2059218" lon="15.1588946"><ele>14.0</ele><time>2026-04-11T08:57:02.32Z</time></trkpt><trkpt lat="40.2060758" lon="15.1589492"><ele>14.0</ele><time>2026-04-11T08:57:03.323Z</time></trkpt><trkpt lat="40.2062262" lon="15.159016"><ele>14.0</ele><time>2026-04-11T08:57:04.324Z</time></trkpt><trkpt lat="40.2063677" lon="15.1590772"><ele>14.0</ele><time>2026-04-11T08:57:05.314Z</time></trkpt><trkpt lat="40.2064993" lon="15.159139"><ele>14.0</ele><time>2026-04-11T08:57:06.307Z</time></trkpt><trkpt lat="40.2066172" lon="15.1591982"><ele>14.0</ele><time>2026-04-11T08:57:07.321Z</time></trkpt><trkpt lat="40.2067289" lon="15.1592573"><ele>14.0</ele><time>2026-04-11T08:57:08.322Z</time></trkpt><trkpt lat="40.206834" lon="15.1593331"><ele>14.0</ele><time>2026-04-11T08:57:09.331Z</time></trkpt><trkpt lat="40.2069407" lon="15.159426"><ele>14.0</ele><time>2026-04-11T08:57:10.309Z</time></trkpt><trkpt lat="40.207041" lon="15.1595407"><ele>14.0</ele><time>2026-04-11T08:57:11.318Z</time></trkpt><trkpt lat="40.207138" lon="15.1596739"><ele>14.0</ele><time>2026-04-11T08:57:12.314Z</time></trkpt><trkpt lat="40.207232" lon="15.1598294"><ele>14.0</ele><time>2026-04-11T08:57:13.332Z</time></trkpt><trkpt lat="40.2073305" lon="15.1599852"><ele>14.0</ele><time>2026-04-11T08:57:14.321Z</time></trkpt><trkpt lat="40.2074326" lon="15.1601318"><ele>14.0</ele><time>2026-04-11T08:57:15.32Z</time></trkpt><trkpt lat="40.2075508" lon="15.1602672"><ele>14.0</ele><time>2026-04-11T08:57:16.319Z</time></trkpt><trkpt lat="40.2076807" lon="15.1603786"><ele>14.0</ele><time>2026-04-11T08:57:17.325Z</time></trkpt><trkpt lat="40.2078226" lon="15.160468"><ele>14.0</ele><time>2026-04-11T08:57:18.306Z</time></trkpt><trkpt lat="40.2079784" lon="15.1605386"><ele>14.0</ele><time>2026-04-11T08:57:19.319Z</time></trkpt><trkpt lat="40.2081465" lon="15.1605822"><ele>14.0</ele><time>2026-04-11T08:57:20.319Z</time></trkpt><trkpt lat="40.208315" lon="15.1606079"><ele>14.0</ele><time>2026-04-11T08:57:21.323Z</time></trkpt><trkpt lat="40.2084832" lon="15.1606142"><ele>14.0</ele><time>2026-04-11T08:57:22.317Z</time></trkpt><trkpt lat="40.2086371" lon="15.1606232"><ele>14.0</ele><time>2026-04-11T08:57:23.303Z</time></trkpt><trkpt lat="40.2087818" lon="15.1606257"><ele>14.0</ele><time>2026-04-11T08:57:24.314Z</time></trkpt><trkpt lat="40.2089376" lon="15.1606121"><ele>14.0</ele><time>2026-04-11T08:57:25.33Z</time></trkpt><trkpt lat="40.2090968" lon="15.1605862"><ele>14.0</ele><time>2026-04-11T08:57:26.314Z</time></trkpt><trkpt lat="40.2092519" lon="15.1605648"><ele>13.75</ele><time>2026-04-11T08:57:27.325Z</time></trkpt><trkpt lat="40.2093943" lon="15.1605552"><ele>13.5</ele><time>2026-04-11T08:57:28.309Z</time></trkpt><trkpt lat="40.2095316" lon="15.1605524"><ele>13.25</ele><time>2026-04-11T08:57:29.321Z</time></trkpt><trkpt lat="40.2096604" lon="15.1605499"><ele>13.0</ele><time>2026-04-11T08:57:30.314Z</time></trkpt><trkpt lat="40.2097853" lon="15.1605564"><ele>13.25</ele><time>2026-04-11T08:57:31.316Z</time></trkpt><trkpt lat="40.2099062" lon="15.1605766"><ele>13.5</ele><time>2026-04-11T08:57:32.321Z</time></trkpt><trkpt lat="40.2100174" lon="15.1605985"><ele>13.75</ele><time>2026-04-11T08:57:33.313Z</time></trkpt><trkpt lat="40.2101252" lon="15.1606255"><ele>14.0</ele><time>2026-04-11T08:57:34.329Z</time></trkpt><trkpt lat="40.2102333" lon="15.1606585"><ele>14.0</ele><time>2026-04-11T08:57:35.323Z</time></trkpt><trkpt lat="40.2103495" lon="15.160699"><ele>14.0</ele><time>2026-04-11T08:57:36.31Z</time></trkpt><trkpt lat="40.2104745" lon="15.1607357"><ele>14.0</ele><time>2026-04-11T08:57:37.325Z</time></trkpt><trkpt lat="40.2105979" lon="15.1607676"><ele>14.0</ele><time>2026-04-11T08:57:38.318Z</time></trkpt><trkpt lat="40.2107203" lon="15.1607784"><ele>14.25</ele><time>2026-04-11T08:57:39.325Z</time></trkpt><trkpt lat="40.2108478" lon="15.1607735"><ele>14.5</ele><time>2026-04-11T08:57:40.318Z</time></trkpt><trkpt lat="40.2109683" lon="15.1607529"><ele>14.75</ele><time>2026-04-11T08:57:41.32Z</time></trkpt><trkpt lat="40.2110777" lon="15.1607335"><ele>15.0</ele><time>2026-04-11T08:57:42.312Z</time></trkpt><trkpt lat="40.2111756" lon="15.1607152"><ele>15.0</ele><time>2026-04-11T08:57:43.312Z</time></trkpt><trkpt lat="40.211266" lon="15.1607037"><ele>15.0</ele><time>2026-04-11T08:57:44.34Z</time></trkpt><trkpt lat="40.2113606" lon="15.1606985"><ele>15.0</ele><time>2026-04-11T08:57:45.318Z</time></trkpt><trkpt lat="40.2114603" lon="15.160701"><ele>15.0</ele><time>2026-04-11T08:57:46.315Z</time></trkpt><trkpt lat="40.2115687" lon="15.1607066"><ele>15.0</ele><time>2026-04-11T08:57:47.33Z</time></trkpt><trkpt lat="40.211676" lon="15.1607306"><ele>15.2</ele><time>2026-04-11T08:57:48.322Z</time></trkpt><trkpt lat="40.2117736" lon="15.1607703"><ele>15.4</ele><time>2026-04-11T08:57:49.315Z</time></trkpt><trkpt lat="40.2118658" lon="15.1608133"><ele>15.600000000000001</ele><time>2026-04-11T08:57:50.32Z</time></trkpt><trkpt lat="40.2119612" lon="15.160858"><ele>15.8</ele><time>2026-04-11T08:57:51.328Z</time></trkpt><trkpt lat="40.2120635" lon="15.1609163"><ele>16.0</ele><time>2026-04-11T08:57:52.31Z</time></trkpt><trkpt lat="40.2121759" lon="15.1609829"><ele>16.0</ele><time>2026-04-11T08:57:53.32Z</time></trkpt><trkpt lat="40.2122814" lon="15.1610499"><ele>16.0</ele><time>2026-04-11T08:57:54.324Z</time></trkpt><trkpt lat="40.2123755" lon="15.161116"><ele>16.0</ele><time>2026-04-11T08:57:55.323Z</time></trkpt><trkpt lat="40.2124721" lon="15.1611804"><ele>16.0</ele><time>2026-04-11T08:57:56.319Z</time></trkpt><trkpt lat="40.212564" lon="15.161238"><ele>16.0</ele><time>2026-04-11T08:57:57.309Z</time></trkpt><trkpt lat="40.2126485" lon="15.1612975"><ele>16.2</ele><time>2026-04-11T08:57:58.335Z</time></trkpt><trkpt lat="40.2127281" lon="15.161359"><ele>16.400000000000002</ele><time>2026-04-11T08:57:59.311Z</time></trkpt><trkpt lat="40.2128135" lon="15.1614132"><ele>16.6</ele><time>2026-04-11T08:58:00.32Z</time></trkpt><trkpt lat="40.212904" lon="15.1614708"><ele>16.8</ele><time>2026-04-11T08:58:01.328Z</time></trkpt><trkpt lat="40.2130062" lon="15.1615263"><ele>17.0</ele><time>2026-04-11T08:58:02.316Z</time></trkpt><trkpt lat="40.2131138" lon="15.1615782"><ele>17.2</ele><time>2026-04-11T08:58:03.335Z</time></trkpt><trkpt lat="40.2132227" lon="15.1616257"><ele>17.4</ele><time>2026-04-11T08:58:04.316Z</time></trkpt><trkpt lat="40.2133241" lon="15.16166"><ele>17.6</ele><time>2026-04-11T08:58:05.322Z</time></trkpt><trkpt lat="40.213414" lon="15.1616736"><ele>17.8</ele><time>2026-04-11T08:58:06.331Z</time></trkpt><trkpt lat="40.2135069" lon="15.1616765"><ele>18.0</ele><time>2026-04-11T08:58:07.317Z</time></trkpt><trkpt lat="40.2135991" lon="15.1616713"><ele>18.0</ele><time>2026-04-11T08:58:08.327Z</time></trkpt><trkpt lat="40.2136904" lon="15.161665"><ele>18.0</ele><time>2026-04-11T08:58:09.319Z</time></trkpt><trkpt lat="40.2137702" lon="15.1616729"><ele>18.0</ele><time>2026-04-11T08:58:10.307Z</time></trkpt><trkpt lat="40.2138356" lon="15.161689"><ele>18.0</ele><time>2026-04-11T08:58:11.297Z</time></trkpt><trkpt lat="40.2139444" lon="15.1616572"><ele>18.0</ele><time>2026-04-11T08:58:13.319Z</time></trkpt><trkpt lat="40.2139739" lon="15.161555"><ele>18.0</ele><time>2026-04-11T08:58:15.314Z</time></trkpt><trkpt lat="40.2139265" lon="15.1614486"><ele>17.8</ele><time>2026-04-11T08:58:17.322Z</time></trkpt><trkpt lat="40.2139076" lon="15.1613612"><ele>17.6</ele><time>2026-04-11T08:58:18.311Z</time></trkpt><trkpt lat="40.2138895" lon="15.1612213"><ele>17.4</ele><time>2026-04-11T08:58:19.327Z</time></trkpt><trkpt lat="40.2138828" lon="15.1610656"><ele>17.2</ele><time>2026-04-11T08:58:20.316Z</time></trkpt><trkpt lat="40.213891" lon="15.1608985"><ele>17.0</ele><time>2026-04-11T08:58:21.32Z</time></trkpt><trkpt lat="40.213896" lon="15.1607585"><ele>16.666666666666668</ele><time>2026-04-11T08:58:22.308Z</time></trkpt><trkpt lat="40.2138946" lon="15.1606423"><ele>16.333333333333336</ele><time>2026-04-11T08:58:23.325Z</time></trkpt><trkpt lat="40.2138954" lon="15.1605529"><ele>16.0</ele><time>2026-04-11T08:58:24.318Z</time></trkpt><trkpt lat="40.2139071" lon="15.1604197"><ele>15.666666666666668</ele><time>2026-04-11T08:58:26.324Z</time></trkpt><trkpt lat="40.2139499" lon="15.1603344"><ele>15.333333333333334</ele><time>2026-04-11T08:58:28.316Z</time></trkpt><trkpt lat="40.2140309" lon="15.1602983"><ele>15.0</ele><time>2026-04-11T08:58:30.323Z</time></trkpt><trkpt lat="40.214106" lon="15.1602642"><ele>15.0</ele><time>2026-04-11T08:58:32.311Z</time></trkpt><trkpt lat="40.214111" lon="15.1601736"><ele>15.0</ele><time>2026-04-11T08:58:35.33Z</time></trkpt><trkpt lat="40.2140967" lon="15.1600811"><ele>15.0</ele><time>2026-04-11T08:58:38.314Z</time></trkpt><trkpt lat="40.2140859" lon="15.1599907"><ele>15.0</ele><time>2026-04-11T09:06:02.316Z</time></trkpt><trkpt lat="40.2140119" lon="15.1599564"><ele>15.0</ele><time>2026-04-11T09:06:05.314Z</time></trkpt><trkpt lat="40.2139782" lon="15.1600398"><ele>15.0</ele><time>2026-04-11T09:06:07.304Z</time></trkpt><trkpt lat="40.2139841" lon="15.1601665"><ele>15.0</ele><time>2026-04-11T09:06:09.318Z</time></trkpt><trkpt lat="40.2139659" lon="15.160266"><ele>15.0</ele><time>2026-04-11T09:06:11.319Z</time></trkpt><trkpt lat="40.2139257" lon="15.1603469"><ele>15.0</ele><time>2026-04-11T09:06:13.308Z</time></trkpt><trkpt lat="40.2138753" lon="15.1604836"><ele>15.0</ele><time>2026-04-11T09:06:15.308Z</time></trkpt><trkpt lat="40.2138651" lon="15.1605921"><ele>15.0</ele><time>2026-04-11T09:06:16.296Z</time></trkpt><trkpt lat="40.2138674" lon="15.1607122"><ele>15.0</ele><time>2026-04-11T09:06:17.313Z</time></trkpt><trkpt lat="40.2138682" lon="15.1608363"><ele>15.333333333333334</ele><time>2026-04-11T09:06:18.302Z</time></trkpt><trkpt lat="40.2138716" lon="15.1609588"><ele>15.666666666666668</ele><time>2026-04-11T09:06:19.317Z</time></trkpt><trkpt lat="40.2138707" lon="15.1610563"><ele>16.0</ele><time>2026-04-11T09:06:20.311Z</time></trkpt><trkpt lat="40.213873" lon="15.161144"><ele>16.333333333333336</ele><time>2026-04-11T09:06:21.328Z</time></trkpt><trkpt lat="40.2138754" lon="15.1612743"><ele>16.666666666666668</ele><time>2026-04-11T09:06:23.313Z</time></trkpt><trkpt lat="40.2138937" lon="15.1613537"><ele>17.0</ele><time>2026-04-11T09:06:26.309Z</time></trkpt><trkpt lat="40.2138627" lon="15.1614386"><ele>17.0</ele><time>2026-04-11T09:06:29.318Z</time></trkpt><trkpt lat="40.2137736" lon="15.1615249"><ele>17.0</ele><time>2026-04-11T09:06:31.321Z</time></trkpt><trkpt lat="40.2136999" lon="15.1615745"><ele>17.0</ele><time>2026-04-11T09:06:32.304Z</time></trkpt><trkpt lat="40.213613" lon="15.1616044"><ele>17.0</ele><time>2026-04-11T09:06:33.309Z</time></trkpt><trkpt lat="40.2135092" lon="15.1616099"><ele>17.0</ele><time>2026-04-11T09:06:34.306Z</time></trkpt><trkpt lat="40.2133973" lon="15.1616063"><ele>17.0</ele><time>2026-04-11T09:06:35.316Z</time></trkpt><trkpt lat="40.2132779" lon="15.1615906"><ele>17.0</ele><time>2026-04-11T09:06:36.318Z</time></trkpt><trkpt lat="40.2131591" lon="15.1615564"><ele>17.0</ele><time>2026-04-11T09:06:37.333Z</time></trkpt><trkpt lat="40.2130401" lon="15.1615135"><ele>17.0</ele><time>2026-04-11T09:06:38.314Z</time></trkpt><trkpt lat="40.2129185" lon="15.1614511"><ele>17.0</ele><time>2026-04-11T09:06:39.312Z</time></trkpt><trkpt lat="40.212794" lon="15.1613803"><ele>17.0</ele><time>2026-04-11T09:06:40.321Z</time></trkpt><trkpt lat="40.2126701" lon="15.1613093"><ele>17.0</ele><time>2026-04-11T09:06:41.317Z</time></trkpt><trkpt lat="40.2125467" lon="15.1612333"><ele>17.0</ele><time>2026-04-11T09:06:42.311Z</time></trkpt><trkpt lat="40.2124201" lon="15.1611511"><ele>16.75</ele><time>2026-04-11T09:06:43.325Z</time></trkpt><trkpt lat="40.2122849" lon="15.1610691"><ele>16.5</ele><time>2026-04-11T09:06:44.313Z</time></trkpt><trkpt lat="40.2121516" lon="15.160985"><ele>16.25</ele><time>2026-04-11T09:06:45.319Z</time></trkpt><trkpt lat="40.2120179" lon="15.1609048"><ele>16.0</ele><time>2026-04-11T09:06:46.317Z</time></trkpt><trkpt lat="40.2118825" lon="15.1608329"><ele>16.0</ele><time>2026-04-11T09:06:47.321Z</time></trkpt><trkpt lat="40.2117404" lon="15.1607805"><ele>16.0</ele><time>2026-04-11T09:06:48.301Z</time></trkpt><trkpt lat="40.2115913" lon="15.1607415"><ele>16.0</ele><time>2026-04-11T09:06:49.314Z</time></trkpt><trkpt lat="40.2114413" lon="15.1607282"><ele>15.666666666666666</ele><time>2026-04-11T09:06:50.315Z</time></trkpt><trkpt lat="40.2112887" lon="15.1607279"><ele>15.333333333333332</ele><time>2026-04-11T09:06:51.302Z</time></trkpt><trkpt lat="40.211136" lon="15.1607434"><ele>15.0</ele><time>2026-04-11T09:06:52.308Z</time></trkpt><trkpt lat="40.2109845" lon="15.160766"><ele>15.0</ele><time>2026-04-11T09:06:53.315Z</time></trkpt><trkpt lat="40.2108318" lon="15.1607837"><ele>15.0</ele><time>2026-04-11T09:06:54.319Z</time></trkpt><trkpt lat="40.2107064" lon="15.1607854"><ele>15.0</ele><time>2026-04-11T09:06:55.331Z</time></trkpt><trkpt lat="40.2106118" lon="15.160784"><ele>15.0</ele><time>2026-04-11T09:06:56.302Z</time></trkpt><trkpt lat="40.2105375" lon="15.1607712"><ele>15.0</ele><time>2026-04-11T09:06:57.315Z</time></trkpt><trkpt lat="40.2104618" lon="15.1607572"><ele>15.25</ele><time>2026-04-11T09:06:58.319Z</time></trkpt><trkpt lat="40.2103772" lon="15.1607251"><ele>15.5</ele><time>2026-04-11T09:06:59.324Z</time></trkpt><trkpt lat="40.2102741" lon="15.1606831"><ele>15.75</ele><time>2026-04-11T09:07:00.312Z</time></trkpt><trkpt lat="40.210143" lon="15.1606431"><ele>16.0</ele><time>2026-04-11T09:07:01.322Z</time></trkpt><trkpt lat="40.2099952" lon="15.1606111"><ele>15.333333333333332</ele><time>2026-04-11T09:07:02.309Z</time></trkpt><trkpt lat="40.2098363" lon="15.1605824"><ele>14.666666666666668</ele><time>2026-04-11T09:07:03.321Z</time></trkpt><trkpt lat="40.2096754" lon="15.1605665"><ele>14.0</ele><time>2026-04-11T09:07:04.322Z</time></trkpt><trkpt lat="40.2095055" lon="15.1605639"><ele>13.666666666666668</ele><time>2026-04-11T09:07:05.317Z</time></trkpt><trkpt lat="40.2093426" lon="15.1605732"><ele>13.333333333333332</ele><time>2026-04-11T09:07:06.313Z</time></trkpt><trkpt lat="40.2091859" lon="15.1605862"><ele>13.0</ele><time>2026-04-11T09:07:07.317Z</time></trkpt><trkpt lat="40.2090418" lon="15.160594"><ele>13.25</ele><time>2026-04-11T09:07:08.308Z</time></trkpt><trkpt lat="40.2088917" lon="15.1606163"><ele>13.5</ele><time>2026-04-11T09:07:09.326Z</time></trkpt><trkpt lat="40.2087457" lon="15.1606245"><ele>13.75</ele><time>2026-04-11T09:07:10.311Z</time></trkpt><trkpt lat="40.208599" lon="15.1606207"><ele>14.0</ele><time>2026-04-11T09:07:11.318Z</time></trkpt><trkpt lat="40.2084564" lon="15.1606146"><ele>14.0</ele><time>2026-04-11T09:07:12.329Z</time></trkpt><trkpt lat="40.2083135" lon="15.1606022"><ele>14.0</ele><time>2026-04-11T09:07:13.316Z</time></trkpt><trkpt lat="40.2081655" lon="15.1605815"><ele>14.0</ele><time>2026-04-11T09:07:14.308Z</time></trkpt><trkpt lat="40.208029" lon="15.1605513"><ele>14.0</ele><time>2026-04-11T09:07:15.324Z</time></trkpt><trkpt lat="40.2079064" lon="15.1604985"><ele>14.0</ele><time>2026-04-11T09:07:16.298Z</time></trkpt><trkpt lat="40.2077878" lon="15.1604374"><ele>14.0</ele><time>2026-04-11T09:07:17.304Z</time></trkpt><trkpt lat="40.2076756" lon="15.1603628"><ele>14.0</ele><time>2026-04-11T09:07:18.316Z</time></trkpt><trkpt lat="40.2075805" lon="15.1602795"><ele>14.0</ele><time>2026-04-11T09:07:19.31Z</time></trkpt><trkpt lat="40.2074891" lon="15.1601892"><ele>14.0</ele><time>2026-04-11T09:07:20.318Z</time></trkpt><trkpt lat="40.2074051" lon="15.1600804"><ele>14.0</ele><time>2026-04-11T09:07:21.316Z</time></trkpt><trkpt lat="40.207325" lon="15.1599587"><ele>14.0</ele><time>2026-04-11T09:07:22.322Z</time></trkpt><trkpt lat="40.2072553" lon="15.1598459"><ele>14.0</ele><time>2026-04-11T09:07:23.315Z</time></trkpt><trkpt lat="40.2071884" lon="15.1597428"><ele>14.0</ele><time>2026-04-11T09:07:24.305Z</time></trkpt><trkpt lat="40.2071331" lon="15.1596537"><ele>13.999999999999998</ele><time>2026-04-11T09:07:25.309Z</time></trkpt><trkpt lat="40.2070688" lon="15.1595659"><ele>13.999999999999998</ele><time>2026-04-11T09:07:26.311Z</time></trkpt><trkpt lat="40.2069808" lon="15.1594649"><ele>14.0</ele><time>2026-04-11T09:07:27.317Z</time></trkpt><trkpt lat="40.2068728" lon="15.1593626"><ele>14.0</ele><time>2026-04-11T09:07:28.302Z</time></trkpt><trkpt lat="40.2067393" lon="15.1592746"><ele>14.0</ele><time>2026-04-11T09:07:29.322Z</time></trkpt><trkpt lat="40.2065913" lon="15.1591987"><ele>14.0</ele><time>2026-04-11T09:07:30.324Z</time></trkpt><trkpt lat="40.2064269" lon="15.1591212"><ele>14.0</ele><time>2026-04-11T09:07:31.308Z</time></trkpt><trkpt lat="40.2062619" lon="15.1590475"><ele>14.0</ele><time>2026-04-11T09:07:32.315Z</time></trkpt><trkpt lat="40.206112" lon="15.1589855"><ele>14.0</ele><time>2026-04-11T09:07:33.312Z</time></trkpt><trkpt lat="40.2059709" lon="15.1589303"><ele>14.0</ele><time>2026-04-11T09:07:34.313Z</time></trkpt><trkpt lat="40.2058369" lon="15.158885"><ele>14.0</ele><time>2026-04-11T09:07:35.311Z</time></trkpt><trkpt lat="40.2057073" lon="15.1588415"><ele>14.25</ele><time>2026-04-11T09:07:36.318Z</time></trkpt><trkpt lat="40.2055697" lon="15.1587961"><ele>14.5</ele><time>2026-04-11T09:07:37.314Z</time></trkpt><trkpt lat="40.2054281" lon="15.1587482"><ele>14.75</ele><time>2026-04-11T09:07:38.312Z</time></trkpt><trkpt lat="40.2052909" lon="15.1587025"><ele>15.0</ele><time>2026-04-11T09:07:39.313Z</time></trkpt><trkpt lat="40.2051673" lon="15.1586546"><ele>15.0</ele><time>2026-04-11T09:07:40.312Z</time></trkpt><trkpt lat="40.205051" lon="15.158612"><ele>15.0</ele><time>2026-04-11T09:07:41.318Z</time></trkpt><trkpt lat="40.2049287" lon="15.1585665"><ele>15.0</ele><time>2026-04-11T09:07:42.311Z</time></trkpt><trkpt lat="40.2047978" lon="15.1585251"><ele>15.0</ele><time>2026-04-11T09:07:43.31Z</time></trkpt><trkpt lat="40.2046596" lon="15.1584851"><ele>15.333333333333332</ele><time>2026-04-11T09:07:44.31Z</time></trkpt><trkpt lat="40.2045135" lon="15.1584479"><ele>15.666666666666666</ele><time>2026-04-11T09:07:45.312Z</time></trkpt><trkpt lat="40.204363" lon="15.1584167"><ele>16.0</ele><time>2026-04-11T09:07:46.309Z</time></trkpt><trkpt lat="40.2042025" lon="15.1583894"><ele>16.0</ele><time>2026-04-11T09:07:47.31Z</time></trkpt><trkpt lat="40.2040459" lon="15.158367"><ele>16.0</ele><time>2026-04-11T09:07:48.316Z</time></trkpt><trkpt lat="40.2039056" lon="15.1583474"><ele>16.0</ele><time>2026-04-11T09:07:49.319Z</time></trkpt><trkpt lat="40.2037678" lon="15.1583365"><ele>16.0</ele><time>2026-04-11T09:07:50.318Z</time></trkpt><trkpt lat="40.2036204" lon="15.1583434"><ele>15.333333333333332</ele><time>2026-04-11T09:07:51.303Z</time></trkpt><trkpt lat="40.2034608" lon="15.1583706"><ele>14.666666666666668</ele><time>2026-04-11T09:07:52.312Z</time></trkpt><trkpt lat="40.203299" lon="15.1584141"><ele>14.0</ele><time>2026-04-11T09:07:53.315Z</time></trkpt><trkpt lat="40.2031464" lon="15.1584474"><ele>13.333333333333334</ele><time>2026-04-11T09:07:54.314Z</time></trkpt><trkpt lat="40.2030001" lon="15.1584846"><ele>12.666666666666668</ele><time>2026-04-11T09:07:55.306Z</time></trkpt><trkpt lat="40.2028538" lon="15.1585191"><ele>12.0</ele><time>2026-04-11T09:07:56.318Z</time></trkpt><trkpt lat="40.2027011" lon="15.158553"><ele>12.0</ele><time>2026-04-11T09:07:57.316Z</time></trkpt><trkpt lat="40.2025577" lon="15.1585848"><ele>12.0</ele><time>2026-04-11T09:07:58.322Z</time></trkpt><trkpt lat="40.2024234" lon="15.1586197"><ele>12.0</ele><time>2026-04-11T09:07:59.318Z</time></trkpt><trkpt lat="40.2023038" lon="15.1586487"><ele>12.0</ele><time>2026-04-11T09:08:00.312Z</time></trkpt><trkpt lat="40.2021939" lon="15.1586793"><ele>11.8</ele><time>2026-04-11T09:08:01.316Z</time></trkpt><trkpt lat="40.2020902" lon="15.1587094"><ele>11.6</ele><time>2026-04-11T09:08:02.311Z</time></trkpt><trkpt lat="40.2019825" lon="15.158736"><ele>11.4</ele><time>2026-04-11T09:08:03.302Z</time></trkpt><trkpt lat="40.2018822" lon="15.1587495"><ele>11.200000000000001</ele><time>2026-04-11T09:08:04.305Z</time></trkpt><trkpt lat="40.2017942" lon="15.1587624"><ele>11.0</ele><time>2026-04-11T09:08:05.317Z</time></trkpt><trkpt lat="40.2017129" lon="15.1587816"><ele>11.0</ele><time>2026-04-11T09:08:06.313Z</time></trkpt><trkpt lat="40.2016382" lon="15.1588019"><ele>11.0</ele><time>2026-04-11T09:08:07.313Z</time></trkpt><trkpt lat="40.2015736" lon="15.1588164"><ele>11.0</ele><time>2026-04-11T09:08:08.299Z</time></trkpt><trkpt lat="40.2014867" lon="15.1588456"><ele>11.0</ele><time>2026-04-11T09:08:10.306Z</time></trkpt><trkpt lat="40.2013996" lon="15.1588682"><ele>11.0</ele><time>2026-04-11T09:08:13.309Z</time></trkpt><trkpt lat="40.2013265" lon="15.1588726"><ele>11.0</ele><time>2026-04-11T09:08:15.31Z</time></trkpt><trkpt lat="40.2012638" lon="15.1588953"><ele>11.200000000000001</ele><time>2026-04-11T09:08:19.317Z</time></trkpt><trkpt lat="40.2011745" lon="15.1589326"><ele>11.4</ele><time>2026-04-11T09:08:29.318Z</time></trkpt><trkpt lat="40.2010543" lon="15.1589401"><ele>11.6</ele><time>2026-04-11T09:08:31.309Z</time></trkpt><trkpt lat="40.2009567" lon="15.1589445"><ele>11.8</ele><time>2026-04-11T09:08:32.319Z</time></trkpt><trkpt lat="40.2008568" lon="15.1589586"><ele>12.0</ele><time>2026-04-11T09:08:33.305Z</time></trkpt><trkpt lat="40.2007662" lon="15.1589777"><ele>12.0</ele><time>2026-04-11T09:08:34.299Z</time></trkpt><trkpt lat="40.2006868" lon="15.1589979"><ele>12.0</ele><time>2026-04-11T09:08:35.318Z</time></trkpt><trkpt lat="40.2006088" lon="15.1590083"><ele>12.0</ele><time>2026-04-11T09:08:36.302Z</time></trkpt><trkpt lat="40.2005379" lon="15.1590093"><ele>12.0</ele><time>2026-04-11T09:08:37.319Z</time></trkpt><trkpt lat="40.2004271" lon="15.1589948"><ele>12.0</ele><time>2026-04-11T09:08:39.312Z</time></trkpt><trkpt lat="40.2003839" lon="15.1588991"><ele>12.0</ele><time>2026-04-11T09:08:41.302Z</time></trkpt><trkpt lat="40.2003918" lon="15.1588132"><ele>11.8</ele><time>2026-04-11T09:08:42.305Z</time></trkpt><trkpt lat="40.2004176" lon="15.158722"><ele>11.6</ele><time>2026-04-11T09:08:43.315Z</time></trkpt><trkpt lat="40.2004652" lon="15.1585992"><ele>11.4</ele><time>2026-04-11T09:08:44.297Z</time></trkpt><trkpt lat="40.2005038" lon="15.1584691"><ele>11.200000000000001</ele><time>2026-04-11T09:08:45.331Z</time></trkpt><trkpt lat="40.2005427" lon="15.1583514"><ele>11.0</ele><time>2026-04-11T09:08:46.311Z</time></trkpt><trkpt lat="40.200586" lon="15.1582445"><ele>10.5</ele><time>2026-04-11T09:08:47.328Z</time></trkpt><trkpt lat="40.2006364" lon="15.1581155"><ele>10.0</ele><time>2026-04-11T09:08:48.306Z</time></trkpt><trkpt lat="40.2006816" lon="15.1579588"><ele>9.5</ele><time>2026-04-11T09:08:49.318Z</time></trkpt><trkpt lat="40.2007367" lon="15.1577923"><ele>9.0</ele><time>2026-04-11T09:08:50.317Z</time></trkpt><trkpt lat="40.2007894" lon="15.1576536"><ele>9.0</ele><time>2026-04-11T09:08:51.321Z</time></trkpt><trkpt lat="40.2008354" lon="15.1575424"><ele>9.0</ele><time>2026-04-11T09:08:52.311Z</time></trkpt><trkpt lat="40.2008787" lon="15.1574231"><ele>9.0</ele><time>2026-04-11T09:08:53.309Z</time></trkpt><trkpt lat="40.2009282" lon="15.1572933"><ele>9.0</ele><time>2026-04-11T09:08:54.319Z</time></trkpt><trkpt lat="40.2009762" lon="15.1571598"><ele>9.0</ele><time>2026-04-11T09:08:55.319Z</time></trkpt><trkpt lat="40.2010273" lon="15.1570207"><ele>9.2</ele><time>2026-04-11T09:08:56.302Z</time></trkpt><trkpt lat="40.201078" lon="15.1568827"><ele>9.4</ele><time>2026-04-11T09:08:57.314Z</time></trkpt><trkpt lat="40.2011285" lon="15.1567519"><ele>9.6</ele><time>2026-04-11T09:08:58.307Z</time></trkpt><trkpt lat="40.2011752" lon="15.1566308"><ele>9.8</ele><time>2026-04-11T09:08:59.303Z</time></trkpt><trkpt lat="40.2012189" lon="15.156513"><ele>10.0</ele><time>2026-04-11T09:09:00.314Z</time></trkpt><trkpt lat="40.2012687" lon="15.1563869"><ele>10.5</ele><time>2026-04-11T09:09:01.317Z</time></trkpt><trkpt lat="40.2013185" lon="15.1562485"><ele>11.0</ele><time>2026-04-11T09:09:02.307Z</time></trkpt><trkpt lat="40.2013689" lon="15.1561025"><ele>11.5</ele><time>2026-04-11T09:09:03.306Z</time></trkpt><trkpt lat="40.2014239" lon="15.1559536"><ele>12.0</ele><time>2026-04-11T09:09:04.303Z</time></trkpt><trkpt lat="40.2014762" lon="15.1558054"><ele>12.25</ele><time>2026-04-11T09:09:05.312Z</time></trkpt><trkpt lat="40.2015309" lon="15.155656"><ele>12.5</ele><time>2026-04-11T09:09:06.309Z</time></trkpt><trkpt lat="40.2015819" lon="15.1555005"><ele>12.75</ele><time>2026-04-11T09:09:07.309Z</time></trkpt><trkpt lat="40.201625" lon="15.1553472"><ele>13.0</ele><time>2026-04-11T09:09:08.313Z</time></trkpt><trkpt lat="40.2016588" lon="15.1551897"><ele>13.0</ele><time>2026-04-11T09:09:09.334Z</time></trkpt><trkpt lat="40.201682" lon="15.1550193"><ele>13.0</ele><time>2026-04-11T09:09:10.311Z</time></trkpt><trkpt lat="40.2016978" lon="15.1548543"><ele>13.0</ele><time>2026-04-11T09:09:11.316Z</time></trkpt><trkpt lat="40.2017095" lon="15.1547149"><ele>13.0</ele><time>2026-04-11T09:09:12.298Z</time></trkpt><trkpt lat="40.2017191" lon="15.1545854"><ele>13.0</ele><time>2026-04-11T09:09:13.317Z</time></trkpt><trkpt lat="40.2017261" lon="15.1544601"><ele>13.0</ele><time>2026-04-11T09:09:14.302Z</time></trkpt><trkpt lat="40.2017344" lon="15.1543225"><ele>13.0</ele><time>2026-04-11T09:09:15.316Z</time></trkpt><trkpt lat="40.2017431" lon="15.1541781"><ele>13.0</ele><time>2026-04-11T09:09:16.32Z</time></trkpt><trkpt lat="40.2017502" lon="15.1540325"><ele>13.0</ele><time>2026-04-11T09:09:17.325Z</time></trkpt><trkpt lat="40.2017582" lon="15.1538742"><ele>12.75</ele><time>2026-04-11T09:09:18.309Z</time></trkpt><trkpt lat="40.2017624" lon="15.1537049"><ele>12.5</ele><time>2026-04-11T09:09:19.337Z</time></trkpt><trkpt lat="40.2017707" lon="15.1535297"><ele>12.25</ele><time>2026-04-11T09:09:20.306Z</time></trkpt><trkpt lat="40.2017864" lon="15.1533551"><ele>12.0</ele><time>2026-04-11T09:09:21.319Z</time></trkpt><trkpt lat="40.2018001" lon="15.1532035"><ele>11.8</ele><time>2026-04-11T09:09:22.314Z</time></trkpt><trkpt lat="40.201806" lon="15.1530631"><ele>11.6</ele><time>2026-04-11T09:09:23.326Z</time></trkpt><trkpt lat="40.2018183" lon="15.1529261"><ele>11.4</ele><time>2026-04-11T09:09:24.308Z</time></trkpt><trkpt lat="40.2018299" lon="15.1527893"><ele>11.200000000000001</ele><time>2026-04-11T09:09:25.309Z</time></trkpt><trkpt lat="40.2018381" lon="15.1526685"><ele>11.0</ele><time>2026-04-11T09:09:26.312Z</time></trkpt><trkpt lat="40.2018444" lon="15.1525549"><ele>11.0</ele><time>2026-04-11T09:09:27.317Z</time></trkpt><trkpt lat="40.201851" lon="15.1524261"><ele>11.0</ele><time>2026-04-11T09:09:28.317Z</time></trkpt><trkpt lat="40.2018631" lon="15.152286"><ele>11.0</ele><time>2026-04-11T09:09:29.3Z</time></trkpt><trkpt lat="40.2018807" lon="15.1521345"><ele>11.0</ele><time>2026-04-11T09:09:30.314Z</time></trkpt><trkpt lat="40.2018949" lon="15.1519966"><ele>11.0</ele><time>2026-04-11T09:09:31.318Z</time></trkpt><trkpt lat="40.2019051" lon="15.1518761"><ele>11.0</ele><time>2026-04-11T09:09:32.315Z</time></trkpt><trkpt lat="40.2019117" lon="15.1517576"><ele>11.0</ele><time>2026-04-11T09:09:33.322Z</time></trkpt><trkpt lat="40.2019195" lon="15.1516242"><ele>11.0</ele><time>2026-04-11T09:09:34.313Z</time></trkpt><trkpt lat="40.2019332" lon="15.15148"><ele>11.0</ele><time>2026-04-11T09:09:35.318Z</time></trkpt><trkpt lat="40.2019454" lon="15.1513139"><ele>11.0</ele><time>2026-04-11T09:09:36.32Z</time></trkpt><trkpt lat="40.201956" lon="15.1511531"><ele>10.8</ele><time>2026-04-11T09:09:37.322Z</time></trkpt><trkpt lat="40.2019709" lon="15.1510128"><ele>10.600000000000001</ele><time>2026-04-11T09:09:38.32Z</time></trkpt><trkpt lat="40.2019779" lon="15.1508827"><ele>10.4</ele><time>2026-04-11T09:09:39.322Z</time></trkpt><trkpt lat="40.2019869" lon="15.1507532"><ele>10.2</ele><time>2026-04-11T09:09:40.312Z</time></trkpt><trkpt lat="40.2019939" lon="15.1506176"><ele>10.0</ele><time>2026-04-11T09:09:41.321Z</time></trkpt><trkpt lat="40.2020015" lon="15.1504735"><ele>9.8</ele><time>2026-04-11T09:09:42.315Z</time></trkpt><trkpt lat="40.2020097" lon="15.1503274"><ele>9.6</ele><time>2026-04-11T09:09:43.318Z</time></trkpt><trkpt lat="40.2020171" lon="15.1501992"><ele>9.4</ele><time>2026-04-11T09:09:44.309Z</time></trkpt><trkpt lat="40.2020221" lon="15.1500789"><ele>9.2</ele><time>2026-04-11T09:09:45.323Z</time></trkpt><trkpt lat="40.2020265" lon="15.1499672"><ele>9.0</ele><time>2026-04-11T09:09:46.318Z</time></trkpt><trkpt lat="40.2020314" lon="15.1498599"><ele>9.0</ele><time>2026-04-11T09:09:47.319Z</time></trkpt><trkpt lat="40.2020388" lon="15.1497528"><ele>9.0</ele><time>2026-04-11T09:09:48.313Z</time></trkpt><trkpt lat="40.2020482" lon="15.1496318"><ele>9.0</ele><time>2026-04-11T09:09:49.313Z</time></trkpt><trkpt lat="40.2020618" lon="15.1495183"><ele>9.0</ele><time>2026-04-11T09:09:50.315Z</time></trkpt><trkpt lat="40.2020773" lon="15.1494249"><ele>9.0</ele><time>2026-04-11T09:09:51.322Z</time></trkpt><trkpt lat="40.2020884" lon="15.1493278"><ele>9.0</ele><time>2026-04-11T09:09:52.31Z</time></trkpt><trkpt lat="40.2020986" lon="15.1492177"><ele>9.0</ele><time>2026-04-11T09:09:53.321Z</time></trkpt><trkpt lat="40.2021029" lon="15.1491047"><ele>9.0</ele><time>2026-04-11T09:09:54.312Z</time></trkpt><trkpt lat="40.2021075" lon="15.1489783"><ele>9.0</ele><time>2026-04-11T09:09:55.313Z</time></trkpt><trkpt lat="40.2021159" lon="15.1488582"><ele>9.0</ele><time>2026-04-11T09:09:56.319Z</time></trkpt><trkpt lat="40.2021236" lon="15.1487352"><ele>9.0</ele><time>2026-04-11T09:09:57.319Z</time></trkpt><trkpt lat="40.2021322" lon="15.1486128"><ele>9.2</ele><time>2026-04-11T09:09:58.309Z</time></trkpt><trkpt lat="40.2021438" lon="15.1484901"><ele>9.4</ele><time>2026-04-11T09:09:59.32Z</time></trkpt><trkpt lat="40.2021578" lon="15.1483629"><ele>9.6</ele><time>2026-04-11T09:10:00.299Z</time></trkpt><trkpt lat="40.2021685" lon="15.1482332"><ele>9.8</ele><time>2026-04-11T09:10:01.315Z</time></trkpt><trkpt lat="40.2021822" lon="15.1480919"><ele>10.0</ele><time>2026-04-11T09:10:02.304Z</time></trkpt><trkpt lat="40.2021894" lon="15.1479459"><ele>10.0</ele><time>2026-04-11T09:10:03.32Z</time></trkpt><trkpt lat="40.2021951" lon="15.1478022"><ele>10.0</ele><time>2026-04-11T09:10:04.317Z</time></trkpt><trkpt lat="40.2022003" lon="15.1476694"><ele>10.0</ele><time>2026-04-11T09:10:05.31Z</time></trkpt><trkpt lat="40.2022038" lon="15.147549"><ele>10.0</ele><time>2026-04-11T09:10:06.312Z</time></trkpt><trkpt lat="40.2022105" lon="15.1474391"><ele>10.0</ele><time>2026-04-11T09:10:07.324Z</time></trkpt><trkpt lat="40.2022178" lon="15.147339"><ele>10.166666666666668</ele><time>2026-04-11T09:10:08.321Z</time></trkpt><trkpt lat="40.2022235" lon="15.147241"><ele>10.333333333333334</ele><time>2026-04-11T09:10:09.321Z</time></trkpt><trkpt lat="40.2022279" lon="15.1471482"><ele>10.5</ele><time>2026-04-11T09:10:10.307Z</time></trkpt><trkpt lat="40.2022332" lon="15.1470618"><ele>10.666666666666666</ele><time>2026-04-11T09:10:11.313Z</time></trkpt><trkpt lat="40.2022404" lon="15.1469185"><ele>10.833333333333332</ele><time>2026-04-11T09:10:13.311Z</time></trkpt><trkpt lat="40.2022453" lon="15.1467863"><ele>11.0</ele><time>2026-04-11T09:10:15.32Z</time></trkpt><trkpt lat="40.2022589" lon="15.1466102"><ele>11.4</ele><time>2026-04-11T09:10:17.314Z</time></trkpt><trkpt lat="40.202267" lon="15.1464964"><ele>11.8</ele><time>2026-04-11T09:10:18.317Z</time></trkpt><trkpt lat="40.2022726" lon="15.1463765"><ele>12.200000000000001</ele><time>2026-04-11T09:10:19.307Z</time></trkpt><trkpt lat="40.2022866" lon="15.146257"><ele>12.600000000000001</ele><time>2026-04-11T09:10:20.312Z</time></trkpt><trkpt lat="40.2022952" lon="15.1461385"><ele>13.0</ele><time>2026-04-11T09:10:21.315Z</time></trkpt><trkpt lat="40.202292" lon="15.1460235"><ele>13.0</ele><time>2026-04-11T09:10:22.305Z</time></trkpt><trkpt lat="40.2022677" lon="15.1459021"><ele>13.0</ele><time>2026-04-11T09:10:23.325Z</time></trkpt><trkpt lat="40.2022223" lon="15.1457791"><ele>13.0</ele><time>2026-04-11T09:10:24.325Z</time></trkpt><trkpt lat="40.2021638" lon="15.1456672"><ele>13.0</ele><time>2026-04-11T09:10:25.316Z</time></trkpt><trkpt lat="40.202091" lon="15.1455485"><ele>13.0</ele><time>2026-04-11T09:10:26.341Z</time></trkpt><trkpt lat="40.2020152" lon="15.1454278"><ele>13.8</ele><time>2026-04-11T09:10:27.314Z</time></trkpt><trkpt lat="40.2019438" lon="15.1453118"><ele>14.600000000000001</ele><time>2026-04-11T09:10:28.318Z</time></trkpt><trkpt lat="40.2018723" lon="15.1452062"><ele>15.399999999999999</ele><time>2026-04-11T09:10:29.329Z</time></trkpt><trkpt lat="40.201801" lon="15.1451102"><ele>16.2</ele><time>2026-04-11T09:10:30.312Z</time></trkpt><trkpt lat="40.2017455" lon="15.1450168"><ele>17.0</ele><time>2026-04-11T09:10:31.3Z</time></trkpt><trkpt lat="40.2016789" lon="15.1449201"><ele>17.25</ele><time>2026-04-11T09:10:32.308Z</time></trkpt><trkpt lat="40.2016219" lon="15.1448036"><ele>17.5</ele><time>2026-04-11T09:10:33.309Z</time></trkpt><trkpt lat="40.2015686" lon="15.1446623"><ele>17.75</ele><time>2026-04-11T09:10:34.314Z</time></trkpt><trkpt lat="40.2015162" lon="15.1445203"><ele>18.0</ele><time>2026-04-11T09:10:35.34Z</time></trkpt><trkpt lat="40.2014754" lon="15.1443911"><ele>18.0</ele><time>2026-04-11T09:10:36.312Z</time></trkpt><trkpt lat="40.2014428" lon="15.144282"><ele>18.0</ele><time>2026-04-11T09:10:37.311Z</time></trkpt><trkpt lat="40.201423" lon="15.1441895"><ele>18.0</ele><time>2026-04-11T09:10:38.32Z</time></trkpt><trkpt lat="40.2014309" lon="15.1440393"><ele>18.0</ele><time>2026-04-11T09:10:40.31Z</time></trkpt><trkpt lat="40.2014524" lon="15.1439357"><ele>18.0</ele><time>2026-04-11T09:10:42.321Z</time></trkpt><trkpt lat="40.201379" lon="15.143889"><ele>18.0</ele><time>2026-04-11T09:10:44.315Z</time></trkpt><trkpt lat="40.2013255" lon="15.1439626"><ele>18.0</ele><time>2026-04-11T09:10:46.312Z</time></trkpt><trkpt lat="40.2013429" lon="15.144082"><ele>18.0</ele><time>2026-04-11T09:10:48.315Z</time></trkpt><trkpt lat="40.2013939" lon="15.1442408"><ele>18.0</ele><time>2026-04-11T09:10:50.32Z</time></trkpt><trkpt lat="40.2014357" lon="15.1443494"><ele>18.0</ele><time>2026-04-11T09:10:51.314Z</time></trkpt><trkpt lat="40.2014839" lon="15.1444686"><ele>18.0</ele><time>2026-04-11T09:10:52.308Z</time></trkpt><trkpt lat="40.2015377" lon="15.1446044"><ele>17.8</ele><time>2026-04-11T09:10:53.319Z</time></trkpt><trkpt lat="40.2015924" lon="15.144738"><ele>17.6</ele><time>2026-04-11T09:10:54.309Z</time></trkpt><trkpt lat="40.2016493" lon="15.144856"><ele>17.4</ele><time>2026-04-11T09:10:55.314Z</time></trkpt><trkpt lat="40.2017111" lon="15.1449619"><ele>17.2</ele><time>2026-04-11T09:10:56.308Z</time></trkpt><trkpt lat="40.2017867" lon="15.1450658"><ele>17.0</ele><time>2026-04-11T09:10:57.315Z</time></trkpt><trkpt lat="40.2018612" lon="15.1451727"><ele>17.0</ele><time>2026-04-11T09:10:58.309Z</time></trkpt><trkpt lat="40.2019385" lon="15.1452981"><ele>17.0</ele><time>2026-04-11T09:10:59.32Z</time></trkpt><trkpt lat="40.2020138" lon="15.145437"><ele>17.0</ele><time>2026-04-11T09:11:00.313Z</time></trkpt><trkpt lat="40.2020859" lon="15.1455703"><ele>17.0</ele><time>2026-04-11T09:11:01.319Z</time></trkpt><trkpt lat="40.2021514" lon="15.145684"><ele>16.2</ele><time>2026-04-11T09:11:02.312Z</time></trkpt><trkpt lat="40.2022099" lon="15.1457892"><ele>15.399999999999999</ele><time>2026-04-11T09:11:03.309Z</time></trkpt><trkpt lat="40.2022513" lon="15.1459066"><ele>14.600000000000001</ele><time>2026-04-11T09:11:04.299Z</time></trkpt><trkpt lat="40.2022816" lon="15.1460351"><ele>13.8</ele><time>2026-04-11T09:11:05.322Z</time></trkpt><trkpt lat="40.202292" lon="15.1461892"><ele>13.0</ele><time>2026-04-11T09:11:06.313Z</time></trkpt><trkpt lat="40.2022964" lon="15.1463574"><ele>13.0</ele><time>2026-04-11T09:11:07.308Z</time></trkpt><trkpt lat="40.2022989" lon="15.1465372"><ele>13.0</ele><time>2026-04-11T09:11:08.304Z</time></trkpt><trkpt lat="40.2022807" lon="15.146733"><ele>13.0</ele><time>2026-04-11T09:11:09.318Z</time></trkpt><trkpt lat="40.2022609" lon="15.1469097"><ele>13.0</ele><time>2026-04-11T09:11:10.306Z</time></trkpt><trkpt lat="40.2022527" lon="15.1470743"><ele>12.5</ele><time>2026-04-11T09:11:11.326Z</time></trkpt><trkpt lat="40.2022452" lon="15.1472484"><ele>12.0</ele><time>2026-04-11T09:11:12.307Z</time></trkpt><trkpt lat="40.2022273" lon="15.1474255"><ele>11.5</ele><time>2026-04-11T09:11:13.314Z</time></trkpt><trkpt lat="40.2022157" lon="15.1475991"><ele>11.0</ele><time>2026-04-11T09:11:14.312Z</time></trkpt><trkpt lat="40.2022077" lon="15.1477535"><ele>10.8</ele><time>2026-04-11T09:11:15.322Z</time></trkpt><trkpt lat="40.202198" lon="15.147891"><ele>10.600000000000001</ele><time>2026-04-11T09:11:16.316Z</time></trkpt><trkpt lat="40.2021932" lon="15.1480048"><ele>10.4</ele><time>2026-04-11T09:11:17.318Z</time></trkpt><trkpt lat="40.2021865" lon="15.1481126"><ele>10.2</ele><time>2026-04-11T09:11:18.304Z</time></trkpt><trkpt lat="40.2021782" lon="15.1482264"><ele>10.0</ele><time>2026-04-11T09:11:19.326Z</time></trkpt><trkpt lat="40.2021684" lon="15.1483498"><ele>10.0</ele><time>2026-04-11T09:11:20.317Z</time></trkpt><trkpt lat="40.2021576" lon="15.1484833"><ele>10.0</ele><time>2026-04-11T09:11:21.317Z</time></trkpt><trkpt lat="40.2021431" lon="15.1486207"><ele>10.0</ele><time>2026-04-11T09:11:22.321Z</time></trkpt><trkpt lat="40.202126" lon="15.1487651"><ele>10.0</ele><time>2026-04-11T09:11:23.319Z</time></trkpt><trkpt lat="40.2021148" lon="15.1489121"><ele>10.0</ele><time>2026-04-11T09:11:24.318Z</time></trkpt><trkpt lat="40.2021021" lon="15.149045"><ele>9.833333333333334</ele><time>2026-04-11T09:11:25.321Z</time></trkpt><trkpt lat="40.2020893" lon="15.1491627"><ele>9.666666666666668</ele><time>2026-04-11T09:11:26.295Z</time></trkpt><trkpt lat="40.2020862" lon="15.1492652"><ele>9.5</ele><time>2026-04-11T09:11:27.326Z</time></trkpt><trkpt lat="40.2020835" lon="15.1493577"><ele>9.333333333333334</ele><time>2026-04-11T09:11:28.313Z</time></trkpt><trkpt lat="40.2020791" lon="15.1495005"><ele>9.166666666666666</ele><time>2026-04-11T09:11:30.317Z</time></trkpt><trkpt lat="40.2021145" lon="15.1495909"><ele>9.0</ele><time>2026-04-11T09:11:32.312Z</time></trkpt><trkpt lat="40.2021968" lon="15.1496227"><ele>9.75</ele><time>2026-04-11T09:11:34.313Z</time></trkpt><trkpt lat="40.202336" lon="15.1496274"><ele>10.5</ele><time>2026-04-11T09:11:36.307Z</time></trkpt><trkpt lat="40.202437" lon="15.1496577"><ele>11.25</ele><time>2026-04-11T09:11:37.31Z</time></trkpt><trkpt lat="40.2025544" lon="15.1496887"><ele>12.0</ele><time>2026-04-11T09:11:38.304Z</time></trkpt><trkpt lat="40.2026814" lon="15.1497198"><ele>12.0</ele><time>2026-04-11T09:11:39.334Z</time></trkpt><trkpt lat="40.2028082" lon="15.1497506"><ele>12.0</ele><time>2026-04-11T09:11:40.311Z</time></trkpt><trkpt lat="40.2029369" lon="15.1497809"><ele>12.0</ele><time>2026-04-11T09:11:41.319Z</time></trkpt><trkpt lat="40.2030583" lon="15.1498126"><ele>12.0</ele><time>2026-04-11T09:11:42.3Z</time></trkpt><trkpt lat="40.2031835" lon="15.1498467"><ele>11.75</ele><time>2026-04-11T09:11:43.298Z</time></trkpt><trkpt lat="40.2033172" lon="15.1498778"><ele>11.5</ele><time>2026-04-11T09:11:44.303Z</time></trkpt><trkpt lat="40.2034587" lon="15.1499095"><ele>11.25</ele><time>2026-04-11T09:11:45.314Z</time></trkpt><trkpt lat="40.203601" lon="15.1499349"><ele>11.0</ele><time>2026-04-11T09:11:46.309Z</time></trkpt><trkpt lat="40.2037478" lon="15.1499648"><ele>11.0</ele><time>2026-04-11T09:11:47.321Z</time></trkpt><trkpt lat="40.2038934" lon="15.1500035"><ele>11.0</ele><time>2026-04-11T09:11:48.316Z</time></trkpt><trkpt lat="40.204044" lon="15.1500429"><ele>11.0</ele><time>2026-04-11T09:11:49.318Z</time></trkpt><trkpt lat="40.2041943" lon="15.1500853"><ele>11.333333333333332</ele><time>2026-04-11T09:11:50.312Z</time></trkpt><trkpt lat="40.204351" lon="15.1501342"><ele>11.666666666666666</ele><time>2026-04-11T09:11:51.299Z</time></trkpt><trkpt lat="40.2045076" lon="15.150202"><ele>12.0</ele><time>2026-04-11T09:11:52.33Z</time></trkpt><trkpt lat="40.2046711" lon="15.1502803"><ele>11.333333333333334</ele><time>2026-04-11T09:11:53.337Z</time></trkpt><trkpt lat="40.2048309" lon="15.1503577"><ele>10.666666666666668</ele><time>2026-04-11T09:11:54.312Z</time></trkpt><trkpt lat="40.2049923" lon="15.1504341"><ele>10.0</ele><time>2026-04-11T09:11:55.327Z</time></trkpt><trkpt lat="40.2051412" lon="15.1505144"><ele>10.0</ele><time>2026-04-11T09:11:56.316Z</time></trkpt><trkpt lat="40.2052783" lon="15.150591"><ele>10.0</ele><time>2026-04-11T09:11:57.316Z</time></trkpt><trkpt lat="40.2054084" lon="15.1506696"><ele>10.0</ele><time>2026-04-11T09:11:58.314Z</time></trkpt><trkpt lat="40.2055345" lon="15.1507344"><ele>10.0</ele><time>2026-04-11T09:11:59.306Z</time></trkpt><trkpt lat="40.2056663" lon="15.1507863"><ele>10.75</ele><time>2026-04-11T09:12:00.317Z</time></trkpt><trkpt lat="40.2058025" lon="15.1508382"><ele>11.5</ele><time>2026-04-11T09:12:01.318Z</time></trkpt><trkpt lat="40.2059446" lon="15.150877"><ele>12.25</ele><time>2026-04-11T09:12:02.316Z</time></trkpt><trkpt lat="40.2060959" lon="15.1508942"><ele>13.0</ele><time>2026-04-11T09:12:03.318Z</time></trkpt><trkpt lat="40.2062627" lon="15.1509076"><ele>13.0</ele><time>2026-04-11T09:12:04.317Z</time></trkpt><trkpt lat="40.2064428" lon="15.1509254"><ele>13.0</ele><time>2026-04-11T09:12:05.316Z</time></trkpt><trkpt lat="40.2066352" lon="15.1509324"><ele>13.0</ele><time>2026-04-11T09:12:06.328Z</time></trkpt><trkpt lat="40.2068352" lon="15.1509404"><ele>13.0</ele><time>2026-04-11T09:12:07.325Z</time></trkpt><trkpt lat="40.207032" lon="15.1509494"><ele>13.0</ele><time>2026-04-11T09:12:08.321Z</time></trkpt><trkpt lat="40.2072182" lon="15.150962"><ele>13.0</ele><time>2026-04-11T09:12:09.342Z</time></trkpt><trkpt lat="40.2073908" lon="15.1509671"><ele>13.0</ele><time>2026-04-11T09:12:10.317Z</time></trkpt><trkpt lat="40.2075567" lon="15.1509719"><ele>13.0</ele><time>2026-04-11T09:12:11.321Z</time></trkpt><trkpt lat="40.2077251" lon="15.150969"><ele>13.0</ele><time>2026-04-11T09:12:12.309Z</time></trkpt><trkpt lat="40.2078939" lon="15.1509419"><ele>13.0</ele><time>2026-04-11T09:12:13.313Z</time></trkpt><trkpt lat="40.2080598" lon="15.1509103"><ele>13.0</ele><time>2026-04-11T09:12:14.305Z</time></trkpt><trkpt lat="40.2082208" lon="15.1508749"><ele>13.0</ele><time>2026-04-11T09:12:15.307Z</time></trkpt><trkpt lat="40.2083791" lon="15.1508413"><ele>13.333333333333332</ele><time>2026-04-11T09:12:16.32Z</time></trkpt><trkpt lat="40.2085304" lon="15.1508086"><ele>13.666666666666668</ele><time>2026-04-11T09:12:17.307Z</time></trkpt><trkpt lat="40.2086773" lon="15.1507821"><ele>14.0</ele><time>2026-04-11T09:12:18.305Z</time></trkpt><trkpt lat="40.2088289" lon="15.1507494"><ele>14.0</ele><time>2026-04-11T09:12:19.302Z</time></trkpt><trkpt lat="40.2089867" lon="15.1507161"><ele>14.0</ele><time>2026-04-11T09:12:20.305Z</time></trkpt><trkpt lat="40.2091426" lon="15.1506781"><ele>14.0</ele><time>2026-04-11T09:12:21.306Z</time></trkpt><trkpt lat="40.2093007" lon="15.1506238"><ele>14.0</ele><time>2026-04-11T09:12:22.312Z</time></trkpt><trkpt lat="40.2094567" lon="15.1505607"><ele>14.0</ele><time>2026-04-11T09:12:23.327Z</time></trkpt><trkpt lat="40.2096201" lon="15.1504942"><ele>14.0</ele><time>2026-04-11T09:12:24.316Z</time></trkpt><trkpt lat="40.2097804" lon="15.1504277"><ele>13.666666666666668</ele><time>2026-04-11T09:12:25.308Z</time></trkpt><trkpt lat="40.2099389" lon="15.1503616"><ele>13.333333333333332</ele><time>2026-04-11T09:12:26.316Z</time></trkpt><trkpt lat="40.2100957" lon="15.1502894"><ele>13.0</ele><time>2026-04-11T09:12:27.322Z</time></trkpt><trkpt lat="40.2102514" lon="15.1502026"><ele>13.0</ele><time>2026-04-11T09:12:28.307Z</time></trkpt><trkpt lat="40.210409" lon="15.1501065"><ele>13.0</ele><time>2026-04-11T09:12:29.323Z</time></trkpt><trkpt lat="40.2105665" lon="15.1499904"><ele>13.0</ele><time>2026-04-11T09:12:30.317Z</time></trkpt><trkpt lat="40.2107337" lon="15.1498757"><ele>13.333333333333332</ele><time>2026-04-11T09:12:31.313Z</time></trkpt><trkpt lat="40.2109027" lon="15.1497746"><ele>13.666666666666668</ele><time>2026-04-11T09:12:32.312Z</time></trkpt><trkpt lat="40.2110746" lon="15.1496789"><ele>14.0</ele><time>2026-04-11T09:12:33.314Z</time></trkpt><trkpt lat="40.211252" lon="15.1495836"><ele>14.0</ele><time>2026-04-11T09:12:34.308Z</time></trkpt><trkpt lat="40.2114223" lon="15.1494991"><ele>14.0</ele><time>2026-04-11T09:12:35.332Z</time></trkpt><trkpt lat="40.2115846" lon="15.1494205"><ele>14.0</ele><time>2026-04-11T09:12:36.303Z</time></trkpt><trkpt lat="40.2117438" lon="15.1493382"><ele>13.666666666666668</ele><time>2026-04-11T09:12:37.304Z</time></trkpt><trkpt lat="40.2119047" lon="15.1492435"><ele>13.333333333333332</ele><time>2026-04-11T09:12:38.302Z</time></trkpt><trkpt lat="40.2120588" lon="15.149149"><ele>13.0</ele><time>2026-04-11T09:12:39.317Z</time></trkpt><trkpt lat="40.2122169" lon="15.149045"><ele>13.666666666666666</ele><time>2026-04-11T09:12:40.309Z</time></trkpt><trkpt lat="40.2123887" lon="15.1489433"><ele>14.333333333333332</ele><time>2026-04-11T09:12:41.306Z</time></trkpt><trkpt lat="40.2125699" lon="15.1488413"><ele>15.0</ele><time>2026-04-11T09:12:42.305Z</time></trkpt><trkpt lat="40.2127602" lon="15.1487404"><ele>15.0</ele><time>2026-04-11T09:12:43.308Z</time></trkpt><trkpt lat="40.2129407" lon="15.1486328"><ele>15.0</ele><time>2026-04-11T09:12:44.316Z</time></trkpt><trkpt lat="40.2131198" lon="15.1485204"><ele>15.0</ele><time>2026-04-11T09:12:45.317Z</time></trkpt><trkpt lat="40.2133065" lon="15.1484075"><ele>14.666666666666668</ele><time>2026-04-11T09:12:46.308Z</time></trkpt><trkpt lat="40.2135051" lon="15.148291"><ele>14.333333333333334</ele><time>2026-04-11T09:12:47.323Z</time></trkpt><trkpt lat="40.2137139" lon="15.148175"><ele>14.0</ele><time>2026-04-11T09:12:48.307Z</time></trkpt><trkpt lat="40.2139259" lon="15.1480594"><ele>14.5</ele><time>2026-04-11T09:12:49.328Z</time></trkpt><trkpt lat="40.2141416" lon="15.1479418"><ele>15.0</ele><time>2026-04-11T09:12:50.306Z</time></trkpt><trkpt lat="40.2143638" lon="15.1478242"><ele>15.0</ele><time>2026-04-11T09:12:51.306Z</time></trkpt><trkpt lat="40.2145861" lon="15.1477051"><ele>15.0</ele><time>2026-04-11T09:12:52.314Z</time></trkpt><trkpt lat="40.2148075" lon="15.1475858"><ele>15.0</ele><time>2026-04-11T09:12:53.315Z</time></trkpt><trkpt lat="40.2150286" lon="15.1474652"><ele>15.0</ele><time>2026-04-11T09:12:54.309Z</time></trkpt><trkpt lat="40.2152441" lon="15.1473461"><ele>15.333333333333332</ele><time>2026-04-11T09:12:55.336Z</time></trkpt><trkpt lat="40.2154547" lon="15.1472324"><ele>15.666666666666666</ele><time>2026-04-11T09:12:56.314Z</time></trkpt><trkpt lat="40.2156567" lon="15.1471234"><ele>16.0</ele><time>2026-04-11T09:12:57.312Z</time></trkpt><trkpt lat="40.2158481" lon="15.1470183"><ele>16.333333333333332</ele><time>2026-04-11T09:12:58.333Z</time></trkpt><trkpt lat="40.2160306" lon="15.1469195"><ele>16.666666666666668</ele><time>2026-04-11T09:12:59.326Z</time></trkpt><trkpt lat="40.2161952" lon="15.146834"><ele>17.0</ele><time>2026-04-11T09:13:00.312Z</time></trkpt><trkpt lat="40.2163517" lon="15.1467626"><ele>17.5</ele><time>2026-04-11T09:13:01.316Z</time></trkpt><trkpt lat="40.2164992" lon="15.1467151"><ele>18.0</ele><time>2026-04-11T09:13:02.3Z</time></trkpt><trkpt lat="40.21664" lon="15.1466983"><ele>18.5</ele><time>2026-04-11T09:13:03.304Z</time></trkpt><trkpt lat="40.2167894" lon="15.1467072"><ele>19.0</ele><time>2026-04-11T09:13:04.307Z</time></trkpt><trkpt lat="40.2169551" lon="15.1467313"><ele>19.0</ele><time>2026-04-11T09:13:05.33Z</time></trkpt><trkpt lat="40.2171283" lon="15.1467574"><ele>19.0</ele><time>2026-04-11T09:13:06.318Z</time></trkpt><trkpt lat="40.2173079" lon="15.1467929"><ele>19.0</ele><time>2026-04-11T09:13:07.315Z</time></trkpt><trkpt lat="40.2174777" lon="15.1468436"><ele>18.666666666666664</ele><time>2026-04-11T09:13:08.312Z</time></trkpt><trkpt lat="40.2176467" lon="15.1468974"><ele>18.333333333333332</ele><time>2026-04-11T09:13:09.307Z</time></trkpt><trkpt lat="40.2178302" lon="15.1469308"><ele>18.0</ele><time>2026-04-11T09:13:10.31Z</time></trkpt><trkpt lat="40.2180197" lon="15.1469322"><ele>19.0</ele><time>2026-04-11T09:13:11.313Z</time></trkpt><trkpt lat="40.2182171" lon="15.1469153"><ele>20.0</ele><time>2026-04-11T09:13:12.32Z</time></trkpt><trkpt lat="40.2184204" lon="15.1468855"><ele>21.0</ele><time>2026-04-11T09:13:13.313Z</time></trkpt><trkpt lat="40.2186236" lon="15.1468592"><ele>21.0</ele><time>2026-04-11T09:13:14.325Z</time></trkpt><trkpt lat="40.2188222" lon="15.1468353"><ele>21.0</ele><time>2026-04-11T09:13:15.33Z</time></trkpt><trkpt lat="40.2189956" lon="15.1468131"><ele>21.0</ele><time>2026-04-11T09:13:16.313Z</time></trkpt><trkpt lat="40.2191355" lon="15.1467837"><ele>20.5</ele><time>2026-04-11T09:13:17.321Z</time></trkpt><trkpt lat="40.2192675" lon="15.1467639"><ele>20.0</ele><time>2026-04-11T09:13:18.312Z</time></trkpt><trkpt lat="40.2193858" lon="15.1467586"><ele>19.5</ele><time>2026-04-11T09:13:19.308Z</time></trkpt><trkpt lat="40.2195002" lon="15.1467725"><ele>19.0</ele><time>2026-04-11T09:13:20.311Z</time></trkpt><trkpt lat="40.2196229" lon="15.1468125"><ele>19.0</ele><time>2026-04-11T09:13:21.317Z</time></trkpt><trkpt lat="40.2197617" lon="15.1468662"><ele>19.0</ele><time>2026-04-11T09:13:22.317Z</time></trkpt><trkpt lat="40.2199098" lon="15.1469527"><ele>19.0</ele><time>2026-04-11T09:13:23.324Z</time></trkpt><trkpt lat="40.2200535" lon="15.147045"><ele>20.666666666666664</ele><time>2026-04-11T09:13:24.321Z</time></trkpt><trkpt lat="40.2201975" lon="15.147144"><ele>22.333333333333332</ele><time>2026-04-11T09:13:25.322Z</time></trkpt><trkpt lat="40.2203447" lon="15.1472397"><ele>24.0</ele><time>2026-04-11T09:13:26.311Z</time></trkpt><trkpt lat="40.2204928" lon="15.1473339"><ele>23.333333333333332</ele><time>2026-04-11T09:13:27.326Z</time></trkpt><trkpt lat="40.2206513" lon="15.1474354"><ele>22.666666666666664</ele><time>2026-04-11T09:13:28.307Z</time></trkpt><trkpt lat="40.2208178" lon="15.1475322"><ele>22.0</ele><time>2026-04-11T09:13:29.323Z</time></trkpt><trkpt lat="40.2209906" lon="15.1476323"><ele>22.0</ele><time>2026-04-11T09:13:30.315Z</time></trkpt><trkpt lat="40.2211657" lon="15.1477424"><ele>22.0</ele><time>2026-04-11T09:13:31.309Z</time></trkpt><trkpt lat="40.2213434" lon="15.1478522"><ele>22.0</ele><time>2026-04-11T09:13:32.327Z</time></trkpt><trkpt lat="40.2215239" lon="15.1479643"><ele>23.333333333333332</ele><time>2026-04-11T09:13:33.315Z</time></trkpt><trkpt lat="40.2216987" lon="15.1480722"><ele>24.666666666666664</ele><time>2026-04-11T09:13:34.316Z</time></trkpt><trkpt lat="40.2218568" lon="15.1481715"><ele>26.0</ele><time>2026-04-11T09:13:35.314Z</time></trkpt><trkpt lat="40.2220019" lon="15.1482689"><ele>25.333333333333332</ele><time>2026-04-11T09:13:36.315Z</time></trkpt><trkpt lat="40.2221378" lon="15.1483897"><ele>24.666666666666664</ele><time>2026-04-11T09:13:37.317Z</time></trkpt><trkpt lat="40.2222663" lon="15.1485229"><ele>24.0</ele><time>2026-04-11T09:13:38.317Z</time></trkpt><trkpt lat="40.2223873" lon="15.1486658"><ele>24.0</ele><time>2026-04-11T09:13:39.331Z</time></trkpt><trkpt lat="40.2225129" lon="15.1488039"><ele>24.0</ele><time>2026-04-11T09:13:40.313Z</time></trkpt><trkpt lat="40.22265" lon="15.1489353"><ele>24.0</ele><time>2026-04-11T09:13:41.313Z</time></trkpt><trkpt lat="40.2227943" lon="15.1490556"><ele>22.666666666666668</ele><time>2026-04-11T09:13:42.305Z</time></trkpt><trkpt lat="40.2229299" lon="15.14916"><ele>21.333333333333336</ele><time>2026-04-11T09:13:43.329Z</time></trkpt><trkpt lat="40.2230584" lon="15.1492548"><ele>20.0</ele><time>2026-04-11T09:13:44.307Z</time></trkpt><trkpt lat="40.2231902" lon="15.149344"><ele>20.0</ele><time>2026-04-11T09:13:45.314Z</time></trkpt><trkpt lat="40.2233237" lon="15.1494343"><ele>20.0</ele><time>2026-04-11T09:13:46.312Z</time></trkpt><trkpt lat="40.2234654" lon="15.14953"><ele>20.0</ele><time>2026-04-11T09:13:47.315Z</time></trkpt><trkpt lat="40.2236169" lon="15.1496322"><ele>20.0</ele><time>2026-04-11T09:13:48.3Z</time></trkpt><trkpt lat="40.2237713" lon="15.1497237"><ele>20.0</ele><time>2026-04-11T09:13:49.301Z</time></trkpt><trkpt lat="40.2239387" lon="15.1498005"><ele>20.0</ele><time>2026-04-11T09:13:50.304Z</time></trkpt><trkpt lat="40.2241088" lon="15.1498514"><ele>20.0</ele><time>2026-04-11T09:13:51.317Z</time></trkpt><trkpt lat="40.2242891" lon="15.1498916"><ele>20.0</ele><time>2026-04-11T09:13:52.303Z</time></trkpt><trkpt lat="40.2244546" lon="15.1499239"><ele>20.0</ele><time>2026-04-11T09:13:53.312Z</time></trkpt><trkpt lat="40.2245834" lon="15.1499442"><ele>20.0</ele><time>2026-04-11T09:13:54.314Z</time></trkpt><trkpt lat="40.2247043" lon="15.149947"><ele>20.0</ele><time>2026-04-11T09:13:55.318Z</time></trkpt><trkpt lat="40.22482" lon="15.1499205"><ele>20.0</ele><time>2026-04-11T09:13:56.309Z</time></trkpt><trkpt lat="40.2249371" lon="15.1498649"><ele>20.0</ele><time>2026-04-11T09:13:57.315Z</time></trkpt><trkpt lat="40.2250531" lon="15.1497784"><ele>22.5</ele><time>2026-04-11T09:13:58.315Z</time></trkpt><trkpt lat="40.2251645" lon="15.1496643"><ele>25.0</ele><time>2026-04-11T09:13:59.323Z</time></trkpt><trkpt lat="40.225266" lon="15.1495267"><ele>27.5</ele><time>2026-04-11T09:14:00.32Z</time></trkpt><trkpt lat="40.2253684" lon="15.1493748"><ele>30.0</ele><time>2026-04-11T09:14:01.324Z</time></trkpt><trkpt lat="40.2254807" lon="15.1492148"><ele>27.666666666666668</ele><time>2026-04-11T09:14:02.311Z</time></trkpt><trkpt lat="40.2255823" lon="15.149034"><ele>25.333333333333336</ele><time>2026-04-11T09:14:03.312Z</time></trkpt><trkpt lat="40.2256815" lon="15.1488407"><ele>23.0</ele><time>2026-04-11T09:14:04.308Z</time></trkpt><trkpt lat="40.2257783" lon="15.1486403"><ele>23.0</ele><time>2026-04-11T09:14:05.322Z</time></trkpt><trkpt lat="40.2258796" lon="15.1484467"><ele>23.0</ele><time>2026-04-11T09:14:06.308Z</time></trkpt><trkpt lat="40.2259881" lon="15.1482537"><ele>23.0</ele><time>2026-04-11T09:14:07.303Z</time></trkpt><trkpt lat="40.2261063" lon="15.1480664"><ele>21.666666666666668</ele><time>2026-04-11T09:14:08.306Z</time></trkpt><trkpt lat="40.2262298" lon="15.1478861"><ele>20.333333333333332</ele><time>2026-04-11T09:14:09.318Z</time></trkpt><trkpt lat="40.2263608" lon="15.1476973"><ele>19.0</ele><time>2026-04-11T09:14:10.316Z</time></trkpt><trkpt lat="40.2265052" lon="15.1475056"><ele>21.333333333333332</ele><time>2026-04-11T09:14:11.316Z</time></trkpt><trkpt lat="40.2266594" lon="15.1473179"><ele>23.666666666666664</ele><time>2026-04-11T09:14:12.307Z</time></trkpt><trkpt lat="40.2268281" lon="15.1471381"><ele>26.0</ele><time>2026-04-11T09:14:13.323Z</time></trkpt><trkpt lat="40.2269973" lon="15.1469623"><ele>26.0</ele><time>2026-04-11T09:14:14.314Z</time></trkpt><trkpt lat="40.2271619" lon="15.1467921"><ele>26.0</ele><time>2026-04-11T09:14:15.317Z</time></trkpt><trkpt lat="40.2273103" lon="15.1466252"><ele>26.0</ele><time>2026-04-11T09:14:16.311Z</time></trkpt><trkpt lat="40.2274581" lon="15.1464595"><ele>28.333333333333332</ele><time>2026-04-11T09:14:17.315Z</time></trkpt><trkpt lat="40.227619" lon="15.1463076"><ele>30.666666666666664</ele><time>2026-04-11T09:14:18.311Z</time></trkpt><trkpt lat="40.2277883" lon="15.1461676"><ele>33.0</ele><time>2026-04-11T09:14:19.317Z</time></trkpt><trkpt lat="40.2279662" lon="15.1460394"><ele>33.0</ele><time>2026-04-11T09:14:20.312Z</time></trkpt><trkpt lat="40.2281382" lon="15.1459005"><ele>33.0</ele><time>2026-04-11T09:14:21.335Z</time></trkpt><trkpt lat="40.2283002" lon="15.1457436"><ele>33.0</ele><time>2026-04-11T09:14:22.307Z</time></trkpt><trkpt lat="40.2284663" lon="15.145582"><ele>33.333333333333336</ele><time>2026-04-11T09:14:23.314Z</time></trkpt><trkpt lat="40.2286217" lon="15.1454309"><ele>33.66666666666667</ele><time>2026-04-11T09:14:24.312Z</time></trkpt><trkpt lat="40.2287621" lon="15.1453024"><ele>34.0</ele><time>2026-04-11T09:14:25.321Z</time></trkpt><trkpt lat="40.2288928" lon="15.1451942"><ele>30.666666666666668</ele><time>2026-04-11T09:14:26.31Z</time></trkpt><trkpt lat="40.2290283" lon="15.1451066"><ele>27.333333333333336</ele><time>2026-04-11T09:14:27.316Z</time></trkpt><trkpt lat="40.2291661" lon="15.1450318"><ele>24.0</ele><time>2026-04-11T09:14:28.307Z</time></trkpt><trkpt lat="40.2293085" lon="15.1449701"><ele>24.0</ele><time>2026-04-11T09:14:29.312Z</time></trkpt><trkpt lat="40.2294524" lon="15.1449212"><ele>24.0</ele><time>2026-04-11T09:14:30.311Z</time></trkpt><trkpt lat="40.2295957" lon="15.1448944"><ele>24.0</ele><time>2026-04-11T09:14:31.32Z</time></trkpt><trkpt lat="40.2297496" lon="15.1448823"><ele>24.0</ele><time>2026-04-11T09:14:32.307Z</time></trkpt><trkpt lat="40.2299159" lon="15.1448769"><ele>22.666666666666668</ele><time>2026-04-11T09:14:33.299Z</time></trkpt><trkpt lat="40.2300887" lon="15.1448824"><ele>21.333333333333336</ele><time>2026-04-11T09:14:34.313Z</time></trkpt><trkpt lat="40.2302586" lon="15.1449049"><ele>20.0</ele><time>2026-04-11T09:14:35.323Z</time></trkpt><trkpt lat="40.2304309" lon="15.1449281"><ele>20.0</ele><time>2026-04-11T09:14:36.31Z</time></trkpt><trkpt lat="40.2305969" lon="15.1449612"><ele>20.0</ele><time>2026-04-11T09:14:37.301Z</time></trkpt><trkpt lat="40.2307459" lon="15.1449869"><ele>20.0</ele><time>2026-04-11T09:14:38.318Z</time></trkpt><trkpt lat="40.2308861" lon="15.1450041"><ele>20.5</ele><time>2026-04-11T09:14:39.307Z</time></trkpt><trkpt lat="40.2310162" lon="15.1450029"><ele>21.0</ele><time>2026-04-11T09:14:40.324Z</time></trkpt><trkpt lat="40.2311413" lon="15.1449618"><ele>21.5</ele><time>2026-04-11T09:14:41.309Z</time></trkpt><trkpt lat="40.231263" lon="15.1448853"><ele>22.0</ele><time>2026-04-11T09:14:42.29Z</time></trkpt><trkpt lat="40.2313734" lon="15.1447711"><ele>23.25</ele><time>2026-04-11T09:14:43.324Z</time></trkpt><trkpt lat="40.2314595" lon="15.1446318"><ele>24.5</ele><time>2026-04-11T09:14:44.313Z</time></trkpt><trkpt lat="40.2315253" lon="15.1444649"><ele>25.75</ele><time>2026-04-11T09:14:45.306Z</time></trkpt><trkpt lat="40.2315709" lon="15.1442822"><ele>27.0</ele><time>2026-04-11T09:14:46.322Z</time></trkpt><trkpt lat="40.2316007" lon="15.14407"><ele>28.666666666666664</ele><time>2026-04-11T09:14:47.312Z</time></trkpt><trkpt lat="40.2316262" lon="15.1438451"><ele>30.333333333333332</ele><time>2026-04-11T09:14:48.329Z</time></trkpt><trkpt lat="40.2316468" lon="15.1436063"><ele>32.0</ele><time>2026-04-11T09:14:49.313Z</time></trkpt><trkpt lat="40.2316612" lon="15.1433549"><ele>35.0</ele><time>2026-04-11T09:14:50.323Z</time></trkpt><trkpt lat="40.2316854" lon="15.1430981"><ele>38.0</ele><time>2026-04-11T09:14:51.318Z</time></trkpt><trkpt lat="40.2317158" lon="15.1428408"><ele>41.0</ele><time>2026-04-11T09:14:52.302Z</time></trkpt><trkpt lat="40.2317461" lon="15.1426027"><ele>41.0</ele><time>2026-04-11T09:14:53.322Z</time></trkpt><trkpt lat="40.2317758" lon="15.1424001"><ele>41.0</ele><time>2026-04-11T09:14:54.32Z</time></trkpt><trkpt lat="40.2318169" lon="15.142231"><ele>41.0</ele><time>2026-04-11T09:14:55.317Z</time></trkpt><trkpt lat="40.2318828" lon="15.1420716"><ele>41.0</ele><time>2026-04-11T09:14:56.319Z</time></trkpt><trkpt lat="40.2319686" lon="15.1419295"><ele>43.0</ele><time>2026-04-11T09:14:57.312Z</time></trkpt><trkpt lat="40.232073" lon="15.1418019"><ele>45.0</ele><time>2026-04-11T09:14:58.31Z</time></trkpt><trkpt lat="40.2322045" lon="15.1416948"><ele>47.0</ele><time>2026-04-11T09:14:59.313Z</time></trkpt><trkpt lat="40.2323496" lon="15.1415869"><ele>43.33333333333333</ele><time>2026-04-11T09:15:00.314Z</time></trkpt><trkpt lat="40.2324961" lon="15.1414802"><ele>39.666666666666664</ele><time>2026-04-11T09:15:01.33Z</time></trkpt><trkpt lat="40.2326378" lon="15.1413431"><ele>36.0</ele><time>2026-04-11T09:15:02.298Z</time></trkpt><trkpt lat="40.2327843" lon="15.1411909"><ele>36.0</ele><time>2026-04-11T09:15:03.318Z</time></trkpt><trkpt lat="40.2329214" lon="15.1410441"><ele>36.0</ele><time>2026-04-11T09:15:04.313Z</time></trkpt><trkpt lat="40.2330556" lon="15.1409129"><ele>36.0</ele><time>2026-04-11T09:15:05.304Z</time></trkpt><trkpt lat="40.2331845" lon="15.1407826"><ele>37.0</ele><time>2026-04-11T09:15:06.298Z</time></trkpt><trkpt lat="40.2333161" lon="15.1406416"><ele>38.0</ele><time>2026-04-11T09:15:07.308Z</time></trkpt><trkpt lat="40.2334546" lon="15.1405018"><ele>39.0</ele><time>2026-04-11T09:15:08.297Z</time></trkpt><trkpt lat="40.2335891" lon="15.1403641"><ele>39.0</ele><time>2026-04-11T09:15:09.318Z</time></trkpt><trkpt lat="40.2337234" lon="15.1402354"><ele>39.0</ele><time>2026-04-11T09:15:10.306Z</time></trkpt><trkpt lat="40.2338536" lon="15.1401036"><ele>39.0</ele><time>2026-04-11T09:15:11.32Z</time></trkpt><trkpt lat="40.23399" lon="15.1399677"><ele>44.0</ele><time>2026-04-11T09:15:12.305Z</time></trkpt><trkpt lat="40.2341321" lon="15.139831"><ele>49.0</ele><time>2026-04-11T09:15:13.311Z</time></trkpt><trkpt lat="40.2342864" lon="15.1397025"><ele>54.0</ele><time>2026-04-11T09:15:14.312Z</time></trkpt><trkpt lat="40.2344508" lon="15.1395938"><ele>54.0</ele><time>2026-04-11T09:15:15.319Z</time></trkpt><trkpt lat="40.234617" lon="15.1394891"><ele>54.0</ele><time>2026-04-11T09:15:16.307Z</time></trkpt><trkpt lat="40.2347744" lon="15.1393767"><ele>54.0</ele><time>2026-04-11T09:15:17.316Z</time></trkpt><trkpt lat="40.234921" lon="15.1392612"><ele>53.33333333333333</ele><time>2026-04-11T09:15:18.326Z</time></trkpt><trkpt lat="40.2350652" lon="15.1391343"><ele>52.666666666666664</ele><time>2026-04-11T09:15:19.321Z</time></trkpt><trkpt lat="40.2352026" lon="15.1389836"><ele>52.0</ele><time>2026-04-11T09:15:20.312Z</time></trkpt><trkpt lat="40.235333" lon="15.1388212"><ele>52.0</ele><time>2026-04-11T09:15:21.313Z</time></trkpt><trkpt lat="40.2354692" lon="15.1386654"><ele>52.0</ele><time>2026-04-11T09:15:22.315Z</time></trkpt><trkpt lat="40.235602" lon="15.1385216"><ele>52.0</ele><time>2026-04-11T09:15:23.309Z</time></trkpt><trkpt lat="40.2357236" lon="15.1383839"><ele>49.0</ele><time>2026-04-11T09:15:24.307Z</time></trkpt><trkpt lat="40.2358353" lon="15.1382474"><ele>46.0</ele><time>2026-04-11T09:15:25.314Z</time></trkpt><trkpt lat="40.2359339" lon="15.1380906"><ele>43.0</ele><time>2026-04-11T09:15:26.3Z</time></trkpt><trkpt lat="40.2360182" lon="15.1379092"><ele>43.0</ele><time>2026-04-11T09:15:27.322Z</time></trkpt><trkpt lat="40.236099" lon="15.13774"><ele>43.0</ele><time>2026-04-11T09:15:28.298Z</time></trkpt><trkpt lat="40.2361788" lon="15.1376014"><ele>43.0</ele><time>2026-04-11T09:15:29.317Z</time></trkpt><trkpt lat="40.2362582" lon="15.1374849"><ele>43.0</ele><time>2026-04-11T09:15:30.3Z</time></trkpt><trkpt lat="40.2363532" lon="15.1373856"><ele>44.333333333333336</ele><time>2026-04-11T09:15:31.324Z</time></trkpt><trkpt lat="40.2364717" lon="15.1373074"><ele>45.666666666666664</ele><time>2026-04-11T09:15:32.303Z</time></trkpt><trkpt lat="40.2366172" lon="15.1372373"><ele>47.0</ele><time>2026-04-11T09:15:33.317Z</time></trkpt><trkpt lat="40.2367762" lon="15.1371546"><ele>47.0</ele><time>2026-04-11T09:15:34.31Z</time></trkpt><trkpt lat="40.2369562" lon="15.1370643"><ele>47.0</ele><time>2026-04-11T09:15:35.31Z</time></trkpt><trkpt lat="40.2371436" lon="15.136976"><ele>47.0</ele><time>2026-04-11T09:15:36.328Z</time></trkpt><trkpt lat="40.2373284" lon="15.1368836"><ele>42.666666666666664</ele><time>2026-04-11T09:15:37.31Z</time></trkpt><trkpt lat="40.237518" lon="15.136783"><ele>38.333333333333336</ele><time>2026-04-11T09:15:38.308Z</time></trkpt><trkpt lat="40.2377088" lon="15.136679"><ele>34.0</ele><time>2026-04-11T09:15:39.315Z</time></trkpt><trkpt lat="40.2378812" lon="15.136584"><ele>34.25</ele><time>2026-04-11T09:15:40.305Z</time></trkpt><trkpt lat="40.2380121" lon="15.1365008"><ele>34.5</ele><time>2026-04-11T09:15:41.308Z</time></trkpt><trkpt lat="40.23813" lon="15.1364249"><ele>34.75</ele><time>2026-04-11T09:15:42.327Z</time></trkpt><trkpt lat="40.2382539" lon="15.1363409"><ele>35.0</ele><time>2026-04-11T09:15:43.318Z</time></trkpt><trkpt lat="40.238385" lon="15.1362308"><ele>35.0</ele><time>2026-04-11T09:15:44.313Z</time></trkpt><trkpt lat="40.2385234" lon="15.136102"><ele>35.0</ele><time>2026-04-11T09:15:45.313Z</time></trkpt><trkpt lat="40.2386658" lon="15.1359511"><ele>35.0</ele><time>2026-04-11T09:15:46.315Z</time></trkpt><trkpt lat="40.2388107" lon="15.1358021"><ele>36.666666666666664</ele><time>2026-04-11T09:15:47.307Z</time></trkpt><trkpt lat="40.2389598" lon="15.1356526"><ele>38.333333333333336</ele><time>2026-04-11T09:15:48.303Z</time></trkpt><trkpt lat="40.2391116" lon="15.1355037"><ele>40.0</ele><time>2026-04-11T09:15:49.321Z</time></trkpt><trkpt lat="40.2392452" lon="15.1353619"><ele>37.5</ele><time>2026-04-11T09:15:50.307Z</time></trkpt><trkpt lat="40.2393628" lon="15.1352407"><ele>35.0</ele><time>2026-04-11T09:15:51.311Z</time></trkpt><trkpt lat="40.2394735" lon="15.1351273"><ele>32.5</ele><time>2026-04-11T09:15:52.309Z</time></trkpt><trkpt lat="40.2395816" lon="15.1350168"><ele>30.0</ele><time>2026-04-11T09:15:53.307Z</time></trkpt><trkpt lat="40.2396921" lon="15.1349008"><ele>30.5</ele><time>2026-04-11T09:15:54.317Z</time></trkpt><trkpt lat="40.239801" lon="15.1347836"><ele>31.0</ele><time>2026-04-11T09:15:55.315Z</time></trkpt><trkpt lat="40.239909" lon="15.134668"><ele>31.5</ele><time>2026-04-11T09:15:56.306Z</time></trkpt><trkpt lat="40.2400219" lon="15.1345504"><ele>32.0</ele><time>2026-04-11T09:15:57.326Z</time></trkpt><trkpt lat="40.2401358" lon="15.1344303"><ele>32.0</ele><time>2026-04-11T09:15:58.342Z</time></trkpt><trkpt lat="40.2402495" lon="15.1343162"><ele>32.0</ele><time>2026-04-11T09:15:59.32Z</time></trkpt><trkpt lat="40.240362" lon="15.1342034"><ele>32.0</ele><time>2026-04-11T09:16:00.318Z</time></trkpt><trkpt lat="40.2404681" lon="15.1340951"><ele>32.0</ele><time>2026-04-11T09:16:01.316Z</time></trkpt><trkpt lat="40.2405678" lon="15.133991"><ele>32.0</ele><time>2026-04-11T09:16:02.306Z</time></trkpt><trkpt lat="40.2406673" lon="15.1338866"><ele>32.0</ele><time>2026-04-11T09:16:03.304Z</time></trkpt><trkpt lat="40.2407641" lon="15.1337892"><ele>32.0</ele><time>2026-04-11T09:16:04.293Z</time></trkpt><trkpt lat="40.2408546" lon="15.1336987"><ele>32.0</ele><time>2026-04-11T09:16:05.317Z</time></trkpt><trkpt lat="40.2409357" lon="15.1336128"><ele>32.0</ele><time>2026-04-11T09:16:06.312Z</time></trkpt><trkpt lat="40.24102" lon="15.1335215"><ele>32.0</ele><time>2026-04-11T09:16:07.313Z</time></trkpt><trkpt lat="40.2411076" lon="15.1334186"><ele>32.0</ele><time>2026-04-11T09:16:08.31Z</time></trkpt><trkpt lat="40.2412021" lon="15.1333109"><ele>32.0</ele><time>2026-04-11T09:16:09.308Z</time></trkpt><trkpt lat="40.2413007" lon="15.1331908"><ele>32.5</ele><time>2026-04-11T09:16:10.31Z</time></trkpt><trkpt lat="40.2414041" lon="15.1330689"><ele>33.0</ele><time>2026-04-11T09:16:11.326Z</time></trkpt><trkpt lat="40.2415084" lon="15.1329442"><ele>33.5</ele><time>2026-04-11T09:16:12.306Z</time></trkpt><trkpt lat="40.2416167" lon="15.1328156"><ele>34.0</ele><time>2026-04-11T09:16:13.312Z</time></trkpt><trkpt lat="40.2417209" lon="15.1326905"><ele>34.0</ele><time>2026-04-11T09:16:14.302Z</time></trkpt><trkpt lat="40.2418183" lon="15.1325775"><ele>34.0</ele><time>2026-04-11T09:16:15.31Z</time></trkpt><trkpt lat="40.2419078" lon="15.1324737"><ele>34.0</ele><time>2026-04-11T09:16:16.313Z</time></trkpt><trkpt lat="40.2419962" lon="15.1323663"><ele>34.0</ele><time>2026-04-11T09:16:17.31Z</time></trkpt><trkpt lat="40.2420902" lon="15.1322565"><ele>33.75</ele><time>2026-04-11T09:16:18.31Z</time></trkpt><trkpt lat="40.2421832" lon="15.1321427"><ele>33.5</ele><time>2026-04-11T09:16:19.315Z</time></trkpt><trkpt lat="40.2422773" lon="15.1320267"><ele>33.25</ele><time>2026-04-11T09:16:20.302Z</time></trkpt><trkpt lat="40.2423752" lon="15.1319053"><ele>33.0</ele><time>2026-04-11T09:16:21.316Z</time></trkpt><trkpt lat="40.2424773" lon="15.1317893"><ele>33.0</ele><time>2026-04-11T09:16:22.305Z</time></trkpt><trkpt lat="40.242578" lon="15.1316778"><ele>33.0</ele><time>2026-04-11T09:16:23.319Z</time></trkpt><trkpt lat="40.2426747" lon="15.1315719"><ele>33.0</ele><time>2026-04-11T09:16:24.313Z</time></trkpt><trkpt lat="40.2427735" lon="15.1314662"><ele>33.0</ele><time>2026-04-11T09:16:25.305Z</time></trkpt><trkpt lat="40.2428783" lon="15.13136"><ele>33.25</ele><time>2026-04-11T09:16:26.307Z</time></trkpt><trkpt lat="40.2429834" lon="15.1312569"><ele>33.5</ele><time>2026-04-11T09:16:27.313Z</time></trkpt><trkpt lat="40.2430863" lon="15.1311622"><ele>33.75</ele><time>2026-04-11T09:16:28.308Z</time></trkpt><trkpt lat="40.2431829" lon="15.1310776"><ele>34.0</ele><time>2026-04-11T09:16:29.314Z</time></trkpt><trkpt lat="40.2432802" lon="15.1310029"><ele>34.0</ele><time>2026-04-11T09:16:30.321Z</time></trkpt><trkpt lat="40.2433692" lon="15.130933"><ele>34.0</ele><time>2026-04-11T09:16:31.321Z</time></trkpt><trkpt lat="40.2434537" lon="15.1308669"><ele>34.0</ele><time>2026-04-11T09:16:32.311Z</time></trkpt><trkpt lat="40.2435382" lon="15.1308006"><ele>34.0</ele><time>2026-04-11T09:16:33.32Z</time></trkpt><trkpt lat="40.2436332" lon="15.1307383"><ele>34.0</ele><time>2026-04-11T09:16:34.31Z</time></trkpt><trkpt lat="40.2437399" lon="15.1306763"><ele>33.75</ele><time>2026-04-11T09:16:35.308Z</time></trkpt><trkpt lat="40.2438522" lon="15.1306133"><ele>33.5</ele><time>2026-04-11T09:16:36.311Z</time></trkpt><trkpt lat="40.24397" lon="15.1305522"><ele>33.25</ele><time>2026-04-11T09:16:37.321Z</time></trkpt><trkpt lat="40.2440811" lon="15.1305"><ele>33.0</ele><time>2026-04-11T09:16:38.315Z</time></trkpt><trkpt lat="40.2441814" lon="15.1304594"><ele>33.0</ele><time>2026-04-11T09:16:39.315Z</time></trkpt><trkpt lat="40.2442652" lon="15.1304182"><ele>33.0</ele><time>2026-04-11T09:16:40.284Z</time></trkpt><trkpt lat="40.2443258" lon="15.1303802"><ele>33.0</ele><time>2026-04-11T09:16:41.306Z</time></trkpt><trkpt lat="40.2444068" lon="15.1303322"><ele>33.0</ele><time>2026-04-11T09:16:43.307Z</time></trkpt><trkpt lat="40.2444677" lon="15.1302394"><ele>33.0</ele><time>2026-04-11T09:16:53.329Z</time></trkpt><trkpt lat="40.2444309" lon="15.1301039"><ele>33.0</ele><time>2026-04-11T09:16:55.318Z</time></trkpt><trkpt lat="40.2443836" lon="15.1300315"><ele>33.0</ele><time>2026-04-11T09:16:56.332Z</time></trkpt><trkpt lat="40.2443236" lon="15.1299537"><ele>33.0</ele><time>2026-04-11T09:16:57.308Z</time></trkpt><trkpt lat="40.2442663" lon="15.1298583"><ele>33.0</ele><time>2026-04-11T09:16:58.316Z</time></trkpt><trkpt lat="40.2442258" lon="15.129758"><ele>33.0</ele><time>2026-04-11T09:16:59.319Z</time></trkpt><trkpt lat="40.244202" lon="15.1296602"><ele>33.0</ele><time>2026-04-11T09:17:00.311Z</time></trkpt><trkpt lat="40.2441753" lon="15.1295504"><ele>33.0</ele><time>2026-04-11T09:17:01.317Z</time></trkpt><trkpt lat="40.2441436" lon="15.1294168"><ele>33.0</ele><time>2026-04-11T09:17:02.307Z</time></trkpt><trkpt lat="40.2441034" lon="15.1292823"><ele>33.0</ele><time>2026-04-11T09:17:03.319Z</time></trkpt><trkpt lat="40.2440656" lon="15.1291264"><ele>33.0</ele><time>2026-04-11T09:17:04.324Z</time></trkpt><trkpt lat="40.2440224" lon="15.128961"><ele>33.0</ele><time>2026-04-11T09:17:05.31Z</time></trkpt><trkpt lat="40.2439819" lon="15.1287876"><ele>36.666666666666664</ele><time>2026-04-11T09:17:06.307Z</time></trkpt><trkpt lat="40.2439453" lon="15.1286053"><ele>40.33333333333333</ele><time>2026-04-11T09:17:07.309Z</time></trkpt><trkpt lat="40.2439162" lon="15.1284115"><ele>44.0</ele><time>2026-04-11T09:17:08.306Z</time></trkpt><trkpt lat="40.2438976" lon="15.1282054"><ele>44.33333333333333</ele><time>2026-04-11T09:17:09.326Z</time></trkpt><trkpt lat="40.2438896" lon="15.1279908"><ele>44.666666666666664</ele><time>2026-04-11T09:17:10.315Z</time></trkpt><trkpt lat="40.2438936" lon="15.1277741"><ele>45.0</ele><time>2026-04-11T09:17:11.316Z</time></trkpt><trkpt lat="40.2439141" lon="15.1275521"><ele>42.666666666666664</ele><time>2026-04-11T09:17:12.313Z</time></trkpt><trkpt lat="40.2439461" lon="15.1273172"><ele>40.33333333333333</ele><time>2026-04-11T09:17:13.311Z</time></trkpt><trkpt lat="40.2439864" lon="15.1270726"><ele>38.0</ele><time>2026-04-11T09:17:14.304Z</time></trkpt><trkpt lat="40.2440336" lon="15.1268183"><ele>38.0</ele><time>2026-04-11T09:17:15.319Z</time></trkpt><trkpt lat="40.2440884" lon="15.1265637"><ele>38.0</ele><time>2026-04-11T09:17:16.313Z</time></trkpt><trkpt lat="40.2441495" lon="15.1263138"><ele>38.0</ele><time>2026-04-11T09:17:17.332Z</time></trkpt><trkpt lat="40.244206" lon="15.1260653"><ele>38.0</ele><time>2026-04-11T09:17:18.313Z</time></trkpt><trkpt lat="40.2442553" lon="15.1258206"><ele>38.0</ele><time>2026-04-11T09:17:19.318Z</time></trkpt><trkpt lat="40.2443016" lon="15.1255783"><ele>38.0</ele><time>2026-04-11T09:17:20.302Z</time></trkpt><trkpt lat="40.2443491" lon="15.1253344"><ele>38.33333333333333</ele><time>2026-04-11T09:17:21.327Z</time></trkpt><trkpt lat="40.2444027" lon="15.125099"><ele>38.666666666666664</ele><time>2026-04-11T09:17:22.33Z</time></trkpt><trkpt lat="40.2444566" lon="15.1248642"><ele>39.0</ele><time>2026-04-11T09:17:23.316Z</time></trkpt><trkpt lat="40.2445178" lon="15.1246357"><ele>40.666666666666664</ele><time>2026-04-11T09:17:24.308Z</time></trkpt><trkpt lat="40.2445837" lon="15.1244088"><ele>42.33333333333333</ele><time>2026-04-11T09:17:25.303Z</time></trkpt><trkpt lat="40.2446498" lon="15.1241892"><ele>44.0</ele><time>2026-04-11T09:17:26.306Z</time></trkpt><trkpt lat="40.2447091" lon="15.1239837"><ele>45.0</ele><time>2026-04-11T09:17:27.318Z</time></trkpt><trkpt lat="40.2447595" lon="15.123781"><ele>46.0</ele><time>2026-04-11T09:17:28.328Z</time></trkpt><trkpt lat="40.2448062" lon="15.1235738"><ele>47.0</ele><time>2026-04-11T09:17:29.31Z</time></trkpt><trkpt lat="40.244839" lon="15.1233578"><ele>44.666666666666664</ele><time>2026-04-11T09:17:30.31Z</time></trkpt><trkpt lat="40.2448672" lon="15.123131"><ele>42.333333333333336</ele><time>2026-04-11T09:17:31.311Z</time></trkpt><trkpt lat="40.2448859" lon="15.1229041"><ele>40.0</ele><time>2026-04-11T09:17:32.305Z</time></trkpt><trkpt lat="40.2448865" lon="15.1226812"><ele>40.0</ele><time>2026-04-11T09:17:33.321Z</time></trkpt><trkpt lat="40.2448778" lon="15.1224791"><ele>40.0</ele><time>2026-04-11T09:17:34.318Z</time></trkpt><trkpt lat="40.2448599" lon="15.1222845"><ele>40.0</ele><time>2026-04-11T09:17:35.313Z</time></trkpt><trkpt lat="40.2448334" lon="15.122089"><ele>41.333333333333336</ele><time>2026-04-11T09:17:36.302Z</time></trkpt><trkpt lat="40.2447988" lon="15.1218941"><ele>42.666666666666664</ele><time>2026-04-11T09:17:37.309Z</time></trkpt><trkpt lat="40.2447629" lon="15.1217064"><ele>44.0</ele><time>2026-04-11T09:17:38.312Z</time></trkpt><trkpt lat="40.2447299" lon="15.1215098"><ele>47.75</ele><time>2026-04-11T09:17:39.307Z</time></trkpt><trkpt lat="40.2447115" lon="15.1213191"><ele>51.5</ele><time>2026-04-11T09:17:40.317Z</time></trkpt><trkpt lat="40.2447012" lon="15.1211355"><ele>55.25</ele><time>2026-04-11T09:17:41.313Z</time></trkpt><trkpt lat="40.2446933" lon="15.1209687"><ele>59.0</ele><time>2026-04-11T09:17:42.319Z</time></trkpt><trkpt lat="40.2446778" lon="15.1208196"><ele>57.800000000000004</ele><time>2026-04-11T09:17:43.31Z</time></trkpt><trkpt lat="40.2446591" lon="15.1206745"><ele>56.60000000000001</ele><time>2026-04-11T09:17:44.307Z</time></trkpt><trkpt lat="40.2446435" lon="15.1205397"><ele>55.4</ele><time>2026-04-11T09:17:45.311Z</time></trkpt><trkpt lat="40.2446292" lon="15.120418"><ele>54.2</ele><time>2026-04-11T09:17:46.301Z</time></trkpt><trkpt lat="40.2446156" lon="15.1203114"><ele>53.0</ele><time>2026-04-11T09:17:47.309Z</time></trkpt><trkpt lat="40.2446054" lon="15.1202037"><ele>53.00000000000001</ele><time>2026-04-11T09:17:48.311Z</time></trkpt><trkpt lat="40.2445992" lon="15.1201116"><ele>53.0</ele><time>2026-04-11T09:17:49.315Z</time></trkpt><trkpt lat="40.2445951" lon="15.1199535"><ele>53.0</ele><time>2026-04-11T09:17:51.306Z</time></trkpt><trkpt lat="40.244599" lon="15.1198332"><ele>53.0</ele><time>2026-04-11T09:17:53.321Z</time></trkpt><trkpt lat="40.2446383" lon="15.1197483"><ele>53.00000000000001</ele><time>2026-04-11T09:17:55.313Z</time></trkpt><trkpt lat="40.244713" lon="15.1197185"><ele>53.0</ele><time>2026-04-11T09:17:57.313Z</time></trkpt><trkpt lat="40.2447997" lon="15.1197815"><ele>52.66666666666667</ele><time>2026-04-11T09:17:59.324Z</time></trkpt><trkpt lat="40.244831" lon="15.119925"><ele>52.333333333333336</ele><time>2026-04-11T09:18:01.322Z</time></trkpt><trkpt lat="40.2448824" lon="15.1200094"><ele>52.0</ele><time>2026-04-11T09:18:03.307Z</time></trkpt><trkpt lat="40.2449444" lon="15.119991"><ele>51.66666666666667</ele><time>2026-04-11T09:18:05.307Z</time></trkpt><trkpt lat="40.2450057" lon="15.1199075"><ele>51.333333333333336</ele><time>2026-04-11T09:18:07.315Z</time></trkpt><trkpt lat="40.2450506" lon="15.1198467"><ele>51.0</ele><time>2026-04-11T09:18:08.294Z</time></trkpt><trkpt lat="40.2450983" lon="15.1197612"><ele>51.0</ele><time>2026-04-11T09:18:09.297Z</time></trkpt><trkpt lat="40.2451558" lon="15.1196392"><ele>51.0</ele><time>2026-04-11T09:18:10.307Z</time></trkpt><trkpt lat="40.2452205" lon="15.1195162"><ele>51.0</ele><time>2026-04-11T09:18:11.313Z</time></trkpt><trkpt lat="40.2452998" lon="15.119382"><ele>51.0</ele><time>2026-04-11T09:18:12.305Z</time></trkpt><trkpt lat="40.2453826" lon="15.1192436"><ele>51.0</ele><time>2026-04-11T09:18:13.31Z</time></trkpt><trkpt lat="40.2454555" lon="15.119095"><ele>51.0</ele><time>2026-04-11T09:18:14.304Z</time></trkpt><trkpt lat="40.2455215" lon="15.1189402"><ele>51.0</ele><time>2026-04-11T09:18:15.308Z</time></trkpt><trkpt lat="40.2455957" lon="15.1188145"><ele>51.0</ele><time>2026-04-11T09:18:16.305Z</time></trkpt><trkpt lat="40.2456575" lon="15.1187012"><ele>52.8</ele><time>2026-04-11T09:18:17.32Z</time></trkpt><trkpt lat="40.2457028" lon="15.1185967"><ele>54.599999999999994</ele><time>2026-04-11T09:18:18.315Z</time></trkpt><trkpt lat="40.2457512" lon="15.1184835"><ele>56.4</ele><time>2026-04-11T09:18:19.325Z</time></trkpt><trkpt lat="40.2457962" lon="15.1183658"><ele>58.2</ele><time>2026-04-11T09:18:20.33Z</time></trkpt><trkpt lat="40.2458401" lon="15.1182667"><ele>60.0</ele><time>2026-04-11T09:18:21.323Z</time></trkpt><trkpt lat="40.2458903" lon="15.1181941"><ele>62.8</ele><time>2026-04-11T09:18:22.312Z</time></trkpt><trkpt lat="40.2459538" lon="15.1181286"><ele>65.6</ele><time>2026-04-11T09:18:23.294Z</time></trkpt><trkpt lat="40.2460379" lon="15.1180749"><ele>68.4</ele><time>2026-04-11T09:18:24.31Z</time></trkpt><trkpt lat="40.2461358" lon="15.1180295"><ele>71.2</ele><time>2026-04-11T09:18:25.31Z</time></trkpt><trkpt lat="40.246226" lon="15.1179839"><ele>74.0</ele><time>2026-04-11T09:18:26.317Z</time></trkpt><trkpt lat="40.2463051" lon="15.1179203"><ele>74.0</ele><time>2026-04-11T09:18:27.322Z</time></trkpt><trkpt lat="40.2463759" lon="15.1178208"><ele>74.0</ele><time>2026-04-11T09:18:28.316Z</time></trkpt><trkpt lat="40.2464396" lon="15.1177001"><ele>74.0</ele><time>2026-04-11T09:18:29.313Z</time></trkpt><trkpt lat="40.2464984" lon="15.1175542"><ele>74.0</ele><time>2026-04-11T09:18:30.311Z</time></trkpt><trkpt lat="40.2465697" lon="15.1173976"><ele>75.6</ele><time>2026-04-11T09:18:31.317Z</time></trkpt><trkpt lat="40.2466471" lon="15.1172318"><ele>77.2</ele><time>2026-04-11T09:18:32.308Z</time></trkpt><trkpt lat="40.2467197" lon="15.1170939"><ele>78.8</ele><time>2026-04-11T09:18:33.313Z</time></trkpt><trkpt lat="40.2467664" lon="15.1169834"><ele>80.39999999999999</ele><time>2026-04-11T09:18:34.31Z</time></trkpt><trkpt lat="40.2467906" lon="15.1168925"><ele>82.0</ele><time>2026-04-11T09:18:35.315Z</time></trkpt><trkpt lat="40.2467581" lon="15.1167834"><ele>82.0</ele><time>2026-04-11T09:18:37.319Z</time></trkpt><trkpt lat="40.2466752" lon="15.1168198"><ele>82.0</ele><time>2026-04-11T09:18:39.304Z</time></trkpt><trkpt lat="40.2466226" lon="15.1168932"><ele>82.0</ele><time>2026-04-11T09:18:40.294Z</time></trkpt><trkpt lat="40.2465501" lon="15.1169812"><ele>82.0</ele><time>2026-04-11T09:18:41.309Z</time></trkpt><trkpt lat="40.2464711" lon="15.117049"><ele>82.0</ele><time>2026-04-11T09:18:42.302Z</time></trkpt><trkpt lat="40.2463983" lon="15.1170724"><ele>82.0</ele><time>2026-04-11T09:18:43.316Z</time></trkpt><trkpt lat="40.2463174" lon="15.117061"><ele>82.0</ele><time>2026-04-11T09:18:44.309Z</time></trkpt><trkpt lat="40.2462448" lon="15.1170277"><ele>82.0</ele><time>2026-04-11T09:18:45.304Z</time></trkpt><trkpt lat="40.2461703" lon="15.1169629"><ele>82.0</ele><time>2026-04-11T09:18:46.307Z</time></trkpt><trkpt lat="40.2461001" lon="15.1168858"><ele>82.0</ele><time>2026-04-11T09:18:47.309Z</time></trkpt><trkpt lat="40.2460442" lon="15.1168061"><ele>82.0</ele><time>2026-04-11T09:18:48.321Z</time></trkpt><trkpt lat="40.2460089" lon="15.1167142"><ele>82.0</ele><time>2026-04-11T09:18:49.311Z</time></trkpt><trkpt lat="40.2459938" lon="15.1166076"><ele>84.8</ele><time>2026-04-11T09:18:50.319Z</time></trkpt><trkpt lat="40.2459835" lon="15.11649"><ele>87.6</ele><time>2026-04-11T09:18:51.315Z</time></trkpt><trkpt lat="40.2459732" lon="15.1163615"><ele>90.39999999999999</ele><time>2026-04-11T09:18:52.312Z</time></trkpt><trkpt lat="40.2459462" lon="15.1162349"><ele>93.19999999999999</ele><time>2026-04-11T09:18:53.318Z</time></trkpt><trkpt lat="40.2458883" lon="15.1160968"><ele>96.0</ele><time>2026-04-11T09:18:54.309Z</time></trkpt><trkpt lat="40.2458048" lon="15.1159455"><ele>96.0</ele><time>2026-04-11T09:18:55.319Z</time></trkpt><trkpt lat="40.2457163" lon="15.1157952"><ele>96.0</ele><time>2026-04-11T09:18:56.313Z</time></trkpt><trkpt lat="40.2456404" lon="15.1156703"><ele>96.0</ele><time>2026-04-11T09:18:57.32Z</time></trkpt><trkpt lat="40.245594" lon="15.1155677"><ele>96.0</ele><time>2026-04-11T09:18:58.294Z</time></trkpt><trkpt lat="40.2455738" lon="15.1154828"><ele>96.0</ele><time>2026-04-11T09:18:59.308Z</time></trkpt><trkpt lat="40.245575" lon="15.1153882"><ele>98.19999999999999</ele><time>2026-04-11T09:19:00.309Z</time></trkpt><trkpt lat="40.245589" lon="15.1152866"><ele>100.39999999999999</ele><time>2026-04-11T09:19:01.327Z</time></trkpt><trkpt lat="40.2456354" lon="15.115176"><ele>102.6</ele><time>2026-04-11T09:19:02.315Z</time></trkpt><trkpt lat="40.2456878" lon="15.1150458"><ele>104.8</ele><time>2026-04-11T09:19:03.317Z</time></trkpt><trkpt lat="40.2457388" lon="15.1149076"><ele>107.0</ele><time>2026-04-11T09:19:04.314Z</time></trkpt><trkpt lat="40.2457793" lon="15.114763"><ele>108.0</ele><time>2026-04-11T09:19:05.313Z</time></trkpt><trkpt lat="40.2458265" lon="15.1146012"><ele>109.0</ele><time>2026-04-11T09:19:06.309Z</time></trkpt><trkpt lat="40.2458959" lon="15.114429"><ele>110.0</ele><time>2026-04-11T09:19:07.316Z</time></trkpt><trkpt lat="40.2459686" lon="15.1142666"><ele>111.0</ele><time>2026-04-11T09:19:08.31Z</time></trkpt><trkpt lat="40.2460284" lon="15.1140999"><ele>110.25</ele><time>2026-04-11T09:19:09.311Z</time></trkpt><trkpt lat="40.2460729" lon="15.1139265"><ele>109.5</ele><time>2026-04-11T09:19:10.328Z</time></trkpt><trkpt lat="40.2461028" lon="15.1137638"><ele>108.75</ele><time>2026-04-11T09:19:11.322Z</time></trkpt><trkpt lat="40.2461319" lon="15.1136231"><ele>108.0</ele><time>2026-04-11T09:19:12.315Z</time></trkpt><trkpt lat="40.2461786" lon="15.1134962"><ele>108.0</ele><time>2026-04-11T09:19:13.324Z</time></trkpt><trkpt lat="40.2462434" lon="15.1133607"><ele>108.0</ele><time>2026-04-11T09:19:14.323Z</time></trkpt><trkpt lat="40.2463378" lon="15.1132305"><ele>108.0</ele><time>2026-04-11T09:19:15.322Z</time></trkpt><trkpt lat="40.246429" lon="15.1130859"><ele>108.0</ele><time>2026-04-11T09:19:16.317Z</time></trkpt><trkpt lat="40.2465167" lon="15.1129276"><ele>112.0</ele><time>2026-04-11T09:19:17.312Z</time></trkpt><trkpt lat="40.2466122" lon="15.1127866"><ele>116.0</ele><time>2026-04-11T09:19:18.305Z</time></trkpt><trkpt lat="40.2467189" lon="15.1126774"><ele>120.0</ele><time>2026-04-11T09:19:19.323Z</time></trkpt><trkpt lat="40.2468143" lon="15.1125652"><ele>124.0</ele><time>2026-04-11T09:19:20.295Z</time></trkpt><trkpt lat="40.2469002" lon="15.1124232"><ele>124.75</ele><time>2026-04-11T09:19:21.325Z</time></trkpt><trkpt lat="40.2469794" lon="15.11227"><ele>125.5</ele><time>2026-04-11T09:19:22.307Z</time></trkpt><trkpt lat="40.2470326" lon="15.1121068"><ele>126.25</ele><time>2026-04-11T09:19:23.313Z</time></trkpt><trkpt lat="40.2470603" lon="15.1119662"><ele>127.0</ele><time>2026-04-11T09:19:24.311Z</time></trkpt><trkpt lat="40.247076" lon="15.1118466"><ele>127.00000000000001</ele><time>2026-04-11T09:19:25.309Z</time></trkpt><trkpt lat="40.2470781" lon="15.111742"><ele>127.0</ele><time>2026-04-11T09:19:26.307Z</time></trkpt><trkpt lat="40.2470566" lon="15.1116558"><ele>127.0</ele><time>2026-04-11T09:19:27.302Z</time></trkpt><trkpt lat="40.2470077" lon="15.1115865"><ele>127.0</ele><time>2026-04-11T09:19:28.306Z</time></trkpt><trkpt lat="40.2469371" lon="15.111515"><ele>127.00000000000001</ele><time>2026-04-11T09:19:29.315Z</time></trkpt><trkpt lat="40.246851" lon="15.1114356"><ele>127.0</ele><time>2026-04-11T09:19:30.314Z</time></trkpt><trkpt lat="40.2467613" lon="15.111348"><ele>127.5</ele><time>2026-04-11T09:19:31.314Z</time></trkpt><trkpt lat="40.2466766" lon="15.111237"><ele>128.0</ele><time>2026-04-11T09:19:32.306Z</time></trkpt><trkpt lat="40.2465987" lon="15.1111144"><ele>128.5</ele><time>2026-04-11T09:19:33.328Z</time></trkpt><trkpt lat="40.2465278" lon="15.1109898"><ele>129.0</ele><time>2026-04-11T09:19:34.318Z</time></trkpt><trkpt lat="40.2464583" lon="15.1108453"><ele>132.0</ele><time>2026-04-11T09:19:35.31Z</time></trkpt><trkpt lat="40.246391" lon="15.1107076"><ele>135.0</ele><time>2026-04-11T09:19:36.32Z</time></trkpt><trkpt lat="40.2463203" lon="15.110583"><ele>138.0</ele><time>2026-04-11T09:19:37.316Z</time></trkpt><trkpt lat="40.2462549" lon="15.110471"><ele>141.0</ele><time>2026-04-11T09:19:38.306Z</time></trkpt><trkpt lat="40.2461931" lon="15.1103707"><ele>144.0</ele><time>2026-04-11T09:19:39.32Z</time></trkpt><trkpt lat="40.2461324" lon="15.1102734"><ele>144.0</ele><time>2026-04-11T09:19:40.309Z</time></trkpt><trkpt lat="40.246071" lon="15.110172"><ele>144.0</ele><time>2026-04-11T09:19:41.325Z</time></trkpt><trkpt lat="40.2460142" lon="15.1100587"><ele>144.0</ele><time>2026-04-11T09:19:42.311Z</time></trkpt><trkpt lat="40.2459562" lon="15.1099353"><ele>144.0</ele><time>2026-04-11T09:19:43.307Z</time></trkpt><trkpt lat="40.2458987" lon="15.1098082"><ele>144.0</ele><time>2026-04-11T09:19:44.309Z</time></trkpt><trkpt lat="40.24584" lon="15.1096797"><ele>146.75</ele><time>2026-04-11T09:19:45.319Z</time></trkpt><trkpt lat="40.2457836" lon="15.1095452"><ele>149.5</ele><time>2026-04-11T09:19:46.311Z</time></trkpt><trkpt lat="40.2457359" lon="15.1094012"><ele>152.25</ele><time>2026-04-11T09:19:47.322Z</time></trkpt><trkpt lat="40.2456941" lon="15.1092676"><ele>155.0</ele><time>2026-04-11T09:19:48.3Z</time></trkpt><trkpt lat="40.2456601" lon="15.1091405"><ele>156.25</ele><time>2026-04-11T09:19:49.318Z</time></trkpt><trkpt lat="40.2456248" lon="15.1090154"><ele>157.5</ele><time>2026-04-11T09:19:50.318Z</time></trkpt><trkpt lat="40.2455792" lon="15.1088736"><ele>158.75</ele><time>2026-04-11T09:19:51.324Z</time></trkpt><trkpt lat="40.2455191" lon="15.1087264"><ele>160.0</ele><time>2026-04-11T09:19:52.318Z</time></trkpt><trkpt lat="40.245457" lon="15.1085911"><ele>160.0</ele><time>2026-04-11T09:19:53.311Z</time></trkpt><trkpt lat="40.245388" lon="15.1084793"><ele>160.0</ele><time>2026-04-11T09:19:54.313Z</time></trkpt><trkpt lat="40.2453042" lon="15.1083669"><ele>160.0</ele><time>2026-04-11T09:19:55.313Z</time></trkpt><trkpt lat="40.2452139" lon="15.1082518"><ele>160.0</ele><time>2026-04-11T09:19:56.316Z</time></trkpt><trkpt lat="40.2451207" lon="15.1081537"><ele>164.4</ele><time>2026-04-11T09:19:57.313Z</time></trkpt><trkpt lat="40.245042" lon="15.1080794"><ele>168.8</ele><time>2026-04-11T09:19:58.306Z</time></trkpt><trkpt lat="40.2449666" lon="15.1079779"><ele>173.2</ele><time>2026-04-11T09:20:00.305Z</time></trkpt><trkpt lat="40.2450004" lon="15.1078878"><ele>177.6</ele><time>2026-04-11T09:20:02.304Z</time></trkpt><trkpt lat="40.2451263" lon="15.1078881"><ele>182.0</ele><time>2026-04-11T09:20:04.31Z</time></trkpt><trkpt lat="40.2452458" lon="15.1079641"><ele>182.0</ele><time>2026-04-11T09:20:06.304Z</time></trkpt><trkpt lat="40.2453756" lon="15.1079632"><ele>182.0</ele><time>2026-04-11T09:20:07.306Z</time></trkpt><trkpt lat="40.2455216" lon="15.1079706"><ele>182.0</ele><time>2026-04-11T09:20:08.298Z</time></trkpt><trkpt lat="40.2456571" lon="15.1079782"><ele>182.0</ele><time>2026-04-11T09:20:09.308Z</time></trkpt><trkpt lat="40.2457906" lon="15.1079734"><ele>184.0</ele><time>2026-04-11T09:20:10.298Z</time></trkpt><trkpt lat="40.2459251" lon="15.1079604"><ele>186.0</ele><time>2026-04-11T09:20:11.31Z</time></trkpt><trkpt lat="40.2460447" lon="15.107958"><ele>188.0</ele><time>2026-04-11T09:20:12.317Z</time></trkpt><trkpt lat="40.2461357" lon="15.1079778"><ele>190.0</ele><time>2026-04-11T09:20:13.303Z</time></trkpt><trkpt lat="40.2462202" lon="15.1080001"><ele>192.0</ele><time>2026-04-11T09:20:14.312Z</time></trkpt><trkpt lat="40.2462906" lon="15.1080138"><ele>192.0</ele><time>2026-04-11T09:20:15.32Z</time></trkpt><trkpt lat="40.2463613" lon="15.107975"><ele>192.0</ele><time>2026-04-11T09:20:17.306Z</time></trkpt><trkpt lat="40.2463381" lon="15.1078942"><ele>192.0</ele><time>2026-04-11T09:20:19.319Z</time></trkpt><trkpt lat="40.2462546" lon="15.1078798"><ele>192.0</ele><time>2026-04-11T09:20:21.303Z</time></trkpt><trkpt lat="40.2461842" lon="15.1078615"><ele>192.0</ele><time>2026-04-11T09:20:22.322Z</time></trkpt><trkpt lat="40.2460956" lon="15.1078362"><ele>192.0</ele><time>2026-04-11T09:20:23.317Z</time></trkpt><trkpt lat="40.2459931" lon="15.1078004"><ele>192.0</ele><time>2026-04-11T09:20:24.331Z</time></trkpt><trkpt lat="40.2458876" lon="15.1077371"><ele>192.0</ele><time>2026-04-11T09:20:25.314Z</time></trkpt><trkpt lat="40.2457858" lon="15.1076602"><ele>192.0</ele><time>2026-04-11T09:20:26.317Z</time></trkpt><trkpt lat="40.2456898" lon="15.1075885"><ele>192.0</ele><time>2026-04-11T09:20:27.313Z</time></trkpt><trkpt lat="40.2456009" lon="15.107512"><ele>190.0</ele><time>2026-04-11T09:20:28.323Z</time></trkpt><trkpt lat="40.2455173" lon="15.1074386"><ele>188.0</ele><time>2026-04-11T09:20:29.32Z</time></trkpt><trkpt lat="40.2454398" lon="15.1073428"><ele>186.0</ele><time>2026-04-11T09:20:30.319Z</time></trkpt><trkpt lat="40.2453634" lon="15.1072383"><ele>184.0</ele><time>2026-04-11T09:20:31.31Z</time></trkpt><trkpt lat="40.2452829" lon="15.1071253"><ele>182.0</ele><time>2026-04-11T09:20:32.3Z</time></trkpt><trkpt lat="40.2452072" lon="15.1070192"><ele>186.0</ele><time>2026-04-11T09:20:33.324Z</time></trkpt><trkpt lat="40.2451326" lon="15.1069168"><ele>190.0</ele><time>2026-04-11T09:20:34.297Z</time></trkpt><trkpt lat="40.2450658" lon="15.1068131"><ele>194.0</ele><time>2026-04-11T09:20:35.304Z</time></trkpt><trkpt lat="40.2449954" lon="15.1067146"><ele>198.0</ele><time>2026-04-11T09:20:36.321Z</time></trkpt><trkpt lat="40.2449143" lon="15.106624"><ele>202.0</ele><time>2026-04-11T09:20:37.322Z</time></trkpt><trkpt lat="40.2448217" lon="15.1065551"><ele>200.66666666666666</ele><time>2026-04-11T09:20:38.307Z</time></trkpt><trkpt lat="40.2447296" lon="15.106518"><ele>199.33333333333331</ele><time>2026-04-11T09:20:39.323Z</time></trkpt><trkpt lat="40.244658" lon="15.1064867"><ele>198.0</ele><time>2026-04-11T09:20:40.314Z</time></trkpt><trkpt lat="40.2446088" lon="15.1064266"><ele>196.66666666666669</ele><time>2026-04-11T09:20:41.319Z</time></trkpt><trkpt lat="40.244567" lon="15.1063356"><ele>195.33333333333334</ele><time>2026-04-11T09:20:42.3Z</time></trkpt><trkpt lat="40.2445382" lon="15.1062244"><ele>194.0</ele><time>2026-04-11T09:20:43.306Z</time></trkpt><trkpt lat="40.2445073" lon="15.1061091"><ele>194.00000000000003</ele><time>2026-04-11T09:20:44.301Z</time></trkpt><trkpt lat="40.2444828" lon="15.1060292"><ele>194.0</ele><time>2026-04-11T09:20:45.305Z</time></trkpt><trkpt lat="40.244482" lon="15.105925"><ele>194.0</ele><time>2026-04-11T09:20:47.298Z</time></trkpt><trkpt lat="40.2445552" lon="15.1059"><ele>194.0</ele><time>2026-04-11T09:20:49.324Z</time></trkpt><trkpt lat="40.2446442" lon="15.1059903"><ele>194.00000000000003</ele><time>2026-04-11T09:20:51.316Z</time></trkpt><trkpt lat="40.2447035" lon="15.1060547"><ele>194.0</ele><time>2026-04-11T09:20:52.304Z</time></trkpt><trkpt lat="40.2447829" lon="15.1061175"><ele>200.75</ele><time>2026-04-11T09:20:53.315Z</time></trkpt><trkpt lat="40.2448767" lon="15.1061685"><ele>207.5</ele><time>2026-04-11T09:20:54.309Z</time></trkpt><trkpt lat="40.2449934" lon="15.1061998"><ele>214.25</ele><time>2026-04-11T09:20:55.312Z</time></trkpt><trkpt lat="40.2451179" lon="15.1062429"><ele>221.0</ele><time>2026-04-11T09:20:56.308Z</time></trkpt><trkpt lat="40.2452414" lon="15.1063014"><ele>221.00000000000003</ele><time>2026-04-11T09:20:57.316Z</time></trkpt><trkpt lat="40.2453412" lon="15.1063651"><ele>221.0</ele><time>2026-04-11T09:20:58.305Z</time></trkpt><trkpt lat="40.2454142" lon="15.1064196"><ele>221.0</ele><time>2026-04-11T09:20:59.327Z</time></trkpt><trkpt lat="40.2454732" lon="15.1064556"><ele>221.0</ele><time>2026-04-11T09:21:00.313Z</time></trkpt><trkpt lat="40.2455439" lon="15.1064132"><ele>221.00000000000003</ele><time>2026-04-11T09:21:02.312Z</time></trkpt><trkpt lat="40.2455506" lon="15.10633"><ele>221.0</ele><time>2026-04-11T09:21:04.308Z</time></trkpt><trkpt lat="40.2455045" lon="15.1062711"><ele>221.0</ele><time>2026-04-11T09:21:06.319Z</time></trkpt><trkpt lat="40.2454038" lon="15.1062296"><ele>221.00000000000003</ele><time>2026-04-11T09:21:08.319Z</time></trkpt><trkpt lat="40.2453353" lon="15.1061995"><ele>221.00000000000003</ele><time>2026-04-11T09:21:09.309Z</time></trkpt><trkpt lat="40.2452568" lon="15.1061471"><ele>221.0</ele><time>2026-04-11T09:21:10.313Z</time></trkpt><trkpt lat="40.2451723" lon="15.1060771"><ele>221.0</ele><time>2026-04-11T09:21:11.312Z</time></trkpt><trkpt lat="40.24509" lon="15.1060171"><ele>221.0</ele><time>2026-04-11T09:21:12.313Z</time></trkpt><trkpt lat="40.2450294" lon="15.105942"><ele>221.00000000000003</ele><time>2026-04-11T09:21:13.326Z</time></trkpt><trkpt lat="40.2449886" lon="15.1058549"><ele>221.00000000000003</ele><time>2026-04-11T09:21:14.31Z</time></trkpt><trkpt lat="40.2449701" lon="15.1057491"><ele>221.0</ele><time>2026-04-11T09:21:15.317Z</time></trkpt><trkpt lat="40.2449737" lon="15.1056245"><ele>221.0</ele><time>2026-04-11T09:21:16.302Z</time></trkpt><trkpt lat="40.2449858" lon="15.105469"><ele>222.8</ele><time>2026-04-11T09:21:17.319Z</time></trkpt><trkpt lat="40.2449845" lon="15.1053007"><ele>224.60000000000002</ele><time>2026-04-11T09:21:18.311Z</time></trkpt><trkpt lat="40.2449772" lon="15.1051427"><ele>226.4</ele><time>2026-04-11T09:21:19.31Z</time></trkpt><trkpt lat="40.2449734" lon="15.1050222"><ele>228.2</ele><time>2026-04-11T09:21:20.306Z</time></trkpt><trkpt lat="40.2449918" lon="15.1049145"><ele>230.0</ele><time>2026-04-11T09:21:21.32Z</time></trkpt><trkpt lat="40.2450216" lon="15.1048027"><ele>231.2</ele><time>2026-04-11T09:21:22.306Z</time></trkpt><trkpt lat="40.2450574" lon="15.1046844"><ele>232.4</ele><time>2026-04-11T09:21:23.309Z</time></trkpt><trkpt lat="40.2450879" lon="15.1045518"><ele>233.60000000000002</ele><time>2026-04-11T09:21:24.3Z</time></trkpt><trkpt lat="40.2451114" lon="15.1044133"><ele>234.8</ele><time>2026-04-11T09:21:25.316Z</time></trkpt><trkpt lat="40.2451297" lon="15.1042699"><ele>236.0</ele><time>2026-04-11T09:21:26.304Z</time></trkpt><trkpt lat="40.245133" lon="15.1041177"><ele>238.0</ele><time>2026-04-11T09:21:27.317Z</time></trkpt><trkpt lat="40.2451306" lon="15.1039682"><ele>240.0</ele><time>2026-04-11T09:21:28.313Z</time></trkpt><trkpt lat="40.2451129" lon="15.1038147"><ele>242.0</ele><time>2026-04-11T09:21:29.326Z</time></trkpt><trkpt lat="40.2450807" lon="15.1036506"><ele>244.0</ele><time>2026-04-11T09:21:30.305Z</time></trkpt><trkpt lat="40.2450493" lon="15.1034762"><ele>244.0</ele><time>2026-04-11T09:21:31.321Z</time></trkpt><trkpt lat="40.2450332" lon="15.1032966"><ele>244.0</ele><time>2026-04-11T09:21:32.319Z</time></trkpt><trkpt lat="40.245026" lon="15.1031167"><ele>244.0</ele><time>2026-04-11T09:21:33.309Z</time></trkpt><trkpt lat="40.2450097" lon="15.1029375"><ele>244.0</ele><time>2026-04-11T09:21:34.317Z</time></trkpt><trkpt lat="40.244975" lon="15.1027557"><ele>245.25</ele><time>2026-04-11T09:21:35.307Z</time></trkpt><trkpt lat="40.2449328" lon="15.1025754"><ele>246.5</ele><time>2026-04-11T09:21:36.304Z</time></trkpt><trkpt lat="40.2449038" lon="15.1024225"><ele>247.75</ele><time>2026-04-11T09:21:37.307Z</time></trkpt><trkpt lat="40.2448861" lon="15.1022728"><ele>249.0</ele><time>2026-04-11T09:21:38.305Z</time></trkpt><trkpt lat="40.2448841" lon="15.1021036"><ele>251.5</ele><time>2026-04-11T09:21:39.32Z</time></trkpt><trkpt lat="40.2448964" lon="15.1019147"><ele>254.0</ele><time>2026-04-11T09:21:40.31Z</time></trkpt><trkpt lat="40.2449093" lon="15.1017224"><ele>256.5</ele><time>2026-04-11T09:21:41.313Z</time></trkpt><trkpt lat="40.2449216" lon="15.1015501"><ele>259.0</ele><time>2026-04-11T09:21:42.299Z</time></trkpt><trkpt lat="40.2449323" lon="15.1013781"><ele>259.75</ele><time>2026-04-11T09:21:43.317Z</time></trkpt><trkpt lat="40.2449314" lon="15.1012003"><ele>260.5</ele><time>2026-04-11T09:21:44.321Z</time></trkpt><trkpt lat="40.2449269" lon="15.1010248"><ele>261.25</ele><time>2026-04-11T09:21:45.298Z</time></trkpt><trkpt lat="40.2449155" lon="15.1008549"><ele>262.0</ele><time>2026-04-11T09:21:46.316Z</time></trkpt><trkpt lat="40.2448965" lon="15.100685"><ele>262.0</ele><time>2026-04-11T09:21:47.31Z</time></trkpt><trkpt lat="40.2448749" lon="15.100546"><ele>262.0</ele><time>2026-04-11T09:21:48.304Z</time></trkpt><trkpt lat="40.2448582" lon="15.1004297"><ele>262.0</ele><time>2026-04-11T09:21:49.311Z</time></trkpt><trkpt lat="40.2448342" lon="15.1003298"><ele>262.0</ele><time>2026-04-11T09:21:50.309Z</time></trkpt><trkpt lat="40.2447925" lon="15.1002374"><ele>262.0</ele><time>2026-04-11T09:21:51.319Z</time></trkpt><trkpt lat="40.2447391" lon="15.1001532"><ele>262.0</ele><time>2026-04-11T09:21:52.299Z</time></trkpt><trkpt lat="40.2446679" lon="15.1000665"><ele>266.5</ele><time>2026-04-11T09:21:53.318Z</time></trkpt><trkpt lat="40.2445924" lon="15.0999602"><ele>271.0</ele><time>2026-04-11T09:21:54.314Z</time></trkpt><trkpt lat="40.2445338" lon="15.0998412"><ele>275.5</ele><time>2026-04-11T09:21:55.309Z</time></trkpt><trkpt lat="40.2444804" lon="15.0997034"><ele>280.0</ele><time>2026-04-11T09:21:56.296Z</time></trkpt><trkpt lat="40.2444451" lon="15.0995506"><ele>280.0</ele><time>2026-04-11T09:21:57.322Z</time></trkpt><trkpt lat="40.2444047" lon="15.0994105"><ele>280.0</ele><time>2026-04-11T09:21:58.315Z</time></trkpt><trkpt lat="40.2443619" lon="15.0992666"><ele>280.0</ele><time>2026-04-11T09:21:59.313Z</time></trkpt><trkpt lat="40.2443308" lon="15.0991013"><ele>280.0</ele><time>2026-04-11T09:22:00.302Z</time></trkpt><trkpt lat="40.2442893" lon="15.0989163"><ele>280.25</ele><time>2026-04-11T09:22:01.307Z</time></trkpt><trkpt lat="40.2442509" lon="15.0987319"><ele>280.5</ele><time>2026-04-11T09:22:02.32Z</time></trkpt><trkpt lat="40.2442176" lon="15.0985519"><ele>280.75</ele><time>2026-04-11T09:22:03.323Z</time></trkpt><trkpt lat="40.2441827" lon="15.0983696"><ele>281.0</ele><time>2026-04-11T09:22:04.325Z</time></trkpt><trkpt lat="40.2441457" lon="15.0981991"><ele>281.0</ele><time>2026-04-11T09:22:05.308Z</time></trkpt><trkpt lat="40.2441146" lon="15.0980373"><ele>281.0</ele><time>2026-04-11T09:22:06.312Z</time></trkpt><trkpt lat="40.2440747" lon="15.0978766"><ele>281.0</ele><time>2026-04-11T09:22:07.307Z</time></trkpt><trkpt lat="40.2440117" lon="15.0977171"><ele>281.0</ele><time>2026-04-11T09:22:08.297Z</time></trkpt><trkpt lat="40.2439328" lon="15.0975545"><ele>283.2</ele><time>2026-04-11T09:22:09.314Z</time></trkpt><trkpt lat="40.2438519" lon="15.0974087"><ele>285.40000000000003</ele><time>2026-04-11T09:22:10.315Z</time></trkpt><trkpt lat="40.2437899" lon="15.0972827"><ele>287.6</ele><time>2026-04-11T09:22:11.322Z</time></trkpt><trkpt lat="40.2437365" lon="15.0971685"><ele>289.8</ele><time>2026-04-11T09:22:12.315Z</time></trkpt><trkpt lat="40.2436901" lon="15.0970795"><ele>292.0</ele><time>2026-04-11T09:22:13.323Z</time></trkpt><trkpt lat="40.2436414" lon="15.096997"><ele>292.0</ele><time>2026-04-11T09:22:14.305Z</time></trkpt><trkpt lat="40.2435964" lon="15.0969055"><ele>292.0</ele><time>2026-04-11T09:22:15.311Z</time></trkpt><trkpt lat="40.2435557" lon="15.0968091"><ele>292.0</ele><time>2026-04-11T09:22:16.306Z</time></trkpt><trkpt lat="40.2435258" lon="15.0966968"><ele>292.0</ele><time>2026-04-11T09:22:17.314Z</time></trkpt><trkpt lat="40.2435051" lon="15.0965622"><ele>292.0</ele><time>2026-04-11T09:22:18.316Z</time></trkpt><trkpt lat="40.2434899" lon="15.0964187"><ele>295.0</ele><time>2026-04-11T09:22:19.316Z</time></trkpt><trkpt lat="40.2434677" lon="15.0962563"><ele>298.0</ele><time>2026-04-11T09:22:20.303Z</time></trkpt><trkpt lat="40.2434391" lon="15.0960917"><ele>301.0</ele><time>2026-04-11T09:22:21.315Z</time></trkpt><trkpt lat="40.2434032" lon="15.0959237"><ele>304.0</ele><time>2026-04-11T09:22:22.313Z</time></trkpt><trkpt lat="40.2433632" lon="15.0957639"><ele>303.59999999999997</ele><time>2026-04-11T09:22:23.326Z</time></trkpt><trkpt lat="40.2433031" lon="15.0956243"><ele>303.2</ele><time>2026-04-11T09:22:24.319Z</time></trkpt><trkpt lat="40.2432262" lon="15.0954916"><ele>302.79999999999995</ele><time>2026-04-11T09:22:25.324Z</time></trkpt><trkpt lat="40.2431531" lon="15.0953863"><ele>302.4</ele><time>2026-04-11T09:22:26.302Z</time></trkpt><trkpt lat="40.2430936" lon="15.0952992"><ele>302.0</ele><time>2026-04-11T09:22:27.289Z</time></trkpt><trkpt lat="40.243063" lon="15.0952"><ele>302.0</ele><time>2026-04-11T09:22:28.305Z</time></trkpt><trkpt lat="40.243049" lon="15.0950778"><ele>302.0</ele><time>2026-04-11T09:22:29.315Z</time></trkpt><trkpt lat="40.2430403" lon="15.0949209"><ele>302.0</ele><time>2026-04-11T09:22:30.316Z</time></trkpt><trkpt lat="40.24302" lon="15.0947601"><ele>302.0</ele><time>2026-04-11T09:22:31.317Z</time></trkpt><trkpt lat="40.2429879" lon="15.0946001"><ele>305.0</ele><time>2026-04-11T09:22:32.335Z</time></trkpt><trkpt lat="40.2429643" lon="15.0944482"><ele>308.0</ele><time>2026-04-11T09:22:33.324Z</time></trkpt><trkpt lat="40.242961" lon="15.0943202"><ele>311.0</ele><time>2026-04-11T09:22:34.312Z</time></trkpt><trkpt lat="40.2429774" lon="15.0941928"><ele>314.0</ele><time>2026-04-11T09:22:35.314Z</time></trkpt><trkpt lat="40.2429977" lon="15.0940507"><ele>317.0</ele><time>2026-04-11T09:22:36.301Z</time></trkpt><trkpt lat="40.2430017" lon="15.0939067"><ele>320.6</ele><time>2026-04-11T09:22:37.315Z</time></trkpt><trkpt lat="40.2429828" lon="15.0937913"><ele>324.2</ele><time>2026-04-11T09:22:38.312Z</time></trkpt><trkpt lat="40.2429427" lon="15.0936842"><ele>327.8</ele><time>2026-04-11T09:22:39.324Z</time></trkpt><trkpt lat="40.2428849" lon="15.0935819"><ele>331.4</ele><time>2026-04-11T09:22:40.317Z</time></trkpt><trkpt lat="40.2428082" lon="15.0934686"><ele>335.0</ele><time>2026-04-11T09:22:41.319Z</time></trkpt><trkpt lat="40.2427311" lon="15.0933805"><ele>335.0</ele><time>2026-04-11T09:22:42.305Z</time></trkpt><trkpt lat="40.2426603" lon="15.0933293"><ele>335.0</ele><time>2026-04-11T09:22:43.309Z</time></trkpt><trkpt lat="40.2426031" lon="15.0932617"><ele>335.0</ele><time>2026-04-11T09:22:45.315Z</time></trkpt><trkpt lat="40.2426611" lon="15.0931633"><ele>335.0</ele><time>2026-04-11T09:22:48.308Z</time></trkpt><trkpt lat="40.242755" lon="15.0932139"><ele>335.0</ele><time>2026-04-11T09:22:50.315Z</time></trkpt><trkpt lat="40.2428143" lon="15.0932713"><ele>335.0</ele><time>2026-04-11T09:22:51.302Z</time></trkpt><trkpt lat="40.2428863" lon="15.0933393"><ele>335.0</ele><time>2026-04-11T09:22:52.314Z</time></trkpt><trkpt lat="40.2429704" lon="15.0934106"><ele>335.0</ele><time>2026-04-11T09:22:53.314Z</time></trkpt><trkpt lat="40.2430366" lon="15.0934695"><ele>335.0</ele><time>2026-04-11T09:22:54.303Z</time></trkpt><trkpt lat="40.2431131" lon="15.0935113"><ele>335.0</ele><time>2026-04-11T09:22:56.317Z</time></trkpt><trkpt lat="40.2431544" lon="15.093437"><ele>335.0</ele><time>2026-04-11T09:22:58.306Z</time></trkpt><trkpt lat="40.2430865" lon="15.0933468"><ele>335.0</ele><time>2026-04-11T09:23:00.303Z</time></trkpt><trkpt lat="40.2429588" lon="15.0932742"><ele>338.33333333333337</ele><time>2026-04-11T09:23:02.305Z</time></trkpt><trkpt lat="40.2428908" lon="15.0931931"><ele>341.6666666666667</ele><time>2026-04-11T09:23:03.304Z</time></trkpt><trkpt lat="40.2428472" lon="15.0931294"><ele>345.0</ele><time>2026-04-11T09:23:04.306Z</time></trkpt><trkpt lat="40.2428503" lon="15.0930329"><ele>348.3333333333333</ele><time>2026-04-11T09:23:06.298Z</time></trkpt><trkpt lat="40.2429187" lon="15.0930045"><ele>351.66666666666663</ele><time>2026-04-11T09:23:08.279Z</time></trkpt><trkpt lat="40.2430082" lon="15.0930973"><ele>355.0</ele><time>2026-04-11T09:23:10.289Z</time></trkpt><trkpt lat="40.2430676" lon="15.0931423"><ele>357.66666666666663</ele><time>2026-04-11T09:23:11.306Z</time></trkpt><trkpt lat="40.2431651" lon="15.0931044"><ele>360.3333333333333</ele><time>2026-04-11T09:23:13.302Z</time></trkpt><trkpt lat="40.2431949" lon="15.0930298"><ele>363.0</ele><time>2026-04-11T09:23:14.318Z</time></trkpt><trkpt lat="40.2432274" lon="15.0929366"><ele>365.6666666666667</ele><time>2026-04-11T09:23:15.324Z</time></trkpt><trkpt lat="40.2432688" lon="15.0928221"><ele>368.33333333333337</ele><time>2026-04-11T09:23:16.308Z</time></trkpt><trkpt lat="40.2433173" lon="15.0927102"><ele>371.0</ele><time>2026-04-11T09:23:17.308Z</time></trkpt><trkpt lat="40.2433809" lon="15.0926011"><ele>371.0</ele><time>2026-04-11T09:23:18.316Z</time></trkpt><trkpt lat="40.2434569" lon="15.0924983"><ele>371.0</ele><time>2026-04-11T09:23:19.308Z</time></trkpt><trkpt lat="40.2435377" lon="15.0924117"><ele>371.0</ele><time>2026-04-11T09:23:20.289Z</time></trkpt><trkpt lat="40.2436061" lon="15.0923276"><ele>371.0</ele><time>2026-04-11T09:23:21.311Z</time></trkpt><trkpt lat="40.2436739" lon="15.0922758"><ele>371.0</ele><time>2026-04-11T09:23:22.31Z</time></trkpt><trkpt lat="40.2437593" lon="15.0922524"><ele>374.83333333333337</ele><time>2026-04-11T09:23:23.306Z</time></trkpt><trkpt lat="40.2438452" lon="15.09224"><ele>378.6666666666667</ele><time>2026-04-11T09:23:24.311Z</time></trkpt><trkpt lat="40.2439146" lon="15.0922031"><ele>382.5</ele><time>2026-04-11T09:23:25.317Z</time></trkpt><trkpt lat="40.2439758" lon="15.0921311"><ele>386.33333333333337</ele><time>2026-04-11T09:23:26.315Z</time></trkpt><trkpt lat="40.2440269" lon="15.0920358"><ele>390.1666666666667</ele><time>2026-04-11T09:23:27.304Z</time></trkpt><trkpt lat="40.2440628" lon="15.0919432"><ele>394.0</ele><time>2026-04-11T09:23:28.306Z</time></trkpt><trkpt lat="40.244105" lon="15.0918737"><ele>394.2</ele><time>2026-04-11T09:23:29.306Z</time></trkpt><trkpt lat="40.2441669" lon="15.0918299"><ele>394.4</ele><time>2026-04-11T09:23:30.3Z</time></trkpt><trkpt lat="40.2442476" lon="15.091813"><ele>394.6</ele><time>2026-04-11T09:23:31.311Z</time></trkpt><trkpt lat="40.244348" lon="15.0918255"><ele>394.8</ele><time>2026-04-11T09:23:32.303Z</time></trkpt><trkpt lat="40.2444669" lon="15.0918416"><ele>395.0</ele><time>2026-04-11T09:23:33.326Z</time></trkpt><trkpt lat="40.2446002" lon="15.0918407"><ele>395.0</ele><time>2026-04-11T09:23:34.32Z</time></trkpt><trkpt lat="40.2447396" lon="15.0918349"><ele>395.0</ele><time>2026-04-11T09:23:35.324Z</time></trkpt><trkpt lat="40.244879" lon="15.0918312"><ele>395.0</ele><time>2026-04-11T09:23:36.309Z</time></trkpt><trkpt lat="40.244992" lon="15.0918384"><ele>395.0</ele><time>2026-04-11T09:23:37.307Z</time></trkpt><trkpt lat="40.2450833" lon="15.0918316"><ele>393.5</ele><time>2026-04-11T09:23:38.305Z</time></trkpt><trkpt lat="40.2451753" lon="15.0917917"><ele>392.0</ele><time>2026-04-11T09:23:39.314Z</time></trkpt><trkpt lat="40.2452853" lon="15.0917305"><ele>390.5</ele><time>2026-04-11T09:23:40.305Z</time></trkpt><trkpt lat="40.2454" lon="15.0916503"><ele>389.0</ele><time>2026-04-11T09:23:41.309Z</time></trkpt><trkpt lat="40.2455135" lon="15.0915713"><ele>391.2</ele><time>2026-04-11T09:23:42.318Z</time></trkpt><trkpt lat="40.245603" lon="15.0915283"><ele>393.4</ele><time>2026-04-11T09:23:43.316Z</time></trkpt><trkpt lat="40.2456796" lon="15.0914674"><ele>395.6</ele><time>2026-04-11T09:23:45.312Z</time></trkpt><trkpt lat="40.2456887" lon="15.0913851"><ele>397.8</ele><time>2026-04-11T09:23:47.316Z</time></trkpt><trkpt lat="40.245629" lon="15.0913511"><ele>400.0</ele><time>2026-04-11T09:23:49.32Z</time></trkpt><trkpt lat="40.2454926" lon="15.0913885"><ele>402.6</ele><time>2026-04-11T09:23:51.311Z</time></trkpt><trkpt lat="40.2454027" lon="15.0914067"><ele>405.2</ele><time>2026-04-11T09:23:52.307Z</time></trkpt><trkpt lat="40.2452989" lon="15.0914313"><ele>407.79999999999995</ele><time>2026-04-11T09:23:53.324Z</time></trkpt><trkpt lat="40.2451846" lon="15.0914487"><ele>410.4</ele><time>2026-04-11T09:23:54.31Z</time></trkpt><trkpt lat="40.2450703" lon="15.0914603"><ele>413.0</ele><time>2026-04-11T09:23:55.311Z</time></trkpt><trkpt lat="40.2449543" lon="15.0914584"><ele>413.0</ele><time>2026-04-11T09:23:56.318Z</time></trkpt><trkpt lat="40.2448253" lon="15.0914531"><ele>413.0</ele><time>2026-04-11T09:23:57.314Z</time></trkpt><trkpt lat="40.2446844" lon="15.0914336"><ele>413.0</ele><time>2026-04-11T09:23:58.308Z</time></trkpt><trkpt lat="40.2445308" lon="15.091409"><ele>413.0</ele><time>2026-04-11T09:23:59.296Z</time></trkpt><trkpt lat="40.2443881" lon="15.0913699"><ele>413.0</ele><time>2026-04-11T09:24:00.299Z</time></trkpt><trkpt lat="40.2442648" lon="15.0913356"><ele>413.0</ele><time>2026-04-11T09:24:01.31Z</time></trkpt><trkpt lat="40.2441464" lon="15.0913281"><ele>413.0</ele><time>2026-04-11T09:24:02.294Z</time></trkpt><trkpt lat="40.2440155" lon="15.0913452"><ele>413.0</ele><time>2026-04-11T09:24:03.311Z</time></trkpt><trkpt lat="40.2438846" lon="15.091382"><ele>413.0</ele><time>2026-04-11T09:24:04.309Z</time></trkpt><trkpt lat="40.2437756" lon="15.0914093"><ele>413.0</ele><time>2026-04-11T09:24:05.318Z</time></trkpt><trkpt lat="40.2436748" lon="15.0914028"><ele>413.0</ele><time>2026-04-11T09:24:06.312Z</time></trkpt><trkpt lat="40.2435733" lon="15.0913681"><ele>413.0</ele><time>2026-04-11T09:24:07.313Z</time></trkpt><trkpt lat="40.2434638" lon="15.0913066"><ele>413.0</ele><time>2026-04-11T09:24:08.291Z</time></trkpt><trkpt lat="40.2433607" lon="15.0912202"><ele>413.0</ele><time>2026-04-11T09:24:09.314Z</time></trkpt><trkpt lat="40.2432711" lon="15.0911478"><ele>413.0</ele><time>2026-04-11T09:24:10.323Z</time></trkpt><trkpt lat="40.2431995" lon="15.0910718"><ele>413.0</ele><time>2026-04-11T09:24:11.309Z</time></trkpt><trkpt lat="40.2431446" lon="15.0909699"><ele>413.0</ele><time>2026-04-11T09:24:12.299Z</time></trkpt><trkpt lat="40.2431167" lon="15.0908453"><ele>413.0</ele><time>2026-04-11T09:24:13.306Z</time></trkpt><trkpt lat="40.2431" lon="15.0907099"><ele>414.75</ele><time>2026-04-11T09:24:14.314Z</time></trkpt><trkpt lat="40.2431035" lon="15.090564"><ele>416.5</ele><time>2026-04-11T09:24:15.314Z</time></trkpt><trkpt lat="40.2431384" lon="15.0904103"><ele>418.25</ele><time>2026-04-11T09:24:16.306Z</time></trkpt><trkpt lat="40.2431905" lon="15.0902435"><ele>420.0</ele><time>2026-04-11T09:24:17.308Z</time></trkpt><trkpt lat="40.2432409" lon="15.0900736"><ele>421.5</ele><time>2026-04-11T09:24:18.305Z</time></trkpt><trkpt lat="40.2432927" lon="15.0899011"><ele>423.0</ele><time>2026-04-11T09:24:19.307Z</time></trkpt><trkpt lat="40.2433538" lon="15.0897236"><ele>424.5</ele><time>2026-04-11T09:24:20.306Z</time></trkpt><trkpt lat="40.2434128" lon="15.0895553"><ele>426.0</ele><time>2026-04-11T09:24:21.322Z</time></trkpt><trkpt lat="40.2434607" lon="15.0894082"><ele>426.0</ele><time>2026-04-11T09:24:22.309Z</time></trkpt><trkpt lat="40.2434777" lon="15.0892713"><ele>426.0</ele><time>2026-04-11T09:24:23.305Z</time></trkpt><trkpt lat="40.2434805" lon="15.0891463"><ele>426.0</ele><time>2026-04-11T09:24:24.314Z</time></trkpt><trkpt lat="40.2434469" lon="15.0890144"><ele>426.0</ele><time>2026-04-11T09:24:25.301Z</time></trkpt><trkpt lat="40.2434" lon="15.088897"><ele>426.0</ele><time>2026-04-11T09:24:26.326Z</time></trkpt><trkpt lat="40.2433505" lon="15.0888094"><ele>428.4</ele><time>2026-04-11T09:24:27.316Z</time></trkpt><trkpt lat="40.2433035" lon="15.0887047"><ele>430.8</ele><time>2026-04-11T09:24:29.306Z</time></trkpt><trkpt lat="40.2433451" lon="15.0885926"><ele>433.19999999999993</ele><time>2026-04-11T09:24:31.304Z</time></trkpt><trkpt lat="40.2434696" lon="15.0885662"><ele>435.59999999999997</ele><time>2026-04-11T09:24:33.304Z</time></trkpt><trkpt lat="40.2435543" lon="15.0886105"><ele>438.0</ele><time>2026-04-11T09:24:34.308Z</time></trkpt><trkpt lat="40.2436445" lon="15.088691"><ele>438.0</ele><time>2026-04-11T09:24:35.306Z</time></trkpt><trkpt lat="40.2437247" lon="15.0887812"><ele>437.99999999999994</ele><time>2026-04-11T09:24:36.309Z</time></trkpt><trkpt lat="40.2437804" lon="15.0888945"><ele>437.99999999999994</ele><time>2026-04-11T09:24:37.311Z</time></trkpt><trkpt lat="40.2438173" lon="15.0890219"><ele>438.0</ele><time>2026-04-11T09:24:38.319Z</time></trkpt><trkpt lat="40.2438535" lon="15.0891675"><ele>438.0</ele><time>2026-04-11T09:24:39.309Z</time></trkpt><trkpt lat="40.2438988" lon="15.0893185"><ele>435.59999999999997</ele><time>2026-04-11T09:24:40.297Z</time></trkpt><trkpt lat="40.2439615" lon="15.0894652"><ele>433.19999999999993</ele><time>2026-04-11T09:24:41.322Z</time></trkpt><trkpt lat="40.2440239" lon="15.0895824"><ele>430.8</ele><time>2026-04-11T09:24:42.308Z</time></trkpt><trkpt lat="40.244071" lon="15.0896726"><ele>428.4</ele><time>2026-04-11T09:24:43.312Z</time></trkpt><trkpt lat="40.2441561" lon="15.0897496"><ele>426.0</ele><time>2026-04-11T09:24:45.324Z</time></trkpt><trkpt lat="40.2442205" lon="15.0897462"><ele>431.20000000000005</ele><time>2026-04-11T09:24:46.317Z</time></trkpt><trkpt lat="40.2442888" lon="15.0897064"><ele>436.40000000000003</ele><time>2026-04-11T09:24:47.312Z</time></trkpt><trkpt lat="40.2443567" lon="15.0896446"><ele>441.6</ele><time>2026-04-11T09:24:48.314Z</time></trkpt><trkpt lat="40.2444142" lon="15.089555"><ele>446.8</ele><time>2026-04-11T09:24:49.314Z</time></trkpt><trkpt lat="40.2444772" lon="15.0894501"><ele>452.0</ele><time>2026-04-11T09:24:50.307Z</time></trkpt><trkpt lat="40.244549" lon="15.0893503"><ele>452.0</ele><time>2026-04-11T09:24:51.309Z</time></trkpt><trkpt lat="40.244637" lon="15.0892489"><ele>452.0</ele><time>2026-04-11T09:24:52.312Z</time></trkpt><trkpt lat="40.2447305" lon="15.0891484"><ele>452.0</ele><time>2026-04-11T09:24:53.323Z</time></trkpt><trkpt lat="40.2448322" lon="15.0890509"><ele>452.0</ele><time>2026-04-11T09:24:54.304Z</time></trkpt><trkpt lat="40.2449325" lon="15.0889474"><ele>457.0</ele><time>2026-04-11T09:24:55.32Z</time></trkpt><trkpt lat="40.2450312" lon="15.0888539"><ele>462.0</ele><time>2026-04-11T09:24:56.3Z</time></trkpt><trkpt lat="40.2451282" lon="15.0887625"><ele>467.0</ele><time>2026-04-11T09:24:57.319Z</time></trkpt><trkpt lat="40.2452314" lon="15.088667"><ele>472.0</ele><time>2026-04-11T09:24:58.306Z</time></trkpt><trkpt lat="40.2453266" lon="15.0885658"><ele>472.0</ele><time>2026-04-11T09:24:59.314Z</time></trkpt><trkpt lat="40.2454231" lon="15.0884551"><ele>472.0</ele><time>2026-04-11T09:25:00.306Z</time></trkpt><trkpt lat="40.245513" lon="15.0883433"><ele>472.0</ele><time>2026-04-11T09:25:01.312Z</time></trkpt><trkpt lat="40.2455931" lon="15.0882571"><ele>472.0</ele><time>2026-04-11T09:25:02.326Z</time></trkpt><trkpt lat="40.2456678" lon="15.0881807"><ele>474.40000000000003</ele><time>2026-04-11T09:25:03.313Z</time></trkpt><trkpt lat="40.2457608" lon="15.0881072"><ele>476.80000000000007</ele><time>2026-04-11T09:25:04.309Z</time></trkpt><trkpt lat="40.2458602" lon="15.0880371"><ele>479.2</ele><time>2026-04-11T09:25:05.31Z</time></trkpt><trkpt lat="40.2459523" lon="15.0879684"><ele>481.6</ele><time>2026-04-11T09:25:06.308Z</time></trkpt><trkpt lat="40.2460436" lon="15.0879053"><ele>484.0</ele><time>2026-04-11T09:25:07.313Z</time></trkpt><trkpt lat="40.2461127" lon="15.087856"><ele>484.00000000000006</ele><time>2026-04-11T09:25:08.302Z</time></trkpt><trkpt lat="40.2461853" lon="15.0877709"><ele>484.0</ele><time>2026-04-11T09:25:10.298Z</time></trkpt><trkpt lat="40.2462456" lon="15.087685"><ele>484.0</ele><time>2026-04-11T09:25:12.309Z</time></trkpt><trkpt lat="40.2462953" lon="15.0876203"><ele>484.0</ele><time>2026-04-11T09:25:13.32Z</time></trkpt><trkpt lat="40.246361" lon="15.0875445"><ele>484.00000000000006</ele><time>2026-04-11T09:25:14.312Z</time></trkpt><trkpt lat="40.2464347" lon="15.0874748"><ele>484.0</ele><time>2026-04-11T09:25:15.314Z</time></trkpt><trkpt lat="40.2465191" lon="15.0874087"><ele>488.75</ele><time>2026-04-11T09:25:16.308Z</time></trkpt><trkpt lat="40.2466208" lon="15.0873468"><ele>493.5</ele><time>2026-04-11T09:25:17.297Z</time></trkpt><trkpt lat="40.2467274" lon="15.0872799"><ele>498.25</ele><time>2026-04-11T09:25:18.317Z</time></trkpt><trkpt lat="40.2468342" lon="15.087211"><ele>503.0</ele><time>2026-04-11T09:25:19.306Z</time></trkpt><trkpt lat="40.2469271" lon="15.0871547"><ele>503.0</ele><time>2026-04-11T09:25:20.32Z</time></trkpt><trkpt lat="40.2470043" lon="15.0871097"><ele>502.99999999999994</ele><time>2026-04-11T09:25:21.324Z</time></trkpt><trkpt lat="40.2470702" lon="15.0870857"><ele>502.99999999999994</ele><time>2026-04-11T09:25:22.319Z</time></trkpt><trkpt lat="40.2471694" lon="15.0870879"><ele>503.0</ele><time>2026-04-11T09:25:24.282Z</time></trkpt><trkpt lat="40.2472374" lon="15.0869516"><ele>503.0</ele><time>2026-04-11T09:25:26.331Z</time></trkpt><trkpt lat="40.2472382" lon="15.0868496"><ele>503.0</ele><time>2026-04-11T09:25:27.299Z</time></trkpt><trkpt lat="40.2472254" lon="15.086735"><ele>502.99999999999994</ele><time>2026-04-11T09:25:28.311Z</time></trkpt><trkpt lat="40.247209" lon="15.0866075"><ele>502.99999999999994</ele><time>2026-04-11T09:25:29.307Z</time></trkpt><trkpt lat="40.2471952" lon="15.0864776"><ele>503.0</ele><time>2026-04-11T09:25:30.302Z</time></trkpt><trkpt lat="40.2471863" lon="15.0863532"><ele>503.0</ele><time>2026-04-11T09:25:31.293Z</time></trkpt><trkpt lat="40.2471781" lon="15.0862175"><ele>505.4</ele><time>2026-04-11T09:25:32.296Z</time></trkpt><trkpt lat="40.2471704" lon="15.0861146"><ele>507.79999999999995</ele><time>2026-04-11T09:25:33.314Z</time></trkpt><trkpt lat="40.2472099" lon="15.0859977"><ele>510.2</ele><time>2026-04-11T09:25:35.308Z</time></trkpt><trkpt lat="40.2472615" lon="15.08594"><ele>512.6</ele><time>2026-04-11T09:25:36.313Z</time></trkpt><trkpt lat="40.2473351" lon="15.0858688"><ele>515.0</ele><time>2026-04-11T09:25:37.31Z</time></trkpt><trkpt lat="40.2474335" lon="15.0857912"><ele>519.6</ele><time>2026-04-11T09:25:38.309Z</time></trkpt><trkpt lat="40.2475279" lon="15.0857181"><ele>524.2</ele><time>2026-04-11T09:25:39.307Z</time></trkpt><trkpt lat="40.2476144" lon="15.0856543"><ele>528.8</ele><time>2026-04-11T09:25:40.307Z</time></trkpt><trkpt lat="40.2477" lon="15.0856039"><ele>533.4</ele><time>2026-04-11T09:25:41.31Z</time></trkpt><trkpt lat="40.2477871" lon="15.0855885"><ele>538.0</ele><time>2026-04-11T09:25:42.304Z</time></trkpt><trkpt lat="40.2478744" lon="15.0855983"><ele>538.0</ele><time>2026-04-11T09:25:43.315Z</time></trkpt><trkpt lat="40.2479724" lon="15.0856166"><ele>538.0</ele><time>2026-04-11T09:25:44.308Z</time></trkpt><trkpt lat="40.2480641" lon="15.0856295"><ele>538.0</ele><time>2026-04-11T09:25:45.304Z</time></trkpt><trkpt lat="40.248157" lon="15.0856339"><ele>538.0</ele><time>2026-04-11T09:25:46.313Z</time></trkpt><trkpt lat="40.2482469" lon="15.0856375"><ele>538.0</ele><time>2026-04-11T09:25:47.317Z</time></trkpt><trkpt lat="40.2483257" lon="15.0856348"><ele>539.3333333333334</ele><time>2026-04-11T09:25:48.318Z</time></trkpt><trkpt lat="40.2484293" lon="15.085612"><ele>540.6666666666667</ele><time>2026-04-11T09:25:50.304Z</time></trkpt><trkpt lat="40.2485288" lon="15.0855874"><ele>542.0</ele><time>2026-04-11T09:25:52.3Z</time></trkpt><trkpt lat="40.2486155" lon="15.0855392"><ele>543.3333333333334</ele><time>2026-04-11T09:25:54.302Z</time></trkpt><trkpt lat="40.248662" lon="15.0854831"><ele>544.6666666666666</ele><time>2026-04-11T09:25:55.318Z</time></trkpt><trkpt lat="40.2486887" lon="15.0853906"><ele>546.0</ele><time>2026-04-11T09:25:56.298Z</time></trkpt><trkpt lat="40.2487142" lon="15.0853024"><ele>546.0</ele><time>2026-04-11T09:25:57.318Z</time></trkpt><trkpt lat="40.2487647" lon="15.0851723"><ele>546.0</ele><time>2026-04-11T09:25:59.326Z</time></trkpt><trkpt lat="40.2487824" lon="15.0850903"><ele>546.0</ele><time>2026-04-11T09:26:08.305Z</time></trkpt><trkpt lat="40.2488116" lon="15.0849997"><ele>546.0</ele><time>2026-04-11T09:26:10.298Z</time></trkpt><trkpt lat="40.2488407" lon="15.0848684"><ele>546.0</ele><time>2026-04-11T09:26:12.297Z</time></trkpt><trkpt lat="40.2488672" lon="15.0847733"><ele>546.0</ele><time>2026-04-11T09:26:13.312Z</time></trkpt><trkpt lat="40.2488903" lon="15.0846796"><ele>545.5</ele><time>2026-04-11T09:26:14.302Z</time></trkpt><trkpt lat="40.2489297" lon="15.0845802"><ele>545.0</ele><time>2026-04-11T09:26:15.307Z</time></trkpt><trkpt lat="40.2489657" lon="15.0844877"><ele>544.5</ele><time>2026-04-11T09:26:16.286Z</time></trkpt><trkpt lat="40.2489883" lon="15.0844012"><ele>544.0</ele><time>2026-04-11T09:26:17.292Z</time></trkpt><trkpt lat="40.2489486" lon="15.0843044"><ele>543.5</ele><time>2026-04-11T09:26:19.313Z</time></trkpt><trkpt lat="40.2488596" lon="15.0843118"><ele>543.0</ele><time>2026-04-11T09:26:21.306Z</time></trkpt><trkpt lat="40.2487844" lon="15.0844299"><ele>546.8</ele><time>2026-04-11T09:26:23.31Z</time></trkpt><trkpt lat="40.2487495" lon="15.0845013"><ele>550.5999999999999</ele><time>2026-04-11T09:26:24.3Z</time></trkpt><trkpt lat="40.248706" lon="15.084569"><ele>554.4000000000001</ele><time>2026-04-11T09:26:25.311Z</time></trkpt><trkpt lat="40.2486087" lon="15.0846004"><ele>558.2</ele><time>2026-04-11T09:26:27.303Z</time></trkpt><trkpt lat="40.2485651" lon="15.0845005"><ele>562.0</ele><time>2026-04-11T09:26:29.327Z</time></trkpt><trkpt lat="40.2486084" lon="15.0843248"><ele>562.0</ele><time>2026-04-11T09:26:31.311Z</time></trkpt><trkpt lat="40.2486392" lon="15.0842169"><ele>562.0</ele><time>2026-04-11T09:26:32.304Z</time></trkpt><trkpt lat="40.2486699" lon="15.084087"><ele>562.0</ele><time>2026-04-11T09:26:33.303Z</time></trkpt><trkpt lat="40.2487135" lon="15.0839655"><ele>562.0</ele><time>2026-04-11T09:26:34.31Z</time></trkpt><trkpt lat="40.24876" lon="15.083855"><ele>562.0</ele><time>2026-04-11T09:26:35.315Z</time></trkpt><trkpt lat="40.2488092" lon="15.0837259"><ele>565.2</ele><time>2026-04-11T09:26:36.304Z</time></trkpt><trkpt lat="40.248858" lon="15.0835917"><ele>568.4000000000001</ele><time>2026-04-11T09:26:37.314Z</time></trkpt><trkpt lat="40.2488829" lon="15.0834779"><ele>571.5999999999999</ele><time>2026-04-11T09:26:38.32Z</time></trkpt><trkpt lat="40.2489069" lon="15.0833533"><ele>574.8</ele><time>2026-04-11T09:26:40.307Z</time></trkpt><trkpt lat="40.2489149" lon="15.0832608"><ele>578.0</ele><time>2026-04-11T09:26:42.315Z</time></trkpt><trkpt lat="40.248931" lon="15.0831101"><ele>578.1666666666666</ele><time>2026-04-11T09:26:44.308Z</time></trkpt><trkpt lat="40.2489529" lon="15.0830213"><ele>578.3333333333333</ele><time>2026-04-11T09:26:45.313Z</time></trkpt><trkpt lat="40.2489946" lon="15.082934"><ele>578.5</ele><time>2026-04-11T09:26:46.313Z</time></trkpt><trkpt lat="40.2490487" lon="15.0828603"><ele>578.6666666666666</ele><time>2026-04-11T09:26:47.321Z</time></trkpt><trkpt lat="40.2491033" lon="15.0827786"><ele>578.8333333333334</ele><time>2026-04-11T09:26:48.308Z</time></trkpt><trkpt lat="40.2491513" lon="15.0826764"><ele>579.0</ele><time>2026-04-11T09:26:49.306Z</time></trkpt><trkpt lat="40.2491935" lon="15.0825621"><ele>576.6666666666666</ele><time>2026-04-11T09:26:50.304Z</time></trkpt><trkpt lat="40.2492242" lon="15.0824458"><ele>574.3333333333334</ele><time>2026-04-11T09:26:51.296Z</time></trkpt><trkpt lat="40.249247" lon="15.0823443"><ele>572.0</ele><time>2026-04-11T09:26:52.299Z</time></trkpt><trkpt lat="40.2492606" lon="15.0822366"><ele>569.6666666666667</ele><time>2026-04-11T09:26:53.303Z</time></trkpt><trkpt lat="40.2492533" lon="15.0821259"><ele>567.3333333333334</ele><time>2026-04-11T09:26:54.309Z</time></trkpt><trkpt lat="40.2492222" lon="15.0820096"><ele>565.0</ele><time>2026-04-11T09:26:55.316Z</time></trkpt><trkpt lat="40.2491852" lon="15.0819072"><ele>564.8</ele><time>2026-04-11T09:26:56.325Z</time></trkpt><trkpt lat="40.24913" lon="15.0818134"><ele>564.6</ele><time>2026-04-11T09:26:57.311Z</time></trkpt><trkpt lat="40.2490682" lon="15.081735"><ele>564.4</ele><time>2026-04-11T09:26:58.312Z</time></trkpt><trkpt lat="40.2490033" lon="15.0816506"><ele>564.2</ele><time>2026-04-11T09:26:59.307Z</time></trkpt><trkpt lat="40.2489228" lon="15.0815658"><ele>564.0</ele><time>2026-04-11T09:27:00.302Z</time></trkpt><trkpt lat="40.2488357" lon="15.0814762"><ele>566.6666666666666</ele><time>2026-04-11T09:27:01.314Z</time></trkpt><trkpt lat="40.2487647" lon="15.0814016"><ele>569.3333333333334</ele><time>2026-04-11T09:27:02.304Z</time></trkpt><trkpt lat="40.2487137" lon="15.0813292"><ele>572.0</ele><time>2026-04-11T09:27:03.302Z</time></trkpt><trkpt lat="40.2486794" lon="15.0812455"><ele>574.6666666666667</ele><time>2026-04-11T09:27:04.311Z</time></trkpt><trkpt lat="40.2486547" lon="15.0811435"><ele>577.3333333333334</ele><time>2026-04-11T09:27:05.302Z</time></trkpt><trkpt lat="40.2486435" lon="15.0810046"><ele>580.0</ele><time>2026-04-11T09:27:06.318Z</time></trkpt><trkpt lat="40.2486485" lon="15.0808633"><ele>580.2</ele><time>2026-04-11T09:27:07.31Z</time></trkpt><trkpt lat="40.2486557" lon="15.0807233"><ele>580.4</ele><time>2026-04-11T09:27:08.309Z</time></trkpt><trkpt lat="40.2486498" lon="15.0805981"><ele>580.6</ele><time>2026-04-11T09:27:09.312Z</time></trkpt><trkpt lat="40.2486024" lon="15.0804836"><ele>580.8</ele><time>2026-04-11T09:27:10.303Z</time></trkpt><trkpt lat="40.248535" lon="15.0803788"><ele>581.0</ele><time>2026-04-11T09:27:11.314Z</time></trkpt><trkpt lat="40.2484644" lon="15.0802632"><ele>581.0</ele><time>2026-04-11T09:27:12.3Z</time></trkpt><trkpt lat="40.2483897" lon="15.0801373"><ele>581.0</ele><time>2026-04-11T09:27:13.313Z</time></trkpt><trkpt lat="40.2483129" lon="15.0800056"><ele>581.0</ele><time>2026-04-11T09:27:14.306Z</time></trkpt><trkpt lat="40.2482436" lon="15.0798715"><ele>581.0</ele><time>2026-04-11T09:27:15.304Z</time></trkpt><trkpt lat="40.2481822" lon="15.079731"><ele>580.6</ele><time>2026-04-11T09:27:16.299Z</time></trkpt><trkpt lat="40.2481266" lon="15.0795942"><ele>580.2</ele><time>2026-04-11T09:27:17.303Z</time></trkpt><trkpt lat="40.2480804" lon="15.0794879"><ele>579.8</ele><time>2026-04-11T09:27:18.313Z</time></trkpt><trkpt lat="40.2480064" lon="15.0793813"><ele>579.4</ele><time>2026-04-11T09:27:20.309Z</time></trkpt><trkpt lat="40.2479285" lon="15.0793495"><ele>579.0</ele><time>2026-04-11T09:27:22.307Z</time></trkpt><trkpt lat="40.2478537" lon="15.0794668"><ele>582.8333333333334</ele><time>2026-04-11T09:27:24.304Z</time></trkpt><trkpt lat="40.247846" lon="15.079558"><ele>586.6666666666666</ele><time>2026-04-11T09:27:25.307Z</time></trkpt><trkpt lat="40.2478379" lon="15.0796526"><ele>590.5</ele><time>2026-04-11T09:27:26.311Z</time></trkpt><trkpt lat="40.2478319" lon="15.0797537"><ele>594.3333333333333</ele><time>2026-04-11T09:27:27.3Z</time></trkpt><trkpt lat="40.247824" lon="15.0798819"><ele>598.1666666666666</ele><time>2026-04-11T09:27:28.302Z</time></trkpt><trkpt lat="40.2478127" lon="15.0800378"><ele>602.0</ele><time>2026-04-11T09:27:29.319Z</time></trkpt><trkpt lat="40.2477954" lon="15.0801917"><ele>602.6</ele><time>2026-04-11T09:27:30.317Z</time></trkpt><trkpt lat="40.2477725" lon="15.0803335"><ele>603.2</ele><time>2026-04-11T09:27:31.301Z</time></trkpt><trkpt lat="40.2477441" lon="15.0804673"><ele>603.8</ele><time>2026-04-11T09:27:32.307Z</time></trkpt><trkpt lat="40.2476973" lon="15.0805815"><ele>604.4</ele><time>2026-04-11T09:27:33.298Z</time></trkpt><trkpt lat="40.247636" lon="15.0806702"><ele>605.0</ele><time>2026-04-11T09:27:34.308Z</time></trkpt><trkpt lat="40.2475569" lon="15.0807587"><ele>605.0</ele><time>2026-04-11T09:27:35.301Z</time></trkpt><trkpt lat="40.2474662" lon="15.0808359"><ele>605.0</ele><time>2026-04-11T09:27:36.308Z</time></trkpt><trkpt lat="40.2473864" lon="15.0809083"><ele>605.0</ele><time>2026-04-11T09:27:37.309Z</time></trkpt><trkpt lat="40.2473207" lon="15.0809625"><ele>605.0</ele><time>2026-04-11T09:27:38.305Z</time></trkpt><trkpt lat="40.2472289" lon="15.081012"><ele>605.0</ele><time>2026-04-11T09:27:40.302Z</time></trkpt><trkpt lat="40.2471405" lon="15.0809962"><ele>609.2</ele><time>2026-04-11T09:27:42.298Z</time></trkpt><trkpt lat="40.2470672" lon="15.0808701"><ele>613.4</ele><time>2026-04-11T09:27:44.297Z</time></trkpt><trkpt lat="40.2470396" lon="15.0807712"><ele>617.6</ele><time>2026-04-11T09:27:45.31Z</time></trkpt><trkpt lat="40.2470087" lon="15.0806701"><ele>621.8</ele><time>2026-04-11T09:27:46.3Z</time></trkpt><trkpt lat="40.2469667" lon="15.0805637"><ele>626.0</ele><time>2026-04-11T09:27:47.31Z</time></trkpt><trkpt lat="40.2469095" lon="15.0804782"><ele>626.0</ele><time>2026-04-11T09:27:48.303Z</time></trkpt><trkpt lat="40.2468385" lon="15.0803985"><ele>626.0</ele><time>2026-04-11T09:27:49.304Z</time></trkpt><trkpt lat="40.2467583" lon="15.0803194"><ele>626.0</ele><time>2026-04-11T09:27:50.329Z</time></trkpt><trkpt lat="40.2466842" lon="15.0802562"><ele>626.0</ele><time>2026-04-11T09:27:51.305Z</time></trkpt><trkpt lat="40.2466294" lon="15.0801822"><ele>626.0</ele><time>2026-04-11T09:27:52.3Z</time></trkpt><trkpt lat="40.246592" lon="15.0800904"><ele>626.0</ele><time>2026-04-11T09:27:53.313Z</time></trkpt><trkpt lat="40.2465667" lon="15.0799726"><ele>625.6</ele><time>2026-04-11T09:27:54.312Z</time></trkpt><trkpt lat="40.2465713" lon="15.079842"><ele>625.2</ele><time>2026-04-11T09:27:55.312Z</time></trkpt><trkpt lat="40.2465878" lon="15.0797102"><ele>624.8</ele><time>2026-04-11T09:27:56.292Z</time></trkpt><trkpt lat="40.2465918" lon="15.0795761"><ele>624.4</ele><time>2026-04-11T09:27:57.308Z</time></trkpt><trkpt lat="40.2465686" lon="15.0794483"><ele>624.0</ele><time>2026-04-11T09:27:58.301Z</time></trkpt><trkpt lat="40.2465344" lon="15.0793192"><ele>624.0</ele><time>2026-04-11T09:27:59.317Z</time></trkpt><trkpt lat="40.2465006" lon="15.0791717"><ele>624.0</ele><time>2026-04-11T09:28:00.304Z</time></trkpt><trkpt lat="40.2464813" lon="15.0790043"><ele>624.0</ele><time>2026-04-11T09:28:01.308Z</time></trkpt><trkpt lat="40.2464617" lon="15.0788271"><ele>624.0</ele><time>2026-04-11T09:28:02.311Z</time></trkpt><trkpt lat="40.246458" lon="15.0786492"><ele>626.75</ele><time>2026-04-11T09:28:03.304Z</time></trkpt><trkpt lat="40.2464763" lon="15.0784829"><ele>629.5</ele><time>2026-04-11T09:28:04.316Z</time></trkpt><trkpt lat="40.2465033" lon="15.0783102"><ele>632.25</ele><time>2026-04-11T09:28:05.317Z</time></trkpt><trkpt lat="40.2465274" lon="15.0781259"><ele>635.0</ele><time>2026-04-11T09:28:06.304Z</time></trkpt><trkpt lat="40.2465456" lon="15.0779455"><ele>637.5</ele><time>2026-04-11T09:28:07.327Z</time></trkpt><trkpt lat="40.2465574" lon="15.0777702"><ele>640.0</ele><time>2026-04-11T09:28:08.312Z</time></trkpt><trkpt lat="40.2465624" lon="15.0775906"><ele>642.5</ele><time>2026-04-11T09:28:09.316Z</time></trkpt><trkpt lat="40.2465752" lon="15.0774025"><ele>645.0</ele><time>2026-04-11T09:28:10.309Z</time></trkpt><trkpt lat="40.2465879" lon="15.0772277"><ele>646.0</ele><time>2026-04-11T09:28:11.319Z</time></trkpt><trkpt lat="40.2466073" lon="15.0770785"><ele>647.0</ele><time>2026-04-11T09:28:12.296Z</time></trkpt><trkpt lat="40.2466086" lon="15.0769492"><ele>648.0</ele><time>2026-04-11T09:28:13.311Z</time></trkpt><trkpt lat="40.2465956" lon="15.0768234"><ele>649.0</ele><time>2026-04-11T09:28:14.302Z</time></trkpt><trkpt lat="40.2465629" lon="15.0766949"><ele>650.0</ele><time>2026-04-11T09:28:15.325Z</time></trkpt><trkpt lat="40.2465142" lon="15.0765625"><ele>656.0</ele><time>2026-04-11T09:28:16.321Z</time></trkpt><trkpt lat="40.2464537" lon="15.0764363"><ele>662.0</ele><time>2026-04-11T09:28:17.328Z</time></trkpt><trkpt lat="40.246394" lon="15.0763379"><ele>668.0</ele><time>2026-04-11T09:28:18.292Z</time></trkpt><trkpt lat="40.2463487" lon="15.0761982"><ele>674.0</ele><time>2026-04-11T09:28:20.307Z</time></trkpt><trkpt lat="40.2463684" lon="15.0761013"><ele>680.0</ele><time>2026-04-11T09:28:21.309Z</time></trkpt><trkpt lat="40.2464083" lon="15.075991"><ele>680.0</ele><time>2026-04-11T09:28:22.298Z</time></trkpt><trkpt lat="40.2464524" lon="15.0758666"><ele>680.0</ele><time>2026-04-11T09:28:23.311Z</time></trkpt><trkpt lat="40.2465016" lon="15.0757331"><ele>680.0</ele><time>2026-04-11T09:28:24.304Z</time></trkpt><trkpt lat="40.2465431" lon="15.0756259"><ele>680.0</ele><time>2026-04-11T09:28:25.305Z</time></trkpt><trkpt lat="40.2465747" lon="15.0755514"><ele>680.0</ele><time>2026-04-11T09:28:26.316Z</time></trkpt><trkpt lat="40.2466873" lon="15.0754854"><ele>681.0</ele><time>2026-04-11T09:28:28.302Z</time></trkpt><trkpt lat="40.2467723" lon="15.0754724"><ele>682.0</ele><time>2026-04-11T09:28:29.321Z</time></trkpt><trkpt lat="40.2468614" lon="15.0754525"><ele>683.0</ele><time>2026-04-11T09:28:30.3Z</time></trkpt><trkpt lat="40.2469602" lon="15.0754254"><ele>684.0</ele><time>2026-04-11T09:28:31.304Z</time></trkpt><trkpt lat="40.2470657" lon="15.0753825"><ele>685.0</ele><time>2026-04-11T09:28:32.315Z</time></trkpt><trkpt lat="40.2471713" lon="15.0753294"><ele>685.0</ele><time>2026-04-11T09:28:33.313Z</time></trkpt><trkpt lat="40.2472732" lon="15.075267"><ele>685.0</ele><time>2026-04-11T09:28:34.308Z</time></trkpt><trkpt lat="40.2473597" lon="15.0752003"><ele>685.0</ele><time>2026-04-11T09:28:35.319Z</time></trkpt><trkpt lat="40.2474425" lon="15.0751258"><ele>685.0</ele><time>2026-04-11T09:28:36.309Z</time></trkpt><trkpt lat="40.2475184" lon="15.0750476"><ele>685.0</ele><time>2026-04-11T09:28:37.321Z</time></trkpt><trkpt lat="40.2476057" lon="15.0749275"><ele>687.0</ele><time>2026-04-11T09:28:38.309Z</time></trkpt><trkpt lat="40.2476789" lon="15.0747797"><ele>689.0</ele><time>2026-04-11T09:28:39.309Z</time></trkpt><trkpt lat="40.2477518" lon="15.0746327"><ele>691.0</ele><time>2026-04-11T09:28:40.296Z</time></trkpt><trkpt lat="40.2478239" lon="15.0744866"><ele>693.0</ele><time>2026-04-11T09:28:41.3Z</time></trkpt><trkpt lat="40.2478921" lon="15.0743495"><ele>693.0</ele><time>2026-04-11T09:28:42.31Z</time></trkpt><trkpt lat="40.2479541" lon="15.07421"><ele>693.0</ele><time>2026-04-11T09:28:43.31Z</time></trkpt><trkpt lat="40.2480159" lon="15.0740864"><ele>693.0</ele><time>2026-04-11T09:28:44.305Z</time></trkpt><trkpt lat="40.2480656" lon="15.0740007"><ele>693.0</ele><time>2026-04-11T09:28:45.302Z</time></trkpt><trkpt lat="40.2481261" lon="15.0738817"><ele>693.0</ele><time>2026-04-11T09:28:47.306Z</time></trkpt><trkpt lat="40.2480675" lon="15.0738267"><ele>693.0</ele><time>2026-04-11T09:28:50.308Z</time></trkpt><trkpt lat="40.2479691" lon="15.0738895"><ele>693.0</ele><time>2026-04-11T09:28:52.304Z</time></trkpt><trkpt lat="40.2479073" lon="15.0739476"><ele>693.0</ele><time>2026-04-11T09:28:53.312Z</time></trkpt><trkpt lat="40.2478347" lon="15.0740172"><ele>693.0</ele><time>2026-04-11T09:28:54.308Z</time></trkpt><trkpt lat="40.24774" lon="15.074074"><ele>693.0</ele><time>2026-04-11T09:28:55.311Z</time></trkpt><trkpt lat="40.2476289" lon="15.0741057"><ele>693.0</ele><time>2026-04-11T09:28:56.303Z</time></trkpt><trkpt lat="40.2474968" lon="15.0741201"><ele>693.0</ele><time>2026-04-11T09:28:57.318Z</time></trkpt><trkpt lat="40.2473582" lon="15.0741271"><ele>693.0</ele><time>2026-04-11T09:28:58.306Z</time></trkpt><trkpt lat="40.2472315" lon="15.0741405"><ele>693.0</ele><time>2026-04-11T09:28:59.313Z</time></trkpt><trkpt lat="40.2471195" lon="15.0741571"><ele>695.5</ele><time>2026-04-11T09:29:00.307Z</time></trkpt><trkpt lat="40.2470181" lon="15.074177"><ele>698.0</ele><time>2026-04-11T09:29:01.311Z</time></trkpt><trkpt lat="40.246928" lon="15.0742065"><ele>700.5</ele><time>2026-04-11T09:29:02.305Z</time></trkpt><trkpt lat="40.2468438" lon="15.0742484"><ele>703.0</ele><time>2026-04-11T09:29:03.31Z</time></trkpt><trkpt lat="40.2467637" lon="15.0742851"><ele>705.5</ele><time>2026-04-11T09:29:04.316Z</time></trkpt><trkpt lat="40.2466937" lon="15.0743258"><ele>708.0</ele><time>2026-04-11T09:29:05.304Z</time></trkpt><trkpt lat="40.2466044" lon="15.0743439"><ele>708.0</ele><time>2026-04-11T09:29:07.315Z</time></trkpt><trkpt lat="40.2465509" lon="15.0742619"><ele>708.0</ele><time>2026-04-11T09:29:09.313Z</time></trkpt><trkpt lat="40.2465975" lon="15.0741913"><ele>708.0</ele><time>2026-04-11T09:29:11.322Z</time></trkpt><trkpt lat="40.2466534" lon="15.0741454"><ele>708.0</ele><time>2026-04-11T09:29:12.313Z</time></trkpt><trkpt lat="40.246731" lon="15.0740773"><ele>708.0</ele><time>2026-04-11T09:29:13.304Z</time></trkpt><trkpt lat="40.2468098" lon="15.0740065"><ele>708.0</ele><time>2026-04-11T09:29:14.317Z</time></trkpt><trkpt lat="40.2468849" lon="15.0739262"><ele>712.0</ele><time>2026-04-11T09:29:15.314Z</time></trkpt><trkpt lat="40.2469652" lon="15.0738426"><ele>716.0</ele><time>2026-04-11T09:29:16.307Z</time></trkpt><trkpt lat="40.2470407" lon="15.0737446"><ele>720.0</ele><time>2026-04-11T09:29:17.31Z</time></trkpt><trkpt lat="40.2471051" lon="15.0736516"><ele>724.0</ele><time>2026-04-11T09:29:18.301Z</time></trkpt><trkpt lat="40.2471565" lon="15.0735604"><ele>728.0</ele><time>2026-04-11T09:29:19.32Z</time></trkpt><trkpt lat="40.2472007" lon="15.0734634"><ele>728.0</ele><time>2026-04-11T09:29:20.291Z</time></trkpt><trkpt lat="40.2472255" lon="15.0733537"><ele>728.0</ele><time>2026-04-11T09:29:21.311Z</time></trkpt><trkpt lat="40.2472216" lon="15.0732254"><ele>728.0</ele><time>2026-04-11T09:29:22.306Z</time></trkpt><trkpt lat="40.2472102" lon="15.0731041"><ele>728.0</ele><time>2026-04-11T09:29:23.308Z</time></trkpt><trkpt lat="40.2471874" lon="15.0729769"><ele>728.0</ele><time>2026-04-11T09:29:24.307Z</time></trkpt><trkpt lat="40.2471528" lon="15.0728413"><ele>729.2</ele><time>2026-04-11T09:29:25.328Z</time></trkpt><trkpt lat="40.2471198" lon="15.0727187"><ele>730.4</ele><time>2026-04-11T09:29:26.304Z</time></trkpt><trkpt lat="40.2470795" lon="15.07262"><ele>731.6</ele><time>2026-04-11T09:29:27.311Z</time></trkpt><trkpt lat="40.2470364" lon="15.0725569"><ele>732.8000000000001</ele><time>2026-04-11T09:29:28.306Z</time></trkpt><trkpt lat="40.2469412" lon="15.0725275"><ele>734.0</ele><time>2026-04-11T09:29:30.304Z</time></trkpt><trkpt lat="40.2468771" lon="15.0726614"><ele>734.0</ele><time>2026-04-11T09:29:32.304Z</time></trkpt><trkpt lat="40.2468565" lon="15.0727573"><ele>734.0</ele><time>2026-04-11T09:29:33.292Z</time></trkpt><trkpt lat="40.2468461" lon="15.0728609"><ele>734.0</ele><time>2026-04-11T09:29:34.302Z</time></trkpt><trkpt lat="40.2468359" lon="15.072982"><ele>734.0</ele><time>2026-04-11T09:29:35.299Z</time></trkpt><trkpt lat="40.246817" lon="15.0730847"><ele>734.0</ele><time>2026-04-11T09:29:36.301Z</time></trkpt><trkpt lat="40.2467862" lon="15.0731598"><ele>734.0</ele><time>2026-04-11T09:29:37.306Z</time></trkpt><trkpt lat="40.2467396" lon="15.0732268"><ele>733.0</ele><time>2026-04-11T09:29:38.298Z</time></trkpt><trkpt lat="40.2466873" lon="15.0732909"><ele>732.0</ele><time>2026-04-11T09:29:39.31Z</time></trkpt><trkpt lat="40.2466172" lon="15.0733378"><ele>731.0</ele><time>2026-04-11T09:29:40.301Z</time></trkpt><trkpt lat="40.2465192" lon="15.0733723"><ele>730.0</ele><time>2026-04-11T09:29:41.304Z</time></trkpt><trkpt lat="40.246432" lon="15.0734126"><ele>729.0</ele><time>2026-04-11T09:29:42.32Z</time></trkpt><trkpt lat="40.2463602" lon="15.0734434"><ele>728.0</ele><time>2026-04-11T09:29:43.311Z</time></trkpt><trkpt lat="40.2462777" lon="15.0734077"><ele>729.0</ele><time>2026-04-11T09:29:45.318Z</time></trkpt><trkpt lat="40.2462607" lon="15.0733133"><ele>730.0</ele><time>2026-04-11T09:29:47.321Z</time></trkpt><trkpt lat="40.2463489" lon="15.0732112"><ele>731.0</ele><time>2026-04-11T09:29:49.31Z</time></trkpt><trkpt lat="40.2464096" lon="15.0731436"><ele>732.0</ele><time>2026-04-11T09:29:50.305Z</time></trkpt><trkpt lat="40.2464534" lon="15.0730602"><ele>733.0</ele><time>2026-04-11T09:29:51.303Z</time></trkpt><trkpt lat="40.2464738" lon="15.0729559"><ele>734.0</ele><time>2026-04-11T09:29:52.321Z</time></trkpt><trkpt lat="40.246485" lon="15.0728341"><ele>734.0</ele><time>2026-04-11T09:29:53.315Z</time></trkpt><trkpt lat="40.2464853" lon="15.0727"><ele>734.0</ele><time>2026-04-11T09:29:54.321Z</time></trkpt><trkpt lat="40.2464769" lon="15.0725559"><ele>734.0</ele><time>2026-04-11T09:29:55.308Z</time></trkpt><trkpt lat="40.246464" lon="15.0724155"><ele>734.0</ele><time>2026-04-11T09:29:56.304Z</time></trkpt><trkpt lat="40.246447" lon="15.0722734"><ele>734.0</ele><time>2026-04-11T09:29:57.312Z</time></trkpt><trkpt lat="40.2464404" lon="15.0721377"><ele>737.3333333333333</ele><time>2026-04-11T09:29:58.302Z</time></trkpt><trkpt lat="40.2464441" lon="15.0720053"><ele>740.6666666666666</ele><time>2026-04-11T09:29:59.326Z</time></trkpt><trkpt lat="40.2464735" lon="15.0718912"><ele>744.0</ele><time>2026-04-11T09:30:00.307Z</time></trkpt><trkpt lat="40.2465165" lon="15.0717943"><ele>747.3333333333334</ele><time>2026-04-11T09:30:01.313Z</time></trkpt><trkpt lat="40.2465678" lon="15.071713"><ele>750.6666666666667</ele><time>2026-04-11T09:30:02.313Z</time></trkpt><trkpt lat="40.2466314" lon="15.0716485"><ele>754.0</ele><time>2026-04-11T09:30:03.322Z</time></trkpt><trkpt lat="40.2467168" lon="15.0716003"><ele>758.8000000000001</ele><time>2026-04-11T09:30:04.327Z</time></trkpt><trkpt lat="40.2468134" lon="15.0715779"><ele>763.6</ele><time>2026-04-11T09:30:05.321Z</time></trkpt><trkpt lat="40.2469275" lon="15.0715724"><ele>768.4</ele><time>2026-04-11T09:30:06.311Z</time></trkpt><trkpt lat="40.2470318" lon="15.0715552"><ele>773.2</ele><time>2026-04-11T09:30:07.309Z</time></trkpt><trkpt lat="40.2471139" lon="15.0715268"><ele>778.0</ele><time>2026-04-11T09:30:08.315Z</time></trkpt><trkpt lat="40.2471746" lon="15.0714815"><ele>778.0</ele><time>2026-04-11T09:30:09.333Z</time></trkpt><trkpt lat="40.2472329" lon="15.0714182"><ele>778.0</ele><time>2026-04-11T09:30:10.306Z</time></trkpt><trkpt lat="40.2472845" lon="15.0713232"><ele>778.0</ele><time>2026-04-11T09:30:11.308Z</time></trkpt><trkpt lat="40.2473221" lon="15.071196"><ele>778.0</ele><time>2026-04-11T09:30:12.306Z</time></trkpt><trkpt lat="40.2473503" lon="15.0710812"><ele>778.0</ele><time>2026-04-11T09:30:13.312Z</time></trkpt><trkpt lat="40.2473938" lon="15.0709747"><ele>775.5999999999999</ele><time>2026-04-11T09:30:15.305Z</time></trkpt><trkpt lat="40.2474765" lon="15.070903"><ele>773.1999999999999</ele><time>2026-04-11T09:30:17.316Z</time></trkpt><trkpt lat="40.2475502" lon="15.0708932"><ele>770.8</ele><time>2026-04-11T09:30:18.313Z</time></trkpt><trkpt lat="40.2476339" lon="15.0709024"><ele>768.4</ele><time>2026-04-11T09:30:19.312Z</time></trkpt><trkpt lat="40.2477275" lon="15.0709269"><ele>766.0</ele><time>2026-04-11T09:30:20.298Z</time></trkpt><trkpt lat="40.2478398" lon="15.0709557"><ele>766.0</ele><time>2026-04-11T09:30:21.309Z</time></trkpt><trkpt lat="40.2479633" lon="15.0709931"><ele>766.0</ele><time>2026-04-11T09:30:22.303Z</time></trkpt><trkpt lat="40.2480874" lon="15.0710092"><ele>766.0</ele><time>2026-04-11T09:30:23.303Z</time></trkpt><trkpt lat="40.2482248" lon="15.0710217"><ele>766.0</ele><time>2026-04-11T09:30:24.31Z</time></trkpt><trkpt lat="40.2483566" lon="15.0710521"><ele>768.0</ele><time>2026-04-11T09:30:25.312Z</time></trkpt><trkpt lat="40.2484758" lon="15.0711044"><ele>770.0</ele><time>2026-04-11T09:30:26.305Z</time></trkpt><trkpt lat="40.2485823" lon="15.0711674"><ele>772.0</ele><time>2026-04-11T09:30:27.318Z</time></trkpt><trkpt lat="40.24868" lon="15.0712225"><ele>774.0</ele><time>2026-04-11T09:30:28.324Z</time></trkpt><trkpt lat="40.2487801" lon="15.0712377"><ele>774.0</ele><time>2026-04-11T09:30:29.306Z</time></trkpt><trkpt lat="40.2488853" lon="15.0712186"><ele>774.0</ele><time>2026-04-11T09:30:30.31Z</time></trkpt><trkpt lat="40.249002" lon="15.0711704"><ele>774.0</ele><time>2026-04-11T09:30:31.337Z</time></trkpt><trkpt lat="40.249118" lon="15.0711123"><ele>774.0</ele><time>2026-04-11T09:30:32.302Z</time></trkpt><trkpt lat="40.2492448" lon="15.0710814"><ele>774.3333333333334</ele><time>2026-04-11T09:30:33.332Z</time></trkpt><trkpt lat="40.2493466" lon="15.0710828"><ele>774.6666666666667</ele><time>2026-04-11T09:30:34.311Z</time></trkpt><trkpt lat="40.2494192" lon="15.0710619"><ele>775.0</ele><time>2026-04-11T09:30:35.324Z</time></trkpt><trkpt lat="40.2494772" lon="15.0710276"><ele>775.3333333333334</ele><time>2026-04-11T09:30:36.305Z</time></trkpt><trkpt lat="40.2495132" lon="15.0709566"><ele>775.6666666666667</ele><time>2026-04-11T09:30:37.324Z</time></trkpt><trkpt lat="40.249531" lon="15.0708623"><ele>776.0</ele><time>2026-04-11T09:30:38.307Z</time></trkpt><trkpt lat="40.2495559" lon="15.0707429"><ele>778.25</ele><time>2026-04-11T09:30:39.31Z</time></trkpt><trkpt lat="40.249595" lon="15.0706155"><ele>780.5</ele><time>2026-04-11T09:30:40.301Z</time></trkpt><trkpt lat="40.2496504" lon="15.0704782"><ele>782.75</ele><time>2026-04-11T09:30:41.32Z</time></trkpt><trkpt lat="40.249729" lon="15.0703278"><ele>785.0</ele><time>2026-04-11T09:30:42.301Z</time></trkpt><trkpt lat="40.2498069" lon="15.070162"><ele>785.0</ele><time>2026-04-11T09:30:43.302Z</time></trkpt><trkpt lat="40.2498766" lon="15.0700132"><ele>785.0</ele><time>2026-04-11T09:30:44.31Z</time></trkpt><trkpt lat="40.2499235" lon="15.0699097"><ele>785.0</ele><time>2026-04-11T09:30:45.318Z</time></trkpt><trkpt lat="40.2499495" lon="15.0698242"><ele>785.0</ele><time>2026-04-11T09:30:46.302Z</time></trkpt><trkpt lat="40.2499605" lon="15.0697279"><ele>785.0</ele><time>2026-04-11T09:30:47.311Z</time></trkpt><trkpt lat="40.2499481" lon="15.0695983"><ele>787.25</ele><time>2026-04-11T09:30:48.295Z</time></trkpt><trkpt lat="40.249937" lon="15.0694555"><ele>789.5</ele><time>2026-04-11T09:30:49.318Z</time></trkpt><trkpt lat="40.24994" lon="15.0692905"><ele>791.75</ele><time>2026-04-11T09:30:50.313Z</time></trkpt><trkpt lat="40.2499368" lon="15.0691173"><ele>794.0</ele><time>2026-04-11T09:30:51.307Z</time></trkpt><trkpt lat="40.2499286" lon="15.0689555"><ele>795.1666666666667</ele><time>2026-04-11T09:30:52.319Z</time></trkpt><trkpt lat="40.249932" lon="15.0688332"><ele>796.3333333333334</ele><time>2026-04-11T09:30:53.324Z</time></trkpt><trkpt lat="40.2499527" lon="15.0687372"><ele>797.5</ele><time>2026-04-11T09:30:54.316Z</time></trkpt><trkpt lat="40.2499923" lon="15.0686595"><ele>798.6666666666667</ele><time>2026-04-11T09:30:55.31Z</time></trkpt><trkpt lat="40.2500587" lon="15.0685875"><ele>799.8333333333334</ele><time>2026-04-11T09:30:56.314Z</time></trkpt><trkpt lat="40.2501206" lon="15.0685125"><ele>801.0</ele><time>2026-04-11T09:30:57.323Z</time></trkpt><trkpt lat="40.2501614" lon="15.0684494"><ele>801.0</ele><time>2026-04-11T09:30:58.308Z</time></trkpt><trkpt lat="40.250121" lon="15.0683149"><ele>801.0</ele><time>2026-04-11T09:31:00.308Z</time></trkpt><trkpt lat="40.250057" lon="15.0682565"><ele>801.0</ele><time>2026-04-11T09:31:01.324Z</time></trkpt><trkpt lat="40.2499702" lon="15.0681901"><ele>801.0</ele><time>2026-04-11T09:31:02.304Z</time></trkpt><trkpt lat="40.2498977" lon="15.068141"><ele>801.0</ele><time>2026-04-11T09:31:03.31Z</time></trkpt><trkpt lat="40.2498229" lon="15.0681422"><ele>801.0</ele><time>2026-04-11T09:31:04.314Z</time></trkpt><trkpt lat="40.2497415" lon="15.0681537"><ele>804.0</ele><time>2026-04-11T09:31:05.309Z</time></trkpt><trkpt lat="40.2496544" lon="15.068194"><ele>807.0</ele><time>2026-04-11T09:31:06.306Z</time></trkpt><trkpt lat="40.2495662" lon="15.0682706"><ele>810.0</ele><time>2026-04-11T09:31:07.311Z</time></trkpt><trkpt lat="40.2494703" lon="15.0683797"><ele>813.0</ele><time>2026-04-11T09:31:08.295Z</time></trkpt><trkpt lat="40.2493699" lon="15.0685047"><ele>813.0</ele><time>2026-04-11T09:31:09.322Z</time></trkpt><trkpt lat="40.2492586" lon="15.0686321"><ele>813.0</ele><time>2026-04-11T09:31:10.293Z</time></trkpt><trkpt lat="40.2491578" lon="15.0687429"><ele>813.0</ele><time>2026-04-11T09:31:11.31Z</time></trkpt><trkpt lat="40.2490745" lon="15.0688394"><ele>813.0</ele><time>2026-04-11T09:31:12.307Z</time></trkpt><trkpt lat="40.2490021" lon="15.0689196"><ele>815.5999999999999</ele><time>2026-04-11T09:31:13.299Z</time></trkpt><trkpt lat="40.2489328" lon="15.0689725"><ele>818.1999999999999</ele><time>2026-04-11T09:31:14.311Z</time></trkpt><trkpt lat="40.2488703" lon="15.0690009"><ele>820.8</ele><time>2026-04-11T09:31:15.315Z</time></trkpt><trkpt lat="40.248742" lon="15.0689872"><ele>823.4</ele><time>2026-04-11T09:31:17.297Z</time></trkpt><trkpt lat="40.248659" lon="15.0689493"><ele>826.0</ele><time>2026-04-11T09:31:18.305Z</time></trkpt><trkpt lat="40.2485718" lon="15.0689171"><ele>825.9999999999999</ele><time>2026-04-11T09:31:19.32Z</time></trkpt><trkpt lat="40.2484962" lon="15.0689087"><ele>826.0</ele><time>2026-04-11T09:31:20.316Z</time></trkpt><trkpt lat="40.2484251" lon="15.0689507"><ele>826.0</ele><time>2026-04-11T09:31:21.307Z</time></trkpt><trkpt lat="40.2483665" lon="15.0690265"><ele>826.0</ele><time>2026-04-11T09:31:22.301Z</time></trkpt><trkpt lat="40.2483205" lon="15.0691401"><ele>825.9999999999999</ele><time>2026-04-11T09:31:23.307Z</time></trkpt><trkpt lat="40.2482806" lon="15.0692586"><ele>826.0</ele><time>2026-04-11T09:31:24.301Z</time></trkpt><trkpt lat="40.2482424" lon="15.0693396"><ele>825.5999999999999</ele><time>2026-04-11T09:31:25.31Z</time></trkpt><trkpt lat="40.248155" lon="15.069423"><ele>825.2</ele><time>2026-04-11T09:31:27.316Z</time></trkpt><trkpt lat="40.248063" lon="15.0693877"><ele>824.8</ele><time>2026-04-11T09:31:29.301Z</time></trkpt><trkpt lat="40.2479734" lon="15.0692791"><ele>824.4000000000001</ele><time>2026-04-11T09:31:31.317Z</time></trkpt><trkpt lat="40.2479208" lon="15.069198"><ele>824.0</ele><time>2026-04-11T09:31:32.308Z</time></trkpt><trkpt lat="40.2478779" lon="15.0690985"><ele>825.6666666666667</ele><time>2026-04-11T09:31:33.295Z</time></trkpt><trkpt lat="40.2478431" lon="15.0690038"><ele>827.3333333333334</ele><time>2026-04-11T09:31:34.316Z</time></trkpt><trkpt lat="40.2478377" lon="15.0689003"><ele>829.0</ele><time>2026-04-11T09:31:35.327Z</time></trkpt><trkpt lat="40.2478695" lon="15.0687834"><ele>830.6666666666667</ele><time>2026-04-11T09:31:36.295Z</time></trkpt><trkpt lat="40.2479179" lon="15.0686699"><ele>832.3333333333334</ele><time>2026-04-11T09:31:37.308Z</time></trkpt><trkpt lat="40.2479716" lon="15.0685763"><ele>834.0</ele><time>2026-04-11T09:31:38.312Z</time></trkpt><trkpt lat="40.2480286" lon="15.0685051"><ele>834.0</ele><time>2026-04-11T09:31:39.323Z</time></trkpt><trkpt lat="40.2480988" lon="15.0684461"><ele>834.0</ele><time>2026-04-11T09:31:40.294Z</time></trkpt><trkpt lat="40.2481774" lon="15.0684022"><ele>834.0</ele><time>2026-04-11T09:31:41.321Z</time></trkpt><trkpt lat="40.2482542" lon="15.0683462"><ele>834.0</ele><time>2026-04-11T09:31:42.308Z</time></trkpt><trkpt lat="40.248312" lon="15.0682755"><ele>834.0</ele><time>2026-04-11T09:31:43.314Z</time></trkpt><trkpt lat="40.2483421" lon="15.0681957"><ele>834.0</ele><time>2026-04-11T09:31:44.285Z</time></trkpt><trkpt lat="40.2483552" lon="15.0680381"><ele>835.0</ele><time>2026-04-11T09:31:46.311Z</time></trkpt><trkpt lat="40.2483357" lon="15.0679284"><ele>836.0</ele><time>2026-04-11T09:31:48.305Z</time></trkpt><trkpt lat="40.2482752" lon="15.0678679"><ele>837.0</ele><time>2026-04-11T09:32:05.302Z</time></trkpt><trkpt lat="40.2481255" lon="15.0678835"><ele>838.0</ele><time>2026-04-11T09:32:07.303Z</time></trkpt><trkpt lat="40.2480253" lon="15.067882"><ele>839.0</ele><time>2026-04-11T09:32:08.305Z</time></trkpt><trkpt lat="40.2479198" lon="15.0678724"><ele>841.2</ele><time>2026-04-11T09:32:09.317Z</time></trkpt><trkpt lat="40.2478161" lon="15.067845"><ele>843.4000000000001</ele><time>2026-04-11T09:32:10.307Z</time></trkpt><trkpt lat="40.2477148" lon="15.0678063"><ele>845.6</ele><time>2026-04-11T09:32:11.325Z</time></trkpt><trkpt lat="40.2476202" lon="15.0677481"><ele>847.8</ele><time>2026-04-11T09:32:12.311Z</time></trkpt><trkpt lat="40.247543" lon="15.0676756"><ele>850.0</ele><time>2026-04-11T09:32:13.314Z</time></trkpt><trkpt lat="40.2474732" lon="15.0676122"><ele>849.9999999999999</ele><time>2026-04-11T09:32:14.293Z</time></trkpt><trkpt lat="40.2474003" lon="15.0675758"><ele>850.0</ele><time>2026-04-11T09:32:15.331Z</time></trkpt><trkpt lat="40.2473299" lon="15.067614"><ele>850.0</ele><time>2026-04-11T09:32:16.298Z</time></trkpt><trkpt lat="40.2472672" lon="15.0676637"><ele>850.0</ele><time>2026-04-11T09:32:17.309Z</time></trkpt><trkpt lat="40.2472022" lon="15.0677517"><ele>849.9999999999999</ele><time>2026-04-11T09:32:18.316Z</time></trkpt><trkpt lat="40.2471414" lon="15.0678861"><ele>850.0</ele><time>2026-04-11T09:32:19.297Z</time></trkpt><trkpt lat="40.2470736" lon="15.0680387"><ele>849.8</ele><time>2026-04-11T09:32:20.306Z</time></trkpt><trkpt lat="40.2470009" lon="15.0681986"><ele>849.6</ele><time>2026-04-11T09:32:21.304Z</time></trkpt><trkpt lat="40.2469312" lon="15.0683291"><ele>849.4000000000001</ele><time>2026-04-11T09:32:22.308Z</time></trkpt><trkpt lat="40.2468692" lon="15.0684308"><ele>849.2</ele><time>2026-04-11T09:32:23.314Z</time></trkpt><trkpt lat="40.2468146" lon="15.0685099"><ele>849.0</ele><time>2026-04-11T09:32:24.307Z</time></trkpt><trkpt lat="40.246751" lon="15.0685622"><ele>849.0</ele><time>2026-04-11T09:32:25.315Z</time></trkpt><trkpt lat="40.2466381" lon="15.0685797"><ele>849.0</ele><time>2026-04-11T09:32:27.312Z</time></trkpt><trkpt lat="40.2465368" lon="15.0684514"><ele>849.0</ele><time>2026-04-11T09:32:29.307Z</time></trkpt><trkpt lat="40.2464949" lon="15.0683601"><ele>849.0</ele><time>2026-04-11T09:32:30.301Z</time></trkpt><trkpt lat="40.2464503" lon="15.0682648"><ele>849.0</ele><time>2026-04-11T09:32:31.301Z</time></trkpt><trkpt lat="40.2463911" lon="15.0681773"><ele>850.5</ele><time>2026-04-11T09:32:32.308Z</time></trkpt><trkpt lat="40.2463178" lon="15.0681185"><ele>852.0</ele><time>2026-04-11T09:32:33.313Z</time></trkpt><trkpt lat="40.2462458" lon="15.0680934"><ele>853.5</ele><time>2026-04-11T09:32:34.3Z</time></trkpt><trkpt lat="40.2461811" lon="15.068098"><ele>855.0</ele><time>2026-04-11T09:32:35.317Z</time></trkpt><trkpt lat="40.2461165" lon="15.0681463"><ele>856.5</ele><time>2026-04-11T09:32:36.301Z</time></trkpt><trkpt lat="40.2460581" lon="15.0682078"><ele>858.0</ele><time>2026-04-11T09:32:37.315Z</time></trkpt><trkpt lat="40.2460011" lon="15.0682811"><ele>858.0</ele><time>2026-04-11T09:32:38.305Z</time></trkpt><trkpt lat="40.2459414" lon="15.0683163"><ele>858.0</ele><time>2026-04-11T09:32:39.318Z</time></trkpt><trkpt lat="40.2458717" lon="15.0683176"><ele>858.0</ele><time>2026-04-11T09:32:40.313Z</time></trkpt><trkpt lat="40.2457925" lon="15.0682928"><ele>858.0</ele><time>2026-04-11T09:32:41.308Z</time></trkpt><trkpt lat="40.2456967" lon="15.0682605"><ele>858.0</ele><time>2026-04-11T09:32:42.3Z</time></trkpt><trkpt lat="40.2455995" lon="15.0682356"><ele>858.0</ele><time>2026-04-11T09:32:43.312Z</time></trkpt><trkpt lat="40.2454835" lon="15.0682189"><ele>865.4</ele><time>2026-04-11T09:32:44.3Z</time></trkpt><trkpt lat="40.2453628" lon="15.0682336"><ele>872.8</ele><time>2026-04-11T09:32:45.325Z</time></trkpt><trkpt lat="40.2452575" lon="15.0682543"><ele>880.2</ele><time>2026-04-11T09:32:46.312Z</time></trkpt><trkpt lat="40.2451866" lon="15.0682688"><ele>887.6</ele><time>2026-04-11T09:32:47.3Z</time></trkpt><trkpt lat="40.2450887" lon="15.0682306"><ele>895.0</ele><time>2026-04-11T09:32:49.288Z</time></trkpt><trkpt lat="40.2450645" lon="15.0680964"><ele>895.0</ele><time>2026-04-11T09:32:51.303Z</time></trkpt><trkpt lat="40.2450974" lon="15.0680119"><ele>895.0</ele><time>2026-04-11T09:32:52.301Z</time></trkpt><trkpt lat="40.2451767" lon="15.0679604"><ele>895.0</ele><time>2026-04-11T09:32:53.3Z</time></trkpt><trkpt lat="40.2452854" lon="15.0679195"><ele>895.0</ele><time>2026-04-11T09:32:54.311Z</time></trkpt><trkpt lat="40.2454111" lon="15.0679023"><ele>895.0</ele><time>2026-04-11T09:32:55.306Z</time></trkpt><trkpt lat="40.2455403" lon="15.0678948"><ele>892.4</ele><time>2026-04-11T09:32:56.308Z</time></trkpt><trkpt lat="40.2456439" lon="15.067881"><ele>889.8</ele><time>2026-04-11T09:32:57.322Z</time></trkpt><trkpt lat="40.2457155" lon="15.067851"><ele>887.2</ele><time>2026-04-11T09:32:58.31Z</time></trkpt><trkpt lat="40.2457841" lon="15.0677934"><ele>884.6</ele><time>2026-04-11T09:32:59.306Z</time></trkpt><trkpt lat="40.2458554" lon="15.0676875"><ele>882.0</ele><time>2026-04-11T09:33:00.298Z</time></trkpt><trkpt lat="40.2459182" lon="15.0675775"><ele>882.0</ele><time>2026-04-11T09:33:01.303Z</time></trkpt><trkpt lat="40.2459407" lon="15.0674822"><ele>882.0</ele><time>2026-04-11T09:33:02.324Z</time></trkpt><trkpt lat="40.245945" lon="15.0673933"><ele>882.0</ele><time>2026-04-11T09:33:03.32Z</time></trkpt><trkpt lat="40.2459152" lon="15.0673126"><ele>882.0</ele><time>2026-04-11T09:33:04.302Z</time></trkpt><trkpt lat="40.2458609" lon="15.0672643"><ele>882.0</ele><time>2026-04-11T09:33:05.309Z</time></trkpt><trkpt lat="40.2457638" lon="15.0672342"><ele>882.0</ele><time>2026-04-11T09:33:07.316Z</time></trkpt><trkpt lat="40.2456918" lon="15.0672801"><ele>885.25</ele><time>2026-04-11T09:33:08.298Z</time></trkpt><trkpt lat="40.2456142" lon="15.0673458"><ele>888.5</ele><time>2026-04-11T09:33:09.303Z</time></trkpt><trkpt lat="40.2455231" lon="15.0674186"><ele>891.75</ele><time>2026-04-11T09:33:10.304Z</time></trkpt><trkpt lat="40.2454074" lon="15.0674835"><ele>895.0</ele><time>2026-04-11T09:33:11.328Z</time></trkpt><trkpt lat="40.2452822" lon="15.06755"><ele>895.0</ele><time>2026-04-11T09:33:12.305Z</time></trkpt><trkpt lat="40.2451446" lon="15.0676114"><ele>895.0</ele><time>2026-04-11T09:33:13.306Z</time></trkpt><trkpt lat="40.2450007" lon="15.0676578"><ele>895.0</ele><time>2026-04-11T09:33:14.3Z</time></trkpt><trkpt lat="40.2448555" lon="15.0676883"><ele>895.0</ele><time>2026-04-11T09:33:15.307Z</time></trkpt><trkpt lat="40.2447253" lon="15.0676988"><ele>899.4999999999999</ele><time>2026-04-11T09:33:16.305Z</time></trkpt><trkpt lat="40.2446212" lon="15.0677167"><ele>904.0</ele><time>2026-04-11T09:33:17.314Z</time></trkpt><trkpt lat="40.2445371" lon="15.0677565"><ele>908.5</ele><time>2026-04-11T09:33:18.314Z</time></trkpt><trkpt lat="40.2444645" lon="15.0678213"><ele>913.0</ele><time>2026-04-11T09:33:19.3Z</time></trkpt><trkpt lat="40.2444032" lon="15.0678935"><ele>917.4999999999999</ele><time>2026-04-11T09:33:20.294Z</time></trkpt><trkpt lat="40.244372" lon="15.0679775"><ele>922.0</ele><time>2026-04-11T09:33:21.305Z</time></trkpt><trkpt lat="40.244357" lon="15.0680695"><ele>922.0</ele><time>2026-04-11T09:33:22.284Z</time></trkpt><trkpt lat="40.244338" lon="15.0681769"><ele>922.0</ele><time>2026-04-11T09:33:23.314Z</time></trkpt><trkpt lat="40.2443269" lon="15.0683089"><ele>922.0</ele><time>2026-04-11T09:33:24.292Z</time></trkpt><trkpt lat="40.2443084" lon="15.0684419"><ele>922.0</ele><time>2026-04-11T09:33:25.315Z</time></trkpt><trkpt lat="40.2442904" lon="15.0685506"><ele>922.0</ele><time>2026-04-11T09:33:26.321Z</time></trkpt><trkpt lat="40.2442171" lon="15.0686734"><ele>921.2</ele><time>2026-04-11T09:33:28.294Z</time></trkpt><trkpt lat="40.2440953" lon="15.0686479"><ele>920.4000000000001</ele><time>2026-04-11T09:33:30.291Z</time></trkpt><trkpt lat="40.244026" lon="15.0686044"><ele>919.5999999999999</ele><time>2026-04-11T09:33:31.314Z</time></trkpt><trkpt lat="40.2439411" lon="15.068558"><ele>918.8</ele><time>2026-04-11T09:33:32.301Z</time></trkpt><trkpt lat="40.2438384" lon="15.0685222"><ele>918.0</ele><time>2026-04-11T09:33:33.303Z</time></trkpt><trkpt lat="40.2437276" lon="15.0684945"><ele>918.0</ele><time>2026-04-11T09:33:34.291Z</time></trkpt><trkpt lat="40.2436067" lon="15.0684752"><ele>918.0</ele><time>2026-04-11T09:33:35.309Z</time></trkpt><trkpt lat="40.2434822" lon="15.0684638"><ele>918.0</ele><time>2026-04-11T09:33:36.312Z</time></trkpt><trkpt lat="40.2433456" lon="15.0684453"><ele>918.0</ele><time>2026-04-11T09:33:37.312Z</time></trkpt><trkpt lat="40.2432047" lon="15.0684214"><ele>920.0</ele><time>2026-04-11T09:33:38.291Z</time></trkpt><trkpt lat="40.2430669" lon="15.0683946"><ele>922.0</ele><time>2026-04-11T09:33:39.291Z</time></trkpt><trkpt lat="40.2429366" lon="15.0683688"><ele>924.0</ele><time>2026-04-11T09:33:40.296Z</time></trkpt><trkpt lat="40.2428102" lon="15.0683508"><ele>926.0</ele><time>2026-04-11T09:33:41.299Z</time></trkpt><trkpt lat="40.2427127" lon="15.0683406"><ele>926.0</ele><time>2026-04-11T09:33:42.314Z</time></trkpt><trkpt lat="40.2426486" lon="15.0683355"><ele>925.9999999999999</ele><time>2026-04-11T09:33:43.316Z</time></trkpt><trkpt lat="40.2425505" lon="15.0683597"><ele>925.9999999999999</ele><time>2026-04-11T09:33:45.326Z</time></trkpt><trkpt lat="40.2424341" lon="15.0684311"><ele>926.0</ele><time>2026-04-11T09:33:47.308Z</time></trkpt><trkpt lat="40.2423593" lon="15.0684961"><ele>926.0</ele><time>2026-04-11T09:33:48.301Z</time></trkpt><trkpt lat="40.2422871" lon="15.0685632"><ele>929.8</ele><time>2026-04-11T09:33:49.311Z</time></trkpt><trkpt lat="40.2422181" lon="15.0686002"><ele>933.5999999999999</ele><time>2026-04-11T09:33:50.302Z</time></trkpt><trkpt lat="40.2421162" lon="15.0686117"><ele>937.4</ele><time>2026-04-11T09:33:52.325Z</time></trkpt><trkpt lat="40.2419806" lon="15.0685924"><ele>941.2</ele><time>2026-04-11T09:33:54.317Z</time></trkpt><trkpt lat="40.2418928" lon="15.0685693"><ele>945.0</ele><time>2026-04-11T09:33:55.285Z</time></trkpt><trkpt lat="40.2417931" lon="15.0685324"><ele>945.0</ele><time>2026-04-11T09:33:56.298Z</time></trkpt><trkpt lat="40.2416841" lon="15.0684965"><ele>945.0</ele><time>2026-04-11T09:33:57.303Z</time></trkpt><trkpt lat="40.2415799" lon="15.0684739"><ele>945.0</ele><time>2026-04-11T09:33:58.308Z</time></trkpt><trkpt lat="40.2414957" lon="15.0684611"><ele>945.0</ele><time>2026-04-11T09:33:59.301Z</time></trkpt><trkpt lat="40.2414295" lon="15.0684656"><ele>945.0</ele><time>2026-04-11T09:34:00.296Z</time></trkpt><trkpt lat="40.241352" lon="15.0684939"><ele>945.0</ele><time>2026-04-11T09:34:01.298Z</time></trkpt><trkpt lat="40.2412886" lon="15.0685472"><ele>949.2</ele><time>2026-04-11T09:34:02.29Z</time></trkpt><trkpt lat="40.2412316" lon="15.0686186"><ele>953.4</ele><time>2026-04-11T09:34:03.315Z</time></trkpt><trkpt lat="40.241168" lon="15.0687053"><ele>957.5999999999999</ele><time>2026-04-11T09:34:04.287Z</time></trkpt><trkpt lat="40.2411049" lon="15.0688146"><ele>961.8</ele><time>2026-04-11T09:34:05.31Z</time></trkpt><trkpt lat="40.2410438" lon="15.0689391"><ele>966.0</ele><time>2026-04-11T09:34:06.298Z</time></trkpt><trkpt lat="40.2409772" lon="15.0690707"><ele>968.5</ele><time>2026-04-11T09:34:07.316Z</time></trkpt><trkpt lat="40.2408971" lon="15.0692029"><ele>971.0</ele><time>2026-04-11T09:34:08.302Z</time></trkpt><trkpt lat="40.2408097" lon="15.0693418"><ele>973.5</ele><time>2026-04-11T09:34:09.305Z</time></trkpt><trkpt lat="40.2407162" lon="15.0694758"><ele>976.0</ele><time>2026-04-11T09:34:10.305Z</time></trkpt><trkpt lat="40.240628" lon="15.0695952"><ele>975.9999999999999</ele><time>2026-04-11T09:34:11.296Z</time></trkpt><trkpt lat="40.2405485" lon="15.0696925"><ele>976.0</ele><time>2026-04-11T09:34:12.306Z</time></trkpt><trkpt lat="40.2404794" lon="15.0697722"><ele>976.0</ele><time>2026-04-11T09:34:13.301Z</time></trkpt><trkpt lat="40.2404173" lon="15.0698404"><ele>976.0</ele><time>2026-04-11T09:34:14.309Z</time></trkpt><trkpt lat="40.2403641" lon="15.0699056"><ele>975.9999999999999</ele><time>2026-04-11T09:34:15.303Z</time></trkpt><trkpt lat="40.2403258" lon="15.0699936"><ele>976.0</ele><time>2026-04-11T09:34:16.298Z</time></trkpt><trkpt lat="40.2402902" lon="15.0700971"><ele>973.5999999999999</ele><time>2026-04-11T09:34:17.307Z</time></trkpt><trkpt lat="40.2402625" lon="15.0702163"><ele>971.1999999999999</ele><time>2026-04-11T09:34:18.304Z</time></trkpt><trkpt lat="40.2402279" lon="15.0703467"><ele>968.8000000000001</ele><time>2026-04-11T09:34:19.32Z</time></trkpt><trkpt lat="40.2401895" lon="15.0704596"><ele>966.4000000000001</ele><time>2026-04-11T09:34:20.303Z</time></trkpt><trkpt lat="40.2401497" lon="15.0705444"><ele>964.0</ele><time>2026-04-11T09:34:21.303Z</time></trkpt><trkpt lat="40.240073" lon="15.0706555"><ele>964.0</ele><time>2026-04-11T09:34:23.332Z</time></trkpt><trkpt lat="40.2399562" lon="15.0707072"><ele>964.0000000000001</ele><time>2026-04-11T09:34:25.311Z</time></trkpt><trkpt lat="40.2398669" lon="15.0707308"><ele>964.0000000000001</ele><time>2026-04-11T09:34:26.307Z</time></trkpt><trkpt lat="40.2397698" lon="15.0707646"><ele>964.0</ele><time>2026-04-11T09:34:27.306Z</time></trkpt><trkpt lat="40.2396844" lon="15.0708175"><ele>964.0</ele><time>2026-04-11T09:34:28.287Z</time></trkpt><trkpt lat="40.2396038" lon="15.070893"><ele>965.8000000000001</ele><time>2026-04-11T09:34:29.297Z</time></trkpt><trkpt lat="40.239532" lon="15.0709877"><ele>967.6000000000001</ele><time>2026-04-11T09:34:30.3Z</time></trkpt><trkpt lat="40.2394684" lon="15.0710777"><ele>969.4</ele><time>2026-04-11T09:34:31.314Z</time></trkpt><trkpt lat="40.2394012" lon="15.0711558"><ele>971.2</ele><time>2026-04-11T09:34:32.304Z</time></trkpt><trkpt lat="40.2393172" lon="15.0712142"><ele>973.0</ele><time>2026-04-11T09:34:33.311Z</time></trkpt><trkpt lat="40.2392261" lon="15.0712623"><ele>973.0</ele><time>2026-04-11T09:34:34.298Z</time></trkpt><trkpt lat="40.239124" lon="15.0713043"><ele>973.0</ele><time>2026-04-11T09:34:35.31Z</time></trkpt><trkpt lat="40.2390168" lon="15.0713434"><ele>973.0</ele><time>2026-04-11T09:34:36.301Z</time></trkpt><trkpt lat="40.2388984" lon="15.0713856"><ele>973.0</ele><time>2026-04-11T09:34:37.299Z</time></trkpt><trkpt lat="40.2387828" lon="15.0714423"><ele>976.6666666666666</ele><time>2026-04-11T09:34:38.304Z</time></trkpt><trkpt lat="40.2386931" lon="15.0714974"><ele>980.3333333333333</ele><time>2026-04-11T09:34:39.308Z</time></trkpt><trkpt lat="40.2386301" lon="15.0715236"><ele>984.0</ele><time>2026-04-11T09:34:40.311Z</time></trkpt><trkpt lat="40.2385448" lon="15.0715107"><ele>987.6666666666667</ele><time>2026-04-11T09:34:42.299Z</time></trkpt><trkpt lat="40.2385387" lon="15.0714242"><ele>991.3333333333334</ele><time>2026-04-11T09:34:44.303Z</time></trkpt><trkpt lat="40.2386185" lon="15.0713268"><ele>995.0</ele><time>2026-04-11T09:34:46.291Z</time></trkpt><trkpt lat="40.2386771" lon="15.0712702"><ele>995.0</ele><time>2026-04-11T09:34:47.311Z</time></trkpt><trkpt lat="40.2387611" lon="15.0712143"><ele>995.0</ele><time>2026-04-11T09:34:48.3Z</time></trkpt><trkpt lat="40.2388539" lon="15.0711336"><ele>995.0</ele><time>2026-04-11T09:34:49.305Z</time></trkpt><trkpt lat="40.2389521" lon="15.0710332"><ele>995.0</ele><time>2026-04-11T09:34:50.308Z</time></trkpt><trkpt lat="40.2390199" lon="15.0709398"><ele>995.0</ele><time>2026-04-11T09:34:51.32Z</time></trkpt><trkpt lat="40.2390663" lon="15.0708695"><ele>996.0000000000001</ele><time>2026-04-11T09:34:52.303Z</time></trkpt><trkpt lat="40.2390909" lon="15.0707492"><ele>997.0</ele><time>2026-04-11T09:34:54.309Z</time></trkpt><trkpt lat="40.2390939" lon="15.0706236"><ele>998.0</ele><time>2026-04-11T09:34:56.304Z</time></trkpt><trkpt lat="40.2391169" lon="15.0705448"><ele>999.0</ele><time>2026-04-11T09:34:57.316Z</time></trkpt><trkpt lat="40.2391586" lon="15.0704769"><ele>1000.0000000000001</ele><time>2026-04-11T09:34:58.304Z</time></trkpt><trkpt lat="40.2392144" lon="15.0704231"><ele>1001.0</ele><time>2026-04-11T09:34:59.313Z</time></trkpt><trkpt lat="40.2392864" lon="15.0703741"><ele>1001.0000000000001</ele><time>2026-04-11T09:35:00.299Z</time></trkpt><trkpt lat="40.2393649" lon="15.0703109"><ele>1001.0</ele><time>2026-04-11T09:35:01.317Z</time></trkpt><trkpt lat="40.2394395" lon="15.0702453"><ele>1001.0</ele><time>2026-04-11T09:35:02.305Z</time></trkpt><trkpt lat="40.2395054" lon="15.0701628"><ele>1001.0</ele><time>2026-04-11T09:35:03.313Z</time></trkpt><trkpt lat="40.2395542" lon="15.0700711"><ele>1001.0000000000001</ele><time>2026-04-11T09:35:04.298Z</time></trkpt><trkpt lat="40.2395799" lon="15.0699772"><ele>1001.0</ele><time>2026-04-11T09:35:05.296Z</time></trkpt><trkpt lat="40.2395933" lon="15.0698869"><ele>1004.8</ele><time>2026-04-11T09:35:06.304Z</time></trkpt><trkpt lat="40.239593" lon="15.0697862"><ele>1008.5999999999999</ele><time>2026-04-11T09:35:07.312Z</time></trkpt><trkpt lat="40.2395966" lon="15.0696636"><ele>1012.4</ele><time>2026-04-11T09:35:08.299Z</time></trkpt><trkpt lat="40.2395994" lon="15.0695274"><ele>1016.2</ele><time>2026-04-11T09:35:09.304Z</time></trkpt><trkpt lat="40.2395908" lon="15.0693622"><ele>1020.0</ele><time>2026-04-11T09:35:10.31Z</time></trkpt><trkpt lat="40.2395885" lon="15.0692002"><ele>1023.6</ele><time>2026-04-11T09:35:11.306Z</time></trkpt><trkpt lat="40.2395946" lon="15.0690482"><ele>1027.2</ele><time>2026-04-11T09:35:12.321Z</time></trkpt><trkpt lat="40.2396105" lon="15.0689092"><ele>1030.8</ele><time>2026-04-11T09:35:13.311Z</time></trkpt><trkpt lat="40.2396293" lon="15.068772"><ele>1034.4</ele><time>2026-04-11T09:35:14.303Z</time></trkpt><trkpt lat="40.2396575" lon="15.0686477"><ele>1038.0</ele><time>2026-04-11T09:35:15.306Z</time></trkpt><trkpt lat="40.2396994" lon="15.0685323"><ele>1038.0</ele><time>2026-04-11T09:35:16.299Z</time></trkpt><trkpt lat="40.2397556" lon="15.068427"><ele>1038.0</ele><time>2026-04-11T09:35:17.319Z</time></trkpt><trkpt lat="40.2398154" lon="15.0683263"><ele>1038.0</ele><time>2026-04-11T09:35:18.311Z</time></trkpt><trkpt lat="40.2398987" lon="15.068235"><ele>1038.0</ele><time>2026-04-11T09:35:19.315Z</time></trkpt><trkpt lat="40.2399946" lon="15.0681409"><ele>1038.0</ele><time>2026-04-11T09:35:20.307Z</time></trkpt><trkpt lat="40.2400978" lon="15.0680226"><ele>1033.75</ele><time>2026-04-11T09:35:21.311Z</time></trkpt><trkpt lat="40.2401943" lon="15.0679135"><ele>1029.5</ele><time>2026-04-11T09:35:22.305Z</time></trkpt><trkpt lat="40.2402632" lon="15.0678318"><ele>1025.25</ele><time>2026-04-11T09:35:23.3Z</time></trkpt><trkpt lat="40.2403222" lon="15.0677028"><ele>1021.0</ele><time>2026-04-11T09:35:25.312Z</time></trkpt><trkpt lat="40.2402582" lon="15.0675772"><ele>1021.0</ele><time>2026-04-11T09:35:27.309Z</time></trkpt><trkpt lat="40.2401826" lon="15.0674729"><ele>1020.9999999999999</ele><time>2026-04-11T09:35:29.321Z</time></trkpt><trkpt lat="40.2402047" lon="15.0673289"><ele>1020.9999999999999</ele><time>2026-04-11T09:35:31.307Z</time></trkpt><trkpt lat="40.2402619" lon="15.0672518"><ele>1021.0</ele><time>2026-04-11T09:35:32.306Z</time></trkpt><trkpt lat="40.2403388" lon="15.0671695"><ele>1021.0</ele><time>2026-04-11T09:35:33.306Z</time></trkpt><trkpt lat="40.2404123" lon="15.0670904"><ele>1020.9999999999999</ele><time>2026-04-11T09:35:34.296Z</time></trkpt><trkpt lat="40.2404817" lon="15.0670283"><ele>1021.0</ele><time>2026-04-11T09:35:35.307Z</time></trkpt><trkpt lat="40.2405301" lon="15.0669689"><ele>1021.0</ele><time>2026-04-11T09:35:36.307Z</time></trkpt><trkpt lat="40.2405796" lon="15.0669143"><ele>1021.0</ele><time>2026-04-11T09:35:37.303Z</time></trkpt><trkpt lat="40.2406304" lon="15.0668556"><ele>1020.9999999999999</ele><time>2026-04-11T09:35:38.314Z</time></trkpt><trkpt lat="40.2406862" lon="15.0668073"><ele>1021.0</ele><time>2026-04-11T09:35:39.322Z</time></trkpt><trkpt lat="40.2407976" lon="15.0667257"><ele>1020.9999999999999</ele><time>2026-04-11T09:35:41.314Z</time></trkpt><trkpt lat="40.2408569" lon="15.0666906"><ele>1021.0</ele><time>2026-04-11T09:35:42.296Z</time></trkpt><trkpt lat="40.2409151" lon="15.0666533"><ele>1021.0</ele><time>2026-04-11T09:35:43.314Z</time></trkpt><trkpt lat="40.2409781" lon="15.0666119"><ele>1021.0</ele><time>2026-04-11T09:35:44.3Z</time></trkpt><trkpt lat="40.2410427" lon="15.0665641"><ele>1020.9999999999999</ele><time>2026-04-11T09:35:45.305Z</time></trkpt><trkpt lat="40.2410983" lon="15.0665156"><ele>1021.0</ele><time>2026-04-11T09:35:46.306Z</time></trkpt><trkpt lat="40.2411883" lon="15.0664031"><ele>1023.6666666666666</ele><time>2026-04-11T09:35:48.305Z</time></trkpt><trkpt lat="40.2412399" lon="15.0662586"><ele>1026.3333333333333</ele><time>2026-04-11T09:35:50.315Z</time></trkpt><trkpt lat="40.2412655" lon="15.0661765"><ele>1029.0</ele><time>2026-04-11T09:35:51.305Z</time></trkpt><trkpt lat="40.2412767" lon="15.0660856"><ele>1031.6666666666667</ele><time>2026-04-11T09:35:52.316Z</time></trkpt><trkpt lat="40.2412964" lon="15.0659877"><ele>1034.3333333333335</ele><time>2026-04-11T09:35:53.309Z</time></trkpt><trkpt lat="40.2412898" lon="15.0658562"><ele>1037.0</ele><time>2026-04-11T09:35:54.305Z</time></trkpt><trkpt lat="40.2412611" lon="15.0656836"><ele>1038.6</ele><time>2026-04-11T09:35:55.306Z</time></trkpt><trkpt lat="40.2412307" lon="15.0655231"><ele>1040.2</ele><time>2026-04-11T09:35:56.292Z</time></trkpt><trkpt lat="40.2411919" lon="15.0653718"><ele>1041.8</ele><time>2026-04-11T09:35:57.303Z</time></trkpt><trkpt lat="40.2411526" lon="15.0652754"><ele>1043.4</ele><time>2026-04-11T09:35:58.316Z</time></trkpt><trkpt lat="40.2410896" lon="15.0651847"><ele>1045.0</ele><time>2026-04-11T09:36:00.326Z</time></trkpt><trkpt lat="40.241027" lon="15.0652233"><ele>1045.0</ele><time>2026-04-11T09:36:02.317Z</time></trkpt><trkpt lat="40.2409692" lon="15.0653374"><ele>1045.0</ele><time>2026-04-11T09:36:04.314Z</time></trkpt><trkpt lat="40.2409578" lon="15.0654194"><ele>1045.0</ele><time>2026-04-11T09:36:05.325Z</time></trkpt><trkpt lat="40.2409372" lon="15.0655036"><ele>1045.0</ele><time>2026-04-11T09:36:06.3Z</time></trkpt><trkpt lat="40.240911" lon="15.0655914"><ele>1045.0</ele><time>2026-04-11T09:36:07.325Z</time></trkpt><trkpt lat="40.240886" lon="15.0656891"><ele>1045.0</ele><time>2026-04-11T09:36:08.298Z</time></trkpt><trkpt lat="40.2408517" lon="15.0657787"><ele>1043.6666666666665</ele><time>2026-04-11T09:36:09.311Z</time></trkpt><trkpt lat="40.2408122" lon="15.0658643"><ele>1042.3333333333333</ele><time>2026-04-11T09:36:10.307Z</time></trkpt><trkpt lat="40.2407584" lon="15.0659375"><ele>1041.0</ele><time>2026-04-11T09:36:11.323Z</time></trkpt><trkpt lat="40.2406936" lon="15.0659836"><ele>1039.6666666666667</ele><time>2026-04-11T09:36:12.309Z</time></trkpt><trkpt lat="40.2406191" lon="15.0660069"><ele>1038.3333333333335</ele><time>2026-04-11T09:36:13.314Z</time></trkpt><trkpt lat="40.2405385" lon="15.0660358"><ele>1037.0</ele><time>2026-04-11T09:36:14.306Z</time></trkpt><trkpt lat="40.2404332" lon="15.066058"><ele>1042.75</ele><time>2026-04-11T09:36:15.307Z</time></trkpt><trkpt lat="40.2403115" lon="15.0660802"><ele>1048.5</ele><time>2026-04-11T09:36:16.313Z</time></trkpt><trkpt lat="40.2401901" lon="15.0661093"><ele>1054.25</ele><time>2026-04-11T09:36:17.316Z</time></trkpt><trkpt lat="40.24008" lon="15.0661615"><ele>1060.0</ele><time>2026-04-11T09:36:18.311Z</time></trkpt><trkpt lat="40.2399621" lon="15.06623"><ele>1060.0</ele><time>2026-04-11T09:36:19.296Z</time></trkpt><trkpt lat="40.2398385" lon="15.0663049"><ele>1060.0</ele><time>2026-04-11T09:36:20.299Z</time></trkpt><trkpt lat="40.2397035" lon="15.0664072"><ele>1060.0</ele><time>2026-04-11T09:36:21.308Z</time></trkpt><trkpt lat="40.2395742" lon="15.0665191"><ele>1060.0</ele><time>2026-04-11T09:36:22.309Z</time></trkpt><trkpt lat="40.2394516" lon="15.0666116"><ele>1060.75</ele><time>2026-04-11T09:36:23.305Z</time></trkpt><trkpt lat="40.2393301" lon="15.0666927"><ele>1061.5</ele><time>2026-04-11T09:36:24.306Z</time></trkpt><trkpt lat="40.2392034" lon="15.0667681"><ele>1062.25</ele><time>2026-04-11T09:36:25.312Z</time></trkpt><trkpt lat="40.2390865" lon="15.0668297"><ele>1063.0</ele><time>2026-04-11T09:36:26.31Z</time></trkpt><trkpt lat="40.2389888" lon="15.0668814"><ele>1067.4</ele><time>2026-04-11T09:36:27.321Z</time></trkpt><trkpt lat="40.2389111" lon="15.0669392"><ele>1071.8</ele><time>2026-04-11T09:36:28.296Z</time></trkpt><trkpt lat="40.2388427" lon="15.0670119"><ele>1076.2</ele><time>2026-04-11T09:36:29.312Z</time></trkpt><trkpt lat="40.2387793" lon="15.0670983"><ele>1080.6</ele><time>2026-04-11T09:36:30.313Z</time></trkpt><trkpt lat="40.2387094" lon="15.0671891"><ele>1085.0</ele><time>2026-04-11T09:36:31.302Z</time></trkpt><trkpt lat="40.2386575" lon="15.0672938"><ele>1085.0</ele><time>2026-04-11T09:36:32.304Z</time></trkpt><trkpt lat="40.2386107" lon="15.0673877"><ele>1085.0</ele><time>2026-04-11T09:36:33.302Z</time></trkpt><trkpt lat="40.2385846" lon="15.0674739"><ele>1085.0</ele><time>2026-04-11T09:36:34.298Z</time></trkpt><trkpt lat="40.2385537" lon="15.0676208"><ele>1085.0</ele><time>2026-04-11T09:36:36.29Z</time></trkpt><trkpt lat="40.2384841" lon="15.067702"><ele>1085.0</ele><time>2026-04-11T09:36:38.301Z</time></trkpt><trkpt lat="40.2384326" lon="15.0676344"><ele>1085.0</ele><time>2026-04-11T09:36:40.302Z</time></trkpt><trkpt lat="40.2384544" lon="15.0675073"><ele>1085.0</ele><time>2026-04-11T09:36:42.324Z</time></trkpt><trkpt lat="40.238489" lon="15.067343"><ele>1085.0</ele><time>2026-04-11T09:36:44.315Z</time></trkpt><trkpt lat="40.2385125" lon="15.0672272"><ele>1085.0</ele><time>2026-04-11T09:36:45.313Z</time></trkpt><trkpt lat="40.2385526" lon="15.067112"><ele>1085.0</ele><time>2026-04-11T09:36:46.317Z</time></trkpt><trkpt lat="40.238576" lon="15.0669983"><ele>1085.0</ele><time>2026-04-11T09:36:47.306Z</time></trkpt><trkpt lat="40.2385777" lon="15.0669069"><ele>1085.0</ele><time>2026-04-11T09:36:48.312Z</time></trkpt><trkpt lat="40.238534" lon="15.06677"><ele>1085.0</ele><time>2026-04-11T09:36:50.322Z</time></trkpt><trkpt lat="40.2385125" lon="15.0666769"><ele>1085.0</ele><time>2026-04-11T09:36:51.31Z</time></trkpt><trkpt lat="40.2385327" lon="15.0665212"><ele>1085.0</ele><time>2026-04-11T09:36:53.318Z</time></trkpt><trkpt lat="40.2385752" lon="15.0664492"><ele>1085.0</ele><time>2026-04-11T09:36:54.299Z</time></trkpt><trkpt lat="40.2386296" lon="15.0663721"><ele>1087.6</ele><time>2026-04-11T09:36:55.304Z</time></trkpt><trkpt lat="40.238684" lon="15.0662828"><ele>1090.2</ele><time>2026-04-11T09:36:56.305Z</time></trkpt><trkpt lat="40.2387361" lon="15.0661758"><ele>1092.8</ele><time>2026-04-11T09:36:57.309Z</time></trkpt><trkpt lat="40.2387927" lon="15.0660538"><ele>1095.4</ele><time>2026-04-11T09:36:58.313Z</time></trkpt><trkpt lat="40.2388394" lon="15.0659125"><ele>1098.0</ele><time>2026-04-11T09:36:59.318Z</time></trkpt><trkpt lat="40.2388793" lon="15.0657675"><ele>1099.4</ele><time>2026-04-11T09:37:00.32Z</time></trkpt><trkpt lat="40.2389257" lon="15.0656474"><ele>1100.8</ele><time>2026-04-11T09:37:01.306Z</time></trkpt><trkpt lat="40.2389849" lon="15.0655561"><ele>1102.2</ele><time>2026-04-11T09:37:02.294Z</time></trkpt><trkpt lat="40.2390601" lon="15.0654779"><ele>1103.6</ele><time>2026-04-11T09:37:03.313Z</time></trkpt><trkpt lat="40.2391275" lon="15.0654028"><ele>1105.0</ele><time>2026-04-11T09:37:04.306Z</time></trkpt><trkpt lat="40.2391792" lon="15.0653301"><ele>1102.2</ele><time>2026-04-11T09:37:05.325Z</time></trkpt><trkpt lat="40.2392166" lon="15.0651996"><ele>1099.4</ele><time>2026-04-11T09:37:07.317Z</time></trkpt><trkpt lat="40.2392208" lon="15.0651034"><ele>1096.6</ele><time>2026-04-11T09:37:08.317Z</time></trkpt><trkpt lat="40.2392157" lon="15.0649829"><ele>1093.8</ele><time>2026-04-11T09:37:09.305Z</time></trkpt><trkpt lat="40.23921" lon="15.0648372"><ele>1091.0</ele><time>2026-04-11T09:37:10.315Z</time></trkpt><trkpt lat="40.2392084" lon="15.064699"><ele>1090.8333333333335</ele><time>2026-04-11T09:37:11.313Z</time></trkpt><trkpt lat="40.2392086" lon="15.0645835"><ele>1090.6666666666667</ele><time>2026-04-11T09:37:12.309Z</time></trkpt><trkpt lat="40.2392046" lon="15.0644973"><ele>1090.5</ele><time>2026-04-11T09:37:13.314Z</time></trkpt><trkpt lat="40.2391642" lon="15.0643868"><ele>1090.3333333333333</ele><time>2026-04-11T09:37:15.313Z</time></trkpt><trkpt lat="40.2390939" lon="15.0643917"><ele>1090.1666666666665</ele><time>2026-04-11T09:37:17.313Z</time></trkpt><trkpt lat="40.2390281" lon="15.0644018"><ele>1090.0</ele><time>2026-04-11T09:37:38.31Z</time></trkpt><trkpt lat="40.2390934" lon="15.0643735"><ele>1090.0</ele><time>2026-04-11T09:38:46.298Z</time></trkpt><trkpt lat="40.2390612" lon="15.0645051"><ele>1090.0</ele><time>2026-04-11T09:38:53.269Z</time></trkpt><trkpt lat="40.2390354" lon="15.0643887"><ele>1090.0</ele><time>2026-04-11T09:39:09.283Z</time></trkpt><trkpt lat="40.2389801" lon="15.0643462"><ele>1090.0</ele><time>2026-04-11T09:40:23.281Z</time></trkpt><trkpt lat="40.2389049" lon="15.064293"><ele>1090.0</ele><time>2026-04-11T09:40:25.288Z</time></trkpt><trkpt lat="40.2388228" lon="15.0642119"><ele>1091.1666666666665</ele><time>2026-04-11T09:40:27.313Z</time></trkpt><trkpt lat="40.2387607" lon="15.0641499"><ele>1092.3333333333333</ele><time>2026-04-11T09:40:29.311Z</time></trkpt><trkpt lat="40.2386869" lon="15.0641219"><ele>1093.5</ele><time>2026-04-11T09:40:31.288Z</time></trkpt><trkpt lat="40.2385687" lon="15.0641164"><ele>1094.6666666666667</ele><time>2026-04-11T09:40:33.298Z</time></trkpt><trkpt lat="40.2385045" lon="15.0641419"><ele>1095.8333333333335</ele><time>2026-04-11T09:40:34.292Z</time></trkpt><trkpt lat="40.2384294" lon="15.0641756"><ele>1097.0</ele><time>2026-04-11T09:40:35.285Z</time></trkpt><trkpt lat="40.2383451" lon="15.0642171"><ele>1097.0</ele><time>2026-04-11T09:40:36.345Z</time></trkpt><trkpt lat="40.2382475" lon="15.0642622"><ele>1097.0</ele><time>2026-04-11T09:40:37.296Z</time></trkpt><trkpt lat="40.2381508" lon="15.064294"><ele>1097.0</ele><time>2026-04-11T09:40:38.327Z</time></trkpt><trkpt lat="40.2380541" lon="15.0643239"><ele>1097.0</ele><time>2026-04-11T09:40:39.323Z</time></trkpt><trkpt lat="40.2379552" lon="15.0643546"><ele>1097.0</ele><time>2026-04-11T09:40:40.323Z</time></trkpt><trkpt lat="40.2378569" lon="15.0643878"><ele>1097.8</ele><time>2026-04-11T09:40:41.306Z</time></trkpt><trkpt lat="40.2377611" lon="15.0644207"><ele>1098.6</ele><time>2026-04-11T09:40:42.317Z</time></trkpt><trkpt lat="40.2376741" lon="15.0644496"><ele>1099.3999999999999</ele><time>2026-04-11T09:40:43.307Z</time></trkpt><trkpt lat="40.2375955" lon="15.0644841"><ele>1100.2</ele><time>2026-04-11T09:40:44.309Z</time></trkpt><trkpt lat="40.237518" lon="15.064527"><ele>1101.0</ele><time>2026-04-11T09:40:45.289Z</time></trkpt><trkpt lat="40.2374357" lon="15.0645871"><ele>1101.0</ele><time>2026-04-11T09:40:46.303Z</time></trkpt><trkpt lat="40.2373504" lon="15.0646608"><ele>1101.0</ele><time>2026-04-11T09:40:47.302Z</time></trkpt><trkpt lat="40.2372693" lon="15.0647241"><ele>1101.0</ele><time>2026-04-11T09:40:48.293Z</time></trkpt><trkpt lat="40.2371911" lon="15.0647732"><ele>1101.0</ele><time>2026-04-11T09:40:49.309Z</time></trkpt><trkpt lat="40.2370929" lon="15.0648278"><ele>1101.0</ele><time>2026-04-11T09:40:51.315Z</time></trkpt><trkpt lat="40.2370474" lon="15.0649103"><ele>1101.2857142857142</ele><time>2026-04-11T09:40:54.337Z</time></trkpt><trkpt lat="40.2371026" lon="15.0650034"><ele>1101.5714285714284</ele><time>2026-04-11T09:40:57.32Z</time></trkpt><trkpt lat="40.2371537" lon="15.0650993"><ele>1101.857142857143</ele><time>2026-04-11T09:40:59.323Z</time></trkpt><trkpt lat="40.2371393" lon="15.0651803"><ele>1102.142857142857</ele><time>2026-04-11T09:41:10.326Z</time></trkpt><trkpt lat="40.2370727" lon="15.0651919"><ele>1102.4285714285716</ele><time>2026-04-11T09:41:20.299Z</time></trkpt><trkpt lat="40.2370173" lon="15.0651402"><ele>1102.7142857142858</ele><time>2026-04-11T09:42:52.306Z</time></trkpt><trkpt lat="40.2370837" lon="15.0651622"><ele>1103.0</ele><time>2026-04-11T09:49:07.3Z</time></trkpt><trkpt lat="40.2371323" lon="15.0652205"><ele>1103.0</ele><time>2026-04-11T09:49:17.302Z</time></trkpt><trkpt lat="40.2370902" lon="15.0652887"><ele>1103.0</ele><time>2026-04-11T09:49:43.321Z</time></trkpt><trkpt lat="40.2371111" lon="15.0652101"><ele>1103.0</ele><time>2026-04-11T09:50:15.046Z</time></trkpt></trkseg><trkseg><trkpt lat="40.2495557" lon="15.0852583"><ele>532.0</ele><time>2026-04-11T10:35:39.942Z</time></trkpt><trkpt lat="40.2495703" lon="15.0853547"><ele>532.0</ele><time>2026-04-11T10:35:41.957Z</time></trkpt><trkpt lat="40.2496018" lon="15.0855275"><ele>532.0</ele><time>2026-04-11T10:35:43.939Z</time></trkpt><trkpt lat="40.2496085" lon="15.0856503"><ele>532.0</ele><time>2026-04-11T10:35:44.958Z</time></trkpt><trkpt lat="40.2496003" lon="15.0857861"><ele>532.0</ele><time>2026-04-11T10:35:45.936Z</time></trkpt><trkpt lat="40.2495827" lon="15.085946"><ele>531.0</ele><time>2026-04-11T10:35:46.944Z</time></trkpt><trkpt lat="40.2495739" lon="15.086111"><ele>530.0</ele><time>2026-04-11T10:35:47.945Z</time></trkpt><trkpt lat="40.249564" lon="15.086275"><ele>529.0</ele><time>2026-04-11T10:35:48.937Z</time></trkpt><trkpt lat="40.2495529" lon="15.0864281"><ele>528.0</ele><time>2026-04-11T10:35:49.926Z</time></trkpt><trkpt lat="40.2495465" lon="15.0865621"><ele>527.3333333333334</ele><time>2026-04-11T10:35:50.949Z</time></trkpt><trkpt lat="40.2495447" lon="15.0866711"><ele>526.6666666666666</ele><time>2026-04-11T10:35:51.93Z</time></trkpt><trkpt lat="40.2495389" lon="15.0867664"><ele>526.0</ele><time>2026-04-11T10:35:52.922Z</time></trkpt><trkpt lat="40.2495042" lon="15.086925"><ele>525.3333333333333</ele><time>2026-04-11T10:35:54.933Z</time></trkpt><trkpt lat="40.2494721" lon="15.0870059"><ele>524.6666666666666</ele><time>2026-04-11T10:35:55.93Z</time></trkpt><trkpt lat="40.2494317" lon="15.0871027"><ele>524.0</ele><time>2026-04-11T10:35:56.954Z</time></trkpt><trkpt lat="40.2494021" lon="15.0872259"><ele>524.0</ele><time>2026-04-11T10:35:57.943Z</time></trkpt><trkpt lat="40.2493885" lon="15.0873685"><ele>524.0</ele><time>2026-04-11T10:35:58.937Z</time></trkpt><trkpt lat="40.2493762" lon="15.0875132"><ele>524.0</ele><time>2026-04-11T10:35:59.938Z</time></trkpt><trkpt lat="40.2493778" lon="15.0876444"><ele>524.0</ele><time>2026-04-11T10:36:00.93Z</time></trkpt><trkpt lat="40.2493935" lon="15.0877624"><ele>524.0</ele><time>2026-04-11T10:36:01.921Z</time></trkpt><trkpt lat="40.2494238" lon="15.0878826"><ele>522.5</ele><time>2026-04-11T10:36:02.922Z</time></trkpt><trkpt lat="40.2494654" lon="15.0880093"><ele>521.0</ele><time>2026-04-11T10:36:03.939Z</time></trkpt><trkpt lat="40.2494959" lon="15.08813"><ele>519.5</ele><time>2026-04-11T10:36:04.936Z</time></trkpt><trkpt lat="40.2495012" lon="15.0882502"><ele>518.0</ele><time>2026-04-11T10:36:05.928Z</time></trkpt><trkpt lat="40.2494936" lon="15.0883613"><ele>516.5</ele><time>2026-04-11T10:36:06.942Z</time></trkpt><trkpt lat="40.2494792" lon="15.088448"><ele>515.0</ele><time>2026-04-11T10:36:07.942Z</time></trkpt><trkpt lat="40.2494014" lon="15.0885694"><ele>512.4</ele><time>2026-04-11T10:36:09.955Z</time></trkpt><trkpt lat="40.2493301" lon="15.0886057"><ele>509.8</ele><time>2026-04-11T10:36:10.964Z</time></trkpt><trkpt lat="40.2492499" lon="15.0885895"><ele>507.20000000000005</ele><time>2026-04-11T10:36:11.95Z</time></trkpt><trkpt lat="40.2491648" lon="15.0885418"><ele>504.6</ele><time>2026-04-11T10:36:12.955Z</time></trkpt><trkpt lat="40.2490509" lon="15.0884882"><ele>502.0</ele><time>2026-04-11T10:36:13.935Z</time></trkpt><trkpt lat="40.2489259" lon="15.088433"><ele>499.25</ele><time>2026-04-11T10:36:14.944Z</time></trkpt><trkpt lat="40.2488014" lon="15.0883589"><ele>496.5</ele><time>2026-04-11T10:36:15.94Z</time></trkpt><trkpt lat="40.2486723" lon="15.0882914"><ele>493.75</ele><time>2026-04-11T10:36:16.931Z</time></trkpt><trkpt lat="40.2485436" lon="15.0882252"><ele>491.0</ele><time>2026-04-11T10:36:17.938Z</time></trkpt><trkpt lat="40.2484142" lon="15.0881669"><ele>493.5</ele><time>2026-04-11T10:36:18.939Z</time></trkpt><trkpt lat="40.2482893" lon="15.0881267"><ele>496.0</ele><time>2026-04-11T10:36:19.944Z</time></trkpt><trkpt lat="40.2481657" lon="15.0881011"><ele>498.5</ele><time>2026-04-11T10:36:20.945Z</time></trkpt><trkpt lat="40.2480362" lon="15.0880948"><ele>501.0</ele><time>2026-04-11T10:36:21.954Z</time></trkpt><trkpt lat="40.247909" lon="15.088107"><ele>501.0</ele><time>2026-04-11T10:36:22.942Z</time></trkpt><trkpt lat="40.2477939" lon="15.0881248"><ele>501.0</ele><time>2026-04-11T10:36:23.943Z</time></trkpt><trkpt lat="40.2476956" lon="15.0881351"><ele>501.0</ele><time>2026-04-11T10:36:24.94Z</time></trkpt><trkpt lat="40.2476258" lon="15.0881172"><ele>501.0</ele><time>2026-04-11T10:36:25.949Z</time></trkpt><trkpt lat="40.2475637" lon="15.0880655"><ele>501.0</ele><time>2026-04-11T10:36:26.948Z</time></trkpt><trkpt lat="40.2475175" lon="15.087993"><ele>501.0</ele><time>2026-04-11T10:36:27.945Z</time></trkpt><trkpt lat="40.2474813" lon="15.0879038"><ele>501.0</ele><time>2026-04-11T10:36:28.936Z</time></trkpt><trkpt lat="40.2474603" lon="15.0878013"><ele>501.0</ele><time>2026-04-11T10:36:29.959Z</time></trkpt><trkpt lat="40.2474393" lon="15.0877104"><ele>501.0</ele><time>2026-04-11T10:36:30.953Z</time></trkpt><trkpt lat="40.2474036" lon="15.0876289"><ele>501.0</ele><time>2026-04-11T10:36:31.95Z</time></trkpt><trkpt lat="40.247345" lon="15.0875654"><ele>501.0</ele><time>2026-04-11T10:36:32.941Z</time></trkpt><trkpt lat="40.2472651" lon="15.0875299"><ele>501.0</ele><time>2026-04-11T10:36:33.949Z</time></trkpt><trkpt lat="40.2471747" lon="15.0875342"><ele>498.4</ele><time>2026-04-11T10:36:34.927Z</time></trkpt><trkpt lat="40.2470776" lon="15.0875607"><ele>495.8</ele><time>2026-04-11T10:36:35.943Z</time></trkpt><trkpt lat="40.2469825" lon="15.0876046"><ele>493.19999999999993</ele><time>2026-04-11T10:36:36.955Z</time></trkpt><trkpt lat="40.246891" lon="15.0876314"><ele>490.59999999999997</ele><time>2026-04-11T10:36:37.956Z</time></trkpt><trkpt lat="40.24681" lon="15.0876213"><ele>488.0</ele><time>2026-04-11T10:36:38.944Z</time></trkpt><trkpt lat="40.2467283" lon="15.0875713"><ele>487.99999999999994</ele><time>2026-04-11T10:36:39.947Z</time></trkpt><trkpt lat="40.2466547" lon="15.0875098"><ele>488.0</ele><time>2026-04-11T10:36:40.943Z</time></trkpt><trkpt lat="40.2465944" lon="15.0874796"><ele>488.0</ele><time>2026-04-11T10:36:41.95Z</time></trkpt><trkpt lat="40.2465304" lon="15.0874804"><ele>488.0</ele><time>2026-04-11T10:36:42.944Z</time></trkpt><trkpt lat="40.2464541" lon="15.0875322"><ele>487.99999999999994</ele><time>2026-04-11T10:36:43.945Z</time></trkpt><trkpt lat="40.2463637" lon="15.0876059"><ele>488.0</ele><time>2026-04-11T10:36:44.958Z</time></trkpt><trkpt lat="40.2462799" lon="15.0876737"><ele>487.2</ele><time>2026-04-11T10:36:45.931Z</time></trkpt><trkpt lat="40.2461937" lon="15.0877327"><ele>486.4</ele><time>2026-04-11T10:36:46.937Z</time></trkpt><trkpt lat="40.2461093" lon="15.0877803"><ele>485.59999999999997</ele><time>2026-04-11T10:36:47.936Z</time></trkpt><trkpt lat="40.2460159" lon="15.0878372"><ele>484.79999999999995</ele><time>2026-04-11T10:36:48.946Z</time></trkpt><trkpt lat="40.2459044" lon="15.0878905"><ele>484.0</ele><time>2026-04-11T10:36:49.939Z</time></trkpt><trkpt lat="40.2457768" lon="15.0879397"><ele>484.0</ele><time>2026-04-11T10:36:50.952Z</time></trkpt><trkpt lat="40.245645" lon="15.0879775"><ele>484.0</ele><time>2026-04-11T10:36:51.931Z</time></trkpt><trkpt lat="40.2455183" lon="15.0880402"><ele>484.0</ele><time>2026-04-11T10:36:52.938Z</time></trkpt><trkpt lat="40.2453869" lon="15.0881427"><ele>484.0</ele><time>2026-04-11T10:36:53.93Z</time></trkpt><trkpt lat="40.2452523" lon="15.0882583"><ele>481.0</ele><time>2026-04-11T10:36:54.934Z</time></trkpt><trkpt lat="40.2451103" lon="15.088339"><ele>478.0</ele><time>2026-04-11T10:36:55.944Z</time></trkpt><trkpt lat="40.2449856" lon="15.0883972"><ele>475.0</ele><time>2026-04-11T10:36:56.951Z</time></trkpt><trkpt lat="40.2448675" lon="15.0884272"><ele>472.0</ele><time>2026-04-11T10:36:57.957Z</time></trkpt><trkpt lat="40.244759" lon="15.0884454"><ele>471.20000000000005</ele><time>2026-04-11T10:36:58.949Z</time></trkpt><trkpt lat="40.2446683" lon="15.0884376"><ele>470.40000000000003</ele><time>2026-04-11T10:36:59.937Z</time></trkpt><trkpt lat="40.2445803" lon="15.0884108"><ele>469.59999999999997</ele><time>2026-04-11T10:37:00.948Z</time></trkpt><trkpt lat="40.2445023" lon="15.0883538"><ele>468.79999999999995</ele><time>2026-04-11T10:37:01.957Z</time></trkpt><trkpt lat="40.244431" lon="15.0882616"><ele>468.0</ele><time>2026-04-11T10:37:02.946Z</time></trkpt><trkpt lat="40.2443658" lon="15.0881455"><ele>468.0</ele><time>2026-04-11T10:37:03.953Z</time></trkpt><trkpt lat="40.2443181" lon="15.0880362"><ele>467.99999999999994</ele><time>2026-04-11T10:37:04.956Z</time></trkpt><trkpt lat="40.2442751" lon="15.0879433"><ele>467.99999999999994</ele><time>2026-04-11T10:37:05.93Z</time></trkpt><trkpt lat="40.2442192" lon="15.0878659"><ele>468.0</ele><time>2026-04-11T10:37:06.948Z</time></trkpt><trkpt lat="40.2441431" lon="15.0877951"><ele>468.0</ele><time>2026-04-11T10:37:07.946Z</time></trkpt><trkpt lat="40.2440485" lon="15.0877288"><ele>470.0</ele><time>2026-04-11T10:37:08.938Z</time></trkpt><trkpt lat="40.2439405" lon="15.0876492"><ele>472.0</ele><time>2026-04-11T10:37:09.941Z</time></trkpt><trkpt lat="40.2438345" lon="15.0875503"><ele>474.0</ele><time>2026-04-11T10:37:10.949Z</time></trkpt><trkpt lat="40.2437294" lon="15.0874372"><ele>476.0</ele><time>2026-04-11T10:37:11.943Z</time></trkpt><trkpt lat="40.2436165" lon="15.0873076"><ele>476.0</ele><time>2026-04-11T10:37:12.94Z</time></trkpt><trkpt lat="40.2435155" lon="15.0871926"><ele>476.0</ele><time>2026-04-11T10:37:13.94Z</time></trkpt><trkpt lat="40.2434243" lon="15.0871038"><ele>476.0</ele><time>2026-04-11T10:37:14.948Z</time></trkpt><trkpt lat="40.2433228" lon="15.087034"><ele>476.0</ele><time>2026-04-11T10:37:15.944Z</time></trkpt><trkpt lat="40.2432065" lon="15.0869738"><ele>471.5</ele><time>2026-04-11T10:37:16.937Z</time></trkpt><trkpt lat="40.243072" lon="15.0869424"><ele>467.0</ele><time>2026-04-11T10:37:17.939Z</time></trkpt><trkpt lat="40.242935" lon="15.0869178"><ele>462.5</ele><time>2026-04-11T10:37:18.95Z</time></trkpt><trkpt lat="40.2428178" lon="15.0868965"><ele>458.0</ele><time>2026-04-11T10:37:19.942Z</time></trkpt><trkpt lat="40.2427122" lon="15.0868591"><ele>458.0</ele><time>2026-04-11T10:37:20.946Z</time></trkpt><trkpt lat="40.2426113" lon="15.0868076"><ele>457.99999999999994</ele><time>2026-04-11T10:37:21.946Z</time></trkpt><trkpt lat="40.2425235" lon="15.0867419"><ele>457.99999999999994</ele><time>2026-04-11T10:37:22.943Z</time></trkpt><trkpt lat="40.2424442" lon="15.0866594"><ele>458.0</ele><time>2026-04-11T10:37:23.946Z</time></trkpt><trkpt lat="40.2423727" lon="15.0865554"><ele>458.0</ele><time>2026-04-11T10:37:24.948Z</time></trkpt><trkpt lat="40.2423125" lon="15.0864312"><ele>456.59999999999997</ele><time>2026-04-11T10:37:25.945Z</time></trkpt><trkpt lat="40.2422638" lon="15.0863069"><ele>455.19999999999993</ele><time>2026-04-11T10:37:26.958Z</time></trkpt><trkpt lat="40.2422048" lon="15.0861937"><ele>453.8</ele><time>2026-04-11T10:37:27.941Z</time></trkpt><trkpt lat="40.242127" lon="15.0861108"><ele>452.4</ele><time>2026-04-11T10:37:28.941Z</time></trkpt><trkpt lat="40.242025" lon="15.0860478"><ele>451.0</ele><time>2026-04-11T10:37:29.948Z</time></trkpt><trkpt lat="40.2419105" lon="15.0859819"><ele>451.0</ele><time>2026-04-11T10:37:30.946Z</time></trkpt><trkpt lat="40.2418155" lon="15.0859311"><ele>451.0</ele><time>2026-04-11T10:37:31.947Z</time></trkpt><trkpt lat="40.2417488" lon="15.085869"><ele>451.0</ele><time>2026-04-11T10:37:32.945Z</time></trkpt><trkpt lat="40.2416858" lon="15.0858037"><ele>451.0</ele><time>2026-04-11T10:37:33.943Z</time></trkpt><trkpt lat="40.2416211" lon="15.0857181"><ele>451.0</ele><time>2026-04-11T10:37:34.945Z</time></trkpt><trkpt lat="40.2415517" lon="15.0856071"><ele>451.25</ele><time>2026-04-11T10:37:35.959Z</time></trkpt><trkpt lat="40.2414761" lon="15.0854893"><ele>451.5</ele><time>2026-04-11T10:37:36.947Z</time></trkpt><trkpt lat="40.2413872" lon="15.0853701"><ele>451.75</ele><time>2026-04-11T10:37:37.951Z</time></trkpt><trkpt lat="40.2413096" lon="15.0852669"><ele>452.0</ele><time>2026-04-11T10:37:38.935Z</time></trkpt><trkpt lat="40.2412196" lon="15.0851853"><ele>452.0</ele><time>2026-04-11T10:37:39.948Z</time></trkpt><trkpt lat="40.2411202" lon="15.0851336"><ele>452.0</ele><time>2026-04-11T10:37:40.943Z</time></trkpt><trkpt lat="40.2410082" lon="15.0851053"><ele>452.0</ele><time>2026-04-11T10:37:41.937Z</time></trkpt><trkpt lat="40.2408865" lon="15.0850965"><ele>452.0</ele><time>2026-04-11T10:37:42.951Z</time></trkpt><trkpt lat="40.2407713" lon="15.085112"><ele>452.0</ele><time>2026-04-11T10:37:43.94Z</time></trkpt><trkpt lat="40.2406913" lon="15.0851411"><ele>452.00000000000006</ele><time>2026-04-11T10:37:44.947Z</time></trkpt><trkpt lat="40.2406316" lon="15.0851846"><ele>452.00000000000006</ele><time>2026-04-11T10:37:45.946Z</time></trkpt><trkpt lat="40.2405831" lon="15.08528"><ele>452.0</ele><time>2026-04-11T10:37:46.934Z</time></trkpt><trkpt lat="40.2405486" lon="15.085408"><ele>452.0</ele><time>2026-04-11T10:37:47.938Z</time></trkpt><trkpt lat="40.2405183" lon="15.0855476"><ele>450.5</ele><time>2026-04-11T10:37:48.932Z</time></trkpt><trkpt lat="40.2404727" lon="15.0856708"><ele>449.0</ele><time>2026-04-11T10:37:49.952Z</time></trkpt><trkpt lat="40.2404072" lon="15.0857756"><ele>447.5</ele><time>2026-04-11T10:37:50.952Z</time></trkpt><trkpt lat="40.2403212" lon="15.0858794"><ele>446.0</ele><time>2026-04-11T10:37:51.945Z</time></trkpt><trkpt lat="40.240222" lon="15.0859837"><ele>446.0</ele><time>2026-04-11T10:37:52.939Z</time></trkpt><trkpt lat="40.2401165" lon="15.0860909"><ele>446.0</ele><time>2026-04-11T10:37:53.945Z</time></trkpt><trkpt lat="40.2400218" lon="15.0861905"><ele>446.0</ele><time>2026-04-11T10:37:54.948Z</time></trkpt><trkpt lat="40.2399318" lon="15.0862688"><ele>446.0</ele><time>2026-04-11T10:37:55.935Z</time></trkpt><trkpt lat="40.2398461" lon="15.0863112"><ele>449.4</ele><time>2026-04-11T10:37:56.954Z</time></trkpt><trkpt lat="40.2397717" lon="15.0863386"><ele>452.8</ele><time>2026-04-11T10:37:57.948Z</time></trkpt><trkpt lat="40.2397063" lon="15.086352"><ele>456.19999999999993</ele><time>2026-04-11T10:37:58.942Z</time></trkpt><trkpt lat="40.2396171" lon="15.0863665"><ele>459.59999999999997</ele><time>2026-04-11T10:38:00.948Z</time></trkpt><trkpt lat="40.239488" lon="15.0863931"><ele>463.0</ele><time>2026-04-11T10:38:02.938Z</time></trkpt><trkpt lat="40.2393937" lon="15.0864272"><ele>463.0</ele><time>2026-04-11T10:38:03.947Z</time></trkpt><trkpt lat="40.2392947" lon="15.0864724"><ele>463.0</ele><time>2026-04-11T10:38:04.959Z</time></trkpt><trkpt lat="40.239181" lon="15.0865502"><ele>463.0</ele><time>2026-04-11T10:38:05.955Z</time></trkpt><trkpt lat="40.2390712" lon="15.0866397"><ele>463.0</ele><time>2026-04-11T10:38:06.944Z</time></trkpt><trkpt lat="40.2389691" lon="15.0867221"><ele>459.79999999999995</ele><time>2026-04-11T10:38:07.941Z</time></trkpt><trkpt lat="40.2388809" lon="15.0867787"><ele>456.59999999999997</ele><time>2026-04-11T10:38:08.94Z</time></trkpt><trkpt lat="40.2387808" lon="15.0868098"><ele>453.40000000000003</ele><time>2026-04-11T10:38:09.939Z</time></trkpt><trkpt lat="40.2386727" lon="15.0868128"><ele>450.20000000000005</ele><time>2026-04-11T10:38:10.947Z</time></trkpt><trkpt lat="40.2385458" lon="15.0867907"><ele>447.0</ele><time>2026-04-11T10:38:11.933Z</time></trkpt><trkpt lat="40.2384064" lon="15.0867616"><ele>447.0</ele><time>2026-04-11T10:38:12.953Z</time></trkpt><trkpt lat="40.2382557" lon="15.0867181"><ele>447.0</ele><time>2026-04-11T10:38:13.954Z</time></trkpt><trkpt lat="40.2381002" lon="15.0866689"><ele>447.0</ele><time>2026-04-11T10:38:14.949Z</time></trkpt><trkpt lat="40.2379514" lon="15.0866226"><ele>453.75</ele><time>2026-04-11T10:38:15.952Z</time></trkpt><trkpt lat="40.237813" lon="15.086574"><ele>460.5</ele><time>2026-04-11T10:38:16.939Z</time></trkpt><trkpt lat="40.2376848" lon="15.0865254"><ele>467.25</ele><time>2026-04-11T10:38:17.95Z</time></trkpt><trkpt lat="40.2375739" lon="15.0864967"><ele>474.0</ele><time>2026-04-11T10:38:18.946Z</time></trkpt><trkpt lat="40.2374473" lon="15.0865022"><ele>474.0</ele><time>2026-04-11T10:38:19.944Z</time></trkpt><trkpt lat="40.2373025" lon="15.0865287"><ele>474.0</ele><time>2026-04-11T10:38:20.952Z</time></trkpt><trkpt lat="40.2371661" lon="15.0865487"><ele>474.0</ele><time>2026-04-11T10:38:21.947Z</time></trkpt><trkpt lat="40.2370308" lon="15.0865751"><ele>474.0</ele><time>2026-04-11T10:38:22.943Z</time></trkpt><trkpt lat="40.2369202" lon="15.0865925"><ele>472.4</ele><time>2026-04-11T10:38:23.936Z</time></trkpt><trkpt lat="40.2368432" lon="15.0866191"><ele>470.79999999999995</ele><time>2026-04-11T10:38:24.931Z</time></trkpt><trkpt lat="40.2367699" lon="15.0866912"><ele>469.20000000000005</ele><time>2026-04-11T10:38:25.94Z</time></trkpt><trkpt lat="40.2367185" lon="15.086805"><ele>467.6</ele><time>2026-04-11T10:38:26.922Z</time></trkpt><trkpt lat="40.2366718" lon="15.0869414"><ele>466.0</ele><time>2026-04-11T10:38:27.946Z</time></trkpt><trkpt lat="40.2366253" lon="15.0870955"><ele>466.0</ele><time>2026-04-11T10:38:28.949Z</time></trkpt><trkpt lat="40.2365767" lon="15.0872518"><ele>466.0</ele><time>2026-04-11T10:38:29.947Z</time></trkpt><trkpt lat="40.2365224" lon="15.0873859"><ele>466.0</ele><time>2026-04-11T10:38:30.945Z</time></trkpt><trkpt lat="40.236461" lon="15.0874863"><ele>466.0</ele><time>2026-04-11T10:38:31.951Z</time></trkpt><trkpt lat="40.2363878" lon="15.0875751"><ele>466.0</ele><time>2026-04-11T10:38:32.946Z</time></trkpt><trkpt lat="40.2363018" lon="15.0876675"><ele>468.20000000000005</ele><time>2026-04-11T10:38:33.95Z</time></trkpt><trkpt lat="40.236214" lon="15.0877623"><ele>470.40000000000003</ele><time>2026-04-11T10:38:34.949Z</time></trkpt><trkpt lat="40.236125" lon="15.0878609"><ele>472.6</ele><time>2026-04-11T10:38:35.939Z</time></trkpt><trkpt lat="40.2360529" lon="15.087932"><ele>474.8</ele><time>2026-04-11T10:38:36.963Z</time></trkpt><trkpt lat="40.235994" lon="15.0879747"><ele>477.0</ele><time>2026-04-11T10:38:37.939Z</time></trkpt><trkpt lat="40.2359277" lon="15.087992"><ele>477.0</ele><time>2026-04-11T10:38:38.942Z</time></trkpt><trkpt lat="40.2358546" lon="15.0879735"><ele>477.00000000000006</ele><time>2026-04-11T10:38:39.943Z</time></trkpt><trkpt lat="40.2357889" lon="15.0879158"><ele>477.00000000000006</ele><time>2026-04-11T10:38:40.936Z</time></trkpt><trkpt lat="40.2357254" lon="15.0878272"><ele>477.0</ele><time>2026-04-11T10:38:41.95Z</time></trkpt><trkpt lat="40.2356559" lon="15.0877107"><ele>477.0</ele><time>2026-04-11T10:38:42.929Z</time></trkpt><trkpt lat="40.2355756" lon="15.0875838"><ele>476.75</ele><time>2026-04-11T10:38:43.965Z</time></trkpt><trkpt lat="40.2354885" lon="15.0874423"><ele>476.5</ele><time>2026-04-11T10:38:44.945Z</time></trkpt><trkpt lat="40.2354143" lon="15.0872996"><ele>476.25</ele><time>2026-04-11T10:38:45.931Z</time></trkpt><trkpt lat="40.2353536" lon="15.0871416"><ele>476.0</ele><time>2026-04-11T10:38:46.943Z</time></trkpt><trkpt lat="40.2353027" lon="15.0869633"><ele>476.0</ele><time>2026-04-11T10:38:47.922Z</time></trkpt><trkpt lat="40.2352552" lon="15.0867851"><ele>476.0</ele><time>2026-04-11T10:38:48.946Z</time></trkpt><trkpt lat="40.2352053" lon="15.0866071"><ele>476.0</ele><time>2026-04-11T10:38:49.923Z</time></trkpt><trkpt lat="40.2351592" lon="15.0864318"><ele>476.0</ele><time>2026-04-11T10:38:50.945Z</time></trkpt><trkpt lat="40.2351067" lon="15.0862544"><ele>480.4</ele><time>2026-04-11T10:38:51.953Z</time></trkpt><trkpt lat="40.2350602" lon="15.0861119"><ele>484.8</ele><time>2026-04-11T10:38:52.919Z</time></trkpt><trkpt lat="40.235025" lon="15.0860093"><ele>489.19999999999993</ele><time>2026-04-11T10:38:53.922Z</time></trkpt><trkpt lat="40.2349279" lon="15.0859015"><ele>493.59999999999997</ele><time>2026-04-11T10:38:55.923Z</time></trkpt><trkpt lat="40.2348595" lon="15.085886"><ele>498.0</ele><time>2026-04-11T10:38:56.922Z</time></trkpt><trkpt lat="40.2347926" lon="15.0858957"><ele>499.79999999999995</ele><time>2026-04-11T10:38:57.943Z</time></trkpt><trkpt lat="40.234723" lon="15.0859564"><ele>501.59999999999997</ele><time>2026-04-11T10:38:58.949Z</time></trkpt><trkpt lat="40.2346563" lon="15.0860386"><ele>503.40000000000003</ele><time>2026-04-11T10:38:59.926Z</time></trkpt><trkpt lat="40.2345748" lon="15.0861424"><ele>505.20000000000005</ele><time>2026-04-11T10:39:00.949Z</time></trkpt><trkpt lat="40.2344835" lon="15.0862167"><ele>507.0</ele><time>2026-04-11T10:39:01.931Z</time></trkpt><trkpt lat="40.2343729" lon="15.0862789"><ele>507.0</ele><time>2026-04-11T10:39:02.932Z</time></trkpt><trkpt lat="40.2342861" lon="15.0863655"><ele>507.00000000000006</ele><time>2026-04-11T10:39:03.933Z</time></trkpt><trkpt lat="40.2342413" lon="15.0864977"><ele>507.00000000000006</ele><time>2026-04-11T10:39:04.949Z</time></trkpt><trkpt lat="40.2342089" lon="15.086631"><ele>507.0</ele><time>2026-04-11T10:39:05.922Z</time></trkpt><trkpt lat="40.2341605" lon="15.086725"><ele>507.0</ele><time>2026-04-11T10:39:06.933Z</time></trkpt><trkpt lat="40.2340901" lon="15.0867949"><ele>504.75</ele><time>2026-04-11T10:39:07.928Z</time></trkpt><trkpt lat="40.2339869" lon="15.0868258"><ele>502.5</ele><time>2026-04-11T10:39:08.934Z</time></trkpt><trkpt lat="40.2338658" lon="15.0868417"><ele>500.25</ele><time>2026-04-11T10:39:09.926Z</time></trkpt><trkpt lat="40.2337509" lon="15.0868943"><ele>498.0</ele><time>2026-04-11T10:39:10.935Z</time></trkpt><trkpt lat="40.2336639" lon="15.0869698"><ele>498.0</ele><time>2026-04-11T10:39:11.926Z</time></trkpt><trkpt lat="40.2336041" lon="15.0870665"><ele>498.0</ele><time>2026-04-11T10:39:12.929Z</time></trkpt><trkpt lat="40.2335517" lon="15.0871535"><ele>498.0</ele><time>2026-04-11T10:39:13.933Z</time></trkpt><trkpt lat="40.2334841" lon="15.0871904"><ele>498.0</ele><time>2026-04-11T10:39:14.925Z</time></trkpt><trkpt lat="40.2334205" lon="15.087189"><ele>498.0</ele><time>2026-04-11T10:39:15.946Z</time></trkpt><trkpt lat="40.2333488" lon="15.0871429"><ele>498.0</ele><time>2026-04-11T10:39:16.947Z</time></trkpt><trkpt lat="40.2332817" lon="15.0870633"><ele>498.0</ele><time>2026-04-11T10:39:17.941Z</time></trkpt><trkpt lat="40.2332081" lon="15.0869525"><ele>498.0</ele><time>2026-04-11T10:39:18.941Z</time></trkpt><trkpt lat="40.2331326" lon="15.0868207"><ele>498.0</ele><time>2026-04-11T10:39:19.945Z</time></trkpt><trkpt lat="40.2330571" lon="15.0866759"><ele>498.0</ele><time>2026-04-11T10:39:20.933Z</time></trkpt><trkpt lat="40.2329644" lon="15.086515"><ele>502.0</ele><time>2026-04-11T10:39:21.93Z</time></trkpt><trkpt lat="40.2328717" lon="15.0863636"><ele>506.0</ele><time>2026-04-11T10:39:22.935Z</time></trkpt><trkpt lat="40.2327902" lon="15.0862596"><ele>510.0</ele><time>2026-04-11T10:39:23.941Z</time></trkpt><trkpt lat="40.2327059" lon="15.0861834"><ele>514.0</ele><time>2026-04-11T10:39:24.941Z</time></trkpt><trkpt lat="40.2326156" lon="15.0861358"><ele>514.0</ele><time>2026-04-11T10:39:25.941Z</time></trkpt><trkpt lat="40.2325233" lon="15.0861183"><ele>514.0</ele><time>2026-04-11T10:39:26.927Z</time></trkpt><trkpt lat="40.2324182" lon="15.0861424"><ele>514.0</ele><time>2026-04-11T10:39:27.934Z</time></trkpt><trkpt lat="40.2323073" lon="15.0862068"><ele>514.0</ele><time>2026-04-11T10:39:28.95Z</time></trkpt><trkpt lat="40.2321794" lon="15.0862833"><ele>516.0</ele><time>2026-04-11T10:39:29.957Z</time></trkpt><trkpt lat="40.2320505" lon="15.0863474"><ele>518.0</ele><time>2026-04-11T10:39:30.949Z</time></trkpt><trkpt lat="40.2319146" lon="15.0864114"><ele>520.0</ele><time>2026-04-11T10:39:31.943Z</time></trkpt><trkpt lat="40.231784" lon="15.086502"><ele>522.0</ele><time>2026-04-11T10:39:32.947Z</time></trkpt><trkpt lat="40.2316873" lon="15.0865894"><ele>517.4</ele><time>2026-04-11T10:39:33.95Z</time></trkpt><trkpt lat="40.2316044" lon="15.0866418"><ele>512.8000000000001</ele><time>2026-04-11T10:39:34.943Z</time></trkpt><trkpt lat="40.2315383" lon="15.0866603"><ele>508.2</ele><time>2026-04-11T10:39:35.94Z</time></trkpt><trkpt lat="40.2314392" lon="15.0865915"><ele>503.6</ele><time>2026-04-11T10:39:37.954Z</time></trkpt><trkpt lat="40.2313977" lon="15.0864967"><ele>499.0</ele><time>2026-04-11T10:39:38.938Z</time></trkpt><trkpt lat="40.231363" lon="15.0863763"><ele>499.0</ele><time>2026-04-11T10:39:39.931Z</time></trkpt><trkpt lat="40.231323" lon="15.0862324"><ele>499.0</ele><time>2026-04-11T10:39:40.949Z</time></trkpt><trkpt lat="40.2312615" lon="15.0861054"><ele>499.0</ele><time>2026-04-11T10:39:41.941Z</time></trkpt><trkpt lat="40.2311701" lon="15.0859891"><ele>499.0</ele><time>2026-04-11T10:39:42.944Z</time></trkpt><trkpt lat="40.2310678" lon="15.0858932"><ele>499.0</ele><time>2026-04-11T10:39:43.941Z</time></trkpt><trkpt lat="40.230984" lon="15.0858036"><ele>499.0</ele><time>2026-04-11T10:39:44.945Z</time></trkpt><trkpt lat="40.2309145" lon="15.0856906"><ele>499.0</ele><time>2026-04-11T10:39:45.941Z</time></trkpt><trkpt lat="40.2308597" lon="15.0855473"><ele>499.0</ele><time>2026-04-11T10:39:46.944Z</time></trkpt><trkpt lat="40.2308242" lon="15.0854001"><ele>502.5</ele><time>2026-04-11T10:39:47.947Z</time></trkpt><trkpt lat="40.2308169" lon="15.0852397"><ele>506.0</ele><time>2026-04-11T10:39:48.965Z</time></trkpt><trkpt lat="40.2308181" lon="15.085083"><ele>509.5</ele><time>2026-04-11T10:39:49.94Z</time></trkpt><trkpt lat="40.2308104" lon="15.084929"><ele>513.0</ele><time>2026-04-11T10:39:50.951Z</time></trkpt><trkpt lat="40.2307804" lon="15.0847747"><ele>511.5</ele><time>2026-04-11T10:39:51.937Z</time></trkpt><trkpt lat="40.230718" lon="15.0846197"><ele>510.0</ele><time>2026-04-11T10:39:52.943Z</time></trkpt><trkpt lat="40.23063" lon="15.0844688"><ele>508.5</ele><time>2026-04-11T10:39:53.938Z</time></trkpt><trkpt lat="40.230529" lon="15.084321"><ele>507.0</ele><time>2026-04-11T10:39:54.96Z</time></trkpt><trkpt lat="40.2304234" lon="15.0841852"><ele>511.0</ele><time>2026-04-11T10:39:55.943Z</time></trkpt><trkpt lat="40.230334" lon="15.0840579"><ele>515.0</ele><time>2026-04-11T10:39:56.943Z</time></trkpt><trkpt lat="40.2302585" lon="15.0839369"><ele>519.0</ele><time>2026-04-11T10:39:57.949Z</time></trkpt><trkpt lat="40.2301773" lon="15.0838134"><ele>523.0</ele><time>2026-04-11T10:39:58.948Z</time></trkpt><trkpt lat="40.2301053" lon="15.083663"><ele>523.0</ele><time>2026-04-11T10:39:59.937Z</time></trkpt><trkpt lat="40.2300301" lon="15.0835189"><ele>523.0</ele><time>2026-04-11T10:40:00.947Z</time></trkpt><trkpt lat="40.2299613" lon="15.0833974"><ele>523.0</ele><time>2026-04-11T10:40:01.956Z</time></trkpt><trkpt lat="40.2299029" lon="15.0832647"><ele>523.0</ele><time>2026-04-11T10:40:02.943Z</time></trkpt><trkpt lat="40.2298559" lon="15.0830899"><ele>525.25</ele><time>2026-04-11T10:40:03.946Z</time></trkpt><trkpt lat="40.2298196" lon="15.0829032"><ele>527.5</ele><time>2026-04-11T10:40:04.94Z</time></trkpt><trkpt lat="40.2297881" lon="15.0827202"><ele>529.75</ele><time>2026-04-11T10:40:05.944Z</time></trkpt><trkpt lat="40.2297547" lon="15.0825474"><ele>532.0</ele><time>2026-04-11T10:40:06.955Z</time></trkpt><trkpt lat="40.2296981" lon="15.0823851"><ele>526.25</ele><time>2026-04-11T10:40:07.954Z</time></trkpt><trkpt lat="40.2296421" lon="15.0822327"><ele>520.5</ele><time>2026-04-11T10:40:08.942Z</time></trkpt><trkpt lat="40.2295955" lon="15.082088"><ele>514.75</ele><time>2026-04-11T10:40:09.951Z</time></trkpt><trkpt lat="40.2295655" lon="15.08194"><ele>509.0</ele><time>2026-04-11T10:40:10.935Z</time></trkpt><trkpt lat="40.2295572" lon="15.0817984"><ele>508.99999999999994</ele><time>2026-04-11T10:40:11.951Z</time></trkpt><trkpt lat="40.2295655" lon="15.0816706"><ele>509.0</ele><time>2026-04-11T10:40:12.949Z</time></trkpt><trkpt lat="40.2295793" lon="15.0815595"><ele>509.0</ele><time>2026-04-11T10:40:13.951Z</time></trkpt><trkpt lat="40.229617" lon="15.0814693"><ele>509.0</ele><time>2026-04-11T10:40:14.941Z</time></trkpt><trkpt lat="40.2296813" lon="15.0813974"><ele>508.99999999999994</ele><time>2026-04-11T10:40:15.953Z</time></trkpt><trkpt lat="40.2297711" lon="15.0813324"><ele>509.0</ele><time>2026-04-11T10:40:16.943Z</time></trkpt><trkpt lat="40.2298549" lon="15.0812745"><ele>513.8</ele><time>2026-04-11T10:40:17.938Z</time></trkpt><trkpt lat="40.2299061" lon="15.081217"><ele>518.5999999999999</ele><time>2026-04-11T10:40:18.943Z</time></trkpt><trkpt lat="40.2299288" lon="15.081064"><ele>523.4</ele><time>2026-04-11T10:40:20.943Z</time></trkpt><trkpt lat="40.2298991" lon="15.0809644"><ele>528.1999999999999</ele><time>2026-04-11T10:40:21.942Z</time></trkpt><trkpt lat="40.2298628" lon="15.0808437"><ele>533.0</ele><time>2026-04-11T10:40:22.933Z</time></trkpt><trkpt lat="40.229826" lon="15.0806942"><ele>534.0</ele><time>2026-04-11T10:40:23.936Z</time></trkpt><trkpt lat="40.2297936" lon="15.0805447"><ele>535.0</ele><time>2026-04-11T10:40:24.945Z</time></trkpt><trkpt lat="40.2297709" lon="15.0804078"><ele>536.0</ele><time>2026-04-11T10:40:25.957Z</time></trkpt><trkpt lat="40.2297562" lon="15.0802834"><ele>537.0</ele><time>2026-04-11T10:40:26.938Z</time></trkpt><trkpt lat="40.2297588" lon="15.0801709"><ele>538.0</ele><time>2026-04-11T10:40:27.939Z</time></trkpt><trkpt lat="40.2297624" lon="15.0800619"><ele>538.0</ele><time>2026-04-11T10:40:28.939Z</time></trkpt><trkpt lat="40.2297337" lon="15.0799858"><ele>538.0</ele><time>2026-04-11T10:40:29.941Z</time></trkpt><trkpt lat="40.2296746" lon="15.0799306"><ele>538.0</ele><time>2026-04-11T10:40:30.937Z</time></trkpt><trkpt lat="40.2296072" lon="15.0799252"><ele>538.0</ele><time>2026-04-11T10:40:31.95Z</time></trkpt><trkpt lat="40.229527" lon="15.0799425"><ele>538.0</ele><time>2026-04-11T10:40:32.937Z</time></trkpt><trkpt lat="40.2294414" lon="15.0800069"><ele>538.0</ele><time>2026-04-11T10:40:33.945Z</time></trkpt><trkpt lat="40.2293402" lon="15.0800874"><ele>538.0</ele><time>2026-04-11T10:40:34.945Z</time></trkpt><trkpt lat="40.2292379" lon="15.0801731"><ele>538.0</ele><time>2026-04-11T10:40:35.951Z</time></trkpt><trkpt lat="40.2291355" lon="15.0802516"><ele>538.0</ele><time>2026-04-11T10:40:36.944Z</time></trkpt><trkpt lat="40.2290373" lon="15.0803298"><ele>538.0</ele><time>2026-04-11T10:40:37.936Z</time></trkpt><trkpt lat="40.2289372" lon="15.0803806"><ele>540.0</ele><time>2026-04-11T10:40:38.951Z</time></trkpt><trkpt lat="40.2288274" lon="15.0804028"><ele>542.0</ele><time>2026-04-11T10:40:39.931Z</time></trkpt><trkpt lat="40.228714" lon="15.0804106"><ele>544.0</ele><time>2026-04-11T10:40:40.936Z</time></trkpt><trkpt lat="40.228595" lon="15.0804065"><ele>546.0</ele><time>2026-04-11T10:40:41.939Z</time></trkpt><trkpt lat="40.2284867" lon="15.0804106"><ele>546.0</ele><time>2026-04-11T10:40:42.938Z</time></trkpt><trkpt lat="40.228392" lon="15.0804196"><ele>546.0</ele><time>2026-04-11T10:40:43.943Z</time></trkpt><trkpt lat="40.2283053" lon="15.0804614"><ele>546.0</ele><time>2026-04-11T10:40:44.939Z</time></trkpt><trkpt lat="40.228226" lon="15.0805282"><ele>546.0</ele><time>2026-04-11T10:40:45.938Z</time></trkpt><trkpt lat="40.2281621" lon="15.0806077"><ele>546.0</ele><time>2026-04-11T10:40:46.942Z</time></trkpt><trkpt lat="40.2280897" lon="15.0806692"><ele>547.0</ele><time>2026-04-11T10:40:47.933Z</time></trkpt><trkpt lat="40.2280133" lon="15.0807244"><ele>548.0</ele><time>2026-04-11T10:40:48.952Z</time></trkpt><trkpt lat="40.2279212" lon="15.0807546"><ele>549.0</ele><time>2026-04-11T10:40:49.95Z</time></trkpt><trkpt lat="40.2278338" lon="15.0807298"><ele>550.0</ele><time>2026-04-11T10:40:50.944Z</time></trkpt><trkpt lat="40.2277423" lon="15.0806763"><ele>551.0</ele><time>2026-04-11T10:40:51.946Z</time></trkpt><trkpt lat="40.227662" lon="15.0806223"><ele>551.0</ele><time>2026-04-11T10:40:52.946Z</time></trkpt><trkpt lat="40.227587" lon="15.0805887"><ele>551.0</ele><time>2026-04-11T10:40:53.948Z</time></trkpt><trkpt lat="40.227517" lon="15.0806328"><ele>551.0</ele><time>2026-04-11T10:40:54.95Z</time></trkpt><trkpt lat="40.2274643" lon="15.080763"><ele>551.0</ele><time>2026-04-11T10:40:55.936Z</time></trkpt><trkpt lat="40.2274167" lon="15.0808801"><ele>551.0</ele><time>2026-04-11T10:40:56.945Z</time></trkpt><trkpt lat="40.2273383" lon="15.0809929"><ele>553.5</ele><time>2026-04-11T10:40:57.946Z</time></trkpt><trkpt lat="40.2272231" lon="15.0811006"><ele>556.0</ele><time>2026-04-11T10:40:58.94Z</time></trkpt><trkpt lat="40.2271042" lon="15.0812161"><ele>558.5</ele><time>2026-04-11T10:40:59.949Z</time></trkpt><trkpt lat="40.2269853" lon="15.0813499"><ele>561.0</ele><time>2026-04-11T10:41:00.935Z</time></trkpt><trkpt lat="40.2268555" lon="15.0814823"><ele>561.0</ele><time>2026-04-11T10:41:01.945Z</time></trkpt><trkpt lat="40.2267138" lon="15.0815932"><ele>561.0</ele><time>2026-04-11T10:41:02.941Z</time></trkpt><trkpt lat="40.226579" lon="15.0816984"><ele>561.0</ele><time>2026-04-11T10:41:03.938Z</time></trkpt><trkpt lat="40.2264582" lon="15.0817942"><ele>556.4</ele><time>2026-04-11T10:41:04.943Z</time></trkpt><trkpt lat="40.226359" lon="15.0818913"><ele>551.8</ele><time>2026-04-11T10:41:05.942Z</time></trkpt><trkpt lat="40.2262691" lon="15.0819663"><ele>547.1999999999999</ele><time>2026-04-11T10:41:06.952Z</time></trkpt><trkpt lat="40.2261937" lon="15.0820138"><ele>542.6</ele><time>2026-04-11T10:41:07.936Z</time></trkpt><trkpt lat="40.2261241" lon="15.0820287"><ele>538.0</ele><time>2026-04-11T10:41:08.951Z</time></trkpt><trkpt lat="40.2260547" lon="15.0820066"><ele>538.0</ele><time>2026-04-11T10:41:09.947Z</time></trkpt><trkpt lat="40.2259869" lon="15.0819447"><ele>538.0</ele><time>2026-04-11T10:41:10.941Z</time></trkpt><trkpt lat="40.225915" lon="15.0818375"><ele>538.0</ele><time>2026-04-11T10:41:11.939Z</time></trkpt><trkpt lat="40.2258424" lon="15.0817302"><ele>538.0</ele><time>2026-04-11T10:41:12.947Z</time></trkpt><trkpt lat="40.2257802" lon="15.0816462"><ele>538.0</ele><time>2026-04-11T10:41:13.942Z</time></trkpt><trkpt lat="40.2257203" lon="15.0815869"><ele>536.6</ele><time>2026-04-11T10:41:14.957Z</time></trkpt><trkpt lat="40.2255974" lon="15.0815697"><ele>535.1999999999999</ele><time>2026-04-11T10:41:16.948Z</time></trkpt><trkpt lat="40.2255177" lon="15.0816347"><ele>533.8</ele><time>2026-04-11T10:41:17.942Z</time></trkpt><trkpt lat="40.2254566" lon="15.0816998"><ele>532.4</ele><time>2026-04-11T10:41:18.941Z</time></trkpt><trkpt lat="40.2253995" lon="15.0817554"><ele>531.0</ele><time>2026-04-11T10:41:19.943Z</time></trkpt><trkpt lat="40.2252748" lon="15.0817491"><ele>531.0</ele><time>2026-04-11T10:41:21.949Z</time></trkpt><trkpt lat="40.2252058" lon="15.081702"><ele>531.0</ele><time>2026-04-11T10:41:22.943Z</time></trkpt><trkpt lat="40.2251503" lon="15.0816211"><ele>531.0</ele><time>2026-04-11T10:41:23.954Z</time></trkpt><trkpt lat="40.2250997" lon="15.0815243"><ele>531.0</ele><time>2026-04-11T10:41:24.95Z</time></trkpt><trkpt lat="40.2250291" lon="15.081434"><ele>531.0</ele><time>2026-04-11T10:41:25.938Z</time></trkpt><trkpt lat="40.2249456" lon="15.0813515"><ele>535.2</ele><time>2026-04-11T10:41:26.949Z</time></trkpt><trkpt lat="40.2248436" lon="15.0812839"><ele>539.4000000000001</ele><time>2026-04-11T10:41:27.933Z</time></trkpt><trkpt lat="40.2247369" lon="15.081249"><ele>543.6</ele><time>2026-04-11T10:41:28.947Z</time></trkpt><trkpt lat="40.2246408" lon="15.0812378"><ele>547.8000000000001</ele><time>2026-04-11T10:41:29.948Z</time></trkpt><trkpt lat="40.2245371" lon="15.0812772"><ele>552.0</ele><time>2026-04-11T10:41:30.921Z</time></trkpt><trkpt lat="40.2244222" lon="15.0813326"><ele>552.0</ele><time>2026-04-11T10:41:31.945Z</time></trkpt><trkpt lat="40.2242903" lon="15.0813765"><ele>552.0</ele><time>2026-04-11T10:41:32.94Z</time></trkpt><trkpt lat="40.224151" lon="15.0814012"><ele>552.0</ele><time>2026-04-11T10:41:33.952Z</time></trkpt><trkpt lat="40.2240201" lon="15.0814188"><ele>552.0</ele><time>2026-04-11T10:41:34.946Z</time></trkpt><trkpt lat="40.2238928" lon="15.081419"><ele>550.5</ele><time>2026-04-11T10:41:35.95Z</time></trkpt><trkpt lat="40.2237655" lon="15.0813908"><ele>549.0</ele><time>2026-04-11T10:41:36.949Z</time></trkpt><trkpt lat="40.2236343" lon="15.0813544"><ele>547.5</ele><time>2026-04-11T10:41:37.94Z</time></trkpt><trkpt lat="40.2235068" lon="15.0813006"><ele>546.0</ele><time>2026-04-11T10:41:38.943Z</time></trkpt><trkpt lat="40.2233829" lon="15.0812297"><ele>546.0</ele><time>2026-04-11T10:41:39.944Z</time></trkpt><trkpt lat="40.2232648" lon="15.0811453"><ele>546.0</ele><time>2026-04-11T10:41:40.942Z</time></trkpt><trkpt lat="40.223155" lon="15.0810711"><ele>546.0</ele><time>2026-04-11T10:41:41.954Z</time></trkpt><trkpt lat="40.2230652" lon="15.0809913"><ele>546.0</ele><time>2026-04-11T10:41:42.942Z</time></trkpt><trkpt lat="40.2229848" lon="15.0809022"><ele>542.5</ele><time>2026-04-11T10:41:43.945Z</time></trkpt><trkpt lat="40.2229193" lon="15.0807962"><ele>539.0</ele><time>2026-04-11T10:41:44.939Z</time></trkpt><trkpt lat="40.2228592" lon="15.0806819"><ele>535.5</ele><time>2026-04-11T10:41:45.953Z</time></trkpt><trkpt lat="40.2227973" lon="15.0805332"><ele>532.0</ele><time>2026-04-11T10:41:46.941Z</time></trkpt><trkpt lat="40.2227277" lon="15.0803826"><ele>532.0</ele><time>2026-04-11T10:41:47.94Z</time></trkpt><trkpt lat="40.22266" lon="15.0802213"><ele>532.0</ele><time>2026-04-11T10:41:48.95Z</time></trkpt><trkpt lat="40.2226028" lon="15.0800632"><ele>532.0</ele><time>2026-04-11T10:41:49.946Z</time></trkpt><trkpt lat="40.2225531" lon="15.0799279"><ele>532.0</ele><time>2026-04-11T10:41:50.941Z</time></trkpt><trkpt lat="40.2224836" lon="15.0798261"><ele>537.5</ele><time>2026-04-11T10:41:51.943Z</time></trkpt><trkpt lat="40.2223999" lon="15.0797421"><ele>543.0</ele><time>2026-04-11T10:41:52.937Z</time></trkpt><trkpt lat="40.2222986" lon="15.0796797"><ele>548.5</ele><time>2026-04-11T10:41:53.945Z</time></trkpt><trkpt lat="40.2221925" lon="15.0796143"><ele>554.0</ele><time>2026-04-11T10:41:54.95Z</time></trkpt><trkpt lat="40.222103" lon="15.0795185"><ele>554.0</ele><time>2026-04-11T10:41:55.967Z</time></trkpt><trkpt lat="40.2220339" lon="15.0794428"><ele>554.0</ele><time>2026-04-11T10:41:56.942Z</time></trkpt><trkpt lat="40.2219623" lon="15.0793906"><ele>554.0</ele><time>2026-04-11T10:41:57.95Z</time></trkpt><trkpt lat="40.2218792" lon="15.0794124"><ele>554.0</ele><time>2026-04-11T10:41:58.946Z</time></trkpt><trkpt lat="40.2217919" lon="15.0794492"><ele>554.0</ele><time>2026-04-11T10:41:59.93Z</time></trkpt><trkpt lat="40.2216946" lon="15.0795163"><ele>554.0</ele><time>2026-04-11T10:42:00.939Z</time></trkpt><trkpt lat="40.2216181" lon="15.0796041"><ele>554.0</ele><time>2026-04-11T10:42:01.939Z</time></trkpt><trkpt lat="40.2215505" lon="15.07971"><ele>554.0</ele><time>2026-04-11T10:42:02.941Z</time></trkpt><trkpt lat="40.2214889" lon="15.0798521"><ele>554.0</ele><time>2026-04-11T10:42:03.945Z</time></trkpt><trkpt lat="40.2214311" lon="15.0799921"><ele>555.0</ele><time>2026-04-11T10:42:04.932Z</time></trkpt><trkpt lat="40.2213687" lon="15.0801071"><ele>556.0</ele><time>2026-04-11T10:42:05.932Z</time></trkpt><trkpt lat="40.2212891" lon="15.080203"><ele>557.0</ele><time>2026-04-11T10:42:06.927Z</time></trkpt><trkpt lat="40.2211848" lon="15.0802907"><ele>558.0</ele><time>2026-04-11T10:42:07.953Z</time></trkpt><trkpt lat="40.2210836" lon="15.0803877"><ele>558.0</ele><time>2026-04-11T10:42:08.948Z</time></trkpt><trkpt lat="40.2209968" lon="15.0805132"><ele>558.0</ele><time>2026-04-11T10:42:09.93Z</time></trkpt><trkpt lat="40.2209158" lon="15.0806649"><ele>558.0</ele><time>2026-04-11T10:42:10.941Z</time></trkpt><trkpt lat="40.2208384" lon="15.0808199"><ele>558.0</ele><time>2026-04-11T10:42:11.951Z</time></trkpt><trkpt lat="40.2207658" lon="15.0809495"><ele>556.8</ele><time>2026-04-11T10:42:12.948Z</time></trkpt><trkpt lat="40.2207056" lon="15.0810392"><ele>555.5999999999999</ele><time>2026-04-11T10:42:13.947Z</time></trkpt><trkpt lat="40.220634" lon="15.0810929"><ele>554.4000000000001</ele><time>2026-04-11T10:42:14.947Z</time></trkpt><trkpt lat="40.2205443" lon="15.0811518"><ele>553.2</ele><time>2026-04-11T10:42:15.942Z</time></trkpt><trkpt lat="40.2204642" lon="15.0812313"><ele>552.0</ele><time>2026-04-11T10:42:16.948Z</time></trkpt><trkpt lat="40.2204109" lon="15.0813349"><ele>552.0</ele><time>2026-04-11T10:42:17.945Z</time></trkpt><trkpt lat="40.2203713" lon="15.0814233"><ele>552.0</ele><time>2026-04-11T10:42:18.942Z</time></trkpt><trkpt lat="40.2202587" lon="15.0814605"><ele>552.0</ele><time>2026-04-11T10:42:20.948Z</time></trkpt><trkpt lat="40.2201802" lon="15.081416"><ele>552.0</ele><time>2026-04-11T10:42:21.955Z</time></trkpt><trkpt lat="40.2200979" lon="15.0813389"><ele>552.0</ele><time>2026-04-11T10:42:22.942Z</time></trkpt><trkpt lat="40.2200061" lon="15.0812666"><ele>552.0</ele><time>2026-04-11T10:42:23.942Z</time></trkpt><trkpt lat="40.2199014" lon="15.0812462"><ele>552.0</ele><time>2026-04-11T10:42:24.937Z</time></trkpt><trkpt lat="40.2197809" lon="15.08127"><ele>552.0</ele><time>2026-04-11T10:42:25.944Z</time></trkpt><trkpt lat="40.2196666" lon="15.0813108"><ele>552.0</ele><time>2026-04-11T10:42:26.933Z</time></trkpt><trkpt lat="40.2195506" lon="15.0813539"><ele>553.25</ele><time>2026-04-11T10:42:27.947Z</time></trkpt><trkpt lat="40.219449" lon="15.0814256"><ele>554.5</ele><time>2026-04-11T10:42:28.943Z</time></trkpt><trkpt lat="40.2193412" lon="15.0815352"><ele>555.75</ele><time>2026-04-11T10:42:29.942Z</time></trkpt><trkpt lat="40.2192358" lon="15.0816545"><ele>557.0</ele><time>2026-04-11T10:42:30.938Z</time></trkpt><trkpt lat="40.2191358" lon="15.0817639"><ele>555.4</ele><time>2026-04-11T10:42:31.947Z</time></trkpt><trkpt lat="40.2190558" lon="15.0818625"><ele>553.8000000000001</ele><time>2026-04-11T10:42:32.949Z</time></trkpt><trkpt lat="40.2189824" lon="15.0819491"><ele>552.2</ele><time>2026-04-11T10:42:33.947Z</time></trkpt><trkpt lat="40.218889" lon="15.0820141"><ele>550.6</ele><time>2026-04-11T10:42:34.95Z</time></trkpt><trkpt lat="40.2187827" lon="15.0820659"><ele>549.0</ele><time>2026-04-11T10:42:35.944Z</time></trkpt><trkpt lat="40.2186723" lon="15.0821152"><ele>549.0</ele><time>2026-04-11T10:42:36.942Z</time></trkpt><trkpt lat="40.2185714" lon="15.0822028"><ele>549.0</ele><time>2026-04-11T10:42:37.941Z</time></trkpt><trkpt lat="40.2184718" lon="15.0823294"><ele>549.0</ele><time>2026-04-11T10:42:38.955Z</time></trkpt><trkpt lat="40.218374" lon="15.0824822"><ele>549.0</ele><time>2026-04-11T10:42:39.937Z</time></trkpt><trkpt lat="40.2182951" lon="15.0826299"><ele>544.8</ele><time>2026-04-11T10:42:40.945Z</time></trkpt><trkpt lat="40.2182301" lon="15.0827536"><ele>540.5999999999999</ele><time>2026-04-11T10:42:41.942Z</time></trkpt><trkpt lat="40.2181558" lon="15.0828485"><ele>536.4</ele><time>2026-04-11T10:42:42.947Z</time></trkpt><trkpt lat="40.2180699" lon="15.0829346"><ele>532.1999999999999</ele><time>2026-04-11T10:42:43.934Z</time></trkpt><trkpt lat="40.217971" lon="15.0830223"><ele>528.0</ele><time>2026-04-11T10:42:44.933Z</time></trkpt><trkpt lat="40.2178862" lon="15.0830979"><ele>527.4</ele><time>2026-04-11T10:42:45.945Z</time></trkpt><trkpt lat="40.2178235" lon="15.0831576"><ele>526.8</ele><time>2026-04-11T10:42:46.932Z</time></trkpt><trkpt lat="40.2177174" lon="15.0831809"><ele>526.2</ele><time>2026-04-11T10:42:48.957Z</time></trkpt><trkpt lat="40.2176401" lon="15.083068"><ele>525.6</ele><time>2026-04-11T10:42:50.952Z</time></trkpt><trkpt lat="40.2176207" lon="15.0829607"><ele>525.0</ele><time>2026-04-11T10:42:51.953Z</time></trkpt><trkpt lat="40.2176007" lon="15.0828227"><ele>525.0</ele><time>2026-04-11T10:42:52.941Z</time></trkpt><trkpt lat="40.2175724" lon="15.0826773"><ele>525.0</ele><time>2026-04-11T10:42:53.945Z</time></trkpt><trkpt lat="40.2175162" lon="15.0825339"><ele>525.0</ele><time>2026-04-11T10:42:54.953Z</time></trkpt><trkpt lat="40.2174446" lon="15.0824003"><ele>525.0</ele><time>2026-04-11T10:42:55.942Z</time></trkpt><trkpt lat="40.2173863" lon="15.0822761"><ele>525.6</ele><time>2026-04-11T10:42:56.963Z</time></trkpt><trkpt lat="40.2173525" lon="15.082155"><ele>526.2</ele><time>2026-04-11T10:42:57.935Z</time></trkpt><trkpt lat="40.2173435" lon="15.0820262"><ele>526.8</ele><time>2026-04-11T10:42:58.935Z</time></trkpt><trkpt lat="40.2173459" lon="15.0818783"><ele>527.4</ele><time>2026-04-11T10:42:59.949Z</time></trkpt><trkpt lat="40.2173702" lon="15.0817197"><ele>528.0</ele><time>2026-04-11T10:43:00.95Z</time></trkpt><trkpt lat="40.217407" lon="15.0815468"><ele>524.3333333333334</ele><time>2026-04-11T10:43:01.962Z</time></trkpt><trkpt lat="40.2174632" lon="15.0813589"><ele>520.6666666666667</ele><time>2026-04-11T10:43:02.953Z</time></trkpt><trkpt lat="40.2175165" lon="15.0811532"><ele>517.0</ele><time>2026-04-11T10:43:03.937Z</time></trkpt><trkpt lat="40.2175722" lon="15.080939"><ele>511.6666666666667</ele><time>2026-04-11T10:43:04.939Z</time></trkpt><trkpt lat="40.2176315" lon="15.080727"><ele>506.33333333333337</ele><time>2026-04-11T10:43:05.945Z</time></trkpt><trkpt lat="40.2176911" lon="15.0805405"><ele>501.0</ele><time>2026-04-11T10:43:06.951Z</time></trkpt><trkpt lat="40.2177581" lon="15.0803635"><ele>501.0</ele><time>2026-04-11T10:43:07.959Z</time></trkpt><trkpt lat="40.2178364" lon="15.0801916"><ele>501.0</ele><time>2026-04-11T10:43:08.94Z</time></trkpt><trkpt lat="40.2179209" lon="15.0800176"><ele>501.0</ele><time>2026-04-11T10:43:09.939Z</time></trkpt><trkpt lat="40.218002" lon="15.079832"><ele>495.66666666666663</ele><time>2026-04-11T10:43:10.943Z</time></trkpt><trkpt lat="40.2180818" lon="15.0796542"><ele>490.3333333333333</ele><time>2026-04-11T10:43:11.95Z</time></trkpt><trkpt lat="40.2181756" lon="15.0794899"><ele>485.0</ele><time>2026-04-11T10:43:12.947Z</time></trkpt><trkpt lat="40.2182625" lon="15.0793269"><ele>491.25</ele><time>2026-04-11T10:43:13.935Z</time></trkpt><trkpt lat="40.2183366" lon="15.0791658"><ele>497.5</ele><time>2026-04-11T10:43:14.942Z</time></trkpt><trkpt lat="40.2183915" lon="15.0790165"><ele>503.75</ele><time>2026-04-11T10:43:15.948Z</time></trkpt><trkpt lat="40.2184484" lon="15.0788791"><ele>510.0</ele><time>2026-04-11T10:43:16.943Z</time></trkpt><trkpt lat="40.2185117" lon="15.0787721"><ele>510.0</ele><time>2026-04-11T10:43:17.945Z</time></trkpt><trkpt lat="40.2185894" lon="15.0786789"><ele>510.0</ele><time>2026-04-11T10:43:18.946Z</time></trkpt><trkpt lat="40.2186608" lon="15.078595"><ele>510.0</ele><time>2026-04-11T10:43:19.939Z</time></trkpt><trkpt lat="40.2187121" lon="15.0784997"><ele>510.0</ele><time>2026-04-11T10:43:20.94Z</time></trkpt><trkpt lat="40.2187441" lon="15.0783958"><ele>510.0</ele><time>2026-04-11T10:43:21.931Z</time></trkpt><trkpt lat="40.2187537" lon="15.0783002"><ele>510.0</ele><time>2026-04-11T10:43:22.94Z</time></trkpt><trkpt lat="40.2187329" lon="15.0782095"><ele>513.6</ele><time>2026-04-11T10:43:23.944Z</time></trkpt><trkpt lat="40.2186857" lon="15.0781203"><ele>517.2</ele><time>2026-04-11T10:43:24.928Z</time></trkpt><trkpt lat="40.2186202" lon="15.078049"><ele>520.8</ele><time>2026-04-11T10:43:25.939Z</time></trkpt><trkpt lat="40.2185173" lon="15.0779928"><ele>524.4</ele><time>2026-04-11T10:43:26.951Z</time></trkpt><trkpt lat="40.2183818" lon="15.0779264"><ele>528.0</ele><time>2026-04-11T10:43:27.944Z</time></trkpt><trkpt lat="40.2182431" lon="15.0778414"><ele>524.25</ele><time>2026-04-11T10:43:28.951Z</time></trkpt><trkpt lat="40.2181121" lon="15.0777438"><ele>520.5</ele><time>2026-04-11T10:43:29.95Z</time></trkpt><trkpt lat="40.2179908" lon="15.0776438"><ele>516.75</ele><time>2026-04-11T10:43:30.939Z</time></trkpt><trkpt lat="40.2178797" lon="15.07754"><ele>513.0</ele><time>2026-04-11T10:43:31.95Z</time></trkpt><trkpt lat="40.217761" lon="15.0774587"><ele>514.75</ele><time>2026-04-11T10:43:32.942Z</time></trkpt><trkpt lat="40.2176289" lon="15.0774013"><ele>516.5</ele><time>2026-04-11T10:43:33.939Z</time></trkpt><trkpt lat="40.2174884" lon="15.0773652"><ele>518.25</ele><time>2026-04-11T10:43:34.935Z</time></trkpt><trkpt lat="40.2173719" lon="15.0773466"><ele>520.0</ele><time>2026-04-11T10:43:35.953Z</time></trkpt><trkpt lat="40.2172851" lon="15.0773322"><ele>514.0</ele><time>2026-04-11T10:43:36.95Z</time></trkpt><trkpt lat="40.2172121" lon="15.0773177"><ele>508.0</ele><time>2026-04-11T10:43:37.945Z</time></trkpt><trkpt lat="40.217162" lon="15.0772632"><ele>502.0</ele><time>2026-04-11T10:43:38.945Z</time></trkpt><trkpt lat="40.2171307" lon="15.077158"><ele>496.0</ele><time>2026-04-11T10:43:39.944Z</time></trkpt><trkpt lat="40.2171415" lon="15.0770242"><ele>490.0</ele><time>2026-04-11T10:43:40.943Z</time></trkpt><trkpt lat="40.2171792" lon="15.0768706"><ele>490.0</ele><time>2026-04-11T10:43:41.937Z</time></trkpt><trkpt lat="40.2172366" lon="15.0767001"><ele>490.0</ele><time>2026-04-11T10:43:42.942Z</time></trkpt><trkpt lat="40.217276" lon="15.0765164"><ele>490.0</ele><time>2026-04-11T10:43:43.947Z</time></trkpt><trkpt lat="40.2172951" lon="15.0763302"><ele>490.0</ele><time>2026-04-11T10:43:44.944Z</time></trkpt><trkpt lat="40.2173025" lon="15.0761577"><ele>494.33333333333337</ele><time>2026-04-11T10:43:45.943Z</time></trkpt><trkpt lat="40.2173336" lon="15.0759827"><ele>498.66666666666663</ele><time>2026-04-11T10:43:46.94Z</time></trkpt><trkpt lat="40.2173837" lon="15.0757879"><ele>503.0</ele><time>2026-04-11T10:43:47.946Z</time></trkpt><trkpt lat="40.2174453" lon="15.0755879"><ele>503.0</ele><time>2026-04-11T10:43:48.943Z</time></trkpt><trkpt lat="40.2175051" lon="15.0753982"><ele>503.0</ele><time>2026-04-11T10:43:49.938Z</time></trkpt><trkpt lat="40.2175611" lon="15.0752262"><ele>503.0</ele><time>2026-04-11T10:43:50.937Z</time></trkpt><trkpt lat="40.2176076" lon="15.0750657"><ele>503.0</ele><time>2026-04-11T10:43:51.938Z</time></trkpt><trkpt lat="40.2176593" lon="15.0749234"><ele>498.75</ele><time>2026-04-11T10:43:52.944Z</time></trkpt><trkpt lat="40.2177177" lon="15.0747915"><ele>494.5</ele><time>2026-04-11T10:43:53.941Z</time></trkpt><trkpt lat="40.2177795" lon="15.0746778"><ele>490.25</ele><time>2026-04-11T10:43:54.949Z</time></trkpt><trkpt lat="40.2178626" lon="15.0745814"><ele>486.0</ele><time>2026-04-11T10:43:55.945Z</time></trkpt><trkpt lat="40.2179775" lon="15.0744865"><ele>486.0</ele><time>2026-04-11T10:43:56.95Z</time></trkpt><trkpt lat="40.2181182" lon="15.0743893"><ele>486.0</ele><time>2026-04-11T10:43:57.932Z</time></trkpt><trkpt lat="40.2182612" lon="15.0742922"><ele>486.0</ele><time>2026-04-11T10:43:58.941Z</time></trkpt><trkpt lat="40.2183889" lon="15.0742088"><ele>489.3333333333333</ele><time>2026-04-11T10:43:59.935Z</time></trkpt><trkpt lat="40.2184944" lon="15.0741448"><ele>492.66666666666663</ele><time>2026-04-11T10:44:00.945Z</time></trkpt><trkpt lat="40.2185737" lon="15.0740869"><ele>496.0</ele><time>2026-04-11T10:44:01.948Z</time></trkpt><trkpt lat="40.2186205" lon="15.0740111"><ele>499.3333333333333</ele><time>2026-04-11T10:44:02.947Z</time></trkpt><trkpt lat="40.2186445" lon="15.0739292"><ele>502.66666666666663</ele><time>2026-04-11T10:44:03.951Z</time></trkpt><trkpt lat="40.2186282" lon="15.073834"><ele>506.0</ele><time>2026-04-11T10:44:04.943Z</time></trkpt><trkpt lat="40.218573" lon="15.073722"><ele>506.0</ele><time>2026-04-11T10:44:05.952Z</time></trkpt><trkpt lat="40.2184904" lon="15.0736128"><ele>506.0</ele><time>2026-04-11T10:44:06.944Z</time></trkpt><trkpt lat="40.2183982" lon="15.073477"><ele>506.0</ele><time>2026-04-11T10:44:07.932Z</time></trkpt><trkpt lat="40.2183021" lon="15.0733326"><ele>506.0</ele><time>2026-04-11T10:44:08.943Z</time></trkpt><trkpt lat="40.2182136" lon="15.0731883"><ele>505.16666666666663</ele><time>2026-04-11T10:44:09.933Z</time></trkpt><trkpt lat="40.218146" lon="15.0730866"><ele>504.3333333333333</ele><time>2026-04-11T10:44:10.941Z</time></trkpt><trkpt lat="40.2180938" lon="15.0730113"><ele>503.5</ele><time>2026-04-11T10:44:11.934Z</time></trkpt><trkpt lat="40.2180724" lon="15.0729242"><ele>502.66666666666663</ele><time>2026-04-11T10:44:12.948Z</time></trkpt><trkpt lat="40.2180838" lon="15.072837"><ele>501.8333333333333</ele><time>2026-04-11T10:44:13.942Z</time></trkpt><trkpt lat="40.2181265" lon="15.072748"><ele>501.0</ele><time>2026-04-11T10:44:14.958Z</time></trkpt><trkpt lat="40.2181946" lon="15.0726735"><ele>501.0</ele><time>2026-04-11T10:44:15.953Z</time></trkpt><trkpt lat="40.2182858" lon="15.072601"><ele>501.0</ele><time>2026-04-11T10:44:16.941Z</time></trkpt><trkpt lat="40.2183956" lon="15.0725311"><ele>501.0</ele><time>2026-04-11T10:44:17.937Z</time></trkpt><trkpt lat="40.2185047" lon="15.0724339"><ele>501.0</ele><time>2026-04-11T10:44:18.947Z</time></trkpt><trkpt lat="40.2186051" lon="15.0723094"><ele>496.25</ele><time>2026-04-11T10:44:19.939Z</time></trkpt><trkpt lat="40.2186956" lon="15.0721534"><ele>491.5</ele><time>2026-04-11T10:44:20.942Z</time></trkpt><trkpt lat="40.2187702" lon="15.0719872"><ele>486.75</ele><time>2026-04-11T10:44:21.949Z</time></trkpt><trkpt lat="40.2188227" lon="15.0718295"><ele>482.0</ele><time>2026-04-11T10:44:22.936Z</time></trkpt><trkpt lat="40.2188745" lon="15.0716905"><ele>483.8</ele><time>2026-04-11T10:44:23.949Z</time></trkpt><trkpt lat="40.2189341" lon="15.0715791"><ele>485.6</ele><time>2026-04-11T10:44:24.933Z</time></trkpt><trkpt lat="40.2190101" lon="15.0714881"><ele>487.40000000000003</ele><time>2026-04-11T10:44:25.941Z</time></trkpt><trkpt lat="40.2190975" lon="15.0714066"><ele>489.20000000000005</ele><time>2026-04-11T10:44:26.937Z</time></trkpt><trkpt lat="40.2192154" lon="15.071332"><ele>491.0</ele><time>2026-04-11T10:44:27.931Z</time></trkpt><trkpt lat="40.2193395" lon="15.0712682"><ele>491.0</ele><time>2026-04-11T10:44:28.928Z</time></trkpt><trkpt lat="40.2194415" lon="15.0712035"><ele>491.0</ele><time>2026-04-11T10:44:29.94Z</time></trkpt><trkpt lat="40.219533" lon="15.0711108"><ele>491.0</ele><time>2026-04-11T10:44:30.93Z</time></trkpt><trkpt lat="40.2196192" lon="15.0709901"><ele>491.0</ele><time>2026-04-11T10:44:31.938Z</time></trkpt><trkpt lat="40.2197088" lon="15.0708437"><ele>492.5</ele><time>2026-04-11T10:44:32.939Z</time></trkpt><trkpt lat="40.2198031" lon="15.0706876"><ele>494.0</ele><time>2026-04-11T10:44:33.935Z</time></trkpt><trkpt lat="40.2199028" lon="15.0705386"><ele>495.5</ele><time>2026-04-11T10:44:34.943Z</time></trkpt><trkpt lat="40.219995" lon="15.0704161"><ele>497.0</ele><time>2026-04-11T10:44:35.946Z</time></trkpt><trkpt lat="40.2200714" lon="15.0703166"><ele>496.99999999999994</ele><time>2026-04-11T10:44:36.944Z</time></trkpt><trkpt lat="40.2201554" lon="15.0702457"><ele>497.0</ele><time>2026-04-11T10:44:37.938Z</time></trkpt><trkpt lat="40.2202424" lon="15.0702058"><ele>497.0</ele><time>2026-04-11T10:44:38.938Z</time></trkpt><trkpt lat="40.2203065" lon="15.0701708"><ele>497.0</ele><time>2026-04-11T10:44:39.945Z</time></trkpt><trkpt lat="40.2203446" lon="15.070101"><ele>496.99999999999994</ele><time>2026-04-11T10:44:40.956Z</time></trkpt><trkpt lat="40.2203561" lon="15.0699981"><ele>497.0</ele><time>2026-04-11T10:44:41.945Z</time></trkpt><trkpt lat="40.2203521" lon="15.0698778"><ele>502.3333333333333</ele><time>2026-04-11T10:44:42.938Z</time></trkpt><trkpt lat="40.2203363" lon="15.0697724"><ele>507.66666666666663</ele><time>2026-04-11T10:44:43.948Z</time></trkpt><trkpt lat="40.2203094" lon="15.0696915"><ele>513.0</ele><time>2026-04-11T10:44:44.943Z</time></trkpt><trkpt lat="40.2202517" lon="15.0696397"><ele>518.3333333333334</ele><time>2026-04-11T10:44:45.932Z</time></trkpt><trkpt lat="40.2201745" lon="15.0695955"><ele>523.6666666666667</ele><time>2026-04-11T10:44:46.948Z</time></trkpt><trkpt lat="40.2200693" lon="15.0695593"><ele>529.0</ele><time>2026-04-11T10:44:47.951Z</time></trkpt><trkpt lat="40.219947" lon="15.0695338"><ele>525.5</ele><time>2026-04-11T10:44:48.937Z</time></trkpt><trkpt lat="40.2198081" lon="15.0695135"><ele>522.0</ele><time>2026-04-11T10:44:49.937Z</time></trkpt><trkpt lat="40.2196816" lon="15.0694838"><ele>518.5</ele><time>2026-04-11T10:44:50.943Z</time></trkpt><trkpt lat="40.2195673" lon="15.069456"><ele>515.0</ele><time>2026-04-11T10:44:51.936Z</time></trkpt><trkpt lat="40.2194524" lon="15.0694017"><ele>515.0</ele><time>2026-04-11T10:44:52.931Z</time></trkpt><trkpt lat="40.2193408" lon="15.0693415"><ele>515.0</ele><time>2026-04-11T10:44:53.935Z</time></trkpt><trkpt lat="40.2192144" lon="15.0693045"><ele>515.0</ele><time>2026-04-11T10:44:54.95Z</time></trkpt><trkpt lat="40.2190822" lon="15.0692861"><ele>515.0</ele><time>2026-04-11T10:44:55.941Z</time></trkpt><trkpt lat="40.2189507" lon="15.0692849"><ele>515.5</ele><time>2026-04-11T10:44:56.946Z</time></trkpt><trkpt lat="40.2188126" lon="15.0693105"><ele>516.0</ele><time>2026-04-11T10:44:57.936Z</time></trkpt><trkpt lat="40.2186893" lon="15.0693279"><ele>516.5</ele><time>2026-04-11T10:44:58.944Z</time></trkpt><trkpt lat="40.2185652" lon="15.0693155"><ele>517.0</ele><time>2026-04-11T10:44:59.943Z</time></trkpt><trkpt lat="40.2184385" lon="15.0692911"><ele>517.0</ele><time>2026-04-11T10:45:00.951Z</time></trkpt><trkpt lat="40.2183177" lon="15.069277"><ele>517.0</ele><time>2026-04-11T10:45:01.937Z</time></trkpt><trkpt lat="40.218204" lon="15.069277"><ele>517.0</ele><time>2026-04-11T10:45:02.926Z</time></trkpt><trkpt lat="40.218087" lon="15.0693181"><ele>517.0</ele><time>2026-04-11T10:45:03.937Z</time></trkpt><trkpt lat="40.2179636" lon="15.0693812"><ele>519.0</ele><time>2026-04-11T10:45:04.946Z</time></trkpt><trkpt lat="40.2178492" lon="15.0694561"><ele>521.0</ele><time>2026-04-11T10:45:05.946Z</time></trkpt><trkpt lat="40.2177393" lon="15.0695099"><ele>523.0</ele><time>2026-04-11T10:45:06.94Z</time></trkpt><trkpt lat="40.2176207" lon="15.0695346"><ele>525.0</ele><time>2026-04-11T10:45:07.935Z</time></trkpt><trkpt lat="40.2174915" lon="15.0695406"><ele>525.0</ele><time>2026-04-11T10:45:08.954Z</time></trkpt><trkpt lat="40.2173594" lon="15.0695414"><ele>525.0</ele><time>2026-04-11T10:45:09.939Z</time></trkpt><trkpt lat="40.217227" lon="15.0695543"><ele>525.0</ele><time>2026-04-11T10:45:10.939Z</time></trkpt><trkpt lat="40.2170897" lon="15.0696037"><ele>525.0</ele><time>2026-04-11T10:45:11.937Z</time></trkpt><trkpt lat="40.2169488" lon="15.0696816"><ele>523.5</ele><time>2026-04-11T10:45:12.932Z</time></trkpt><trkpt lat="40.2168242" lon="15.0697598"><ele>522.0</ele><time>2026-04-11T10:45:13.945Z</time></trkpt><trkpt lat="40.2167113" lon="15.0698219"><ele>520.5</ele><time>2026-04-11T10:45:14.949Z</time></trkpt><trkpt lat="40.216598" lon="15.069862"><ele>519.0</ele><time>2026-04-11T10:45:15.941Z</time></trkpt><trkpt lat="40.2164931" lon="15.0698847"><ele>513.0</ele><time>2026-04-11T10:45:16.945Z</time></trkpt><trkpt lat="40.2164142" lon="15.0698938"><ele>507.0</ele><time>2026-04-11T10:45:17.938Z</time></trkpt><trkpt lat="40.2163115" lon="15.0698692"><ele>501.0</ele><time>2026-04-11T10:45:19.943Z</time></trkpt><trkpt lat="40.2162386" lon="15.069766"><ele>495.0</ele><time>2026-04-11T10:45:21.955Z</time></trkpt><trkpt lat="40.2162292" lon="15.0696041"><ele>489.0</ele><time>2026-04-11T10:45:23.947Z</time></trkpt><trkpt lat="40.2162726" lon="15.0695169"><ele>489.0</ele><time>2026-04-11T10:45:24.964Z</time></trkpt><trkpt lat="40.216327" lon="15.0694181"><ele>489.0</ele><time>2026-04-11T10:45:25.939Z</time></trkpt><trkpt lat="40.2163931" lon="15.0693091"><ele>489.0</ele><time>2026-04-11T10:45:26.948Z</time></trkpt><trkpt lat="40.2164575" lon="15.0691812"><ele>489.0</ele><time>2026-04-11T10:45:27.949Z</time></trkpt><trkpt lat="40.216491" lon="15.0690327"><ele>489.0</ele><time>2026-04-11T10:45:28.953Z</time></trkpt><trkpt lat="40.2165112" lon="15.0688723"><ele>488.25</ele><time>2026-04-11T10:45:29.949Z</time></trkpt><trkpt lat="40.2165305" lon="15.0687201"><ele>487.5</ele><time>2026-04-11T10:45:30.944Z</time></trkpt><trkpt lat="40.2165281" lon="15.0685772"><ele>486.75</ele><time>2026-04-11T10:45:31.952Z</time></trkpt><trkpt lat="40.2164921" lon="15.0684285"><ele>486.0</ele><time>2026-04-11T10:45:32.94Z</time></trkpt><trkpt lat="40.2164368" lon="15.0682771"><ele>486.25</ele><time>2026-04-11T10:45:33.936Z</time></trkpt><trkpt lat="40.2163826" lon="15.068113"><ele>486.5</ele><time>2026-04-11T10:45:34.952Z</time></trkpt><trkpt lat="40.2163377" lon="15.0679654"><ele>486.75</ele><time>2026-04-11T10:45:35.944Z</time></trkpt><trkpt lat="40.2162988" lon="15.0678419"><ele>487.0</ele><time>2026-04-11T10:45:36.939Z</time></trkpt><trkpt lat="40.2162697" lon="15.0677294"><ele>487.00000000000006</ele><time>2026-04-11T10:45:37.949Z</time></trkpt><trkpt lat="40.2162561" lon="15.0676194"><ele>487.0</ele><time>2026-04-11T10:45:38.946Z</time></trkpt><trkpt lat="40.2162591" lon="15.067517"><ele>487.0</ele><time>2026-04-11T10:45:39.946Z</time></trkpt><trkpt lat="40.2162903" lon="15.0674261"><ele>487.0</ele><time>2026-04-11T10:45:40.955Z</time></trkpt><trkpt lat="40.2163592" lon="15.0673476"><ele>487.00000000000006</ele><time>2026-04-11T10:45:41.942Z</time></trkpt><trkpt lat="40.2164565" lon="15.0672879"><ele>487.0</ele><time>2026-04-11T10:45:42.943Z</time></trkpt><trkpt lat="40.2165694" lon="15.0672491"><ele>488.5</ele><time>2026-04-11T10:45:43.943Z</time></trkpt><trkpt lat="40.2166973" lon="15.0672168"><ele>490.0</ele><time>2026-04-11T10:45:44.948Z</time></trkpt><trkpt lat="40.2168294" lon="15.0671799"><ele>491.5</ele><time>2026-04-11T10:45:45.954Z</time></trkpt><trkpt lat="40.2169572" lon="15.0671252"><ele>493.0</ele><time>2026-04-11T10:45:46.941Z</time></trkpt><trkpt lat="40.2170688" lon="15.067053"><ele>493.0</ele><time>2026-04-11T10:45:47.934Z</time></trkpt><trkpt lat="40.2171675" lon="15.0669631"><ele>493.0</ele><time>2026-04-11T10:45:48.942Z</time></trkpt><trkpt lat="40.2172602" lon="15.066857"><ele>493.0</ele><time>2026-04-11T10:45:49.946Z</time></trkpt><trkpt lat="40.217356" lon="15.0667468"><ele>493.0</ele><time>2026-04-11T10:45:50.937Z</time></trkpt><trkpt lat="40.2174527" lon="15.0666551"><ele>491.4</ele><time>2026-04-11T10:45:51.943Z</time></trkpt><trkpt lat="40.2175538" lon="15.0665801"><ele>489.79999999999995</ele><time>2026-04-11T10:45:52.947Z</time></trkpt><trkpt lat="40.2176591" lon="15.066518"><ele>488.2</ele><time>2026-04-11T10:45:53.932Z</time></trkpt><trkpt lat="40.2177624" lon="15.0664782"><ele>486.6</ele><time>2026-04-11T10:45:54.945Z</time></trkpt><trkpt lat="40.2178557" lon="15.0664352"><ele>485.0</ele><time>2026-04-11T10:45:55.937Z</time></trkpt><trkpt lat="40.2179429" lon="15.0663584"><ele>485.0</ele><time>2026-04-11T10:45:56.949Z</time></trkpt><trkpt lat="40.2180203" lon="15.0662362"><ele>485.0</ele><time>2026-04-11T10:45:57.945Z</time></trkpt><trkpt lat="40.2180911" lon="15.0661157"><ele>485.0</ele><time>2026-04-11T10:45:58.938Z</time></trkpt><trkpt lat="40.2181614" lon="15.0660101"><ele>485.0</ele><time>2026-04-11T10:45:59.945Z</time></trkpt><trkpt lat="40.218254" lon="15.0659267"><ele>486.25</ele><time>2026-04-11T10:46:00.937Z</time></trkpt><trkpt lat="40.2183525" lon="15.0658403"><ele>487.5</ele><time>2026-04-11T10:46:01.95Z</time></trkpt><trkpt lat="40.2184515" lon="15.0657351"><ele>488.75</ele><time>2026-04-11T10:46:02.948Z</time></trkpt><trkpt lat="40.2185536" lon="15.0656181"><ele>490.0</ele><time>2026-04-11T10:46:03.94Z</time></trkpt><trkpt lat="40.2186556" lon="15.0655068"><ele>490.0</ele><time>2026-04-11T10:46:04.94Z</time></trkpt><trkpt lat="40.218744" lon="15.0653892"><ele>490.0</ele><time>2026-04-11T10:46:05.932Z</time></trkpt><trkpt lat="40.2188272" lon="15.0652467"><ele>490.0</ele><time>2026-04-11T10:46:06.948Z</time></trkpt><trkpt lat="40.2189007" lon="15.0651039"><ele>490.0</ele><time>2026-04-11T10:46:07.938Z</time></trkpt><trkpt lat="40.218968" lon="15.064971"><ele>495.5</ele><time>2026-04-11T10:46:08.93Z</time></trkpt><trkpt lat="40.2190172" lon="15.0648403"><ele>501.0</ele><time>2026-04-11T10:46:09.935Z</time></trkpt><trkpt lat="40.2190504" lon="15.0647011"><ele>506.5</ele><time>2026-04-11T10:46:10.945Z</time></trkpt><trkpt lat="40.2190735" lon="15.0645384"><ele>512.0</ele><time>2026-04-11T10:46:11.936Z</time></trkpt><trkpt lat="40.2190872" lon="15.0643622"><ele>512.0</ele><time>2026-04-11T10:46:12.953Z</time></trkpt><trkpt lat="40.2190995" lon="15.0641916"><ele>512.0</ele><time>2026-04-11T10:46:13.947Z</time></trkpt><trkpt lat="40.2190927" lon="15.0640393"><ele>512.0</ele><time>2026-04-11T10:46:14.952Z</time></trkpt><trkpt lat="40.2190633" lon="15.0638895"><ele>512.0</ele><time>2026-04-11T10:46:15.944Z</time></trkpt><trkpt lat="40.2190258" lon="15.0637456"><ele>511.3333333333333</ele><time>2026-04-11T10:46:16.937Z</time></trkpt><trkpt lat="40.2189926" lon="15.0636155"><ele>510.66666666666663</ele><time>2026-04-11T10:46:17.945Z</time></trkpt><trkpt lat="40.2189778" lon="15.0635012"><ele>510.0</ele><time>2026-04-11T10:46:18.947Z</time></trkpt><trkpt lat="40.2189882" lon="15.0634046"><ele>509.33333333333337</ele><time>2026-04-11T10:46:19.96Z</time></trkpt><trkpt lat="40.2190141" lon="15.0633066"><ele>508.6666666666667</ele><time>2026-04-11T10:46:20.944Z</time></trkpt><trkpt lat="40.2190591" lon="15.0631988"><ele>508.0</ele><time>2026-04-11T10:46:21.948Z</time></trkpt><trkpt lat="40.2191227" lon="15.0630787"><ele>508.0</ele><time>2026-04-11T10:46:22.955Z</time></trkpt><trkpt lat="40.2191807" lon="15.062941"><ele>507.99999999999994</ele><time>2026-04-11T10:46:23.951Z</time></trkpt><trkpt lat="40.2192357" lon="15.0628123"><ele>507.99999999999994</ele><time>2026-04-11T10:46:24.947Z</time></trkpt><trkpt lat="40.2192626" lon="15.0626974"><ele>508.0</ele><time>2026-04-11T10:46:25.939Z</time></trkpt><trkpt lat="40.2192768" lon="15.0625962"><ele>508.0</ele><time>2026-04-11T10:46:26.948Z</time></trkpt><trkpt lat="40.2192599" lon="15.0624948"><ele>507.79999999999995</ele><time>2026-04-11T10:46:27.939Z</time></trkpt><trkpt lat="40.2192183" lon="15.0624149"><ele>507.59999999999997</ele><time>2026-04-11T10:46:28.954Z</time></trkpt><trkpt lat="40.2191607" lon="15.0623452"><ele>507.40000000000003</ele><time>2026-04-11T10:46:29.943Z</time></trkpt><trkpt lat="40.2190764" lon="15.0622683"><ele>507.20000000000005</ele><time>2026-04-11T10:46:30.936Z</time></trkpt><trkpt lat="40.2189696" lon="15.0621755"><ele>507.0</ele><time>2026-04-11T10:46:31.935Z</time></trkpt><trkpt lat="40.2188704" lon="15.0620639"><ele>507.0</ele><time>2026-04-11T10:46:32.941Z</time></trkpt><trkpt lat="40.2187745" lon="15.0619622"><ele>507.0</ele><time>2026-04-11T10:46:33.945Z</time></trkpt><trkpt lat="40.2186684" lon="15.0618868"><ele>507.0</ele><time>2026-04-11T10:46:34.934Z</time></trkpt><trkpt lat="40.2185599" lon="15.061823"><ele>507.0</ele><time>2026-04-11T10:46:35.942Z</time></trkpt><trkpt lat="40.2184453" lon="15.0617734"><ele>507.0</ele><time>2026-04-11T10:46:36.946Z</time></trkpt><trkpt lat="40.2183371" lon="15.0617281"><ele>507.00000000000006</ele><time>2026-04-11T10:46:37.938Z</time></trkpt><trkpt lat="40.2182417" lon="15.0616985"><ele>507.00000000000006</ele><time>2026-04-11T10:46:38.951Z</time></trkpt><trkpt lat="40.2181506" lon="15.0616712"><ele>507.0</ele><time>2026-04-11T10:46:39.949Z</time></trkpt><trkpt lat="40.21806" lon="15.0616102"><ele>507.0</ele><time>2026-04-11T10:46:40.948Z</time></trkpt><trkpt lat="40.2179634" lon="15.06152"><ele>507.0</ele><time>2026-04-11T10:46:41.933Z</time></trkpt><trkpt lat="40.2178674" lon="15.0614416"><ele>507.0</ele><time>2026-04-11T10:46:42.951Z</time></trkpt><trkpt lat="40.2177732" lon="15.0613949"><ele>507.0</ele><time>2026-04-11T10:46:43.938Z</time></trkpt><trkpt lat="40.2176591" lon="15.0613623"><ele>507.0</ele><time>2026-04-11T10:46:44.931Z</time></trkpt><trkpt lat="40.2175322" lon="15.0613473"><ele>507.0</ele><time>2026-04-11T10:46:45.944Z</time></trkpt><trkpt lat="40.217405" lon="15.0613392"><ele>507.00000000000006</ele><time>2026-04-11T10:46:46.94Z</time></trkpt><trkpt lat="40.2173101" lon="15.0613279"><ele>507.00000000000006</ele><time>2026-04-11T10:46:47.949Z</time></trkpt><trkpt lat="40.2172478" lon="15.0613007"><ele>507.0</ele><time>2026-04-11T10:46:48.945Z</time></trkpt><trkpt lat="40.2171806" lon="15.0611829"><ele>507.0</ele><time>2026-04-11T10:46:50.951Z</time></trkpt><trkpt lat="40.2172327" lon="15.0610151"><ele>507.0</ele><time>2026-04-11T10:46:52.955Z</time></trkpt><trkpt lat="40.2173052" lon="15.060908"><ele>507.0</ele><time>2026-04-11T10:46:53.936Z</time></trkpt><trkpt lat="40.2173891" lon="15.0607957"><ele>507.0</ele><time>2026-04-11T10:46:54.943Z</time></trkpt><trkpt lat="40.2174562" lon="15.0606546"><ele>507.0</ele><time>2026-04-11T10:46:55.938Z</time></trkpt><trkpt lat="40.2175186" lon="15.0604842"><ele>505.6</ele><time>2026-04-11T10:46:56.941Z</time></trkpt><trkpt lat="40.2175671" lon="15.0603066"><ele>504.20000000000005</ele><time>2026-04-11T10:46:57.944Z</time></trkpt><trkpt lat="40.2176043" lon="15.060149"><ele>502.8</ele><time>2026-04-11T10:46:58.951Z</time></trkpt><trkpt lat="40.2176235" lon="15.0600249"><ele>501.4</ele><time>2026-04-11T10:46:59.938Z</time></trkpt><trkpt lat="40.2176226" lon="15.0599178"><ele>500.0</ele><time>2026-04-11T10:47:00.941Z</time></trkpt><trkpt lat="40.2175967" lon="15.0598045"><ele>503.5</ele><time>2026-04-11T10:47:01.934Z</time></trkpt><trkpt lat="40.2175343" lon="15.0596866"><ele>507.0</ele><time>2026-04-11T10:47:02.944Z</time></trkpt><trkpt lat="40.2174555" lon="15.0595689"><ele>510.5</ele><time>2026-04-11T10:47:03.942Z</time></trkpt><trkpt lat="40.2173713" lon="15.059456"><ele>514.0</ele><time>2026-04-11T10:47:04.947Z</time></trkpt><trkpt lat="40.2172757" lon="15.059359"><ele>510.6</ele><time>2026-04-11T10:47:05.946Z</time></trkpt><trkpt lat="40.2171718" lon="15.0592667"><ele>507.2</ele><time>2026-04-11T10:47:06.945Z</time></trkpt><trkpt lat="40.2170805" lon="15.0591882"><ele>503.80000000000007</ele><time>2026-04-11T10:47:07.948Z</time></trkpt><trkpt lat="40.2170222" lon="15.0591262"><ele>500.40000000000003</ele><time>2026-04-11T10:47:08.941Z</time></trkpt><trkpt lat="40.2169873" lon="15.0590401"><ele>497.0</ele><time>2026-04-11T10:47:09.937Z</time></trkpt><trkpt lat="40.2169573" lon="15.0589222"><ele>497.0</ele><time>2026-04-11T10:47:10.934Z</time></trkpt><trkpt lat="40.216959" lon="15.0587793"><ele>497.00000000000006</ele><time>2026-04-11T10:47:11.95Z</time></trkpt><trkpt lat="40.2169487" lon="15.0586471"><ele>497.00000000000006</ele><time>2026-04-11T10:47:12.935Z</time></trkpt><trkpt lat="40.2169097" lon="15.058524"><ele>497.0</ele><time>2026-04-11T10:47:13.94Z</time></trkpt><trkpt lat="40.2168411" lon="15.0584254"><ele>497.0</ele><time>2026-04-11T10:47:14.939Z</time></trkpt><trkpt lat="40.216761" lon="15.0583499"><ele>497.0</ele><time>2026-04-11T10:47:15.954Z</time></trkpt><trkpt lat="40.2166561" lon="15.0582997"><ele>497.0</ele><time>2026-04-11T10:47:16.942Z</time></trkpt><trkpt lat="40.2165419" lon="15.0582363"><ele>497.0</ele><time>2026-04-11T10:47:17.938Z</time></trkpt><trkpt lat="40.2164281" lon="15.0581438"><ele>497.0</ele><time>2026-04-11T10:47:18.938Z</time></trkpt><trkpt lat="40.2163204" lon="15.0580332"><ele>499.25</ele><time>2026-04-11T10:47:19.931Z</time></trkpt><trkpt lat="40.2162127" lon="15.0579425"><ele>501.5</ele><time>2026-04-11T10:47:20.937Z</time></trkpt><trkpt lat="40.2160977" lon="15.0578777"><ele>503.75</ele><time>2026-04-11T10:47:21.944Z</time></trkpt><trkpt lat="40.2159742" lon="15.0578606"><ele>506.0</ele><time>2026-04-11T10:47:22.938Z</time></trkpt><trkpt lat="40.2158335" lon="15.0578601"><ele>506.0</ele><time>2026-04-11T10:47:23.933Z</time></trkpt><trkpt lat="40.2157121" lon="15.0578618"><ele>506.0</ele><time>2026-04-11T10:47:24.941Z</time></trkpt><trkpt lat="40.2156098" lon="15.0578647"><ele>506.0</ele><time>2026-04-11T10:47:25.935Z</time></trkpt><trkpt lat="40.2155146" lon="15.0578563"><ele>506.0</ele><time>2026-04-11T10:47:26.943Z</time></trkpt><trkpt lat="40.2154316" lon="15.0578345"><ele>506.0</ele><time>2026-04-11T10:47:27.949Z</time></trkpt><trkpt lat="40.2153404" lon="15.057779"><ele>506.5</ele><time>2026-04-11T10:47:28.943Z</time></trkpt><trkpt lat="40.2152344" lon="15.0576838"><ele>507.0</ele><time>2026-04-11T10:47:29.944Z</time></trkpt><trkpt lat="40.2151152" lon="15.0575803"><ele>507.5</ele><time>2026-04-11T10:47:30.931Z</time></trkpt><trkpt lat="40.214991" lon="15.0574711"><ele>508.0</ele><time>2026-04-11T10:47:31.942Z</time></trkpt><trkpt lat="40.2148749" lon="15.0573685"><ele>507.0</ele><time>2026-04-11T10:47:32.945Z</time></trkpt><trkpt lat="40.2147756" lon="15.0572774"><ele>506.0</ele><time>2026-04-11T10:47:33.943Z</time></trkpt><trkpt lat="40.2146746" lon="15.0572156"><ele>505.0</ele><time>2026-04-11T10:47:34.946Z</time></trkpt><trkpt lat="40.2145555" lon="15.0571908"><ele>504.0</ele><time>2026-04-11T10:47:35.952Z</time></trkpt><trkpt lat="40.2144142" lon="15.0571816"><ele>504.0</ele><time>2026-04-11T10:47:36.947Z</time></trkpt><trkpt lat="40.2142769" lon="15.0571545"><ele>504.0</ele><time>2026-04-11T10:47:37.945Z</time></trkpt><trkpt lat="40.2141447" lon="15.0571213"><ele>504.0</ele><time>2026-04-11T10:47:38.944Z</time></trkpt><trkpt lat="40.2140076" lon="15.0571147"><ele>504.0</ele><time>2026-04-11T10:47:39.935Z</time></trkpt><trkpt lat="40.213857" lon="15.0571498"><ele>500.25</ele><time>2026-04-11T10:47:40.934Z</time></trkpt><trkpt lat="40.2137005" lon="15.0572065"><ele>496.5</ele><time>2026-04-11T10:47:41.956Z</time></trkpt><trkpt lat="40.2135756" lon="15.0572798"><ele>492.75</ele><time>2026-04-11T10:47:42.93Z</time></trkpt><trkpt lat="40.2134792" lon="15.057338"><ele>489.0</ele><time>2026-04-11T10:47:43.949Z</time></trkpt><trkpt lat="40.2134019" lon="15.0573763"><ele>489.0</ele><time>2026-04-11T10:47:44.936Z</time></trkpt><trkpt lat="40.2133272" lon="15.0573923"><ele>489.0</ele><time>2026-04-11T10:47:45.949Z</time></trkpt><trkpt lat="40.213262" lon="15.0573683"><ele>489.0</ele><time>2026-04-11T10:47:46.937Z</time></trkpt><trkpt lat="40.2131804" lon="15.0572339"><ele>489.0</ele><time>2026-04-11T10:47:48.955Z</time></trkpt><trkpt lat="40.2131529" lon="15.0571147"><ele>489.0</ele><time>2026-04-11T10:47:49.944Z</time></trkpt><trkpt lat="40.213129" lon="15.056966"><ele>485.0</ele><time>2026-04-11T10:47:50.935Z</time></trkpt><trkpt lat="40.2131054" lon="15.0567968"><ele>481.0</ele><time>2026-04-11T10:47:51.943Z</time></trkpt><trkpt lat="40.2130695" lon="15.0566101"><ele>477.0</ele><time>2026-04-11T10:47:52.941Z</time></trkpt><trkpt lat="40.2130128" lon="15.0564143"><ele>473.0</ele><time>2026-04-11T10:47:53.939Z</time></trkpt><trkpt lat="40.2129663" lon="15.0562574"><ele>473.0</ele><time>2026-04-11T10:47:54.946Z</time></trkpt><trkpt lat="40.2129272" lon="15.0561257"><ele>473.0</ele><time>2026-04-11T10:47:55.945Z</time></trkpt><trkpt lat="40.2128675" lon="15.0560065"><ele>473.0</ele><time>2026-04-11T10:47:56.938Z</time></trkpt><trkpt lat="40.2127814" lon="15.0559049"><ele>473.0</ele><time>2026-04-11T10:47:57.934Z</time></trkpt><trkpt lat="40.2126713" lon="15.0558108"><ele>474.25</ele><time>2026-04-11T10:47:58.952Z</time></trkpt><trkpt lat="40.212555" lon="15.0557246"><ele>475.5</ele><time>2026-04-11T10:47:59.941Z</time></trkpt><trkpt lat="40.2124487" lon="15.0556418"><ele>476.75</ele><time>2026-04-11T10:48:00.934Z</time></trkpt><trkpt lat="40.2123454" lon="15.0555435"><ele>478.0</ele><time>2026-04-11T10:48:01.95Z</time></trkpt><trkpt lat="40.212265" lon="15.0554341"><ele>478.0</ele><time>2026-04-11T10:48:02.946Z</time></trkpt><trkpt lat="40.2121832" lon="15.0553512"><ele>477.99999999999994</ele><time>2026-04-11T10:48:03.947Z</time></trkpt><trkpt lat="40.2120825" lon="15.0553041"><ele>477.99999999999994</ele><time>2026-04-11T10:48:04.948Z</time></trkpt><trkpt lat="40.2119627" lon="15.0552905"><ele>478.0</ele><time>2026-04-11T10:48:05.941Z</time></trkpt><trkpt lat="40.2118492" lon="15.0552829"><ele>478.0</ele><time>2026-04-11T10:48:06.937Z</time></trkpt><trkpt lat="40.2117435" lon="15.0552462"><ele>478.0</ele><time>2026-04-11T10:48:07.943Z</time></trkpt><trkpt lat="40.2116221" lon="15.0551655"><ele>478.0</ele><time>2026-04-11T10:48:08.943Z</time></trkpt><trkpt lat="40.2115105" lon="15.0550843"><ele>478.0</ele><time>2026-04-11T10:48:09.949Z</time></trkpt><trkpt lat="40.2114177" lon="15.0550152"><ele>478.0</ele><time>2026-04-11T10:48:10.94Z</time></trkpt><trkpt lat="40.211326" lon="15.0549418"><ele>476.5</ele><time>2026-04-11T10:48:11.942Z</time></trkpt><trkpt lat="40.2112451" lon="15.0548235"><ele>475.0</ele><time>2026-04-11T10:48:12.935Z</time></trkpt><trkpt lat="40.2111657" lon="15.0546799"><ele>473.5</ele><time>2026-04-11T10:48:13.942Z</time></trkpt><trkpt lat="40.2110902" lon="15.0545454"><ele>472.0</ele><time>2026-04-11T10:48:14.955Z</time></trkpt><trkpt lat="40.2109996" lon="15.0544329"><ele>472.0</ele><time>2026-04-11T10:48:15.945Z</time></trkpt><trkpt lat="40.210878" lon="15.0543334"><ele>472.0</ele><time>2026-04-11T10:48:16.95Z</time></trkpt><trkpt lat="40.2107401" lon="15.0542506"><ele>472.0</ele><time>2026-04-11T10:48:17.95Z</time></trkpt><trkpt lat="40.2105866" lon="15.054182"><ele>472.33333333333337</ele><time>2026-04-11T10:48:18.953Z</time></trkpt><trkpt lat="40.21043" lon="15.054128"><ele>472.66666666666663</ele><time>2026-04-11T10:48:19.953Z</time></trkpt><trkpt lat="40.2102773" lon="15.0540929"><ele>473.0</ele><time>2026-04-11T10:48:20.941Z</time></trkpt><trkpt lat="40.2101154" lon="15.0540793"><ele>473.0</ele><time>2026-04-11T10:48:21.949Z</time></trkpt><trkpt lat="40.2099534" lon="15.0540795"><ele>473.0</ele><time>2026-04-11T10:48:22.935Z</time></trkpt><trkpt lat="40.2098123" lon="15.0540858"><ele>473.0</ele><time>2026-04-11T10:48:23.942Z</time></trkpt><trkpt lat="40.2096765" lon="15.0540937"><ele>473.0</ele><time>2026-04-11T10:48:24.938Z</time></trkpt><trkpt lat="40.2095522" lon="15.0541164"><ele>469.25</ele><time>2026-04-11T10:48:25.94Z</time></trkpt><trkpt lat="40.2094333" lon="15.0541595"><ele>465.5</ele><time>2026-04-11T10:48:26.951Z</time></trkpt><trkpt lat="40.2093108" lon="15.0542081"><ele>461.75</ele><time>2026-04-11T10:48:27.937Z</time></trkpt><trkpt lat="40.2091929" lon="15.0542542"><ele>458.0</ele><time>2026-04-11T10:48:28.94Z</time></trkpt><trkpt lat="40.2090463" lon="15.0542915"><ele>455.3333333333333</ele><time>2026-04-11T10:48:29.95Z</time></trkpt><trkpt lat="40.2088836" lon="15.0543109"><ele>452.66666666666663</ele><time>2026-04-11T10:48:30.953Z</time></trkpt><trkpt lat="40.2087319" lon="15.0543352"><ele>450.0</ele><time>2026-04-11T10:48:31.955Z</time></trkpt><trkpt lat="40.2085988" lon="15.0543666"><ele>450.0</ele><time>2026-04-11T10:48:32.952Z</time></trkpt><trkpt lat="40.208482" lon="15.0543919"><ele>450.0</ele><time>2026-04-11T10:48:33.947Z</time></trkpt><trkpt lat="40.2083686" lon="15.0543977"><ele>450.0</ele><time>2026-04-11T10:48:34.946Z</time></trkpt><trkpt lat="40.2082763" lon="15.0543865"><ele>450.0</ele><time>2026-04-11T10:48:35.936Z</time></trkpt><trkpt lat="40.2082009" lon="15.0543778"><ele>450.0</ele><time>2026-04-11T10:48:36.94Z</time></trkpt><trkpt lat="40.2081002" lon="15.0543165"><ele>448.0</ele><time>2026-04-11T10:48:38.946Z</time></trkpt><trkpt lat="40.2080812" lon="15.0541906"><ele>446.0</ele><time>2026-04-11T10:48:40.945Z</time></trkpt><trkpt lat="40.208167" lon="15.0540518"><ele>444.0</ele><time>2026-04-11T10:48:42.94Z</time></trkpt><trkpt lat="40.2082358" lon="15.0539671"><ele>442.0</ele><time>2026-04-11T10:48:43.94Z</time></trkpt><trkpt lat="40.2083207" lon="15.0538823"><ele>440.0</ele><time>2026-04-11T10:48:44.941Z</time></trkpt><trkpt lat="40.2084243" lon="15.0537824"><ele>437.75</ele><time>2026-04-11T10:48:45.939Z</time></trkpt><trkpt lat="40.2085366" lon="15.053666"><ele>435.5</ele><time>2026-04-11T10:48:46.938Z</time></trkpt><trkpt lat="40.2086501" lon="15.05354"><ele>433.25</ele><time>2026-04-11T10:48:47.941Z</time></trkpt><trkpt lat="40.2087574" lon="15.0534291"><ele>431.0</ele><time>2026-04-11T10:48:48.95Z</time></trkpt><trkpt lat="40.2088556" lon="15.0533175"><ele>434.5</ele><time>2026-04-11T10:48:49.958Z</time></trkpt><trkpt lat="40.2089443" lon="15.053179"><ele>438.0</ele><time>2026-04-11T10:48:50.938Z</time></trkpt><trkpt lat="40.2090203" lon="15.0530289"><ele>441.5</ele><time>2026-04-11T10:48:51.945Z</time></trkpt><trkpt lat="40.2090861" lon="15.0528676"><ele>445.0</ele><time>2026-04-11T10:48:52.952Z</time></trkpt><trkpt lat="40.209137" lon="15.0526905"><ele>445.0</ele><time>2026-04-11T10:48:53.947Z</time></trkpt><trkpt lat="40.2091652" lon="15.0524946"><ele>445.0</ele><time>2026-04-11T10:48:54.953Z</time></trkpt><trkpt lat="40.2091799" lon="15.0523039"><ele>445.0</ele><time>2026-04-11T10:48:55.944Z</time></trkpt><trkpt lat="40.2092041" lon="15.05213"><ele>445.0</ele><time>2026-04-11T10:48:56.938Z</time></trkpt><trkpt lat="40.2092376" lon="15.0519929"><ele>442.83333333333337</ele><time>2026-04-11T10:48:57.941Z</time></trkpt><trkpt lat="40.2092763" lon="15.0518859"><ele>440.6666666666667</ele><time>2026-04-11T10:48:58.94Z</time></trkpt><trkpt lat="40.2093167" lon="15.0518066"><ele>438.5</ele><time>2026-04-11T10:48:59.94Z</time></trkpt><trkpt lat="40.2093821" lon="15.0517042"><ele>436.33333333333337</ele><time>2026-04-11T10:49:01.941Z</time></trkpt><trkpt lat="40.2093642" lon="15.051606"><ele>434.1666666666667</ele><time>2026-04-11T10:49:03.939Z</time></trkpt><trkpt lat="40.2092687" lon="15.0516243"><ele>432.0</ele><time>2026-04-11T10:49:05.945Z</time></trkpt><trkpt lat="40.2092172" lon="15.0516952"><ele>432.0</ele><time>2026-04-11T10:49:06.94Z</time></trkpt><trkpt lat="40.2091759" lon="15.0518011"><ele>432.0</ele><time>2026-04-11T10:49:07.948Z</time></trkpt><trkpt lat="40.2091454" lon="15.0519451"><ele>432.0</ele><time>2026-04-11T10:49:08.936Z</time></trkpt><trkpt lat="40.2091104" lon="15.0521085"><ele>432.0</ele><time>2026-04-11T10:49:09.949Z</time></trkpt><trkpt lat="40.2090706" lon="15.0522689"><ele>432.0</ele><time>2026-04-11T10:49:10.946Z</time></trkpt><trkpt lat="40.2090392" lon="15.0524335"><ele>432.0</ele><time>2026-04-11T10:49:11.94Z</time></trkpt><trkpt lat="40.2089986" lon="15.0526018"><ele>432.0</ele><time>2026-04-11T10:49:12.943Z</time></trkpt><trkpt lat="40.2089333" lon="15.0527727"><ele>432.0</ele><time>2026-04-11T10:49:13.934Z</time></trkpt><trkpt lat="40.20885" lon="15.0529221"><ele>431.75</ele><time>2026-04-11T10:49:14.935Z</time></trkpt><trkpt lat="40.2087561" lon="15.0530509"><ele>431.5</ele><time>2026-04-11T10:49:15.938Z</time></trkpt><trkpt lat="40.2086519" lon="15.0531819"><ele>431.25</ele><time>2026-04-11T10:49:16.946Z</time></trkpt><trkpt lat="40.2085384" lon="15.0533"><ele>431.0</ele><time>2026-04-11T10:49:17.945Z</time></trkpt><trkpt lat="40.2084273" lon="15.0534005"><ele>431.0</ele><time>2026-04-11T10:49:18.948Z</time></trkpt><trkpt lat="40.208311" lon="15.0534896"><ele>431.0</ele><time>2026-04-11T10:49:19.936Z</time></trkpt><trkpt lat="40.2081801" lon="15.0535652"><ele>431.0</ele><time>2026-04-11T10:49:20.939Z</time></trkpt><trkpt lat="40.2080345" lon="15.0536362"><ele>431.0</ele><time>2026-04-11T10:49:21.945Z</time></trkpt><trkpt lat="40.2078878" lon="15.0537002"><ele>427.0</ele><time>2026-04-11T10:49:22.936Z</time></trkpt><trkpt lat="40.2077549" lon="15.0537628"><ele>423.0</ele><time>2026-04-11T10:49:23.944Z</time></trkpt><trkpt lat="40.2076214" lon="15.0538139"><ele>419.0</ele><time>2026-04-11T10:49:24.944Z</time></trkpt><trkpt lat="40.207479" lon="15.0538403"><ele>415.0</ele><time>2026-04-11T10:49:25.957Z</time></trkpt><trkpt lat="40.2073339" lon="15.0538511"><ele>411.75</ele><time>2026-04-11T10:49:26.937Z</time></trkpt><trkpt lat="40.2072032" lon="15.0538347"><ele>408.5</ele><time>2026-04-11T10:49:27.938Z</time></trkpt><trkpt lat="40.2070849" lon="15.0537944"><ele>405.25</ele><time>2026-04-11T10:49:28.952Z</time></trkpt><trkpt lat="40.2069728" lon="15.0537385"><ele>402.0</ele><time>2026-04-11T10:49:29.944Z</time></trkpt><trkpt lat="40.2068673" lon="15.0536787"><ele>402.0</ele><time>2026-04-11T10:49:30.95Z</time></trkpt><trkpt lat="40.2067509" lon="15.0536583"><ele>402.0</ele><time>2026-04-11T10:49:31.944Z</time></trkpt><trkpt lat="40.206618" lon="15.0536886"><ele>402.0</ele><time>2026-04-11T10:49:32.943Z</time></trkpt><trkpt lat="40.2064953" lon="15.0537278"><ele>402.0</ele><time>2026-04-11T10:49:33.939Z</time></trkpt><trkpt lat="40.2063993" lon="15.0537792"><ele>403.25</ele><time>2026-04-11T10:49:34.95Z</time></trkpt><trkpt lat="40.2063031" lon="15.0538709"><ele>404.5</ele><time>2026-04-11T10:49:35.94Z</time></trkpt><trkpt lat="40.206209" lon="15.0539989"><ele>405.75</ele><time>2026-04-11T10:49:36.939Z</time></trkpt><trkpt lat="40.2061118" lon="15.0541473"><ele>407.0</ele><time>2026-04-11T10:49:37.929Z</time></trkpt><trkpt lat="40.2060118" lon="15.0542967"><ele>407.0</ele><time>2026-04-11T10:49:38.947Z</time></trkpt><trkpt lat="40.2059167" lon="15.0544454"><ele>407.0</ele><time>2026-04-11T10:49:39.942Z</time></trkpt><trkpt lat="40.2058151" lon="15.0545814"><ele>407.0</ele><time>2026-04-11T10:49:40.945Z</time></trkpt><trkpt lat="40.2057109" lon="15.054708"><ele>407.0</ele><time>2026-04-11T10:49:41.938Z</time></trkpt><trkpt lat="40.2056069" lon="15.0548314"><ele>404.25</ele><time>2026-04-11T10:49:42.939Z</time></trkpt><trkpt lat="40.20552" lon="15.054979"><ele>401.5</ele><time>2026-04-11T10:49:43.938Z</time></trkpt><trkpt lat="40.2054386" lon="15.055128"><ele>398.75</ele><time>2026-04-11T10:49:44.949Z</time></trkpt><trkpt lat="40.2053543" lon="15.0552611"><ele>396.0</ele><time>2026-04-11T10:49:45.943Z</time></trkpt><trkpt lat="40.2052551" lon="15.0553848"><ele>396.0</ele><time>2026-04-11T10:49:46.951Z</time></trkpt><trkpt lat="40.2051429" lon="15.0555018"><ele>396.0</ele><time>2026-04-11T10:49:47.944Z</time></trkpt><trkpt lat="40.2050444" lon="15.0556096"><ele>396.0</ele><time>2026-04-11T10:49:48.946Z</time></trkpt><trkpt lat="40.2049683" lon="15.055732"><ele>396.0</ele><time>2026-04-11T10:49:49.935Z</time></trkpt><trkpt lat="40.2049206" lon="15.0558636"><ele>392.75</ele><time>2026-04-11T10:49:50.949Z</time></trkpt><trkpt lat="40.2048976" lon="15.0560175"><ele>389.5</ele><time>2026-04-11T10:49:51.949Z</time></trkpt><trkpt lat="40.2048806" lon="15.0561797"><ele>386.25</ele><time>2026-04-11T10:49:52.95Z</time></trkpt><trkpt lat="40.2048445" lon="15.0563511"><ele>383.0</ele><time>2026-04-11T10:49:53.945Z</time></trkpt><trkpt lat="40.2047727" lon="15.0565098"><ele>386.0</ele><time>2026-04-11T10:49:54.944Z</time></trkpt><trkpt lat="40.2046936" lon="15.0566831"><ele>389.0</ele><time>2026-04-11T10:49:55.94Z</time></trkpt><trkpt lat="40.2046305" lon="15.056864"><ele>392.0</ele><time>2026-04-11T10:49:56.933Z</time></trkpt><trkpt lat="40.2045715" lon="15.0570408"><ele>392.0</ele><time>2026-04-11T10:49:57.945Z</time></trkpt><trkpt lat="40.2045146" lon="15.0572039"><ele>392.0</ele><time>2026-04-11T10:49:58.943Z</time></trkpt><trkpt lat="40.2044718" lon="15.0573348"><ele>392.0</ele><time>2026-04-11T10:49:59.946Z</time></trkpt><trkpt lat="40.2044322" lon="15.0574372"><ele>392.0</ele><time>2026-04-11T10:50:00.939Z</time></trkpt><trkpt lat="40.2043862" lon="15.0575167"><ele>392.0</ele><time>2026-04-11T10:50:01.943Z</time></trkpt><trkpt lat="40.2043447" lon="15.0575904"><ele>392.99999999999994</ele><time>2026-04-11T10:50:02.931Z</time></trkpt><trkpt lat="40.2042952" lon="15.0576534"><ele>394.0</ele><time>2026-04-11T10:50:03.942Z</time></trkpt><trkpt lat="40.2042397" lon="15.0577054"><ele>395.0</ele><time>2026-04-11T10:50:04.937Z</time></trkpt><trkpt lat="40.2041751" lon="15.0577399"><ele>396.0</ele><time>2026-04-11T10:50:05.942Z</time></trkpt><trkpt lat="40.2041027" lon="15.057754"><ele>396.99999999999994</ele><time>2026-04-11T10:50:06.932Z</time></trkpt><trkpt lat="40.2040183" lon="15.0577683"><ele>398.0</ele><time>2026-04-11T10:50:07.955Z</time></trkpt><trkpt lat="40.2039241" lon="15.0577837"><ele>398.0</ele><time>2026-04-11T10:50:08.958Z</time></trkpt><trkpt lat="40.2038268" lon="15.0577987"><ele>398.0</ele><time>2026-04-11T10:50:09.927Z</time></trkpt><trkpt lat="40.2037339" lon="15.0578182"><ele>398.0</ele><time>2026-04-11T10:50:10.939Z</time></trkpt><trkpt lat="40.2036466" lon="15.0578394"><ele>398.0</ele><time>2026-04-11T10:50:11.941Z</time></trkpt><trkpt lat="40.2035726" lon="15.0578503"><ele>398.0</ele><time>2026-04-11T10:50:12.941Z</time></trkpt><trkpt lat="40.2034609" lon="15.057872"><ele>397.99999999999994</ele><time>2026-04-11T10:50:14.941Z</time></trkpt><trkpt lat="40.2033506" lon="15.0578984"><ele>398.0</ele><time>2026-04-11T10:50:16.93Z</time></trkpt><trkpt lat="40.2032886" lon="15.0579144"><ele>398.0</ele><time>2026-04-11T10:50:17.939Z</time></trkpt><trkpt lat="40.2032237" lon="15.057937"><ele>398.0</ele><time>2026-04-11T10:50:18.935Z</time></trkpt><trkpt lat="40.2031486" lon="15.0579453"><ele>397.99999999999994</ele><time>2026-04-11T10:50:19.949Z</time></trkpt><trkpt lat="40.2030821" lon="15.0579255"><ele>398.0</ele><time>2026-04-11T10:50:20.94Z</time></trkpt><trkpt lat="40.2030134" lon="15.0579034"><ele>397.59999999999997</ele><time>2026-04-11T10:50:21.944Z</time></trkpt><trkpt lat="40.2029284" lon="15.0578975"><ele>397.2</ele><time>2026-04-11T10:50:22.944Z</time></trkpt><trkpt lat="40.2028408" lon="15.0578932"><ele>396.8</ele><time>2026-04-11T10:50:23.951Z</time></trkpt><trkpt lat="40.2027558" lon="15.0578879"><ele>396.4</ele><time>2026-04-11T10:50:24.946Z</time></trkpt><trkpt lat="40.2026601" lon="15.0578748"><ele>396.0</ele><time>2026-04-11T10:50:25.942Z</time></trkpt><trkpt lat="40.2025549" lon="15.0578431"><ele>396.0</ele><time>2026-04-11T10:50:26.944Z</time></trkpt><trkpt lat="40.2024502" lon="15.0577829"><ele>396.0</ele><time>2026-04-11T10:50:27.939Z</time></trkpt><trkpt lat="40.2023491" lon="15.0577147"><ele>396.0</ele><time>2026-04-11T10:50:28.936Z</time></trkpt><trkpt lat="40.2022532" lon="15.0576316"><ele>396.0</ele><time>2026-04-11T10:50:29.931Z</time></trkpt><trkpt lat="40.2021587" lon="15.0575544"><ele>397.20000000000005</ele><time>2026-04-11T10:50:30.946Z</time></trkpt><trkpt lat="40.2020713" lon="15.0574819"><ele>398.40000000000003</ele><time>2026-04-11T10:50:31.938Z</time></trkpt><trkpt lat="40.2019847" lon="15.0574209"><ele>399.6</ele><time>2026-04-11T10:50:32.944Z</time></trkpt><trkpt lat="40.2018834" lon="15.0573825"><ele>400.8</ele><time>2026-04-11T10:50:33.947Z</time></trkpt><trkpt lat="40.2017763" lon="15.0573665"><ele>402.0</ele><time>2026-04-11T10:50:34.94Z</time></trkpt><trkpt lat="40.2016408" lon="15.0573773"><ele>398.25</ele><time>2026-04-11T10:50:35.936Z</time></trkpt><trkpt lat="40.2015083" lon="15.05738"><ele>394.5</ele><time>2026-04-11T10:50:36.953Z</time></trkpt><trkpt lat="40.201373" lon="15.0573897"><ele>390.75</ele><time>2026-04-11T10:50:37.947Z</time></trkpt><trkpt lat="40.2012463" lon="15.0574047"><ele>387.0</ele><time>2026-04-11T10:50:38.951Z</time></trkpt><trkpt lat="40.201135" lon="15.0574196"><ele>387.0</ele><time>2026-04-11T10:50:39.945Z</time></trkpt><trkpt lat="40.2010449" lon="15.0574338"><ele>387.0</ele><time>2026-04-11T10:50:40.938Z</time></trkpt><trkpt lat="40.2009576" lon="15.0574488"><ele>387.0</ele><time>2026-04-11T10:50:41.948Z</time></trkpt><trkpt lat="40.2008778" lon="15.0574555"><ele>387.0</ele><time>2026-04-11T10:50:42.939Z</time></trkpt><trkpt lat="40.2007985" lon="15.0574603"><ele>387.0</ele><time>2026-04-11T10:50:43.938Z</time></trkpt><trkpt lat="40.2007138" lon="15.057455"><ele>387.0</ele><time>2026-04-11T10:50:44.949Z</time></trkpt><trkpt lat="40.2006372" lon="15.0574568"><ele>391.40000000000003</ele><time>2026-04-11T10:50:45.942Z</time></trkpt><trkpt lat="40.2005596" lon="15.0574565"><ele>395.8</ele><time>2026-04-11T10:50:46.933Z</time></trkpt><trkpt lat="40.2004808" lon="15.0574582"><ele>400.2</ele><time>2026-04-11T10:50:47.945Z</time></trkpt><trkpt lat="40.200388" lon="15.0574706"><ele>404.6</ele><time>2026-04-11T10:50:48.951Z</time></trkpt><trkpt lat="40.2002868" lon="15.0574754"><ele>409.0</ele><time>2026-04-11T10:50:49.938Z</time></trkpt><trkpt lat="40.2001775" lon="15.0574778"><ele>409.0</ele><time>2026-04-11T10:50:50.931Z</time></trkpt><trkpt lat="40.2000537" lon="15.0574892"><ele>409.0</ele><time>2026-04-11T10:50:51.948Z</time></trkpt><trkpt lat="40.1999228" lon="15.0575071"><ele>409.0</ele><time>2026-04-11T10:50:52.947Z</time></trkpt><trkpt lat="40.1997817" lon="15.0575259"><ele>409.0</ele><time>2026-04-11T10:50:53.936Z</time></trkpt><trkpt lat="40.1996372" lon="15.0575368"><ele>408.2</ele><time>2026-04-11T10:50:54.949Z</time></trkpt><trkpt lat="40.1995028" lon="15.057548"><ele>407.4</ele><time>2026-04-11T10:50:55.935Z</time></trkpt><trkpt lat="40.1993867" lon="15.0575526"><ele>406.6</ele><time>2026-04-11T10:50:56.938Z</time></trkpt><trkpt lat="40.1992831" lon="15.0575337"><ele>405.8</ele><time>2026-04-11T10:50:57.936Z</time></trkpt><trkpt lat="40.199198" lon="15.0574922"><ele>405.0</ele><time>2026-04-11T10:50:58.935Z</time></trkpt><trkpt lat="40.1991294" lon="15.0574305"><ele>405.0</ele><time>2026-04-11T10:50:59.947Z</time></trkpt><trkpt lat="40.1990646" lon="15.0573508"><ele>405.0</ele><time>2026-04-11T10:51:00.948Z</time></trkpt><trkpt lat="40.1990014" lon="15.0572457"><ele>405.0</ele><time>2026-04-11T10:51:01.925Z</time></trkpt><trkpt lat="40.1989319" lon="15.0571194"><ele>405.0</ele><time>2026-04-11T10:51:02.946Z</time></trkpt><trkpt lat="40.1988603" lon="15.0569735"><ele>405.0</ele><time>2026-04-11T10:51:03.939Z</time></trkpt><trkpt lat="40.1987819" lon="15.0568279"><ele>407.0</ele><time>2026-04-11T10:51:04.939Z</time></trkpt><trkpt lat="40.1987022" lon="15.0566771"><ele>409.0</ele><time>2026-04-11T10:51:05.944Z</time></trkpt><trkpt lat="40.1986215" lon="15.0565274"><ele>411.0</ele><time>2026-04-11T10:51:06.948Z</time></trkpt><trkpt lat="40.1985313" lon="15.0563786"><ele>413.0</ele><time>2026-04-11T10:51:07.953Z</time></trkpt><trkpt lat="40.1984169" lon="15.0562317"><ele>413.0</ele><time>2026-04-11T10:51:08.949Z</time></trkpt><trkpt lat="40.1982909" lon="15.0560916"><ele>413.0</ele><time>2026-04-11T10:51:09.938Z</time></trkpt><trkpt lat="40.1981642" lon="15.0559471"><ele>413.0</ele><time>2026-04-11T10:51:10.94Z</time></trkpt><trkpt lat="40.198046" lon="15.0557979"><ele>418.0</ele><time>2026-04-11T10:51:11.941Z</time></trkpt><trkpt lat="40.1979264" lon="15.0556424"><ele>423.0</ele><time>2026-04-11T10:51:12.938Z</time></trkpt><trkpt lat="40.1978041" lon="15.0554757"><ele>428.0</ele><time>2026-04-11T10:51:13.94Z</time></trkpt><trkpt lat="40.1976993" lon="15.0552846"><ele>428.0</ele><time>2026-04-11T10:51:14.957Z</time></trkpt><trkpt lat="40.1976116" lon="15.0550986"><ele>428.0</ele><time>2026-04-11T10:51:15.948Z</time></trkpt><trkpt lat="40.1975322" lon="15.0549293"><ele>428.0</ele><time>2026-04-11T10:51:16.946Z</time></trkpt><trkpt lat="40.1974719" lon="15.0547686"><ele>424.0</ele><time>2026-04-11T10:51:17.934Z</time></trkpt><trkpt lat="40.1974289" lon="15.0545885"><ele>420.0</ele><time>2026-04-11T10:51:18.938Z</time></trkpt><trkpt lat="40.1974118" lon="15.0544039"><ele>416.0</ele><time>2026-04-11T10:51:19.944Z</time></trkpt><trkpt lat="40.1974058" lon="15.0542488"><ele>412.0</ele><time>2026-04-11T10:51:20.935Z</time></trkpt><trkpt lat="40.1973907" lon="15.054116"><ele>414.8</ele><time>2026-04-11T10:51:21.941Z</time></trkpt><trkpt lat="40.1973609" lon="15.0539985"><ele>417.6</ele><time>2026-04-11T10:51:22.936Z</time></trkpt><trkpt lat="40.1973042" lon="15.0538926"><ele>420.40000000000003</ele><time>2026-04-11T10:51:23.945Z</time></trkpt><trkpt lat="40.1972078" lon="15.0538279"><ele>423.20000000000005</ele><time>2026-04-11T10:51:24.939Z</time></trkpt><trkpt lat="40.1970958" lon="15.0537851"><ele>426.0</ele><time>2026-04-11T10:51:25.947Z</time></trkpt><trkpt lat="40.1969853" lon="15.0537541"><ele>426.0</ele><time>2026-04-11T10:51:26.948Z</time></trkpt><trkpt lat="40.1969035" lon="15.0537191"><ele>426.0</ele><time>2026-04-11T10:51:27.937Z</time></trkpt><trkpt lat="40.1968448" lon="15.0536666"><ele>426.0</ele><time>2026-04-11T10:51:28.937Z</time></trkpt><trkpt lat="40.1968121" lon="15.0535894"><ele>426.0</ele><time>2026-04-11T10:51:29.936Z</time></trkpt><trkpt lat="40.1967984" lon="15.0534788"><ele>426.0</ele><time>2026-04-11T10:51:30.944Z</time></trkpt><trkpt lat="40.1967963" lon="15.0533399"><ele>426.0</ele><time>2026-04-11T10:51:31.938Z</time></trkpt><trkpt lat="40.1968012" lon="15.0531854"><ele>423.0</ele><time>2026-04-11T10:51:32.926Z</time></trkpt><trkpt lat="40.1967947" lon="15.0530286"><ele>420.0</ele><time>2026-04-11T10:51:33.935Z</time></trkpt><trkpt lat="40.196788" lon="15.0528841"><ele>417.0</ele><time>2026-04-11T10:51:34.934Z</time></trkpt><trkpt lat="40.1967771" lon="15.0527494"><ele>414.0</ele><time>2026-04-11T10:51:35.942Z</time></trkpt><trkpt lat="40.1967521" lon="15.0526316"><ele>411.0</ele><time>2026-04-11T10:51:36.941Z</time></trkpt><trkpt lat="40.1967067" lon="15.0525178"><ele>408.75</ele><time>2026-04-11T10:51:37.94Z</time></trkpt><trkpt lat="40.1966485" lon="15.0523925"><ele>406.5</ele><time>2026-04-11T10:51:38.948Z</time></trkpt><trkpt lat="40.1965674" lon="15.0522532"><ele>404.25</ele><time>2026-04-11T10:51:39.936Z</time></trkpt><trkpt lat="40.1964798" lon="15.0521103"><ele>402.0</ele><time>2026-04-11T10:51:40.942Z</time></trkpt><trkpt lat="40.196388" lon="15.0519796"><ele>405.75</ele><time>2026-04-11T10:51:41.943Z</time></trkpt><trkpt lat="40.1962978" lon="15.0518586"><ele>409.5</ele><time>2026-04-11T10:51:42.941Z</time></trkpt><trkpt lat="40.1962036" lon="15.0517316"><ele>413.25</ele><time>2026-04-11T10:51:43.935Z</time></trkpt><trkpt lat="40.1961199" lon="15.0515922"><ele>417.0</ele><time>2026-04-11T10:51:44.954Z</time></trkpt><trkpt lat="40.1960603" lon="15.0514472"><ele>417.0</ele><time>2026-04-11T10:51:45.94Z</time></trkpt><trkpt lat="40.1960222" lon="15.051299"><ele>417.0</ele><time>2026-04-11T10:51:46.943Z</time></trkpt><trkpt lat="40.1959887" lon="15.0511315"><ele>417.0</ele><time>2026-04-11T10:51:47.933Z</time></trkpt><trkpt lat="40.1959611" lon="15.0509581"><ele>417.0</ele><time>2026-04-11T10:51:48.941Z</time></trkpt><trkpt lat="40.1959358" lon="15.05078"><ele>415.75</ele><time>2026-04-11T10:51:49.936Z</time></trkpt><trkpt lat="40.1959131" lon="15.0505927"><ele>414.5</ele><time>2026-04-11T10:51:50.944Z</time></trkpt><trkpt lat="40.195879" lon="15.0504076"><ele>413.25</ele><time>2026-04-11T10:51:51.941Z</time></trkpt><trkpt lat="40.1958317" lon="15.0502318"><ele>412.0</ele><time>2026-04-11T10:51:52.956Z</time></trkpt><trkpt lat="40.1957875" lon="15.0500708"><ele>411.75</ele><time>2026-04-11T10:51:53.946Z</time></trkpt><trkpt lat="40.1957427" lon="15.0499135"><ele>411.5</ele><time>2026-04-11T10:51:54.937Z</time></trkpt><trkpt lat="40.195718" lon="15.0497522"><ele>411.25</ele><time>2026-04-11T10:51:55.946Z</time></trkpt><trkpt lat="40.1957262" lon="15.0495738"><ele>411.0</ele><time>2026-04-11T10:51:56.938Z</time></trkpt><trkpt lat="40.1957511" lon="15.0493886"><ele>411.0</ele><time>2026-04-11T10:51:57.941Z</time></trkpt><trkpt lat="40.1957787" lon="15.0492072"><ele>411.0</ele><time>2026-04-11T10:51:58.942Z</time></trkpt><trkpt lat="40.1958055" lon="15.0490371"><ele>411.0</ele><time>2026-04-11T10:51:59.953Z</time></trkpt><trkpt lat="40.1958258" lon="15.0489106"><ele>411.0</ele><time>2026-04-11T10:52:00.952Z</time></trkpt><trkpt lat="40.1958319" lon="15.048788"><ele>409.25</ele><time>2026-04-11T10:52:01.938Z</time></trkpt><trkpt lat="40.1957995" lon="15.0486725"><ele>407.5</ele><time>2026-04-11T10:52:02.941Z</time></trkpt><trkpt lat="40.1957173" lon="15.0485496"><ele>405.75</ele><time>2026-04-11T10:52:03.935Z</time></trkpt><trkpt lat="40.1956139" lon="15.0484116"><ele>404.0</ele><time>2026-04-11T10:52:04.946Z</time></trkpt><trkpt lat="40.1955117" lon="15.0482643"><ele>401.79999999999995</ele><time>2026-04-11T10:52:05.935Z</time></trkpt><trkpt lat="40.195431" lon="15.048131"><ele>399.59999999999997</ele><time>2026-04-11T10:52:06.943Z</time></trkpt><trkpt lat="40.1953675" lon="15.048019"><ele>397.4</ele><time>2026-04-11T10:52:07.938Z</time></trkpt><trkpt lat="40.1953032" lon="15.0479407"><ele>395.2</ele><time>2026-04-11T10:52:08.945Z</time></trkpt><trkpt lat="40.1952461" lon="15.0478938"><ele>393.0</ele><time>2026-04-11T10:52:09.94Z</time></trkpt><trkpt lat="40.1951256" lon="15.0479069"><ele>393.0</ele><time>2026-04-11T10:52:11.946Z</time></trkpt><trkpt lat="40.1950743" lon="15.0479889"><ele>393.0</ele><time>2026-04-11T10:52:12.944Z</time></trkpt><trkpt lat="40.1950478" lon="15.0481034"><ele>393.0</ele><time>2026-04-11T10:52:13.944Z</time></trkpt><trkpt lat="40.1950396" lon="15.0482123"><ele>393.0</ele><time>2026-04-11T10:52:14.947Z</time></trkpt><trkpt lat="40.1950318" lon="15.048306"><ele>393.0</ele><time>2026-04-11T10:52:15.946Z</time></trkpt><trkpt lat="40.1950209" lon="15.048446"><ele>393.0</ele><time>2026-04-11T10:52:17.944Z</time></trkpt><trkpt lat="40.1949812" lon="15.0486076"><ele>395.0</ele><time>2026-04-11T10:52:19.941Z</time></trkpt><trkpt lat="40.1949362" lon="15.0487"><ele>397.0</ele><time>2026-04-11T10:52:20.959Z</time></trkpt><trkpt lat="40.1948755" lon="15.0487914"><ele>399.0</ele><time>2026-04-11T10:52:21.947Z</time></trkpt><trkpt lat="40.1948051" lon="15.0488866"><ele>401.0</ele><time>2026-04-11T10:52:22.937Z</time></trkpt><trkpt lat="40.1947182" lon="15.0489969"><ele>403.0</ele><time>2026-04-11T10:52:23.947Z</time></trkpt><trkpt lat="40.194621" lon="15.0491055"><ele>400.59999999999997</ele><time>2026-04-11T10:52:24.936Z</time></trkpt><trkpt lat="40.1945416" lon="15.0491913"><ele>398.2</ele><time>2026-04-11T10:52:25.932Z</time></trkpt><trkpt lat="40.1944756" lon="15.049272"><ele>395.8</ele><time>2026-04-11T10:52:26.948Z</time></trkpt><trkpt lat="40.1943916" lon="15.0493595"><ele>393.4</ele><time>2026-04-11T10:52:27.939Z</time></trkpt><trkpt lat="40.194296" lon="15.0494542"><ele>391.0</ele><time>2026-04-11T10:52:28.948Z</time></trkpt><trkpt lat="40.1941855" lon="15.049569"><ele>391.0</ele><time>2026-04-11T10:52:29.946Z</time></trkpt><trkpt lat="40.1940632" lon="15.0496829"><ele>391.0</ele><time>2026-04-11T10:52:30.939Z</time></trkpt><trkpt lat="40.1939413" lon="15.0497805"><ele>391.0</ele><time>2026-04-11T10:52:31.927Z</time></trkpt><trkpt lat="40.1938246" lon="15.04988"><ele>391.0</ele><time>2026-04-11T10:52:32.939Z</time></trkpt><trkpt lat="40.1936998" lon="15.0499894"><ele>388.75</ele><time>2026-04-11T10:52:33.944Z</time></trkpt><trkpt lat="40.1935766" lon="15.050106"><ele>386.5</ele><time>2026-04-11T10:52:34.93Z</time></trkpt><trkpt lat="40.1934625" lon="15.0502051"><ele>384.25</ele><time>2026-04-11T10:52:35.95Z</time></trkpt><trkpt lat="40.1933564" lon="15.0503086"><ele>382.0</ele><time>2026-04-11T10:52:36.939Z</time></trkpt><trkpt lat="40.1932644" lon="15.0504167"><ele>382.0</ele><time>2026-04-11T10:52:37.938Z</time></trkpt><trkpt lat="40.1931856" lon="15.0505267"><ele>382.0</ele><time>2026-04-11T10:52:38.933Z</time></trkpt><trkpt lat="40.1931156" lon="15.0506438"><ele>382.0</ele><time>2026-04-11T10:52:39.941Z</time></trkpt><trkpt lat="40.1930653" lon="15.0507892"><ele>382.0</ele><time>2026-04-11T10:52:40.943Z</time></trkpt><trkpt lat="40.1930297" lon="15.0509635"><ele>375.66666666666663</ele><time>2026-04-11T10:52:41.941Z</time></trkpt><trkpt lat="40.1930039" lon="15.051153"><ele>369.3333333333333</ele><time>2026-04-11T10:52:42.943Z</time></trkpt><trkpt lat="40.1929697" lon="15.0513581"><ele>363.0</ele><time>2026-04-11T10:52:43.947Z</time></trkpt><trkpt lat="40.1929363" lon="15.0515541"><ele>368.75</ele><time>2026-04-11T10:52:44.934Z</time></trkpt><trkpt lat="40.1929071" lon="15.0517332"><ele>374.5</ele><time>2026-04-11T10:52:45.935Z</time></trkpt><trkpt lat="40.1928805" lon="15.0518994"><ele>380.25</ele><time>2026-04-11T10:52:46.933Z</time></trkpt><trkpt lat="40.1928505" lon="15.0520396"><ele>386.0</ele><time>2026-04-11T10:52:47.942Z</time></trkpt><trkpt lat="40.1928114" lon="15.0521582"><ele>386.0</ele><time>2026-04-11T10:52:48.932Z</time></trkpt><trkpt lat="40.1927525" lon="15.05224"><ele>386.0</ele><time>2026-04-11T10:52:49.935Z</time></trkpt><trkpt lat="40.1926869" lon="15.0522892"><ele>386.0</ele><time>2026-04-11T10:52:50.943Z</time></trkpt><trkpt lat="40.1926136" lon="15.0522806"><ele>386.0</ele><time>2026-04-11T10:52:51.937Z</time></trkpt><trkpt lat="40.1925244" lon="15.052225"><ele>386.0</ele><time>2026-04-11T10:52:52.932Z</time></trkpt><trkpt lat="40.1924348" lon="15.0521194"><ele>386.0</ele><time>2026-04-11T10:52:53.927Z</time></trkpt><trkpt lat="40.1923523" lon="15.0519798"><ele>386.0</ele><time>2026-04-11T10:52:54.926Z</time></trkpt><trkpt lat="40.1922809" lon="15.0518389"><ele>386.0</ele><time>2026-04-11T10:52:55.934Z</time></trkpt><trkpt lat="40.1922003" lon="15.0517123"><ele>386.0</ele><time>2026-04-11T10:52:56.937Z</time></trkpt><trkpt lat="40.1920937" lon="15.0515947"><ele>379.8</ele><time>2026-04-11T10:52:57.937Z</time></trkpt><trkpt lat="40.1919883" lon="15.0515042"><ele>373.6</ele><time>2026-04-11T10:52:58.936Z</time></trkpt><trkpt lat="40.1918988" lon="15.0514269"><ele>367.4</ele><time>2026-04-11T10:52:59.933Z</time></trkpt><trkpt lat="40.1918007" lon="15.0513855"><ele>361.2</ele><time>2026-04-11T10:53:00.947Z</time></trkpt><trkpt lat="40.1917078" lon="15.0513799"><ele>355.0</ele><time>2026-04-11T10:53:01.936Z</time></trkpt><trkpt lat="40.191614" lon="15.0514225"><ele>355.0</ele><time>2026-04-11T10:53:02.929Z</time></trkpt><trkpt lat="40.1915148" lon="15.0515037"><ele>355.0</ele><time>2026-04-11T10:53:03.933Z</time></trkpt><trkpt lat="40.1914159" lon="15.0515992"><ele>355.0</ele><time>2026-04-11T10:53:04.942Z</time></trkpt><trkpt lat="40.1912934" lon="15.0516762"><ele>355.0</ele><time>2026-04-11T10:53:05.932Z</time></trkpt><trkpt lat="40.1911509" lon="15.05173"><ele>354.25</ele><time>2026-04-11T10:53:06.948Z</time></trkpt><trkpt lat="40.1910139" lon="15.0517596"><ele>353.5</ele><time>2026-04-11T10:53:07.92Z</time></trkpt><trkpt lat="40.190886" lon="15.0517853"><ele>352.75</ele><time>2026-04-11T10:53:08.945Z</time></trkpt><trkpt lat="40.1907693" lon="15.0518205"><ele>352.0</ele><time>2026-04-11T10:53:09.936Z</time></trkpt><trkpt lat="40.1906614" lon="15.0518724"><ele>352.0</ele><time>2026-04-11T10:53:10.94Z</time></trkpt><trkpt lat="40.1905647" lon="15.0519325"><ele>352.0</ele><time>2026-04-11T10:53:11.943Z</time></trkpt><trkpt lat="40.1904906" lon="15.0519952"><ele>352.0</ele><time>2026-04-11T10:53:12.944Z</time></trkpt><trkpt lat="40.1904358" lon="15.0520641"><ele>352.0</ele><time>2026-04-11T10:53:13.944Z</time></trkpt><trkpt lat="40.1903996" lon="15.0521405"><ele>352.0</ele><time>2026-04-11T10:53:14.947Z</time></trkpt><trkpt lat="40.1903913" lon="15.0522333"><ele>352.0</ele><time>2026-04-11T10:53:15.938Z</time></trkpt><trkpt lat="40.19042" lon="15.0523299"><ele>352.0</ele><time>2026-04-11T10:53:16.941Z</time></trkpt><trkpt lat="40.1904748" lon="15.052435"><ele>352.0</ele><time>2026-04-11T10:53:17.933Z</time></trkpt><trkpt lat="40.1905497" lon="15.0525568"><ele>352.0</ele><time>2026-04-11T10:53:18.936Z</time></trkpt><trkpt lat="40.1906425" lon="15.0527084"><ele>352.0</ele><time>2026-04-11T10:53:19.94Z</time></trkpt><trkpt lat="40.1907246" lon="15.0528653"><ele>359.0</ele><time>2026-04-11T10:53:20.945Z</time></trkpt><trkpt lat="40.1907907" lon="15.053021"><ele>366.0</ele><time>2026-04-11T10:53:21.932Z</time></trkpt><trkpt lat="40.1908439" lon="15.0531773"><ele>373.0</ele><time>2026-04-11T10:53:22.941Z</time></trkpt><trkpt lat="40.1908891" lon="15.053313"><ele>380.0</ele><time>2026-04-11T10:53:23.946Z</time></trkpt><trkpt lat="40.1909198" lon="15.0534383"><ele>380.0</ele><time>2026-04-11T10:53:24.952Z</time></trkpt><trkpt lat="40.1909307" lon="15.053565"><ele>380.0</ele><time>2026-04-11T10:53:25.941Z</time></trkpt><trkpt lat="40.1909139" lon="15.0536873"><ele>380.0</ele><time>2026-04-11T10:53:26.941Z</time></trkpt><trkpt lat="40.1908795" lon="15.0538021"><ele>380.0</ele><time>2026-04-11T10:53:27.94Z</time></trkpt><trkpt lat="40.1908509" lon="15.0539229"><ele>380.0</ele><time>2026-04-11T10:53:28.943Z</time></trkpt><trkpt lat="40.1908472" lon="15.0540634"><ele>379.6</ele><time>2026-04-11T10:53:29.948Z</time></trkpt><trkpt lat="40.1908566" lon="15.0542102"><ele>379.2</ele><time>2026-04-11T10:53:30.938Z</time></trkpt><trkpt lat="40.1908727" lon="15.0543459"><ele>378.79999999999995</ele><time>2026-04-11T10:53:31.942Z</time></trkpt><trkpt lat="40.1908853" lon="15.0544712"><ele>378.4</ele><time>2026-04-11T10:53:32.935Z</time></trkpt><trkpt lat="40.1908968" lon="15.0545854"><ele>378.0</ele><time>2026-04-11T10:53:33.935Z</time></trkpt><trkpt lat="40.1909164" lon="15.0546914"><ele>378.0</ele><time>2026-04-11T10:53:34.94Z</time></trkpt><trkpt lat="40.1909313" lon="15.0547844"><ele>378.0</ele><time>2026-04-11T10:53:35.945Z</time></trkpt><trkpt lat="40.1909371" lon="15.054896"><ele>378.0</ele><time>2026-04-11T10:53:37.943Z</time></trkpt><trkpt lat="40.190879" lon="15.0549338"><ele>378.0</ele><time>2026-04-11T10:53:40.949Z</time></trkpt><trkpt lat="40.1908386" lon="15.0548308"><ele>378.0</ele><time>2026-04-11T10:53:43.943Z</time></trkpt><trkpt lat="40.1908256" lon="15.0546929"><ele>378.0</ele><time>2026-04-11T10:53:45.938Z</time></trkpt><trkpt lat="40.1908094" lon="15.0545826"><ele>378.0</ele><time>2026-04-11T10:53:46.945Z</time></trkpt><trkpt lat="40.1907846" lon="15.0544832"><ele>378.0</ele><time>2026-04-11T10:53:47.938Z</time></trkpt><trkpt lat="40.1907665" lon="15.0543879"><ele>378.0</ele><time>2026-04-11T10:53:48.943Z</time></trkpt><trkpt lat="40.1907482" lon="15.0542835"><ele>378.0</ele><time>2026-04-11T10:53:49.939Z</time></trkpt><trkpt lat="40.1907359" lon="15.054148"><ele>378.0</ele><time>2026-04-11T10:53:50.941Z</time></trkpt><trkpt lat="40.1907311" lon="15.0539962"><ele>378.4</ele><time>2026-04-11T10:53:51.931Z</time></trkpt><trkpt lat="40.1907292" lon="15.0538519"><ele>378.79999999999995</ele><time>2026-04-11T10:53:52.933Z</time></trkpt><trkpt lat="40.1907238" lon="15.0537141"><ele>379.2</ele><time>2026-04-11T10:53:53.935Z</time></trkpt><trkpt lat="40.1907219" lon="15.0535913"><ele>379.6</ele><time>2026-04-11T10:53:54.94Z</time></trkpt><trkpt lat="40.1907026" lon="15.0534674"><ele>380.0</ele><time>2026-04-11T10:53:55.936Z</time></trkpt><trkpt lat="40.190655" lon="15.0533372"><ele>374.25</ele><time>2026-04-11T10:53:56.948Z</time></trkpt><trkpt lat="40.1905868" lon="15.0532102"><ele>368.5</ele><time>2026-04-11T10:53:57.945Z</time></trkpt><trkpt lat="40.1905291" lon="15.0530731"><ele>362.75</ele><time>2026-04-11T10:53:58.938Z</time></trkpt><trkpt lat="40.1904601" lon="15.0529511"><ele>357.0</ele><time>2026-04-11T10:53:59.931Z</time></trkpt><trkpt lat="40.1903775" lon="15.0528369"><ele>357.0</ele><time>2026-04-11T10:54:00.932Z</time></trkpt><trkpt lat="40.1902828" lon="15.052738"><ele>357.0</ele><time>2026-04-11T10:54:01.946Z</time></trkpt><trkpt lat="40.1901901" lon="15.0526457"><ele>357.0</ele><time>2026-04-11T10:54:02.943Z</time></trkpt><trkpt lat="40.1900917" lon="15.0525543"><ele>357.0</ele><time>2026-04-11T10:54:03.935Z</time></trkpt><trkpt lat="40.1899941" lon="15.0524497"><ele>356.1666666666667</ele><time>2026-04-11T10:54:04.934Z</time></trkpt><trkpt lat="40.189896" lon="15.0523687"><ele>355.3333333333333</ele><time>2026-04-11T10:54:05.943Z</time></trkpt><trkpt lat="40.1898149" lon="15.0522899"><ele>354.5</ele><time>2026-04-11T10:54:06.938Z</time></trkpt><trkpt lat="40.189758" lon="15.0522105"><ele>353.66666666666663</ele><time>2026-04-11T10:54:07.948Z</time></trkpt><trkpt lat="40.1897245" lon="15.0521373"><ele>352.8333333333333</ele><time>2026-04-11T10:54:08.943Z</time></trkpt><trkpt lat="40.1897133" lon="15.0520552"><ele>352.0</ele><time>2026-04-11T10:54:09.943Z</time></trkpt><trkpt lat="40.1897357" lon="15.0519591"><ele>352.0</ele><time>2026-04-11T10:54:10.945Z</time></trkpt><trkpt lat="40.1897836" lon="15.0518555"><ele>352.0</ele><time>2026-04-11T10:54:11.951Z</time></trkpt><trkpt lat="40.1898416" lon="15.051761"><ele>352.0</ele><time>2026-04-11T10:54:12.943Z</time></trkpt><trkpt lat="40.1899154" lon="15.0516891"><ele>352.0</ele><time>2026-04-11T10:54:13.946Z</time></trkpt><trkpt lat="40.1900149" lon="15.0516361"><ele>352.0</ele><time>2026-04-11T10:54:14.942Z</time></trkpt><trkpt lat="40.1901304" lon="15.0515896"><ele>345.6</ele><time>2026-04-11T10:54:15.935Z</time></trkpt><trkpt lat="40.1902452" lon="15.0515369"><ele>339.20000000000005</ele><time>2026-04-11T10:54:16.928Z</time></trkpt><trkpt lat="40.1903489" lon="15.0514675"><ele>332.8</ele><time>2026-04-11T10:54:17.94Z</time></trkpt><trkpt lat="40.1904331" lon="15.0513817"><ele>326.4</ele><time>2026-04-11T10:54:18.925Z</time></trkpt><trkpt lat="40.1905074" lon="15.051286"><ele>320.0</ele><time>2026-04-11T10:54:19.942Z</time></trkpt><trkpt lat="40.1905838" lon="15.0511772"><ele>316.5</ele><time>2026-04-11T10:54:20.943Z</time></trkpt><trkpt lat="40.190678" lon="15.051055"><ele>313.0</ele><time>2026-04-11T10:54:21.943Z</time></trkpt><trkpt lat="40.1907756" lon="15.0509299"><ele>309.5</ele><time>2026-04-11T10:54:22.941Z</time></trkpt><trkpt lat="40.1908629" lon="15.0508213"><ele>306.0</ele><time>2026-04-11T10:54:23.933Z</time></trkpt><trkpt lat="40.1909608" lon="15.050726"><ele>306.0</ele><time>2026-04-11T10:54:24.931Z</time></trkpt><trkpt lat="40.1910732" lon="15.0506456"><ele>306.0</ele><time>2026-04-11T10:54:25.942Z</time></trkpt><trkpt lat="40.1912069" lon="15.0505833"><ele>306.0</ele><time>2026-04-11T10:54:26.939Z</time></trkpt><trkpt lat="40.1913426" lon="15.0505361"><ele>306.0</ele><time>2026-04-11T10:54:27.945Z</time></trkpt><trkpt lat="40.1914681" lon="15.050494"><ele>307.40000000000003</ele><time>2026-04-11T10:54:28.933Z</time></trkpt><trkpt lat="40.1915827" lon="15.0504531"><ele>308.8</ele><time>2026-04-11T10:54:29.935Z</time></trkpt><trkpt lat="40.1916961" lon="15.0504328"><ele>310.20000000000005</ele><time>2026-04-11T10:54:30.936Z</time></trkpt><trkpt lat="40.1918021" lon="15.0504426"><ele>311.6</ele><time>2026-04-11T10:54:31.935Z</time></trkpt><trkpt lat="40.1918986" lon="15.0504686"><ele>313.0</ele><time>2026-04-11T10:54:32.941Z</time></trkpt><trkpt lat="40.19197" lon="15.0505099"><ele>313.0</ele><time>2026-04-11T10:54:33.933Z</time></trkpt><trkpt lat="40.1920292" lon="15.0505399"><ele>313.0</ele><time>2026-04-11T10:54:34.938Z</time></trkpt><trkpt lat="40.1921447" lon="15.0504722"><ele>313.0</ele><time>2026-04-11T10:54:36.935Z</time></trkpt><trkpt lat="40.1921931" lon="15.0503632"><ele>313.0</ele><time>2026-04-11T10:54:37.949Z</time></trkpt><trkpt lat="40.1922399" lon="15.0502044"><ele>313.0</ele><time>2026-04-11T10:54:38.938Z</time></trkpt><trkpt lat="40.1923004" lon="15.0500588"><ele>317.4</ele><time>2026-04-11T10:54:39.943Z</time></trkpt><trkpt lat="40.1923619" lon="15.0499246"><ele>321.8</ele><time>2026-04-11T10:54:40.944Z</time></trkpt><trkpt lat="40.1924275" lon="15.0498024"><ele>326.2</ele><time>2026-04-11T10:54:41.935Z</time></trkpt><trkpt lat="40.1924913" lon="15.0496962"><ele>330.6</ele><time>2026-04-11T10:54:42.936Z</time></trkpt><trkpt lat="40.1925358" lon="15.0495945"><ele>335.0</ele><time>2026-04-11T10:54:43.938Z</time></trkpt><trkpt lat="40.1925463" lon="15.0494869"><ele>335.0</ele><time>2026-04-11T10:54:44.94Z</time></trkpt><trkpt lat="40.1925209" lon="15.0493807"><ele>335.0</ele><time>2026-04-11T10:54:45.942Z</time></trkpt><trkpt lat="40.1924601" lon="15.0492834"><ele>335.0</ele><time>2026-04-11T10:54:46.941Z</time></trkpt><trkpt lat="40.1923822" lon="15.0492007"><ele>335.0</ele><time>2026-04-11T10:54:47.938Z</time></trkpt><trkpt lat="40.192286" lon="15.0490997"><ele>335.0</ele><time>2026-04-11T10:54:48.941Z</time></trkpt><trkpt lat="40.1921918" lon="15.0490029"><ele>328.33333333333337</ele><time>2026-04-11T10:54:49.936Z</time></trkpt><trkpt lat="40.1921154" lon="15.0489195"><ele>321.6666666666667</ele><time>2026-04-11T10:54:50.937Z</time></trkpt><trkpt lat="40.1920556" lon="15.0488397"><ele>315.0</ele><time>2026-04-11T10:54:51.94Z</time></trkpt><trkpt lat="40.1920167" lon="15.0487556"><ele>308.3333333333333</ele><time>2026-04-11T10:54:52.947Z</time></trkpt><trkpt lat="40.1920037" lon="15.0486626"><ele>301.66666666666663</ele><time>2026-04-11T10:54:53.945Z</time></trkpt><trkpt lat="40.1920253" lon="15.0485593"><ele>295.0</ele><time>2026-04-11T10:54:54.942Z</time></trkpt><trkpt lat="40.192071" lon="15.0484461"><ele>295.0</ele><time>2026-04-11T10:54:55.933Z</time></trkpt><trkpt lat="40.1921411" lon="15.0483287"><ele>295.0</ele><time>2026-04-11T10:54:56.938Z</time></trkpt><trkpt lat="40.1922294" lon="15.0482152"><ele>295.0</ele><time>2026-04-11T10:54:57.929Z</time></trkpt><trkpt lat="40.1923083" lon="15.0481269"><ele>295.0</ele><time>2026-04-11T10:54:58.943Z</time></trkpt><trkpt lat="40.1923574" lon="15.0480391"><ele>295.0</ele><time>2026-04-11T10:54:59.934Z</time></trkpt><trkpt lat="40.1923665" lon="15.0479308"><ele>293.8</ele><time>2026-04-11T10:55:00.944Z</time></trkpt><trkpt lat="40.1923351" lon="15.0478138"><ele>292.6</ele><time>2026-04-11T10:55:01.934Z</time></trkpt><trkpt lat="40.1922628" lon="15.0477071"><ele>291.4</ele><time>2026-04-11T10:55:02.941Z</time></trkpt><trkpt lat="40.1921898" lon="15.047613"><ele>290.2</ele><time>2026-04-11T10:55:03.938Z</time></trkpt><trkpt lat="40.1921288" lon="15.0475286"><ele>289.0</ele><time>2026-04-11T10:55:04.942Z</time></trkpt><trkpt lat="40.1920915" lon="15.0474363"><ele>287.8</ele><time>2026-04-11T10:55:05.934Z</time></trkpt><trkpt lat="40.1920729" lon="15.0473251"><ele>286.59999999999997</ele><time>2026-04-11T10:55:06.954Z</time></trkpt><trkpt lat="40.1920861" lon="15.0472124"><ele>285.4</ele><time>2026-04-11T10:55:07.937Z</time></trkpt><trkpt lat="40.192127" lon="15.0470913"><ele>284.2</ele><time>2026-04-11T10:55:08.937Z</time></trkpt><trkpt lat="40.1921745" lon="15.0469581"><ele>283.0</ele><time>2026-04-11T10:55:09.949Z</time></trkpt><trkpt lat="40.1922232" lon="15.0468287"><ele>283.0</ele><time>2026-04-11T10:55:10.937Z</time></trkpt><trkpt lat="40.1922737" lon="15.046709"><ele>283.0</ele><time>2026-04-11T10:55:11.937Z</time></trkpt><trkpt lat="40.1923503" lon="15.0466072"><ele>283.0</ele><time>2026-04-11T10:55:12.938Z</time></trkpt><trkpt lat="40.1924501" lon="15.0465291"><ele>283.0</ele><time>2026-04-11T10:55:13.952Z</time></trkpt><trkpt lat="40.1925516" lon="15.0464864"><ele>283.0</ele><time>2026-04-11T10:55:14.943Z</time></trkpt><trkpt lat="40.1926508" lon="15.0464714"><ele>282.5</ele><time>2026-04-11T10:55:15.944Z</time></trkpt><trkpt lat="40.1927497" lon="15.0464814"><ele>282.0</ele><time>2026-04-11T10:55:16.952Z</time></trkpt><trkpt lat="40.1928434" lon="15.0465056"><ele>281.5</ele><time>2026-04-11T10:55:17.944Z</time></trkpt><trkpt lat="40.1929221" lon="15.0465235"><ele>281.0</ele><time>2026-04-11T10:55:18.942Z</time></trkpt><trkpt lat="40.1929888" lon="15.0465139"><ele>280.5</ele><time>2026-04-11T10:55:19.937Z</time></trkpt><trkpt lat="40.1930497" lon="15.0464751"><ele>280.0</ele><time>2026-04-11T10:55:20.939Z</time></trkpt><trkpt lat="40.1930895" lon="15.046404"><ele>280.0</ele><time>2026-04-11T10:55:21.935Z</time></trkpt><trkpt lat="40.1931059" lon="15.0462909"><ele>280.0</ele><time>2026-04-11T10:55:22.928Z</time></trkpt><trkpt lat="40.1930959" lon="15.0461506"><ele>280.0</ele><time>2026-04-11T10:55:23.945Z</time></trkpt><trkpt lat="40.1930748" lon="15.0459898"><ele>280.0</ele><time>2026-04-11T10:55:24.932Z</time></trkpt><trkpt lat="40.1930533" lon="15.0458191"><ele>277.75</ele><time>2026-04-11T10:55:25.94Z</time></trkpt><trkpt lat="40.1930347" lon="15.0456447"><ele>275.5</ele><time>2026-04-11T10:55:26.944Z</time></trkpt><trkpt lat="40.1930252" lon="15.0454772"><ele>273.25</ele><time>2026-04-11T10:55:27.949Z</time></trkpt><trkpt lat="40.1930099" lon="15.0453315"><ele>271.0</ele><time>2026-04-11T10:55:28.93Z</time></trkpt><trkpt lat="40.1929828" lon="15.0451963"><ele>271.0</ele><time>2026-04-11T10:55:29.951Z</time></trkpt><trkpt lat="40.1929398" lon="15.0450671"><ele>271.0</ele><time>2026-04-11T10:55:30.933Z</time></trkpt><trkpt lat="40.1928936" lon="15.0449598"><ele>271.0</ele><time>2026-04-11T10:55:31.942Z</time></trkpt><trkpt lat="40.1928577" lon="15.0448571"><ele>271.0</ele><time>2026-04-11T10:55:32.937Z</time></trkpt><trkpt lat="40.1928443" lon="15.0447584"><ele>271.0</ele><time>2026-04-11T10:55:33.938Z</time></trkpt><trkpt lat="40.1928512" lon="15.0446631"><ele>271.0</ele><time>2026-04-11T10:55:34.935Z</time></trkpt><trkpt lat="40.1928888" lon="15.0445664"><ele>270.6</ele><time>2026-04-11T10:55:35.937Z</time></trkpt><trkpt lat="40.192947" lon="15.0444752"><ele>270.20000000000005</ele><time>2026-04-11T10:55:36.939Z</time></trkpt><trkpt lat="40.1930152" lon="15.0443964"><ele>269.79999999999995</ele><time>2026-04-11T10:55:37.939Z</time></trkpt><trkpt lat="40.1930939" lon="15.0443405"><ele>269.4</ele><time>2026-04-11T10:55:38.947Z</time></trkpt><trkpt lat="40.1931988" lon="15.0442914"><ele>269.0</ele><time>2026-04-11T10:55:39.938Z</time></trkpt><trkpt lat="40.193324" lon="15.0442442"><ele>273.33333333333337</ele><time>2026-04-11T10:55:40.945Z</time></trkpt><trkpt lat="40.1934612" lon="15.0441979"><ele>277.6666666666667</ele><time>2026-04-11T10:55:41.948Z</time></trkpt><trkpt lat="40.1936076" lon="15.0441318"><ele>282.0</ele><time>2026-04-11T10:55:42.941Z</time></trkpt><trkpt lat="40.1937532" lon="15.0440318"><ele>278.5</ele><time>2026-04-11T10:55:43.933Z</time></trkpt><trkpt lat="40.1938968" lon="15.043931"><ele>275.0</ele><time>2026-04-11T10:55:44.939Z</time></trkpt><trkpt lat="40.1940165" lon="15.0438432"><ele>271.5</ele><time>2026-04-11T10:55:45.942Z</time></trkpt><trkpt lat="40.194126" lon="15.0437611"><ele>268.0</ele><time>2026-04-11T10:55:46.94Z</time></trkpt><trkpt lat="40.1942323" lon="15.0436669"><ele>268.0</ele><time>2026-04-11T10:55:47.932Z</time></trkpt><trkpt lat="40.1943387" lon="15.0435541"><ele>268.0</ele><time>2026-04-11T10:55:48.943Z</time></trkpt><trkpt lat="40.1944236" lon="15.0434333"><ele>268.0</ele><time>2026-04-11T10:55:49.937Z</time></trkpt><trkpt lat="40.1944908" lon="15.0433181"><ele>268.0</ele><time>2026-04-11T10:55:50.942Z</time></trkpt><trkpt lat="40.1945519" lon="15.0432275"><ele>266.2</ele><time>2026-04-11T10:55:51.934Z</time></trkpt><trkpt lat="40.1946082" lon="15.04315"><ele>264.4</ele><time>2026-04-11T10:55:52.936Z</time></trkpt><trkpt lat="40.1946908" lon="15.0430771"><ele>262.59999999999997</ele><time>2026-04-11T10:55:53.941Z</time></trkpt><trkpt lat="40.1947959" lon="15.0430104"><ele>260.8</ele><time>2026-04-11T10:55:54.932Z</time></trkpt><trkpt lat="40.1949203" lon="15.0429501"><ele>259.0</ele><time>2026-04-11T10:55:55.937Z</time></trkpt><trkpt lat="40.1950464" lon="15.042887"><ele>259.0</ele><time>2026-04-11T10:55:56.936Z</time></trkpt><trkpt lat="40.1951674" lon="15.0428182"><ele>259.0</ele><time>2026-04-11T10:55:57.94Z</time></trkpt><trkpt lat="40.1952807" lon="15.0427662"><ele>259.0</ele><time>2026-04-11T10:55:58.934Z</time></trkpt><trkpt lat="40.1953885" lon="15.0427335"><ele>259.0</ele><time>2026-04-11T10:55:59.939Z</time></trkpt><trkpt lat="40.1954753" lon="15.0427158"><ele>259.0</ele><time>2026-04-11T10:56:00.933Z</time></trkpt><trkpt lat="40.1955365" lon="15.0426941"><ele>259.0</ele><time>2026-04-11T10:56:01.949Z</time></trkpt><trkpt lat="40.1956107" lon="15.0425848"><ele>259.0</ele><time>2026-04-11T10:56:03.952Z</time></trkpt><trkpt lat="40.1955388" lon="15.0424725"><ele>259.0</ele><time>2026-04-11T10:56:05.938Z</time></trkpt><trkpt lat="40.1954714" lon="15.0424417"><ele>259.0</ele><time>2026-04-11T10:56:06.933Z</time></trkpt><trkpt lat="40.1953991" lon="15.0424291"><ele>259.0</ele><time>2026-04-11T10:56:07.938Z</time></trkpt><trkpt lat="40.1953227" lon="15.0424187"><ele>259.0</ele><time>2026-04-11T10:56:08.94Z</time></trkpt><trkpt lat="40.1952414" lon="15.0424214"><ele>259.0</ele><time>2026-04-11T10:56:09.941Z</time></trkpt><trkpt lat="40.1951497" lon="15.042423"><ele>259.0</ele><time>2026-04-11T10:56:10.944Z</time></trkpt><trkpt lat="40.1950516" lon="15.0424465"><ele>259.0</ele><time>2026-04-11T10:56:11.939Z</time></trkpt><trkpt lat="40.1949535" lon="15.0424935"><ele>259.0</ele><time>2026-04-11T10:56:12.95Z</time></trkpt><trkpt lat="40.1948608" lon="15.0425522"><ele>254.79999999999998</ele><time>2026-04-11T10:56:13.944Z</time></trkpt><trkpt lat="40.194762" lon="15.0425814"><ele>250.59999999999997</ele><time>2026-04-11T10:56:14.935Z</time></trkpt><trkpt lat="40.1946633" lon="15.0425779"><ele>246.4</ele><time>2026-04-11T10:56:15.938Z</time></trkpt><trkpt lat="40.1945754" lon="15.04257"><ele>242.2</ele><time>2026-04-11T10:56:16.939Z</time></trkpt><trkpt lat="40.1945015" lon="15.042586"><ele>238.0</ele><time>2026-04-11T10:56:17.943Z</time></trkpt><trkpt lat="40.1944244" lon="15.0426385"><ele>238.0</ele><time>2026-04-11T10:56:18.943Z</time></trkpt><trkpt lat="40.1943503" lon="15.0427277"><ele>238.0</ele><time>2026-04-11T10:56:19.94Z</time></trkpt><trkpt lat="40.1942846" lon="15.0428474"><ele>238.0</ele><time>2026-04-11T10:56:20.931Z</time></trkpt><trkpt lat="40.1942325" lon="15.0429613"><ele>238.0</ele><time>2026-04-11T10:56:21.951Z</time></trkpt><trkpt lat="40.1941757" lon="15.0430536"><ele>238.0</ele><time>2026-04-11T10:56:22.942Z</time></trkpt><trkpt lat="40.1940944" lon="15.0431193"><ele>233.75</ele><time>2026-04-11T10:56:23.954Z</time></trkpt><trkpt lat="40.1939864" lon="15.0431604"><ele>229.5</ele><time>2026-04-11T10:56:24.941Z</time></trkpt><trkpt lat="40.1938649" lon="15.0431683"><ele>225.25</ele><time>2026-04-11T10:56:25.945Z</time></trkpt><trkpt lat="40.1937396" lon="15.0431814"><ele>221.0</ele><time>2026-04-11T10:56:26.947Z</time></trkpt><trkpt lat="40.1936133" lon="15.0432094"><ele>221.0</ele><time>2026-04-11T10:56:27.933Z</time></trkpt><trkpt lat="40.1934928" lon="15.0432305"><ele>221.0</ele><time>2026-04-11T10:56:28.944Z</time></trkpt><trkpt lat="40.1933692" lon="15.043238"><ele>221.0</ele><time>2026-04-11T10:56:29.938Z</time></trkpt><trkpt lat="40.1932372" lon="15.0432471"><ele>221.0</ele><time>2026-04-11T10:56:30.935Z</time></trkpt><trkpt lat="40.1931086" lon="15.0432556"><ele>220.60000000000002</ele><time>2026-04-11T10:56:31.934Z</time></trkpt><trkpt lat="40.1929849" lon="15.0432596"><ele>220.20000000000002</ele><time>2026-04-11T10:56:32.942Z</time></trkpt><trkpt lat="40.1928695" lon="15.0432615"><ele>219.79999999999998</ele><time>2026-04-11T10:56:33.938Z</time></trkpt><trkpt lat="40.1927767" lon="15.0432603"><ele>219.39999999999998</ele><time>2026-04-11T10:56:34.941Z</time></trkpt><trkpt lat="40.1927061" lon="15.0432484"><ele>219.0</ele><time>2026-04-11T10:56:35.939Z</time></trkpt><trkpt lat="40.1926403" lon="15.0432351"><ele>219.0</ele><time>2026-04-11T10:56:36.942Z</time></trkpt><trkpt lat="40.1925594" lon="15.0432189"><ele>218.99999999999997</ele><time>2026-04-11T10:56:37.936Z</time></trkpt><trkpt lat="40.1924663" lon="15.0431917"><ele>218.99999999999997</ele><time>2026-04-11T10:56:38.93Z</time></trkpt><trkpt lat="40.1923568" lon="15.0431333"><ele>219.0</ele><time>2026-04-11T10:56:39.946Z</time></trkpt><trkpt lat="40.1922284" lon="15.0430692"><ele>219.0</ele><time>2026-04-11T10:56:40.942Z</time></trkpt><trkpt lat="40.1920937" lon="15.0430076"><ele>221.5</ele><time>2026-04-11T10:56:41.94Z</time></trkpt><trkpt lat="40.1919597" lon="15.0429376"><ele>224.0</ele><time>2026-04-11T10:56:42.926Z</time></trkpt><trkpt lat="40.1918325" lon="15.0428528"><ele>226.5</ele><time>2026-04-11T10:56:43.942Z</time></trkpt><trkpt lat="40.1917131" lon="15.0427704"><ele>229.0</ele><time>2026-04-11T10:56:44.947Z</time></trkpt><trkpt lat="40.1916055" lon="15.0426901"><ele>229.0</ele><time>2026-04-11T10:56:45.943Z</time></trkpt><trkpt lat="40.191509" lon="15.0426034"><ele>229.0</ele><time>2026-04-11T10:56:46.93Z</time></trkpt><trkpt lat="40.1914205" lon="15.0424959"><ele>229.0</ele><time>2026-04-11T10:56:47.936Z</time></trkpt><trkpt lat="40.1913339" lon="15.042377"><ele>229.0</ele><time>2026-04-11T10:56:48.935Z</time></trkpt><trkpt lat="40.1912528" lon="15.0422566"><ele>227.6</ele><time>2026-04-11T10:56:49.94Z</time></trkpt><trkpt lat="40.1911842" lon="15.0421367"><ele>226.2</ele><time>2026-04-11T10:56:50.947Z</time></trkpt><trkpt lat="40.191125" lon="15.0420131"><ele>224.79999999999998</ele><time>2026-04-11T10:56:51.937Z</time></trkpt><trkpt lat="40.1910741" lon="15.041901"><ele>223.39999999999998</ele><time>2026-04-11T10:56:52.943Z</time></trkpt><trkpt lat="40.191031" lon="15.0418072"><ele>222.0</ele><time>2026-04-11T10:56:53.931Z</time></trkpt><trkpt lat="40.190985" lon="15.041721"><ele>222.0</ele><time>2026-04-11T10:56:54.928Z</time></trkpt><trkpt lat="40.1909161" lon="15.0416416"><ele>222.0</ele><time>2026-04-11T10:56:55.926Z</time></trkpt><trkpt lat="40.1908197" lon="15.0415935"><ele>222.0</ele><time>2026-04-11T10:56:56.951Z</time></trkpt><trkpt lat="40.1907026" lon="15.0415542"><ele>222.0</ele><time>2026-04-11T10:56:57.936Z</time></trkpt><trkpt lat="40.1905719" lon="15.0415332"><ele>222.0</ele><time>2026-04-11T10:56:58.935Z</time></trkpt><trkpt lat="40.1904609" lon="15.0415138"><ele>218.0</ele><time>2026-04-11T10:56:59.931Z</time></trkpt><trkpt lat="40.1903627" lon="15.0415029"><ele>214.0</ele><time>2026-04-11T10:57:00.939Z</time></trkpt><trkpt lat="40.19027" lon="15.0414945"><ele>210.0</ele><time>2026-04-11T10:57:01.939Z</time></trkpt><trkpt lat="40.1901726" lon="15.0414594"><ele>206.0</ele><time>2026-04-11T10:57:03.938Z</time></trkpt><trkpt lat="40.190153" lon="15.0413647"><ele>202.0</ele><time>2026-04-11T10:57:05.937Z</time></trkpt><trkpt lat="40.1902318" lon="15.0413121"><ele>202.0</ele><time>2026-04-11T10:57:07.938Z</time></trkpt><trkpt lat="40.1903762" lon="15.0413626"><ele>202.0</ele><time>2026-04-11T10:57:09.944Z</time></trkpt><trkpt lat="40.1904886" lon="15.0413864"><ele>202.0</ele><time>2026-04-11T10:57:10.936Z</time></trkpt><trkpt lat="40.1906205" lon="15.0413917"><ele>202.0</ele><time>2026-04-11T10:57:11.944Z</time></trkpt><trkpt lat="40.1907538" lon="15.041406"><ele>200.0</ele><time>2026-04-11T10:57:12.946Z</time></trkpt><trkpt lat="40.1908756" lon="15.0414206"><ele>198.0</ele><time>2026-04-11T10:57:13.939Z</time></trkpt><trkpt lat="40.1909923" lon="15.041435"><ele>196.0</ele><time>2026-04-11T10:57:14.942Z</time></trkpt><trkpt lat="40.1911066" lon="15.0414647"><ele>194.0</ele><time>2026-04-11T10:57:15.937Z</time></trkpt><trkpt lat="40.1912209" lon="15.0415343"><ele>194.0</ele><time>2026-04-11T10:57:16.934Z</time></trkpt><trkpt lat="40.1913343" lon="15.041621"><ele>194.0</ele><time>2026-04-11T10:57:17.943Z</time></trkpt><trkpt lat="40.1914483" lon="15.0417286"><ele>194.0</ele><time>2026-04-11T10:57:18.944Z</time></trkpt><trkpt lat="40.1915716" lon="15.0418359"><ele>194.0</ele><time>2026-04-11T10:57:19.949Z</time></trkpt><trkpt lat="40.1917093" lon="15.0419105"><ele>196.5</ele><time>2026-04-11T10:57:20.93Z</time></trkpt><trkpt lat="40.1918571" lon="15.0419763"><ele>199.0</ele><time>2026-04-11T10:57:21.929Z</time></trkpt><trkpt lat="40.1919916" lon="15.0420344"><ele>201.5</ele><time>2026-04-11T10:57:22.94Z</time></trkpt><trkpt lat="40.1921191" lon="15.0420886"><ele>204.0</ele><time>2026-04-11T10:57:23.941Z</time></trkpt><trkpt lat="40.1922429" lon="15.0421441"><ele>201.79999999999998</ele><time>2026-04-11T10:57:24.933Z</time></trkpt><trkpt lat="40.1923516" lon="15.0422002"><ele>199.6</ele><time>2026-04-11T10:57:25.938Z</time></trkpt><trkpt lat="40.1924327" lon="15.0422322"><ele>197.4</ele><time>2026-04-11T10:57:26.935Z</time></trkpt><trkpt lat="40.1925321" lon="15.0422453"><ele>195.2</ele><time>2026-04-11T10:57:28.923Z</time></trkpt><trkpt lat="40.1925564" lon="15.0421188"><ele>193.0</ele><time>2026-04-11T10:57:30.937Z</time></trkpt><trkpt lat="40.1924395" lon="15.042012"><ele>193.0</ele><time>2026-04-11T10:57:32.935Z</time></trkpt><trkpt lat="40.1923445" lon="15.0419696"><ele>193.0</ele><time>2026-04-11T10:57:33.946Z</time></trkpt><trkpt lat="40.1922379" lon="15.0419091"><ele>193.0</ele><time>2026-04-11T10:57:34.937Z</time></trkpt><trkpt lat="40.192125" lon="15.0418169"><ele>193.0</ele><time>2026-04-11T10:57:35.933Z</time></trkpt><trkpt lat="40.1920134" lon="15.0417168"><ele>190.5</ele><time>2026-04-11T10:57:36.941Z</time></trkpt><trkpt lat="40.1919103" lon="15.041618"><ele>188.0</ele><time>2026-04-11T10:57:37.932Z</time></trkpt><trkpt lat="40.1918101" lon="15.0415066"><ele>185.5</ele><time>2026-04-11T10:57:38.937Z</time></trkpt><trkpt lat="40.191715" lon="15.0413844"><ele>183.0</ele><time>2026-04-11T10:57:39.939Z</time></trkpt><trkpt lat="40.1916226" lon="15.041264"><ele>183.0</ele><time>2026-04-11T10:57:40.935Z</time></trkpt><trkpt lat="40.1915359" lon="15.0411465"><ele>183.0</ele><time>2026-04-11T10:57:41.933Z</time></trkpt><trkpt lat="40.1914542" lon="15.0410486"><ele>183.0</ele><time>2026-04-11T10:57:42.948Z</time></trkpt><trkpt lat="40.1913684" lon="15.0409686"><ele>183.0</ele><time>2026-04-11T10:57:43.934Z</time></trkpt><trkpt lat="40.1912687" lon="15.0409269"><ele>183.0</ele><time>2026-04-11T10:57:44.93Z</time></trkpt><trkpt lat="40.1911524" lon="15.0409147"><ele>185.75</ele><time>2026-04-11T10:57:45.942Z</time></trkpt><trkpt lat="40.1910194" lon="15.0409091"><ele>188.5</ele><time>2026-04-11T10:57:46.929Z</time></trkpt><trkpt lat="40.190873" lon="15.0408692"><ele>191.25</ele><time>2026-04-11T10:57:47.938Z</time></trkpt><trkpt lat="40.1907268" lon="15.0407903"><ele>194.0</ele><time>2026-04-11T10:57:48.93Z</time></trkpt><trkpt lat="40.1905946" lon="15.0407032"><ele>189.39999999999998</ele><time>2026-04-11T10:57:49.934Z</time></trkpt><trkpt lat="40.1904749" lon="15.0406262"><ele>184.8</ele><time>2026-04-11T10:57:50.937Z</time></trkpt><trkpt lat="40.1903717" lon="15.0405535"><ele>180.2</ele><time>2026-04-11T10:57:51.939Z</time></trkpt><trkpt lat="40.1902804" lon="15.040498"><ele>175.60000000000002</ele><time>2026-04-11T10:57:52.938Z</time></trkpt><trkpt lat="40.1901882" lon="15.0404616"><ele>171.0</ele><time>2026-04-11T10:57:53.945Z</time></trkpt><trkpt lat="40.1900741" lon="15.0404475"><ele>171.0</ele><time>2026-04-11T10:57:54.934Z</time></trkpt><trkpt lat="40.189944" lon="15.0404521"><ele>171.0</ele><time>2026-04-11T10:57:55.935Z</time></trkpt><trkpt lat="40.1897976" lon="15.0404655"><ele>171.0</ele><time>2026-04-11T10:57:56.932Z</time></trkpt><trkpt lat="40.1896446" lon="15.0404658"><ele>171.0</ele><time>2026-04-11T10:57:57.941Z</time></trkpt><trkpt lat="40.1894903" lon="15.0404447"><ele>170.5</ele><time>2026-04-11T10:57:58.942Z</time></trkpt><trkpt lat="40.1893426" lon="15.0404111"><ele>170.0</ele><time>2026-04-11T10:57:59.939Z</time></trkpt><trkpt lat="40.1892048" lon="15.0403705"><ele>169.5</ele><time>2026-04-11T10:58:00.934Z</time></trkpt><trkpt lat="40.1890779" lon="15.0403232"><ele>169.0</ele><time>2026-04-11T10:58:01.933Z</time></trkpt><trkpt lat="40.1889553" lon="15.0402819"><ele>169.0</ele><time>2026-04-11T10:58:02.93Z</time></trkpt><trkpt lat="40.1888385" lon="15.0402428"><ele>169.0</ele><time>2026-04-11T10:58:03.928Z</time></trkpt><trkpt lat="40.1887211" lon="15.0401929"><ele>169.0</ele><time>2026-04-11T10:58:04.936Z</time></trkpt><trkpt lat="40.1885935" lon="15.0401261"><ele>169.0</ele><time>2026-04-11T10:58:05.939Z</time></trkpt><trkpt lat="40.188472" lon="15.0400768"><ele>169.0</ele><time>2026-04-11T10:58:06.929Z</time></trkpt><trkpt lat="40.1883679" lon="15.0400293"><ele>169.0</ele><time>2026-04-11T10:58:07.939Z</time></trkpt><trkpt lat="40.1882772" lon="15.0399611"><ele>169.0</ele><time>2026-04-11T10:58:08.935Z</time></trkpt><trkpt lat="40.1882023" lon="15.0398694"><ele>169.0</ele><time>2026-04-11T10:58:09.94Z</time></trkpt><trkpt lat="40.1881413" lon="15.039755"><ele>169.0</ele><time>2026-04-11T10:58:10.931Z</time></trkpt><trkpt lat="40.1881004" lon="15.0396488"><ele>165.6</ele><time>2026-04-11T10:58:11.94Z</time></trkpt><trkpt lat="40.1880599" lon="15.0395681"><ele>162.2</ele><time>2026-04-11T10:58:12.935Z</time></trkpt><trkpt lat="40.1879979" lon="15.0395141"><ele>158.79999999999998</ele><time>2026-04-11T10:58:13.94Z</time></trkpt><trkpt lat="40.1879092" lon="15.0395199"><ele>155.39999999999998</ele><time>2026-04-11T10:58:14.945Z</time></trkpt><trkpt lat="40.1878075" lon="15.0395706"><ele>152.0</ele><time>2026-04-11T10:58:15.94Z</time></trkpt><trkpt lat="40.1876946" lon="15.0396411"><ele>152.0</ele><time>2026-04-11T10:58:16.958Z</time></trkpt><trkpt lat="40.1875743" lon="15.0396697"><ele>152.0</ele><time>2026-04-11T10:58:17.943Z</time></trkpt><trkpt lat="40.1874574" lon="15.039682"><ele>152.0</ele><time>2026-04-11T10:58:18.948Z</time></trkpt><trkpt lat="40.1873522" lon="15.03967"><ele>152.0</ele><time>2026-04-11T10:58:19.946Z</time></trkpt><trkpt lat="40.1872411" lon="15.0396014"><ele>155.66666666666666</ele><time>2026-04-11T10:58:20.94Z</time></trkpt><trkpt lat="40.1871184" lon="15.0394838"><ele>159.33333333333334</ele><time>2026-04-11T10:58:21.941Z</time></trkpt><trkpt lat="40.1869979" lon="15.0393369"><ele>163.0</ele><time>2026-04-11T10:58:22.942Z</time></trkpt><trkpt lat="40.1868886" lon="15.0392048"><ele>157.25</ele><time>2026-04-11T10:58:23.931Z</time></trkpt><trkpt lat="40.1867936" lon="15.0390904"><ele>151.5</ele><time>2026-04-11T10:58:24.944Z</time></trkpt><trkpt lat="40.1867005" lon="15.0389922"><ele>145.75</ele><time>2026-04-11T10:58:25.941Z</time></trkpt><trkpt lat="40.1866026" lon="15.0388942"><ele>140.0</ele><time>2026-04-11T10:58:26.938Z</time></trkpt><trkpt lat="40.1865142" lon="15.038799"><ele>145.25</ele><time>2026-04-11T10:58:27.953Z</time></trkpt><trkpt lat="40.1864272" lon="15.0386896"><ele>150.5</ele><time>2026-04-11T10:58:28.93Z</time></trkpt><trkpt lat="40.1863393" lon="15.0385747"><ele>155.75</ele><time>2026-04-11T10:58:29.951Z</time></trkpt><trkpt lat="40.1862531" lon="15.0384664"><ele>161.0</ele><time>2026-04-11T10:58:30.948Z</time></trkpt><trkpt lat="40.18615" lon="15.0383746"><ele>161.0</ele><time>2026-04-11T10:58:31.942Z</time></trkpt><trkpt lat="40.1860378" lon="15.038303"><ele>161.0</ele><time>2026-04-11T10:58:32.936Z</time></trkpt><trkpt lat="40.1859426" lon="15.0382335"><ele>161.0</ele><time>2026-04-11T10:58:33.945Z</time></trkpt><trkpt lat="40.1858684" lon="15.0381448"><ele>161.0</ele><time>2026-04-11T10:58:34.944Z</time></trkpt><trkpt lat="40.1858103" lon="15.0380311"><ele>161.0</ele><time>2026-04-11T10:58:35.939Z</time></trkpt><trkpt lat="40.1857818" lon="15.0379154"><ele>158.66666666666666</ele><time>2026-04-11T10:58:36.934Z</time></trkpt><trkpt lat="40.1857549" lon="15.037806"><ele>156.33333333333331</ele><time>2026-04-11T10:58:37.932Z</time></trkpt><trkpt lat="40.1857216" lon="15.0377005"><ele>154.0</ele><time>2026-04-11T10:58:38.935Z</time></trkpt><trkpt lat="40.1856766" lon="15.0376012"><ele>151.66666666666666</ele><time>2026-04-11T10:58:39.942Z</time></trkpt><trkpt lat="40.185628" lon="15.037519"><ele>149.33333333333334</ele><time>2026-04-11T10:58:40.943Z</time></trkpt><trkpt lat="40.1855717" lon="15.0374552"><ele>147.0</ele><time>2026-04-11T10:58:41.934Z</time></trkpt><trkpt lat="40.1854979" lon="15.0374008"><ele>141.2</ele><time>2026-04-11T10:58:42.933Z</time></trkpt><trkpt lat="40.1854074" lon="15.0373484"><ele>135.39999999999998</ele><time>2026-04-11T10:58:43.931Z</time></trkpt><trkpt lat="40.1853074" lon="15.0372946"><ele>129.60000000000002</ele><time>2026-04-11T10:58:44.935Z</time></trkpt><trkpt lat="40.1852252" lon="15.0372469"><ele>123.80000000000001</ele><time>2026-04-11T10:58:45.918Z</time></trkpt><trkpt lat="40.1851363" lon="15.0372241"><ele>118.0</ele><time>2026-04-11T10:58:46.933Z</time></trkpt><trkpt lat="40.1850343" lon="15.0372272"><ele>118.0</ele><time>2026-04-11T10:58:47.927Z</time></trkpt><trkpt lat="40.1849247" lon="15.037247"><ele>118.00000000000001</ele><time>2026-04-11T10:58:48.934Z</time></trkpt><trkpt lat="40.1848181" lon="15.0372455"><ele>118.00000000000001</ele><time>2026-04-11T10:58:49.923Z</time></trkpt><trkpt lat="40.1847236" lon="15.0372124"><ele>118.0</ele><time>2026-04-11T10:58:50.925Z</time></trkpt><trkpt lat="40.1846356" lon="15.0371557"><ele>118.0</ele><time>2026-04-11T10:58:51.93Z</time></trkpt><trkpt lat="40.1845514" lon="15.0371106"><ele>117.33333333333334</ele><time>2026-04-11T10:58:52.924Z</time></trkpt><trkpt lat="40.1844587" lon="15.0370925"><ele>116.66666666666667</ele><time>2026-04-11T10:58:53.928Z</time></trkpt><trkpt lat="40.1843688" lon="15.0371085"><ele>116.0</ele><time>2026-04-11T10:58:54.939Z</time></trkpt><trkpt lat="40.1842921" lon="15.0371596"><ele>115.33333333333334</ele><time>2026-04-11T10:58:55.958Z</time></trkpt><trkpt lat="40.1842391" lon="15.0372369"><ele>114.66666666666667</ele><time>2026-04-11T10:58:56.944Z</time></trkpt><trkpt lat="40.1842166" lon="15.0373349"><ele>114.0</ele><time>2026-04-11T10:58:57.943Z</time></trkpt><trkpt lat="40.1842321" lon="15.0374249"><ele>116.80000000000001</ele><time>2026-04-11T10:58:58.951Z</time></trkpt><trkpt lat="40.1842806" lon="15.0375047"><ele>119.60000000000001</ele><time>2026-04-11T10:58:59.941Z</time></trkpt><trkpt lat="40.1843652" lon="15.0375677"><ele>122.4</ele><time>2026-04-11T10:59:00.932Z</time></trkpt><trkpt lat="40.1844479" lon="15.0376311"><ele>125.2</ele><time>2026-04-11T10:59:01.944Z</time></trkpt><trkpt lat="40.1845431" lon="15.037674"><ele>128.0</ele><time>2026-04-11T10:59:02.945Z</time></trkpt><trkpt lat="40.1846206" lon="15.0377689"><ele>128.0</ele><time>2026-04-11T10:59:03.946Z</time></trkpt><trkpt lat="40.1846709" lon="15.0378842"><ele>128.0</ele><time>2026-04-11T10:59:04.941Z</time></trkpt><trkpt lat="40.1846931" lon="15.0379992"><ele>128.0</ele><time>2026-04-11T10:59:05.941Z</time></trkpt><trkpt lat="40.1846832" lon="15.0381027"><ele>128.0</ele><time>2026-04-11T10:59:06.95Z</time></trkpt><trkpt lat="40.184631" lon="15.0381938"><ele>128.0</ele><time>2026-04-11T10:59:07.926Z</time></trkpt><trkpt lat="40.1845454" lon="15.0382621"><ele>128.0</ele><time>2026-04-11T10:59:08.949Z</time></trkpt><trkpt lat="40.1844507" lon="15.038335"><ele>128.0</ele><time>2026-04-11T10:59:09.936Z</time></trkpt><trkpt lat="40.18435" lon="15.038397"><ele>128.0</ele><time>2026-04-11T10:59:10.929Z</time></trkpt><trkpt lat="40.184256" lon="15.0384617"><ele>128.0</ele><time>2026-04-11T10:59:11.932Z</time></trkpt><trkpt lat="40.184178" lon="15.0385246"><ele>128.0</ele><time>2026-04-11T10:59:12.94Z</time></trkpt><trkpt lat="40.1841168" lon="15.0386168"><ele>128.0</ele><time>2026-04-11T10:59:13.933Z</time></trkpt><trkpt lat="40.1840699" lon="15.0387481"><ele>128.0</ele><time>2026-04-11T10:59:14.955Z</time></trkpt><trkpt lat="40.1840391" lon="15.0388962"><ele>128.0</ele><time>2026-04-11T10:59:15.93Z</time></trkpt><trkpt lat="40.1840209" lon="15.0390351"><ele>128.0</ele><time>2026-04-11T10:59:16.943Z</time></trkpt><trkpt lat="40.1839881" lon="15.039145"><ele>128.0</ele><time>2026-04-11T10:59:17.941Z</time></trkpt><trkpt lat="40.183925" lon="15.0392176"><ele>128.4</ele><time>2026-04-11T10:59:18.94Z</time></trkpt><trkpt lat="40.1838554" lon="15.0392592"><ele>128.8</ele><time>2026-04-11T10:59:19.928Z</time></trkpt><trkpt lat="40.1837613" lon="15.039244"><ele>129.2</ele><time>2026-04-11T10:59:20.934Z</time></trkpt><trkpt lat="40.1836563" lon="15.0391818"><ele>129.6</ele><time>2026-04-11T10:59:21.942Z</time></trkpt><trkpt lat="40.1835695" lon="15.0391108"><ele>130.0</ele><time>2026-04-11T10:59:22.952Z</time></trkpt><trkpt lat="40.1834946" lon="15.0390599"><ele>124.8</ele><time>2026-04-11T10:59:23.932Z</time></trkpt><trkpt lat="40.1834059" lon="15.0390237"><ele>119.6</ele><time>2026-04-11T10:59:24.928Z</time></trkpt><trkpt lat="40.1833023" lon="15.0390203"><ele>114.4</ele><time>2026-04-11T10:59:25.945Z</time></trkpt><trkpt lat="40.1831872" lon="15.0390316"><ele>109.2</ele><time>2026-04-11T10:59:26.927Z</time></trkpt><trkpt lat="40.1830653" lon="15.0390422"><ele>104.0</ele><time>2026-04-11T10:59:27.933Z</time></trkpt><trkpt lat="40.1829284" lon="15.0390512"><ele>102.75</ele><time>2026-04-11T10:59:28.927Z</time></trkpt><trkpt lat="40.1827822" lon="15.0390452"><ele>101.5</ele><time>2026-04-11T10:59:29.944Z</time></trkpt><trkpt lat="40.1826422" lon="15.0390212"><ele>100.25</ele><time>2026-04-11T10:59:30.936Z</time></trkpt><trkpt lat="40.1825069" lon="15.0389896"><ele>99.0</ele><time>2026-04-11T10:59:31.933Z</time></trkpt><trkpt lat="40.1823696" lon="15.038975"><ele>99.0</ele><time>2026-04-11T10:59:32.94Z</time></trkpt><trkpt lat="40.1822255" lon="15.0389799"><ele>99.0</ele><time>2026-04-11T10:59:33.941Z</time></trkpt><trkpt lat="40.1820843" lon="15.0390048"><ele>99.0</ele><time>2026-04-11T10:59:34.936Z</time></trkpt><trkpt lat="40.1819558" lon="15.0390281"><ele>99.0</ele><time>2026-04-11T10:59:35.936Z</time></trkpt><trkpt lat="40.1818482" lon="15.0390532"><ele>99.0</ele><time>2026-04-11T10:59:36.94Z</time></trkpt><trkpt lat="40.1817534" lon="15.039077"><ele>99.0</ele><time>2026-04-11T10:59:37.933Z</time></trkpt><trkpt lat="40.1816661" lon="15.0391015"><ele>99.0</ele><time>2026-04-11T10:59:38.937Z</time></trkpt><trkpt lat="40.1815788" lon="15.0391277"><ele>99.0</ele><time>2026-04-11T10:59:39.949Z</time></trkpt><trkpt lat="40.1814863" lon="15.0391656"><ele>99.0</ele><time>2026-04-11T10:59:40.939Z</time></trkpt><trkpt lat="40.1813809" lon="15.0392073"><ele>102.2</ele><time>2026-04-11T10:59:41.943Z</time></trkpt><trkpt lat="40.1812746" lon="15.0392491"><ele>105.4</ele><time>2026-04-11T10:59:42.951Z</time></trkpt><trkpt lat="40.1811686" lon="15.0392832"><ele>108.6</ele><time>2026-04-11T10:59:43.94Z</time></trkpt><trkpt lat="40.1810722" lon="15.039309"><ele>111.8</ele><time>2026-04-11T10:59:44.947Z</time></trkpt><trkpt lat="40.1809642" lon="15.0393309"><ele>115.0</ele><time>2026-04-11T10:59:45.928Z</time></trkpt><trkpt lat="40.1808302" lon="15.0393443"><ele>115.5</ele><time>2026-04-11T10:59:46.951Z</time></trkpt><trkpt lat="40.1806802" lon="15.0393462"><ele>116.0</ele><time>2026-04-11T10:59:47.952Z</time></trkpt><trkpt lat="40.1805402" lon="15.0393309"><ele>116.5</ele><time>2026-04-11T10:59:48.933Z</time></trkpt><trkpt lat="40.1804241" lon="15.0392999"><ele>117.0</ele><time>2026-04-11T10:59:49.949Z</time></trkpt><trkpt lat="40.1803203" lon="15.0392612"><ele>117.0</ele><time>2026-04-11T10:59:50.935Z</time></trkpt><trkpt lat="40.180226" lon="15.0391924"><ele>116.99999999999999</ele><time>2026-04-11T10:59:51.935Z</time></trkpt><trkpt lat="40.1801391" lon="15.0390988"><ele>116.99999999999999</ele><time>2026-04-11T10:59:52.944Z</time></trkpt><trkpt lat="40.1800732" lon="15.0390225"><ele>117.0</ele><time>2026-04-11T10:59:53.941Z</time></trkpt><trkpt lat="40.1800099" lon="15.0389802"><ele>117.0</ele><time>2026-04-11T10:59:54.93Z</time></trkpt><trkpt lat="40.1799326" lon="15.0389719"><ele>118.6</ele><time>2026-04-11T10:59:55.942Z</time></trkpt><trkpt lat="40.179851" lon="15.0390121"><ele>120.19999999999999</ele><time>2026-04-11T10:59:56.938Z</time></trkpt><trkpt lat="40.1797835" lon="15.039105"><ele>121.8</ele><time>2026-04-11T10:59:57.927Z</time></trkpt><trkpt lat="40.1797325" lon="15.0392339"><ele>123.4</ele><time>2026-04-11T10:59:58.935Z</time></trkpt><trkpt lat="40.1796728" lon="15.0393608"><ele>125.0</ele><time>2026-04-11T10:59:59.94Z</time></trkpt><trkpt lat="40.1796114" lon="15.0394438"><ele>125.0</ele><time>2026-04-11T11:00:00.944Z</time></trkpt><trkpt lat="40.1795274" lon="15.0395028"><ele>125.0</ele><time>2026-04-11T11:00:01.948Z</time></trkpt><trkpt lat="40.1794114" lon="15.0395349"><ele>125.0</ele><time>2026-04-11T11:00:02.947Z</time></trkpt><trkpt lat="40.1792571" lon="15.0395507"><ele>125.0</ele><time>2026-04-11T11:00:03.937Z</time></trkpt><trkpt lat="40.1791067" lon="15.0395614"><ele>130.5</ele><time>2026-04-11T11:00:04.939Z</time></trkpt><trkpt lat="40.1789881" lon="15.0395781"><ele>136.0</ele><time>2026-04-11T11:00:05.948Z</time></trkpt><trkpt lat="40.1788957" lon="15.0396316"><ele>141.5</ele><time>2026-04-11T11:00:06.942Z</time></trkpt><trkpt lat="40.1788102" lon="15.039736"><ele>147.0</ele><time>2026-04-11T11:00:07.945Z</time></trkpt><trkpt lat="40.178708" lon="15.0398849"><ele>134.66666666666666</ele><time>2026-04-11T11:00:08.939Z</time></trkpt><trkpt lat="40.1786281" lon="15.0400551"><ele>122.33333333333333</ele><time>2026-04-11T11:00:09.967Z</time></trkpt><trkpt lat="40.1784903" lon="15.0401976"><ele>110.0</ele><time>2026-04-11T11:00:10.943Z</time></trkpt><trkpt lat="40.1783571" lon="15.0403625"><ele>110.0</ele><time>2026-04-11T11:00:11.932Z</time></trkpt><trkpt lat="40.178232" lon="15.0405468"><ele>110.0</ele><time>2026-04-11T11:00:12.943Z</time></trkpt><trkpt lat="40.178111" lon="15.0407258"><ele>110.0</ele><time>2026-04-11T11:00:13.944Z</time></trkpt><trkpt lat="40.1780026" lon="15.0408923"><ele>109.0</ele><time>2026-04-11T11:00:14.941Z</time></trkpt><trkpt lat="40.1779079" lon="15.0410374"><ele>108.0</ele><time>2026-04-11T11:00:15.936Z</time></trkpt><trkpt lat="40.1778202" lon="15.0411584"><ele>107.0</ele><time>2026-04-11T11:00:16.941Z</time></trkpt><trkpt lat="40.1777422" lon="15.0412599"><ele>106.0</ele><time>2026-04-11T11:00:17.935Z</time></trkpt><trkpt lat="40.1776669" lon="15.0413484"><ele>106.0</ele><time>2026-04-11T11:00:18.946Z</time></trkpt><trkpt lat="40.1775819" lon="15.041409"><ele>106.0</ele><time>2026-04-11T11:00:19.946Z</time></trkpt><trkpt lat="40.1774869" lon="15.0414401"><ele>106.0</ele><time>2026-04-11T11:00:20.946Z</time></trkpt><trkpt lat="40.1773904" lon="15.04145"><ele>106.0</ele><time>2026-04-11T11:00:21.951Z</time></trkpt><trkpt lat="40.1772912" lon="15.0414398"><ele>106.0</ele><time>2026-04-11T11:00:22.942Z</time></trkpt><trkpt lat="40.1771957" lon="15.0413894"><ele>99.75</ele><time>2026-04-11T11:00:23.951Z</time></trkpt><trkpt lat="40.1771002" lon="15.0413024"><ele>93.5</ele><time>2026-04-11T11:00:24.948Z</time></trkpt><trkpt lat="40.1770054" lon="15.0411992"><ele>87.25</ele><time>2026-04-11T11:00:25.938Z</time></trkpt><trkpt lat="40.1769086" lon="15.0410921"><ele>81.0</ele><time>2026-04-11T11:00:26.947Z</time></trkpt><trkpt lat="40.1768115" lon="15.0409674"><ele>81.0</ele><time>2026-04-11T11:00:27.935Z</time></trkpt><trkpt lat="40.1767115" lon="15.0408366"><ele>81.0</ele><time>2026-04-11T11:00:28.93Z</time></trkpt><trkpt lat="40.1766116" lon="15.040716"><ele>81.0</ele><time>2026-04-11T11:00:29.941Z</time></trkpt><trkpt lat="40.1765181" lon="15.0406112"><ele>81.0</ele><time>2026-04-11T11:00:30.948Z</time></trkpt><trkpt lat="40.1764347" lon="15.0405192"><ele>80.2</ele><time>2026-04-11T11:00:31.949Z</time></trkpt><trkpt lat="40.176367" lon="15.0404422"><ele>79.39999999999999</ele><time>2026-04-11T11:00:32.938Z</time></trkpt><trkpt lat="40.1762961" lon="15.0403931"><ele>78.6</ele><time>2026-04-11T11:00:33.941Z</time></trkpt><trkpt lat="40.1762031" lon="15.0403854"><ele>77.8</ele><time>2026-04-11T11:00:34.943Z</time></trkpt><trkpt lat="40.1761067" lon="15.0404242"><ele>77.0</ele><time>2026-04-11T11:00:35.931Z</time></trkpt><trkpt lat="40.1760144" lon="15.0404745"><ele>77.0</ele><time>2026-04-11T11:00:36.94Z</time></trkpt><trkpt lat="40.1759308" lon="15.0404819"><ele>77.0</ele><time>2026-04-11T11:00:37.946Z</time></trkpt><trkpt lat="40.1758534" lon="15.040457"><ele>77.0</ele><time>2026-04-11T11:00:38.959Z</time></trkpt><trkpt lat="40.1757714" lon="15.0403975"><ele>77.0</ele><time>2026-04-11T11:00:39.947Z</time></trkpt><trkpt lat="40.1757205" lon="15.0403028"><ele>77.0</ele><time>2026-04-11T11:00:40.95Z</time></trkpt><trkpt lat="40.1756824" lon="15.0401773"><ele>77.0</ele><time>2026-04-11T11:00:41.947Z</time></trkpt><trkpt lat="40.175653" lon="15.040047"><ele>75.5</ele><time>2026-04-11T11:00:42.956Z</time></trkpt><trkpt lat="40.1756226" lon="15.0399167"><ele>74.0</ele><time>2026-04-11T11:00:43.943Z</time></trkpt><trkpt lat="40.1755638" lon="15.0397961"><ele>72.5</ele><time>2026-04-11T11:00:44.941Z</time></trkpt><trkpt lat="40.1754725" lon="15.0396732"><ele>71.0</ele><time>2026-04-11T11:00:45.935Z</time></trkpt><trkpt lat="40.1753781" lon="15.0395752"><ele>71.0</ele><time>2026-04-11T11:00:46.937Z</time></trkpt><trkpt lat="40.1753005" lon="15.0395015"><ele>71.0</ele><time>2026-04-11T11:00:47.931Z</time></trkpt><trkpt lat="40.1752209" lon="15.0394602"><ele>71.0</ele><time>2026-04-11T11:00:48.921Z</time></trkpt><trkpt lat="40.1751182" lon="15.0394415"><ele>71.0</ele><time>2026-04-11T11:00:49.932Z</time></trkpt><trkpt lat="40.1750099" lon="15.0394633"><ele>71.0</ele><time>2026-04-11T11:00:50.925Z</time></trkpt><trkpt lat="40.1749111" lon="15.0394914"><ele>67.6</ele><time>2026-04-11T11:00:51.92Z</time></trkpt><trkpt lat="40.1748154" lon="15.0394925"><ele>64.19999999999999</ele><time>2026-04-11T11:00:52.931Z</time></trkpt><trkpt lat="40.1747226" lon="15.0394586"><ele>60.800000000000004</ele><time>2026-04-11T11:00:53.921Z</time></trkpt><trkpt lat="40.174617" lon="15.0393886"><ele>57.400000000000006</ele><time>2026-04-11T11:00:54.924Z</time></trkpt><trkpt lat="40.1745101" lon="15.0392752"><ele>54.0</ele><time>2026-04-11T11:00:55.935Z</time></trkpt><trkpt lat="40.1743886" lon="15.0391672"><ele>55.0</ele><time>2026-04-11T11:00:56.943Z</time></trkpt><trkpt lat="40.1742742" lon="15.0390939"><ele>56.00000000000001</ele><time>2026-04-11T11:00:57.934Z</time></trkpt><trkpt lat="40.1741697" lon="15.039023"><ele>57.00000000000001</ele><time>2026-04-11T11:00:58.938Z</time></trkpt><trkpt lat="40.1740948" lon="15.0389449"><ele>58.0</ele><time>2026-04-11T11:00:59.942Z</time></trkpt><trkpt lat="40.1740405" lon="15.0388431"><ele>59.0</ele><time>2026-04-11T11:01:00.95Z</time></trkpt><trkpt lat="40.1740017" lon="15.0386999"><ele>52.25</ele><time>2026-04-11T11:01:01.946Z</time></trkpt><trkpt lat="40.1739773" lon="15.0385204"><ele>45.5</ele><time>2026-04-11T11:01:02.93Z</time></trkpt><trkpt lat="40.1739556" lon="15.0383364"><ele>38.75</ele><time>2026-04-11T11:01:03.945Z</time></trkpt><trkpt lat="40.1739366" lon="15.0381859"><ele>32.0</ele><time>2026-04-11T11:01:04.946Z</time></trkpt><trkpt lat="40.1739255" lon="15.0380417"><ele>30.75</ele><time>2026-04-11T11:01:05.943Z</time></trkpt><trkpt lat="40.1739236" lon="15.0378883"><ele>29.5</ele><time>2026-04-11T11:01:06.952Z</time></trkpt><trkpt lat="40.1739504" lon="15.0377355"><ele>28.25</ele><time>2026-04-11T11:01:07.943Z</time></trkpt><trkpt lat="40.173996" lon="15.0375897"><ele>27.0</ele><time>2026-04-11T11:01:08.947Z</time></trkpt><trkpt lat="40.1740488" lon="15.0374708"><ele>28.5</ele><time>2026-04-11T11:01:09.936Z</time></trkpt><trkpt lat="40.1741141" lon="15.0373651"><ele>30.0</ele><time>2026-04-11T11:01:10.954Z</time></trkpt><trkpt lat="40.1742023" lon="15.0372673"><ele>31.5</ele><time>2026-04-11T11:01:11.937Z</time></trkpt><trkpt lat="40.1743097" lon="15.0371842"><ele>33.0</ele><time>2026-04-11T11:01:12.951Z</time></trkpt><trkpt lat="40.1744141" lon="15.0371115"><ele>33.0</ele><time>2026-04-11T11:01:13.943Z</time></trkpt><trkpt lat="40.1744871" lon="15.0370462"><ele>33.0</ele><time>2026-04-11T11:01:14.938Z</time></trkpt><trkpt lat="40.1745419" lon="15.0369708"><ele>33.0</ele><time>2026-04-11T11:01:15.959Z</time></trkpt><trkpt lat="40.1745812" lon="15.0368693"><ele>33.0</ele><time>2026-04-11T11:01:16.942Z</time></trkpt><trkpt lat="40.1746034" lon="15.0367361"><ele>33.0</ele><time>2026-04-11T11:01:17.951Z</time></trkpt><trkpt lat="40.1746023" lon="15.0365932"><ele>33.4</ele><time>2026-04-11T11:01:18.945Z</time></trkpt><trkpt lat="40.1746013" lon="15.0364567"><ele>33.8</ele><time>2026-04-11T11:01:19.942Z</time></trkpt><trkpt lat="40.1746358" lon="15.0363318"><ele>34.2</ele><time>2026-04-11T11:01:20.949Z</time></trkpt><trkpt lat="40.1746999" lon="15.0362162"><ele>34.6</ele><time>2026-04-11T11:01:21.948Z</time></trkpt><trkpt lat="40.1747854" lon="15.0360904"><ele>35.0</ele><time>2026-04-11T11:01:22.948Z</time></trkpt><trkpt lat="40.1748766" lon="15.0359441"><ele>31.666666666666664</ele><time>2026-04-11T11:01:23.931Z</time></trkpt><trkpt lat="40.174973" lon="15.035782"><ele>28.333333333333336</ele><time>2026-04-11T11:01:24.944Z</time></trkpt><trkpt lat="40.1750697" lon="15.0356255"><ele>25.0</ele><time>2026-04-11T11:01:25.935Z</time></trkpt><trkpt lat="40.1751707" lon="15.0354818"><ele>25.0</ele><time>2026-04-11T11:01:26.948Z</time></trkpt><trkpt lat="40.1752653" lon="15.0353411"><ele>25.0</ele><time>2026-04-11T11:01:27.948Z</time></trkpt><trkpt lat="40.1753486" lon="15.0352031"><ele>25.0</ele><time>2026-04-11T11:01:28.941Z</time></trkpt><trkpt lat="40.1754217" lon="15.0350708"><ele>25.0</ele><time>2026-04-11T11:01:29.935Z</time></trkpt><trkpt lat="40.1754868" lon="15.0349442"><ele>24.8</ele><time>2026-04-11T11:01:30.931Z</time></trkpt><trkpt lat="40.1755378" lon="15.0348223"><ele>24.6</ele><time>2026-04-11T11:01:31.943Z</time></trkpt><trkpt lat="40.1755894" lon="15.0346981"><ele>24.4</ele><time>2026-04-11T11:01:32.939Z</time></trkpt><trkpt lat="40.175633" lon="15.0345827"><ele>24.2</ele><time>2026-04-11T11:01:33.947Z</time></trkpt><trkpt lat="40.1756779" lon="15.0344693"><ele>24.0</ele><time>2026-04-11T11:01:34.937Z</time></trkpt><trkpt lat="40.1757141" lon="15.0343557"><ele>24.0</ele><time>2026-04-11T11:01:35.94Z</time></trkpt><trkpt lat="40.1757466" lon="15.0342453"><ele>24.0</ele><time>2026-04-11T11:01:36.946Z</time></trkpt><trkpt lat="40.175781" lon="15.034139"><ele>24.0</ele><time>2026-04-11T11:01:37.94Z</time></trkpt><trkpt lat="40.175816" lon="15.0340489"><ele>24.0</ele><time>2026-04-11T11:01:38.94Z</time></trkpt><trkpt lat="40.17585" lon="15.0339659"><ele>24.0</ele><time>2026-04-11T11:01:39.945Z</time></trkpt><trkpt lat="40.1758818" lon="15.033891"><ele>24.0</ele><time>2026-04-11T11:01:40.942Z</time></trkpt><trkpt lat="40.1759181" lon="15.0337568"><ele>22.599999999999998</ele><time>2026-04-11T11:01:42.924Z</time></trkpt><trkpt lat="40.1758964" lon="15.0336673"><ele>21.2</ele><time>2026-04-11T11:01:44.937Z</time></trkpt><trkpt lat="40.1758053" lon="15.0336438"><ele>19.799999999999997</ele><time>2026-04-11T11:01:51.944Z</time></trkpt><trkpt lat="40.1757187" lon="15.0337324"><ele>18.4</ele><time>2026-04-11T11:01:53.945Z</time></trkpt><trkpt lat="40.175663" lon="15.0338177"><ele>17.0</ele><time>2026-04-11T11:01:54.944Z</time></trkpt><trkpt lat="40.1755925" lon="15.0339137"><ele>16.25</ele><time>2026-04-11T11:01:55.936Z</time></trkpt><trkpt lat="40.1755072" lon="15.0340281"><ele>15.5</ele><time>2026-04-11T11:01:56.942Z</time></trkpt><trkpt lat="40.1754065" lon="15.0341508"><ele>14.75</ele><time>2026-04-11T11:01:57.956Z</time></trkpt><trkpt lat="40.1753019" lon="15.0342807"><ele>14.0</ele><time>2026-04-11T11:01:58.948Z</time></trkpt><trkpt lat="40.1751983" lon="15.0344147"><ele>14.0</ele><time>2026-04-11T11:01:59.941Z</time></trkpt><trkpt lat="40.1750931" lon="15.0345538"><ele>14.0</ele><time>2026-04-11T11:02:00.951Z</time></trkpt><trkpt lat="40.1749789" lon="15.0347071"><ele>14.0</ele><time>2026-04-11T11:02:01.932Z</time></trkpt><trkpt lat="40.174859" lon="15.0348606"><ele>14.0</ele><time>2026-04-11T11:02:02.951Z</time></trkpt><trkpt lat="40.1747353" lon="15.0350185"><ele>14.0</ele><time>2026-04-11T11:02:03.939Z</time></trkpt><trkpt lat="40.1746089" lon="15.0351771"><ele>14.0</ele><time>2026-04-11T11:02:04.945Z</time></trkpt><trkpt lat="40.1744796" lon="15.0353455"><ele>14.0</ele><time>2026-04-11T11:02:05.945Z</time></trkpt><trkpt lat="40.1743467" lon="15.0355173"><ele>14.0</ele><time>2026-04-11T11:02:06.956Z</time></trkpt><trkpt lat="40.1742104" lon="15.0356871"><ele>14.0</ele><time>2026-04-11T11:02:07.939Z</time></trkpt><trkpt lat="40.1740744" lon="15.035861"><ele>14.333333333333334</ele><time>2026-04-11T11:02:08.937Z</time></trkpt><trkpt lat="40.1739424" lon="15.0360329"><ele>14.666666666666668</ele><time>2026-04-11T11:02:09.936Z</time></trkpt><trkpt lat="40.1738055" lon="15.0362035"><ele>15.0</ele><time>2026-04-11T11:02:10.939Z</time></trkpt><trkpt lat="40.1736708" lon="15.0363849"><ele>15.0</ele><time>2026-04-11T11:02:11.948Z</time></trkpt><trkpt lat="40.1735445" lon="15.036581"><ele>15.0</ele><time>2026-04-11T11:02:12.939Z</time></trkpt><trkpt lat="40.1734237" lon="15.036796"><ele>15.0</ele><time>2026-04-11T11:02:13.95Z</time></trkpt><trkpt lat="40.1733082" lon="15.0370231"><ele>16.333333333333332</ele><time>2026-04-11T11:02:14.942Z</time></trkpt><trkpt lat="40.1732059" lon="15.0372559"><ele>17.666666666666664</ele><time>2026-04-11T11:02:15.956Z</time></trkpt><trkpt lat="40.1731071" lon="15.0374907"><ele>19.0</ele><time>2026-04-11T11:02:16.949Z</time></trkpt><trkpt lat="40.1730015" lon="15.0377261"><ele>17.0</ele><time>2026-04-11T11:02:17.953Z</time></trkpt><trkpt lat="40.1728978" lon="15.0379545"><ele>15.0</ele><time>2026-04-11T11:02:18.953Z</time></trkpt><trkpt lat="40.1728053" lon="15.0381675"><ele>13.0</ele><time>2026-04-11T11:02:19.949Z</time></trkpt><trkpt lat="40.1727076" lon="15.0383886"><ele>13.0</ele><time>2026-04-11T11:02:20.953Z</time></trkpt><trkpt lat="40.1726057" lon="15.038618"><ele>13.0</ele><time>2026-04-11T11:02:21.94Z</time></trkpt><trkpt lat="40.1725026" lon="15.0388529"><ele>13.0</ele><time>2026-04-11T11:02:22.947Z</time></trkpt><trkpt lat="40.172399" lon="15.0390907"><ele>10.666666666666666</ele><time>2026-04-11T11:02:23.957Z</time></trkpt><trkpt lat="40.1723" lon="15.0393203"><ele>8.333333333333332</ele><time>2026-04-11T11:02:24.961Z</time></trkpt><trkpt lat="40.1722015" lon="15.0395517"><ele>6.0</ele><time>2026-04-11T11:02:25.945Z</time></trkpt><trkpt lat="40.1721062" lon="15.0397864"><ele>7.666666666666666</ele><time>2026-04-11T11:02:26.942Z</time></trkpt><trkpt lat="40.1720119" lon="15.0400312"><ele>9.333333333333332</ele><time>2026-04-11T11:02:27.943Z</time></trkpt><trkpt lat="40.171922" lon="15.0402847"><ele>11.0</ele><time>2026-04-11T11:02:28.94Z</time></trkpt><trkpt lat="40.1718294" lon="15.0405453"><ele>13.0</ele><time>2026-04-11T11:02:29.953Z</time></trkpt><trkpt lat="40.1717409" lon="15.0408072"><ele>15.0</ele><time>2026-04-11T11:02:30.943Z</time></trkpt><trkpt lat="40.1716517" lon="15.0410617"><ele>17.0</ele><time>2026-04-11T11:02:31.956Z</time></trkpt><trkpt lat="40.1715699" lon="15.0412995"><ele>14.333333333333334</ele><time>2026-04-11T11:02:32.944Z</time></trkpt><trkpt lat="40.1714942" lon="15.0415192"><ele>11.666666666666668</ele><time>2026-04-11T11:02:33.941Z</time></trkpt><trkpt lat="40.171427" lon="15.041725"><ele>9.0</ele><time>2026-04-11T11:02:34.956Z</time></trkpt><trkpt lat="40.171362" lon="15.0419211"><ele>9.0</ele><time>2026-04-11T11:02:35.939Z</time></trkpt><trkpt lat="40.1712999" lon="15.0421027"><ele>9.0</ele><time>2026-04-11T11:02:36.943Z</time></trkpt><trkpt lat="40.1712414" lon="15.0422639"><ele>9.0</ele><time>2026-04-11T11:02:37.938Z</time></trkpt><trkpt lat="40.1712048" lon="15.0424114"><ele>9.0</ele><time>2026-04-11T11:02:38.949Z</time></trkpt><trkpt lat="40.1712028" lon="15.0425642"><ele>9.25</ele><time>2026-04-11T11:02:39.95Z</time></trkpt><trkpt lat="40.1712199" lon="15.0427358"><ele>9.5</ele><time>2026-04-11T11:02:40.953Z</time></trkpt><trkpt lat="40.1712531" lon="15.0429162"><ele>9.75</ele><time>2026-04-11T11:02:41.946Z</time></trkpt><trkpt lat="40.1713022" lon="15.0431072"><ele>10.0</ele><time>2026-04-11T11:02:42.946Z</time></trkpt><trkpt lat="40.1713663" lon="15.0432918"><ele>10.25</ele><time>2026-04-11T11:02:43.934Z</time></trkpt><trkpt lat="40.1714355" lon="15.0434557"><ele>10.5</ele><time>2026-04-11T11:02:44.931Z</time></trkpt><trkpt lat="40.1714985" lon="15.0435927"><ele>10.75</ele><time>2026-04-11T11:02:45.931Z</time></trkpt><trkpt lat="40.1715448" lon="15.0437132"><ele>11.0</ele><time>2026-04-11T11:02:46.939Z</time></trkpt><trkpt lat="40.1715696" lon="15.0438152"><ele>11.0</ele><time>2026-04-11T11:02:47.942Z</time></trkpt><trkpt lat="40.17157" lon="15.0439133"><ele>11.0</ele><time>2026-04-11T11:02:48.944Z</time></trkpt><trkpt lat="40.1715419" lon="15.0440173"><ele>11.0</ele><time>2026-04-11T11:02:49.94Z</time></trkpt><trkpt lat="40.1714777" lon="15.0441149"><ele>11.0</ele><time>2026-04-11T11:02:50.943Z</time></trkpt><trkpt lat="40.1713837" lon="15.0441977"><ele>11.0</ele><time>2026-04-11T11:02:51.944Z</time></trkpt><trkpt lat="40.1712637" lon="15.0442638"><ele>12.333333333333332</ele><time>2026-04-11T11:02:52.938Z</time></trkpt><trkpt lat="40.1711275" lon="15.0443264"><ele>13.666666666666666</ele><time>2026-04-11T11:02:53.946Z</time></trkpt><trkpt lat="40.1709815" lon="15.0444042"><ele>15.0</ele><time>2026-04-11T11:02:54.952Z</time></trkpt><trkpt lat="40.1708325" lon="15.0444847"><ele>15.0</ele><time>2026-04-11T11:02:55.95Z</time></trkpt><trkpt lat="40.1706975" lon="15.0445511"><ele>15.0</ele><time>2026-04-11T11:02:56.938Z</time></trkpt><trkpt lat="40.170583" lon="15.0446042"><ele>15.0</ele><time>2026-04-11T11:02:57.941Z</time></trkpt><trkpt lat="40.1704774" lon="15.0446857"><ele>15.0</ele><time>2026-04-11T11:02:58.941Z</time></trkpt><trkpt lat="40.1703903" lon="15.0448138"><ele>14.333333333333332</ele><time>2026-04-11T11:02:59.943Z</time></trkpt><trkpt lat="40.1703223" lon="15.0449864"><ele>13.666666666666666</ele><time>2026-04-11T11:03:00.941Z</time></trkpt><trkpt lat="40.1702578" lon="15.045175"><ele>13.0</ele><time>2026-04-11T11:03:01.924Z</time></trkpt><trkpt lat="40.1701917" lon="15.04537"><ele>13.0</ele><time>2026-04-11T11:03:02.95Z</time></trkpt><trkpt lat="40.1701328" lon="15.0455403"><ele>13.0</ele><time>2026-04-11T11:03:03.945Z</time></trkpt><trkpt lat="40.1701041" lon="15.0457055"><ele>13.0</ele><time>2026-04-11T11:03:04.937Z</time></trkpt><trkpt lat="40.1700985" lon="15.045887"><ele>13.0</ele><time>2026-04-11T11:03:05.935Z</time></trkpt><trkpt lat="40.1701092" lon="15.0460625"><ele>13.75</ele><time>2026-04-11T11:03:06.942Z</time></trkpt><trkpt lat="40.1701351" lon="15.0462173"><ele>14.5</ele><time>2026-04-11T11:03:07.939Z</time></trkpt><trkpt lat="40.1701769" lon="15.0463549"><ele>15.25</ele><time>2026-04-11T11:03:08.947Z</time></trkpt><trkpt lat="40.1702557" lon="15.0465034"><ele>16.0</ele><time>2026-04-11T11:03:09.946Z</time></trkpt><trkpt lat="40.1703518" lon="15.0466778"><ele>16.0</ele><time>2026-04-11T11:03:10.943Z</time></trkpt><trkpt lat="40.1704404" lon="15.046861"><ele>16.0</ele><time>2026-04-11T11:03:11.947Z</time></trkpt><trkpt lat="40.1705356" lon="15.0470527"><ele>16.0</ele><time>2026-04-11T11:03:12.949Z</time></trkpt><trkpt lat="40.1706276" lon="15.0472397"><ele>21.200000000000003</ele><time>2026-04-11T11:03:13.94Z</time></trkpt><trkpt lat="40.170696" lon="15.0473955"><ele>26.400000000000002</ele><time>2026-04-11T11:03:14.95Z</time></trkpt><trkpt lat="40.1707417" lon="15.0475023"><ele>31.6</ele><time>2026-04-11T11:03:15.953Z</time></trkpt><trkpt lat="40.1707803" lon="15.047575"><ele>36.800000000000004</ele><time>2026-04-11T11:03:16.942Z</time></trkpt><trkpt lat="40.1708111" lon="15.0476843"><ele>42.0</ele><time>2026-04-11T11:03:18.943Z</time></trkpt><trkpt lat="40.1708882" lon="15.0476944"><ele>42.0</ele><time>2026-04-11T11:23:42.959Z</time></trkpt><trkpt lat="40.170858" lon="15.0477703"><ele>42.0</ele><time>2026-04-11T11:23:47.074Z</time></trkpt><trkpt lat="40.1709439" lon="15.0478283"><ele>42.0</ele><time>2026-04-11T11:24:46.93Z</time></trkpt><trkpt lat="40.1710256" lon="15.0479448"><ele>42.0</ele><time>2026-04-11T11:24:48.931Z</time></trkpt><trkpt lat="40.1710723" lon="15.0480089"><ele>42.0</ele><time>2026-04-11T11:24:49.93Z</time></trkpt><trkpt lat="40.1711149" lon="15.0480751"><ele>42.0</ele><time>2026-04-11T11:24:50.935Z</time></trkpt><trkpt lat="40.1711531" lon="15.0481484"><ele>42.0</ele><time>2026-04-11T11:24:51.932Z</time></trkpt><trkpt lat="40.1711823" lon="15.0482266"><ele>42.0</ele><time>2026-04-11T11:24:52.949Z</time></trkpt><trkpt lat="40.1711999" lon="15.0483194"><ele>42.0</ele><time>2026-04-11T11:24:53.93Z</time></trkpt><trkpt lat="40.1712052" lon="15.0484281"><ele>42.0</ele><time>2026-04-11T11:24:54.928Z</time></trkpt><trkpt lat="40.1712058" lon="15.04855"><ele>42.0</ele><time>2026-04-11T11:24:55.935Z</time></trkpt><trkpt lat="40.1712065" lon="15.0486858"><ele>42.0</ele><time>2026-04-11T11:24:56.933Z</time></trkpt><trkpt lat="40.1712174" lon="15.048827"><ele>38.6</ele><time>2026-04-11T11:24:57.936Z</time></trkpt><trkpt lat="40.1712334" lon="15.0489672"><ele>35.2</ele><time>2026-04-11T11:24:58.935Z</time></trkpt><trkpt lat="40.1712522" lon="15.0490962"><ele>31.8</ele><time>2026-04-11T11:24:59.943Z</time></trkpt><trkpt lat="40.1712793" lon="15.0492242"><ele>28.4</ele><time>2026-04-11T11:25:00.94Z</time></trkpt><trkpt lat="40.1713178" lon="15.0493575"><ele>25.0</ele><time>2026-04-11T11:25:01.937Z</time></trkpt><trkpt lat="40.1713569" lon="15.0494852"><ele>23.833333333333336</ele><time>2026-04-11T11:25:02.935Z</time></trkpt><trkpt lat="40.1713893" lon="15.0496001"><ele>22.666666666666668</ele><time>2026-04-11T11:25:03.938Z</time></trkpt><trkpt lat="40.1714173" lon="15.0496828"><ele>21.5</ele><time>2026-04-11T11:25:04.937Z</time></trkpt><trkpt lat="40.1714641" lon="15.0497724"><ele>20.333333333333336</ele><time>2026-04-11T11:26:00.941Z</time></trkpt><trkpt lat="40.1715074" lon="15.049889"><ele>19.166666666666668</ele><time>2026-04-11T11:26:02.937Z</time></trkpt><trkpt lat="40.1715372" lon="15.049998"><ele>18.0</ele><time>2026-04-11T11:26:03.945Z</time></trkpt><trkpt lat="40.1715809" lon="15.0501313"><ele>26.5</ele><time>2026-04-11T11:26:04.942Z</time></trkpt><trkpt lat="40.1716283" lon="15.0502839"><ele>35.0</ele><time>2026-04-11T11:26:05.924Z</time></trkpt><trkpt lat="40.1716793" lon="15.0504382"><ele>43.5</ele><time>2026-04-11T11:26:06.933Z</time></trkpt><trkpt lat="40.1717253" lon="15.0506028"><ele>52.0</ele><time>2026-04-11T11:26:07.928Z</time></trkpt><trkpt lat="40.1717625" lon="15.0507729"><ele>49.75</ele><time>2026-04-11T11:26:08.939Z</time></trkpt><trkpt lat="40.1717864" lon="15.0509399"><ele>47.5</ele><time>2026-04-11T11:26:09.929Z</time></trkpt><trkpt lat="40.1718106" lon="15.0510976"><ele>45.25</ele><time>2026-04-11T11:26:10.935Z</time></trkpt><trkpt lat="40.1718472" lon="15.0512534"><ele>43.0</ele><time>2026-04-11T11:26:11.933Z</time></trkpt><trkpt lat="40.1718941" lon="15.0514116"><ele>43.0</ele><time>2026-04-11T11:26:12.934Z</time></trkpt><trkpt lat="40.171927" lon="15.0515524"><ele>43.0</ele><time>2026-04-11T11:26:13.926Z</time></trkpt><trkpt lat="40.1719168" lon="15.0517027"><ele>43.0</ele><time>2026-04-11T11:26:14.939Z</time></trkpt><trkpt lat="40.1718787" lon="15.051852"><ele>43.0</ele><time>2026-04-11T11:26:15.954Z</time></trkpt><trkpt lat="40.1718208" lon="15.0520057"><ele>43.0</ele><time>2026-04-11T11:26:16.933Z</time></trkpt><trkpt lat="40.1717618" lon="15.0521631"><ele>43.0</ele><time>2026-04-11T11:26:17.94Z</time></trkpt><trkpt lat="40.1717228" lon="15.0523213"><ele>43.0</ele><time>2026-04-11T11:26:18.936Z</time></trkpt><trkpt lat="40.1717047" lon="15.0524699"><ele>43.0</ele><time>2026-04-11T11:26:19.95Z</time></trkpt><trkpt lat="40.1717008" lon="15.0526268"><ele>44.5</ele><time>2026-04-11T11:26:20.937Z</time></trkpt><trkpt lat="40.1716984" lon="15.0527905"><ele>46.0</ele><time>2026-04-11T11:26:21.939Z</time></trkpt><trkpt lat="40.1716942" lon="15.0529654"><ele>47.5</ele><time>2026-04-11T11:26:22.942Z</time></trkpt><trkpt lat="40.1716895" lon="15.0531521"><ele>49.0</ele><time>2026-04-11T11:26:23.942Z</time></trkpt><trkpt lat="40.1716912" lon="15.0533383"><ele>49.0</ele><time>2026-04-11T11:26:24.944Z</time></trkpt><trkpt lat="40.1717102" lon="15.0535225"><ele>49.0</ele><time>2026-04-11T11:26:25.939Z</time></trkpt><trkpt lat="40.1717302" lon="15.0537091"><ele>49.0</ele><time>2026-04-11T11:26:26.926Z</time></trkpt><trkpt lat="40.1717256" lon="15.0539022"><ele>49.0</ele><time>2026-04-11T11:26:27.94Z</time></trkpt><trkpt lat="40.1717211" lon="15.0540962"><ele>49.666666666666664</ele><time>2026-04-11T11:26:28.933Z</time></trkpt><trkpt lat="40.1717364" lon="15.0542951"><ele>50.33333333333333</ele><time>2026-04-11T11:26:29.941Z</time></trkpt><trkpt lat="40.1717651" lon="15.0545005"><ele>51.0</ele><time>2026-04-11T11:26:30.927Z</time></trkpt><trkpt lat="40.1717893" lon="15.054701"><ele>51.0</ele><time>2026-04-11T11:26:31.952Z</time></trkpt><trkpt lat="40.1718081" lon="15.0548805"><ele>51.0</ele><time>2026-04-11T11:26:32.936Z</time></trkpt><trkpt lat="40.1718393" lon="15.0550263"><ele>51.0</ele><time>2026-04-11T11:26:33.94Z</time></trkpt><trkpt lat="40.1718718" lon="15.0551488"><ele>51.0</ele><time>2026-04-11T11:26:34.934Z</time></trkpt><trkpt lat="40.1718746" lon="15.0552695"><ele>51.0</ele><time>2026-04-11T11:26:35.938Z</time></trkpt><trkpt lat="40.1718526" lon="15.05541"><ele>52.0</ele><time>2026-04-11T11:26:36.929Z</time></trkpt><trkpt lat="40.1718103" lon="15.0555692"><ele>53.0</ele><time>2026-04-11T11:26:37.941Z</time></trkpt><trkpt lat="40.171755" lon="15.0557253"><ele>54.0</ele><time>2026-04-11T11:26:38.933Z</time></trkpt><trkpt lat="40.1716786" lon="15.0558673"><ele>55.0</ele><time>2026-04-11T11:26:39.944Z</time></trkpt><trkpt lat="40.1715814" lon="15.0560036"><ele>48.33333333333333</ele><time>2026-04-11T11:26:40.94Z</time></trkpt><trkpt lat="40.1714742" lon="15.0561376"><ele>41.666666666666664</ele><time>2026-04-11T11:26:41.952Z</time></trkpt><trkpt lat="40.1713713" lon="15.0562798"><ele>35.0</ele><time>2026-04-11T11:26:42.938Z</time></trkpt><trkpt lat="40.171267" lon="15.0564329"><ele>35.0</ele><time>2026-04-11T11:26:43.937Z</time></trkpt><trkpt lat="40.1711587" lon="15.0565672"><ele>35.0</ele><time>2026-04-11T11:26:44.937Z</time></trkpt><trkpt lat="40.1710584" lon="15.0566996"><ele>35.0</ele><time>2026-04-11T11:26:45.939Z</time></trkpt><trkpt lat="40.1709715" lon="15.0568655"><ele>35.0</ele><time>2026-04-11T11:26:46.93Z</time></trkpt><trkpt lat="40.1708918" lon="15.0570575"><ele>39.75</ele><time>2026-04-11T11:26:47.947Z</time></trkpt><trkpt lat="40.1708202" lon="15.0572447"><ele>44.5</ele><time>2026-04-11T11:26:48.939Z</time></trkpt><trkpt lat="40.1707669" lon="15.0574094"><ele>49.25</ele><time>2026-04-11T11:26:49.933Z</time></trkpt><trkpt lat="40.170748" lon="15.0575574"><ele>54.0</ele><time>2026-04-11T11:26:50.942Z</time></trkpt><trkpt lat="40.1707598" lon="15.0576943"><ele>57.2</ele><time>2026-04-11T11:26:51.938Z</time></trkpt><trkpt lat="40.1708035" lon="15.0578276"><ele>60.400000000000006</ele><time>2026-04-11T11:26:52.943Z</time></trkpt><trkpt lat="40.1708383" lon="15.0579437"><ele>63.6</ele><time>2026-04-11T11:26:53.93Z</time></trkpt><trkpt lat="40.1708366" lon="15.0580595"><ele>66.8</ele><time>2026-04-11T11:26:54.926Z</time></trkpt><trkpt lat="40.1708013" lon="15.0581781"><ele>70.0</ele><time>2026-04-11T11:26:55.944Z</time></trkpt><trkpt lat="40.1707471" lon="15.0582595"><ele>67.33333333333333</ele><time>2026-04-11T11:26:56.937Z</time></trkpt><trkpt lat="40.170669" lon="15.0583019"><ele>64.66666666666666</ele><time>2026-04-11T11:26:57.94Z</time></trkpt><trkpt lat="40.1705714" lon="15.05832"><ele>62.0</ele><time>2026-04-11T11:26:58.949Z</time></trkpt><trkpt lat="40.1704705" lon="15.0583297"><ele>59.33333333333333</ele><time>2026-04-11T11:26:59.939Z</time></trkpt><trkpt lat="40.1703871" lon="15.0583568"><ele>56.666666666666664</ele><time>2026-04-11T11:27:00.946Z</time></trkpt><trkpt lat="40.1703296" lon="15.0584247"><ele>54.0</ele><time>2026-04-11T11:27:01.941Z</time></trkpt><trkpt lat="40.1702861" lon="15.0585257"><ele>54.0</ele><time>2026-04-11T11:27:02.953Z</time></trkpt><trkpt lat="40.1702701" lon="15.0586566"><ele>54.00000000000001</ele><time>2026-04-11T11:27:03.939Z</time></trkpt><trkpt lat="40.1702671" lon="15.0588178"><ele>54.00000000000001</ele><time>2026-04-11T11:27:04.948Z</time></trkpt><trkpt lat="40.1702622" lon="15.0589746"><ele>54.0</ele><time>2026-04-11T11:27:05.941Z</time></trkpt><trkpt lat="40.1702429" lon="15.059107"><ele>54.0</ele><time>2026-04-11T11:27:06.932Z</time></trkpt><trkpt lat="40.1702042" lon="15.0592167"><ele>53.0</ele><time>2026-04-11T11:27:07.938Z</time></trkpt><trkpt lat="40.1701373" lon="15.059285"><ele>52.00000000000001</ele><time>2026-04-11T11:27:08.952Z</time></trkpt><trkpt lat="40.1700447" lon="15.0593202"><ele>51.0</ele><time>2026-04-11T11:27:09.94Z</time></trkpt><trkpt lat="40.1699312" lon="15.0593398"><ele>50.0</ele><time>2026-04-11T11:27:10.934Z</time></trkpt><trkpt lat="40.1698114" lon="15.0593614"><ele>49.0</ele><time>2026-04-11T11:27:11.943Z</time></trkpt><trkpt lat="40.1697097" lon="15.0593884"><ele>48.99999999999999</ele><time>2026-04-11T11:27:12.95Z</time></trkpt><trkpt lat="40.1696331" lon="15.0594274"><ele>49.0</ele><time>2026-04-11T11:27:13.947Z</time></trkpt><trkpt lat="40.1695734" lon="15.0594814"><ele>49.0</ele><time>2026-04-11T11:27:14.938Z</time></trkpt><trkpt lat="40.1695525" lon="15.0595801"><ele>49.0</ele><time>2026-04-11T11:27:15.932Z</time></trkpt><trkpt lat="40.1695596" lon="15.0596976"><ele>48.99999999999999</ele><time>2026-04-11T11:27:16.94Z</time></trkpt><trkpt lat="40.1695962" lon="15.0598262"><ele>49.0</ele><time>2026-04-11T11:27:17.943Z</time></trkpt><trkpt lat="40.1696673" lon="15.0599805"><ele>51.33333333333333</ele><time>2026-04-11T11:27:18.949Z</time></trkpt><trkpt lat="40.1697566" lon="15.0601366"><ele>53.66666666666667</ele><time>2026-04-11T11:27:19.932Z</time></trkpt><trkpt lat="40.1698698" lon="15.0603035"><ele>56.0</ele><time>2026-04-11T11:27:20.942Z</time></trkpt><trkpt lat="40.1699984" lon="15.060472"><ele>61.0</ele><time>2026-04-11T11:27:21.935Z</time></trkpt><trkpt lat="40.1701448" lon="15.0606157"><ele>66.0</ele><time>2026-04-11T11:27:22.94Z</time></trkpt><trkpt lat="40.1703114" lon="15.060751"><ele>71.0</ele><time>2026-04-11T11:27:23.946Z</time></trkpt><trkpt lat="40.1704718" lon="15.0608911"><ele>71.0</ele><time>2026-04-11T11:27:24.939Z</time></trkpt><trkpt lat="40.1706124" lon="15.061017"><ele>71.0</ele><time>2026-04-11T11:27:25.938Z</time></trkpt><trkpt lat="40.1707358" lon="15.0611387"><ele>71.0</ele><time>2026-04-11T11:27:26.941Z</time></trkpt><trkpt lat="40.1708406" lon="15.0612461"><ele>73.6</ele><time>2026-04-11T11:27:27.938Z</time></trkpt><trkpt lat="40.1709252" lon="15.0613506"><ele>76.19999999999999</ele><time>2026-04-11T11:27:28.944Z</time></trkpt><trkpt lat="40.1709885" lon="15.0614598"><ele>78.80000000000001</ele><time>2026-04-11T11:27:29.934Z</time></trkpt><trkpt lat="40.1710262" lon="15.0615846"><ele>81.4</ele><time>2026-04-11T11:27:30.937Z</time></trkpt><trkpt lat="40.1710352" lon="15.0617275"><ele>84.0</ele><time>2026-04-11T11:27:31.93Z</time></trkpt><trkpt lat="40.1710249" lon="15.0618953"><ele>84.0</ele><time>2026-04-11T11:27:32.937Z</time></trkpt><trkpt lat="40.1710187" lon="15.0620696"><ele>84.0</ele><time>2026-04-11T11:27:33.939Z</time></trkpt><trkpt lat="40.1710286" lon="15.0622536"><ele>84.0</ele><time>2026-04-11T11:27:34.918Z</time></trkpt><trkpt lat="40.1710602" lon="15.0624347"><ele>84.0</ele><time>2026-04-11T11:27:35.939Z</time></trkpt><trkpt lat="40.1710936" lon="15.0626008"><ele>84.4</ele><time>2026-04-11T11:27:36.94Z</time></trkpt><trkpt lat="40.1711103" lon="15.0627442"><ele>84.80000000000001</ele><time>2026-04-11T11:27:37.945Z</time></trkpt><trkpt lat="40.1711025" lon="15.0628704"><ele>85.19999999999999</ele><time>2026-04-11T11:27:38.937Z</time></trkpt><trkpt lat="40.1710708" lon="15.0629858"><ele>85.6</ele><time>2026-04-11T11:27:39.938Z</time></trkpt><trkpt lat="40.1710211" lon="15.0630978"><ele>86.0</ele><time>2026-04-11T11:27:40.948Z</time></trkpt><trkpt lat="40.1709484" lon="15.0631914"><ele>86.0</ele><time>2026-04-11T11:27:41.942Z</time></trkpt><trkpt lat="40.1708672" lon="15.0632659"><ele>86.0</ele><time>2026-04-11T11:27:42.95Z</time></trkpt></trkseg><trkseg><trkpt lat="40.1463979" lon="15.1678116"><ele>5.0</ele><time>2026-04-11T11:42:44.904Z</time></trkpt><trkpt lat="40.1462987" lon="15.167921"><ele>5.0</ele><time>2026-04-11T11:42:46.903Z</time></trkpt><trkpt lat="40.1462491" lon="15.1679857"><ele>5.0</ele><time>2026-04-11T11:42:47.904Z</time></trkpt><trkpt lat="40.1462019" lon="15.1680459"><ele>5.0</ele><time>2026-04-11T11:42:48.917Z</time></trkpt><trkpt lat="40.1461542" lon="15.1681036"><ele>5.0</ele><time>2026-04-11T11:42:49.9Z</time></trkpt><trkpt lat="40.1461044" lon="15.1681613"><ele>5.0</ele><time>2026-04-11T11:42:50.902Z</time></trkpt><trkpt lat="40.1460346" lon="15.1682584"><ele>5.0</ele><time>2026-04-11T11:42:52.904Z</time></trkpt><trkpt lat="40.1459441" lon="15.1683775"><ele>5.0</ele><time>2026-04-11T11:42:54.901Z</time></trkpt><trkpt lat="40.1456775" lon="15.1686655"><ele>5.4</ele><time>2026-04-11T11:43:00.897Z</time></trkpt><trkpt lat="40.1455293" lon="15.1688155"><ele>5.8</ele><time>2026-04-11T11:43:03.901Z</time></trkpt><trkpt lat="40.1454706" lon="15.1688686"><ele>6.199999999999999</ele><time>2026-04-11T11:43:04.904Z</time></trkpt><trkpt lat="40.1454085" lon="15.1689266"><ele>6.6</ele><time>2026-04-11T11:43:05.911Z</time></trkpt><trkpt lat="40.1453462" lon="15.1689905"><ele>7.0</ele><time>2026-04-11T11:43:06.899Z</time></trkpt><trkpt lat="40.1452783" lon="15.1690735"><ele>7.0</ele><time>2026-04-11T11:43:07.906Z</time></trkpt><trkpt lat="40.1452086" lon="15.1691675"><ele>6.999999999999999</ele><time>2026-04-11T11:43:08.894Z</time></trkpt><trkpt lat="40.1451376" lon="15.16927"><ele>6.999999999999999</ele><time>2026-04-11T11:43:09.9Z</time></trkpt><trkpt lat="40.1450594" lon="15.1693811"><ele>7.0</ele><time>2026-04-11T11:43:10.912Z</time></trkpt><trkpt lat="40.1449729" lon="15.1694837"><ele>7.0</ele><time>2026-04-11T11:43:11.894Z</time></trkpt><trkpt lat="40.1448787" lon="15.1695518"><ele>6.8</ele><time>2026-04-11T11:43:12.906Z</time></trkpt><trkpt lat="40.1448047" lon="15.1695964"><ele>6.6</ele><time>2026-04-11T11:43:13.904Z</time></trkpt><trkpt lat="40.1447367" lon="15.1696427"><ele>6.3999999999999995</ele><time>2026-04-11T11:43:14.892Z</time></trkpt><trkpt lat="40.1446583" lon="15.1696984"><ele>6.199999999999999</ele><time>2026-04-11T11:43:15.9Z</time></trkpt><trkpt lat="40.1445662" lon="15.169762"><ele>6.0</ele><time>2026-04-11T11:43:16.912Z</time></trkpt><trkpt lat="40.1444588" lon="15.169829"><ele>6.25</ele><time>2026-04-11T11:43:17.9Z</time></trkpt><trkpt lat="40.1443372" lon="15.1699098"><ele>6.5</ele><time>2026-04-11T11:43:18.909Z</time></trkpt><trkpt lat="40.1442149" lon="15.1699912"><ele>6.75</ele><time>2026-04-11T11:43:19.907Z</time></trkpt><trkpt lat="40.1440898" lon="15.1700776"><ele>7.0</ele><time>2026-04-11T11:43:20.908Z</time></trkpt><trkpt lat="40.1439646" lon="15.1701671"><ele>7.0</ele><time>2026-04-11T11:43:21.904Z</time></trkpt><trkpt lat="40.143847" lon="15.1702537"><ele>7.0</ele><time>2026-04-11T11:43:22.904Z</time></trkpt><trkpt lat="40.1437394" lon="15.1703387"><ele>7.0</ele><time>2026-04-11T11:43:23.911Z</time></trkpt><trkpt lat="40.1436336" lon="15.1704268"><ele>7.0</ele><time>2026-04-11T11:43:24.895Z</time></trkpt><trkpt lat="40.1435311" lon="15.1705028"><ele>7.000000000000001</ele><time>2026-04-11T11:43:25.909Z</time></trkpt><trkpt lat="40.1434435" lon="15.170566"><ele>7.0</ele><time>2026-04-11T11:43:26.895Z</time></trkpt><trkpt lat="40.1433713" lon="15.1706117"><ele>7.0</ele><time>2026-04-11T11:43:27.903Z</time></trkpt><trkpt lat="40.1433043" lon="15.1706399"><ele>7.0</ele><time>2026-04-11T11:43:28.903Z</time></trkpt><trkpt lat="40.1432415" lon="15.1706833"><ele>7.000000000000001</ele><time>2026-04-11T11:43:29.91Z</time></trkpt><trkpt lat="40.1431737" lon="15.1707475"><ele>7.0</ele><time>2026-04-11T11:43:30.905Z</time></trkpt><trkpt lat="40.1430878" lon="15.1708141"><ele>7.5</ele><time>2026-04-11T11:43:31.897Z</time></trkpt><trkpt lat="40.1429864" lon="15.1708817"><ele>8.0</ele><time>2026-04-11T11:43:32.902Z</time></trkpt><trkpt lat="40.1428759" lon="15.1709591"><ele>8.5</ele><time>2026-04-11T11:43:33.907Z</time></trkpt><trkpt lat="40.1427527" lon="15.1710377"><ele>9.0</ele><time>2026-04-11T11:43:34.902Z</time></trkpt><trkpt lat="40.1426297" lon="15.1711174"><ele>9.0</ele><time>2026-04-11T11:43:35.904Z</time></trkpt><trkpt lat="40.1425185" lon="15.1711886"><ele>9.0</ele><time>2026-04-11T11:43:36.904Z</time></trkpt><trkpt lat="40.142419" lon="15.1712512"><ele>9.0</ele><time>2026-04-11T11:43:37.894Z</time></trkpt><trkpt lat="40.1423285" lon="15.1713064"><ele>9.0</ele><time>2026-04-11T11:43:38.907Z</time></trkpt><trkpt lat="40.1422534" lon="15.1713567"><ele>9.0</ele><time>2026-04-11T11:43:39.9Z</time></trkpt><trkpt lat="40.1421964" lon="15.1713936"><ele>8.833333333333334</ele><time>2026-04-11T11:43:40.897Z</time></trkpt><trkpt lat="40.1421295" lon="15.1714498"><ele>8.666666666666666</ele><time>2026-04-11T11:43:42.898Z</time></trkpt><trkpt lat="40.1421237" lon="15.1715424"><ele>8.5</ele><time>2026-04-11T11:43:44.898Z</time></trkpt><trkpt lat="40.1421648" lon="15.1716734"><ele>8.333333333333332</ele><time>2026-04-11T11:43:46.881Z</time></trkpt><trkpt lat="40.142194" lon="15.1717598"><ele>8.166666666666666</ele><time>2026-04-11T11:43:47.895Z</time></trkpt><trkpt lat="40.1422317" lon="15.1718617"><ele>8.0</ele><time>2026-04-11T11:43:48.894Z</time></trkpt><trkpt lat="40.1422605" lon="15.1719648"><ele>8.4</ele><time>2026-04-11T11:43:49.888Z</time></trkpt><trkpt lat="40.1421899" lon="15.1720651"><ele>8.8</ele><time>2026-04-11T11:43:52.895Z</time></trkpt><trkpt lat="40.1421168" lon="15.1721024"><ele>9.2</ele><time>2026-04-11T11:43:53.903Z</time></trkpt><trkpt lat="40.1420307" lon="15.1721471"><ele>9.6</ele><time>2026-04-11T11:43:54.898Z</time></trkpt><trkpt lat="40.1419309" lon="15.1722049"><ele>10.0</ele><time>2026-04-11T11:43:55.895Z</time></trkpt><trkpt lat="40.1418275" lon="15.1722621"><ele>10.0</ele><time>2026-04-11T11:43:56.901Z</time></trkpt><trkpt lat="40.1417294" lon="15.1723226"><ele>10.0</ele><time>2026-04-11T11:43:57.901Z</time></trkpt><trkpt lat="40.1416321" lon="15.1723851"><ele>10.0</ele><time>2026-04-11T11:43:58.902Z</time></trkpt><trkpt lat="40.1415375" lon="15.1724433"><ele>10.0</ele><time>2026-04-11T11:43:59.885Z</time></trkpt><trkpt lat="40.1414429" lon="15.1725045"><ele>10.0</ele><time>2026-04-11T11:44:00.888Z</time></trkpt><trkpt lat="40.141343" lon="15.1725739"><ele>10.5</ele><time>2026-04-11T11:44:01.895Z</time></trkpt><trkpt lat="40.1412616" lon="15.1726381"><ele>11.0</ele><time>2026-04-11T11:44:02.9Z</time></trkpt><trkpt lat="40.1412063" lon="15.1727065"><ele>11.5</ele><time>2026-04-11T11:44:03.896Z</time></trkpt><trkpt lat="40.1411786" lon="15.1728049"><ele>12.0</ele><time>2026-04-11T11:44:04.899Z</time></trkpt><trkpt lat="40.1411949" lon="15.1729275"><ele>12.499999999999998</ele><time>2026-04-11T11:44:05.899Z</time></trkpt><trkpt lat="40.1412186" lon="15.1730545"><ele>13.0</ele><time>2026-04-11T11:44:06.898Z</time></trkpt><trkpt lat="40.1412488" lon="15.1731781"><ele>15.8</ele><time>2026-04-11T11:44:07.901Z</time></trkpt><trkpt lat="40.1412722" lon="15.1733109"><ele>18.6</ele><time>2026-04-11T11:44:08.9Z</time></trkpt><trkpt lat="40.141285" lon="15.1734357"><ele>21.400000000000002</ele><time>2026-04-11T11:44:09.897Z</time></trkpt><trkpt lat="40.141284" lon="15.1735584"><ele>24.200000000000003</ele><time>2026-04-11T11:44:10.887Z</time></trkpt><trkpt lat="40.1412703" lon="15.1736795"><ele>27.0</ele><time>2026-04-11T11:44:11.894Z</time></trkpt><trkpt lat="40.1412739" lon="15.1737894"><ele>27.0</ele><time>2026-04-11T11:44:12.902Z</time></trkpt><trkpt lat="40.1412996" lon="15.1738818"><ele>27.0</ele><time>2026-04-11T11:44:13.904Z</time></trkpt><trkpt lat="40.1413507" lon="15.1739612"><ele>27.0</ele><time>2026-04-11T11:44:14.89Z</time></trkpt><trkpt lat="40.141423" lon="15.1740269"><ele>27.0</ele><time>2026-04-11T11:44:15.896Z</time></trkpt><trkpt lat="40.1415106" lon="15.1740764"><ele>27.0</ele><time>2026-04-11T11:44:16.913Z</time></trkpt><trkpt lat="40.1415971" lon="15.1740984"><ele>27.0</ele><time>2026-04-11T11:44:17.897Z</time></trkpt><trkpt lat="40.141665" lon="15.1741305"><ele>30.400000000000002</ele><time>2026-04-11T11:44:18.894Z</time></trkpt><trkpt lat="40.1417193" lon="15.1742462"><ele>33.800000000000004</ele><time>2026-04-11T11:44:20.893Z</time></trkpt><trkpt lat="40.1416945" lon="15.1744014"><ele>37.2</ele><time>2026-04-11T11:44:22.904Z</time></trkpt><trkpt lat="40.1416537" lon="15.1745139"><ele>40.6</ele><time>2026-04-11T11:44:23.904Z</time></trkpt><trkpt lat="40.1416047" lon="15.1746403"><ele>44.0</ele><time>2026-04-11T11:44:24.91Z</time></trkpt><trkpt lat="40.1415539" lon="15.1747744"><ele>45.166666666666664</ele><time>2026-04-11T11:44:25.904Z</time></trkpt><trkpt lat="40.1415056" lon="15.174902"><ele>46.33333333333333</ele><time>2026-04-11T11:44:26.911Z</time></trkpt><trkpt lat="40.1414635" lon="15.175002"><ele>47.5</ele><time>2026-04-11T11:44:27.904Z</time></trkpt><trkpt lat="40.141425" lon="15.1750764"><ele>48.666666666666664</ele><time>2026-04-11T11:44:28.909Z</time></trkpt><trkpt lat="40.1413899" lon="15.1751517"><ele>49.833333333333336</ele><time>2026-04-11T11:44:29.903Z</time></trkpt><trkpt lat="40.1413467" lon="15.1752336"><ele>51.0</ele><time>2026-04-11T11:44:30.9Z</time></trkpt><trkpt lat="40.1413026" lon="15.1753017"><ele>51.0</ele><time>2026-04-11T11:44:31.893Z</time></trkpt><trkpt lat="40.1412608" lon="15.1753816"><ele>51.0</ele><time>2026-04-11T11:44:32.896Z</time></trkpt><trkpt lat="40.1412152" lon="15.175465"><ele>51.0</ele><time>2026-04-11T11:44:33.902Z</time></trkpt><trkpt lat="40.1411632" lon="15.1755497"><ele>51.0</ele><time>2026-04-11T11:44:34.905Z</time></trkpt><trkpt lat="40.1411001" lon="15.1756324"><ele>51.0</ele><time>2026-04-11T11:44:35.9Z</time></trkpt><trkpt lat="40.1410321" lon="15.1757142"><ele>51.0</ele><time>2026-04-11T11:44:36.908Z</time></trkpt><trkpt lat="40.1409713" lon="15.1758"><ele>54.0</ele><time>2026-04-11T11:44:37.894Z</time></trkpt><trkpt lat="40.1409083" lon="15.1758913"><ele>57.0</ele><time>2026-04-11T11:44:38.903Z</time></trkpt><trkpt lat="40.1408415" lon="15.1759959"><ele>59.99999999999999</ele><time>2026-04-11T11:44:39.899Z</time></trkpt><trkpt lat="40.1407613" lon="15.1760988"><ele>63.0</ele><time>2026-04-11T11:44:40.908Z</time></trkpt><trkpt lat="40.1406794" lon="15.1762039"><ele>66.0</ele><time>2026-04-11T11:44:41.907Z</time></trkpt><trkpt lat="40.1406197" lon="15.1762963"><ele>66.0</ele><time>2026-04-11T11:44:42.909Z</time></trkpt><trkpt lat="40.1405915" lon="15.1763798"><ele>66.0</ele><time>2026-04-11T11:44:43.907Z</time></trkpt><trkpt lat="40.1406174" lon="15.1764886"><ele>66.0</ele><time>2026-04-11T11:44:45.901Z</time></trkpt><trkpt lat="40.1407405" lon="15.1765197"><ele>66.0</ele><time>2026-04-11T11:44:47.891Z</time></trkpt><trkpt lat="40.1408237" lon="15.1765063"><ele>66.0</ele><time>2026-04-11T11:44:48.895Z</time></trkpt><trkpt lat="40.1409211" lon="15.1764856"><ele>66.0</ele><time>2026-04-11T11:44:49.899Z</time></trkpt><trkpt lat="40.1410235" lon="15.1764792"><ele>66.0</ele><time>2026-04-11T11:44:50.905Z</time></trkpt><trkpt lat="40.1410953" lon="15.1764663"><ele>66.0</ele><time>2026-04-11T11:44:51.899Z</time></trkpt><trkpt lat="40.1411876" lon="15.1764967"><ele>66.0</ele><time>2026-04-11T11:44:53.905Z</time></trkpt><trkpt lat="40.1411909" lon="15.176643"><ele>66.0</ele><time>2026-04-11T11:44:55.897Z</time></trkpt><trkpt lat="40.1411355" lon="15.1767168"><ele>68.8</ele><time>2026-04-11T11:44:56.888Z</time></trkpt><trkpt lat="40.1410696" lon="15.1768008"><ele>71.6</ele><time>2026-04-11T11:44:57.909Z</time></trkpt><trkpt lat="40.1410065" lon="15.1768977"><ele>74.4</ele><time>2026-04-11T11:44:58.917Z</time></trkpt><trkpt lat="40.1409448" lon="15.1769831"><ele>77.2</ele><time>2026-04-11T11:44:59.907Z</time></trkpt><trkpt lat="40.1409116" lon="15.1770585"><ele>80.0</ele><time>2026-04-11T11:45:00.889Z</time></trkpt><trkpt lat="40.1409227" lon="15.1772031"><ele>80.0</ele><time>2026-04-11T11:45:02.899Z</time></trkpt><trkpt lat="40.1409771" lon="15.177264"><ele>80.0</ele><time>2026-04-11T11:45:03.889Z</time></trkpt><trkpt lat="40.1410614" lon="15.177298"><ele>80.0</ele><time>2026-04-11T11:45:04.891Z</time></trkpt><trkpt lat="40.1411612" lon="15.1773127"><ele>80.0</ele><time>2026-04-11T11:45:05.895Z</time></trkpt><trkpt lat="40.1412618" lon="15.177331"><ele>80.0</ele><time>2026-04-11T11:45:06.895Z</time></trkpt><trkpt lat="40.1413495" lon="15.1773844"><ele>85.75</ele><time>2026-04-11T11:45:07.899Z</time></trkpt><trkpt lat="40.1414247" lon="15.1774698"><ele>91.5</ele><time>2026-04-11T11:45:08.88Z</time></trkpt><trkpt lat="40.1414943" lon="15.1775893"><ele>97.25</ele><time>2026-04-11T11:45:09.898Z</time></trkpt><trkpt lat="40.141559" lon="15.1777177"><ele>103.0</ele><time>2026-04-11T11:45:10.896Z</time></trkpt><trkpt lat="40.1416492" lon="15.1778265"><ele>103.0</ele><time>2026-04-11T11:45:11.896Z</time></trkpt><trkpt lat="40.1417531" lon="15.1779177"><ele>103.0</ele><time>2026-04-11T11:45:12.898Z</time></trkpt><trkpt lat="40.1418502" lon="15.1779771"><ele>103.0</ele><time>2026-04-11T11:45:13.892Z</time></trkpt><trkpt lat="40.1419233" lon="15.1780234"><ele>103.0</ele><time>2026-04-11T11:45:14.902Z</time></trkpt><trkpt lat="40.141982" lon="15.1780872"><ele>103.0</ele><time>2026-04-11T11:45:15.902Z</time></trkpt><trkpt lat="40.1420501" lon="15.1781581"><ele>103.00000000000001</ele><time>2026-04-11T11:45:16.902Z</time></trkpt><trkpt lat="40.1421226" lon="15.17819"><ele>103.0</ele><time>2026-04-11T11:45:17.9Z</time></trkpt><trkpt lat="40.1422025" lon="15.1781969"><ele>103.0</ele><time>2026-04-11T11:45:18.905Z</time></trkpt><trkpt lat="40.1422826" lon="15.1781799"><ele>103.0</ele><time>2026-04-11T11:45:19.894Z</time></trkpt><trkpt lat="40.1423738" lon="15.1781288"><ele>103.00000000000001</ele><time>2026-04-11T11:45:20.9Z</time></trkpt><trkpt lat="40.1424736" lon="15.1780662"><ele>103.0</ele><time>2026-04-11T11:45:21.895Z</time></trkpt><trkpt lat="40.1425853" lon="15.1780391"><ele>103.0</ele><time>2026-04-11T11:45:22.908Z</time></trkpt><trkpt lat="40.1427149" lon="15.1780409"><ele>103.0</ele><time>2026-04-11T11:45:23.895Z</time></trkpt><trkpt lat="40.1428467" lon="15.1780653"><ele>103.0</ele><time>2026-04-11T11:45:24.907Z</time></trkpt><trkpt lat="40.1429571" lon="15.1780924"><ele>103.0</ele><time>2026-04-11T11:45:25.9Z</time></trkpt><trkpt lat="40.1430343" lon="15.1781331"><ele>104.83333333333334</ele><time>2026-04-11T11:45:26.903Z</time></trkpt><trkpt lat="40.1430906" lon="15.1781916"><ele>106.66666666666667</ele><time>2026-04-11T11:45:27.895Z</time></trkpt><trkpt lat="40.1431397" lon="15.1782735"><ele>108.5</ele><time>2026-04-11T11:45:28.896Z</time></trkpt><trkpt lat="40.1431581" lon="15.1783712"><ele>110.33333333333334</ele><time>2026-04-11T11:45:29.892Z</time></trkpt><trkpt lat="40.1431465" lon="15.1784811"><ele>112.16666666666667</ele><time>2026-04-11T11:45:30.897Z</time></trkpt><trkpt lat="40.1431039" lon="15.1785961"><ele>114.0</ele><time>2026-04-11T11:45:31.896Z</time></trkpt><trkpt lat="40.1430673" lon="15.1787013"><ele>114.0</ele><time>2026-04-11T11:45:32.893Z</time></trkpt><trkpt lat="40.1430657" lon="15.1788232"><ele>114.0</ele><time>2026-04-11T11:45:33.906Z</time></trkpt><trkpt lat="40.1430808" lon="15.1789503"><ele>114.0</ele><time>2026-04-11T11:45:34.896Z</time></trkpt><trkpt lat="40.1431272" lon="15.1790599"><ele>114.0</ele><time>2026-04-11T11:45:35.889Z</time></trkpt><trkpt lat="40.1431848" lon="15.1791609"><ele>114.0</ele><time>2026-04-11T11:45:36.915Z</time></trkpt><trkpt lat="40.1432168" lon="15.1792576"><ele>117.0</ele><time>2026-04-11T11:45:37.892Z</time></trkpt><trkpt lat="40.1432105" lon="15.1793442"><ele>120.0</ele><time>2026-04-11T11:45:38.898Z</time></trkpt><trkpt lat="40.1431708" lon="15.1794282"><ele>123.0</ele><time>2026-04-11T11:45:39.901Z</time></trkpt><trkpt lat="40.1431207" lon="15.1795014"><ele>126.0</ele><time>2026-04-11T11:45:40.909Z</time></trkpt><trkpt lat="40.143041" lon="15.1795534"><ele>129.0</ele><time>2026-04-11T11:45:41.899Z</time></trkpt><trkpt lat="40.1429584" lon="15.1796037"><ele>132.0</ele><time>2026-04-11T11:45:42.898Z</time></trkpt><trkpt lat="40.1428693" lon="15.1796635"><ele>132.0</ele><time>2026-04-11T11:45:43.894Z</time></trkpt><trkpt lat="40.1427708" lon="15.1797347"><ele>132.0</ele><time>2026-04-11T11:45:44.897Z</time></trkpt><trkpt lat="40.1426691" lon="15.1798289"><ele>132.0</ele><time>2026-04-11T11:45:45.9Z</time></trkpt><trkpt lat="40.142572" lon="15.1799483"><ele>132.0</ele><time>2026-04-11T11:45:46.898Z</time></trkpt><trkpt lat="40.142478" lon="15.1800737"><ele>135.75</ele><time>2026-04-11T11:45:47.892Z</time></trkpt><trkpt lat="40.1423818" lon="15.1802008"><ele>139.5</ele><time>2026-04-11T11:45:48.898Z</time></trkpt><trkpt lat="40.1422865" lon="15.1803063"><ele>143.25</ele><time>2026-04-11T11:45:49.897Z</time></trkpt><trkpt lat="40.1421908" lon="15.1803824"><ele>147.0</ele><time>2026-04-11T11:45:50.906Z</time></trkpt><trkpt lat="40.142112" lon="15.180458"><ele>148.0</ele><time>2026-04-11T11:45:51.9Z</time></trkpt><trkpt lat="40.1420511" lon="15.1805746"><ele>149.0</ele><time>2026-04-11T11:45:52.9Z</time></trkpt><trkpt lat="40.1420103" lon="15.1807105"><ele>150.0</ele><time>2026-04-11T11:45:53.908Z</time></trkpt><trkpt lat="40.1419804" lon="15.1808565"><ele>151.0</ele><time>2026-04-11T11:45:54.903Z</time></trkpt><trkpt lat="40.1419757" lon="15.1810168"><ele>153.5</ele><time>2026-04-11T11:45:55.904Z</time></trkpt><trkpt lat="40.1419948" lon="15.1811806"><ele>156.0</ele><time>2026-04-11T11:45:56.91Z</time></trkpt><trkpt lat="40.1420269" lon="15.1813407"><ele>158.5</ele><time>2026-04-11T11:45:57.9Z</time></trkpt><trkpt lat="40.1420506" lon="15.1815003"><ele>161.0</ele><time>2026-04-11T11:45:58.897Z</time></trkpt><trkpt lat="40.1420623" lon="15.1816371"><ele>162.33333333333331</ele><time>2026-04-11T11:45:59.897Z</time></trkpt><trkpt lat="40.1420605" lon="15.1817467"><ele>163.66666666666666</ele><time>2026-04-11T11:46:00.904Z</time></trkpt><trkpt lat="40.1420297" lon="15.1818303"><ele>165.0</ele><time>2026-04-11T11:46:01.909Z</time></trkpt><trkpt lat="40.1419826" lon="15.1818901"><ele>166.33333333333334</ele><time>2026-04-11T11:46:02.892Z</time></trkpt><trkpt lat="40.1419081" lon="15.181948"><ele>167.66666666666669</ele><time>2026-04-11T11:46:03.898Z</time></trkpt><trkpt lat="40.1418045" lon="15.181997"><ele>169.0</ele><time>2026-04-11T11:46:04.903Z</time></trkpt><trkpt lat="40.1416926" lon="15.1820442"><ele>169.0</ele><time>2026-04-11T11:46:05.895Z</time></trkpt><trkpt lat="40.1415749" lon="15.1820749"><ele>169.0</ele><time>2026-04-11T11:46:06.907Z</time></trkpt><trkpt lat="40.141466" lon="15.1820829"><ele>169.0</ele><time>2026-04-11T11:46:07.897Z</time></trkpt><trkpt lat="40.1413541" lon="15.1820582"><ele>169.0</ele><time>2026-04-11T11:46:08.907Z</time></trkpt><trkpt lat="40.1412303" lon="15.1820265"><ele>170.0</ele><time>2026-04-11T11:46:09.901Z</time></trkpt><trkpt lat="40.1410994" lon="15.1820121"><ele>171.0</ele><time>2026-04-11T11:46:10.902Z</time></trkpt><trkpt lat="40.1409576" lon="15.1820126"><ele>172.0</ele><time>2026-04-11T11:46:11.894Z</time></trkpt><trkpt lat="40.1408213" lon="15.1820192"><ele>173.0</ele><time>2026-04-11T11:46:12.904Z</time></trkpt><trkpt lat="40.1406942" lon="15.182025"><ele>173.0</ele><time>2026-04-11T11:46:13.9Z</time></trkpt><trkpt lat="40.1405629" lon="15.182032"><ele>173.0</ele><time>2026-04-11T11:46:14.902Z</time></trkpt><trkpt lat="40.1404311" lon="15.1820499"><ele>173.0</ele><time>2026-04-11T11:46:15.908Z</time></trkpt><trkpt lat="40.140301" lon="15.1820753"><ele>173.0</ele><time>2026-04-11T11:46:16.894Z</time></trkpt><trkpt lat="40.1401677" lon="15.1821001"><ele>173.0</ele><time>2026-04-11T11:46:17.891Z</time></trkpt><trkpt lat="40.1400401" lon="15.1821181"><ele>173.0</ele><time>2026-04-11T11:46:18.897Z</time></trkpt><trkpt lat="40.139924" lon="15.1821302"><ele>173.0</ele><time>2026-04-11T11:46:19.898Z</time></trkpt><trkpt lat="40.1398179" lon="15.182139"><ele>173.0</ele><time>2026-04-11T11:46:20.897Z</time></trkpt><trkpt lat="40.1397152" lon="15.1821537"><ele>173.0</ele><time>2026-04-11T11:46:21.9Z</time></trkpt><trkpt lat="40.1396055" lon="15.1821922"><ele>173.0</ele><time>2026-04-11T11:46:22.911Z</time></trkpt><trkpt lat="40.1394953" lon="15.1822383"><ele>173.0</ele><time>2026-04-11T11:46:23.903Z</time></trkpt><trkpt lat="40.1394062" lon="15.1822771"><ele>173.0</ele><time>2026-04-11T11:46:24.895Z</time></trkpt><trkpt lat="40.1393369" lon="15.1823218"><ele>173.0</ele><time>2026-04-11T11:46:25.893Z</time></trkpt><trkpt lat="40.1392741" lon="15.1823866"><ele>173.0</ele><time>2026-04-11T11:46:26.905Z</time></trkpt><trkpt lat="40.1392212" lon="15.1824636"><ele>173.0</ele><time>2026-04-11T11:46:27.895Z</time></trkpt><trkpt lat="40.1391701" lon="15.182563"><ele>173.0</ele><time>2026-04-11T11:46:28.897Z</time></trkpt><trkpt lat="40.139124" lon="15.1826963"><ele>173.0</ele><time>2026-04-11T11:46:29.897Z</time></trkpt><trkpt lat="40.1390647" lon="15.1828329"><ele>173.0</ele><time>2026-04-11T11:46:30.899Z</time></trkpt><trkpt lat="40.1390007" lon="15.1829549"><ele>170.8</ele><time>2026-04-11T11:46:31.903Z</time></trkpt><trkpt lat="40.1389273" lon="15.1830696"><ele>168.60000000000002</ele><time>2026-04-11T11:46:32.901Z</time></trkpt><trkpt lat="40.1388549" lon="15.1831706"><ele>166.39999999999998</ele><time>2026-04-11T11:46:33.904Z</time></trkpt><trkpt lat="40.1387916" lon="15.1832597"><ele>164.2</ele><time>2026-04-11T11:46:34.905Z</time></trkpt><trkpt lat="40.1387259" lon="15.1833505"><ele>162.0</ele><time>2026-04-11T11:46:35.899Z</time></trkpt><trkpt lat="40.1386552" lon="15.1834484"><ele>161.66666666666666</ele><time>2026-04-11T11:46:36.903Z</time></trkpt><trkpt lat="40.138583" lon="15.1835408"><ele>161.33333333333334</ele><time>2026-04-11T11:46:37.894Z</time></trkpt><trkpt lat="40.1385252" lon="15.1836236"><ele>161.0</ele><time>2026-04-11T11:46:38.898Z</time></trkpt><trkpt lat="40.1384767" lon="15.1836959"><ele>160.66666666666669</ele><time>2026-04-11T11:46:39.902Z</time></trkpt><trkpt lat="40.1384321" lon="15.1837581"><ele>160.33333333333334</ele><time>2026-04-11T11:46:40.898Z</time></trkpt><trkpt lat="40.1383589" lon="15.1838595"><ele>160.0</ele><time>2026-04-11T11:46:42.895Z</time></trkpt><trkpt lat="40.1382994" lon="15.1839344"><ele>160.0</ele><time>2026-04-11T11:46:44.888Z</time></trkpt><trkpt lat="40.13825" lon="15.1839953"><ele>160.0</ele><time>2026-04-11T11:46:46.891Z</time></trkpt><trkpt lat="40.1381867" lon="15.1840546"><ele>160.0</ele><time>2026-04-11T11:46:49.88Z</time></trkpt><trkpt lat="40.1381311" lon="15.1841052"><ele>160.0</ele><time>2026-04-11T11:47:12.921Z</time></trkpt><trkpt lat="40.1380654" lon="15.1841882"><ele>160.0</ele><time>2026-04-11T11:47:14.911Z</time></trkpt><trkpt lat="40.1380173" lon="15.1842502"><ele>160.0</ele><time>2026-04-11T11:47:15.898Z</time></trkpt><trkpt lat="40.1379677" lon="15.1843335"><ele>160.6</ele><time>2026-04-11T11:47:16.9Z</time></trkpt><trkpt lat="40.1379275" lon="15.1844438"><ele>161.2</ele><time>2026-04-11T11:47:17.899Z</time></trkpt><trkpt lat="40.1378994" lon="15.184569"><ele>161.8</ele><time>2026-04-11T11:47:18.905Z</time></trkpt><trkpt lat="40.137895" lon="15.1846985"><ele>162.4</ele><time>2026-04-11T11:47:19.888Z</time></trkpt><trkpt lat="40.1379021" lon="15.1848292"><ele>163.0</ele><time>2026-04-11T11:47:20.897Z</time></trkpt><trkpt lat="40.1379093" lon="15.184972"><ele>163.0</ele><time>2026-04-11T11:47:21.897Z</time></trkpt><trkpt lat="40.1379102" lon="15.1851185"><ele>163.0</ele><time>2026-04-11T11:47:22.903Z</time></trkpt><trkpt lat="40.1379054" lon="15.1852562"><ele>163.0</ele><time>2026-04-11T11:47:23.899Z</time></trkpt><trkpt lat="40.1378992" lon="15.185381"><ele>163.0</ele><time>2026-04-11T11:47:24.897Z</time></trkpt><trkpt lat="40.1378769" lon="15.1854786"><ele>163.0</ele><time>2026-04-11T11:47:25.893Z</time></trkpt><trkpt lat="40.1378395" lon="15.1855562"><ele>163.0</ele><time>2026-04-11T11:47:26.904Z</time></trkpt><trkpt lat="40.1377772" lon="15.1856318"><ele>163.0</ele><time>2026-04-11T11:47:27.912Z</time></trkpt><trkpt lat="40.1376884" lon="15.1857026"><ele>163.0</ele><time>2026-04-11T11:47:28.903Z</time></trkpt><trkpt lat="40.1375862" lon="15.1857738"><ele>163.0</ele><time>2026-04-11T11:47:29.896Z</time></trkpt><trkpt lat="40.137465" lon="15.1858517"><ele>163.0</ele><time>2026-04-11T11:47:30.914Z</time></trkpt><trkpt lat="40.1373483" lon="15.1859483"><ele>167.75</ele><time>2026-04-11T11:47:31.898Z</time></trkpt><trkpt lat="40.1372325" lon="15.1860523"><ele>172.5</ele><time>2026-04-11T11:47:32.908Z</time></trkpt><trkpt lat="40.1371149" lon="15.1861467"><ele>177.25</ele><time>2026-04-11T11:47:33.9Z</time></trkpt><trkpt lat="40.1369884" lon="15.186219"><ele>182.0</ele><time>2026-04-11T11:47:34.898Z</time></trkpt><trkpt lat="40.1368647" lon="15.1862788"><ele>182.0</ele><time>2026-04-11T11:47:35.896Z</time></trkpt><trkpt lat="40.136736" lon="15.186341"><ele>182.0</ele><time>2026-04-11T11:47:36.893Z</time></trkpt><trkpt lat="40.1366063" lon="15.1864037"><ele>182.0</ele><time>2026-04-11T11:47:37.898Z</time></trkpt><trkpt lat="40.1364733" lon="15.1864649"><ele>182.0</ele><time>2026-04-11T11:47:38.903Z</time></trkpt><trkpt lat="40.1363407" lon="15.1865287"><ele>183.5</ele><time>2026-04-11T11:47:39.898Z</time></trkpt><trkpt lat="40.1362131" lon="15.1865931"><ele>185.0</ele><time>2026-04-11T11:47:40.91Z</time></trkpt><trkpt lat="40.1361028" lon="15.1866531"><ele>186.5</ele><time>2026-04-11T11:47:41.904Z</time></trkpt><trkpt lat="40.1360002" lon="15.1867056"><ele>188.0</ele><time>2026-04-11T11:47:42.894Z</time></trkpt><trkpt lat="40.1358931" lon="15.1867472"><ele>188.0</ele><time>2026-04-11T11:47:43.892Z</time></trkpt><trkpt lat="40.1357963" lon="15.1867798"><ele>188.0</ele><time>2026-04-11T11:47:44.901Z</time></trkpt><trkpt lat="40.1357071" lon="15.1868038"><ele>188.0</ele><time>2026-04-11T11:47:45.889Z</time></trkpt><trkpt lat="40.1356231" lon="15.1868295"><ele>188.0</ele><time>2026-04-11T11:47:46.904Z</time></trkpt><trkpt lat="40.1355542" lon="15.1868678"><ele>188.0</ele><time>2026-04-11T11:47:47.899Z</time></trkpt><trkpt lat="40.1355117" lon="15.1869387"><ele>188.0</ele><time>2026-04-11T11:47:48.9Z</time></trkpt><trkpt lat="40.1354863" lon="15.1870224"><ele>188.0</ele><time>2026-04-11T11:47:49.897Z</time></trkpt><trkpt lat="40.135474" lon="15.1871414"><ele>188.0</ele><time>2026-04-11T11:47:50.896Z</time></trkpt><trkpt lat="40.1354701" lon="15.1872814"><ele>188.0</ele><time>2026-04-11T11:47:51.888Z</time></trkpt><trkpt lat="40.1354582" lon="15.1874302"><ele>188.0</ele><time>2026-04-11T11:47:52.907Z</time></trkpt><trkpt lat="40.1354398" lon="15.1875724"><ele>188.0</ele><time>2026-04-11T11:47:53.898Z</time></trkpt><trkpt lat="40.1354209" lon="15.1877263"><ele>189.83333333333331</ele><time>2026-04-11T11:47:54.908Z</time></trkpt><trkpt lat="40.1354077" lon="15.1878774"><ele>191.66666666666666</ele><time>2026-04-11T11:47:55.896Z</time></trkpt><trkpt lat="40.135396" lon="15.1879819"><ele>193.5</ele><time>2026-04-11T11:47:56.9Z</time></trkpt><trkpt lat="40.1353554" lon="15.1880557"><ele>195.33333333333331</ele><time>2026-04-11T11:47:58.899Z</time></trkpt><trkpt lat="40.1352744" lon="15.1880531"><ele>197.16666666666666</ele><time>2026-04-11T11:48:00.9Z</time></trkpt><trkpt lat="40.1352092" lon="15.1880351"><ele>199.0</ele><time>2026-04-11T11:48:01.898Z</time></trkpt><trkpt lat="40.1351351" lon="15.1880099"><ele>199.0</ele><time>2026-04-11T11:48:02.894Z</time></trkpt><trkpt lat="40.13506" lon="15.1879653"><ele>199.0</ele><time>2026-04-11T11:48:03.911Z</time></trkpt><trkpt lat="40.1349735" lon="15.1879009"><ele>199.0</ele><time>2026-04-11T11:48:04.889Z</time></trkpt><trkpt lat="40.1348819" lon="15.1878233"><ele>199.0</ele><time>2026-04-11T11:48:05.91Z</time></trkpt><trkpt lat="40.1347851" lon="15.1877386"><ele>199.0</ele><time>2026-04-11T11:48:06.899Z</time></trkpt><trkpt lat="40.1346801" lon="15.1876392"><ele>200.5</ele><time>2026-04-11T11:48:07.899Z</time></trkpt><trkpt lat="40.1345617" lon="15.1875562"><ele>202.0</ele><time>2026-04-11T11:48:08.913Z</time></trkpt><trkpt lat="40.1344312" lon="15.1874936"><ele>203.5</ele><time>2026-04-11T11:48:09.903Z</time></trkpt><trkpt lat="40.1343029" lon="15.1874652"><ele>205.0</ele><time>2026-04-11T11:48:10.909Z</time></trkpt><trkpt lat="40.1341731" lon="15.1874446"><ele>205.25</ele><time>2026-04-11T11:48:11.902Z</time></trkpt><trkpt lat="40.1340465" lon="15.1874258"><ele>205.5</ele><time>2026-04-11T11:48:12.896Z</time></trkpt><trkpt lat="40.1339399" lon="15.1874387"><ele>205.75</ele><time>2026-04-11T11:48:13.898Z</time></trkpt><trkpt lat="40.133825" lon="15.1874769"><ele>206.0</ele><time>2026-04-11T11:48:14.897Z</time></trkpt><trkpt lat="40.1337074" lon="15.1875252"><ele>206.0</ele><time>2026-04-11T11:48:15.906Z</time></trkpt><trkpt lat="40.1336027" lon="15.187561"><ele>206.0</ele><time>2026-04-11T11:48:16.906Z</time></trkpt><trkpt lat="40.1334951" lon="15.1875617"><ele>206.0</ele><time>2026-04-11T11:48:17.897Z</time></trkpt><trkpt lat="40.1333803" lon="15.1875158"><ele>206.0</ele><time>2026-04-11T11:48:18.9Z</time></trkpt><trkpt lat="40.1332584" lon="15.1874457"><ele>209.0</ele><time>2026-04-11T11:48:19.892Z</time></trkpt><trkpt lat="40.1331216" lon="15.1873734"><ele>212.0</ele><time>2026-04-11T11:48:20.893Z</time></trkpt><trkpt lat="40.132969" lon="15.1873123"><ele>215.0</ele><time>2026-04-11T11:48:21.895Z</time></trkpt><trkpt lat="40.1328121" lon="15.1872544"><ele>203.0</ele><time>2026-04-11T11:48:22.891Z</time></trkpt><trkpt lat="40.1326528" lon="15.1872096"><ele>191.0</ele><time>2026-04-11T11:48:23.905Z</time></trkpt><trkpt lat="40.1324944" lon="15.1871697"><ele>179.0</ele><time>2026-04-11T11:48:24.909Z</time></trkpt><trkpt lat="40.1323367" lon="15.1871302"><ele>176.5</ele><time>2026-04-11T11:48:25.889Z</time></trkpt><trkpt lat="40.132183" lon="15.1871042"><ele>174.0</ele><time>2026-04-11T11:48:26.902Z</time></trkpt><trkpt lat="40.1320463" lon="15.1870914"><ele>171.5</ele><time>2026-04-11T11:48:27.89Z</time></trkpt><trkpt lat="40.1319277" lon="15.1870743"><ele>169.0</ele><time>2026-04-11T11:48:28.889Z</time></trkpt><trkpt lat="40.131829" lon="15.1870461"><ele>169.0</ele><time>2026-04-11T11:48:29.895Z</time></trkpt><trkpt lat="40.1317362" lon="15.1870524"><ele>169.0</ele><time>2026-04-11T11:48:30.899Z</time></trkpt><trkpt lat="40.1316397" lon="15.1871089"><ele>169.0</ele><time>2026-04-11T11:48:31.894Z</time></trkpt><trkpt lat="40.1315546" lon="15.1872322"><ele>169.0</ele><time>2026-04-11T11:48:32.906Z</time></trkpt><trkpt lat="40.1314637" lon="15.1873736"><ele>171.25</ele><time>2026-04-11T11:48:33.905Z</time></trkpt><trkpt lat="40.1313527" lon="15.187501"><ele>173.5</ele><time>2026-04-11T11:48:34.891Z</time></trkpt><trkpt lat="40.1312301" lon="15.1876034"><ele>175.75</ele><time>2026-04-11T11:48:35.894Z</time></trkpt><trkpt lat="40.1311101" lon="15.1877021"><ele>178.0</ele><time>2026-04-11T11:48:36.892Z</time></trkpt><trkpt lat="40.1310005" lon="15.1878033"><ele>178.0</ele><time>2026-04-11T11:48:37.907Z</time></trkpt><trkpt lat="40.130898" lon="15.1879332"><ele>178.0</ele><time>2026-04-11T11:48:38.908Z</time></trkpt><trkpt lat="40.1308081" lon="15.1880872"><ele>178.0</ele><time>2026-04-11T11:48:39.9Z</time></trkpt><trkpt lat="40.130743" lon="15.1882727"><ele>178.0</ele><time>2026-04-11T11:48:40.905Z</time></trkpt><trkpt lat="40.1306828" lon="15.1884564"><ele>177.75</ele><time>2026-04-11T11:48:41.9Z</time></trkpt><trkpt lat="40.1306083" lon="15.1886395"><ele>177.5</ele><time>2026-04-11T11:48:42.9Z</time></trkpt><trkpt lat="40.1305238" lon="15.1888072"><ele>177.25</ele><time>2026-04-11T11:48:43.894Z</time></trkpt><trkpt lat="40.1304507" lon="15.1889526"><ele>177.0</ele><time>2026-04-11T11:48:44.901Z</time></trkpt><trkpt lat="40.130386" lon="15.1890665"><ele>177.0</ele><time>2026-04-11T11:48:45.887Z</time></trkpt><trkpt lat="40.1303347" lon="15.1891662"><ele>177.0</ele><time>2026-04-11T11:48:46.884Z</time></trkpt><trkpt lat="40.1303118" lon="15.1892713"><ele>177.0</ele><time>2026-04-11T11:48:47.898Z</time></trkpt><trkpt lat="40.1303189" lon="15.1893782"><ele>177.0</ele><time>2026-04-11T11:48:48.903Z</time></trkpt><trkpt lat="40.1303643" lon="15.1894781"><ele>177.0</ele><time>2026-04-11T11:48:49.896Z</time></trkpt><trkpt lat="40.1304395" lon="15.1895821"><ele>177.0</ele><time>2026-04-11T11:48:50.909Z</time></trkpt><trkpt lat="40.1305407" lon="15.1896706"><ele>177.0</ele><time>2026-04-11T11:48:51.904Z</time></trkpt><trkpt lat="40.1306633" lon="15.1897762"><ele>177.0</ele><time>2026-04-11T11:48:52.897Z</time></trkpt><trkpt lat="40.1307874" lon="15.1899172"><ele>177.0</ele><time>2026-04-11T11:48:53.889Z</time></trkpt><trkpt lat="40.1308989" lon="15.1900679"><ele>178.66666666666666</ele><time>2026-04-11T11:48:54.897Z</time></trkpt><trkpt lat="40.1309988" lon="15.1901972"><ele>180.33333333333331</ele><time>2026-04-11T11:48:55.886Z</time></trkpt><trkpt lat="40.1311235" lon="15.1903091"><ele>182.0</ele><time>2026-04-11T11:48:56.899Z</time></trkpt><trkpt lat="40.1312667" lon="15.1904076"><ele>182.0</ele><time>2026-04-11T11:48:57.898Z</time></trkpt><trkpt lat="40.1314057" lon="15.1904722"><ele>182.0</ele><time>2026-04-11T11:48:58.888Z</time></trkpt><trkpt lat="40.1315404" lon="15.1905051"><ele>182.0</ele><time>2026-04-11T11:48:59.889Z</time></trkpt><trkpt lat="40.1316677" lon="15.1905121"><ele>182.0</ele><time>2026-04-11T11:49:00.89Z</time></trkpt><trkpt lat="40.1317675" lon="15.1905178"><ele>182.8</ele><time>2026-04-11T11:49:01.871Z</time></trkpt><trkpt lat="40.1318417" lon="15.1905419"><ele>183.6</ele><time>2026-04-11T11:49:02.881Z</time></trkpt><trkpt lat="40.1318942" lon="15.1905889"><ele>184.4</ele><time>2026-04-11T11:49:03.908Z</time></trkpt><trkpt lat="40.1319437" lon="15.1907365"><ele>185.20000000000002</ele><time>2026-04-11T11:49:05.894Z</time></trkpt><trkpt lat="40.1319388" lon="15.1909001"><ele>186.0</ele><time>2026-04-11T11:49:07.893Z</time></trkpt><trkpt lat="40.1318858" lon="15.1909745"><ele>186.0</ele><time>2026-04-11T11:49:08.905Z</time></trkpt><trkpt lat="40.1318003" lon="15.1910213"><ele>186.0</ele><time>2026-04-11T11:49:09.891Z</time></trkpt><trkpt lat="40.13169" lon="15.1910695"><ele>186.0</ele><time>2026-04-11T11:49:10.898Z</time></trkpt><trkpt lat="40.1315448" lon="15.1911207"><ele>186.0</ele><time>2026-04-11T11:49:11.883Z</time></trkpt><trkpt lat="40.1313891" lon="15.1911684"><ele>183.25</ele><time>2026-04-11T11:49:12.888Z</time></trkpt><trkpt lat="40.1312416" lon="15.1912231"><ele>180.5</ele><time>2026-04-11T11:49:13.891Z</time></trkpt><trkpt lat="40.1311037" lon="15.1912633"><ele>177.75</ele><time>2026-04-11T11:49:14.887Z</time></trkpt><trkpt lat="40.1309815" lon="15.1912849"><ele>175.0</ele><time>2026-04-11T11:49:15.898Z</time></trkpt><trkpt lat="40.1308553" lon="15.1912728"><ele>171.33333333333334</ele><time>2026-04-11T11:49:16.892Z</time></trkpt><trkpt lat="40.1307129" lon="15.1912233"><ele>167.66666666666666</ele><time>2026-04-11T11:49:17.895Z</time></trkpt><trkpt lat="40.1305536" lon="15.1911511"><ele>164.0</ele><time>2026-04-11T11:49:18.9Z</time></trkpt><trkpt lat="40.1303905" lon="15.1910751"><ele>164.0</ele><time>2026-04-11T11:49:19.9Z</time></trkpt><trkpt lat="40.1302283" lon="15.1910099"><ele>164.0</ele><time>2026-04-11T11:49:20.9Z</time></trkpt><trkpt lat="40.1300529" lon="15.190955"><ele>164.0</ele><time>2026-04-11T11:49:21.9Z</time></trkpt><trkpt lat="40.129869" lon="15.1909097"><ele>163.66666666666666</ele><time>2026-04-11T11:49:22.901Z</time></trkpt><trkpt lat="40.1296882" lon="15.1908693"><ele>163.33333333333334</ele><time>2026-04-11T11:49:23.901Z</time></trkpt><trkpt lat="40.1295185" lon="15.1908452"><ele>163.0</ele><time>2026-04-11T11:49:24.895Z</time></trkpt><trkpt lat="40.1293542" lon="15.1908312"><ele>163.0</ele><time>2026-04-11T11:49:25.906Z</time></trkpt><trkpt lat="40.1291829" lon="15.1908357"><ele>163.0</ele><time>2026-04-11T11:49:26.9Z</time></trkpt><trkpt lat="40.1290047" lon="15.1908353"><ele>163.0</ele><time>2026-04-11T11:49:27.893Z</time></trkpt><trkpt lat="40.1288415" lon="15.1908188"><ele>159.66666666666669</ele><time>2026-04-11T11:49:28.893Z</time></trkpt><trkpt lat="40.1286833" lon="15.1908154"><ele>156.33333333333334</ele><time>2026-04-11T11:49:29.901Z</time></trkpt><trkpt lat="40.1285147" lon="15.1908537"><ele>153.0</ele><time>2026-04-11T11:49:30.908Z</time></trkpt><trkpt lat="40.128338" lon="15.1909072"><ele>150.25</ele><time>2026-04-11T11:49:31.901Z</time></trkpt><trkpt lat="40.1281759" lon="15.1909397"><ele>147.5</ele><time>2026-04-11T11:49:32.894Z</time></trkpt><trkpt lat="40.1280403" lon="15.1909747"><ele>144.75</ele><time>2026-04-11T11:49:33.896Z</time></trkpt><trkpt lat="40.1279137" lon="15.1910161"><ele>142.0</ele><time>2026-04-11T11:49:34.901Z</time></trkpt><trkpt lat="40.1278062" lon="15.1910744"><ele>142.0</ele><time>2026-04-11T11:49:35.895Z</time></trkpt><trkpt lat="40.1277055" lon="15.1911435"><ele>142.0</ele><time>2026-04-11T11:49:36.901Z</time></trkpt><trkpt lat="40.1276336" lon="15.1912172"><ele>142.0</ele><time>2026-04-11T11:49:37.895Z</time></trkpt><trkpt lat="40.1275923" lon="15.1913167"><ele>142.0</ele><time>2026-04-11T11:49:38.904Z</time></trkpt><trkpt lat="40.1275797" lon="15.1914375"><ele>142.0</ele><time>2026-04-11T11:49:39.9Z</time></trkpt><trkpt lat="40.1276015" lon="15.1915564"><ele>142.0</ele><time>2026-04-11T11:49:40.917Z</time></trkpt><trkpt lat="40.1276784" lon="15.1916481"><ele>142.0</ele><time>2026-04-11T11:49:41.903Z</time></trkpt><trkpt lat="40.1277941" lon="15.191717"><ele>142.0</ele><time>2026-04-11T11:49:42.903Z</time></trkpt><trkpt lat="40.1279373" lon="15.1917826"><ele>142.0</ele><time>2026-04-11T11:49:43.91Z</time></trkpt><trkpt lat="40.128089" lon="15.1918326"><ele>148.33333333333334</ele><time>2026-04-11T11:49:44.905Z</time></trkpt><trkpt lat="40.1282554" lon="15.1918766"><ele>154.66666666666666</ele><time>2026-04-11T11:49:45.9Z</time></trkpt><trkpt lat="40.1284135" lon="15.1919204"><ele>161.0</ele><time>2026-04-11T11:49:46.894Z</time></trkpt><trkpt lat="40.1285541" lon="15.191952"><ele>161.0</ele><time>2026-04-11T11:49:47.904Z</time></trkpt><trkpt lat="40.128688" lon="15.1919579"><ele>161.0</ele><time>2026-04-11T11:49:48.909Z</time></trkpt><trkpt lat="40.1288164" lon="15.1919459"><ele>161.0</ele><time>2026-04-11T11:49:49.89Z</time></trkpt><trkpt lat="40.1289495" lon="15.1919746"><ele>161.0</ele><time>2026-04-11T11:49:50.906Z</time></trkpt><trkpt lat="40.1290954" lon="15.1920621"><ele>164.66666666666666</ele><time>2026-04-11T11:49:51.892Z</time></trkpt><trkpt lat="40.1292425" lon="15.1921778"><ele>168.33333333333334</ele><time>2026-04-11T11:49:52.896Z</time></trkpt><trkpt lat="40.1293881" lon="15.1923188"><ele>172.0</ele><time>2026-04-11T11:49:53.886Z</time></trkpt><trkpt lat="40.1295247" lon="15.1924722"><ele>170.0</ele><time>2026-04-11T11:49:54.9Z</time></trkpt><trkpt lat="40.1296429" lon="15.1925917"><ele>168.0</ele><time>2026-04-11T11:49:55.893Z</time></trkpt><trkpt lat="40.1297502" lon="15.192679"><ele>166.0</ele><time>2026-04-11T11:49:56.887Z</time></trkpt><trkpt lat="40.1298743" lon="15.192759"><ele>164.0</ele><time>2026-04-11T11:49:57.891Z</time></trkpt><trkpt lat="40.1300153" lon="15.1928097"><ele>164.0</ele><time>2026-04-11T11:49:58.902Z</time></trkpt><trkpt lat="40.1301602" lon="15.192845"><ele>164.0</ele><time>2026-04-11T11:49:59.883Z</time></trkpt><trkpt lat="40.1303021" lon="15.1929139"><ele>164.0</ele><time>2026-04-11T11:50:00.885Z</time></trkpt><trkpt lat="40.1304409" lon="15.1930239"><ele>164.0</ele><time>2026-04-11T11:50:01.89Z</time></trkpt><trkpt lat="40.1305757" lon="15.1931489"><ele>164.0</ele><time>2026-04-11T11:50:02.89Z</time></trkpt><trkpt lat="40.1307106" lon="15.1932718"><ele>164.0</ele><time>2026-04-11T11:50:03.893Z</time></trkpt><trkpt lat="40.1308454" lon="15.1933638"><ele>158.5</ele><time>2026-04-11T11:50:04.889Z</time></trkpt><trkpt lat="40.1309784" lon="15.1934077"><ele>153.0</ele><time>2026-04-11T11:50:05.887Z</time></trkpt><trkpt lat="40.1311001" lon="15.1934347"><ele>147.5</ele><time>2026-04-11T11:50:06.899Z</time></trkpt><trkpt lat="40.1312054" lon="15.1934763"><ele>142.0</ele><time>2026-04-11T11:50:07.885Z</time></trkpt><trkpt lat="40.1312956" lon="15.1935432"><ele>142.0</ele><time>2026-04-11T11:50:08.885Z</time></trkpt><trkpt lat="40.1313536" lon="15.1936318"><ele>142.0</ele><time>2026-04-11T11:50:09.9Z</time></trkpt><trkpt lat="40.1313761" lon="15.1937356"><ele>142.0</ele><time>2026-04-11T11:50:10.888Z</time></trkpt><trkpt lat="40.1313791" lon="15.1938605"><ele>142.0</ele><time>2026-04-11T11:50:11.889Z</time></trkpt><trkpt lat="40.1313956" lon="15.1940059"><ele>142.0</ele><time>2026-04-11T11:50:12.89Z</time></trkpt><trkpt lat="40.1314454" lon="15.1941627"><ele>144.0</ele><time>2026-04-11T11:50:13.909Z</time></trkpt><trkpt lat="40.1315287" lon="15.1943206"><ele>146.0</ele><time>2026-04-11T11:50:14.898Z</time></trkpt><trkpt lat="40.1316334" lon="15.1944807"><ele>148.0</ele><time>2026-04-11T11:50:15.89Z</time></trkpt><trkpt lat="40.1317442" lon="15.1946506"><ele>148.0</ele><time>2026-04-11T11:50:16.895Z</time></trkpt><trkpt lat="40.1318376" lon="15.1948106"><ele>148.0</ele><time>2026-04-11T11:50:17.892Z</time></trkpt><trkpt lat="40.131928" lon="15.1949439"><ele>148.0</ele><time>2026-04-11T11:50:18.897Z</time></trkpt><trkpt lat="40.1320392" lon="15.1950379"><ele>148.0</ele><time>2026-04-11T11:50:19.885Z</time></trkpt><trkpt lat="40.1321793" lon="15.1950924"><ele>146.0</ele><time>2026-04-11T11:50:20.898Z</time></trkpt><trkpt lat="40.1323337" lon="15.1951262"><ele>144.0</ele><time>2026-04-11T11:50:21.896Z</time></trkpt><trkpt lat="40.1324861" lon="15.195169"><ele>142.0</ele><time>2026-04-11T11:50:22.895Z</time></trkpt><trkpt lat="40.1326151" lon="15.195224"><ele>140.0</ele><time>2026-04-11T11:50:23.894Z</time></trkpt><trkpt lat="40.1327097" lon="15.1952743"><ele>140.0</ele><time>2026-04-11T11:50:24.897Z</time></trkpt><trkpt lat="40.132787" lon="15.1953257"><ele>140.0</ele><time>2026-04-11T11:50:25.898Z</time></trkpt><trkpt lat="40.1328382" lon="15.1954109"><ele>140.0</ele><time>2026-04-11T11:50:26.89Z</time></trkpt><trkpt lat="40.1328633" lon="15.1955166"><ele>140.0</ele><time>2026-04-11T11:50:27.898Z</time></trkpt><trkpt lat="40.1328668" lon="15.195633"><ele>140.0</ele><time>2026-04-11T11:50:28.896Z</time></trkpt><trkpt lat="40.1328731" lon="15.1957658"><ele>140.0</ele><time>2026-04-11T11:50:29.903Z</time></trkpt><trkpt lat="40.1328892" lon="15.195898"><ele>136.0</ele><time>2026-04-11T11:50:30.894Z</time></trkpt><trkpt lat="40.1329312" lon="15.1960081"><ele>132.0</ele><time>2026-04-11T11:50:31.894Z</time></trkpt><trkpt lat="40.1330159" lon="15.1960895"><ele>128.0</ele><time>2026-04-11T11:50:32.893Z</time></trkpt><trkpt lat="40.1331185" lon="15.1961237"><ele>124.0</ele><time>2026-04-11T11:50:33.893Z</time></trkpt><trkpt lat="40.1332354" lon="15.1961311"><ele>120.0</ele><time>2026-04-11T11:50:34.896Z</time></trkpt><trkpt lat="40.1333513" lon="15.1961199"><ele>120.0</ele><time>2026-04-11T11:50:35.902Z</time></trkpt><trkpt lat="40.1334486" lon="15.1960646"><ele>120.0</ele><time>2026-04-11T11:50:36.886Z</time></trkpt><trkpt lat="40.133535" lon="15.1959962"><ele>120.0</ele><time>2026-04-11T11:50:37.901Z</time></trkpt><trkpt lat="40.1336114" lon="15.1959256"><ele>120.0</ele><time>2026-04-11T11:50:38.89Z</time></trkpt><trkpt lat="40.1336843" lon="15.1958758"><ele>120.0</ele><time>2026-04-11T11:50:39.898Z</time></trkpt><trkpt lat="40.1337553" lon="15.1958682"><ele>120.0</ele><time>2026-04-11T11:50:40.895Z</time></trkpt><trkpt lat="40.1338175" lon="15.1959066"><ele>120.0</ele><time>2026-04-11T11:50:41.889Z</time></trkpt><trkpt lat="40.1338538" lon="15.1959942"><ele>120.0</ele><time>2026-04-11T11:50:42.898Z</time></trkpt><trkpt lat="40.1338591" lon="15.1961126"><ele>120.0</ele><time>2026-04-11T11:50:43.891Z</time></trkpt><trkpt lat="40.1338704" lon="15.1962403"><ele>120.0</ele><time>2026-04-11T11:50:44.896Z</time></trkpt><trkpt lat="40.1339064" lon="15.1963463"><ele>120.0</ele><time>2026-04-11T11:50:45.892Z</time></trkpt><trkpt lat="40.1339668" lon="15.1964173"><ele>120.0</ele><time>2026-04-11T11:50:46.897Z</time></trkpt><trkpt lat="40.1340541" lon="15.1964553"><ele>120.0</ele><time>2026-04-11T11:50:47.887Z</time></trkpt><trkpt lat="40.1341538" lon="15.1964848"><ele>120.0</ele><time>2026-04-11T11:50:48.893Z</time></trkpt><trkpt lat="40.1342559" lon="15.196504"><ele>120.0</ele><time>2026-04-11T11:50:49.887Z</time></trkpt><trkpt lat="40.1343855" lon="15.1964909"><ele>120.0</ele><time>2026-04-11T11:50:50.896Z</time></trkpt><trkpt lat="40.134534" lon="15.1964687"><ele>121.5</ele><time>2026-04-11T11:50:51.894Z</time></trkpt><trkpt lat="40.1346841" lon="15.1964421"><ele>123.0</ele><time>2026-04-11T11:50:52.894Z</time></trkpt><trkpt lat="40.1348226" lon="15.1963914"><ele>124.5</ele><time>2026-04-11T11:50:53.902Z</time></trkpt><trkpt lat="40.1349421" lon="15.1963029"><ele>126.0</ele><time>2026-04-11T11:50:54.889Z</time></trkpt><trkpt lat="40.1350359" lon="15.1962192"><ele>126.0</ele><time>2026-04-11T11:50:55.888Z</time></trkpt><trkpt lat="40.1351199" lon="15.1961707"><ele>126.0</ele><time>2026-04-11T11:50:56.885Z</time></trkpt><trkpt lat="40.1351956" lon="15.196162"><ele>126.0</ele><time>2026-04-11T11:50:57.893Z</time></trkpt><trkpt lat="40.1352646" lon="15.1962004"><ele>126.0</ele><time>2026-04-11T11:50:58.898Z</time></trkpt><trkpt lat="40.1353026" lon="15.1962865"><ele>126.0</ele><time>2026-04-11T11:50:59.901Z</time></trkpt><trkpt lat="40.1353086" lon="15.1964038"><ele>126.0</ele><time>2026-04-11T11:51:00.896Z</time></trkpt><trkpt lat="40.1352802" lon="15.1965328"><ele>121.0</ele><time>2026-04-11T11:51:01.896Z</time></trkpt><trkpt lat="40.1352106" lon="15.196664"><ele>116.0</ele><time>2026-04-11T11:51:02.892Z</time></trkpt><trkpt lat="40.1351054" lon="15.1968154"><ele>111.0</ele><time>2026-04-11T11:51:03.896Z</time></trkpt><trkpt lat="40.1350059" lon="15.1969717"><ele>106.0</ele><time>2026-04-11T11:51:04.898Z</time></trkpt><trkpt lat="40.1348911" lon="15.1971405"><ele>104.66666666666667</ele><time>2026-04-11T11:51:05.893Z</time></trkpt><trkpt lat="40.1347606" lon="15.1973065"><ele>103.33333333333334</ele><time>2026-04-11T11:51:06.888Z</time></trkpt><trkpt lat="40.1346381" lon="15.1974681"><ele>102.0</ele><time>2026-04-11T11:51:07.898Z</time></trkpt><trkpt lat="40.1345176" lon="15.1976281"><ele>99.25</ele><time>2026-04-11T11:51:08.899Z</time></trkpt><trkpt lat="40.1344099" lon="15.1977613"><ele>96.5</ele><time>2026-04-11T11:51:09.903Z</time></trkpt><trkpt lat="40.1343159" lon="15.19788"><ele>93.75</ele><time>2026-04-11T11:51:10.885Z</time></trkpt><trkpt lat="40.1342408" lon="15.1980023"><ele>91.0</ele><time>2026-04-11T11:51:11.89Z</time></trkpt><trkpt lat="40.1341859" lon="15.1981315"><ele>91.19999999999999</ele><time>2026-04-11T11:51:12.895Z</time></trkpt><trkpt lat="40.134163" lon="15.1982626"><ele>91.39999999999999</ele><time>2026-04-11T11:51:13.884Z</time></trkpt><trkpt lat="40.1341666" lon="15.1983952"><ele>91.6</ele><time>2026-04-11T11:51:14.889Z</time></trkpt><trkpt lat="40.1341934" lon="15.1985196"><ele>91.8</ele><time>2026-04-11T11:51:15.896Z</time></trkpt><trkpt lat="40.1342525" lon="15.1986184"><ele>92.0</ele><time>2026-04-11T11:51:16.912Z</time></trkpt><trkpt lat="40.1343495" lon="15.1986989"><ele>92.0</ele><time>2026-04-11T11:51:17.889Z</time></trkpt><trkpt lat="40.1344515" lon="15.1987554"><ele>92.0</ele><time>2026-04-11T11:51:18.903Z</time></trkpt><trkpt lat="40.1345299" lon="15.1988198"><ele>92.0</ele><time>2026-04-11T11:51:19.891Z</time></trkpt><trkpt lat="40.1345716" lon="15.1989061"><ele>92.0</ele><time>2026-04-11T11:51:20.893Z</time></trkpt><trkpt lat="40.1345708" lon="15.1990065"><ele>92.0</ele><time>2026-04-11T11:51:21.889Z</time></trkpt><trkpt lat="40.134521" lon="15.1990655"><ele>92.0</ele><time>2026-04-11T11:51:22.894Z</time></trkpt><trkpt lat="40.1344323" lon="15.1991068"><ele>92.0</ele><time>2026-04-11T11:51:23.883Z</time></trkpt><trkpt lat="40.1343177" lon="15.1991235"><ele>92.0</ele><time>2026-04-11T11:51:24.897Z</time></trkpt><trkpt lat="40.134201" lon="15.1991556"><ele>92.0</ele><time>2026-04-11T11:51:25.894Z</time></trkpt><trkpt lat="40.134098" lon="15.1992065"><ele>92.0</ele><time>2026-04-11T11:51:26.89Z</time></trkpt><trkpt lat="40.1340188" lon="15.1992843"><ele>92.0</ele><time>2026-04-11T11:51:27.898Z</time></trkpt><trkpt lat="40.1339729" lon="15.1994224"><ele>88.0</ele><time>2026-04-11T11:51:28.895Z</time></trkpt><trkpt lat="40.1339265" lon="15.1995762"><ele>84.0</ele><time>2026-04-11T11:51:29.908Z</time></trkpt><trkpt lat="40.1338481" lon="15.1997399"><ele>80.0</ele><time>2026-04-11T11:51:30.877Z</time></trkpt><trkpt lat="40.1337402" lon="15.1999003"><ele>76.0</ele><time>2026-04-11T11:51:31.886Z</time></trkpt><trkpt lat="40.1336331" lon="15.2000478"><ele>76.0</ele><time>2026-04-11T11:51:32.881Z</time></trkpt><trkpt lat="40.1335448" lon="15.2001848"><ele>76.0</ele><time>2026-04-11T11:51:33.872Z</time></trkpt><trkpt lat="40.1334627" lon="15.2003087"><ele>76.0</ele><time>2026-04-11T11:51:34.872Z</time></trkpt><trkpt lat="40.1333686" lon="15.2004102"><ele>76.0</ele><time>2026-04-11T11:51:35.883Z</time></trkpt><trkpt lat="40.1332479" lon="15.2004927"><ele>76.33333333333333</ele><time>2026-04-11T11:51:36.883Z</time></trkpt><trkpt lat="40.1331053" lon="15.2005587"><ele>76.66666666666667</ele><time>2026-04-11T11:51:37.894Z</time></trkpt><trkpt lat="40.1329476" lon="15.2006234"><ele>77.0</ele><time>2026-04-11T11:51:38.903Z</time></trkpt><trkpt lat="40.1327921" lon="15.2006906"><ele>77.0</ele><time>2026-04-11T11:51:39.883Z</time></trkpt><trkpt lat="40.1326541" lon="15.2007516"><ele>77.0</ele><time>2026-04-11T11:51:40.883Z</time></trkpt><trkpt lat="40.1325351" lon="15.2008047"><ele>77.0</ele><time>2026-04-11T11:51:41.892Z</time></trkpt><trkpt lat="40.13244" lon="15.2008515"><ele>77.0</ele><time>2026-04-11T11:51:42.899Z</time></trkpt><trkpt lat="40.1323598" lon="15.2008822"><ele>84.16666666666667</ele><time>2026-04-11T11:51:43.904Z</time></trkpt><trkpt lat="40.1322877" lon="15.2008656"><ele>91.33333333333334</ele><time>2026-04-11T11:51:44.902Z</time></trkpt><trkpt lat="40.13223" lon="15.2008004"><ele>98.5</ele><time>2026-04-11T11:51:45.889Z</time></trkpt><trkpt lat="40.1321959" lon="15.2007069"><ele>105.66666666666667</ele><time>2026-04-11T11:51:46.888Z</time></trkpt><trkpt lat="40.1321781" lon="15.2005803"><ele>112.83333333333333</ele><time>2026-04-11T11:51:47.893Z</time></trkpt><trkpt lat="40.1321676" lon="15.2004356"><ele>120.0</ele><time>2026-04-11T11:51:48.89Z</time></trkpt><trkpt lat="40.1321722" lon="15.2002884"><ele>122.0</ele><time>2026-04-11T11:51:49.896Z</time></trkpt><trkpt lat="40.1322019" lon="15.2001405"><ele>124.0</ele><time>2026-04-11T11:51:50.895Z</time></trkpt><trkpt lat="40.132263" lon="15.1999953"><ele>126.0</ele><time>2026-04-11T11:51:51.9Z</time></trkpt><trkpt lat="40.1323429" lon="15.1998404"><ele>128.0</ele><time>2026-04-11T11:51:52.89Z</time></trkpt><trkpt lat="40.1324308" lon="15.1996647"><ele>117.0</ele><time>2026-04-11T11:51:53.891Z</time></trkpt><trkpt lat="40.1325228" lon="15.1994707"><ele>106.0</ele><time>2026-04-11T11:51:54.889Z</time></trkpt><trkpt lat="40.1326088" lon="15.1992965"><ele>95.0</ele><time>2026-04-11T11:51:55.895Z</time></trkpt><trkpt lat="40.1326767" lon="15.1991676"><ele>95.0</ele><time>2026-04-11T11:51:56.89Z</time></trkpt><trkpt lat="40.1327237" lon="15.1990471"><ele>95.0</ele><time>2026-04-11T11:51:57.905Z</time></trkpt><trkpt lat="40.132735" lon="15.1989377"><ele>95.0</ele><time>2026-04-11T11:51:58.9Z</time></trkpt><trkpt lat="40.1326989" lon="15.1988364"><ele>95.0</ele><time>2026-04-11T11:51:59.887Z</time></trkpt><trkpt lat="40.1326349" lon="15.1987536"><ele>95.0</ele><time>2026-04-11T11:52:00.889Z</time></trkpt><trkpt lat="40.1325449" lon="15.1986993"><ele>95.75</ele><time>2026-04-11T11:52:01.897Z</time></trkpt><trkpt lat="40.1324304" lon="15.1986707"><ele>96.5</ele><time>2026-04-11T11:52:02.889Z</time></trkpt><trkpt lat="40.1322969" lon="15.1986631"><ele>97.25</ele><time>2026-04-11T11:52:03.904Z</time></trkpt><trkpt lat="40.1321417" lon="15.1986608"><ele>98.0</ele><time>2026-04-11T11:52:04.899Z</time></trkpt><trkpt lat="40.1319782" lon="15.1986483"><ele>98.0</ele><time>2026-04-11T11:52:05.904Z</time></trkpt><trkpt lat="40.131823" lon="15.1986432"><ele>98.0</ele><time>2026-04-11T11:52:06.904Z</time></trkpt><trkpt lat="40.1316899" lon="15.1986446"><ele>98.0</ele><time>2026-04-11T11:52:07.891Z</time></trkpt><trkpt lat="40.1315706" lon="15.198634"><ele>98.0</ele><time>2026-04-11T11:52:08.891Z</time></trkpt><trkpt lat="40.1314396" lon="15.1986018"><ele>105.66666666666666</ele><time>2026-04-11T11:52:09.906Z</time></trkpt><trkpt lat="40.1313096" lon="15.1985258"><ele>113.33333333333334</ele><time>2026-04-11T11:52:10.896Z</time></trkpt><trkpt lat="40.1311745" lon="15.1984245"><ele>121.0</ele><time>2026-04-11T11:52:11.901Z</time></trkpt><trkpt lat="40.1310325" lon="15.1983182"><ele>121.0</ele><time>2026-04-11T11:52:12.893Z</time></trkpt><trkpt lat="40.1308948" lon="15.1982196"><ele>121.0</ele><time>2026-04-11T11:52:13.913Z</time></trkpt><trkpt lat="40.1307628" lon="15.198134"><ele>121.0</ele><time>2026-04-11T11:52:14.897Z</time></trkpt><trkpt lat="40.1306202" lon="15.1980629"><ele>114.66666666666667</ele><time>2026-04-11T11:52:15.902Z</time></trkpt><trkpt lat="40.1304658" lon="15.1980228"><ele>108.33333333333334</ele><time>2026-04-11T11:52:16.898Z</time></trkpt><trkpt lat="40.130302" lon="15.1980218"><ele>102.0</ele><time>2026-04-11T11:52:17.885Z</time></trkpt><trkpt lat="40.1301526" lon="15.1980142"><ele>102.0</ele><time>2026-04-11T11:52:18.902Z</time></trkpt><trkpt lat="40.1300224" lon="15.1980077"><ele>102.0</ele><time>2026-04-11T11:52:19.9Z</time></trkpt><trkpt lat="40.1299074" lon="15.1979924"><ele>102.0</ele><time>2026-04-11T11:52:20.891Z</time></trkpt><trkpt lat="40.1298114" lon="15.1979802"><ele>102.0</ele><time>2026-04-11T11:52:21.897Z</time></trkpt><trkpt lat="40.1297387" lon="15.1979708"><ele>102.0</ele><time>2026-04-11T11:52:22.896Z</time></trkpt><trkpt lat="40.1296749" lon="15.1979559"><ele>107.19999999999999</ele><time>2026-04-11T11:52:23.887Z</time></trkpt><trkpt lat="40.1296138" lon="15.1979207"><ele>112.4</ele><time>2026-04-11T11:52:24.894Z</time></trkpt><trkpt lat="40.1295464" lon="15.1978616"><ele>117.60000000000001</ele><time>2026-04-11T11:52:25.91Z</time></trkpt><trkpt lat="40.1294753" lon="15.1977772"><ele>122.80000000000001</ele><time>2026-04-11T11:52:26.909Z</time></trkpt><trkpt lat="40.1294043" lon="15.1976678"><ele>128.0</ele><time>2026-04-11T11:52:27.894Z</time></trkpt><trkpt lat="40.1293212" lon="15.1975712"><ele>128.0</ele><time>2026-04-11T11:52:28.902Z</time></trkpt><trkpt lat="40.1292387" lon="15.1974942"><ele>128.0</ele><time>2026-04-11T11:52:29.901Z</time></trkpt><trkpt lat="40.1291782" lon="15.1973955"><ele>128.0</ele><time>2026-04-11T11:52:30.894Z</time></trkpt><trkpt lat="40.1291296" lon="15.1972817"><ele>128.0</ele><time>2026-04-11T11:52:31.885Z</time></trkpt><trkpt lat="40.1290967" lon="15.1971481"><ele>128.0</ele><time>2026-04-11T11:52:32.902Z</time></trkpt><trkpt lat="40.1290744" lon="15.1970087"><ele>127.60000000000001</ele><time>2026-04-11T11:52:33.9Z</time></trkpt><trkpt lat="40.1290451" lon="15.1968686"><ele>127.20000000000002</ele><time>2026-04-11T11:52:34.91Z</time></trkpt><trkpt lat="40.1290138" lon="15.1967536"><ele>126.8</ele><time>2026-04-11T11:52:35.899Z</time></trkpt><trkpt lat="40.1289716" lon="15.1966445"><ele>126.4</ele><time>2026-04-11T11:52:36.888Z</time></trkpt><trkpt lat="40.1289092" lon="15.1965568"><ele>126.0</ele><time>2026-04-11T11:52:37.896Z</time></trkpt><trkpt lat="40.1288323" lon="15.1964912"><ele>126.0</ele><time>2026-04-11T11:52:38.912Z</time></trkpt><trkpt lat="40.1287478" lon="15.1964621"><ele>126.0</ele><time>2026-04-11T11:52:39.91Z</time></trkpt><trkpt lat="40.1286551" lon="15.1964571"><ele>126.0</ele><time>2026-04-11T11:52:40.901Z</time></trkpt><trkpt lat="40.1285506" lon="15.1964714"><ele>126.0</ele><time>2026-04-11T11:52:41.899Z</time></trkpt><trkpt lat="40.1284462" lon="15.196492"><ele>126.0</ele><time>2026-04-11T11:52:42.905Z</time></trkpt><trkpt lat="40.1283424" lon="15.1965133"><ele>126.0</ele><time>2026-04-11T11:52:43.901Z</time></trkpt><trkpt lat="40.1282396" lon="15.1965212"><ele>126.0</ele><time>2026-04-11T11:52:44.902Z</time></trkpt><trkpt lat="40.1281355" lon="15.1965407"><ele>126.0</ele><time>2026-04-11T11:52:45.894Z</time></trkpt><trkpt lat="40.1280388" lon="15.1965542"><ele>126.0</ele><time>2026-04-11T11:52:46.908Z</time></trkpt><trkpt lat="40.1279419" lon="15.196547"><ele>126.0</ele><time>2026-04-11T11:52:47.902Z</time></trkpt><trkpt lat="40.1278488" lon="15.1965112"><ele>121.4</ele><time>2026-04-11T11:52:48.905Z</time></trkpt><trkpt lat="40.1277714" lon="15.1964428"><ele>116.8</ele><time>2026-04-11T11:52:49.896Z</time></trkpt><trkpt lat="40.1277038" lon="15.1963654"><ele>112.2</ele><time>2026-04-11T11:52:50.898Z</time></trkpt><trkpt lat="40.1276392" lon="15.1962831"><ele>107.60000000000001</ele><time>2026-04-11T11:52:51.894Z</time></trkpt><trkpt lat="40.1275719" lon="15.1961901"><ele>103.0</ele><time>2026-04-11T11:52:52.905Z</time></trkpt><trkpt lat="40.1274885" lon="15.1961093"><ele>103.00000000000001</ele><time>2026-04-11T11:52:53.896Z</time></trkpt><trkpt lat="40.1274147" lon="15.1960585"><ele>103.0</ele><time>2026-04-11T11:52:54.905Z</time></trkpt><trkpt lat="40.1273439" lon="15.1960372"><ele>103.0</ele><time>2026-04-11T11:52:55.899Z</time></trkpt><trkpt lat="40.1272698" lon="15.1960528"><ele>103.0</ele><time>2026-04-11T11:52:56.897Z</time></trkpt><trkpt lat="40.1271926" lon="15.1960895"><ele>103.00000000000001</ele><time>2026-04-11T11:52:57.898Z</time></trkpt><trkpt lat="40.1271063" lon="15.1961513"><ele>103.0</ele><time>2026-04-11T11:52:58.895Z</time></trkpt><trkpt lat="40.1270295" lon="15.1962359"><ele>102.50000000000001</ele><time>2026-04-11T11:52:59.909Z</time></trkpt><trkpt lat="40.1269638" lon="15.1963252"><ele>102.0</ele><time>2026-04-11T11:53:00.9Z</time></trkpt><trkpt lat="40.1269264" lon="15.1964116"><ele>101.5</ele><time>2026-04-11T11:53:01.896Z</time></trkpt><trkpt lat="40.1269014" lon="15.196502"><ele>101.0</ele><time>2026-04-11T11:53:02.902Z</time></trkpt><trkpt lat="40.1268874" lon="15.1965989"><ele>100.50000000000001</ele><time>2026-04-11T11:53:03.893Z</time></trkpt><trkpt lat="40.1268811" lon="15.1966878"><ele>100.0</ele><time>2026-04-11T11:53:04.894Z</time></trkpt><trkpt lat="40.1268797" lon="15.1967779"><ele>104.83333333333334</ele><time>2026-04-11T11:53:05.905Z</time></trkpt><trkpt lat="40.1268892" lon="15.1968831"><ele>109.66666666666667</ele><time>2026-04-11T11:53:06.907Z</time></trkpt><trkpt lat="40.1269053" lon="15.1970001"><ele>114.5</ele><time>2026-04-11T11:53:07.901Z</time></trkpt><trkpt lat="40.1269202" lon="15.1971212"><ele>119.33333333333334</ele><time>2026-04-11T11:53:08.906Z</time></trkpt><trkpt lat="40.1269346" lon="15.1972376"><ele>124.16666666666667</ele><time>2026-04-11T11:53:09.905Z</time></trkpt><trkpt lat="40.1269466" lon="15.1973536"><ele>129.0</ele><time>2026-04-11T11:53:10.905Z</time></trkpt><trkpt lat="40.1269515" lon="15.1974858"><ele>130.75</ele><time>2026-04-11T11:53:11.912Z</time></trkpt><trkpt lat="40.1269575" lon="15.1976289"><ele>132.5</ele><time>2026-04-11T11:53:12.906Z</time></trkpt><trkpt lat="40.1269691" lon="15.197772"><ele>134.25</ele><time>2026-04-11T11:53:13.918Z</time></trkpt><trkpt lat="40.1269819" lon="15.1979279"><ele>136.0</ele><time>2026-04-11T11:53:14.901Z</time></trkpt><trkpt lat="40.1269912" lon="15.1980913"><ele>135.75</ele><time>2026-04-11T11:53:15.897Z</time></trkpt><trkpt lat="40.1270002" lon="15.1982573"><ele>135.5</ele><time>2026-04-11T11:53:16.902Z</time></trkpt><trkpt lat="40.1270137" lon="15.1984158"><ele>135.25</ele><time>2026-04-11T11:53:17.895Z</time></trkpt><trkpt lat="40.1270259" lon="15.1985687"><ele>135.0</ele><time>2026-04-11T11:53:18.903Z</time></trkpt><trkpt lat="40.1270384" lon="15.1987303"><ele>135.0</ele><time>2026-04-11T11:53:19.897Z</time></trkpt><trkpt lat="40.1270494" lon="15.1989049"><ele>135.0</ele><time>2026-04-11T11:53:20.904Z</time></trkpt><trkpt lat="40.1270625" lon="15.1991017"><ele>135.0</ele><time>2026-04-11T11:53:21.9Z</time></trkpt><trkpt lat="40.1270666" lon="15.1993069"><ele>135.0</ele><time>2026-04-11T11:53:22.899Z</time></trkpt><trkpt lat="40.1270622" lon="15.199512"><ele>134.66666666666666</ele><time>2026-04-11T11:53:23.902Z</time></trkpt><trkpt lat="40.1270534" lon="15.1997209"><ele>134.33333333333331</ele><time>2026-04-11T11:53:24.9Z</time></trkpt><trkpt lat="40.1270523" lon="15.1999152"><ele>134.0</ele><time>2026-04-11T11:53:25.902Z</time></trkpt><trkpt lat="40.1270485" lon="15.2001006"><ele>135.25</ele><time>2026-04-11T11:53:26.894Z</time></trkpt><trkpt lat="40.1270399" lon="15.2002894"><ele>136.5</ele><time>2026-04-11T11:53:27.899Z</time></trkpt><trkpt lat="40.1270326" lon="15.2004845"><ele>137.75</ele><time>2026-04-11T11:53:28.898Z</time></trkpt><trkpt lat="40.1270259" lon="15.2006831"><ele>139.0</ele><time>2026-04-11T11:53:29.898Z</time></trkpt><trkpt lat="40.1270203" lon="15.2008924"><ele>140.66666666666669</ele><time>2026-04-11T11:53:30.894Z</time></trkpt><trkpt lat="40.1270198" lon="15.2011025"><ele>142.33333333333334</ele><time>2026-04-11T11:53:31.895Z</time></trkpt><trkpt lat="40.1270249" lon="15.2013168"><ele>144.0</ele><time>2026-04-11T11:53:32.898Z</time></trkpt><trkpt lat="40.1270314" lon="15.2015187"><ele>144.0</ele><time>2026-04-11T11:53:33.896Z</time></trkpt><trkpt lat="40.127045" lon="15.201708"><ele>144.0</ele><time>2026-04-11T11:53:34.886Z</time></trkpt><trkpt lat="40.1270473" lon="15.2018998"><ele>144.0</ele><time>2026-04-11T11:53:35.893Z</time></trkpt><trkpt lat="40.1270328" lon="15.2021027"><ele>144.0</ele><time>2026-04-11T11:53:36.901Z</time></trkpt><trkpt lat="40.1270048" lon="15.2022995"><ele>145.25</ele><time>2026-04-11T11:53:37.894Z</time></trkpt><trkpt lat="40.1269703" lon="15.2024801"><ele>146.5</ele><time>2026-04-11T11:53:38.894Z</time></trkpt><trkpt lat="40.1269501" lon="15.2026436"><ele>147.75</ele><time>2026-04-11T11:53:39.904Z</time></trkpt><trkpt lat="40.1269463" lon="15.20282"><ele>149.0</ele><time>2026-04-11T11:53:40.896Z</time></trkpt><trkpt lat="40.1269697" lon="15.2030045"><ele>148.25</ele><time>2026-04-11T11:53:41.897Z</time></trkpt><trkpt lat="40.1270156" lon="15.203174"><ele>147.5</ele><time>2026-04-11T11:53:42.904Z</time></trkpt><trkpt lat="40.1270624" lon="15.2033404"><ele>146.75</ele><time>2026-04-11T11:53:43.894Z</time></trkpt><trkpt lat="40.1270891" lon="15.203514"><ele>146.0</ele><time>2026-04-11T11:53:44.9Z</time></trkpt><trkpt lat="40.1270858" lon="15.2037035"><ele>146.0</ele><time>2026-04-11T11:53:45.894Z</time></trkpt><trkpt lat="40.1270663" lon="15.2039054"><ele>146.0</ele><time>2026-04-11T11:53:46.9Z</time></trkpt><trkpt lat="40.1270332" lon="15.2041049"><ele>146.0</ele><time>2026-04-11T11:53:47.908Z</time></trkpt><trkpt lat="40.1270057" lon="15.2042839"><ele>146.25</ele><time>2026-04-11T11:53:48.901Z</time></trkpt><trkpt lat="40.1269892" lon="15.2044477"><ele>146.5</ele><time>2026-04-11T11:53:49.889Z</time></trkpt><trkpt lat="40.1269909" lon="15.2046282"><ele>146.75</ele><time>2026-04-11T11:53:50.889Z</time></trkpt><trkpt lat="40.1270111" lon="15.2048155"><ele>147.0</ele><time>2026-04-11T11:53:51.9Z</time></trkpt><trkpt lat="40.1270349" lon="15.2049889"><ele>148.5</ele><time>2026-04-11T11:53:52.9Z</time></trkpt><trkpt lat="40.1270488" lon="15.2051429"><ele>150.0</ele><time>2026-04-11T11:53:53.906Z</time></trkpt><trkpt lat="40.1270534" lon="15.2053074"><ele>151.5</ele><time>2026-04-11T11:53:54.887Z</time></trkpt><trkpt lat="40.1270447" lon="15.2054942"><ele>153.0</ele><time>2026-04-11T11:53:55.889Z</time></trkpt><trkpt lat="40.1270132" lon="15.2057014"><ele>153.0</ele><time>2026-04-11T11:53:56.895Z</time></trkpt><trkpt lat="40.1269834" lon="15.205926"><ele>153.0</ele><time>2026-04-11T11:53:57.897Z</time></trkpt><trkpt lat="40.1269558" lon="15.2061601"><ele>153.0</ele><time>2026-04-11T11:53:58.896Z</time></trkpt><trkpt lat="40.1269257" lon="15.206402"><ele>156.0</ele><time>2026-04-11T11:53:59.885Z</time></trkpt><trkpt lat="40.1268905" lon="15.2066289"><ele>159.0</ele><time>2026-04-11T11:54:00.894Z</time></trkpt><trkpt lat="40.1268635" lon="15.2068325"><ele>162.0</ele><time>2026-04-11T11:54:01.894Z</time></trkpt><trkpt lat="40.1268322" lon="15.2070167"><ele>162.0</ele><time>2026-04-11T11:54:02.891Z</time></trkpt><trkpt lat="40.1267739" lon="15.2071917"><ele>162.0</ele><time>2026-04-11T11:54:03.89Z</time></trkpt><trkpt lat="40.1267071" lon="15.2073847"><ele>162.0</ele><time>2026-04-11T11:54:04.898Z</time></trkpt><trkpt lat="40.1266325" lon="15.2075647"><ele>166.0</ele><time>2026-04-11T11:54:05.892Z</time></trkpt><trkpt lat="40.1265656" lon="15.2077276"><ele>170.0</ele><time>2026-04-11T11:54:06.906Z</time></trkpt><trkpt lat="40.1264979" lon="15.2078747"><ele>174.0</ele><time>2026-04-11T11:54:07.893Z</time></trkpt><trkpt lat="40.12641" lon="15.2080068"><ele>178.0</ele><time>2026-04-11T11:54:08.902Z</time></trkpt><trkpt lat="40.1263028" lon="15.2081266"><ele>172.75</ele><time>2026-04-11T11:54:09.887Z</time></trkpt><trkpt lat="40.1261875" lon="15.2082304"><ele>167.5</ele><time>2026-04-11T11:54:10.895Z</time></trkpt><trkpt lat="40.1260912" lon="15.2083372"><ele>162.25</ele><time>2026-04-11T11:54:11.895Z</time></trkpt><trkpt lat="40.1260225" lon="15.2084767"><ele>157.0</ele><time>2026-04-11T11:54:12.898Z</time></trkpt><trkpt lat="40.1259733" lon="15.2086383"><ele>157.0</ele><time>2026-04-11T11:54:13.895Z</time></trkpt><trkpt lat="40.1259338" lon="15.2088329"><ele>157.0</ele><time>2026-04-11T11:54:14.898Z</time></trkpt><trkpt lat="40.1259064" lon="15.2090659"><ele>157.0</ele><time>2026-04-11T11:54:15.908Z</time></trkpt><trkpt lat="40.1258704" lon="15.2093266"><ele>162.66666666666669</ele><time>2026-04-11T11:54:16.906Z</time></trkpt><trkpt lat="40.1258341" lon="15.2095976"><ele>168.33333333333334</ele><time>2026-04-11T11:54:17.9Z</time></trkpt><trkpt lat="40.1257964" lon="15.2098488"><ele>174.0</ele><time>2026-04-11T11:54:18.897Z</time></trkpt><trkpt lat="40.1257516" lon="15.2100649"><ele>169.0</ele><time>2026-04-11T11:54:19.89Z</time></trkpt><trkpt lat="40.1257052" lon="15.210261"><ele>164.0</ele><time>2026-04-11T11:54:20.892Z</time></trkpt><trkpt lat="40.1256602" lon="15.2104425"><ele>159.0</ele><time>2026-04-11T11:54:21.884Z</time></trkpt><trkpt lat="40.1256143" lon="15.2106075"><ele>154.0</ele><time>2026-04-11T11:54:22.918Z</time></trkpt><trkpt lat="40.1255557" lon="15.2107761"><ele>154.0</ele><time>2026-04-11T11:54:23.896Z</time></trkpt><trkpt lat="40.1254776" lon="15.2109597"><ele>154.0</ele><time>2026-04-11T11:54:24.895Z</time></trkpt><trkpt lat="40.1253785" lon="15.2111486"><ele>154.0</ele><time>2026-04-11T11:54:25.887Z</time></trkpt><trkpt lat="40.1252615" lon="15.2113367"><ele>162.0</ele><time>2026-04-11T11:54:26.892Z</time></trkpt><trkpt lat="40.1251517" lon="15.2115085"><ele>170.0</ele><time>2026-04-11T11:54:27.885Z</time></trkpt><trkpt lat="40.1250501" lon="15.2116655"><ele>178.0</ele><time>2026-04-11T11:54:28.902Z</time></trkpt><trkpt lat="40.1249664" lon="15.2118079"><ele>178.0</ele><time>2026-04-11T11:54:29.897Z</time></trkpt><trkpt lat="40.1248987" lon="15.2119281"><ele>178.0</ele><time>2026-04-11T11:54:30.891Z</time></trkpt><trkpt lat="40.1248391" lon="15.2120266"><ele>178.0</ele><time>2026-04-11T11:54:31.89Z</time></trkpt><trkpt lat="40.1248146" lon="15.2121325"><ele>178.0</ele><time>2026-04-11T11:54:32.891Z</time></trkpt><trkpt lat="40.1248065" lon="15.2122457"><ele>178.0</ele><time>2026-04-11T11:54:33.903Z</time></trkpt><trkpt lat="40.1248019" lon="15.2123695"><ele>177.0</ele><time>2026-04-11T11:54:34.887Z</time></trkpt><trkpt lat="40.1248037" lon="15.2124875"><ele>176.0</ele><time>2026-04-11T11:54:35.893Z</time></trkpt><trkpt lat="40.1248072" lon="15.2125979"><ele>175.0</ele><time>2026-04-11T11:54:36.888Z</time></trkpt><trkpt lat="40.1248065" lon="15.2127006"><ele>174.0</ele><time>2026-04-11T11:54:37.895Z</time></trkpt><trkpt lat="40.124798" lon="15.2127911"><ele>173.0</ele><time>2026-04-11T11:54:38.896Z</time></trkpt><trkpt lat="40.1247759" lon="15.212946"><ele>172.0</ele><time>2026-04-11T11:54:40.904Z</time></trkpt><trkpt lat="40.1247557" lon="15.2130424"><ele>174.0</ele><time>2026-04-11T11:54:41.891Z</time></trkpt><trkpt lat="40.1247273" lon="15.2131578"><ele>176.0</ele><time>2026-04-11T11:54:42.897Z</time></trkpt><trkpt lat="40.1246877" lon="15.2132732"><ele>178.0</ele><time>2026-04-11T11:54:43.905Z</time></trkpt><trkpt lat="40.1246345" lon="15.2133803"><ele>180.0</ele><time>2026-04-11T11:54:44.906Z</time></trkpt><trkpt lat="40.1245754" lon="15.2134587"><ele>182.0</ele><time>2026-04-11T11:54:45.9Z</time></trkpt><trkpt lat="40.1245123" lon="15.2134999"><ele>184.0</ele><time>2026-04-11T11:54:46.899Z</time></trkpt><trkpt lat="40.1244364" lon="15.2135203"><ele>184.0</ele><time>2026-04-11T11:54:47.89Z</time></trkpt><trkpt lat="40.1243457" lon="15.2134983"><ele>184.0</ele><time>2026-04-11T11:54:48.89Z</time></trkpt><trkpt lat="40.1242335" lon="15.213448"><ele>184.0</ele><time>2026-04-11T11:54:49.895Z</time></trkpt><trkpt lat="40.1241139" lon="15.2133691"><ele>184.0</ele><time>2026-04-11T11:54:50.889Z</time></trkpt><trkpt lat="40.1239988" lon="15.2133055"><ele>182.5</ele><time>2026-04-11T11:54:51.898Z</time></trkpt><trkpt lat="40.1239174" lon="15.2132416"><ele>181.0</ele><time>2026-04-11T11:54:52.914Z</time></trkpt><trkpt lat="40.1238497" lon="15.2131856"><ele>179.5</ele><time>2026-04-11T11:54:53.897Z</time></trkpt><trkpt lat="40.1237884" lon="15.2131393"><ele>178.0</ele><time>2026-04-11T11:54:54.895Z</time></trkpt><trkpt lat="40.1237272" lon="15.2131021"><ele>176.5</ele><time>2026-04-11T11:54:55.894Z</time></trkpt><trkpt lat="40.1236596" lon="15.2130799"><ele>175.0</ele><time>2026-04-11T11:54:56.904Z</time></trkpt><trkpt lat="40.1235837" lon="15.2130663"><ele>175.0</ele><time>2026-04-11T11:54:57.898Z</time></trkpt><trkpt lat="40.123514" lon="15.2130844"><ele>175.0</ele><time>2026-04-11T11:54:58.892Z</time></trkpt><trkpt lat="40.1234516" lon="15.2131303"><ele>175.0</ele><time>2026-04-11T11:54:59.895Z</time></trkpt><trkpt lat="40.1233856" lon="15.2131859"><ele>175.0</ele><time>2026-04-11T11:55:00.898Z</time></trkpt><trkpt lat="40.1232991" lon="15.2132553"><ele>175.0</ele><time>2026-04-11T11:55:01.893Z</time></trkpt><trkpt lat="40.123197" lon="15.2133237"><ele>175.0</ele><time>2026-04-11T11:55:02.904Z</time></trkpt><trkpt lat="40.1231007" lon="15.2134055"><ele>170.6</ele><time>2026-04-11T11:55:03.894Z</time></trkpt><trkpt lat="40.123005" lon="15.2134969"><ele>166.2</ele><time>2026-04-11T11:55:04.909Z</time></trkpt><trkpt lat="40.1229153" lon="15.2135711"><ele>161.8</ele><time>2026-04-11T11:55:05.896Z</time></trkpt><trkpt lat="40.1228427" lon="15.2136414"><ele>157.4</ele><time>2026-04-11T11:55:06.902Z</time></trkpt><trkpt lat="40.1227826" lon="15.2137279"><ele>153.0</ele><time>2026-04-11T11:55:07.903Z</time></trkpt><trkpt lat="40.1227384" lon="15.2138275"><ele>153.0</ele><time>2026-04-11T11:55:08.911Z</time></trkpt><trkpt lat="40.1227078" lon="15.2139232"><ele>153.0</ele><time>2026-04-11T11:55:09.897Z</time></trkpt><trkpt lat="40.1226821" lon="15.2140134"><ele>153.0</ele><time>2026-04-11T11:55:10.901Z</time></trkpt><trkpt lat="40.1226464" lon="15.2140861"><ele>153.0</ele><time>2026-04-11T11:55:11.9Z</time></trkpt><trkpt lat="40.1225899" lon="15.2141272"><ele>153.0</ele><time>2026-04-11T11:55:12.904Z</time></trkpt><trkpt lat="40.1224624" lon="15.2141336"><ele>153.0</ele><time>2026-04-11T11:55:14.906Z</time></trkpt><trkpt lat="40.1223994" lon="15.2141475"><ele>150.4</ele><time>2026-04-11T11:55:15.901Z</time></trkpt><trkpt lat="40.1223382" lon="15.2142068"><ele>147.8</ele><time>2026-04-11T11:55:16.899Z</time></trkpt><trkpt lat="40.1222714" lon="15.214305"><ele>145.2</ele><time>2026-04-11T11:55:17.888Z</time></trkpt><trkpt lat="40.1221927" lon="15.2144142"><ele>142.6</ele><time>2026-04-11T11:55:18.904Z</time></trkpt><trkpt lat="40.1221146" lon="15.2145348"><ele>140.0</ele><time>2026-04-11T11:55:19.899Z</time></trkpt><trkpt lat="40.1220447" lon="15.2146454"><ele>140.0</ele><time>2026-04-11T11:55:20.903Z</time></trkpt><trkpt lat="40.1219701" lon="15.2147362"><ele>140.0</ele><time>2026-04-11T11:55:21.897Z</time></trkpt><trkpt lat="40.1218886" lon="15.2148135"><ele>140.0</ele><time>2026-04-11T11:55:22.898Z</time></trkpt><trkpt lat="40.1218009" lon="15.214885"><ele>140.0</ele><time>2026-04-11T11:55:23.904Z</time></trkpt><trkpt lat="40.1216999" lon="15.2149628"><ele>140.0</ele><time>2026-04-11T11:55:24.907Z</time></trkpt><trkpt lat="40.1216076" lon="15.2150598"><ele>137.2</ele><time>2026-04-11T11:55:25.899Z</time></trkpt><trkpt lat="40.1215243" lon="15.2151605"><ele>134.4</ele><time>2026-04-11T11:55:26.903Z</time></trkpt><trkpt lat="40.1214439" lon="15.2152488"><ele>131.6</ele><time>2026-04-11T11:55:27.898Z</time></trkpt><trkpt lat="40.1213673" lon="15.2153137"><ele>128.8</ele><time>2026-04-11T11:55:28.909Z</time></trkpt><trkpt lat="40.1212908" lon="15.2153785"><ele>126.0</ele><time>2026-04-11T11:55:29.9Z</time></trkpt><trkpt lat="40.1212015" lon="15.2154719"><ele>126.0</ele><time>2026-04-11T11:55:30.914Z</time></trkpt><trkpt lat="40.1211215" lon="15.2155894"><ele>126.0</ele><time>2026-04-11T11:55:31.89Z</time></trkpt><trkpt lat="40.1210454" lon="15.2157039"><ele>126.0</ele><time>2026-04-11T11:55:32.89Z</time></trkpt><trkpt lat="40.1209553" lon="15.2157955"><ele>126.0</ele><time>2026-04-11T11:55:33.897Z</time></trkpt><trkpt lat="40.1208521" lon="15.2158748"><ele>126.4</ele><time>2026-04-11T11:55:34.899Z</time></trkpt><trkpt lat="40.1207523" lon="15.2159515"><ele>126.8</ele><time>2026-04-11T11:55:35.896Z</time></trkpt><trkpt lat="40.120661" lon="15.216043"><ele>127.20000000000002</ele><time>2026-04-11T11:55:36.885Z</time></trkpt><trkpt lat="40.1205758" lon="15.2161442"><ele>127.60000000000001</ele><time>2026-04-11T11:55:37.904Z</time></trkpt><trkpt lat="40.1205033" lon="15.2162309"><ele>128.0</ele><time>2026-04-11T11:55:38.898Z</time></trkpt><trkpt lat="40.1204443" lon="15.2163074"><ele>127.99999999999999</ele><time>2026-04-11T11:55:39.895Z</time></trkpt><trkpt lat="40.120396" lon="15.2163671"><ele>128.0</ele><time>2026-04-11T11:55:40.906Z</time></trkpt><trkpt lat="40.1203032" lon="15.2164186"><ele>128.0</ele><time>2026-04-11T11:55:42.91Z</time></trkpt><trkpt lat="40.1202104" lon="15.2163139"><ele>128.0</ele><time>2026-04-11T11:55:44.897Z</time></trkpt><trkpt lat="40.1201711" lon="15.2162368"><ele>127.99999999999999</ele><time>2026-04-11T11:55:45.893Z</time></trkpt><trkpt lat="40.1201354" lon="15.2161675"><ele>128.0</ele><time>2026-04-11T11:55:46.9Z</time></trkpt><trkpt lat="40.1200804" lon="15.21609"><ele>128.0</ele><time>2026-04-11T11:55:48.901Z</time></trkpt><trkpt lat="40.1200024" lon="15.2161186"><ele>128.0</ele><time>2026-04-11T11:55:50.906Z</time></trkpt><trkpt lat="40.1199191" lon="15.216193"><ele>128.0</ele><time>2026-04-11T11:55:52.896Z</time></trkpt><trkpt lat="40.1198146" lon="15.2162225"><ele>128.0</ele><time>2026-04-11T11:55:54.908Z</time></trkpt><trkpt lat="40.1197207" lon="15.2161305"><ele>128.0</ele><time>2026-04-11T11:55:56.901Z</time></trkpt><trkpt lat="40.1196691" lon="15.2159816"><ele>125.66666666666666</ele><time>2026-04-11T11:55:58.911Z</time></trkpt><trkpt lat="40.1196669" lon="15.215898"><ele>123.33333333333333</ele><time>2026-04-11T11:55:59.908Z</time></trkpt><trkpt lat="40.1197075" lon="15.2157712"><ele>121.0</ele><time>2026-04-11T11:56:01.901Z</time></trkpt><trkpt lat="40.1197003" lon="15.2156851"><ele>118.66666666666666</ele><time>2026-04-11T11:56:03.886Z</time></trkpt><trkpt lat="40.1196326" lon="15.2156413"><ele>116.33333333333333</ele><time>2026-04-11T11:56:04.89Z</time></trkpt><trkpt lat="40.1195257" lon="15.2155864"><ele>114.0</ele><time>2026-04-11T11:56:05.902Z</time></trkpt><trkpt lat="40.1194358" lon="15.2155267"><ele>109.80000000000001</ele><time>2026-04-11T11:56:06.895Z</time></trkpt><trkpt lat="40.1193586" lon="15.2154926"><ele>105.60000000000001</ele><time>2026-04-11T11:56:07.894Z</time></trkpt><trkpt lat="40.1192835" lon="15.2154893"><ele>101.4</ele><time>2026-04-11T11:56:08.896Z</time></trkpt><trkpt lat="40.1191944" lon="15.2155341"><ele>97.2</ele><time>2026-04-11T11:56:09.894Z</time></trkpt><trkpt lat="40.1190955" lon="15.2155925"><ele>93.0</ele><time>2026-04-11T11:56:10.911Z</time></trkpt><trkpt lat="40.1189978" lon="15.2156346"><ele>91.2</ele><time>2026-04-11T11:56:11.892Z</time></trkpt><trkpt lat="40.1188932" lon="15.2156392"><ele>89.4</ele><time>2026-04-11T11:56:12.893Z</time></trkpt><trkpt lat="40.1187953" lon="15.2156166"><ele>87.60000000000001</ele><time>2026-04-11T11:56:13.898Z</time></trkpt><trkpt lat="40.1186944" lon="15.2155604"><ele>85.80000000000001</ele><time>2026-04-11T11:56:14.887Z</time></trkpt><trkpt lat="40.1185921" lon="15.2154879"><ele>84.0</ele><time>2026-04-11T11:56:15.888Z</time></trkpt><trkpt lat="40.118488" lon="15.2154275"><ele>84.0</ele><time>2026-04-11T11:56:16.899Z</time></trkpt><trkpt lat="40.11839" lon="15.2153907"><ele>84.0</ele><time>2026-04-11T11:56:17.897Z</time></trkpt><trkpt lat="40.1183043" lon="15.2153799"><ele>84.0</ele><time>2026-04-11T11:56:18.902Z</time></trkpt><trkpt lat="40.1182316" lon="15.2153901"><ele>84.0</ele><time>2026-04-11T11:56:19.894Z</time></trkpt><trkpt lat="40.1181532" lon="15.2154169"><ele>84.0</ele><time>2026-04-11T11:56:20.896Z</time></trkpt><trkpt lat="40.1180737" lon="15.2154676"><ele>84.0</ele><time>2026-04-11T11:56:21.905Z</time></trkpt><trkpt lat="40.118001" lon="15.2155388"><ele>85.0</ele><time>2026-04-11T11:56:22.899Z</time></trkpt><trkpt lat="40.1179576" lon="15.2156309"><ele>86.0</ele><time>2026-04-11T11:56:23.902Z</time></trkpt><trkpt lat="40.1179408" lon="15.2157268"><ele>87.0</ele><time>2026-04-11T11:56:24.889Z</time></trkpt><trkpt lat="40.1179343" lon="15.2158307"><ele>88.0</ele><time>2026-04-11T11:56:25.897Z</time></trkpt><trkpt lat="40.1178969" lon="15.2158983"><ele>89.0</ele><time>2026-04-11T11:56:26.895Z</time></trkpt><trkpt lat="40.1178112" lon="15.2159396"><ele>90.0</ele><time>2026-04-11T11:56:27.9Z</time></trkpt><trkpt lat="40.1177044" lon="15.2159541"><ele>90.0</ele><time>2026-04-11T11:56:28.893Z</time></trkpt><trkpt lat="40.1176006" lon="15.2159746"><ele>90.0</ele><time>2026-04-11T11:56:29.893Z</time></trkpt><trkpt lat="40.1175131" lon="15.2160112"><ele>90.0</ele><time>2026-04-11T11:56:30.891Z</time></trkpt><trkpt lat="40.1174279" lon="15.2160321"><ele>90.0</ele><time>2026-04-11T11:56:31.893Z</time></trkpt><trkpt lat="40.1173401" lon="15.2160386"><ele>90.0</ele><time>2026-04-11T11:56:32.907Z</time></trkpt><trkpt lat="40.1172478" lon="15.2160375"><ele>86.83333333333333</ele><time>2026-04-11T11:56:33.876Z</time></trkpt><trkpt lat="40.1171569" lon="15.2160347"><ele>83.66666666666667</ele><time>2026-04-11T11:56:34.894Z</time></trkpt><trkpt lat="40.1170674" lon="15.2160308"><ele>80.5</ele><time>2026-04-11T11:56:35.895Z</time></trkpt><trkpt lat="40.1169899" lon="15.2160253"><ele>77.33333333333334</ele><time>2026-04-11T11:56:36.9Z</time></trkpt><trkpt lat="40.116917" lon="15.2160065"><ele>74.16666666666667</ele><time>2026-04-11T11:56:37.89Z</time></trkpt><trkpt lat="40.1168551" lon="15.2159885"><ele>71.0</ele><time>2026-04-11T11:56:38.894Z</time></trkpt><trkpt lat="40.1167406" lon="15.2160142"><ele>71.0</ele><time>2026-04-11T11:56:40.902Z</time></trkpt><trkpt lat="40.1166849" lon="15.216177"><ele>71.0</ele><time>2026-04-11T11:56:42.898Z</time></trkpt><trkpt lat="40.1166603" lon="15.2163081"><ele>71.0</ele><time>2026-04-11T11:56:43.893Z</time></trkpt><trkpt lat="40.11663" lon="15.2164592"><ele>71.0</ele><time>2026-04-11T11:56:44.904Z</time></trkpt><trkpt lat="40.1165935" lon="15.2166079"><ele>68.39999999999999</ele><time>2026-04-11T11:56:45.901Z</time></trkpt><trkpt lat="40.1165647" lon="15.2167429"><ele>65.8</ele><time>2026-04-11T11:56:46.887Z</time></trkpt><trkpt lat="40.1165464" lon="15.2168559"><ele>63.199999999999996</ele><time>2026-04-11T11:56:47.901Z</time></trkpt><trkpt lat="40.1165227" lon="15.2169389"><ele>60.599999999999994</ele><time>2026-04-11T11:56:48.896Z</time></trkpt><trkpt lat="40.1164701" lon="15.2170619"><ele>58.0</ele><time>2026-04-11T11:56:50.907Z</time></trkpt><trkpt lat="40.1163424" lon="15.2170891"><ele>58.0</ele><time>2026-04-11T11:56:52.902Z</time></trkpt><trkpt lat="40.1162775" lon="15.2170524"><ele>58.0</ele><time>2026-04-11T11:56:53.895Z</time></trkpt><trkpt lat="40.1162035" lon="15.2170021"><ele>58.0</ele><time>2026-04-11T11:56:54.896Z</time></trkpt><trkpt lat="40.11611" lon="15.2169472"><ele>58.0</ele><time>2026-04-11T11:56:55.911Z</time></trkpt><trkpt lat="40.1160206" lon="15.2168863"><ele>58.0</ele><time>2026-04-11T11:56:56.9Z</time></trkpt><trkpt lat="40.1159473" lon="15.2167955"><ele>57.99999999999999</ele><time>2026-04-11T11:56:57.898Z</time></trkpt><trkpt lat="40.1158946" lon="15.2167006"><ele>58.0</ele><time>2026-04-11T11:56:58.908Z</time></trkpt><trkpt lat="40.1158625" lon="15.2165943"><ele>58.0</ele><time>2026-04-11T11:56:59.896Z</time></trkpt><trkpt lat="40.1158487" lon="15.2164797"><ele>58.0</ele><time>2026-04-11T11:57:00.9Z</time></trkpt><trkpt lat="40.1158302" lon="15.2163615"><ele>57.99999999999999</ele><time>2026-04-11T11:57:01.899Z</time></trkpt><trkpt lat="40.1158093" lon="15.2162569"><ele>58.0</ele><time>2026-04-11T11:57:02.907Z</time></trkpt><trkpt lat="40.1157868" lon="15.2161582"><ele>54.4</ele><time>2026-04-11T11:57:03.897Z</time></trkpt><trkpt lat="40.1157341" lon="15.2160351"><ele>50.8</ele><time>2026-04-11T11:57:05.891Z</time></trkpt><trkpt lat="40.1156349" lon="15.2159898"><ele>47.2</ele><time>2026-04-11T11:57:07.899Z</time></trkpt><trkpt lat="40.1155654" lon="15.216001"><ele>43.6</ele><time>2026-04-11T11:57:08.904Z</time></trkpt><trkpt lat="40.1154666" lon="15.2160362"><ele>40.0</ele><time>2026-04-11T11:57:09.901Z</time></trkpt><trkpt lat="40.1153566" lon="15.2160938"><ele>40.0</ele><time>2026-04-11T11:57:10.896Z</time></trkpt><trkpt lat="40.1152275" lon="15.216171"><ele>40.0</ele><time>2026-04-11T11:57:11.898Z</time></trkpt><trkpt lat="40.1150805" lon="15.2162499"><ele>40.0</ele><time>2026-04-11T11:57:12.905Z</time></trkpt><trkpt lat="40.1149312" lon="15.2163287"><ele>40.0</ele><time>2026-04-11T11:57:13.89Z</time></trkpt><trkpt lat="40.1147964" lon="15.2164019"><ele>40.0</ele><time>2026-04-11T11:57:14.892Z</time></trkpt><trkpt lat="40.114673" lon="15.2164903"><ele>40.0</ele><time>2026-04-11T11:57:15.901Z</time></trkpt><trkpt lat="40.1145522" lon="15.2165874"><ele>40.0</ele><time>2026-04-11T11:57:16.896Z</time></trkpt><trkpt lat="40.1144266" lon="15.2166883"><ele>40.0</ele><time>2026-04-11T11:57:17.889Z</time></trkpt><trkpt lat="40.1143043" lon="15.2167916"><ele>40.0</ele><time>2026-04-11T11:57:18.911Z</time></trkpt><trkpt lat="40.1141818" lon="15.2169141"><ele>40.0</ele><time>2026-04-11T11:57:19.897Z</time></trkpt><trkpt lat="40.1140516" lon="15.2170629"><ele>37.66666666666667</ele><time>2026-04-11T11:57:20.899Z</time></trkpt><trkpt lat="40.1139164" lon="15.2172259"><ele>35.333333333333336</ele><time>2026-04-11T11:57:21.897Z</time></trkpt><trkpt lat="40.1138013" lon="15.2173705"><ele>33.0</ele><time>2026-04-11T11:57:22.9Z</time></trkpt><trkpt lat="40.113701" lon="15.2174839"><ele>33.0</ele><time>2026-04-11T11:57:23.89Z</time></trkpt><trkpt lat="40.113621" lon="15.2175779"><ele>33.0</ele><time>2026-04-11T11:57:24.9Z</time></trkpt><trkpt lat="40.1135465" lon="15.2176436"><ele>33.0</ele><time>2026-04-11T11:57:25.897Z</time></trkpt><trkpt lat="40.1134628" lon="15.2176946"><ele>33.0</ele><time>2026-04-11T11:57:26.892Z</time></trkpt><trkpt lat="40.1133604" lon="15.21775"><ele>33.0</ele><time>2026-04-11T11:57:27.888Z</time></trkpt><trkpt lat="40.1132551" lon="15.2178516"><ele>31.0</ele><time>2026-04-11T11:57:28.897Z</time></trkpt><trkpt lat="40.113153" lon="15.2179932"><ele>29.0</ele><time>2026-04-11T11:57:29.905Z</time></trkpt><trkpt lat="40.1130492" lon="15.2181384"><ele>27.0</ele><time>2026-04-11T11:57:30.893Z</time></trkpt><trkpt lat="40.112941" lon="15.2182777"><ele>27.0</ele><time>2026-04-11T11:57:31.895Z</time></trkpt><trkpt lat="40.1128275" lon="15.2184144"><ele>27.0</ele><time>2026-04-11T11:57:32.883Z</time></trkpt><trkpt lat="40.1126991" lon="15.218561"><ele>27.0</ele><time>2026-04-11T11:57:33.886Z</time></trkpt><trkpt lat="40.1125587" lon="15.2187095"><ele>27.0</ele><time>2026-04-11T11:57:34.897Z</time></trkpt><trkpt lat="40.1124304" lon="15.2188425"><ele>27.0</ele><time>2026-04-11T11:57:35.897Z</time></trkpt><trkpt lat="40.1123089" lon="15.2189712"><ele>27.0</ele><time>2026-04-11T11:57:36.88Z</time></trkpt><trkpt lat="40.1121978" lon="15.2190917"><ele>27.5</ele><time>2026-04-11T11:57:37.893Z</time></trkpt><trkpt lat="40.1120995" lon="15.2192027"><ele>28.0</ele><time>2026-04-11T11:57:38.888Z</time></trkpt><trkpt lat="40.1120036" lon="15.2193185"><ele>28.5</ele><time>2026-04-11T11:57:39.892Z</time></trkpt><trkpt lat="40.1119097" lon="15.219449"><ele>29.0</ele><time>2026-04-11T11:57:40.898Z</time></trkpt><trkpt lat="40.1118215" lon="15.2196078"><ele>29.0</ele><time>2026-04-11T11:57:41.895Z</time></trkpt><trkpt lat="40.1117367" lon="15.219766"><ele>29.0</ele><time>2026-04-11T11:57:42.895Z</time></trkpt><trkpt lat="40.1116468" lon="15.2199154"><ele>29.0</ele><time>2026-04-11T11:57:43.894Z</time></trkpt><trkpt lat="40.111562" lon="15.2200796"><ele>29.0</ele><time>2026-04-11T11:57:44.898Z</time></trkpt><trkpt lat="40.111469" lon="15.2202496"><ele>29.666666666666664</ele><time>2026-04-11T11:57:45.907Z</time></trkpt><trkpt lat="40.1113827" lon="15.2204212"><ele>30.333333333333336</ele><time>2026-04-11T11:57:46.893Z</time></trkpt><trkpt lat="40.1112995" lon="15.2205965"><ele>31.0</ele><time>2026-04-11T11:57:47.897Z</time></trkpt><trkpt lat="40.1112069" lon="15.2207862"><ele>31.0</ele><time>2026-04-11T11:57:48.898Z</time></trkpt><trkpt lat="40.1111104" lon="15.2209902"><ele>31.0</ele><time>2026-04-11T11:57:49.885Z</time></trkpt><trkpt lat="40.1110142" lon="15.2211997"><ele>31.0</ele><time>2026-04-11T11:57:50.896Z</time></trkpt><trkpt lat="40.1109285" lon="15.2214022"><ele>36.66666666666667</ele><time>2026-04-11T11:57:51.889Z</time></trkpt><trkpt lat="40.1108385" lon="15.2215977"><ele>42.333333333333336</ele><time>2026-04-11T11:57:52.894Z</time></trkpt><trkpt lat="40.1107363" lon="15.2217786"><ele>48.0</ele><time>2026-04-11T11:57:53.897Z</time></trkpt><trkpt lat="40.1106296" lon="15.2219637"><ele>41.0</ele><time>2026-04-11T11:57:54.913Z</time></trkpt><trkpt lat="40.1105246" lon="15.222151"><ele>34.0</ele><time>2026-04-11T11:57:55.895Z</time></trkpt><trkpt lat="40.1104217" lon="15.222336"><ele>27.0</ele><time>2026-04-11T11:57:56.889Z</time></trkpt><trkpt lat="40.1103217" lon="15.2225244"><ele>27.0</ele><time>2026-04-11T11:57:57.876Z</time></trkpt><trkpt lat="40.1102231" lon="15.2227108"><ele>27.0</ele><time>2026-04-11T11:57:58.873Z</time></trkpt><trkpt lat="40.1101351" lon="15.222865"><ele>27.0</ele><time>2026-04-11T11:57:59.894Z</time></trkpt><trkpt lat="40.1100613" lon="15.222997"><ele>27.0</ele><time>2026-04-11T11:58:00.89Z</time></trkpt><trkpt lat="40.1099824" lon="15.2231329"><ele>23.75</ele><time>2026-04-11T11:58:01.894Z</time></trkpt><trkpt lat="40.1099034" lon="15.2232824"><ele>20.5</ele><time>2026-04-11T11:58:02.899Z</time></trkpt><trkpt lat="40.1098241" lon="15.2234345"><ele>17.25</ele><time>2026-04-11T11:58:03.903Z</time></trkpt><trkpt lat="40.1097412" lon="15.2235829"><ele>14.0</ele><time>2026-04-11T11:58:04.891Z</time></trkpt><trkpt lat="40.1096522" lon="15.2237342"><ele>14.0</ele><time>2026-04-11T11:58:05.898Z</time></trkpt><trkpt lat="40.1095579" lon="15.2238976"><ele>14.0</ele><time>2026-04-11T11:58:06.89Z</time></trkpt><trkpt lat="40.1094653" lon="15.2240563"><ele>14.0</ele><time>2026-04-11T11:58:07.888Z</time></trkpt><trkpt lat="40.1093802" lon="15.2241998"><ele>14.0</ele><time>2026-04-11T11:58:08.895Z</time></trkpt><trkpt lat="40.1093047" lon="15.2243159"><ele>15.333333333333334</ele><time>2026-04-11T11:58:09.89Z</time></trkpt><trkpt lat="40.1092456" lon="15.2244054"><ele>16.666666666666668</ele><time>2026-04-11T11:58:10.897Z</time></trkpt><trkpt lat="40.1091967" lon="15.224484"><ele>18.0</ele><time>2026-04-11T11:58:11.892Z</time></trkpt><trkpt lat="40.1091491" lon="15.2245493"><ele>19.333333333333332</ele><time>2026-04-11T11:58:12.902Z</time></trkpt><trkpt lat="40.1090735" lon="15.2246559"><ele>20.666666666666664</ele><time>2026-04-11T11:58:14.9Z</time></trkpt><trkpt lat="40.1090183" lon="15.2247199"><ele>22.0</ele><time>2026-04-11T11:58:16.898Z</time></trkpt><trkpt lat="40.1089539" lon="15.2247997"><ele>26.0</ele><time>2026-04-11T11:58:18.91Z</time></trkpt><trkpt lat="40.1088885" lon="15.2248712"><ele>30.0</ele><time>2026-04-11T11:59:36.901Z</time></trkpt><trkpt lat="40.1088105" lon="15.2249581"><ele>34.0</ele><time>2026-04-11T11:59:38.899Z</time></trkpt><trkpt lat="40.1087557" lon="15.2250271"><ele>38.0</ele><time>2026-04-11T11:59:39.901Z</time></trkpt><trkpt lat="40.1086799" lon="15.2251125"><ele>42.0</ele><time>2026-04-11T11:59:40.893Z</time></trkpt><trkpt lat="40.108597" lon="15.2251966"><ele>42.0</ele><time>2026-04-11T11:59:41.907Z</time></trkpt><trkpt lat="40.1085321" lon="15.2252665"><ele>42.0</ele><time>2026-04-11T11:59:42.901Z</time></trkpt><trkpt lat="40.1084706" lon="15.2253265"><ele>42.0</ele><time>2026-04-11T11:59:43.891Z</time></trkpt><trkpt lat="40.1084065" lon="15.2253906"><ele>42.0</ele><time>2026-04-11T11:59:44.895Z</time></trkpt><trkpt lat="40.1083249" lon="15.2254823"><ele>42.0</ele><time>2026-04-11T11:59:45.907Z</time></trkpt><trkpt lat="40.1082399" lon="15.2255813"><ele>43.8</ele><time>2026-04-11T11:59:46.911Z</time></trkpt><trkpt lat="40.1081469" lon="15.2256781"><ele>45.6</ele><time>2026-04-11T11:59:47.903Z</time></trkpt><trkpt lat="40.1080634" lon="15.2257786"><ele>47.4</ele><time>2026-04-11T11:59:48.9Z</time></trkpt><trkpt lat="40.1079896" lon="15.2258583"><ele>49.199999999999996</ele><time>2026-04-11T11:59:49.904Z</time></trkpt><trkpt lat="40.107935" lon="15.2259241"><ele>51.0</ele><time>2026-04-11T11:59:50.896Z</time></trkpt><trkpt lat="40.1078431" lon="15.2260129"><ele>51.0</ele><time>2026-04-11T11:59:52.897Z</time></trkpt><trkpt lat="40.1077596" lon="15.2260916"><ele>51.0</ele><time>2026-04-11T11:59:54.896Z</time></trkpt><trkpt lat="40.1076941" lon="15.2261663"><ele>51.0</ele><time>2026-04-11T11:59:56.897Z</time></trkpt><trkpt lat="40.1076096" lon="15.226231"><ele>51.0</ele><time>2026-04-11T11:59:58.898Z</time></trkpt><trkpt lat="40.1059727" lon="15.2280735"><ele>52.0</ele><time>2026-04-11T12:00:17.877Z</time></trkpt><trkpt lat="40.1058512" lon="15.2281558"><ele>53.0</ele><time>2026-04-11T12:00:18.903Z</time></trkpt><trkpt lat="40.1057806" lon="15.2282422"><ele>54.0</ele><time>2026-04-11T12:00:19.886Z</time></trkpt><trkpt lat="40.1056776" lon="15.2283441"><ele>55.0</ele><time>2026-04-11T12:00:20.886Z</time></trkpt><trkpt lat="40.1055638" lon="15.2284615"><ele>52.8</ele><time>2026-04-11T12:00:21.892Z</time></trkpt><trkpt lat="40.105454" lon="15.2285808"><ele>50.6</ele><time>2026-04-11T12:00:22.905Z</time></trkpt><trkpt lat="40.1053645" lon="15.2286756"><ele>48.400000000000006</ele><time>2026-04-11T12:00:23.894Z</time></trkpt><trkpt lat="40.1052979" lon="15.2287482"><ele>46.2</ele><time>2026-04-11T12:00:24.894Z</time></trkpt><trkpt lat="40.1052416" lon="15.2288055"><ele>44.0</ele><time>2026-04-11T12:00:25.893Z</time></trkpt><trkpt lat="40.1051495" lon="15.2289008"><ele>44.0</ele><time>2026-04-11T12:00:27.896Z</time></trkpt><trkpt lat="40.1050639" lon="15.2289608"><ele>44.0</ele><time>2026-04-11T12:00:29.89Z</time></trkpt><trkpt lat="40.1050003" lon="15.2289647"><ele>44.0</ele><time>2026-04-11T12:00:31.906Z</time></trkpt><trkpt lat="40.1049337" lon="15.2289303"><ele>44.0</ele><time>2026-04-11T12:00:33.893Z</time></trkpt><trkpt lat="40.1048556" lon="15.2288258"><ele>44.0</ele><time>2026-04-11T12:00:35.886Z</time></trkpt><trkpt lat="40.1047944" lon="15.2287274"><ele>44.0</ele><time>2026-04-11T12:00:36.897Z</time></trkpt><trkpt lat="40.1047243" lon="15.2286181"><ele>43.0</ele><time>2026-04-11T12:00:37.894Z</time></trkpt><trkpt lat="40.1046588" lon="15.2285086"><ele>43.0</ele><time>2026-04-11T12:00:38.895Z</time></trkpt><trkpt lat="40.1046122" lon="15.2284216"><ele>43.0</ele><time>2026-04-11T12:00:39.886Z</time></trkpt><trkpt lat="40.1045718" lon="15.2283508"><ele>43.0</ele><time>2026-04-11T12:00:40.89Z</time></trkpt><trkpt lat="40.1044935" lon="15.2282377"><ele>43.0</ele><time>2026-04-11T12:00:42.892Z</time></trkpt><trkpt lat="40.1044435" lon="15.22816"><ele>43.0</ele><time>2026-04-11T12:00:44.894Z</time></trkpt></trkseg><trkseg><trkpt lat="40.1044896" lon="15.2275895"><ele>28.0</ele><time>2026-04-11T12:21:15.24Z</time></trkpt><trkpt lat="40.1044474" lon="15.2278592"><ele>28.0</ele><time>2026-04-11T12:21:17.809Z</time></trkpt><trkpt lat="40.104421" lon="15.2279968"><ele>28.0</ele><time>2026-04-11T12:21:19.807Z</time></trkpt></trkseg></trk></gpx>